<?xml version="1.0" encoding="UTF-8" standalone="no" ?>
<gpx xmlns="http://www.topografix.com/GPX/1/1" xmlns:xsi="http://www.w3.org/2001/XMLSchema-instance" xsi:schemaLocation="http://www.topografix.com/GPX/1/1 http://www.topografix.com/GPX/1/1/gpx.xsd" version="1.1" creator="VisuGPX - https://www.visugpx.com">
  <metadata>
    <name>Rando_Quissac_Le_Coutach_03042022_v2</name>
  </metadata>
  <trk>
    <name><![CDATA[Rando_Quissac_Le_Coutach_03042022]]></name>
    <extensions>
      <line xmlns="http://www.topografix.com/GPX/gpx_style/0/2">
        <color>0000FF</color>
        <width>4</width>
      </line>
    </extensions>
    <trkseg>
      <trkpt lat="43.90542" lon="4.00277">
        <ele>70.5</ele>
        <time>2024-04-06T12:10:14.000Z</time>
      </trkpt>
      <trkpt lat="43.90541" lon="4.00272">
        <ele>70.4</ele>
        <time>2024-04-06T12:10:15.103Z</time>
      </trkpt>
      <trkpt lat="43.90541" lon="4.00267">
        <ele>70.3</ele>
        <time>2024-04-06T12:10:16.163Z</time>
      </trkpt>
      <trkpt lat="43.9054" lon="4.00264">
        <ele>70.2</ele>
        <time>2024-04-06T12:10:16.835Z</time>
      </trkpt>
      <trkpt lat="43.90544" lon="4.00269">
        <ele>70.4</ele>
        <time>2024-04-06T12:10:18.771Z</time>
      </trkpt>
      <trkpt lat="43.90547" lon="4.00274">
        <ele>70.6</ele>
        <time>2024-04-06T12:10:20.488Z</time>
      </trkpt>
      <trkpt lat="43.90543" lon="4.00268">
        <ele>70.4</ele>
        <time>2024-04-06T12:10:22.189Z</time>
      </trkpt>
      <trkpt lat="43.90539" lon="4.00262">
        <ele>70.2</ele>
        <time>2024-04-06T12:10:23.890Z</time>
      </trkpt>
      <trkpt lat="43.9054" lon="4.00259">
        <ele>70.1</ele>
        <time>2024-04-06T12:10:24.562Z</time>
      </trkpt>
      <trkpt lat="43.90539" lon="4.00261">
        <ele>70.2</ele>
        <time>2024-04-06T12:10:25.235Z</time>
      </trkpt>
      <trkpt lat="43.90538" lon="4.00264">
        <ele>70.2</ele>
        <time>2024-04-06T12:10:25.997Z</time>
      </trkpt>
      <trkpt lat="43.90536" lon="4.00262">
        <ele>70.1</ele>
        <time>2024-04-06T12:10:26.696Z</time>
      </trkpt>
      <trkpt lat="43.90535" lon="4.0026">
        <ele>70.1</ele>
        <time>2024-04-06T12:10:27.257Z</time>
      </trkpt>
      <trkpt lat="43.90539" lon="4.00257">
        <ele>70.1</ele>
        <time>2024-04-06T12:10:28.712Z</time>
      </trkpt>
      <trkpt lat="43.90539" lon="4.00258">
        <ele>70.1</ele>
        <time>2024-04-06T12:10:28.942Z</time>
      </trkpt>
      <trkpt lat="43.90539" lon="4.00263">
        <ele>70.2</ele>
        <time>2024-04-06T12:10:30.199Z</time>
      </trkpt>
      <trkpt lat="43.90539" lon="4.00266">
        <ele>70.2</ele>
        <time>2024-04-06T12:10:30.891Z</time>
      </trkpt>
      <trkpt lat="43.90539" lon="4.00269">
        <ele>70.3</ele>
        <time>2024-04-06T12:10:31.692Z</time>
      </trkpt>
      <trkpt lat="43.90536" lon="4.00268">
        <ele>70.2</ele>
        <time>2024-04-06T12:10:32.587Z</time>
      </trkpt>
      <trkpt lat="43.90537" lon="4.00264">
        <ele>70.2</ele>
        <time>2024-04-06T12:10:33.563Z</time>
      </trkpt>
      <trkpt lat="43.90539" lon="4.00262">
        <ele>70.2</ele>
        <time>2024-04-06T12:10:34.352Z</time>
      </trkpt>
      <trkpt lat="43.90538" lon="4.00264">
        <ele>70.2</ele>
        <time>2024-04-06T12:10:34.913Z</time>
      </trkpt>
      <trkpt lat="43.90532" lon="4.00266">
        <ele>70.1</ele>
        <time>2024-04-06T12:10:36.792Z</time>
      </trkpt>
      <trkpt lat="43.90526" lon="4.00267">
        <ele>70</ele>
        <time>2024-04-06T12:10:38.631Z</time>
      </trkpt>
      <trkpt lat="43.90524" lon="4.0027">
        <ele>70</ele>
        <time>2024-04-06T12:10:39.573Z</time>
      </trkpt>
      <trkpt lat="43.90521" lon="4.00274">
        <ele>70</ele>
        <time>2024-04-06T12:10:40.904Z</time>
      </trkpt>
      <trkpt lat="43.90518" lon="4.00277">
        <ele>70</ele>
        <time>2024-04-06T12:10:42.087Z</time>
      </trkpt>
      <trkpt lat="43.90515" lon="4.00281">
        <ele>70.1</ele>
        <time>2024-04-06T12:10:43.522Z</time>
      </trkpt>
      <trkpt lat="43.90513" lon="4.00284">
        <ele>70.1</ele>
        <time>2024-04-06T12:10:44.465Z</time>
      </trkpt>
      <trkpt lat="43.90511" lon="4.00288">
        <ele>70.1</ele>
        <time>2024-04-06T12:10:45.587Z</time>
      </trkpt>
      <trkpt lat="43.90512" lon="4.00292">
        <ele>70.2</ele>
        <time>2024-04-06T12:10:46.669Z</time>
      </trkpt>
      <trkpt lat="43.90514" lon="4.00293">
        <ele>70.3</ele>
        <time>2024-04-06T12:10:47.459Z</time>
      </trkpt>
      <trkpt lat="43.90516" lon="4.00291">
        <ele>70.3</ele>
        <time>2024-04-06T12:10:48.247Z</time>
      </trkpt>
      <trkpt lat="43.90517" lon="4.00288">
        <ele>70.2</ele>
        <time>2024-04-06T12:10:48.919Z</time>
      </trkpt>
      <trkpt lat="43.90518" lon="4.00286">
        <ele>70.2</ele>
        <time>2024-04-06T12:10:49.481Z</time>
      </trkpt>
      <trkpt lat="43.90524" lon="4.00281">
        <ele>70.1</ele>
        <time>2024-04-06T12:10:51.624Z</time>
      </trkpt>
      <trkpt lat="43.90531" lon="4.00276">
        <ele>70.1</ele>
        <time>2024-04-06T12:10:54.143Z</time>
      </trkpt>
      <trkpt lat="43.90537" lon="4.00271">
        <ele>70.3</ele>
        <time>2024-04-06T12:10:56.484Z</time>
      </trkpt>
      <trkpt lat="43.90543" lon="4.00266">
        <ele>70.3</ele>
        <time>2024-04-06T12:10:58.825Z</time>
      </trkpt>
      <trkpt lat="43.90537" lon="4.0027">
        <ele>70.2</ele>
        <time>2024-04-06T12:11:00.860Z</time>
      </trkpt>
      <trkpt lat="43.90531" lon="4.00275">
        <ele>70.1</ele>
        <time>2024-04-06T12:11:03.003Z</time>
      </trkpt>
      <trkpt lat="43.90525" lon="4.00279">
        <ele>70</ele>
        <time>2024-04-06T12:11:05.038Z</time>
      </trkpt>
      <trkpt lat="43.90519" lon="4.00283">
        <ele>70.1</ele>
        <time>2024-04-06T12:11:07.269Z</time>
      </trkpt>
      <trkpt lat="43.90525" lon="4.00279">
        <ele>70</ele>
        <time>2024-04-06T12:11:09.304Z</time>
      </trkpt>
      <trkpt lat="43.90532" lon="4.00275">
        <ele>70.1</ele>
        <time>2024-04-06T12:11:11.827Z</time>
      </trkpt>
      <trkpt lat="43.90538" lon="4.0027">
        <ele>70.3</ele>
        <time>2024-04-06T12:11:14.276Z</time>
      </trkpt>
      <trkpt lat="43.90544" lon="4.00266">
        <ele>70.3</ele>
        <time>2024-04-06T12:11:16.406Z</time>
      </trkpt>
      <trkpt lat="43.90538" lon="4.0027">
        <ele>70.3</ele>
        <time>2024-04-06T12:11:18.536Z</time>
      </trkpt>
      <trkpt lat="43.90533" lon="4.00274">
        <ele>70.2</ele>
        <time>2024-04-06T12:11:20.200Z</time>
      </trkpt>
      <trkpt lat="43.90527" lon="4.00277">
        <ele>70</ele>
        <time>2024-04-06T12:11:22.145Z</time>
      </trkpt>
      <trkpt lat="43.90521" lon="4.00281">
        <ele>70.1</ele>
        <time>2024-04-06T12:11:24.377Z</time>
      </trkpt>
      <trkpt lat="43.90523" lon="4.00279">
        <ele>70</ele>
        <time>2024-04-06T12:11:25.075Z</time>
      </trkpt>
      <trkpt lat="43.90525" lon="4.00276">
        <ele>70</ele>
        <time>2024-04-06T12:11:26.017Z</time>
      </trkpt>
      <trkpt lat="43.90526" lon="4.00273">
        <ele>70</ele>
        <time>2024-04-06T12:11:26.779Z</time>
      </trkpt>
      <trkpt lat="43.90526" lon="4.0027">
        <ele>70</ele>
        <time>2024-04-06T12:11:27.471Z</time>
      </trkpt>
      <trkpt lat="43.90527" lon="4.00268">
        <ele>70</ele>
        <time>2024-04-06T12:11:28.032Z</time>
      </trkpt>
      <trkpt lat="43.90529" lon="4.00267">
        <ele>70</ele>
        <time>2024-04-06T12:11:28.712Z</time>
      </trkpt>
      <trkpt lat="43.90531" lon="4.00265">
        <ele>70.1</ele>
        <time>2024-04-06T12:11:29.609Z</time>
      </trkpt>
      <trkpt lat="43.90532" lon="4.00264">
        <ele>70.1</ele>
        <time>2024-04-06T12:11:30.003Z</time>
      </trkpt>
      <trkpt lat="43.90535" lon="4.00262">
        <ele>70.1</ele>
        <time>2024-04-06T12:11:31.068Z</time>
      </trkpt>
      <trkpt lat="43.90537" lon="4.00262">
        <ele>70.1</ele>
        <time>2024-04-06T12:11:31.708Z</time>
      </trkpt>
      <trkpt lat="43.90538" lon="4.00262">
        <ele>70.2</ele>
        <time>2024-04-06T12:11:32.152Z</time>
      </trkpt>
      <trkpt lat="43.90545" lon="4.00263">
        <ele>70.3</ele>
        <time>2024-04-06T12:11:34.505Z</time>
      </trkpt>
      <trkpt lat="43.90546" lon="4.0026">
        <ele>70.2</ele>
        <time>2024-04-06T12:11:35.177Z</time>
      </trkpt>
      <trkpt lat="43.90548" lon="4.00258">
        <ele>70.2</ele>
        <time>2024-04-06T12:11:35.966Z</time>
      </trkpt>
      <trkpt lat="43.90551" lon="4.00254">
        <ele>70.1</ele>
        <time>2024-04-06T12:11:37.203Z</time>
      </trkpt>
      <trkpt lat="43.90552" lon="4.00252">
        <ele>70.1</ele>
        <time>2024-04-06T12:11:37.765Z</time>
      </trkpt>
      <trkpt lat="43.90553" lon="4.00249">
        <ele>70</ele>
        <time>2024-04-06T12:11:38.437Z</time>
      </trkpt>
      <trkpt lat="43.90555" lon="4.00247">
        <ele>70</ele>
        <time>2024-04-06T12:11:39.225Z</time>
      </trkpt>
      <trkpt lat="43.90557" lon="4.00245">
        <ele>70.1</ele>
        <time>2024-04-06T12:11:40.122Z</time>
      </trkpt>
      <trkpt lat="43.90559" lon="4.00243">
        <ele>70.2</ele>
        <time>2024-04-06T12:11:41.018Z</time>
      </trkpt>
      <trkpt lat="43.9056" lon="4.0024">
        <ele>70.3</ele>
        <time>2024-04-06T12:11:41.888Z</time>
      </trkpt>
      <trkpt lat="43.90561" lon="4.00236">
        <ele>70.3</ele>
        <time>2024-04-06T12:11:42.865Z</time>
      </trkpt>
      <trkpt lat="43.90563" lon="4.00233">
        <ele>70.4</ele>
        <time>2024-04-06T12:11:43.913Z</time>
      </trkpt>
      <trkpt lat="43.90565" lon="4.00231">
        <ele>70.4</ele>
        <time>2024-04-06T12:11:44.702Z</time>
      </trkpt>
      <trkpt lat="43.90567" lon="4.00228">
        <ele>70.5</ele>
        <time>2024-04-06T12:11:45.750Z</time>
      </trkpt>
      <trkpt lat="43.9057" lon="4.00226">
        <ele>70.6</ele>
        <time>2024-04-06T12:11:46.920Z</time>
      </trkpt>
      <trkpt lat="43.90574" lon="4.00224">
        <ele>70.7</ele>
        <time>2024-04-06T12:11:48.384Z</time>
      </trkpt>
      <trkpt lat="43.90577" lon="4.00222">
        <ele>70.8</ele>
        <time>2024-04-06T12:11:49.555Z</time>
      </trkpt>
      <trkpt lat="43.90579" lon="4.00222">
        <ele>70.8</ele>
        <time>2024-04-06T12:11:50.195Z</time>
      </trkpt>
      <trkpt lat="43.90581" lon="4.00221">
        <ele>70.9</ele>
        <time>2024-04-06T12:11:50.984Z</time>
      </trkpt>
      <trkpt lat="43.90583" lon="4.00219">
        <ele>70.9</ele>
        <time>2024-04-06T12:11:51.773Z</time>
      </trkpt>
      <trkpt lat="43.90585" lon="4.00218">
        <ele>70.9</ele>
        <time>2024-04-06T12:11:52.453Z</time>
      </trkpt>
      <trkpt lat="43.90587" lon="4.00217">
        <ele>70.8</ele>
        <time>2024-04-06T12:11:53.048Z</time>
      </trkpt>
      <trkpt lat="43.90588" lon="4.00215">
        <ele>70.8</ele>
        <time>2024-04-06T12:11:53.610Z</time>
      </trkpt>
      <trkpt lat="43.90589" lon="4.00212">
        <ele>70.7</ele>
        <time>2024-04-06T12:11:54.281Z</time>
      </trkpt>
      <trkpt lat="43.90591" lon="4.00209">
        <ele>70.7</ele>
        <time>2024-04-06T12:11:55.224Z</time>
      </trkpt>
      <trkpt lat="43.90592" lon="4.00207">
        <ele>70.6</ele>
        <time>2024-04-06T12:11:55.715Z</time>
      </trkpt>
      <trkpt lat="43.90593" lon="4.00205">
        <ele>70.6</ele>
        <time>2024-04-06T12:11:56.276Z</time>
      </trkpt>
      <trkpt lat="43.90595" lon="4.00202">
        <ele>70.6</ele>
        <time>2024-04-06T12:11:57.218Z</time>
      </trkpt>
      <trkpt lat="43.90597" lon="4.00199">
        <ele>70.6</ele>
        <time>2024-04-06T12:11:58.160Z</time>
      </trkpt>
      <trkpt lat="43.90599" lon="4.00196">
        <ele>70.6</ele>
        <time>2024-04-06T12:11:59.103Z</time>
      </trkpt>
      <trkpt lat="43.90601" lon="4.00193">
        <ele>70.6</ele>
        <time>2024-04-06T12:12:00.045Z</time>
      </trkpt>
      <trkpt lat="43.90603" lon="4.0019">
        <ele>70.7</ele>
        <time>2024-04-06T12:12:01.093Z</time>
      </trkpt>
      <trkpt lat="43.90605" lon="4.00186">
        <ele>70.8</ele>
        <time>2024-04-06T12:12:02.321Z</time>
      </trkpt>
      <trkpt lat="43.90607" lon="4.00182">
        <ele>70.9</ele>
        <time>2024-04-06T12:12:03.548Z</time>
      </trkpt>
      <trkpt lat="43.90609" lon="4.00179">
        <ele>70.9</ele>
        <time>2024-04-06T12:12:04.490Z</time>
      </trkpt>
      <trkpt lat="43.9061" lon="4.00175">
        <ele>71</ele>
        <time>2024-04-06T12:12:05.572Z</time>
      </trkpt>
      <trkpt lat="43.90612" lon="4.00171">
        <ele>71</ele>
        <time>2024-04-06T12:12:06.695Z</time>
      </trkpt>
      <trkpt lat="43.90614" lon="4.00167">
        <ele>71.1</ele>
        <time>2024-04-06T12:12:07.922Z</time>
      </trkpt>
      <trkpt lat="43.90616" lon="4.00164">
        <ele>71.1</ele>
        <time>2024-04-06T12:12:08.864Z</time>
      </trkpt>
      <trkpt lat="43.90617" lon="4.0016">
        <ele>71</ele>
        <time>2024-04-06T12:12:09.748Z</time>
      </trkpt>
      <trkpt lat="43.90619" lon="4.00156">
        <ele>71</ele>
        <time>2024-04-06T12:12:10.871Z</time>
      </trkpt>
      <trkpt lat="43.90621" lon="4.00152">
        <ele>71</ele>
        <time>2024-04-06T12:12:11.993Z</time>
      </trkpt>
      <trkpt lat="43.90622" lon="4.00148">
        <ele>71</ele>
        <time>2024-04-06T12:12:12.969Z</time>
      </trkpt>
      <trkpt lat="43.90624" lon="4.00144">
        <ele>71</ele>
        <time>2024-04-06T12:12:14.092Z</time>
      </trkpt>
      <trkpt lat="43.90626" lon="4.0014">
        <ele>71.1</ele>
        <time>2024-04-06T12:12:15.319Z</time>
      </trkpt>
      <trkpt lat="43.90627" lon="4.00136">
        <ele>71.1</ele>
        <time>2024-04-06T12:12:16.295Z</time>
      </trkpt>
      <trkpt lat="43.90629" lon="4.00132">
        <ele>71.1</ele>
        <time>2024-04-06T12:12:17.418Z</time>
      </trkpt>
      <trkpt lat="43.90631" lon="4.00128">
        <ele>71.2</ele>
        <time>2024-04-06T12:12:18.645Z</time>
      </trkpt>
      <trkpt lat="43.90633" lon="4.00124">
        <ele>71.2</ele>
        <time>2024-04-06T12:12:19.767Z</time>
      </trkpt>
      <trkpt lat="43.90635" lon="4.0012">
        <ele>71.1</ele>
        <time>2024-04-06T12:12:20.797Z</time>
      </trkpt>
      <trkpt lat="43.90637" lon="4.00116">
        <ele>71.1</ele>
        <time>2024-04-06T12:12:21.919Z</time>
      </trkpt>
      <trkpt lat="43.90638" lon="4.00112">
        <ele>71</ele>
        <time>2024-04-06T12:12:22.804Z</time>
      </trkpt>
      <trkpt lat="43.9064" lon="4.00108">
        <ele>71</ele>
        <time>2024-04-06T12:12:23.926Z</time>
      </trkpt>
      <trkpt lat="43.90642" lon="4.00104">
        <ele>71.1</ele>
        <time>2024-04-06T12:12:25.153Z</time>
      </trkpt>
      <trkpt lat="43.90643" lon="4.00101">
        <ele>71.1</ele>
        <time>2024-04-06T12:12:25.915Z</time>
      </trkpt>
      <trkpt lat="43.90645" lon="4.00096">
        <ele>71.2</ele>
        <time>2024-04-06T12:12:27.338Z</time>
      </trkpt>
      <trkpt lat="43.90647" lon="4.00092">
        <ele>71.3</ele>
        <time>2024-04-06T12:12:28.565Z</time>
      </trkpt>
      <trkpt lat="43.90649" lon="4.00088">
        <ele>71.4</ele>
        <time>2024-04-06T12:12:29.792Z</time>
      </trkpt>
      <trkpt lat="43.9065" lon="4.00084">
        <ele>71.4</ele>
        <time>2024-04-06T12:12:30.768Z</time>
      </trkpt>
      <trkpt lat="43.90652" lon="4.00079">
        <ele>71.4</ele>
        <time>2024-04-06T12:12:32.087Z</time>
      </trkpt>
      <trkpt lat="43.90653" lon="4.00074">
        <ele>71.3</ele>
        <time>2024-04-06T12:12:33.190Z</time>
      </trkpt>
      <trkpt lat="43.90655" lon="4.00069">
        <ele>71.4</ele>
        <time>2024-04-06T12:12:34.612Z</time>
      </trkpt>
      <trkpt lat="43.90656" lon="4.00064">
        <ele>71.3</ele>
        <time>2024-04-06T12:12:35.715Z</time>
      </trkpt>
      <trkpt lat="43.90658" lon="4.00059">
        <ele>71.4</ele>
        <time>2024-04-06T12:12:37.138Z</time>
      </trkpt>
      <trkpt lat="43.9066" lon="4.00055">
        <ele>71.5</ele>
        <time>2024-04-06T12:12:38.365Z</time>
      </trkpt>
      <trkpt lat="43.90661" lon="4.0005">
        <ele>71.4</ele>
        <time>2024-04-06T12:12:39.468Z</time>
      </trkpt>
      <trkpt lat="43.90662" lon="4.00046">
        <ele>71.4</ele>
        <time>2024-04-06T12:12:40.444Z</time>
      </trkpt>
      <trkpt lat="43.90664" lon="4.00042">
        <ele>71.4</ele>
        <time>2024-04-06T12:12:41.567Z</time>
      </trkpt>
      <trkpt lat="43.90666" lon="4.00039">
        <ele>71.4</ele>
        <time>2024-04-06T12:12:42.509Z</time>
      </trkpt>
      <trkpt lat="43.90668" lon="4.00035">
        <ele>71.3</ele>
        <time>2024-04-06T12:12:43.539Z</time>
      </trkpt>
      <trkpt lat="43.90669" lon="4.0003">
        <ele>71.2</ele>
        <time>2024-04-06T12:12:44.642Z</time>
      </trkpt>
      <trkpt lat="43.90672" lon="4.00027">
        <ele>71.2</ele>
        <time>2024-04-06T12:12:45.825Z</time>
      </trkpt>
      <trkpt lat="43.90674" lon="4.00022">
        <ele>71.1</ele>
        <time>2024-04-06T12:12:47.050Z</time>
      </trkpt>
      <trkpt lat="43.90676" lon="4.00018">
        <ele>71</ele>
        <time>2024-04-06T12:12:48.079Z</time>
      </trkpt>
      <trkpt lat="43.90679" lon="4.00014">
        <ele>70.9</ele>
        <time>2024-04-06T12:12:49.317Z</time>
      </trkpt>
      <trkpt lat="43.90682" lon="4.0001">
        <ele>70.9</ele>
        <time>2024-04-06T12:12:50.648Z</time>
      </trkpt>
      <trkpt lat="43.90684" lon="4.00007">
        <ele>70.9</ele>
        <time>2024-04-06T12:12:51.590Z</time>
      </trkpt>
      <trkpt lat="43.90687" lon="4.00004">
        <ele>70.9</ele>
        <time>2024-04-06T12:12:52.773Z</time>
      </trkpt>
      <trkpt lat="43.90689" lon="4">
        <ele>70.8</ele>
        <time>2024-04-06T12:12:53.803Z</time>
      </trkpt>
      <trkpt lat="43.90691" lon="3.99996">
        <ele>70.8</ele>
        <time>2024-04-06T12:12:54.925Z</time>
      </trkpt>
      <trkpt lat="43.90693" lon="3.99992">
        <ele>70.9</ele>
        <time>2024-04-06T12:12:56.153Z</time>
      </trkpt>
      <trkpt lat="43.90695" lon="3.99987">
        <ele>71</ele>
        <time>2024-04-06T12:12:57.575Z</time>
      </trkpt>
      <trkpt lat="43.90697" lon="3.99983">
        <ele>71</ele>
        <time>2024-04-06T12:12:58.697Z</time>
      </trkpt>
      <trkpt lat="43.90699" lon="3.99978">
        <ele>71</ele>
        <time>2024-04-06T12:13:00.016Z</time>
      </trkpt>
      <trkpt lat="43.907" lon="3.99973">
        <ele>71</ele>
        <time>2024-04-06T12:13:01.212Z</time>
      </trkpt>
      <trkpt lat="43.907" lon="3.99969">
        <ele>70.8</ele>
        <time>2024-04-06T12:13:02.019Z</time>
      </trkpt>
      <trkpt lat="43.90701" lon="3.99967">
        <ele>70.7</ele>
        <time>2024-04-06T12:13:02.510Z</time>
      </trkpt>
      <trkpt lat="43.90701" lon="3.99963">
        <ele>70.5</ele>
        <time>2024-04-06T12:13:03.317Z</time>
      </trkpt>
      <trkpt lat="43.90702" lon="3.99959">
        <ele>70.3</ele>
        <time>2024-04-06T12:13:04.171Z</time>
      </trkpt>
      <trkpt lat="43.90702" lon="3.99955">
        <ele>70.1</ele>
        <time>2024-04-06T12:13:04.978Z</time>
      </trkpt>
      <trkpt lat="43.90703" lon="3.99951">
        <ele>69.9</ele>
        <time>2024-04-06T12:13:05.832Z</time>
      </trkpt>
      <trkpt lat="43.90705" lon="3.99947">
        <ele>69.9</ele>
        <time>2024-04-06T12:13:06.954Z</time>
      </trkpt>
      <trkpt lat="43.90707" lon="3.99943">
        <ele>69.9</ele>
        <time>2024-04-06T12:13:08.077Z</time>
      </trkpt>
      <trkpt lat="43.90709" lon="3.99939">
        <ele>70</ele>
        <time>2024-04-06T12:13:09.304Z</time>
      </trkpt>
      <trkpt lat="43.9071" lon="3.99935">
        <ele>70.1</ele>
        <time>2024-04-06T12:13:10.386Z</time>
      </trkpt>
      <trkpt lat="43.9071" lon="3.99929">
        <ele>70.1</ele>
        <time>2024-04-06T12:13:11.769Z</time>
      </trkpt>
      <trkpt lat="43.90711" lon="3.99926">
        <ele>70.2</ele>
        <time>2024-04-06T12:13:12.639Z</time>
      </trkpt>
      <trkpt lat="43.90713" lon="3.99922">
        <ele>70.3</ele>
        <time>2024-04-06T12:13:13.867Z</time>
      </trkpt>
      <trkpt lat="43.90714" lon="3.99919">
        <ele>70.4</ele>
        <time>2024-04-06T12:13:14.737Z</time>
      </trkpt>
      <trkpt lat="43.90715" lon="3.99916">
        <ele>70.5</ele>
        <time>2024-04-06T12:13:15.607Z</time>
      </trkpt>
      <trkpt lat="43.90716" lon="3.99913">
        <ele>70.6</ele>
        <time>2024-04-06T12:13:16.477Z</time>
      </trkpt>
      <trkpt lat="43.90717" lon="3.99911">
        <ele>70.7</ele>
        <time>2024-04-06T12:13:17.150Z</time>
      </trkpt>
      <trkpt lat="43.90718" lon="3.99908">
        <ele>70.7</ele>
        <time>2024-04-06T12:13:17.912Z</time>
      </trkpt>
      <trkpt lat="43.90719" lon="3.99905">
        <ele>70.8</ele>
        <time>2024-04-06T12:13:18.782Z</time>
      </trkpt>
      <trkpt lat="43.90721" lon="3.99902">
        <ele>70.9</ele>
        <time>2024-04-06T12:13:19.831Z</time>
      </trkpt>
      <trkpt lat="43.90727" lon="3.99901">
        <ele>71.2</ele>
        <time>2024-04-06T12:13:22.095Z</time>
      </trkpt>
      <trkpt lat="43.90732" lon="3.99899">
        <ele>71.4</ele>
        <time>2024-04-06T12:13:23.974Z</time>
      </trkpt>
      <trkpt lat="43.90732" lon="3.99898">
        <ele>71.4</ele>
        <time>2024-04-06T12:13:24.205Z</time>
      </trkpt>
      <trkpt lat="43.90728" lon="3.99899">
        <ele>71.2</ele>
        <time>2024-04-06T12:13:25.343Z</time>
      </trkpt>
      <trkpt lat="43.90723" lon="3.999">
        <ele>71</ele>
        <time>2024-04-06T12:13:26.778Z</time>
      </trkpt>
      <trkpt lat="43.90725" lon="3.999">
        <ele>71.1</ele>
        <time>2024-04-06T12:13:27.528Z</time>
      </trkpt>
      <trkpt lat="43.90728" lon="3.99902">
        <ele>71.2</ele>
        <time>2024-04-06T12:13:28.698Z</time>
      </trkpt>
      <trkpt lat="43.9073" lon="3.99905">
        <ele>71.3</ele>
        <time>2024-04-06T12:13:29.746Z</time>
      </trkpt>
      <trkpt lat="43.90732" lon="3.99906">
        <ele>71.4</ele>
        <time>2024-04-06T12:13:30.536Z</time>
      </trkpt>
      <trkpt lat="43.90734" lon="3.99906">
        <ele>71.4</ele>
        <time>2024-04-06T12:13:31.176Z</time>
      </trkpt>
      <trkpt lat="43.90737" lon="3.99906">
        <ele>71.5</ele>
        <time>2024-04-06T12:13:32.242Z</time>
      </trkpt>
      <trkpt lat="43.90739" lon="3.99906">
        <ele>71.6</ele>
        <time>2024-04-06T12:13:32.992Z</time>
      </trkpt>
      <trkpt lat="43.9074" lon="3.99903">
        <ele>71.6</ele>
        <time>2024-04-06T12:13:33.754Z</time>
      </trkpt>
      <trkpt lat="43.9074" lon="3.99902">
        <ele>71.6</ele>
        <time>2024-04-06T12:13:33.984Z</time>
      </trkpt>
      <trkpt lat="43.90736" lon="3.99899">
        <ele>71.5</ele>
        <time>2024-04-06T12:13:35.345Z</time>
      </trkpt>
      <trkpt lat="43.90731" lon="3.99895">
        <ele>71.3</ele>
        <time>2024-04-06T12:13:37.009Z</time>
      </trkpt>
      <trkpt lat="43.90731" lon="3.99894">
        <ele>71.3</ele>
        <time>2024-04-06T12:13:37.239Z</time>
      </trkpt>
      <trkpt lat="43.90735" lon="3.999">
        <ele>71.5</ele>
        <time>2024-04-06T12:13:39.336Z</time>
      </trkpt>
      <trkpt lat="43.90737" lon="3.99904">
        <ele>71.5</ele>
        <time>2024-04-06T12:13:40.459Z</time>
      </trkpt>
      <trkpt lat="43.90737" lon="3.99901">
        <ele>71.5</ele>
        <time>2024-04-06T12:13:41.150Z</time>
      </trkpt>
      <trkpt lat="43.90738" lon="3.99903">
        <ele>71.6</ele>
        <time>2024-04-06T12:13:41.823Z</time>
      </trkpt>
      <trkpt lat="43.90736" lon="3.99905">
        <ele>71.5</ele>
        <time>2024-04-06T12:13:42.522Z</time>
      </trkpt>
      <trkpt lat="43.90739" lon="3.99907">
        <ele>71.6</ele>
        <time>2024-04-06T12:13:43.692Z</time>
      </trkpt>
      <trkpt lat="43.90739" lon="3.99908">
        <ele>71.6</ele>
        <time>2024-04-06T12:13:43.922Z</time>
      </trkpt>
      <trkpt lat="43.90738" lon="3.9991">
        <ele>71.6</ele>
        <time>2024-04-06T12:13:44.483Z</time>
      </trkpt>
      <trkpt lat="43.90738" lon="3.99913">
        <ele>71.6</ele>
        <time>2024-04-06T12:13:45.175Z</time>
      </trkpt>
      <trkpt lat="43.90737" lon="3.99913">
        <ele>71.5</ele>
        <time>2024-04-06T12:13:45.455Z</time>
      </trkpt>
      <trkpt lat="43.90733" lon="3.9992">
        <ele>71.4</ele>
        <time>2024-04-06T12:13:47.419Z</time>
      </trkpt>
      <trkpt lat="43.90731" lon="3.99921">
        <ele>71.4</ele>
        <time>2024-04-06T12:13:48.100Z</time>
      </trkpt>
      <trkpt lat="43.90729" lon="3.9992">
        <ele>71.3</ele>
        <time>2024-04-06T12:13:48.695Z</time>
      </trkpt>
      <trkpt lat="43.90726" lon="3.9992">
        <ele>71.2</ele>
        <time>2024-04-06T12:13:49.563Z</time>
      </trkpt>
      <trkpt lat="43.90723" lon="3.99921">
        <ele>71</ele>
        <time>2024-04-06T12:13:50.427Z</time>
      </trkpt>
      <trkpt lat="43.90721" lon="3.99919">
        <ele>70.9</ele>
        <time>2024-04-06T12:13:51.125Z</time>
      </trkpt>
      <trkpt lat="43.90718" lon="3.99917">
        <ele>70.7</ele>
        <time>2024-04-06T12:13:52.057Z</time>
      </trkpt>
      <trkpt lat="43.90716" lon="3.99917">
        <ele>70.6</ele>
        <time>2024-04-06T12:13:52.617Z</time>
      </trkpt>
      <trkpt lat="43.90714" lon="3.99918">
        <ele>70.4</ele>
        <time>2024-04-06T12:13:53.212Z</time>
      </trkpt>
      <trkpt lat="43.90712" lon="3.9992">
        <ele>70.3</ele>
        <time>2024-04-06T12:13:53.910Z</time>
      </trkpt>
      <trkpt lat="43.9071" lon="3.99923">
        <ele>70.1</ele>
        <time>2024-04-06T12:13:54.735Z</time>
      </trkpt>
      <trkpt lat="43.90708" lon="3.99926">
        <ele>70</ele>
        <time>2024-04-06T12:13:55.585Z</time>
      </trkpt>
      <trkpt lat="43.90707" lon="3.99929">
        <ele>69.9</ele>
        <time>2024-04-06T12:13:56.257Z</time>
      </trkpt>
      <trkpt lat="43.90706" lon="3.99931">
        <ele>69.8</ele>
        <time>2024-04-06T12:13:56.748Z</time>
      </trkpt>
      <trkpt lat="43.90705" lon="3.99933">
        <ele>69.8</ele>
        <time>2024-04-06T12:13:57.309Z</time>
      </trkpt>
      <trkpt lat="43.90703" lon="3.99936">
        <ele>69.6</ele>
        <time>2024-04-06T12:13:58.134Z</time>
      </trkpt>
      <trkpt lat="43.90701" lon="3.99938">
        <ele>69.5</ele>
        <time>2024-04-06T12:13:58.832Z</time>
      </trkpt>
      <trkpt lat="43.907" lon="3.99942">
        <ele>69.4</ele>
        <time>2024-04-06T12:13:59.716Z</time>
      </trkpt>
      <trkpt lat="43.907" lon="3.99946">
        <ele>69.5</ele>
        <time>2024-04-06T12:14:00.745Z</time>
      </trkpt>
      <trkpt lat="43.907" lon="3.99951">
        <ele>69.8</ele>
        <time>2024-04-06T12:14:02.255Z</time>
      </trkpt>
      <trkpt lat="43.90699" lon="3.99954">
        <ele>69.9</ele>
        <time>2024-04-06T12:14:03.125Z</time>
      </trkpt>
      <trkpt lat="43.90698" lon="3.99956">
        <ele>70</ele>
        <time>2024-04-06T12:14:03.798Z</time>
      </trkpt>
      <trkpt lat="43.90696" lon="3.99958">
        <ele>70</ele>
        <time>2024-04-06T12:14:04.587Z</time>
      </trkpt>
      <trkpt lat="43.90693" lon="3.99957">
        <ele>69.8</ele>
        <time>2024-04-06T12:14:05.451Z</time>
      </trkpt>
      <trkpt lat="43.90691" lon="3.99957">
        <ele>69.7</ele>
        <time>2024-04-06T12:14:06.011Z</time>
      </trkpt>
      <trkpt lat="43.90689" lon="3.99956">
        <ele>69.5</ele>
        <time>2024-04-06T12:14:06.606Z</time>
      </trkpt>
      <trkpt lat="43.90686" lon="3.99954">
        <ele>69.2</ele>
        <time>2024-04-06T12:14:07.538Z</time>
      </trkpt>
      <trkpt lat="43.90685" lon="3.99953">
        <ele>69.1</ele>
        <time>2024-04-06T12:14:07.883Z</time>
      </trkpt>
      <trkpt lat="43.90682" lon="3.99951">
        <ele>68.8</ele>
        <time>2024-04-06T12:14:08.815Z</time>
      </trkpt>
      <trkpt lat="43.9068" lon="3.9995">
        <ele>68.7</ele>
        <time>2024-04-06T12:14:09.410Z</time>
      </trkpt>
      <trkpt lat="43.90678" lon="3.99949">
        <ele>68.5</ele>
        <time>2024-04-06T12:14:10.005Z</time>
      </trkpt>
      <trkpt lat="43.90676" lon="3.99948">
        <ele>68.4</ele>
        <time>2024-04-06T12:14:10.600Z</time>
      </trkpt>
      <trkpt lat="43.90674" lon="3.99947">
        <ele>68.3</ele>
        <time>2024-04-06T12:14:11.195Z</time>
      </trkpt>
      <trkpt lat="43.90666" lon="3.99944">
        <ele>68</ele>
        <time>2024-04-06T12:14:13.573Z</time>
      </trkpt>
      <trkpt lat="43.90664" lon="3.99942">
        <ele>68.1</ele>
        <time>2024-04-06T12:14:14.470Z</time>
      </trkpt>
      <trkpt lat="43.90661" lon="3.9994">
        <ele>68.2</ele>
        <time>2024-04-06T12:14:15.640Z</time>
      </trkpt>
      <trkpt lat="43.90658" lon="3.99938">
        <ele>68.3</ele>
        <time>2024-04-06T12:14:16.810Z</time>
      </trkpt>
      <trkpt lat="43.90655" lon="3.99936">
        <ele>68.4</ele>
        <time>2024-04-06T12:14:17.980Z</time>
      </trkpt>
      <trkpt lat="43.90652" lon="3.99935">
        <ele>68.5</ele>
        <time>2024-04-06T12:14:19.073Z</time>
      </trkpt>
      <trkpt lat="43.90649" lon="3.99933">
        <ele>68.7</ele>
        <time>2024-04-06T12:14:20.363Z</time>
      </trkpt>
      <trkpt lat="43.90646" lon="3.99931">
        <ele>68.8</ele>
        <time>2024-04-06T12:14:21.534Z</time>
      </trkpt>
      <trkpt lat="43.90644" lon="3.9993">
        <ele>68.9</ele>
        <time>2024-04-06T12:14:22.323Z</time>
      </trkpt>
      <trkpt lat="43.90641" lon="3.99928">
        <ele>69.1</ele>
        <time>2024-04-06T12:14:23.614Z</time>
      </trkpt>
      <trkpt lat="43.90638" lon="3.99927">
        <ele>69.3</ele>
        <time>2024-04-06T12:14:24.829Z</time>
      </trkpt>
      <trkpt lat="43.90635" lon="3.99925">
        <ele>69.8</ele>
        <time>2024-04-06T12:14:26.600Z</time>
      </trkpt>
      <trkpt lat="43.90632" lon="3.99924">
        <ele>70.1</ele>
        <time>2024-04-06T12:14:27.957Z</time>
      </trkpt>
      <trkpt lat="43.90628" lon="3.99924">
        <ele>70.5</ele>
        <time>2024-04-06T12:14:29.734Z</time>
      </trkpt>
      <trkpt lat="43.90625" lon="3.99924">
        <ele>70.7</ele>
        <time>2024-04-06T12:14:30.923Z</time>
      </trkpt>
      <trkpt lat="43.90621" lon="3.99925">
        <ele>71.1</ele>
        <time>2024-04-06T12:14:32.718Z</time>
      </trkpt>
      <trkpt lat="43.90618" lon="3.99926">
        <ele>71.3</ele>
        <time>2024-04-06T12:14:33.933Z</time>
      </trkpt>
      <trkpt lat="43.90614" lon="3.99927">
        <ele>71.7</ele>
        <time>2024-04-06T12:14:35.728Z</time>
      </trkpt>
      <trkpt lat="43.9061" lon="3.99928">
        <ele>72</ele>
        <time>2024-04-06T12:14:37.378Z</time>
      </trkpt>
      <trkpt lat="43.90606" lon="3.99929">
        <ele>72.1</ele>
        <time>2024-04-06T12:14:38.783Z</time>
      </trkpt>
      <trkpt lat="43.90602" lon="3.99929">
        <ele>72.2</ele>
        <time>2024-04-06T12:14:40.167Z</time>
      </trkpt>
      <trkpt lat="43.90597" lon="3.99929">
        <ele>72.3</ele>
        <time>2024-04-06T12:14:41.869Z</time>
      </trkpt>
      <trkpt lat="43.90593" lon="3.99929">
        <ele>72.4</ele>
        <time>2024-04-06T12:14:43.253Z</time>
      </trkpt>
      <trkpt lat="43.90588" lon="3.99928">
        <ele>72.5</ele>
        <time>2024-04-06T12:14:44.973Z</time>
      </trkpt>
      <trkpt lat="43.90584" lon="3.99925">
        <ele>72.7</ele>
        <time>2024-04-06T12:14:46.645Z</time>
      </trkpt>
      <trkpt lat="43.9058" lon="3.99923">
        <ele>72.9</ele>
        <time>2024-04-06T12:14:48.224Z</time>
      </trkpt>
      <trkpt lat="43.90576" lon="3.99921">
        <ele>73.1</ele>
        <time>2024-04-06T12:14:49.803Z</time>
      </trkpt>
      <trkpt lat="43.90573" lon="3.99918">
        <ele>73.3</ele>
        <time>2024-04-06T12:14:51.208Z</time>
      </trkpt>
      <trkpt lat="43.90571" lon="3.99915">
        <ele>73.6</ele>
        <time>2024-04-06T12:14:52.525Z</time>
      </trkpt>
      <trkpt lat="43.90568" lon="3.99911">
        <ele>73.9</ele>
        <time>2024-04-06T12:14:54.204Z</time>
      </trkpt>
      <trkpt lat="43.90566" lon="3.99907">
        <ele>74.2</ele>
        <time>2024-04-06T12:14:55.686Z</time>
      </trkpt>
      <trkpt lat="43.90564" lon="3.99902">
        <ele>74.5</ele>
        <time>2024-04-06T12:14:57.353Z</time>
      </trkpt>
      <trkpt lat="43.90562" lon="3.99898">
        <ele>74.8</ele>
        <time>2024-04-06T12:14:58.835Z</time>
      </trkpt>
      <trkpt lat="43.9056" lon="3.99894">
        <ele>74.9</ele>
        <time>2024-04-06T12:15:00.062Z</time>
      </trkpt>
      <trkpt lat="43.90558" lon="3.9989">
        <ele>75</ele>
        <time>2024-04-06T12:15:01.290Z</time>
      </trkpt>
      <trkpt lat="43.90556" lon="3.99887">
        <ele>75.2</ele>
        <time>2024-04-06T12:15:02.462Z</time>
      </trkpt>
      <trkpt lat="43.90554" lon="3.99883">
        <ele>75.5</ele>
        <time>2024-04-06T12:15:03.944Z</time>
      </trkpt>
      <trkpt lat="43.90553" lon="3.9988">
        <ele>75.8</ele>
        <time>2024-04-06T12:15:05.103Z</time>
      </trkpt>
      <trkpt lat="43.90552" lon="3.99876">
        <ele>76.1</ele>
        <time>2024-04-06T12:15:06.450Z</time>
      </trkpt>
      <trkpt lat="43.90551" lon="3.99873">
        <ele>76.4</ele>
        <time>2024-04-06T12:15:07.610Z</time>
      </trkpt>
      <trkpt lat="43.90549" lon="3.9987">
        <ele>76.7</ele>
        <time>2024-04-06T12:15:08.927Z</time>
      </trkpt>
      <trkpt lat="43.90547" lon="3.99867">
        <ele>76.9</ele>
        <time>2024-04-06T12:15:10.099Z</time>
      </trkpt>
      <trkpt lat="43.90546" lon="3.99864">
        <ele>77.2</ele>
        <time>2024-04-06T12:15:11.258Z</time>
      </trkpt>
      <trkpt lat="43.90544" lon="3.9986">
        <ele>77.5</ele>
        <time>2024-04-06T12:15:12.740Z</time>
      </trkpt>
      <trkpt lat="43.90543" lon="3.99857">
        <ele>77.7</ele>
        <time>2024-04-06T12:15:13.741Z</time>
      </trkpt>
      <trkpt lat="43.90542" lon="3.99854">
        <ele>77.9</ele>
        <time>2024-04-06T12:15:14.742Z</time>
      </trkpt>
      <trkpt lat="43.9054" lon="3.9985">
        <ele>78.1</ele>
        <time>2024-04-06T12:15:16.088Z</time>
      </trkpt>
      <trkpt lat="43.90539" lon="3.99847">
        <ele>78.3</ele>
        <time>2024-04-06T12:15:17.089Z</time>
      </trkpt>
      <trkpt lat="43.90538" lon="3.99843">
        <ele>78.5</ele>
        <time>2024-04-06T12:15:18.293Z</time>
      </trkpt>
      <trkpt lat="43.90536" lon="3.9984">
        <ele>78.7</ele>
        <time>2024-04-06T12:15:19.465Z</time>
      </trkpt>
      <trkpt lat="43.90535" lon="3.99837">
        <ele>78.8</ele>
        <time>2024-04-06T12:15:20.336Z</time>
      </trkpt>
      <trkpt lat="43.90534" lon="3.99834">
        <ele>79</ele>
        <time>2024-04-06T12:15:21.336Z</time>
      </trkpt>
      <trkpt lat="43.90533" lon="3.9983">
        <ele>79.1</ele>
        <time>2024-04-06T12:15:22.418Z</time>
      </trkpt>
      <trkpt lat="43.90532" lon="3.99826">
        <ele>79.3</ele>
        <time>2024-04-06T12:15:23.623Z</time>
      </trkpt>
      <trkpt lat="43.9053" lon="3.99823">
        <ele>79.4</ele>
        <time>2024-04-06T12:15:24.671Z</time>
      </trkpt>
      <trkpt lat="43.90529" lon="3.99819">
        <ele>79.5</ele>
        <time>2024-04-06T12:15:25.753Z</time>
      </trkpt>
      <trkpt lat="43.90527" lon="3.99816">
        <ele>79.7</ele>
        <time>2024-04-06T12:15:26.925Z</time>
      </trkpt>
      <trkpt lat="43.90526" lon="3.99813">
        <ele>79.8</ele>
        <time>2024-04-06T12:15:27.796Z</time>
      </trkpt>
      <trkpt lat="43.90524" lon="3.99809">
        <ele>80</ele>
        <time>2024-04-06T12:15:29.142Z</time>
      </trkpt>
      <trkpt lat="43.90523" lon="3.99806">
        <ele>80.2</ele>
        <time>2024-04-06T12:15:30.143Z</time>
      </trkpt>
      <trkpt lat="43.90521" lon="3.99803">
        <ele>80.3</ele>
        <time>2024-04-06T12:15:31.191Z</time>
      </trkpt>
      <trkpt lat="43.9052" lon="3.99799">
        <ele>80.4</ele>
        <time>2024-04-06T12:15:32.273Z</time>
      </trkpt>
      <trkpt lat="43.90518" lon="3.99796">
        <ele>80.6</ele>
        <time>2024-04-06T12:15:33.445Z</time>
      </trkpt>
      <trkpt lat="43.90517" lon="3.99792">
        <ele>80.7</ele>
        <time>2024-04-06T12:15:34.527Z</time>
      </trkpt>
      <trkpt lat="43.90515" lon="3.99788">
        <ele>80.8</ele>
        <time>2024-04-06T12:15:35.754Z</time>
      </trkpt>
      <trkpt lat="43.90514" lon="3.99785">
        <ele>80.9</ele>
        <time>2024-04-06T12:15:36.625Z</time>
      </trkpt>
      <trkpt lat="43.90512" lon="3.99782">
        <ele>80.9</ele>
        <time>2024-04-06T12:15:37.567Z</time>
      </trkpt>
      <trkpt lat="43.90511" lon="3.99778">
        <ele>81</ele>
        <time>2024-04-06T12:15:38.649Z</time>
      </trkpt>
      <trkpt lat="43.9051" lon="3.99774">
        <ele>81.1</ele>
        <time>2024-04-06T12:15:39.731Z</time>
      </trkpt>
      <trkpt lat="43.90509" lon="3.9977">
        <ele>81.3</ele>
        <time>2024-04-06T12:15:40.935Z</time>
      </trkpt>
      <trkpt lat="43.90508" lon="3.99767">
        <ele>81.4</ele>
        <time>2024-04-06T12:15:41.806Z</time>
      </trkpt>
      <trkpt lat="43.90506" lon="3.99763">
        <ele>81.5</ele>
        <time>2024-04-06T12:15:43.033Z</time>
      </trkpt>
      <trkpt lat="43.90504" lon="3.9976">
        <ele>81.6</ele>
        <time>2024-04-06T12:15:44.081Z</time>
      </trkpt>
      <trkpt lat="43.90502" lon="3.99757">
        <ele>81.7</ele>
        <time>2024-04-06T12:15:45.130Z</time>
      </trkpt>
      <trkpt lat="43.905" lon="3.99753">
        <ele>81.9</ele>
        <time>2024-04-06T12:15:46.476Z</time>
      </trkpt>
      <trkpt lat="43.90498" lon="3.9975">
        <ele>81.9</ele>
        <time>2024-04-06T12:15:47.418Z</time>
      </trkpt>
      <trkpt lat="43.90497" lon="3.99746">
        <ele>82.1</ele>
        <time>2024-04-06T12:15:48.623Z</time>
      </trkpt>
      <trkpt lat="43.90495" lon="3.99743">
        <ele>82.1</ele>
        <time>2024-04-06T12:15:49.565Z</time>
      </trkpt>
      <trkpt lat="43.90493" lon="3.99739">
        <ele>82.2</ele>
        <time>2024-04-06T12:15:50.793Z</time>
      </trkpt>
      <trkpt lat="43.90491" lon="3.99736">
        <ele>82.3</ele>
        <time>2024-04-06T12:15:51.841Z</time>
      </trkpt>
      <trkpt lat="43.9049" lon="3.99732">
        <ele>82.5</ele>
        <time>2024-04-06T12:15:53.046Z</time>
      </trkpt>
      <trkpt lat="43.90488" lon="3.99729">
        <ele>82.7</ele>
        <time>2024-04-06T12:15:54.218Z</time>
      </trkpt>
      <trkpt lat="43.90486" lon="3.99726">
        <ele>82.8</ele>
        <time>2024-04-06T12:15:55.266Z</time>
      </trkpt>
      <trkpt lat="43.90484" lon="3.99722">
        <ele>83</ele>
        <time>2024-04-06T12:15:56.612Z</time>
      </trkpt>
      <trkpt lat="43.90482" lon="3.99719">
        <ele>83.1</ele>
        <time>2024-04-06T12:15:57.661Z</time>
      </trkpt>
      <trkpt lat="43.9048" lon="3.99716">
        <ele>83.2</ele>
        <time>2024-04-06T12:15:58.709Z</time>
      </trkpt>
      <trkpt lat="43.90478" lon="3.99712">
        <ele>83.4</ele>
        <time>2024-04-06T12:16:00.056Z</time>
      </trkpt>
      <trkpt lat="43.90476" lon="3.99709">
        <ele>83.5</ele>
        <time>2024-04-06T12:16:01.104Z</time>
      </trkpt>
      <trkpt lat="43.90474" lon="3.99705">
        <ele>83.6</ele>
        <time>2024-04-06T12:16:02.331Z</time>
      </trkpt>
      <trkpt lat="43.90473" lon="3.99702">
        <ele>83.7</ele>
        <time>2024-04-06T12:16:03.202Z</time>
      </trkpt>
      <trkpt lat="43.90471" lon="3.99698">
        <ele>83.8</ele>
        <time>2024-04-06T12:16:04.429Z</time>
      </trkpt>
      <trkpt lat="43.90469" lon="3.99695">
        <ele>83.9</ele>
        <time>2024-04-06T12:16:05.477Z</time>
      </trkpt>
      <trkpt lat="43.90467" lon="3.99691">
        <ele>83.8</ele>
        <time>2024-04-06T12:16:06.507Z</time>
      </trkpt>
      <trkpt lat="43.90465" lon="3.99688">
        <ele>83.7</ele>
        <time>2024-04-06T12:16:07.358Z</time>
      </trkpt>
      <trkpt lat="43.90463" lon="3.99684">
        <ele>83.7</ele>
        <time>2024-04-06T12:16:08.480Z</time>
      </trkpt>
      <trkpt lat="43.90461" lon="3.99681">
        <ele>83.6</ele>
        <time>2024-04-06T12:16:09.331Z</time>
      </trkpt>
      <trkpt lat="43.90459" lon="3.99677">
        <ele>83.5</ele>
        <time>2024-04-06T12:16:10.360Z</time>
      </trkpt>
      <trkpt lat="43.90457" lon="3.99674">
        <ele>83.5</ele>
        <time>2024-04-06T12:16:11.303Z</time>
      </trkpt>
      <trkpt lat="43.90455" lon="3.9967">
        <ele>83.4</ele>
        <time>2024-04-06T12:16:12.332Z</time>
      </trkpt>
      <trkpt lat="43.90453" lon="3.99666">
        <ele>83.3</ele>
        <time>2024-04-06T12:16:13.362Z</time>
      </trkpt>
      <trkpt lat="43.90451" lon="3.99662">
        <ele>83.4</ele>
        <time>2024-04-06T12:16:14.589Z</time>
      </trkpt>
      <trkpt lat="43.90449" lon="3.99658">
        <ele>83.4</ele>
        <time>2024-04-06T12:16:15.712Z</time>
      </trkpt>
      <trkpt lat="43.90447" lon="3.99654">
        <ele>83.5</ele>
        <time>2024-04-06T12:16:16.939Z</time>
      </trkpt>
      <trkpt lat="43.90445" lon="3.99649">
        <ele>83.6</ele>
        <time>2024-04-06T12:16:18.362Z</time>
      </trkpt>
      <trkpt lat="43.90443" lon="3.99645">
        <ele>83.7</ele>
        <time>2024-04-06T12:16:19.589Z</time>
      </trkpt>
      <trkpt lat="43.90441" lon="3.99641">
        <ele>83.8</ele>
        <time>2024-04-06T12:16:20.816Z</time>
      </trkpt>
      <trkpt lat="43.90439" lon="3.99636">
        <ele>83.7</ele>
        <time>2024-04-06T12:16:22.041Z</time>
      </trkpt>
      <trkpt lat="43.90437" lon="3.99632">
        <ele>83.6</ele>
        <time>2024-04-06T12:16:23.071Z</time>
      </trkpt>
      <trkpt lat="43.90434" lon="3.99627">
        <ele>83.4</ele>
        <time>2024-04-06T12:16:24.391Z</time>
      </trkpt>
      <trkpt lat="43.90432" lon="3.99622">
        <ele>83.2</ele>
        <time>2024-04-06T12:16:25.544Z</time>
      </trkpt>
      <trkpt lat="43.9043" lon="3.99617">
        <ele>83.1</ele>
        <time>2024-04-06T12:16:26.769Z</time>
      </trkpt>
      <trkpt lat="43.90428" lon="3.99613">
        <ele>83</ele>
        <time>2024-04-06T12:16:27.799Z</time>
      </trkpt>
      <trkpt lat="43.90425" lon="3.99608">
        <ele>82.9</ele>
        <time>2024-04-06T12:16:29.205Z</time>
      </trkpt>
      <trkpt lat="43.90423" lon="3.99603">
        <ele>82.8</ele>
        <time>2024-04-06T12:16:30.430Z</time>
      </trkpt>
      <trkpt lat="43.9042" lon="3.99598">
        <ele>82.6</ele>
        <time>2024-04-06T12:16:31.750Z</time>
      </trkpt>
      <trkpt lat="43.90418" lon="3.99592">
        <ele>82.3</ele>
        <time>2024-04-06T12:16:33.083Z</time>
      </trkpt>
      <trkpt lat="43.90416" lon="3.99587">
        <ele>82.1</ele>
        <time>2024-04-06T12:16:34.237Z</time>
      </trkpt>
      <trkpt lat="43.90414" lon="3.99582">
        <ele>81.9</ele>
        <time>2024-04-06T12:16:35.391Z</time>
      </trkpt>
      <trkpt lat="43.90412" lon="3.99577">
        <ele>81.9</ele>
        <time>2024-04-06T12:16:36.709Z</time>
      </trkpt>
      <trkpt lat="43.90409" lon="3.99573">
        <ele>81.8</ele>
        <time>2024-04-06T12:16:37.947Z</time>
      </trkpt>
      <trkpt lat="43.90407" lon="3.99568">
        <ele>81.8</ele>
        <time>2024-04-06T12:16:39.265Z</time>
      </trkpt>
      <trkpt lat="43.90405" lon="3.99563">
        <ele>81.9</ele>
        <time>2024-04-06T12:16:40.687Z</time>
      </trkpt>
      <trkpt lat="43.90402" lon="3.99558">
        <ele>82</ele>
        <time>2024-04-06T12:16:42.291Z</time>
      </trkpt>
      <trkpt lat="43.90399" lon="3.99553">
        <ele>82</ele>
        <time>2024-04-06T12:16:43.791Z</time>
      </trkpt>
      <trkpt lat="43.90397" lon="3.99549">
        <ele>82.1</ele>
        <time>2024-04-06T12:16:45.018Z</time>
      </trkpt>
      <trkpt lat="43.90394" lon="3.99544">
        <ele>82.1</ele>
        <time>2024-04-06T12:16:46.518Z</time>
      </trkpt>
      <trkpt lat="43.90391" lon="3.9954">
        <ele>82</ele>
        <time>2024-04-06T12:16:47.756Z</time>
      </trkpt>
      <trkpt lat="43.90388" lon="3.99536">
        <ele>82</ele>
        <time>2024-04-06T12:16:49.087Z</time>
      </trkpt>
      <trkpt lat="43.90385" lon="3.99532">
        <ele>82.1</ele>
        <time>2024-04-06T12:16:50.522Z</time>
      </trkpt>
      <trkpt lat="43.90382" lon="3.99528">
        <ele>82.2</ele>
        <time>2024-04-06T12:16:51.957Z</time>
      </trkpt>
      <trkpt lat="43.90379" lon="3.99525">
        <ele>82.5</ele>
        <time>2024-04-06T12:16:53.495Z</time>
      </trkpt>
      <trkpt lat="43.90376" lon="3.99522">
        <ele>82.7</ele>
        <time>2024-04-06T12:16:54.901Z</time>
      </trkpt>
      <trkpt lat="43.90373" lon="3.99518">
        <ele>82.9</ele>
        <time>2024-04-06T12:16:56.451Z</time>
      </trkpt>
      <trkpt lat="43.9037" lon="3.99515">
        <ele>83.1</ele>
        <time>2024-04-06T12:16:57.857Z</time>
      </trkpt>
      <trkpt lat="43.90367" lon="3.99512">
        <ele>83.4</ele>
        <time>2024-04-06T12:16:59.396Z</time>
      </trkpt>
      <trkpt lat="43.90364" lon="3.99509">
        <ele>83.6</ele>
        <time>2024-04-06T12:17:00.801Z</time>
      </trkpt>
      <trkpt lat="43.90361" lon="3.99506">
        <ele>83.8</ele>
        <time>2024-04-06T12:17:02.207Z</time>
      </trkpt>
      <trkpt lat="43.90357" lon="3.99503">
        <ele>83.9</ele>
        <time>2024-04-06T12:17:03.765Z</time>
      </trkpt>
      <trkpt lat="43.90354" lon="3.995">
        <ele>84</ele>
        <time>2024-04-06T12:17:05.053Z</time>
      </trkpt>
      <trkpt lat="43.90351" lon="3.99497">
        <ele>84.1</ele>
        <time>2024-04-06T12:17:06.340Z</time>
      </trkpt>
      <trkpt lat="43.90348" lon="3.99494">
        <ele>84.1</ele>
        <time>2024-04-06T12:17:07.523Z</time>
      </trkpt>
      <trkpt lat="43.90344" lon="3.99491">
        <ele>84.1</ele>
        <time>2024-04-06T12:17:08.978Z</time>
      </trkpt>
      <trkpt lat="43.90341" lon="3.99488">
        <ele>84.1</ele>
        <time>2024-04-06T12:17:10.161Z</time>
      </trkpt>
      <trkpt lat="43.90338" lon="3.99485">
        <ele>84.1</ele>
        <time>2024-04-06T12:17:11.344Z</time>
      </trkpt>
      <trkpt lat="43.90335" lon="3.99482">
        <ele>84</ele>
        <time>2024-04-06T12:17:12.435Z</time>
      </trkpt>
      <trkpt lat="43.90332" lon="3.99479">
        <ele>84</ele>
        <time>2024-04-06T12:17:13.618Z</time>
      </trkpt>
      <trkpt lat="43.90329" lon="3.99475">
        <ele>84</ele>
        <time>2024-04-06T12:17:14.949Z</time>
      </trkpt>
      <trkpt lat="43.90325" lon="3.99472">
        <ele>84</ele>
        <time>2024-04-06T12:17:16.404Z</time>
      </trkpt>
      <trkpt lat="43.90322" lon="3.99468">
        <ele>84.1</ele>
        <time>2024-04-06T12:17:17.839Z</time>
      </trkpt>
      <trkpt lat="43.90319" lon="3.99465">
        <ele>84.1</ele>
        <time>2024-04-06T12:17:19.022Z</time>
      </trkpt>
      <trkpt lat="43.90316" lon="3.99462">
        <ele>84.1</ele>
        <time>2024-04-06T12:17:20.205Z</time>
      </trkpt>
      <trkpt lat="43.90312" lon="3.99458">
        <ele>84.1</ele>
        <time>2024-04-06T12:17:21.782Z</time>
      </trkpt>
      <trkpt lat="43.90309" lon="3.99455">
        <ele>84.1</ele>
        <time>2024-04-06T12:17:22.965Z</time>
      </trkpt>
      <trkpt lat="43.90306" lon="3.99451">
        <ele>84</ele>
        <time>2024-04-06T12:17:24.203Z</time>
      </trkpt>
      <trkpt lat="43.90302" lon="3.99447">
        <ele>83.9</ele>
        <time>2024-04-06T12:17:25.686Z</time>
      </trkpt>
      <trkpt lat="43.90299" lon="3.99443">
        <ele>83.8</ele>
        <time>2024-04-06T12:17:26.924Z</time>
      </trkpt>
      <trkpt lat="43.90295" lon="3.9944">
        <ele>83.7</ele>
        <time>2024-04-06T12:17:28.284Z</time>
      </trkpt>
      <trkpt lat="43.90292" lon="3.99436">
        <ele>83.7</ele>
        <time>2024-04-06T12:17:29.616Z</time>
      </trkpt>
      <trkpt lat="43.90288" lon="3.99432">
        <ele>83.7</ele>
        <time>2024-04-06T12:17:31.193Z</time>
      </trkpt>
      <trkpt lat="43.90285" lon="3.99428">
        <ele>83.7</ele>
        <time>2024-04-06T12:17:32.524Z</time>
      </trkpt>
      <trkpt lat="43.90281" lon="3.99424">
        <ele>83.8</ele>
        <time>2024-04-06T12:17:34.205Z</time>
      </trkpt>
      <trkpt lat="43.90278" lon="3.9942">
        <ele>83.9</ele>
        <time>2024-04-06T12:17:35.640Z</time>
      </trkpt>
      <trkpt lat="43.90275" lon="3.99416">
        <ele>84.1</ele>
        <time>2024-04-06T12:17:37.190Z</time>
      </trkpt>
      <trkpt lat="43.90271" lon="3.99412">
        <ele>84.1</ele>
        <time>2024-04-06T12:17:38.768Z</time>
      </trkpt>
      <trkpt lat="43.90268" lon="3.99408">
        <ele>84</ele>
        <time>2024-04-06T12:17:40.005Z</time>
      </trkpt>
      <trkpt lat="43.90265" lon="3.99404">
        <ele>84</ele>
        <time>2024-04-06T12:17:41.336Z</time>
      </trkpt>
      <trkpt lat="43.90262" lon="3.994">
        <ele>84</ele>
        <time>2024-04-06T12:17:42.667Z</time>
      </trkpt>
      <trkpt lat="43.90259" lon="3.99396">
        <ele>83.9</ele>
        <time>2024-04-06T12:17:43.905Z</time>
      </trkpt>
      <trkpt lat="43.90256" lon="3.99392">
        <ele>83.9</ele>
        <time>2024-04-06T12:17:45.236Z</time>
      </trkpt>
      <trkpt lat="43.90253" lon="3.99387">
        <ele>84</ele>
        <time>2024-04-06T12:17:46.839Z</time>
      </trkpt>
      <trkpt lat="43.9025" lon="3.99383">
        <ele>84.2</ele>
        <time>2024-04-06T12:17:48.390Z</time>
      </trkpt>
      <trkpt lat="43.90247" lon="3.99379">
        <ele>84.5</ele>
        <time>2024-04-06T12:17:50.069Z</time>
      </trkpt>
      <trkpt lat="43.90244" lon="3.99375">
        <ele>84.8</ele>
        <time>2024-04-06T12:17:51.748Z</time>
      </trkpt>
      <trkpt lat="43.90242" lon="3.99371">
        <ele>85</ele>
        <time>2024-04-06T12:17:53.095Z</time>
      </trkpt>
      <trkpt lat="43.90239" lon="3.99367">
        <ele>85.3</ele>
        <time>2024-04-06T12:17:54.774Z</time>
      </trkpt>
      <trkpt lat="43.90236" lon="3.99363">
        <ele>85.5</ele>
        <time>2024-04-06T12:17:56.324Z</time>
      </trkpt>
      <trkpt lat="43.90234" lon="3.99359">
        <ele>85.6</ele>
        <time>2024-04-06T12:17:57.552Z</time>
      </trkpt>
      <trkpt lat="43.90232" lon="3.99355">
        <ele>85.8</ele>
        <time>2024-04-06T12:17:58.898Z</time>
      </trkpt>
      <trkpt lat="43.90229" lon="3.99351">
        <ele>86</ele>
        <time>2024-04-06T12:18:00.448Z</time>
      </trkpt>
      <trkpt lat="43.90227" lon="3.99348">
        <ele>86.2</ele>
        <time>2024-04-06T12:18:01.620Z</time>
      </trkpt>
      <trkpt lat="43.90226" lon="3.99343">
        <ele>86.4</ele>
        <time>2024-04-06T12:18:03.039Z</time>
      </trkpt>
      <trkpt lat="43.90225" lon="3.99339">
        <ele>86.6</ele>
        <time>2024-04-06T12:18:04.243Z</time>
      </trkpt>
      <trkpt lat="43.90225" lon="3.99334">
        <ele>86.8</ele>
        <time>2024-04-06T12:18:05.619Z</time>
      </trkpt>
      <trkpt lat="43.90225" lon="3.99329">
        <ele>86.8</ele>
        <time>2024-04-06T12:18:06.772Z</time>
      </trkpt>
      <trkpt lat="43.90225" lon="3.99324">
        <ele>86.8</ele>
        <time>2024-04-06T12:18:07.925Z</time>
      </trkpt>
      <trkpt lat="43.90225" lon="3.99319">
        <ele>86.8</ele>
        <time>2024-04-06T12:18:09.077Z</time>
      </trkpt>
      <trkpt lat="43.90225" lon="3.99314">
        <ele>86.8</ele>
        <time>2024-04-06T12:18:10.230Z</time>
      </trkpt>
      <trkpt lat="43.90225" lon="3.99309">
        <ele>86.8</ele>
        <time>2024-04-06T12:18:11.383Z</time>
      </trkpt>
      <trkpt lat="43.90225" lon="3.99304">
        <ele>86.8</ele>
        <time>2024-04-06T12:18:12.536Z</time>
      </trkpt>
      <trkpt lat="43.90225" lon="3.99299">
        <ele>86.8</ele>
        <time>2024-04-06T12:18:13.688Z</time>
      </trkpt>
      <trkpt lat="43.90226" lon="3.99295">
        <ele>86.7</ele>
        <time>2024-04-06T12:18:14.573Z</time>
      </trkpt>
      <trkpt lat="43.90226" lon="3.9929">
        <ele>86.7</ele>
        <time>2024-04-06T12:18:15.725Z</time>
      </trkpt>
      <trkpt lat="43.90225" lon="3.99285">
        <ele>86.8</ele>
        <time>2024-04-06T12:18:17.026Z</time>
      </trkpt>
      <trkpt lat="43.90226" lon="3.9928">
        <ele>86.7</ele>
        <time>2024-04-06T12:18:18.129Z</time>
      </trkpt>
      <trkpt lat="43.90226" lon="3.99274">
        <ele>86.7</ele>
        <time>2024-04-06T12:18:19.513Z</time>
      </trkpt>
      <trkpt lat="43.90226" lon="3.99269">
        <ele>86.8</ele>
        <time>2024-04-06T12:18:20.770Z</time>
      </trkpt>
      <trkpt lat="43.90226" lon="3.99264">
        <ele>86.8</ele>
        <time>2024-04-06T12:18:21.923Z</time>
      </trkpt>
      <trkpt lat="43.90226" lon="3.99259">
        <ele>86.8</ele>
        <time>2024-04-06T12:18:23.076Z</time>
      </trkpt>
      <trkpt lat="43.90225" lon="3.99254">
        <ele>86.9</ele>
        <time>2024-04-06T12:18:24.376Z</time>
      </trkpt>
      <trkpt lat="43.90225" lon="3.99249">
        <ele>86.9</ele>
        <time>2024-04-06T12:18:25.529Z</time>
      </trkpt>
      <trkpt lat="43.90225" lon="3.99244">
        <ele>87.1</ele>
        <time>2024-04-06T12:18:26.905Z</time>
      </trkpt>
      <trkpt lat="43.90225" lon="3.99239">
        <ele>87.3</ele>
        <time>2024-04-06T12:18:28.281Z</time>
      </trkpt>
      <trkpt lat="43.90225" lon="3.99234">
        <ele>87.5</ele>
        <time>2024-04-06T12:18:29.657Z</time>
      </trkpt>
      <trkpt lat="43.90225" lon="3.99229">
        <ele>87.7</ele>
        <time>2024-04-06T12:18:31.033Z</time>
      </trkpt>
      <trkpt lat="43.90225" lon="3.99225">
        <ele>87.8</ele>
        <time>2024-04-06T12:18:32.061Z</time>
      </trkpt>
      <trkpt lat="43.90225" lon="3.9922">
        <ele>87.9</ele>
        <time>2024-04-06T12:18:33.319Z</time>
      </trkpt>
      <trkpt lat="43.90225" lon="3.99215">
        <ele>87.9</ele>
        <time>2024-04-06T12:18:34.471Z</time>
      </trkpt>
      <trkpt lat="43.90225" lon="3.9921">
        <ele>87.9</ele>
        <time>2024-04-06T12:18:35.624Z</time>
      </trkpt>
      <trkpt lat="43.90225" lon="3.99205">
        <ele>88</ele>
        <time>2024-04-06T12:18:36.882Z</time>
      </trkpt>
      <trkpt lat="43.90225" lon="3.992">
        <ele>88</ele>
        <time>2024-04-06T12:18:38.034Z</time>
      </trkpt>
      <trkpt lat="43.90225" lon="3.99195">
        <ele>88</ele>
        <time>2024-04-06T12:18:39.187Z</time>
      </trkpt>
      <trkpt lat="43.90225" lon="3.9919">
        <ele>88.2</ele>
        <time>2024-04-06T12:18:40.563Z</time>
      </trkpt>
      <trkpt lat="43.90225" lon="3.99185">
        <ele>88.3</ele>
        <time>2024-04-06T12:18:41.820Z</time>
      </trkpt>
      <trkpt lat="43.90225" lon="3.9918">
        <ele>88.5</ele>
        <time>2024-04-06T12:18:43.196Z</time>
      </trkpt>
      <trkpt lat="43.90225" lon="3.99175">
        <ele>88.7</ele>
        <time>2024-04-06T12:18:44.572Z</time>
      </trkpt>
      <trkpt lat="43.90226" lon="3.9917">
        <ele>88.9</ele>
        <time>2024-04-06T12:18:45.991Z</time>
      </trkpt>
      <trkpt lat="43.90226" lon="3.99165">
        <ele>89</ele>
        <time>2024-04-06T12:18:47.248Z</time>
      </trkpt>
      <trkpt lat="43.90226" lon="3.9916">
        <ele>89</ele>
        <time>2024-04-06T12:18:48.401Z</time>
      </trkpt>
      <trkpt lat="43.90226" lon="3.99155">
        <ele>89.1</ele>
        <time>2024-04-06T12:18:49.658Z</time>
      </trkpt>
      <trkpt lat="43.90226" lon="3.99151">
        <ele>89.1</ele>
        <time>2024-04-06T12:18:50.580Z</time>
      </trkpt>
      <trkpt lat="43.90226" lon="3.99146">
        <ele>89.1</ele>
        <time>2024-04-06T12:18:51.733Z</time>
      </trkpt>
      <trkpt lat="43.90226" lon="3.99141">
        <ele>89.1</ele>
        <time>2024-04-06T12:18:52.886Z</time>
      </trkpt>
      <trkpt lat="43.90226" lon="3.99136">
        <ele>89.2</ele>
        <time>2024-04-06T12:18:54.143Z</time>
      </trkpt>
      <trkpt lat="43.90226" lon="3.99131">
        <ele>89.4</ele>
        <time>2024-04-06T12:18:55.519Z</time>
      </trkpt>
      <trkpt lat="43.90226" lon="3.99127">
        <ele>89.6</ele>
        <time>2024-04-06T12:18:56.672Z</time>
      </trkpt>
      <trkpt lat="43.90226" lon="3.99122">
        <ele>89.7</ele>
        <time>2024-04-06T12:18:57.929Z</time>
      </trkpt>
      <trkpt lat="43.90226" lon="3.99118">
        <ele>89.9</ele>
        <time>2024-04-06T12:18:59.082Z</time>
      </trkpt>
      <trkpt lat="43.90226" lon="3.99113">
        <ele>90.1</ele>
        <time>2024-04-06T12:19:00.458Z</time>
      </trkpt>
      <trkpt lat="43.90225" lon="3.99109">
        <ele>90.2</ele>
        <time>2024-04-06T12:19:01.540Z</time>
      </trkpt>
      <trkpt lat="43.90225" lon="3.99105">
        <ele>90.3</ele>
        <time>2024-04-06T12:19:02.569Z</time>
      </trkpt>
      <trkpt lat="43.90225" lon="3.991">
        <ele>90.5</ele>
        <time>2024-04-06T12:19:03.944Z</time>
      </trkpt>
      <trkpt lat="43.90225" lon="3.99096">
        <ele>90.7</ele>
        <time>2024-04-06T12:19:05.097Z</time>
      </trkpt>
      <trkpt lat="43.90226" lon="3.99092">
        <ele>90.9</ele>
        <time>2024-04-06T12:19:06.302Z</time>
      </trkpt>
      <trkpt lat="43.90226" lon="3.99087">
        <ele>91.1</ele>
        <time>2024-04-06T12:19:07.678Z</time>
      </trkpt>
      <trkpt lat="43.90226" lon="3.99083">
        <ele>91.3</ele>
        <time>2024-04-06T12:19:08.830Z</time>
      </trkpt>
      <trkpt lat="43.90226" lon="3.99079">
        <ele>91.4</ele>
        <time>2024-04-06T12:19:09.859Z</time>
      </trkpt>
      <trkpt lat="43.90225" lon="3.99075">
        <ele>91.5</ele>
        <time>2024-04-06T12:19:10.941Z</time>
      </trkpt>
      <trkpt lat="43.90225" lon="3.99071">
        <ele>91.6</ele>
        <time>2024-04-06T12:19:11.970Z</time>
      </trkpt>
      <trkpt lat="43.90225" lon="3.99067">
        <ele>91.8</ele>
        <time>2024-04-06T12:19:13.122Z</time>
      </trkpt>
      <trkpt lat="43.90225" lon="3.99063">
        <ele>91.9</ele>
        <time>2024-04-06T12:19:14.151Z</time>
      </trkpt>
      <trkpt lat="43.90225" lon="3.99059">
        <ele>92.1</ele>
        <time>2024-04-06T12:19:15.304Z</time>
      </trkpt>
      <trkpt lat="43.90225" lon="3.99055">
        <ele>92.2</ele>
        <time>2024-04-06T12:19:16.332Z</time>
      </trkpt>
      <trkpt lat="43.90225" lon="3.99051">
        <ele>92.4</ele>
        <time>2024-04-06T12:19:17.485Z</time>
      </trkpt>
      <trkpt lat="43.90225" lon="3.99047">
        <ele>92.5</ele>
        <time>2024-04-06T12:19:18.513Z</time>
      </trkpt>
      <trkpt lat="43.90225" lon="3.99043">
        <ele>92.7</ele>
        <time>2024-04-06T12:19:19.666Z</time>
      </trkpt>
      <trkpt lat="43.90224" lon="3.9904">
        <ele>92.7</ele>
        <time>2024-04-06T12:19:20.428Z</time>
      </trkpt>
      <trkpt lat="43.90224" lon="3.99036">
        <ele>92.8</ele>
        <time>2024-04-06T12:19:21.457Z</time>
      </trkpt>
      <trkpt lat="43.90224" lon="3.99033">
        <ele>92.9</ele>
        <time>2024-04-06T12:19:22.258Z</time>
      </trkpt>
      <trkpt lat="43.90224" lon="3.99029">
        <ele>93.1</ele>
        <time>2024-04-06T12:19:23.410Z</time>
      </trkpt>
      <trkpt lat="43.90224" lon="3.99026">
        <ele>93.3</ele>
        <time>2024-04-06T12:19:24.346Z</time>
      </trkpt>
      <trkpt lat="43.90224" lon="3.99022">
        <ele>93.5</ele>
        <time>2024-04-06T12:19:25.499Z</time>
      </trkpt>
      <trkpt lat="43.90223" lon="3.99019">
        <ele>93.7</ele>
        <time>2024-04-06T12:19:26.499Z</time>
      </trkpt>
      <trkpt lat="43.90223" lon="3.99015">
        <ele>94</ele>
        <time>2024-04-06T12:19:27.798Z</time>
      </trkpt>
      <trkpt lat="43.90223" lon="3.99011">
        <ele>94.2</ele>
        <time>2024-04-06T12:19:28.951Z</time>
      </trkpt>
      <trkpt lat="43.90223" lon="3.99008">
        <ele>94.5</ele>
        <time>2024-04-06T12:19:30.053Z</time>
      </trkpt>
      <trkpt lat="43.90223" lon="3.99005">
        <ele>94.7</ele>
        <time>2024-04-06T12:19:30.989Z</time>
      </trkpt>
      <trkpt lat="43.90223" lon="3.99001">
        <ele>95</ele>
        <time>2024-04-06T12:19:32.287Z</time>
      </trkpt>
      <trkpt lat="43.90223" lon="3.98998">
        <ele>95.1</ele>
        <time>2024-04-06T12:19:33.088Z</time>
      </trkpt>
      <trkpt lat="43.90223" lon="3.98995">
        <ele>95.2</ele>
        <time>2024-04-06T12:19:33.889Z</time>
      </trkpt>
      <trkpt lat="43.90223" lon="3.98992">
        <ele>95.3</ele>
        <time>2024-04-06T12:19:34.690Z</time>
      </trkpt>
      <trkpt lat="43.90223" lon="3.98988">
        <ele>95.5</ele>
        <time>2024-04-06T12:19:35.842Z</time>
      </trkpt>
      <trkpt lat="43.90223" lon="3.98985">
        <ele>95.6</ele>
        <time>2024-04-06T12:19:36.643Z</time>
      </trkpt>
      <trkpt lat="43.90223" lon="3.98982">
        <ele>95.7</ele>
        <time>2024-04-06T12:19:37.444Z</time>
      </trkpt>
      <trkpt lat="43.90223" lon="3.98979">
        <ele>95.8</ele>
        <time>2024-04-06T12:19:38.245Z</time>
      </trkpt>
      <trkpt lat="43.90223" lon="3.98975">
        <ele>95.9</ele>
        <time>2024-04-06T12:19:39.274Z</time>
      </trkpt>
      <trkpt lat="43.90223" lon="3.98972">
        <ele>96</ele>
        <time>2024-04-06T12:19:40.074Z</time>
      </trkpt>
      <trkpt lat="43.90223" lon="3.98969">
        <ele>96.1</ele>
        <time>2024-04-06T12:19:40.875Z</time>
      </trkpt>
      <trkpt lat="43.90223" lon="3.98965">
        <ele>96.3</ele>
        <time>2024-04-06T12:19:42.028Z</time>
      </trkpt>
      <trkpt lat="43.90224" lon="3.98962">
        <ele>96.4</ele>
        <time>2024-04-06T12:19:42.898Z</time>
      </trkpt>
      <trkpt lat="43.90224" lon="3.98959">
        <ele>96.5</ele>
        <time>2024-04-06T12:19:43.699Z</time>
      </trkpt>
      <trkpt lat="43.90223" lon="3.98956">
        <ele>96.6</ele>
        <time>2024-04-06T12:19:44.569Z</time>
      </trkpt>
      <trkpt lat="43.90224" lon="3.98952">
        <ele>96.8</ele>
        <time>2024-04-06T12:19:45.774Z</time>
      </trkpt>
      <trkpt lat="43.90224" lon="3.98949">
        <ele>96.9</ele>
        <time>2024-04-06T12:19:46.575Z</time>
      </trkpt>
      <trkpt lat="43.90224" lon="3.98946">
        <ele>97</ele>
        <time>2024-04-06T12:19:47.376Z</time>
      </trkpt>
      <trkpt lat="43.90224" lon="3.98943">
        <ele>97.1</ele>
        <time>2024-04-06T12:19:48.176Z</time>
      </trkpt>
      <trkpt lat="43.90224" lon="3.9894">
        <ele>97.2</ele>
        <time>2024-04-06T12:19:48.977Z</time>
      </trkpt>
      <trkpt lat="43.90224" lon="3.98937">
        <ele>97.3</ele>
        <time>2024-04-06T12:19:49.778Z</time>
      </trkpt>
      <trkpt lat="43.90224" lon="3.98934">
        <ele>97.5</ele>
        <time>2024-04-06T12:19:50.714Z</time>
      </trkpt>
      <trkpt lat="43.90224" lon="3.9893">
        <ele>97.6</ele>
        <time>2024-04-06T12:19:51.742Z</time>
      </trkpt>
      <trkpt lat="43.90224" lon="3.98927">
        <ele>97.7</ele>
        <time>2024-04-06T12:19:52.543Z</time>
      </trkpt>
      <trkpt lat="43.90224" lon="3.98924">
        <ele>97.8</ele>
        <time>2024-04-06T12:19:53.344Z</time>
      </trkpt>
      <trkpt lat="43.90224" lon="3.9892">
        <ele>98</ele>
        <time>2024-04-06T12:19:54.497Z</time>
      </trkpt>
      <trkpt lat="43.90224" lon="3.98917">
        <ele>98.1</ele>
        <time>2024-04-06T12:19:55.297Z</time>
      </trkpt>
      <trkpt lat="43.90223" lon="3.98914">
        <ele>98.2</ele>
        <time>2024-04-06T12:19:56.168Z</time>
      </trkpt>
      <trkpt lat="43.90223" lon="3.9891">
        <ele>98.5</ele>
        <time>2024-04-06T12:19:57.466Z</time>
      </trkpt>
      <trkpt lat="43.90223" lon="3.98907">
        <ele>98.7</ele>
        <time>2024-04-06T12:19:58.401Z</time>
      </trkpt>
      <trkpt lat="43.90223" lon="3.98904">
        <ele>99</ele>
        <time>2024-04-06T12:19:59.504Z</time>
      </trkpt>
      <trkpt lat="43.90223" lon="3.98901">
        <ele>99.2</ele>
        <time>2024-04-06T12:20:00.440Z</time>
      </trkpt>
      <trkpt lat="43.90223" lon="3.98898">
        <ele>99.4</ele>
        <time>2024-04-06T12:20:01.375Z</time>
      </trkpt>
      <trkpt lat="43.90223" lon="3.98895">
        <ele>99.6</ele>
        <time>2024-04-06T12:20:02.310Z</time>
      </trkpt>
      <trkpt lat="43.90223" lon="3.98892">
        <ele>99.8</ele>
        <time>2024-04-06T12:20:03.246Z</time>
      </trkpt>
      <trkpt lat="43.90223" lon="3.98889">
        <ele>100</ele>
        <time>2024-04-06T12:20:04.181Z</time>
      </trkpt>
      <trkpt lat="43.90223" lon="3.98886">
        <ele>100.1</ele>
        <time>2024-04-06T12:20:04.982Z</time>
      </trkpt>
      <trkpt lat="43.90223" lon="3.98883">
        <ele>100.2</ele>
        <time>2024-04-06T12:20:05.783Z</time>
      </trkpt>
      <trkpt lat="43.90222" lon="3.9888">
        <ele>100.3</ele>
        <time>2024-04-06T12:20:06.653Z</time>
      </trkpt>
      <trkpt lat="43.90222" lon="3.98876">
        <ele>100.5</ele>
        <time>2024-04-06T12:20:07.806Z</time>
      </trkpt>
      <trkpt lat="43.90222" lon="3.98873">
        <ele>100.6</ele>
        <time>2024-04-06T12:20:08.607Z</time>
      </trkpt>
      <trkpt lat="43.90222" lon="3.98869">
        <ele>100.7</ele>
        <time>2024-04-06T12:20:09.635Z</time>
      </trkpt>
      <trkpt lat="43.90221" lon="3.98866">
        <ele>100.8</ele>
        <time>2024-04-06T12:20:10.506Z</time>
      </trkpt>
      <trkpt lat="43.90222" lon="3.98862">
        <ele>101</ele>
        <time>2024-04-06T12:20:11.710Z</time>
      </trkpt>
      <trkpt lat="43.90221" lon="3.98858">
        <ele>101.1</ele>
        <time>2024-04-06T12:20:12.792Z</time>
      </trkpt>
      <trkpt lat="43.90221" lon="3.98854">
        <ele>101.2</ele>
        <time>2024-04-06T12:20:13.821Z</time>
      </trkpt>
      <trkpt lat="43.90221" lon="3.98851">
        <ele>101.3</ele>
        <time>2024-04-06T12:20:14.622Z</time>
      </trkpt>
      <trkpt lat="43.90221" lon="3.98847">
        <ele>101.5</ele>
        <time>2024-04-06T12:20:15.774Z</time>
      </trkpt>
      <trkpt lat="43.90221" lon="3.98843">
        <ele>101.6</ele>
        <time>2024-04-06T12:20:16.803Z</time>
      </trkpt>
      <trkpt lat="43.90221" lon="3.9884">
        <ele>101.7</ele>
        <time>2024-04-06T12:20:17.604Z</time>
      </trkpt>
      <trkpt lat="43.90221" lon="3.98836">
        <ele>101.9</ele>
        <time>2024-04-06T12:20:18.756Z</time>
      </trkpt>
      <trkpt lat="43.90221" lon="3.98833">
        <ele>102</ele>
        <time>2024-04-06T12:20:19.557Z</time>
      </trkpt>
      <trkpt lat="43.90221" lon="3.98829">
        <ele>102.1</ele>
        <time>2024-04-06T12:20:20.586Z</time>
      </trkpt>
      <trkpt lat="43.90221" lon="3.98826">
        <ele>102.2</ele>
        <time>2024-04-06T12:20:21.387Z</time>
      </trkpt>
      <trkpt lat="43.90221" lon="3.98822">
        <ele>102.4</ele>
        <time>2024-04-06T12:20:22.539Z</time>
      </trkpt>
      <trkpt lat="43.9022" lon="3.98819">
        <ele>102.4</ele>
        <time>2024-04-06T12:20:23.302Z</time>
      </trkpt>
      <trkpt lat="43.9022" lon="3.98817">
        <ele>102.5</ele>
        <time>2024-04-06T12:20:23.878Z</time>
      </trkpt>
      <trkpt lat="43.9022" lon="3.98814">
        <ele>102.6</ele>
        <time>2024-04-06T12:20:24.679Z</time>
      </trkpt>
      <trkpt lat="43.9022" lon="3.98811">
        <ele>102.7</ele>
        <time>2024-04-06T12:20:25.480Z</time>
      </trkpt>
      <trkpt lat="43.9022" lon="3.98808">
        <ele>102.8</ele>
        <time>2024-04-06T12:20:26.280Z</time>
      </trkpt>
      <trkpt lat="43.9022" lon="3.98805">
        <ele>102.9</ele>
        <time>2024-04-06T12:20:27.081Z</time>
      </trkpt>
      <trkpt lat="43.9022" lon="3.98802">
        <ele>103.1</ele>
        <time>2024-04-06T12:20:28.017Z</time>
      </trkpt>
      <trkpt lat="43.9022" lon="3.98799">
        <ele>103.2</ele>
        <time>2024-04-06T12:20:28.818Z</time>
      </trkpt>
      <trkpt lat="43.9022" lon="3.98796">
        <ele>103.3</ele>
        <time>2024-04-06T12:20:29.618Z</time>
      </trkpt>
      <trkpt lat="43.9022" lon="3.98793">
        <ele>103.4</ele>
        <time>2024-04-06T12:20:30.419Z</time>
      </trkpt>
      <trkpt lat="43.9022" lon="3.9879">
        <ele>103.5</ele>
        <time>2024-04-06T12:20:31.220Z</time>
      </trkpt>
      <trkpt lat="43.9022" lon="3.98788">
        <ele>103.6</ele>
        <time>2024-04-06T12:20:31.796Z</time>
      </trkpt>
      <trkpt lat="43.9022" lon="3.98785">
        <ele>103.7</ele>
        <time>2024-04-06T12:20:32.597Z</time>
      </trkpt>
      <trkpt lat="43.9022" lon="3.98782">
        <ele>103.8</ele>
        <time>2024-04-06T12:20:33.398Z</time>
      </trkpt>
      <trkpt lat="43.9022" lon="3.98779">
        <ele>104</ele>
        <time>2024-04-06T12:20:34.334Z</time>
      </trkpt>
      <trkpt lat="43.90221" lon="3.98776">
        <ele>104.1</ele>
        <time>2024-04-06T12:20:35.204Z</time>
      </trkpt>
      <trkpt lat="43.90221" lon="3.98773">
        <ele>104.3</ele>
        <time>2024-04-06T12:20:36.139Z</time>
      </trkpt>
      <trkpt lat="43.90221" lon="3.9877">
        <ele>104.6</ele>
        <time>2024-04-06T12:20:37.242Z</time>
      </trkpt>
      <trkpt lat="43.90221" lon="3.98767">
        <ele>104.8</ele>
        <time>2024-04-06T12:20:38.177Z</time>
      </trkpt>
      <trkpt lat="43.90221" lon="3.98764">
        <ele>105</ele>
        <time>2024-04-06T12:20:39.113Z</time>
      </trkpt>
      <trkpt lat="43.90221" lon="3.98761">
        <ele>105.2</ele>
        <time>2024-04-06T12:20:40.048Z</time>
      </trkpt>
      <trkpt lat="43.90221" lon="3.98759">
        <ele>105.4</ele>
        <time>2024-04-06T12:20:40.783Z</time>
      </trkpt>
      <trkpt lat="43.90221" lon="3.98756">
        <ele>105.6</ele>
        <time>2024-04-06T12:20:41.719Z</time>
      </trkpt>
      <trkpt lat="43.90221" lon="3.98753">
        <ele>105.8</ele>
        <time>2024-04-06T12:20:42.654Z</time>
      </trkpt>
      <trkpt lat="43.90221" lon="3.9875">
        <ele>106</ele>
        <time>2024-04-06T12:20:43.590Z</time>
      </trkpt>
      <trkpt lat="43.90221" lon="3.98747">
        <ele>106.1</ele>
        <time>2024-04-06T12:20:44.391Z</time>
      </trkpt>
      <trkpt lat="43.90221" lon="3.98745">
        <ele>106.2</ele>
        <time>2024-04-06T12:20:44.967Z</time>
      </trkpt>
      <trkpt lat="43.90221" lon="3.98742">
        <ele>106.3</ele>
        <time>2024-04-06T12:20:45.768Z</time>
      </trkpt>
      <trkpt lat="43.90221" lon="3.98739">
        <ele>106.4</ele>
        <time>2024-04-06T12:20:46.569Z</time>
      </trkpt>
      <trkpt lat="43.90221" lon="3.98737">
        <ele>106.5</ele>
        <time>2024-04-06T12:20:47.145Z</time>
      </trkpt>
      <trkpt lat="43.90221" lon="3.98734">
        <ele>106.6</ele>
        <time>2024-04-06T12:20:47.946Z</time>
      </trkpt>
      <trkpt lat="43.90221" lon="3.98731">
        <ele>106.7</ele>
        <time>2024-04-06T12:20:48.747Z</time>
      </trkpt>
      <trkpt lat="43.90221" lon="3.98728">
        <ele>106.8</ele>
        <time>2024-04-06T12:20:49.548Z</time>
      </trkpt>
      <trkpt lat="43.90221" lon="3.98725">
        <ele>106.9</ele>
        <time>2024-04-06T12:20:50.348Z</time>
      </trkpt>
      <trkpt lat="43.90221" lon="3.98723">
        <ele>107</ele>
        <time>2024-04-06T12:20:50.925Z</time>
      </trkpt>
      <trkpt lat="43.90221" lon="3.9872">
        <ele>107.2</ele>
        <time>2024-04-06T12:20:51.860Z</time>
      </trkpt>
      <trkpt lat="43.90221" lon="3.98717">
        <ele>107.4</ele>
        <time>2024-04-06T12:20:52.796Z</time>
      </trkpt>
      <trkpt lat="43.90221" lon="3.98714">
        <ele>107.6</ele>
        <time>2024-04-06T12:20:53.731Z</time>
      </trkpt>
      <trkpt lat="43.90221" lon="3.98711">
        <ele>107.8</ele>
        <time>2024-04-06T12:20:54.666Z</time>
      </trkpt>
      <trkpt lat="43.90221" lon="3.98709">
        <ele>107.9</ele>
        <time>2024-04-06T12:20:55.243Z</time>
      </trkpt>
      <trkpt lat="43.90221" lon="3.98706">
        <ele>108.1</ele>
        <time>2024-04-06T12:20:56.178Z</time>
      </trkpt>
      <trkpt lat="43.90221" lon="3.98703">
        <ele>108.3</ele>
        <time>2024-04-06T12:20:57.114Z</time>
      </trkpt>
      <trkpt lat="43.90221" lon="3.987">
        <ele>108.5</ele>
        <time>2024-04-06T12:20:58.049Z</time>
      </trkpt>
      <trkpt lat="43.90221" lon="3.98697">
        <ele>108.7</ele>
        <time>2024-04-06T12:20:58.985Z</time>
      </trkpt>
      <trkpt lat="43.90221" lon="3.98695">
        <ele>108.9</ele>
        <time>2024-04-06T12:20:59.720Z</time>
      </trkpt>
      <trkpt lat="43.90221" lon="3.98692">
        <ele>109</ele>
        <time>2024-04-06T12:21:00.521Z</time>
      </trkpt>
      <trkpt lat="43.90221" lon="3.98689">
        <ele>109.1</ele>
        <time>2024-04-06T12:21:01.321Z</time>
      </trkpt>
      <trkpt lat="43.90221" lon="3.98686">
        <ele>109.2</ele>
        <time>2024-04-06T12:21:02.122Z</time>
      </trkpt>
      <trkpt lat="43.9022" lon="3.98684">
        <ele>109.2</ele>
        <time>2024-04-06T12:21:02.683Z</time>
      </trkpt>
      <trkpt lat="43.9022" lon="3.98681">
        <ele>109.4</ele>
        <time>2024-04-06T12:21:03.619Z</time>
      </trkpt>
      <trkpt lat="43.9022" lon="3.98678">
        <ele>109.5</ele>
        <time>2024-04-06T12:21:04.420Z</time>
      </trkpt>
      <trkpt lat="43.9022" lon="3.98676">
        <ele>109.6</ele>
        <time>2024-04-06T12:21:04.996Z</time>
      </trkpt>
      <trkpt lat="43.9022" lon="3.98673">
        <ele>109.7</ele>
        <time>2024-04-06T12:21:05.797Z</time>
      </trkpt>
      <trkpt lat="43.9022" lon="3.9867">
        <ele>109.8</ele>
        <time>2024-04-06T12:21:06.598Z</time>
      </trkpt>
      <trkpt lat="43.9022" lon="3.98667">
        <ele>109.9</ele>
        <time>2024-04-06T12:21:07.399Z</time>
      </trkpt>
      <trkpt lat="43.9022" lon="3.98665">
        <ele>110</ele>
        <time>2024-04-06T12:21:07.975Z</time>
      </trkpt>
      <trkpt lat="43.9022" lon="3.98662">
        <ele>110.2</ele>
        <time>2024-04-06T12:21:08.910Z</time>
      </trkpt>
      <trkpt lat="43.9022" lon="3.98659">
        <ele>110.4</ele>
        <time>2024-04-06T12:21:09.846Z</time>
      </trkpt>
      <trkpt lat="43.9022" lon="3.98657">
        <ele>110.6</ele>
        <time>2024-04-06T12:21:10.581Z</time>
      </trkpt>
      <trkpt lat="43.9022" lon="3.98654">
        <ele>110.8</ele>
        <time>2024-04-06T12:21:11.516Z</time>
      </trkpt>
      <trkpt lat="43.9022" lon="3.98652">
        <ele>110.9</ele>
        <time>2024-04-06T12:21:12.093Z</time>
      </trkpt>
      <trkpt lat="43.9022" lon="3.98649">
        <ele>111.1</ele>
        <time>2024-04-06T12:21:13.028Z</time>
      </trkpt>
      <trkpt lat="43.9022" lon="3.98646">
        <ele>111.3</ele>
        <time>2024-04-06T12:21:13.964Z</time>
      </trkpt>
      <trkpt lat="43.9022" lon="3.98644">
        <ele>111.5</ele>
        <time>2024-04-06T12:21:14.699Z</time>
      </trkpt>
      <trkpt lat="43.90219" lon="3.98641">
        <ele>111.6</ele>
        <time>2024-04-06T12:21:15.569Z</time>
      </trkpt>
      <trkpt lat="43.90219" lon="3.98638">
        <ele>111.8</ele>
        <time>2024-04-06T12:21:16.504Z</time>
      </trkpt>
      <trkpt lat="43.90219" lon="3.98635">
        <ele>111.9</ele>
        <time>2024-04-06T12:21:17.305Z</time>
      </trkpt>
      <trkpt lat="43.90219" lon="3.98633">
        <ele>112</ele>
        <time>2024-04-06T12:21:17.882Z</time>
      </trkpt>
      <trkpt lat="43.90219" lon="3.9863">
        <ele>112.1</ele>
        <time>2024-04-06T12:21:18.683Z</time>
      </trkpt>
      <trkpt lat="43.9022" lon="3.98627">
        <ele>112.3</ele>
        <time>2024-04-06T12:21:19.683Z</time>
      </trkpt>
      <trkpt lat="43.9022" lon="3.98624">
        <ele>112.4</ele>
        <time>2024-04-06T12:21:20.484Z</time>
      </trkpt>
      <trkpt lat="43.9022" lon="3.98622">
        <ele>112.4</ele>
        <time>2024-04-06T12:21:20.945Z</time>
      </trkpt>
      <trkpt lat="43.9022" lon="3.98619">
        <ele>112.6</ele>
        <time>2024-04-06T12:21:21.881Z</time>
      </trkpt>
      <trkpt lat="43.9022" lon="3.98616">
        <ele>112.7</ele>
        <time>2024-04-06T12:21:22.682Z</time>
      </trkpt>
      <trkpt lat="43.9022" lon="3.98613">
        <ele>112.8</ele>
        <time>2024-04-06T12:21:23.482Z</time>
      </trkpt>
      <trkpt lat="43.9022" lon="3.9861">
        <ele>112.8</ele>
        <time>2024-04-06T12:21:24.174Z</time>
      </trkpt>
      <trkpt lat="43.90221" lon="3.98607">
        <ele>112.9</ele>
        <time>2024-04-06T12:21:25.044Z</time>
      </trkpt>
      <trkpt lat="43.90221" lon="3.98604">
        <ele>112.9</ele>
        <time>2024-04-06T12:21:25.736Z</time>
      </trkpt>
      <trkpt lat="43.90221" lon="3.98601">
        <ele>112.9</ele>
        <time>2024-04-06T12:21:26.428Z</time>
      </trkpt>
      <trkpt lat="43.9022" lon="3.98598">
        <ele>112.9</ele>
        <time>2024-04-06T12:21:27.190Z</time>
      </trkpt>
      <trkpt lat="43.9022" lon="3.98595">
        <ele>112.9</ele>
        <time>2024-04-06T12:21:27.881Z</time>
      </trkpt>
      <trkpt lat="43.9022" lon="3.98592">
        <ele>112.9</ele>
        <time>2024-04-06T12:21:28.573Z</time>
      </trkpt>
      <trkpt lat="43.9022" lon="3.98589">
        <ele>112.9</ele>
        <time>2024-04-06T12:21:29.265Z</time>
      </trkpt>
      <trkpt lat="43.9022" lon="3.98586">
        <ele>112.9</ele>
        <time>2024-04-06T12:21:29.956Z</time>
      </trkpt>
      <trkpt lat="43.9022" lon="3.98582">
        <ele>113</ele>
        <time>2024-04-06T12:21:30.985Z</time>
      </trkpt>
      <trkpt lat="43.90219" lon="3.98579">
        <ele>113</ele>
        <time>2024-04-06T12:21:31.747Z</time>
      </trkpt>
      <trkpt lat="43.90219" lon="3.98575">
        <ele>113.2</ele>
        <time>2024-04-06T12:21:32.900Z</time>
      </trkpt>
      <trkpt lat="43.90219" lon="3.98572">
        <ele>113.3</ele>
        <time>2024-04-06T12:21:33.700Z</time>
      </trkpt>
      <trkpt lat="43.90219" lon="3.98569">
        <ele>113.4</ele>
        <time>2024-04-06T12:21:34.501Z</time>
      </trkpt>
      <trkpt lat="43.90218" lon="3.98565">
        <ele>113.5</ele>
        <time>2024-04-06T12:21:35.583Z</time>
      </trkpt>
      <trkpt lat="43.90218" lon="3.98561">
        <ele>113.7</ele>
        <time>2024-04-06T12:21:36.736Z</time>
      </trkpt>
      <trkpt lat="43.90218" lon="3.98557">
        <ele>113.8</ele>
        <time>2024-04-06T12:21:37.765Z</time>
      </trkpt>
      <trkpt lat="43.90218" lon="3.98553">
        <ele>113.9</ele>
        <time>2024-04-06T12:21:38.793Z</time>
      </trkpt>
      <trkpt lat="43.90218" lon="3.9855">
        <ele>113.9</ele>
        <time>2024-04-06T12:21:39.485Z</time>
      </trkpt>
      <trkpt lat="43.90217" lon="3.98546">
        <ele>113.9</ele>
        <time>2024-04-06T12:21:40.461Z</time>
      </trkpt>
      <trkpt lat="43.90217" lon="3.98543">
        <ele>113.9</ele>
        <time>2024-04-06T12:21:41.153Z</time>
      </trkpt>
      <trkpt lat="43.90217" lon="3.98539">
        <ele>113.9</ele>
        <time>2024-04-06T12:21:42.075Z</time>
      </trkpt>
      <trkpt lat="43.90217" lon="3.98536">
        <ele>113.9</ele>
        <time>2024-04-06T12:21:42.766Z</time>
      </trkpt>
      <trkpt lat="43.90217" lon="3.98532">
        <ele>114</ele>
        <time>2024-04-06T12:21:43.795Z</time>
      </trkpt>
      <trkpt lat="43.90217" lon="3.98529">
        <ele>114</ele>
        <time>2024-04-06T12:21:44.487Z</time>
      </trkpt>
      <trkpt lat="43.90217" lon="3.98526">
        <ele>114.1</ele>
        <time>2024-04-06T12:21:45.287Z</time>
      </trkpt>
      <trkpt lat="43.90216" lon="3.98522">
        <ele>114.3</ele>
        <time>2024-04-06T12:21:46.492Z</time>
      </trkpt>
      <trkpt lat="43.90216" lon="3.98519">
        <ele>114.4</ele>
        <time>2024-04-06T12:21:47.293Z</time>
      </trkpt>
      <trkpt lat="43.90216" lon="3.98516">
        <ele>114.5</ele>
        <time>2024-04-06T12:21:48.094Z</time>
      </trkpt>
      <trkpt lat="43.90216" lon="3.98513">
        <ele>114.7</ele>
        <time>2024-04-06T12:21:49.029Z</time>
      </trkpt>
      <trkpt lat="43.90216" lon="3.9851">
        <ele>114.8</ele>
        <time>2024-04-06T12:21:49.830Z</time>
      </trkpt>
      <trkpt lat="43.90216" lon="3.98507">
        <ele>114.9</ele>
        <time>2024-04-06T12:21:50.631Z</time>
      </trkpt>
      <trkpt lat="43.90216" lon="3.98504">
        <ele>115</ele>
        <time>2024-04-06T12:21:51.432Z</time>
      </trkpt>
      <trkpt lat="43.90216" lon="3.98501">
        <ele>115.2</ele>
        <time>2024-04-06T12:21:52.367Z</time>
      </trkpt>
      <trkpt lat="43.90216" lon="3.98498">
        <ele>115.4</ele>
        <time>2024-04-06T12:21:53.303Z</time>
      </trkpt>
      <trkpt lat="43.90216" lon="3.98495">
        <ele>115.7</ele>
        <time>2024-04-06T12:21:54.405Z</time>
      </trkpt>
      <trkpt lat="43.90215" lon="3.98493">
        <ele>115.9</ele>
        <time>2024-04-06T12:21:55.224Z</time>
      </trkpt>
      <trkpt lat="43.90215" lon="3.9849">
        <ele>116.2</ele>
        <time>2024-04-06T12:21:56.326Z</time>
      </trkpt>
      <trkpt lat="43.90215" lon="3.98487">
        <ele>116.4</ele>
        <time>2024-04-06T12:21:57.262Z</time>
      </trkpt>
      <trkpt lat="43.90215" lon="3.98484">
        <ele>116.7</ele>
        <time>2024-04-06T12:21:58.365Z</time>
      </trkpt>
      <trkpt lat="43.90215" lon="3.98482">
        <ele>116.9</ele>
        <time>2024-04-06T12:21:59.100Z</time>
      </trkpt>
      <trkpt lat="43.90215" lon="3.98479">
        <ele>117.1</ele>
        <time>2024-04-06T12:22:00.035Z</time>
      </trkpt>
      <trkpt lat="43.90215" lon="3.98474">
        <ele>117.6</ele>
        <time>2024-04-06T12:22:01.873Z</time>
      </trkpt>
      <trkpt lat="43.90216" lon="3.98472">
        <ele>117.8</ele>
        <time>2024-04-06T12:22:02.691Z</time>
      </trkpt>
      <trkpt lat="43.90216" lon="3.98469">
        <ele>117.9</ele>
        <time>2024-04-06T12:22:03.492Z</time>
      </trkpt>
      <trkpt lat="43.90217" lon="3.98465">
        <ele>118</ele>
        <time>2024-04-06T12:22:04.574Z</time>
      </trkpt>
      <trkpt lat="43.90218" lon="3.98461">
        <ele>118.2</ele>
        <time>2024-04-06T12:22:05.779Z</time>
      </trkpt>
      <trkpt lat="43.90218" lon="3.98456">
        <ele>118.3</ele>
        <time>2024-04-06T12:22:07.036Z</time>
      </trkpt>
      <trkpt lat="43.90219" lon="3.98452">
        <ele>118.5</ele>
        <time>2024-04-06T12:22:08.241Z</time>
      </trkpt>
      <trkpt lat="43.9022" lon="3.98447">
        <ele>118.8</ele>
        <time>2024-04-06T12:22:09.792Z</time>
      </trkpt>
      <trkpt lat="43.9022" lon="3.98443">
        <ele>118.9</ele>
        <time>2024-04-06T12:22:10.821Z</time>
      </trkpt>
      <trkpt lat="43.90221" lon="3.98439">
        <ele>119.1</ele>
        <time>2024-04-06T12:22:12.025Z</time>
      </trkpt>
      <trkpt lat="43.90222" lon="3.98435">
        <ele>119.3</ele>
        <time>2024-04-06T12:22:13.230Z</time>
      </trkpt>
      <trkpt lat="43.90223" lon="3.98431">
        <ele>119.5</ele>
        <time>2024-04-06T12:22:14.434Z</time>
      </trkpt>
      <trkpt lat="43.90224" lon="3.98427">
        <ele>119.7</ele>
        <time>2024-04-06T12:22:15.639Z</time>
      </trkpt>
      <trkpt lat="43.90225" lon="3.98423">
        <ele>119.8</ele>
        <time>2024-04-06T12:22:16.721Z</time>
      </trkpt>
      <trkpt lat="43.90226" lon="3.98419">
        <ele>120</ele>
        <time>2024-04-06T12:22:17.926Z</time>
      </trkpt>
      <trkpt lat="43.90226" lon="3.98415">
        <ele>120.2</ele>
        <time>2024-04-06T12:22:19.078Z</time>
      </trkpt>
      <trkpt lat="43.90226" lon="3.98411">
        <ele>120.3</ele>
        <time>2024-04-06T12:22:20.107Z</time>
      </trkpt>
      <trkpt lat="43.90227" lon="3.98406">
        <ele>120.6</ele>
        <time>2024-04-06T12:22:21.658Z</time>
      </trkpt>
      <trkpt lat="43.90227" lon="3.98402">
        <ele>120.7</ele>
        <time>2024-04-06T12:22:22.687Z</time>
      </trkpt>
      <trkpt lat="43.90228" lon="3.98398">
        <ele>120.9</ele>
        <time>2024-04-06T12:22:23.891Z</time>
      </trkpt>
      <trkpt lat="43.90229" lon="3.98394">
        <ele>121.1</ele>
        <time>2024-04-06T12:22:25.096Z</time>
      </trkpt>
      <trkpt lat="43.90229" lon="3.9839">
        <ele>121.2</ele>
        <time>2024-04-06T12:22:26.124Z</time>
      </trkpt>
      <trkpt lat="43.9023" lon="3.98386">
        <ele>121.5</ele>
        <time>2024-04-06T12:22:27.472Z</time>
      </trkpt>
      <trkpt lat="43.90232" lon="3.98382">
        <ele>121.8</ele>
        <time>2024-04-06T12:22:28.954Z</time>
      </trkpt>
      <trkpt lat="43.90233" lon="3.98378">
        <ele>122.2</ele>
        <time>2024-04-06T12:22:30.467Z</time>
      </trkpt>
      <trkpt lat="43.90234" lon="3.98374">
        <ele>122.5</ele>
        <time>2024-04-06T12:22:31.814Z</time>
      </trkpt>
      <trkpt lat="43.90236" lon="3.98371">
        <ele>122.8</ele>
        <time>2024-04-06T12:22:33.131Z</time>
      </trkpt>
      <trkpt lat="43.90238" lon="3.98369">
        <ele>123</ele>
        <time>2024-04-06T12:22:34.156Z</time>
      </trkpt>
      <trkpt lat="43.90239" lon="3.98366">
        <ele>123.3</ele>
        <time>2024-04-06T12:22:35.316Z</time>
      </trkpt>
      <trkpt lat="43.90238" lon="3.98361">
        <ele>123.6</ele>
        <time>2024-04-06T12:22:36.867Z</time>
      </trkpt>
      <trkpt lat="43.90238" lon="3.98357">
        <ele>124.1</ele>
        <time>2024-04-06T12:22:38.541Z</time>
      </trkpt>
      <trkpt lat="43.90238" lon="3.98353">
        <ele>124.6</ele>
        <time>2024-04-06T12:22:40.214Z</time>
      </trkpt>
      <trkpt lat="43.90238" lon="3.98349">
        <ele>125.1</ele>
        <time>2024-04-06T12:22:41.888Z</time>
      </trkpt>
      <trkpt lat="43.90238" lon="3.98345">
        <ele>125.6</ele>
        <time>2024-04-06T12:22:43.561Z</time>
      </trkpt>
      <trkpt lat="43.90238" lon="3.98341">
        <ele>126.2</ele>
        <time>2024-04-06T12:22:45.476Z</time>
      </trkpt>
      <trkpt lat="43.90239" lon="3.98338">
        <ele>126.6</ele>
        <time>2024-04-06T12:22:46.830Z</time>
      </trkpt>
      <trkpt lat="43.9024" lon="3.98335">
        <ele>127.1</ele>
        <time>2024-04-06T12:22:48.423Z</time>
      </trkpt>
      <trkpt lat="43.90241" lon="3.98331">
        <ele>127.7</ele>
        <time>2024-04-06T12:22:50.360Z</time>
      </trkpt>
      <trkpt lat="43.90241" lon="3.98327">
        <ele>128.3</ele>
        <time>2024-04-06T12:22:52.275Z</time>
      </trkpt>
      <trkpt lat="43.90241" lon="3.98324">
        <ele>128.7</ele>
        <time>2024-04-06T12:22:53.587Z</time>
      </trkpt>
      <trkpt lat="43.90241" lon="3.9832">
        <ele>129.3</ele>
        <time>2024-04-06T12:22:55.501Z</time>
      </trkpt>
      <trkpt lat="43.90241" lon="3.98317">
        <ele>129.7</ele>
        <time>2024-04-06T12:22:56.813Z</time>
      </trkpt>
      <trkpt lat="43.90241" lon="3.98313">
        <ele>130.3</ele>
        <time>2024-04-06T12:22:58.728Z</time>
      </trkpt>
      <trkpt lat="43.90242" lon="3.98309">
        <ele>130.9</ele>
        <time>2024-04-06T12:23:00.665Z</time>
      </trkpt>
      <trkpt lat="43.90242" lon="3.98305">
        <ele>131.5</ele>
        <time>2024-04-06T12:23:02.579Z</time>
      </trkpt>
      <trkpt lat="43.90242" lon="3.98301">
        <ele>132.1</ele>
        <time>2024-04-06T12:23:04.494Z</time>
      </trkpt>
      <trkpt lat="43.90243" lon="3.98296">
        <ele>132.9</ele>
        <time>2024-04-06T12:23:07.035Z</time>
      </trkpt>
      <trkpt lat="43.90243" lon="3.98293">
        <ele>133.3</ele>
        <time>2024-04-06T12:23:08.347Z</time>
      </trkpt>
      <trkpt lat="43.90243" lon="3.98289">
        <ele>133.9</ele>
        <time>2024-04-06T12:23:10.262Z</time>
      </trkpt>
      <trkpt lat="43.90243" lon="3.98285">
        <ele>134.5</ele>
        <time>2024-04-06T12:23:12.176Z</time>
      </trkpt>
      <trkpt lat="43.90244" lon="3.98282">
        <ele>135</ele>
        <time>2024-04-06T12:23:13.769Z</time>
      </trkpt>
      <trkpt lat="43.90244" lon="3.98278">
        <ele>135.5</ele>
        <time>2024-04-06T12:23:15.443Z</time>
      </trkpt>
      <trkpt lat="43.90245" lon="3.98274">
        <ele>136</ele>
        <time>2024-04-06T12:23:17.151Z</time>
      </trkpt>
      <trkpt lat="43.90246" lon="3.98272">
        <ele>136.3</ele>
        <time>2024-04-06T12:23:18.160Z</time>
      </trkpt>
      <trkpt lat="43.90246" lon="3.98267">
        <ele>136.9</ele>
        <time>2024-04-06T12:23:20.198Z</time>
      </trkpt>
      <trkpt lat="43.90247" lon="3.98263">
        <ele>137.4</ele>
        <time>2024-04-06T12:23:21.906Z</time>
      </trkpt>
      <trkpt lat="43.90246" lon="3.9826">
        <ele>137.6</ele>
        <time>2024-04-06T12:23:22.907Z</time>
      </trkpt>
      <trkpt lat="43.90244" lon="3.98258">
        <ele>137.7</ele>
        <time>2024-04-06T12:23:23.803Z</time>
      </trkpt>
      <trkpt lat="43.9024" lon="3.98256">
        <ele>137.6</ele>
        <time>2024-04-06T12:23:25.070Z</time>
      </trkpt>
      <trkpt lat="43.90238" lon="3.98255">
        <ele>137.6</ele>
        <time>2024-04-06T12:23:25.750Z</time>
      </trkpt>
      <trkpt lat="43.90236" lon="3.98254">
        <ele>137.6</ele>
        <time>2024-04-06T12:23:26.431Z</time>
      </trkpt>
      <trkpt lat="43.90234" lon="3.98253">
        <ele>137.5</ele>
        <time>2024-04-06T12:23:27.026Z</time>
      </trkpt>
      <trkpt lat="43.90231" lon="3.98253">
        <ele>137.3</ele>
        <time>2024-04-06T12:23:27.866Z</time>
      </trkpt>
      <trkpt lat="43.90228" lon="3.98252">
        <ele>137.2</ele>
        <time>2024-04-06T12:23:28.761Z</time>
      </trkpt>
      <trkpt lat="43.90225" lon="3.98253">
        <ele>136.9</ele>
        <time>2024-04-06T12:23:29.625Z</time>
      </trkpt>
      <trkpt lat="43.90221" lon="3.98253">
        <ele>136.5</ele>
        <time>2024-04-06T12:23:30.745Z</time>
      </trkpt>
      <trkpt lat="43.90218" lon="3.98254">
        <ele>136.1</ele>
        <time>2024-04-06T12:23:31.608Z</time>
      </trkpt>
      <trkpt lat="43.90214" lon="3.98256">
        <ele>135.4</ele>
        <time>2024-04-06T12:23:32.799Z</time>
      </trkpt>
      <trkpt lat="43.90212" lon="3.98257">
        <ele>135</ele>
        <time>2024-04-06T12:23:33.394Z</time>
      </trkpt>
      <trkpt lat="43.90209" lon="3.98258">
        <ele>134.6</ele>
        <time>2024-04-06T12:23:34.258Z</time>
      </trkpt>
      <trkpt lat="43.90206" lon="3.98258">
        <ele>134.2</ele>
        <time>2024-04-06T12:23:35.098Z</time>
      </trkpt>
      <trkpt lat="43.90204" lon="3.98259">
        <ele>133.8</ele>
        <time>2024-04-06T12:23:35.693Z</time>
      </trkpt>
      <trkpt lat="43.90201" lon="3.98258">
        <ele>133.6</ele>
        <time>2024-04-06T12:23:36.557Z</time>
      </trkpt>
      <trkpt lat="43.90198" lon="3.98256">
        <ele>133.5</ele>
        <time>2024-04-06T12:23:37.529Z</time>
      </trkpt>
      <trkpt lat="43.90196" lon="3.98255">
        <ele>133.5</ele>
        <time>2024-04-06T12:23:38.209Z</time>
      </trkpt>
      <trkpt lat="43.90194" lon="3.98255">
        <ele>133.2</ele>
        <time>2024-04-06T12:23:38.769Z</time>
      </trkpt>
      <trkpt lat="43.90192" lon="3.98257">
        <ele>132.7</ele>
        <time>2024-04-06T12:23:39.460Z</time>
      </trkpt>
      <trkpt lat="43.9019" lon="3.9826">
        <ele>132</ele>
        <time>2024-04-06T12:23:40.284Z</time>
      </trkpt>
      <trkpt lat="43.90189" lon="3.98262">
        <ele>131.6</ele>
        <time>2024-04-06T12:23:40.775Z</time>
      </trkpt>
      <trkpt lat="43.90188" lon="3.98264">
        <ele>131.2</ele>
        <time>2024-04-06T12:23:41.266Z</time>
      </trkpt>
      <trkpt lat="43.90186" lon="3.98266">
        <ele>130.7</ele>
        <time>2024-04-06T12:23:41.956Z</time>
      </trkpt>
      <trkpt lat="43.90185" lon="3.98268">
        <ele>130.3</ele>
        <time>2024-04-06T12:23:42.448Z</time>
      </trkpt>
      <trkpt lat="43.90182" lon="3.98269">
        <ele>129.8</ele>
        <time>2024-04-06T12:23:43.311Z</time>
      </trkpt>
      <trkpt lat="43.90179" lon="3.98269">
        <ele>129.4</ele>
        <time>2024-04-06T12:23:44.151Z</time>
      </trkpt>
      <trkpt lat="43.90176" lon="3.98268">
        <ele>129.2</ele>
        <time>2024-04-06T12:23:45.015Z</time>
      </trkpt>
      <trkpt lat="43.90174" lon="3.98266">
        <ele>129.2</ele>
        <time>2024-04-06T12:23:45.804Z</time>
      </trkpt>
      <trkpt lat="43.90173" lon="3.98264">
        <ele>129.3</ele>
        <time>2024-04-06T12:23:46.477Z</time>
      </trkpt>
      <trkpt lat="43.90172" lon="3.98261">
        <ele>129.5</ele>
        <time>2024-04-06T12:23:47.478Z</time>
      </trkpt>
      <trkpt lat="43.9017" lon="3.98259">
        <ele>129.5</ele>
        <time>2024-04-06T12:23:48.267Z</time>
      </trkpt>
      <trkpt lat="43.90169" lon="3.98256">
        <ele>129.7</ele>
        <time>2024-04-06T12:23:49.267Z</time>
      </trkpt>
      <trkpt lat="43.90168" lon="3.98254">
        <ele>129.8</ele>
        <time>2024-04-06T12:23:49.941Z</time>
      </trkpt>
      <trkpt lat="43.90166" lon="3.9825">
        <ele>129.9</ele>
        <time>2024-04-06T12:23:51.168Z</time>
      </trkpt>
      <trkpt lat="43.90166" lon="3.98246">
        <ele>130</ele>
        <time>2024-04-06T12:23:52.197Z</time>
      </trkpt>
      <trkpt lat="43.90166" lon="3.98242">
        <ele>130.2</ele>
        <time>2024-04-06T12:23:53.349Z</time>
      </trkpt>
      <trkpt lat="43.90163" lon="3.98239">
        <ele>129.8</ele>
        <time>2024-04-06T12:23:54.385Z</time>
      </trkpt>
      <trkpt lat="43.90161" lon="3.98237">
        <ele>129.6</ele>
        <time>2024-04-06T12:23:55.075Z</time>
      </trkpt>
      <trkpt lat="43.90159" lon="3.98234">
        <ele>129.3</ele>
        <time>2024-04-06T12:23:55.899Z</time>
      </trkpt>
      <trkpt lat="43.90156" lon="3.9823">
        <ele>128.9</ele>
        <time>2024-04-06T12:23:57.064Z</time>
      </trkpt>
      <trkpt lat="43.90154" lon="3.98225">
        <ele>128.7</ele>
        <time>2024-04-06T12:23:58.218Z</time>
      </trkpt>
      <trkpt lat="43.90152" lon="3.98221">
        <ele>128.3</ele>
        <time>2024-04-06T12:23:59.200Z</time>
      </trkpt>
      <trkpt lat="43.90152" lon="3.98216">
        <ele>128.3</ele>
        <time>2024-04-06T12:24:00.353Z</time>
      </trkpt>
      <trkpt lat="43.90153" lon="3.98212">
        <ele>128.4</ele>
        <time>2024-04-06T12:24:01.435Z</time>
      </trkpt>
      <trkpt lat="43.90153" lon="3.98208">
        <ele>128.3</ele>
        <time>2024-04-06T12:24:02.265Z</time>
      </trkpt>
      <trkpt lat="43.90154" lon="3.98205">
        <ele>128.4</ele>
        <time>2024-04-06T12:24:03.136Z</time>
      </trkpt>
      <trkpt lat="43.90154" lon="3.98201">
        <ele>128.3</ele>
        <time>2024-04-06T12:24:03.966Z</time>
      </trkpt>
      <trkpt lat="43.90155" lon="3.98197">
        <ele>128.4</ele>
        <time>2024-04-06T12:24:05.048Z</time>
      </trkpt>
      <trkpt lat="43.90155" lon="3.98194">
        <ele>128.3</ele>
        <time>2024-04-06T12:24:05.653Z</time>
      </trkpt>
      <trkpt lat="43.90155" lon="3.98189">
        <ele>128</ele>
        <time>2024-04-06T12:24:06.662Z</time>
      </trkpt>
      <trkpt lat="43.90154" lon="3.98185">
        <ele>127.7</ele>
        <time>2024-04-06T12:24:07.516Z</time>
      </trkpt>
      <trkpt lat="43.90153" lon="3.98181">
        <ele>127.3</ele>
        <time>2024-04-06T12:24:08.370Z</time>
      </trkpt>
      <trkpt lat="43.90153" lon="3.98176">
        <ele>127</ele>
        <time>2024-04-06T12:24:09.379Z</time>
      </trkpt>
      <trkpt lat="43.90154" lon="3.98172">
        <ele>126.9</ele>
        <time>2024-04-06T12:24:10.263Z</time>
      </trkpt>
      <trkpt lat="43.90156" lon="3.98169">
        <ele>127</ele>
        <time>2024-04-06T12:24:11.312Z</time>
      </trkpt>
      <trkpt lat="43.90158" lon="3.98167">
        <ele>127.1</ele>
        <time>2024-04-06T12:24:12.208Z</time>
      </trkpt>
      <trkpt lat="43.9016" lon="3.98166">
        <ele>127.3</ele>
        <time>2024-04-06T12:24:13.133Z</time>
      </trkpt>
      <trkpt lat="43.90161" lon="3.98163">
        <ele>127.3</ele>
        <time>2024-04-06T12:24:13.895Z</time>
      </trkpt>
      <trkpt lat="43.90162" lon="3.98161">
        <ele>127.3</ele>
        <time>2024-04-06T12:24:14.456Z</time>
      </trkpt>
      <trkpt lat="43.90163" lon="3.98158">
        <ele>127.3</ele>
        <time>2024-04-06T12:24:15.219Z</time>
      </trkpt>
      <trkpt lat="43.90164" lon="3.98155">
        <ele>127.3</ele>
        <time>2024-04-06T12:24:15.981Z</time>
      </trkpt>
      <trkpt lat="43.90165" lon="3.98151">
        <ele>127.3</ele>
        <time>2024-04-06T12:24:16.957Z</time>
      </trkpt>
      <trkpt lat="43.90165" lon="3.98148">
        <ele>127.1</ele>
        <time>2024-04-06T12:24:17.562Z</time>
      </trkpt>
      <trkpt lat="43.90166" lon="3.98145">
        <ele>127.1</ele>
        <time>2024-04-06T12:24:18.324Z</time>
      </trkpt>
      <trkpt lat="43.90167" lon="3.98141">
        <ele>127.1</ele>
        <time>2024-04-06T12:24:19.300Z</time>
      </trkpt>
      <trkpt lat="43.90168" lon="3.98138">
        <ele>127.2</ele>
        <time>2024-04-06T12:24:20.170Z</time>
      </trkpt>
      <trkpt lat="43.90169" lon="3.98134">
        <ele>127.2</ele>
        <time>2024-04-06T12:24:21.147Z</time>
      </trkpt>
      <trkpt lat="43.90171" lon="3.98132">
        <ele>127.4</ele>
        <time>2024-04-06T12:24:22.172Z</time>
      </trkpt>
      <trkpt lat="43.90172" lon="3.98129">
        <ele>127.4</ele>
        <time>2024-04-06T12:24:22.935Z</time>
      </trkpt>
      <trkpt lat="43.90173" lon="3.98125">
        <ele>127.4</ele>
        <time>2024-04-06T12:24:23.911Z</time>
      </trkpt>
      <trkpt lat="43.90173" lon="3.98122">
        <ele>127.3</ele>
        <time>2024-04-06T12:24:24.516Z</time>
      </trkpt>
      <trkpt lat="43.90174" lon="3.98118">
        <ele>127.3</ele>
        <time>2024-04-06T12:24:25.492Z</time>
      </trkpt>
      <trkpt lat="43.90174" lon="3.98115">
        <ele>127.2</ele>
        <time>2024-04-06T12:24:26.097Z</time>
      </trkpt>
      <trkpt lat="43.90174" lon="3.98112">
        <ele>127.1</ele>
        <time>2024-04-06T12:24:26.702Z</time>
      </trkpt>
      <trkpt lat="43.90175" lon="3.98109">
        <ele>127.1</ele>
        <time>2024-04-06T12:24:27.464Z</time>
      </trkpt>
      <trkpt lat="43.90175" lon="3.98105">
        <ele>127</ele>
        <time>2024-04-06T12:24:28.295Z</time>
      </trkpt>
      <trkpt lat="43.90176" lon="3.98101">
        <ele>127</ele>
        <time>2024-04-06T12:24:29.271Z</time>
      </trkpt>
      <trkpt lat="43.90177" lon="3.98098">
        <ele>127</ele>
        <time>2024-04-06T12:24:30.033Z</time>
      </trkpt>
      <trkpt lat="43.90177" lon="3.98094">
        <ele>126.9</ele>
        <time>2024-04-06T12:24:30.864Z</time>
      </trkpt>
      <trkpt lat="43.90177" lon="3.98091">
        <ele>126.8</ele>
        <time>2024-04-06T12:24:31.469Z</time>
      </trkpt>
      <trkpt lat="43.90178" lon="3.98088">
        <ele>126.8</ele>
        <time>2024-04-06T12:24:32.231Z</time>
      </trkpt>
      <trkpt lat="43.90178" lon="3.98084">
        <ele>126.7</ele>
        <time>2024-04-06T12:24:33.062Z</time>
      </trkpt>
      <trkpt lat="43.90178" lon="3.98081">
        <ele>126.5</ele>
        <time>2024-04-06T12:24:33.667Z</time>
      </trkpt>
      <trkpt lat="43.90179" lon="3.98078">
        <ele>126.6</ele>
        <time>2024-04-06T12:24:34.537Z</time>
      </trkpt>
      <trkpt lat="43.90179" lon="3.98074">
        <ele>126.4</ele>
        <time>2024-04-06T12:24:35.344Z</time>
      </trkpt>
      <trkpt lat="43.90179" lon="3.98071">
        <ele>126.3</ele>
        <time>2024-04-06T12:24:35.949Z</time>
      </trkpt>
      <trkpt lat="43.9018" lon="3.98067">
        <ele>126.3</ele>
        <time>2024-04-06T12:24:36.926Z</time>
      </trkpt>
      <trkpt lat="43.9018" lon="3.98065">
        <ele>126.3</ele>
        <time>2024-04-06T12:24:37.387Z</time>
      </trkpt>
      <trkpt lat="43.90181" lon="3.98061">
        <ele>126.3</ele>
        <time>2024-04-06T12:24:38.363Z</time>
      </trkpt>
      <trkpt lat="43.90182" lon="3.98057">
        <ele>126.3</ele>
        <time>2024-04-06T12:24:39.339Z</time>
      </trkpt>
      <trkpt lat="43.90183" lon="3.98052">
        <ele>126.1</ele>
        <time>2024-04-06T12:24:40.386Z</time>
      </trkpt>
      <trkpt lat="43.90183" lon="3.98048">
        <ele>125.9</ele>
        <time>2024-04-06T12:24:41.193Z</time>
      </trkpt>
      <trkpt lat="43.90183" lon="3.98044">
        <ele>125.7</ele>
        <time>2024-04-06T12:24:42.000Z</time>
      </trkpt>
      <trkpt lat="43.90184" lon="3.98039">
        <ele>125.5</ele>
        <time>2024-04-06T12:24:43.046Z</time>
      </trkpt>
      <trkpt lat="43.90185" lon="3.98035">
        <ele>125.4</ele>
        <time>2024-04-06T12:24:43.931Z</time>
      </trkpt>
      <trkpt lat="43.90185" lon="3.9803">
        <ele>125.1</ele>
        <time>2024-04-06T12:24:44.939Z</time>
      </trkpt>
      <trkpt lat="43.90185" lon="3.98026">
        <ele>124.9</ele>
        <time>2024-04-06T12:24:45.746Z</time>
      </trkpt>
      <trkpt lat="43.90185" lon="3.98023">
        <ele>124.8</ele>
        <time>2024-04-06T12:24:46.351Z</time>
      </trkpt>
      <trkpt lat="43.90184" lon="3.98019">
        <ele>124.5</ele>
        <time>2024-04-06T12:24:47.205Z</time>
      </trkpt>
      <trkpt lat="43.90182" lon="3.98017">
        <ele>124.2</ele>
        <time>2024-04-06T12:24:47.896Z</time>
      </trkpt>
      <trkpt lat="43.90179" lon="3.98016">
        <ele>124</ele>
        <time>2024-04-06T12:24:48.759Z</time>
      </trkpt>
      <trkpt lat="43.90177" lon="3.98015">
        <ele>123.8</ele>
        <time>2024-04-06T12:24:49.355Z</time>
      </trkpt>
      <trkpt lat="43.90175" lon="3.98014">
        <ele>123.6</ele>
        <time>2024-04-06T12:24:49.950Z</time>
      </trkpt>
      <trkpt lat="43.90173" lon="3.98011">
        <ele>123.4</ele>
        <time>2024-04-06T12:24:50.774Z</time>
      </trkpt>
      <trkpt lat="43.90173" lon="3.98008">
        <ele>123.4</ele>
        <time>2024-04-06T12:24:51.466Z</time>
      </trkpt>
      <trkpt lat="43.90174" lon="3.98005">
        <ele>123.4</ele>
        <time>2024-04-06T12:24:52.228Z</time>
      </trkpt>
      <trkpt lat="43.90175" lon="3.98003">
        <ele>123.4</ele>
        <time>2024-04-06T12:24:52.789Z</time>
      </trkpt>
      <trkpt lat="43.90177" lon="3.98001">
        <ele>123.4</ele>
        <time>2024-04-06T12:24:53.578Z</time>
      </trkpt>
      <trkpt lat="43.9018" lon="3.97999">
        <ele>123.6</ele>
        <time>2024-04-06T12:24:54.869Z</time>
      </trkpt>
      <trkpt lat="43.90182" lon="3.97997">
        <ele>123.8</ele>
        <time>2024-04-06T12:24:55.894Z</time>
      </trkpt>
      <trkpt lat="43.90183" lon="3.97995">
        <ele>124</ele>
        <time>2024-04-06T12:24:56.713Z</time>
      </trkpt>
      <trkpt lat="43.90184" lon="3.97993">
        <ele>124.2</ele>
        <time>2024-04-06T12:24:57.531Z</time>
      </trkpt>
      <trkpt lat="43.90185" lon="3.9799">
        <ele>124.5</ele>
        <time>2024-04-06T12:24:58.691Z</time>
      </trkpt>
      <trkpt lat="43.90186" lon="3.97988">
        <ele>124.7</ele>
        <time>2024-04-06T12:24:59.509Z</time>
      </trkpt>
      <trkpt lat="43.90187" lon="3.97986">
        <ele>124.9</ele>
        <time>2024-04-06T12:25:00.328Z</time>
      </trkpt>
      <trkpt lat="43.9019" lon="3.97984">
        <ele>125.1</ele>
        <time>2024-04-06T12:25:01.618Z</time>
      </trkpt>
      <trkpt lat="43.90192" lon="3.97982">
        <ele>125.3</ele>
        <time>2024-04-06T12:25:02.644Z</time>
      </trkpt>
      <trkpt lat="43.90193" lon="3.97981">
        <ele>125.4</ele>
        <time>2024-04-06T12:25:03.157Z</time>
      </trkpt>
      <trkpt lat="43.90196" lon="3.9798">
        <ele>125.6</ele>
        <time>2024-04-06T12:25:04.372Z</time>
      </trkpt>
      <trkpt lat="43.902" lon="3.97979">
        <ele>126</ele>
        <time>2024-04-06T12:25:06.168Z</time>
      </trkpt>
      <trkpt lat="43.90202" lon="3.97976">
        <ele>126.3</ele>
        <time>2024-04-06T12:25:07.484Z</time>
      </trkpt>
      <trkpt lat="43.90202" lon="3.97972">
        <ele>126.6</ele>
        <time>2024-04-06T12:25:08.783Z</time>
      </trkpt>
      <trkpt lat="43.90201" lon="3.97969">
        <ele>126.8</ele>
        <time>2024-04-06T12:25:09.783Z</time>
      </trkpt>
      <trkpt lat="43.90199" lon="3.97965">
        <ele>127</ele>
        <time>2024-04-06T12:25:11.130Z</time>
      </trkpt>
      <trkpt lat="43.90198" lon="3.97962">
        <ele>127.3</ele>
        <time>2024-04-06T12:25:12.290Z</time>
      </trkpt>
      <trkpt lat="43.90198" lon="3.97959">
        <ele>127.6</ele>
        <time>2024-04-06T12:25:13.392Z</time>
      </trkpt>
      <trkpt lat="43.90197" lon="3.97955">
        <ele>127.9</ele>
        <time>2024-04-06T12:25:14.739Z</time>
      </trkpt>
      <trkpt lat="43.90196" lon="3.97951">
        <ele>128.3</ele>
        <time>2024-04-06T12:25:16.253Z</time>
      </trkpt>
      <trkpt lat="43.90194" lon="3.97948">
        <ele>128.6</ele>
        <time>2024-04-06T12:25:17.569Z</time>
      </trkpt>
      <trkpt lat="43.90193" lon="3.97946">
        <ele>128.7</ele>
        <time>2024-04-06T12:25:18.242Z</time>
      </trkpt>
      <trkpt lat="43.90192" lon="3.97944">
        <ele>128.8</ele>
        <time>2024-04-06T12:25:18.916Z</time>
      </trkpt>
      <trkpt lat="43.90195" lon="3.97941">
        <ele>129</ele>
        <time>2024-04-06T12:25:20.321Z</time>
      </trkpt>
      <trkpt lat="43.90197" lon="3.97937">
        <ele>129</ele>
        <time>2024-04-06T12:25:21.444Z</time>
      </trkpt>
      <trkpt lat="43.90197" lon="3.97935">
        <ele>129</ele>
        <time>2024-04-06T12:25:21.905Z</time>
      </trkpt>
      <trkpt lat="43.90198" lon="3.97932">
        <ele>129</ele>
        <time>2024-04-06T12:25:22.667Z</time>
      </trkpt>
      <trkpt lat="43.90197" lon="3.9793">
        <ele>129</ele>
        <time>2024-04-06T12:25:23.228Z</time>
      </trkpt>
      <trkpt lat="43.90195" lon="3.97925">
        <ele>129</ele>
        <time>2024-04-06T12:25:24.547Z</time>
      </trkpt>
      <trkpt lat="43.90193" lon="3.97924">
        <ele>128.9</ele>
        <time>2024-04-06T12:25:25.142Z</time>
      </trkpt>
      <trkpt lat="43.90191" lon="3.97923">
        <ele>128.8</ele>
        <time>2024-04-06T12:25:25.737Z</time>
      </trkpt>
      <trkpt lat="43.90189" lon="3.97922">
        <ele>128.6</ele>
        <time>2024-04-06T12:25:26.332Z</time>
      </trkpt>
      <trkpt lat="43.90188" lon="3.97919">
        <ele>128.5</ele>
        <time>2024-04-06T12:25:27.004Z</time>
      </trkpt>
      <trkpt lat="43.9019" lon="3.97916">
        <ele>128.6</ele>
        <time>2024-04-06T12:25:28.052Z</time>
      </trkpt>
      <trkpt lat="43.90191" lon="3.97911">
        <ele>128.2</ele>
        <time>2024-04-06T12:25:29.099Z</time>
      </trkpt>
      <trkpt lat="43.9019" lon="3.97907">
        <ele>127.7</ele>
        <time>2024-04-06T12:25:29.953Z</time>
      </trkpt>
      <trkpt lat="43.90189" lon="3.97902">
        <ele>127.1</ele>
        <time>2024-04-06T12:25:31.000Z</time>
      </trkpt>
      <trkpt lat="43.90188" lon="3.97897">
        <ele>126.6</ele>
        <time>2024-04-06T12:25:32.047Z</time>
      </trkpt>
      <trkpt lat="43.90189" lon="3.97893">
        <ele>126.2</ele>
        <time>2024-04-06T12:25:32.901Z</time>
      </trkpt>
      <trkpt lat="43.9019" lon="3.97891">
        <ele>126.1</ele>
        <time>2024-04-06T12:25:33.392Z</time>
      </trkpt>
      <trkpt lat="43.90192" lon="3.97889">
        <ele>125.9</ele>
        <time>2024-04-06T12:25:34.082Z</time>
      </trkpt>
      <trkpt lat="43.90194" lon="3.97886">
        <ele>125.8</ele>
        <time>2024-04-06T12:25:34.933Z</time>
      </trkpt>
      <trkpt lat="43.90196" lon="3.97881">
        <ele>125.5</ele>
        <time>2024-04-06T12:25:36.087Z</time>
      </trkpt>
      <trkpt lat="43.90198" lon="3.97877">
        <ele>125.2</ele>
        <time>2024-04-06T12:25:37.069Z</time>
      </trkpt>
      <trkpt lat="43.90201" lon="3.97873">
        <ele>125</ele>
        <time>2024-04-06T12:25:38.234Z</time>
      </trkpt>
      <trkpt lat="43.90206" lon="3.9787">
        <ele>124.8</ele>
        <time>2024-04-06T12:25:39.794Z</time>
      </trkpt>
      <trkpt lat="43.90211" lon="3.97868">
        <ele>124.6</ele>
        <time>2024-04-06T12:25:41.277Z</time>
      </trkpt>
      <trkpt lat="43.90216" lon="3.97867">
        <ele>124.6</ele>
        <time>2024-04-06T12:25:42.894Z</time>
      </trkpt>
      <trkpt lat="43.90221" lon="3.97866">
        <ele>124.5</ele>
        <time>2024-04-06T12:25:44.416Z</time>
      </trkpt>
      <trkpt lat="43.90225" lon="3.97865">
        <ele>124.3</ele>
        <time>2024-04-06T12:25:45.554Z</time>
      </trkpt>
      <trkpt lat="43.90228" lon="3.97865">
        <ele>124.2</ele>
        <time>2024-04-06T12:25:46.422Z</time>
      </trkpt>
      <trkpt lat="43.90231" lon="3.97865">
        <ele>124.1</ele>
        <time>2024-04-06T12:25:47.290Z</time>
      </trkpt>
      <trkpt lat="43.90234" lon="3.97865">
        <ele>124</ele>
        <time>2024-04-06T12:25:48.158Z</time>
      </trkpt>
      <trkpt lat="43.90236" lon="3.97865">
        <ele>123.9</ele>
        <time>2024-04-06T12:25:48.718Z</time>
      </trkpt>
      <trkpt lat="43.90238" lon="3.97865">
        <ele>123.9</ele>
        <time>2024-04-06T12:25:49.358Z</time>
      </trkpt>
      <trkpt lat="43.9024" lon="3.97864">
        <ele>123.7</ele>
        <time>2024-04-06T12:25:49.953Z</time>
      </trkpt>
      <trkpt lat="43.90242" lon="3.97864">
        <ele>123.6</ele>
        <time>2024-04-06T12:25:50.513Z</time>
      </trkpt>
      <trkpt lat="43.90244" lon="3.97864">
        <ele>123.5</ele>
        <time>2024-04-06T12:25:51.073Z</time>
      </trkpt>
      <trkpt lat="43.90247" lon="3.97864">
        <ele>123.4</ele>
        <time>2024-04-06T12:25:51.941Z</time>
      </trkpt>
      <trkpt lat="43.90249" lon="3.97865">
        <ele>123.5</ele>
        <time>2024-04-06T12:25:52.731Z</time>
      </trkpt>
      <trkpt lat="43.90251" lon="3.97864">
        <ele>123.3</ele>
        <time>2024-04-06T12:25:53.326Z</time>
      </trkpt>
      <trkpt lat="43.90254" lon="3.97862">
        <ele>123.1</ele>
        <time>2024-04-06T12:25:54.258Z</time>
      </trkpt>
      <trkpt lat="43.90256" lon="3.97858">
        <ele>122.9</ele>
        <time>2024-04-06T12:25:55.240Z</time>
      </trkpt>
      <trkpt lat="43.90256" lon="3.97855">
        <ele>122.7</ele>
        <time>2024-04-06T12:25:55.845Z</time>
      </trkpt>
      <trkpt lat="43.90256" lon="3.97852">
        <ele>122.6</ele>
        <time>2024-04-06T12:25:56.450Z</time>
      </trkpt>
      <trkpt lat="43.90256" lon="3.97848">
        <ele>122.4</ele>
        <time>2024-04-06T12:25:57.257Z</time>
      </trkpt>
      <trkpt lat="43.90257" lon="3.97845">
        <ele>122.3</ele>
        <time>2024-04-06T12:25:57.929Z</time>
      </trkpt>
      <trkpt lat="43.90259" lon="3.97842">
        <ele>122.1</ele>
        <time>2024-04-06T12:25:58.754Z</time>
      </trkpt>
      <trkpt lat="43.90261" lon="3.97841">
        <ele>122</ele>
        <time>2024-04-06T12:25:59.349Z</time>
      </trkpt>
      <trkpt lat="43.90263" lon="3.97841">
        <ele>121.9</ele>
        <time>2024-04-06T12:25:59.909Z</time>
      </trkpt>
      <trkpt lat="43.90265" lon="3.97841">
        <ele>121.9</ele>
        <time>2024-04-06T12:26:00.549Z</time>
      </trkpt>
      <trkpt lat="43.90268" lon="3.97839">
        <ele>121.7</ele>
        <time>2024-04-06T12:26:01.481Z</time>
      </trkpt>
      <trkpt lat="43.9027" lon="3.97837">
        <ele>121.5</ele>
        <time>2024-04-06T12:26:02.171Z</time>
      </trkpt>
      <trkpt lat="43.90271" lon="3.97833">
        <ele>121.2</ele>
        <time>2024-04-06T12:26:03.025Z</time>
      </trkpt>
      <trkpt lat="43.90272" lon="3.97831">
        <ele>121.2</ele>
        <time>2024-04-06T12:26:03.586Z</time>
      </trkpt>
      <trkpt lat="43.90273" lon="3.97828">
        <ele>121.2</ele>
        <time>2024-04-06T12:26:04.348Z</time>
      </trkpt>
      <trkpt lat="43.90274" lon="3.97824">
        <ele>121.1</ele>
        <time>2024-04-06T12:26:05.232Z</time>
      </trkpt>
      <trkpt lat="43.90275" lon="3.97821">
        <ele>121.1</ele>
        <time>2024-04-06T12:26:05.994Z</time>
      </trkpt>
      <trkpt lat="43.90275" lon="3.97817">
        <ele>121.1</ele>
        <time>2024-04-06T12:26:06.917Z</time>
      </trkpt>
      <trkpt lat="43.90276" lon="3.97813">
        <ele>121.1</ele>
        <time>2024-04-06T12:26:07.893Z</time>
      </trkpt>
      <trkpt lat="43.90277" lon="3.97809">
        <ele>121</ele>
        <time>2024-04-06T12:26:08.777Z</time>
      </trkpt>
      <trkpt lat="43.90278" lon="3.97807">
        <ele>121</ele>
        <time>2024-04-06T12:26:09.338Z</time>
      </trkpt>
      <trkpt lat="43.90278" lon="3.97802">
        <ele>121.2</ele>
        <time>2024-04-06T12:26:10.714Z</time>
      </trkpt>
      <trkpt lat="43.90276" lon="3.97798">
        <ele>121.6</ele>
        <time>2024-04-06T12:26:12.351Z</time>
      </trkpt>
      <trkpt lat="43.90274" lon="3.97796">
        <ele>121.8</ele>
        <time>2024-04-06T12:26:13.377Z</time>
      </trkpt>
      <trkpt lat="43.90273" lon="3.97794">
        <ele>121.9</ele>
        <time>2024-04-06T12:26:14.050Z</time>
      </trkpt>
      <trkpt lat="43.90271" lon="3.97792">
        <ele>122.1</ele>
        <time>2024-04-06T12:26:15.076Z</time>
      </trkpt>
      <trkpt lat="43.9027" lon="3.97789">
        <ele>122.3</ele>
        <time>2024-04-06T12:26:16.077Z</time>
      </trkpt>
      <trkpt lat="43.9027" lon="3.97787">
        <ele>122.4</ele>
        <time>2024-04-06T12:26:16.653Z</time>
      </trkpt>
      <trkpt lat="43.9027" lon="3.97784">
        <ele>122.6</ele>
        <time>2024-04-06T12:26:17.588Z</time>
      </trkpt>
      <trkpt lat="43.90269" lon="3.97781">
        <ele>122.8</ele>
        <time>2024-04-06T12:26:18.589Z</time>
      </trkpt>
      <trkpt lat="43.90268" lon="3.97779">
        <ele>122.9</ele>
        <time>2024-04-06T12:26:19.262Z</time>
      </trkpt>
      <trkpt lat="43.90268" lon="3.97776">
        <ele>123.1</ele>
        <time>2024-04-06T12:26:20.198Z</time>
      </trkpt>
      <trkpt lat="43.90268" lon="3.97774">
        <ele>123.2</ele>
        <time>2024-04-06T12:26:20.774Z</time>
      </trkpt>
      <trkpt lat="43.90266" lon="3.97771">
        <ele>123.5</ele>
        <time>2024-04-06T12:26:22.091Z</time>
      </trkpt>
      <trkpt lat="43.90264" lon="3.97767">
        <ele>123.8</ele>
        <time>2024-04-06T12:26:23.573Z</time>
      </trkpt>
      <trkpt lat="43.90263" lon="3.97765">
        <ele>123.9</ele>
        <time>2024-04-06T12:26:24.246Z</time>
      </trkpt>
      <trkpt lat="43.90266" lon="3.97763">
        <ele>124</ele>
        <time>2024-04-06T12:26:25.416Z</time>
      </trkpt>
      <trkpt lat="43.90267" lon="3.97762">
        <ele>124</ele>
        <time>2024-04-06T12:26:25.810Z</time>
      </trkpt>
      <trkpt lat="43.90268" lon="3.97759">
        <ele>124.2</ele>
        <time>2024-04-06T12:26:26.811Z</time>
      </trkpt>
      <trkpt lat="43.90269" lon="3.97756">
        <ele>124.3</ele>
        <time>2024-04-06T12:26:27.681Z</time>
      </trkpt>
      <trkpt lat="43.90269" lon="3.97754">
        <ele>124.4</ele>
        <time>2024-04-06T12:26:28.258Z</time>
      </trkpt>
      <trkpt lat="43.90274" lon="3.97754">
        <ele>124.1</ele>
        <time>2024-04-06T12:26:29.658Z</time>
      </trkpt>
      <trkpt lat="43.90279" lon="3.97755">
        <ele>123.7</ele>
        <time>2024-04-06T12:26:31.072Z</time>
      </trkpt>
      <trkpt lat="43.90284" lon="3.97756">
        <ele>123.3</ele>
        <time>2024-04-06T12:26:32.486Z</time>
      </trkpt>
      <trkpt lat="43.90287" lon="3.97757">
        <ele>123</ele>
        <time>2024-04-06T12:26:33.350Z</time>
      </trkpt>
      <trkpt lat="43.9029" lon="3.97757">
        <ele>122.8</ele>
        <time>2024-04-06T12:26:34.190Z</time>
      </trkpt>
      <trkpt lat="43.90293" lon="3.97758">
        <ele>122.5</ele>
        <time>2024-04-06T12:26:35.054Z</time>
      </trkpt>
      <trkpt lat="43.90297" lon="3.97759">
        <ele>122.1</ele>
        <time>2024-04-06T12:26:36.192Z</time>
      </trkpt>
      <trkpt lat="43.903" lon="3.97761">
        <ele>121.7</ele>
        <time>2024-04-06T12:26:37.124Z</time>
      </trkpt>
      <trkpt lat="43.90303" lon="3.97761">
        <ele>121.4</ele>
        <time>2024-04-06T12:26:37.964Z</time>
      </trkpt>
      <trkpt lat="43.90306" lon="3.97761">
        <ele>121.2</ele>
        <time>2024-04-06T12:26:38.804Z</time>
      </trkpt>
      <trkpt lat="43.90309" lon="3.9776">
        <ele>121.2</ele>
        <time>2024-04-06T12:26:39.791Z</time>
      </trkpt>
      <trkpt lat="43.90311" lon="3.97758">
        <ele>121.2</ele>
        <time>2024-04-06T12:26:40.580Z</time>
      </trkpt>
      <trkpt lat="43.90313" lon="3.97758">
        <ele>121.2</ele>
        <time>2024-04-06T12:26:41.219Z</time>
      </trkpt>
      <trkpt lat="43.90315" lon="3.97759">
        <ele>121</ele>
        <time>2024-04-06T12:26:41.815Z</time>
      </trkpt>
      <trkpt lat="43.90317" lon="3.97761">
        <ele>120.8</ele>
        <time>2024-04-06T12:26:42.505Z</time>
      </trkpt>
      <trkpt lat="43.90319" lon="3.97762">
        <ele>120.7</ele>
        <time>2024-04-06T12:26:43.100Z</time>
      </trkpt>
      <trkpt lat="43.90322" lon="3.97761">
        <ele>120.6</ele>
        <time>2024-04-06T12:26:43.995Z</time>
      </trkpt>
      <trkpt lat="43.90324" lon="3.9776">
        <ele>120.6</ele>
        <time>2024-04-06T12:26:44.675Z</time>
      </trkpt>
      <trkpt lat="43.90327" lon="3.97759">
        <ele>120.6</ele>
        <time>2024-04-06T12:26:45.663Z</time>
      </trkpt>
      <trkpt lat="43.9033" lon="3.97758">
        <ele>120.5</ele>
        <time>2024-04-06T12:26:46.558Z</time>
      </trkpt>
      <trkpt lat="43.90333" lon="3.97757">
        <ele>120.5</ele>
        <time>2024-04-06T12:26:47.545Z</time>
      </trkpt>
      <trkpt lat="43.90336" lon="3.97757">
        <ele>119.7</ele>
        <time>2024-04-06T12:26:48.385Z</time>
      </trkpt>
      <trkpt lat="43.90339" lon="3.97759">
        <ele>118.6</ele>
        <time>2024-04-06T12:26:49.317Z</time>
      </trkpt>
      <trkpt lat="43.90341" lon="3.9776">
        <ele>118</ele>
        <time>2024-04-06T12:26:49.912Z</time>
      </trkpt>
      <trkpt lat="43.90343" lon="3.9776">
        <ele>117.4</ele>
        <time>2024-04-06T12:26:50.472Z</time>
      </trkpt>
      <trkpt lat="43.90345" lon="3.9776">
        <ele>116.8</ele>
        <time>2024-04-06T12:26:51.032Z</time>
      </trkpt>
      <trkpt lat="43.90347" lon="3.9776">
        <ele>116.2</ele>
        <time>2024-04-06T12:26:51.592Z</time>
      </trkpt>
      <trkpt lat="43.9035" lon="3.9776">
        <ele>115.4</ele>
        <time>2024-04-06T12:26:52.432Z</time>
      </trkpt>
      <trkpt lat="43.90352" lon="3.97761">
        <ele>114.8</ele>
        <time>2024-04-06T12:26:53.027Z</time>
      </trkpt>
      <trkpt lat="43.90354" lon="3.97762">
        <ele>114.3</ele>
        <time>2024-04-06T12:26:53.622Z</time>
      </trkpt>
      <trkpt lat="43.90357" lon="3.97763">
        <ele>113.5</ele>
        <time>2024-04-06T12:26:54.486Z</time>
      </trkpt>
      <trkpt lat="43.90359" lon="3.97761">
        <ele>112.8</ele>
        <time>2024-04-06T12:26:55.176Z</time>
      </trkpt>
      <trkpt lat="43.9036" lon="3.97757">
        <ele>112.1</ele>
        <time>2024-04-06T12:26:56.030Z</time>
      </trkpt>
      <trkpt lat="43.9036" lon="3.97754">
        <ele>111.8</ele>
        <time>2024-04-06T12:26:56.635Z</time>
      </trkpt>
      <trkpt lat="43.90361" lon="3.97749">
        <ele>111.1</ele>
        <time>2024-04-06T12:26:57.682Z</time>
      </trkpt>
      <trkpt lat="43.90362" lon="3.97746">
        <ele>111.1</ele>
        <time>2024-04-06T12:26:58.444Z</time>
      </trkpt>
      <trkpt lat="43.90364" lon="3.97746">
        <ele>111.1</ele>
        <time>2024-04-06T12:26:59.084Z</time>
      </trkpt>
      <trkpt lat="43.90366" lon="3.9775">
        <ele>110.8</ele>
        <time>2024-04-06T12:27:00.066Z</time>
      </trkpt>
      <trkpt lat="43.90371" lon="3.97753">
        <ele>111</ele>
        <time>2024-04-06T12:27:02.023Z</time>
      </trkpt>
      <trkpt lat="43.90378" lon="3.97752">
        <ele>110.6</ele>
        <time>2024-04-06T12:27:03.993Z</time>
      </trkpt>
      <trkpt lat="43.90385" lon="3.97751">
        <ele>110.2</ele>
        <time>2024-04-06T12:27:05.963Z</time>
      </trkpt>
      <trkpt lat="43.90392" lon="3.97749">
        <ele>110.2</ele>
        <time>2024-04-06T12:27:08.250Z</time>
      </trkpt>
      <trkpt lat="43.90399" lon="3.97746">
        <ele>110.6</ele>
        <time>2024-04-06T12:27:11.040Z</time>
      </trkpt>
      <trkpt lat="43.90406" lon="3.97744">
        <ele>110.7</ele>
        <time>2024-04-06T12:27:13.428Z</time>
      </trkpt>
      <trkpt lat="43.90413" lon="3.97741">
        <ele>110.7</ele>
        <time>2024-04-06T12:27:15.772Z</time>
      </trkpt>
      <trkpt lat="43.90418" lon="3.97738">
        <ele>110.6</ele>
        <time>2024-04-06T12:27:17.333Z</time>
      </trkpt>
      <trkpt lat="43.90423" lon="3.97734">
        <ele>110.3</ele>
        <time>2024-04-06T12:27:18.996Z</time>
      </trkpt>
      <trkpt lat="43.90428" lon="3.97729">
        <ele>109.7</ele>
        <time>2024-04-06T12:27:20.722Z</time>
      </trkpt>
      <trkpt lat="43.90431" lon="3.97727">
        <ele>109.4</ele>
        <time>2024-04-06T12:27:21.653Z</time>
      </trkpt>
      <trkpt lat="43.90434" lon="3.97726">
        <ele>109.1</ele>
        <time>2024-04-06T12:27:22.517Z</time>
      </trkpt>
      <trkpt lat="43.90438" lon="3.97726">
        <ele>108.9</ele>
        <time>2024-04-06T12:27:23.637Z</time>
      </trkpt>
      <trkpt lat="43.90442" lon="3.97725">
        <ele>108.5</ele>
        <time>2024-04-06T12:27:24.775Z</time>
      </trkpt>
      <trkpt lat="43.90446" lon="3.97724">
        <ele>108.2</ele>
        <time>2024-04-06T12:27:25.913Z</time>
      </trkpt>
      <trkpt lat="43.9045" lon="3.97723">
        <ele>107.9</ele>
        <time>2024-04-06T12:27:27.051Z</time>
      </trkpt>
      <trkpt lat="43.90453" lon="3.97723">
        <ele>107.8</ele>
        <time>2024-04-06T12:27:27.919Z</time>
      </trkpt>
      <trkpt lat="43.90456" lon="3.97723">
        <ele>107.7</ele>
        <time>2024-04-06T12:27:28.787Z</time>
      </trkpt>
      <trkpt lat="43.90462" lon="3.97724">
        <ele>107.6</ele>
        <time>2024-04-06T12:27:30.626Z</time>
      </trkpt>
      <trkpt lat="43.90466" lon="3.97724">
        <ele>107.5</ele>
        <time>2024-04-06T12:27:31.812Z</time>
      </trkpt>
      <trkpt lat="43.9047" lon="3.97724">
        <ele>107.3</ele>
        <time>2024-04-06T12:27:32.932Z</time>
      </trkpt>
      <trkpt lat="43.90473" lon="3.97725">
        <ele>107.4</ele>
        <time>2024-04-06T12:27:34.025Z</time>
      </trkpt>
      <trkpt lat="43.90473" lon="3.97721">
        <ele>107.1</ele>
        <time>2024-04-06T12:27:34.832Z</time>
      </trkpt>
      <trkpt lat="43.90478" lon="3.97718">
        <ele>107.2</ele>
        <time>2024-04-06T12:27:36.678Z</time>
      </trkpt>
      <trkpt lat="43.90483" lon="3.97715">
        <ele>107.3</ele>
        <time>2024-04-06T12:27:38.523Z</time>
      </trkpt>
      <trkpt lat="43.90486" lon="3.97715">
        <ele>107.3</ele>
        <time>2024-04-06T12:27:39.483Z</time>
      </trkpt>
      <trkpt lat="43.90488" lon="3.97714">
        <ele>107.3</ele>
        <time>2024-04-06T12:27:40.163Z</time>
      </trkpt>
      <trkpt lat="43.90491" lon="3.97713">
        <ele>107.2</ele>
        <time>2024-04-06T12:27:41.058Z</time>
      </trkpt>
      <trkpt lat="43.90493" lon="3.97713">
        <ele>107.2</ele>
        <time>2024-04-06T12:27:41.698Z</time>
      </trkpt>
      <trkpt lat="43.90497" lon="3.97713">
        <ele>107.1</ele>
        <time>2024-04-06T12:27:42.885Z</time>
      </trkpt>
      <trkpt lat="43.90498" lon="3.97712">
        <ele>107.1</ele>
        <time>2024-04-06T12:27:43.279Z</time>
      </trkpt>
      <trkpt lat="43.905" lon="3.97712">
        <ele>107</ele>
        <time>2024-04-06T12:27:43.839Z</time>
      </trkpt>
      <trkpt lat="43.90502" lon="3.97716">
        <ele>107</ele>
        <time>2024-04-06T12:27:44.962Z</time>
      </trkpt>
      <trkpt lat="43.90503" lon="3.97719">
        <ele>107</ele>
        <time>2024-04-06T12:27:45.724Z</time>
      </trkpt>
      <trkpt lat="43.90505" lon="3.97721">
        <ele>107</ele>
        <time>2024-04-06T12:27:46.512Z</time>
      </trkpt>
      <trkpt lat="43.90508" lon="3.97722">
        <ele>107</ele>
        <time>2024-04-06T12:27:47.500Z</time>
      </trkpt>
      <trkpt lat="43.90511" lon="3.97723">
        <ele>107.1</ele>
        <time>2024-04-06T12:27:48.593Z</time>
      </trkpt>
      <trkpt lat="43.90514" lon="3.97725">
        <ele>107.2</ele>
        <time>2024-04-06T12:27:49.763Z</time>
      </trkpt>
      <trkpt lat="43.90518" lon="3.97726">
        <ele>107.2</ele>
        <time>2024-04-06T12:27:51.063Z</time>
      </trkpt>
      <trkpt lat="43.90521" lon="3.97727">
        <ele>107.3</ele>
        <time>2024-04-06T12:27:52.156Z</time>
      </trkpt>
      <trkpt lat="43.90525" lon="3.97728">
        <ele>107.2</ele>
        <time>2024-04-06T12:27:53.363Z</time>
      </trkpt>
      <trkpt lat="43.90529" lon="3.97729">
        <ele>107.3</ele>
        <time>2024-04-06T12:27:54.768Z</time>
      </trkpt>
      <trkpt lat="43.90533" lon="3.97731">
        <ele>107.5</ele>
        <time>2024-04-06T12:27:56.347Z</time>
      </trkpt>
      <trkpt lat="43.90537" lon="3.97732">
        <ele>107.5</ele>
        <time>2024-04-06T12:27:57.647Z</time>
      </trkpt>
      <trkpt lat="43.90541" lon="3.97732">
        <ele>107.6</ele>
        <time>2024-04-06T12:27:59.031Z</time>
      </trkpt>
      <trkpt lat="43.90546" lon="3.97733">
        <ele>107.7</ele>
        <time>2024-04-06T12:28:00.751Z</time>
      </trkpt>
      <trkpt lat="43.9055" lon="3.97733">
        <ele>107.7</ele>
        <time>2024-04-06T12:28:02.031Z</time>
      </trkpt>
      <trkpt lat="43.90554" lon="3.97734">
        <ele>107.7</ele>
        <time>2024-04-06T12:28:03.331Z</time>
      </trkpt>
      <trkpt lat="43.90558" lon="3.97733">
        <ele>108</ele>
        <time>2024-04-06T12:28:04.981Z</time>
      </trkpt>
      <trkpt lat="43.90562" lon="3.97733">
        <ele>108.2</ele>
        <time>2024-04-06T12:28:06.481Z</time>
      </trkpt>
      <trkpt lat="43.90565" lon="3.97734">
        <ele>108.3</ele>
        <time>2024-04-06T12:28:07.574Z</time>
      </trkpt>
      <trkpt lat="43.90569" lon="3.97734">
        <ele>108.5</ele>
        <time>2024-04-06T12:28:09.074Z</time>
      </trkpt>
      <trkpt lat="43.90573" lon="3.97733">
        <ele>108.8</ele>
        <time>2024-04-06T12:28:10.724Z</time>
      </trkpt>
      <trkpt lat="43.90576" lon="3.97732">
        <ele>109</ele>
        <time>2024-04-06T12:28:11.940Z</time>
      </trkpt>
      <trkpt lat="43.9058" lon="3.97731">
        <ele>109.2</ele>
        <time>2024-04-06T12:28:13.460Z</time>
      </trkpt>
      <trkpt lat="43.90583" lon="3.9773">
        <ele>109.3</ele>
        <time>2024-04-06T12:28:14.553Z</time>
      </trkpt>
      <trkpt lat="43.90586" lon="3.9773">
        <ele>109.1</ele>
        <time>2024-04-06T12:28:15.393Z</time>
      </trkpt>
      <trkpt lat="43.90589" lon="3.97731">
        <ele>108.8</ele>
        <time>2024-04-06T12:28:16.257Z</time>
      </trkpt>
      <trkpt lat="43.90592" lon="3.97732">
        <ele>108.6</ele>
        <time>2024-04-06T12:28:17.121Z</time>
      </trkpt>
      <trkpt lat="43.90595" lon="3.97733">
        <ele>108.4</ele>
        <time>2024-04-06T12:28:17.984Z</time>
      </trkpt>
      <trkpt lat="43.90598" lon="3.97734">
        <ele>108.1</ele>
        <time>2024-04-06T12:28:18.848Z</time>
      </trkpt>
      <trkpt lat="43.90601" lon="3.97735">
        <ele>107.9</ele>
        <time>2024-04-06T12:28:19.712Z</time>
      </trkpt>
      <trkpt lat="43.90605" lon="3.97736">
        <ele>107.5</ele>
        <time>2024-04-06T12:28:20.850Z</time>
      </trkpt>
      <trkpt lat="43.90609" lon="3.97736">
        <ele>107.2</ele>
        <time>2024-04-06T12:28:21.970Z</time>
      </trkpt>
      <trkpt lat="43.90614" lon="3.97735">
        <ele>106.8</ele>
        <time>2024-04-06T12:28:23.384Z</time>
      </trkpt>
      <trkpt lat="43.90619" lon="3.97732">
        <ele>106.5</ele>
        <time>2024-04-06T12:28:24.909Z</time>
      </trkpt>
      <trkpt lat="43.90624" lon="3.97728">
        <ele>106.3</ele>
        <time>2024-04-06T12:28:26.573Z</time>
      </trkpt>
      <trkpt lat="43.90628" lon="3.97726">
        <ele>106.2</ele>
        <time>2024-04-06T12:28:27.839Z</time>
      </trkpt>
      <trkpt lat="43.9063" lon="3.97723">
        <ele>106.3</ele>
        <time>2024-04-06T12:28:28.888Z</time>
      </trkpt>
      <trkpt lat="43.90631" lon="3.97718">
        <ele>106.6</ele>
        <time>2024-04-06T12:28:30.439Z</time>
      </trkpt>
      <trkpt lat="43.9063" lon="3.97714">
        <ele>106.9</ele>
        <time>2024-04-06T12:28:31.786Z</time>
      </trkpt>
      <trkpt lat="43.90627" lon="3.97711">
        <ele>107.2</ele>
        <time>2024-04-06T12:28:33.325Z</time>
      </trkpt>
      <trkpt lat="43.90625" lon="3.9771">
        <ele>107.4</ele>
        <time>2024-04-06T12:28:34.250Z</time>
      </trkpt>
      <trkpt lat="43.90624" lon="3.97709">
        <ele>107.5</ele>
        <time>2024-04-06T12:28:34.763Z</time>
      </trkpt>
      <trkpt lat="43.90622" lon="3.97708">
        <ele>107.6</ele>
        <time>2024-04-06T12:28:35.552Z</time>
      </trkpt>
      <trkpt lat="43.9062" lon="3.97707">
        <ele>107.8</ele>
        <time>2024-04-06T12:28:36.477Z</time>
      </trkpt>
      <trkpt lat="43.90618" lon="3.97705">
        <ele>108</ele>
        <time>2024-04-06T12:28:37.503Z</time>
      </trkpt>
      <trkpt lat="43.90617" lon="3.97703">
        <ele>108.2</ele>
        <time>2024-04-06T12:28:38.322Z</time>
      </trkpt>
      <trkpt lat="43.90615" lon="3.97699">
        <ele>108.5</ele>
        <time>2024-04-06T12:28:39.803Z</time>
      </trkpt>
      <trkpt lat="43.90613" lon="3.97696">
        <ele>108.8</ele>
        <time>2024-04-06T12:28:41.120Z</time>
      </trkpt>
      <trkpt lat="43.90614" lon="3.97693">
        <ele>109</ele>
        <time>2024-04-06T12:28:42.121Z</time>
      </trkpt>
      <trkpt lat="43.90615" lon="3.97692">
        <ele>109</ele>
        <time>2024-04-06T12:28:42.515Z</time>
      </trkpt>
      <trkpt lat="43.90611" lon="3.97683">
        <ele>109.8</ele>
        <time>2024-04-06T12:28:45.959Z</time>
      </trkpt>
      <trkpt lat="43.90609" lon="3.97678">
        <ele>110.3</ele>
        <time>2024-04-06T12:28:47.932Z</time>
      </trkpt>
      <trkpt lat="43.90608" lon="3.97676">
        <ele>110.4</ele>
        <time>2024-04-06T12:28:48.605Z</time>
      </trkpt>
      <trkpt lat="43.90608" lon="3.97673">
        <ele>110.7</ele>
        <time>2024-04-06T12:28:49.708Z</time>
      </trkpt>
      <trkpt lat="43.90607" lon="3.9767">
        <ele>110.9</ele>
        <time>2024-04-06T12:28:50.709Z</time>
      </trkpt>
      <trkpt lat="43.90606" lon="3.97667">
        <ele>111.2</ele>
        <time>2024-04-06T12:28:51.868Z</time>
      </trkpt>
      <trkpt lat="43.90605" lon="3.97664">
        <ele>111.3</ele>
        <time>2024-04-06T12:28:52.739Z</time>
      </trkpt>
      <trkpt lat="43.90604" lon="3.97662">
        <ele>111.4</ele>
        <time>2024-04-06T12:28:53.412Z</time>
      </trkpt>
      <trkpt lat="43.90603" lon="3.97659">
        <ele>111.6</ele>
        <time>2024-04-06T12:28:54.413Z</time>
      </trkpt>
      <trkpt lat="43.90602" lon="3.97656">
        <ele>111.7</ele>
        <time>2024-04-06T12:28:55.283Z</time>
      </trkpt>
      <trkpt lat="43.90602" lon="3.97653">
        <ele>111.8</ele>
        <time>2024-04-06T12:28:56.083Z</time>
      </trkpt>
      <trkpt lat="43.90601" lon="3.9765">
        <ele>112</ele>
        <time>2024-04-06T12:28:57.084Z</time>
      </trkpt>
      <trkpt lat="43.90601" lon="3.97647">
        <ele>112.1</ele>
        <time>2024-04-06T12:28:57.885Z</time>
      </trkpt>
      <trkpt lat="43.906" lon="3.97644">
        <ele>112.2</ele>
        <time>2024-04-06T12:28:58.755Z</time>
      </trkpt>
      <trkpt lat="43.906" lon="3.9764">
        <ele>112.4</ele>
        <time>2024-04-06T12:28:59.908Z</time>
      </trkpt>
      <trkpt lat="43.906" lon="3.97636">
        <ele>112.5</ele>
        <time>2024-04-06T12:29:00.936Z</time>
      </trkpt>
      <trkpt lat="43.906" lon="3.97633">
        <ele>112.5</ele>
        <time>2024-04-06T12:29:01.628Z</time>
      </trkpt>
      <trkpt lat="43.906" lon="3.97629">
        <ele>112.6</ele>
        <time>2024-04-06T12:29:02.657Z</time>
      </trkpt>
      <trkpt lat="43.90599" lon="3.97626">
        <ele>112.7</ele>
        <time>2024-04-06T12:29:03.527Z</time>
      </trkpt>
      <trkpt lat="43.90598" lon="3.97623">
        <ele>112.8</ele>
        <time>2024-04-06T12:29:04.397Z</time>
      </trkpt>
      <trkpt lat="43.90598" lon="3.97619">
        <ele>112.9</ele>
        <time>2024-04-06T12:29:05.425Z</time>
      </trkpt>
      <trkpt lat="43.90597" lon="3.97616">
        <ele>112.9</ele>
        <time>2024-04-06T12:29:06.187Z</time>
      </trkpt>
      <trkpt lat="43.90597" lon="3.97614">
        <ele>112.9</ele>
        <time>2024-04-06T12:29:06.648Z</time>
      </trkpt>
      <trkpt lat="43.90597" lon="3.97611">
        <ele>113</ele>
        <time>2024-04-06T12:29:07.449Z</time>
      </trkpt>
      <trkpt lat="43.90596" lon="3.97608">
        <ele>113</ele>
        <time>2024-04-06T12:29:08.211Z</time>
      </trkpt>
      <trkpt lat="43.90596" lon="3.97604">
        <ele>113</ele>
        <time>2024-04-06T12:29:09.133Z</time>
      </trkpt>
      <trkpt lat="43.90596" lon="3.97601">
        <ele>113</ele>
        <time>2024-04-06T12:29:09.825Z</time>
      </trkpt>
      <trkpt lat="43.90596" lon="3.97598">
        <ele>113</ele>
        <time>2024-04-06T12:29:10.517Z</time>
      </trkpt>
      <trkpt lat="43.90596" lon="3.97595">
        <ele>113.1</ele>
        <time>2024-04-06T12:29:11.317Z</time>
      </trkpt>
      <trkpt lat="43.90596" lon="3.97592">
        <ele>113.1</ele>
        <time>2024-04-06T12:29:12.009Z</time>
      </trkpt>
      <trkpt lat="43.90595" lon="3.97589">
        <ele>113.1</ele>
        <time>2024-04-06T12:29:12.771Z</time>
      </trkpt>
      <trkpt lat="43.90595" lon="3.97587">
        <ele>113.1</ele>
        <time>2024-04-06T12:29:13.232Z</time>
      </trkpt>
      <trkpt lat="43.90595" lon="3.97584">
        <ele>113.2</ele>
        <time>2024-04-06T12:29:14.033Z</time>
      </trkpt>
      <trkpt lat="43.90594" lon="3.97582">
        <ele>113.3</ele>
        <time>2024-04-06T12:29:14.706Z</time>
      </trkpt>
      <trkpt lat="43.90594" lon="3.97579">
        <ele>113.4</ele>
        <time>2024-04-06T12:29:15.507Z</time>
      </trkpt>
      <trkpt lat="43.90593" lon="3.97577">
        <ele>113.5</ele>
        <time>2024-04-06T12:29:16.180Z</time>
      </trkpt>
      <trkpt lat="43.90592" lon="3.97574">
        <ele>113.7</ele>
        <time>2024-04-06T12:29:17.181Z</time>
      </trkpt>
      <trkpt lat="43.90592" lon="3.97571">
        <ele>113.8</ele>
        <time>2024-04-06T12:29:17.982Z</time>
      </trkpt>
      <trkpt lat="43.90591" lon="3.97569">
        <ele>114</ele>
        <time>2024-04-06T12:29:18.800Z</time>
      </trkpt>
      <trkpt lat="43.90591" lon="3.97566">
        <ele>114.1</ele>
        <time>2024-04-06T12:29:19.601Z</time>
      </trkpt>
      <trkpt lat="43.90591" lon="3.97564">
        <ele>114.1</ele>
        <time>2024-04-06T12:29:20.062Z</time>
      </trkpt>
      <trkpt lat="43.9059" lon="3.97559">
        <ele>114.4</ele>
        <time>2024-04-06T12:29:21.613Z</time>
      </trkpt>
      <trkpt lat="43.90589" lon="3.97554">
        <ele>114.7</ele>
        <time>2024-04-06T12:29:23.164Z</time>
      </trkpt>
      <trkpt lat="43.90589" lon="3.97551">
        <ele>114.8</ele>
        <time>2024-04-06T12:29:23.965Z</time>
      </trkpt>
      <trkpt lat="43.90589" lon="3.97548">
        <ele>114.9</ele>
        <time>2024-04-06T12:29:24.766Z</time>
      </trkpt>
      <trkpt lat="43.9059" lon="3.97545">
        <ele>115</ele>
        <time>2024-04-06T12:29:25.636Z</time>
      </trkpt>
      <trkpt lat="43.9059" lon="3.97542">
        <ele>115.1</ele>
        <time>2024-04-06T12:29:26.437Z</time>
      </trkpt>
      <trkpt lat="43.90591" lon="3.9754">
        <ele>115.2</ele>
        <time>2024-04-06T12:29:27.110Z</time>
      </trkpt>
      <trkpt lat="43.90591" lon="3.97537">
        <ele>115.3</ele>
        <time>2024-04-06T12:29:27.911Z</time>
      </trkpt>
      <trkpt lat="43.90591" lon="3.97534">
        <ele>115.4</ele>
        <time>2024-04-06T12:29:28.712Z</time>
      </trkpt>
      <trkpt lat="43.90592" lon="3.97531">
        <ele>115.5</ele>
        <time>2024-04-06T12:29:29.582Z</time>
      </trkpt>
      <trkpt lat="43.90593" lon="3.97528">
        <ele>115.6</ele>
        <time>2024-04-06T12:29:30.452Z</time>
      </trkpt>
      <trkpt lat="43.90593" lon="3.97525">
        <ele>115.7</ele>
        <time>2024-04-06T12:29:31.253Z</time>
      </trkpt>
      <trkpt lat="43.90593" lon="3.97522">
        <ele>115.7</ele>
        <time>2024-04-06T12:29:31.944Z</time>
      </trkpt>
      <trkpt lat="43.90593" lon="3.97519">
        <ele>115.7</ele>
        <time>2024-04-06T12:29:32.636Z</time>
      </trkpt>
      <trkpt lat="43.90592" lon="3.97516">
        <ele>115.7</ele>
        <time>2024-04-06T12:29:33.398Z</time>
      </trkpt>
      <trkpt lat="43.90591" lon="3.97513">
        <ele>115.7</ele>
        <time>2024-04-06T12:29:34.160Z</time>
      </trkpt>
      <trkpt lat="43.90591" lon="3.97509">
        <ele>115.7</ele>
        <time>2024-04-06T12:29:35.082Z</time>
      </trkpt>
      <trkpt lat="43.9059" lon="3.97507">
        <ele>115.8</ele>
        <time>2024-04-06T12:29:35.755Z</time>
      </trkpt>
      <trkpt lat="43.90589" lon="3.97504">
        <ele>115.8</ele>
        <time>2024-04-06T12:29:36.517Z</time>
      </trkpt>
      <trkpt lat="43.90589" lon="3.97501">
        <ele>115.8</ele>
        <time>2024-04-06T12:29:37.209Z</time>
      </trkpt>
      <trkpt lat="43.90588" lon="3.97499">
        <ele>115.9</ele>
        <time>2024-04-06T12:29:37.882Z</time>
      </trkpt>
      <trkpt lat="43.90588" lon="3.97496">
        <ele>115.9</ele>
        <time>2024-04-06T12:29:38.574Z</time>
      </trkpt>
      <trkpt lat="43.90588" lon="3.97493">
        <ele>116</ele>
        <time>2024-04-06T12:29:39.375Z</time>
      </trkpt>
      <trkpt lat="43.90587" lon="3.9749">
        <ele>116.1</ele>
        <time>2024-04-06T12:29:40.245Z</time>
      </trkpt>
      <trkpt lat="43.90587" lon="3.97487">
        <ele>116.2</ele>
        <time>2024-04-06T12:29:41.046Z</time>
      </trkpt>
      <trkpt lat="43.90587" lon="3.97484">
        <ele>116.3</ele>
        <time>2024-04-06T12:29:41.846Z</time>
      </trkpt>
      <trkpt lat="43.90587" lon="3.97481">
        <ele>116.4</ele>
        <time>2024-04-06T12:29:42.647Z</time>
      </trkpt>
      <trkpt lat="43.90587" lon="3.97478">
        <ele>116.5</ele>
        <time>2024-04-06T12:29:43.448Z</time>
      </trkpt>
      <trkpt lat="43.90588" lon="3.97475">
        <ele>116.4</ele>
        <time>2024-04-06T12:29:44.120Z</time>
      </trkpt>
      <trkpt lat="43.90588" lon="3.97472">
        <ele>116.5</ele>
        <time>2024-04-06T12:29:44.921Z</time>
      </trkpt>
      <trkpt lat="43.90588" lon="3.97468">
        <ele>116.6</ele>
        <time>2024-04-06T12:29:45.949Z</time>
      </trkpt>
      <trkpt lat="43.90587" lon="3.97466">
        <ele>116.7</ele>
        <time>2024-04-06T12:29:46.622Z</time>
      </trkpt>
      <trkpt lat="43.90587" lon="3.97463">
        <ele>116.8</ele>
        <time>2024-04-06T12:29:47.423Z</time>
      </trkpt>
      <trkpt lat="43.90587" lon="3.9746">
        <ele>116.9</ele>
        <time>2024-04-06T12:29:48.224Z</time>
      </trkpt>
      <trkpt lat="43.90587" lon="3.97457">
        <ele>116.9</ele>
        <time>2024-04-06T12:29:48.916Z</time>
      </trkpt>
      <trkpt lat="43.90586" lon="3.97454">
        <ele>117.2</ele>
        <time>2024-04-06T12:29:50.075Z</time>
      </trkpt>
      <trkpt lat="43.90586" lon="3.97452">
        <ele>117.2</ele>
        <time>2024-04-06T12:29:50.536Z</time>
      </trkpt>
      <trkpt lat="43.90586" lon="3.97446">
        <ele>117.4</ele>
        <time>2024-04-06T12:29:52.138Z</time>
      </trkpt>
      <trkpt lat="43.90586" lon="3.97444">
        <ele>117.4</ele>
        <time>2024-04-06T12:29:52.599Z</time>
      </trkpt>
      <trkpt lat="43.90586" lon="3.97441">
        <ele>117.6</ele>
        <time>2024-04-06T12:29:53.534Z</time>
      </trkpt>
      <trkpt lat="43.90586" lon="3.97438">
        <ele>117.7</ele>
        <time>2024-04-06T12:29:54.335Z</time>
      </trkpt>
      <trkpt lat="43.90586" lon="3.97434">
        <ele>117.8</ele>
        <time>2024-04-06T12:29:55.364Z</time>
      </trkpt>
      <trkpt lat="43.90586" lon="3.97431">
        <ele>118</ele>
        <time>2024-04-06T12:29:56.299Z</time>
      </trkpt>
      <trkpt lat="43.90586" lon="3.97428">
        <ele>118.1</ele>
        <time>2024-04-06T12:29:57.100Z</time>
      </trkpt>
      <trkpt lat="43.90585" lon="3.97426">
        <ele>118.3</ele>
        <time>2024-04-06T12:29:57.918Z</time>
      </trkpt>
      <trkpt lat="43.90585" lon="3.97423">
        <ele>118.5</ele>
        <time>2024-04-06T12:29:58.854Z</time>
      </trkpt>
      <trkpt lat="43.90585" lon="3.9742">
        <ele>118.6</ele>
        <time>2024-04-06T12:29:59.655Z</time>
      </trkpt>
      <trkpt lat="43.90585" lon="3.97417">
        <ele>118.7</ele>
        <time>2024-04-06T12:30:00.455Z</time>
      </trkpt>
      <trkpt lat="43.90585" lon="3.97415">
        <ele>118.7</ele>
        <time>2024-04-06T12:30:00.916Z</time>
      </trkpt>
      <trkpt lat="43.90585" lon="3.97412">
        <ele>118.7</ele>
        <time>2024-04-06T12:30:01.608Z</time>
      </trkpt>
      <trkpt lat="43.90584" lon="3.97409">
        <ele>118.9</ele>
        <time>2024-04-06T12:30:02.609Z</time>
      </trkpt>
      <trkpt lat="43.90584" lon="3.97406">
        <ele>118.9</ele>
        <time>2024-04-06T12:30:03.300Z</time>
      </trkpt>
      <trkpt lat="43.90581" lon="3.97402">
        <ele>119.2</ele>
        <time>2024-04-06T12:30:04.980Z</time>
      </trkpt>
      <trkpt lat="43.9058" lon="3.97401">
        <ele>119.3</ele>
        <time>2024-04-06T12:30:05.493Z</time>
      </trkpt>
      <trkpt lat="43.90578" lon="3.97399">
        <ele>119.5</ele>
        <time>2024-04-06T12:30:06.518Z</time>
      </trkpt>
      <trkpt lat="43.90577" lon="3.97398">
        <ele>119.6</ele>
        <time>2024-04-06T12:30:07.031Z</time>
      </trkpt>
      <trkpt lat="43.90575" lon="3.97397">
        <ele>119.8</ele>
        <time>2024-04-06T12:30:07.956Z</time>
      </trkpt>
      <trkpt lat="43.90573" lon="3.97396">
        <ele>120</ele>
        <time>2024-04-06T12:30:08.881Z</time>
      </trkpt>
      <trkpt lat="43.90572" lon="3.97394">
        <ele>120.1</ele>
        <time>2024-04-06T12:30:09.554Z</time>
      </trkpt>
      <trkpt lat="43.9057" lon="3.97392">
        <ele>120.4</ele>
        <time>2024-04-06T12:30:10.736Z</time>
      </trkpt>
      <trkpt lat="43.90568" lon="3.9739">
        <ele>120.6</ele>
        <time>2024-04-06T12:30:11.762Z</time>
      </trkpt>
      <trkpt lat="43.90567" lon="3.97388">
        <ele>120.8</ele>
        <time>2024-04-06T12:30:12.581Z</time>
      </trkpt>
      <trkpt lat="43.90565" lon="3.97387">
        <ele>121</ele>
        <time>2024-04-06T12:30:13.506Z</time>
      </trkpt>
      <trkpt lat="43.90561" lon="3.97386">
        <ele>121.4</ele>
        <time>2024-04-06T12:30:15.301Z</time>
      </trkpt>
      <trkpt lat="43.90559" lon="3.97386">
        <ele>121.6</ele>
        <time>2024-04-06T12:30:16.189Z</time>
      </trkpt>
      <trkpt lat="43.90558" lon="3.97386">
        <ele>121.7</ele>
        <time>2024-04-06T12:30:16.633Z</time>
      </trkpt>
      <trkpt lat="43.90556" lon="3.97386">
        <ele>122</ele>
        <time>2024-04-06T12:30:17.696Z</time>
      </trkpt>
      <trkpt lat="43.90554" lon="3.97386">
        <ele>122.1</ele>
        <time>2024-04-06T12:30:18.447Z</time>
      </trkpt>
      <trkpt lat="43.90552" lon="3.97385">
        <ele>122.3</ele>
        <time>2024-04-06T12:30:19.372Z</time>
      </trkpt>
      <trkpt lat="43.90549" lon="3.97385">
        <ele>122.5</ele>
        <time>2024-04-06T12:30:20.560Z</time>
      </trkpt>
      <trkpt lat="43.90546" lon="3.97385">
        <ele>122.7</ele>
        <time>2024-04-06T12:30:21.749Z</time>
      </trkpt>
      <trkpt lat="43.90543" lon="3.97384">
        <ele>123</ele>
        <time>2024-04-06T12:30:23.107Z</time>
      </trkpt>
      <trkpt lat="43.90541" lon="3.97384">
        <ele>123.1</ele>
        <time>2024-04-06T12:30:23.857Z</time>
      </trkpt>
      <trkpt lat="43.90538" lon="3.97382">
        <ele>123.4</ele>
        <time>2024-04-06T12:30:25.285Z</time>
      </trkpt>
      <trkpt lat="43.90536" lon="3.97381">
        <ele>123.6</ele>
        <time>2024-04-06T12:30:26.210Z</time>
      </trkpt>
      <trkpt lat="43.90534" lon="3.97376">
        <ele>123.9</ele>
        <time>2024-04-06T12:30:27.877Z</time>
      </trkpt>
      <trkpt lat="43.90534" lon="3.97374">
        <ele>124</ele>
        <time>2024-04-06T12:30:28.454Z</time>
      </trkpt>
      <trkpt lat="43.90534" lon="3.97371">
        <ele>124.1</ele>
        <time>2024-04-06T12:30:29.254Z</time>
      </trkpt>
      <trkpt lat="43.90534" lon="3.97368">
        <ele>124.1</ele>
        <time>2024-04-06T12:30:29.946Z</time>
      </trkpt>
      <trkpt lat="43.90534" lon="3.97366">
        <ele>124.2</ele>
        <time>2024-04-06T12:30:30.522Z</time>
      </trkpt>
      <trkpt lat="43.90535" lon="3.97362">
        <ele>124.2</ele>
        <time>2024-04-06T12:30:31.498Z</time>
      </trkpt>
      <trkpt lat="43.90534" lon="3.97357">
        <ele>124.4</ele>
        <time>2024-04-06T12:30:32.917Z</time>
      </trkpt>
      <trkpt lat="43.90534" lon="3.97354">
        <ele>124.5</ele>
        <time>2024-04-06T12:30:33.718Z</time>
      </trkpt>
      <trkpt lat="43.90534" lon="3.97351">
        <ele>124.6</ele>
        <time>2024-04-06T12:30:34.518Z</time>
      </trkpt>
      <trkpt lat="43.90534" lon="3.97349">
        <ele>124.7</ele>
        <time>2024-04-06T12:30:35.095Z</time>
      </trkpt>
      <trkpt lat="43.90534" lon="3.97346">
        <ele>124.8</ele>
        <time>2024-04-06T12:30:35.895Z</time>
      </trkpt>
      <trkpt lat="43.90534" lon="3.97341">
        <ele>124.9</ele>
        <time>2024-04-06T12:30:37.153Z</time>
      </trkpt>
      <trkpt lat="43.90534" lon="3.97336">
        <ele>125</ele>
        <time>2024-04-06T12:30:38.410Z</time>
      </trkpt>
      <trkpt lat="43.90534" lon="3.97334">
        <ele>125.1</ele>
        <time>2024-04-06T12:30:38.987Z</time>
      </trkpt>
      <trkpt lat="43.90534" lon="3.97331">
        <ele>125.2</ele>
        <time>2024-04-06T12:30:39.787Z</time>
      </trkpt>
      <trkpt lat="43.90534" lon="3.97329">
        <ele>125.2</ele>
        <time>2024-04-06T12:30:40.249Z</time>
      </trkpt>
      <trkpt lat="43.90534" lon="3.97326">
        <ele>125.3</ele>
        <time>2024-04-06T12:30:41.049Z</time>
      </trkpt>
      <trkpt lat="43.90534" lon="3.97323">
        <ele>125.4</ele>
        <time>2024-04-06T12:30:41.850Z</time>
      </trkpt>
      <trkpt lat="43.90534" lon="3.97321">
        <ele>125.4</ele>
        <time>2024-04-06T12:30:42.311Z</time>
      </trkpt>
      <trkpt lat="43.90534" lon="3.97318">
        <ele>125.5</ele>
        <time>2024-04-06T12:30:43.112Z</time>
      </trkpt>
      <trkpt lat="43.90533" lon="3.97316">
        <ele>125.8</ele>
        <time>2024-04-06T12:30:44.121Z</time>
      </trkpt>
      <trkpt lat="43.90532" lon="3.97313">
        <ele>126</ele>
        <time>2024-04-06T12:30:45.122Z</time>
      </trkpt>
      <trkpt lat="43.90531" lon="3.97311">
        <ele>126.2</ele>
        <time>2024-04-06T12:30:45.940Z</time>
      </trkpt>
      <trkpt lat="43.9053" lon="3.97308">
        <ele>126.5</ele>
        <time>2024-04-06T12:30:47.100Z</time>
      </trkpt>
      <trkpt lat="43.90529" lon="3.97306">
        <ele>126.8</ele>
        <time>2024-04-06T12:30:48.109Z</time>
      </trkpt>
      <trkpt lat="43.90528" lon="3.97303">
        <ele>126.6</ele>
        <time>2024-04-06T12:30:48.776Z</time>
      </trkpt>
      <trkpt lat="43.90526" lon="3.97301">
        <ele>126.4</ele>
        <time>2024-04-06T12:30:49.466Z</time>
      </trkpt>
      <trkpt lat="43.90525" lon="3.97299">
        <ele>126.2</ele>
        <time>2024-04-06T12:30:49.957Z</time>
      </trkpt>
      <trkpt lat="43.90523" lon="3.97297">
        <ele>126</ele>
        <time>2024-04-06T12:30:50.647Z</time>
      </trkpt>
      <trkpt lat="43.90522" lon="3.97295">
        <ele>125.9</ele>
        <time>2024-04-06T12:30:51.138Z</time>
      </trkpt>
      <trkpt lat="43.90521" lon="3.97293">
        <ele>125.7</ele>
        <time>2024-04-06T12:30:51.629Z</time>
      </trkpt>
      <trkpt lat="43.9052" lon="3.97291">
        <ele>125.6</ele>
        <time>2024-04-06T12:30:52.120Z</time>
      </trkpt>
      <trkpt lat="43.90518" lon="3.97289">
        <ele>125.7</ele>
        <time>2024-04-06T12:30:53.017Z</time>
      </trkpt>
      <trkpt lat="43.90517" lon="3.97287">
        <ele>125.6</ele>
        <time>2024-04-06T12:30:53.508Z</time>
      </trkpt>
      <trkpt lat="43.90516" lon="3.97284">
        <ele>125.5</ele>
        <time>2024-04-06T12:30:54.180Z</time>
      </trkpt>
      <trkpt lat="43.90514" lon="3.97282">
        <ele>125.7</ele>
        <time>2024-04-06T12:30:55.206Z</time>
      </trkpt>
      <trkpt lat="43.90513" lon="3.9728">
        <ele>125.8</ele>
        <time>2024-04-06T12:30:55.879Z</time>
      </trkpt>
      <trkpt lat="43.90512" lon="3.97278">
        <ele>125.8</ele>
        <time>2024-04-06T12:30:56.440Z</time>
      </trkpt>
      <trkpt lat="43.9051" lon="3.97275">
        <ele>126.5</ele>
        <time>2024-04-06T12:30:58.642Z</time>
      </trkpt>
      <trkpt lat="43.90508" lon="3.97273">
        <ele>127.1</ele>
        <time>2024-04-06T12:31:00.528Z</time>
      </trkpt>
      <trkpt lat="43.90507" lon="3.97271">
        <ele>127.4</ele>
        <time>2024-04-06T12:31:01.537Z</time>
      </trkpt>
      <trkpt lat="43.90505" lon="3.97269">
        <ele>127.9</ele>
        <time>2024-04-06T12:31:03.140Z</time>
      </trkpt>
      <trkpt lat="43.90504" lon="3.97267">
        <ele>128.2</ele>
        <time>2024-04-06T12:31:04.149Z</time>
      </trkpt>
      <trkpt lat="43.90502" lon="3.97265">
        <ele>128.7</ele>
        <time>2024-04-06T12:31:05.752Z</time>
      </trkpt>
      <trkpt lat="43.90501" lon="3.97262">
        <ele>129</ele>
        <time>2024-04-06T12:31:06.912Z</time>
      </trkpt>
      <trkpt lat="43.90499" lon="3.9726">
        <ele>129.3</ele>
        <time>2024-04-06T12:31:08.094Z</time>
      </trkpt>
      <trkpt lat="43.90498" lon="3.97258">
        <ele>129.5</ele>
        <time>2024-04-06T12:31:08.913Z</time>
      </trkpt>
      <trkpt lat="43.90496" lon="3.97256">
        <ele>129.7</ele>
        <time>2024-04-06T12:31:09.939Z</time>
      </trkpt>
      <trkpt lat="43.90494" lon="3.97254">
        <ele>130</ele>
        <time>2024-04-06T12:31:11.121Z</time>
      </trkpt>
      <trkpt lat="43.90492" lon="3.97253">
        <ele>130.1</ele>
        <time>2024-04-06T12:31:11.910Z</time>
      </trkpt>
      <trkpt lat="43.90491" lon="3.97252">
        <ele>130.2</ele>
        <time>2024-04-06T12:31:12.423Z</time>
      </trkpt>
      <trkpt lat="43.90489" lon="3.97252">
        <ele>130.3</ele>
        <time>2024-04-06T12:31:13.173Z</time>
      </trkpt>
      <trkpt lat="43.90486" lon="3.97253">
        <ele>130.3</ele>
        <time>2024-04-06T12:31:14.160Z</time>
      </trkpt>
      <trkpt lat="43.90487" lon="3.97265">
        <ele>129.6</ele>
        <time>2024-04-06T12:31:16.597Z</time>
      </trkpt>
      <trkpt lat="43.90487" lon="3.9727">
        <ele>129.4</ele>
        <time>2024-04-06T12:31:17.606Z</time>
      </trkpt>
      <trkpt lat="43.90486" lon="3.97275">
        <ele>129.2</ele>
        <time>2024-04-06T12:31:18.653Z</time>
      </trkpt>
      <trkpt lat="43.90485" lon="3.97279">
        <ele>129</ele>
        <time>2024-04-06T12:31:19.507Z</time>
      </trkpt>
      <trkpt lat="43.90484" lon="3.97282">
        <ele>128.8</ele>
        <time>2024-04-06T12:31:20.173Z</time>
      </trkpt>
      <trkpt lat="43.90483" lon="3.97285">
        <ele>128.6</ele>
        <time>2024-04-06T12:31:20.840Z</time>
      </trkpt>
      <trkpt lat="43.90481" lon="3.97288">
        <ele>128.5</ele>
        <time>2024-04-06T12:31:21.691Z</time>
      </trkpt>
      <trkpt lat="43.90479" lon="3.9729">
        <ele>128.4</ele>
        <time>2024-04-06T12:31:22.389Z</time>
      </trkpt>
      <trkpt lat="43.90479" lon="3.97293">
        <ele>128.1</ele>
        <time>2024-04-06T12:31:22.994Z</time>
      </trkpt>
      <trkpt lat="43.90478" lon="3.97295">
        <ele>128</ele>
        <time>2024-04-06T12:31:23.485Z</time>
      </trkpt>
      <trkpt lat="43.90478" lon="3.97298">
        <ele>127.7</ele>
        <time>2024-04-06T12:31:24.091Z</time>
      </trkpt>
      <trkpt lat="43.90478" lon="3.97301">
        <ele>127.4</ele>
        <time>2024-04-06T12:31:24.696Z</time>
      </trkpt>
      <trkpt lat="43.90476" lon="3.97304">
        <ele>127.2</ele>
        <time>2024-04-06T12:31:25.520Z</time>
      </trkpt>
      <trkpt lat="43.90475" lon="3.97306">
        <ele>127</ele>
        <time>2024-04-06T12:31:26.011Z</time>
      </trkpt>
      <trkpt lat="43.90474" lon="3.97309">
        <ele>126.6</ele>
        <time>2024-04-06T12:31:26.678Z</time>
      </trkpt>
      <trkpt lat="43.90473" lon="3.97313">
        <ele>126.2</ele>
        <time>2024-04-06T12:31:27.532Z</time>
      </trkpt>
      <trkpt lat="43.90473" lon="3.97316">
        <ele>125.9</ele>
        <time>2024-04-06T12:31:28.137Z</time>
      </trkpt>
      <trkpt lat="43.90473" lon="3.9732">
        <ele>125.5</ele>
        <time>2024-04-06T12:31:28.944Z</time>
      </trkpt>
      <trkpt lat="43.90474" lon="3.97325">
        <ele>125</ele>
        <time>2024-04-06T12:31:29.991Z</time>
      </trkpt>
      <trkpt lat="43.90475" lon="3.9733">
        <ele>124.5</ele>
        <time>2024-04-06T12:31:31.038Z</time>
      </trkpt>
      <trkpt lat="43.90475" lon="3.97335">
        <ele>124</ele>
        <time>2024-04-06T12:31:32.046Z</time>
      </trkpt>
      <trkpt lat="43.90475" lon="3.9734">
        <ele>123.5</ele>
        <time>2024-04-06T12:31:33.055Z</time>
      </trkpt>
      <trkpt lat="43.90476" lon="3.97344">
        <ele>123.2</ele>
        <time>2024-04-06T12:31:33.909Z</time>
      </trkpt>
      <trkpt lat="43.90476" lon="3.97348">
        <ele>122.8</ele>
        <time>2024-04-06T12:31:34.716Z</time>
      </trkpt>
      <trkpt lat="43.90476" lon="3.97352">
        <ele>122.4</ele>
        <time>2024-04-06T12:31:35.523Z</time>
      </trkpt>
      <trkpt lat="43.90476" lon="3.97355">
        <ele>122.1</ele>
        <time>2024-04-06T12:31:36.128Z</time>
      </trkpt>
      <trkpt lat="43.90476" lon="3.97358">
        <ele>121.8</ele>
        <time>2024-04-06T12:31:36.733Z</time>
      </trkpt>
      <trkpt lat="43.90474" lon="3.97361">
        <ele>121.3</ele>
        <time>2024-04-06T12:31:37.558Z</time>
      </trkpt>
      <trkpt lat="43.90473" lon="3.97363">
        <ele>121</ele>
        <time>2024-04-06T12:31:38.049Z</time>
      </trkpt>
      <trkpt lat="43.90471" lon="3.97366">
        <ele>120.7</ele>
        <time>2024-04-06T12:31:38.873Z</time>
      </trkpt>
      <trkpt lat="43.9047" lon="3.97368">
        <ele>120.7</ele>
        <time>2024-04-06T12:31:39.434Z</time>
      </trkpt>
      <trkpt lat="43.90468" lon="3.97369">
        <ele>120.8</ele>
        <time>2024-04-06T12:31:40.224Z</time>
      </trkpt>
      <trkpt lat="43.90465" lon="3.97366">
        <ele>121.2</ele>
        <time>2024-04-06T12:31:41.914Z</time>
      </trkpt>
      <trkpt lat="43.90464" lon="3.97364">
        <ele>121.4</ele>
        <time>2024-04-06T12:31:42.732Z</time>
      </trkpt>
      <trkpt lat="43.90463" lon="3.97361">
        <ele>121.7</ele>
        <time>2024-04-06T12:31:43.892Z</time>
      </trkpt>
      <trkpt lat="43.90462" lon="3.97359">
        <ele>122</ele>
        <time>2024-04-06T12:31:44.901Z</time>
      </trkpt>
      <trkpt lat="43.90461" lon="3.97356">
        <ele>122.4</ele>
        <time>2024-04-06T12:31:46.255Z</time>
      </trkpt>
      <trkpt lat="43.9046" lon="3.97353">
        <ele>122.8</ele>
        <time>2024-04-06T12:31:47.609Z</time>
      </trkpt>
      <trkpt lat="43.9046" lon="3.9735">
        <ele>123.1</ele>
        <time>2024-04-06T12:31:48.712Z</time>
      </trkpt>
      <trkpt lat="43.90459" lon="3.97346">
        <ele>123.6</ele>
        <time>2024-04-06T12:31:50.420Z</time>
      </trkpt>
      <trkpt lat="43.90458" lon="3.97344">
        <ele>123.9</ele>
        <time>2024-04-06T12:31:51.429Z</time>
      </trkpt>
      <trkpt lat="43.90457" lon="3.9734">
        <ele>124.4</ele>
        <time>2024-04-06T12:31:53.138Z</time>
      </trkpt>
      <trkpt lat="43.90456" lon="3.97337">
        <ele>124.8</ele>
        <time>2024-04-06T12:31:54.492Z</time>
      </trkpt>
      <trkpt lat="43.90454" lon="3.97333">
        <ele>125.4</ele>
        <time>2024-04-06T12:31:56.510Z</time>
      </trkpt>
      <trkpt lat="43.90452" lon="3.97332">
        <ele>125.6</ele>
        <time>2024-04-06T12:31:57.435Z</time>
      </trkpt>
      <trkpt lat="43.90445" lon="3.97329">
        <ele>126.6</ele>
        <time>2024-04-06T12:32:01.141Z</time>
      </trkpt>
      <trkpt lat="43.90448" lon="3.97328">
        <ele>126.5</ele>
        <time>2024-04-06T12:32:02.036Z</time>
      </trkpt>
      <trkpt lat="43.90449" lon="3.97329">
        <ele>126.3</ele>
        <time>2024-04-06T12:32:02.381Z</time>
      </trkpt>
      <trkpt lat="43.90451" lon="3.97329">
        <ele>126.1</ele>
        <time>2024-04-06T12:32:02.941Z</time>
      </trkpt>
      <trkpt lat="43.9045" lon="3.97329">
        <ele>126.2</ele>
        <time>2024-04-06T12:32:03.385Z</time>
      </trkpt>
      <trkpt lat="43.90447" lon="3.97329">
        <ele>126.4</ele>
        <time>2024-04-06T12:32:04.574Z</time>
      </trkpt>
      <trkpt lat="43.90446" lon="3.97328">
        <ele>126.6</ele>
        <time>2024-04-06T12:32:05.260Z</time>
      </trkpt>
      <trkpt lat="43.90446" lon="3.97327">
        <ele>126.8</ele>
        <time>2024-04-06T12:32:05.895Z</time>
      </trkpt>
      <trkpt lat="43.90446" lon="3.97317">
        <ele>128.2</ele>
        <time>2024-04-06T12:32:10.428Z</time>
      </trkpt>
      <trkpt lat="43.90444" lon="3.97327">
        <ele>127</ele>
        <time>2024-04-06T12:32:12.521Z</time>
      </trkpt>
      <trkpt lat="43.90446" lon="3.97318">
        <ele>128.1</ele>
        <time>2024-04-06T12:32:16.295Z</time>
      </trkpt>
      <trkpt lat="43.90448" lon="3.97309">
        <ele>129.1</ele>
        <time>2024-04-06T12:32:19.868Z</time>
      </trkpt>
      <trkpt lat="43.90447" lon="3.97315">
        <ele>128.4</ele>
        <time>2024-04-06T12:32:21.110Z</time>
      </trkpt>
      <trkpt lat="43.90447" lon="3.97314">
        <ele>128.5</ele>
        <time>2024-04-06T12:32:21.478Z</time>
      </trkpt>
      <trkpt lat="43.90449" lon="3.97308">
        <ele>129.2</ele>
        <time>2024-04-06T12:32:23.982Z</time>
      </trkpt>
      <trkpt lat="43.90445" lon="3.97307">
        <ele>129.7</ele>
        <time>2024-04-06T12:32:25.940Z</time>
      </trkpt>
      <trkpt lat="43.90446" lon="3.97307">
        <ele>129.6</ele>
        <time>2024-04-06T12:32:26.220Z</time>
      </trkpt>
      <trkpt lat="43.90442" lon="3.97311">
        <ele>129.2</ele>
        <time>2024-04-06T12:32:27.600Z</time>
      </trkpt>
      <trkpt lat="43.9044" lon="3.97313">
        <ele>129.1</ele>
        <time>2024-04-06T12:32:28.299Z</time>
      </trkpt>
      <trkpt lat="43.90439" lon="3.97315">
        <ele>128.9</ele>
        <time>2024-04-06T12:32:28.790Z</time>
      </trkpt>
      <trkpt lat="43.90439" lon="3.97316">
        <ele>128.8</ele>
        <time>2024-04-06T12:32:28.992Z</time>
      </trkpt>
      <trkpt lat="43.90435" lon="3.97322">
        <ele>128.7</ele>
        <time>2024-04-06T12:32:30.781Z</time>
      </trkpt>
      <trkpt lat="43.90435" lon="3.97324">
        <ele>128.6</ele>
        <time>2024-04-06T12:32:31.185Z</time>
      </trkpt>
      <trkpt lat="43.90436" lon="3.97328">
        <ele>128.2</ele>
        <time>2024-04-06T12:32:32.039Z</time>
      </trkpt>
      <trkpt lat="43.90438" lon="3.97333">
        <ele>127.4</ele>
        <time>2024-04-06T12:32:33.192Z</time>
      </trkpt>
      <trkpt lat="43.90439" lon="3.97337">
        <ele>126.8</ele>
        <time>2024-04-06T12:32:34.046Z</time>
      </trkpt>
      <trkpt lat="43.9044" lon="3.97339">
        <ele>126.3</ele>
        <time>2024-04-06T12:32:34.537Z</time>
      </trkpt>
      <trkpt lat="43.90441" lon="3.97341">
        <ele>125.9</ele>
        <time>2024-04-06T12:32:35.029Z</time>
      </trkpt>
      <trkpt lat="43.90443" lon="3.97347">
        <ele>124.8</ele>
        <time>2024-04-06T12:32:36.362Z</time>
      </trkpt>
      <trkpt lat="43.90445" lon="3.97353">
        <ele>123.8</ele>
        <time>2024-04-06T12:32:37.696Z</time>
      </trkpt>
      <trkpt lat="43.90446" lon="3.97358">
        <ele>123.2</ele>
        <time>2024-04-06T12:32:38.742Z</time>
      </trkpt>
      <trkpt lat="43.90448" lon="3.97364">
        <ele>122.6</ele>
        <time>2024-04-06T12:32:40.076Z</time>
      </trkpt>
      <trkpt lat="43.90449" lon="3.97368">
        <ele>122.4</ele>
        <time>2024-04-06T12:32:40.930Z</time>
      </trkpt>
      <trkpt lat="43.90449" lon="3.97371">
        <ele>122.3</ele>
        <time>2024-04-06T12:32:41.535Z</time>
      </trkpt>
      <trkpt lat="43.9045" lon="3.97374">
        <ele>122</ele>
        <time>2024-04-06T12:32:42.202Z</time>
      </trkpt>
      <trkpt lat="43.9045" lon="3.97376">
        <ele>122</ele>
        <time>2024-04-06T12:32:42.663Z</time>
      </trkpt>
      <trkpt lat="43.90451" lon="3.97379">
        <ele>121.7</ele>
        <time>2024-04-06T12:32:43.330Z</time>
      </trkpt>
      <trkpt lat="43.90451" lon="3.97381">
        <ele>121.6</ele>
        <time>2024-04-06T12:32:43.733Z</time>
      </trkpt>
      <trkpt lat="43.90451" lon="3.97384">
        <ele>121.5</ele>
        <time>2024-04-06T12:32:44.339Z</time>
      </trkpt>
      <trkpt lat="43.90451" lon="3.97387">
        <ele>121.4</ele>
        <time>2024-04-06T12:32:44.944Z</time>
      </trkpt>
      <trkpt lat="43.9045" lon="3.9739">
        <ele>121.4</ele>
        <time>2024-04-06T12:32:45.706Z</time>
      </trkpt>
      <trkpt lat="43.90448" lon="3.97391">
        <ele>121.5</ele>
        <time>2024-04-06T12:32:46.495Z</time>
      </trkpt>
      <trkpt lat="43.90445" lon="3.97392">
        <ele>121.8</ele>
        <time>2024-04-06T12:32:47.853Z</time>
      </trkpt>
      <trkpt lat="43.90443" lon="3.97391">
        <ele>122</ele>
        <time>2024-04-06T12:32:48.777Z</time>
      </trkpt>
      <trkpt lat="43.90441" lon="3.9739">
        <ele>122.1</ele>
        <time>2024-04-06T12:32:49.567Z</time>
      </trkpt>
      <trkpt lat="43.90439" lon="3.97389">
        <ele>122.2</ele>
        <time>2024-04-06T12:32:50.357Z</time>
      </trkpt>
      <trkpt lat="43.90437" lon="3.97387">
        <ele>122.4</ele>
        <time>2024-04-06T12:32:51.383Z</time>
      </trkpt>
      <trkpt lat="43.90436" lon="3.97386">
        <ele>122.6</ele>
        <time>2024-04-06T12:32:52.068Z</time>
      </trkpt>
      <trkpt lat="43.90433" lon="3.97384">
        <ele>123</ele>
        <time>2024-04-06T12:32:53.656Z</time>
      </trkpt>
      <trkpt lat="43.9043" lon="3.97383">
        <ele>123.3</ele>
        <time>2024-04-06T12:32:55.013Z</time>
      </trkpt>
      <trkpt lat="43.90427" lon="3.97383">
        <ele>123.5</ele>
        <time>2024-04-06T12:32:56.202Z</time>
      </trkpt>
      <trkpt lat="43.90423" lon="3.97382">
        <ele>124</ele>
        <time>2024-04-06T12:32:58.160Z</time>
      </trkpt>
      <trkpt lat="43.90422" lon="3.97381">
        <ele>124.2</ele>
        <time>2024-04-06T12:32:58.846Z</time>
      </trkpt>
      <trkpt lat="43.90419" lon="3.9738">
        <ele>124.7</ele>
        <time>2024-04-06T12:33:00.562Z</time>
      </trkpt>
      <trkpt lat="43.90416" lon="3.97379">
        <ele>125.1</ele>
        <time>2024-04-06T12:33:02.084Z</time>
      </trkpt>
      <trkpt lat="43.90412" lon="3.97379">
        <ele>124.9</ele>
        <time>2024-04-06T12:33:03.204Z</time>
      </trkpt>
      <trkpt lat="43.9041" lon="3.97378">
        <ele>125</ele>
        <time>2024-04-06T12:33:03.994Z</time>
      </trkpt>
      <trkpt lat="43.90406" lon="3.97377">
        <ele>125</ele>
        <time>2024-04-06T12:33:05.294Z</time>
      </trkpt>
      <trkpt lat="43.90403" lon="3.97377">
        <ele>124.8</ele>
        <time>2024-04-06T12:33:06.134Z</time>
      </trkpt>
      <trkpt lat="43.904" lon="3.97378">
        <ele>124.4</ele>
        <time>2024-04-06T12:33:06.998Z</time>
      </trkpt>
      <trkpt lat="43.90399" lon="3.97377">
        <ele>124.6</ele>
        <time>2024-04-06T12:33:07.684Z</time>
      </trkpt>
      <trkpt lat="43.90397" lon="3.97375">
        <ele>124.9</ele>
        <time>2024-04-06T12:33:08.866Z</time>
      </trkpt>
      <trkpt lat="43.90394" lon="3.97374">
        <ele>125</ele>
        <time>2024-04-06T12:33:09.959Z</time>
      </trkpt>
      <trkpt lat="43.90392" lon="3.97374">
        <ele>124.9</ele>
        <time>2024-04-06T12:33:10.519Z</time>
      </trkpt>
      <trkpt lat="43.9039" lon="3.97374">
        <ele>124.8</ele>
        <time>2024-04-06T12:33:11.079Z</time>
      </trkpt>
      <trkpt lat="43.90387" lon="3.97373">
        <ele>125.1</ele>
        <time>2024-04-06T12:33:12.436Z</time>
      </trkpt>
      <trkpt lat="43.90384" lon="3.97369">
        <ele>126</ele>
        <time>2024-04-06T12:33:15.291Z</time>
      </trkpt>
      <trkpt lat="43.90383" lon="3.97366">
        <ele>126.6</ele>
        <time>2024-04-06T12:33:17.177Z</time>
      </trkpt>
      <trkpt lat="43.90382" lon="3.97364">
        <ele>127</ele>
        <time>2024-04-06T12:33:18.438Z</time>
      </trkpt>
      <trkpt lat="43.9038" lon="3.97361">
        <ele>127.4</ele>
        <time>2024-04-06T12:33:19.925Z</time>
      </trkpt>
      <trkpt lat="43.90377" lon="3.97358">
        <ele>127.8</ele>
        <time>2024-04-06T12:33:21.615Z</time>
      </trkpt>
      <trkpt lat="43.90376" lon="3.97356">
        <ele>128.1</ele>
        <time>2024-04-06T12:33:22.624Z</time>
      </trkpt>
      <trkpt lat="43.90374" lon="3.97354">
        <ele>128.3</ele>
        <time>2024-04-06T12:33:23.649Z</time>
      </trkpt>
      <trkpt lat="43.90373" lon="3.97351">
        <ele>128.8</ele>
        <time>2024-04-06T12:33:25.243Z</time>
      </trkpt>
      <trkpt lat="43.90375" lon="3.97347">
        <ele>129.8</ele>
        <time>2024-04-06T12:33:28.429Z</time>
      </trkpt>
      <trkpt lat="43.90378" lon="3.97345">
        <ele>130.5</ele>
        <time>2024-04-06T12:33:30.659Z</time>
      </trkpt>
      <trkpt lat="43.9038" lon="3.97343">
        <ele>131.1</ele>
        <time>2024-04-06T12:33:32.545Z</time>
      </trkpt>
      <trkpt lat="43.90381" lon="3.97346">
        <ele>130.5</ele>
        <time>2024-04-06T12:33:33.212Z</time>
      </trkpt>
      <trkpt lat="43.90386" lon="3.97342">
        <ele>131.8</ele>
        <time>2024-04-06T12:33:37.315Z</time>
      </trkpt>
      <trkpt lat="43.90387" lon="3.97343">
        <ele>131.7</ele>
        <time>2024-04-06T12:33:37.660Z</time>
      </trkpt>
      <trkpt lat="43.90389" lon="3.97344">
        <ele>131.7</ele>
        <time>2024-04-06T12:33:38.340Z</time>
      </trkpt>
      <trkpt lat="43.90389" lon="3.97343">
        <ele>131.9</ele>
        <time>2024-04-06T12:33:38.975Z</time>
      </trkpt>
      <trkpt lat="43.90387" lon="3.97338">
        <ele>132.8</ele>
        <time>2024-04-06T12:33:42.118Z</time>
      </trkpt>
      <trkpt lat="43.90384" lon="3.97332">
        <ele>133.5</ele>
        <time>2024-04-06T12:33:44.573Z</time>
      </trkpt>
      <trkpt lat="43.90382" lon="3.97328">
        <ele>133.5</ele>
        <time>2024-04-06T12:33:45.696Z</time>
      </trkpt>
      <trkpt lat="43.90382" lon="3.97323">
        <ele>133.7</ele>
        <time>2024-04-06T12:33:47.072Z</time>
      </trkpt>
      <trkpt lat="43.90383" lon="3.97321">
        <ele>133.9</ele>
        <time>2024-04-06T12:33:47.890Z</time>
      </trkpt>
      <trkpt lat="43.90384" lon="3.97318">
        <ele>134.1</ele>
        <time>2024-04-06T12:33:48.891Z</time>
      </trkpt>
      <trkpt lat="43.90383" lon="3.97314">
        <ele>134.2</ele>
        <time>2024-04-06T12:33:49.973Z</time>
      </trkpt>
      <trkpt lat="43.90383" lon="3.9731">
        <ele>134.4</ele>
        <time>2024-04-06T12:33:51.126Z</time>
      </trkpt>
      <trkpt lat="43.90381" lon="3.97306">
        <ele>134.4</ele>
        <time>2024-04-06T12:33:52.248Z</time>
      </trkpt>
      <trkpt lat="43.9038" lon="3.97303">
        <ele>134.6</ele>
        <time>2024-04-06T12:33:53.249Z</time>
      </trkpt>
      <trkpt lat="43.90378" lon="3.973">
        <ele>134.7</ele>
        <time>2024-04-06T12:33:54.297Z</time>
      </trkpt>
      <trkpt lat="43.90376" lon="3.97298">
        <ele>134.8</ele>
        <time>2024-04-06T12:33:55.194Z</time>
      </trkpt>
      <trkpt lat="43.90373" lon="3.97295">
        <ele>135.1</ele>
        <time>2024-04-06T12:33:56.733Z</time>
      </trkpt>
      <trkpt lat="43.9037" lon="3.97293">
        <ele>135.3</ele>
        <time>2024-04-06T12:33:58.023Z</time>
      </trkpt>
      <trkpt lat="43.90366" lon="3.97293">
        <ele>135.3</ele>
        <time>2024-04-06T12:33:59.303Z</time>
      </trkpt>
      <trkpt lat="43.90364" lon="3.97294">
        <ele>135.1</ele>
        <time>2024-04-06T12:33:59.898Z</time>
      </trkpt>
      <trkpt lat="43.90362" lon="3.97294">
        <ele>135.1</ele>
        <time>2024-04-06T12:34:00.538Z</time>
      </trkpt>
      <trkpt lat="43.9036" lon="3.97294">
        <ele>135.1</ele>
        <time>2024-04-06T12:34:01.178Z</time>
      </trkpt>
      <trkpt lat="43.90358" lon="3.97293">
        <ele>135.4</ele>
        <time>2024-04-06T12:34:02.272Z</time>
      </trkpt>
      <trkpt lat="43.90356" lon="3.97292">
        <ele>135.7</ele>
        <time>2024-04-06T12:34:03.366Z</time>
      </trkpt>
      <trkpt lat="43.90353" lon="3.97293">
        <ele>135.7</ele>
        <time>2024-04-06T12:34:04.353Z</time>
      </trkpt>
      <trkpt lat="43.9035" lon="3.97294">
        <ele>135.6</ele>
        <time>2024-04-06T12:34:05.248Z</time>
      </trkpt>
      <trkpt lat="43.90348" lon="3.97295">
        <ele>135.6</ele>
        <time>2024-04-06T12:34:05.928Z</time>
      </trkpt>
      <trkpt lat="43.90346" lon="3.97295">
        <ele>135.7</ele>
        <time>2024-04-06T12:34:06.679Z</time>
      </trkpt>
      <trkpt lat="43.90344" lon="3.97295">
        <ele>135.8</ele>
        <time>2024-04-06T12:34:07.429Z</time>
      </trkpt>
      <trkpt lat="43.90342" lon="3.97296">
        <ele>135.6</ele>
        <time>2024-04-06T12:34:08.024Z</time>
      </trkpt>
      <trkpt lat="43.9034" lon="3.97296">
        <ele>135.7</ele>
        <time>2024-04-06T12:34:08.774Z</time>
      </trkpt>
      <trkpt lat="43.90337" lon="3.97297">
        <ele>135.7</ele>
        <time>2024-04-06T12:34:09.761Z</time>
      </trkpt>
      <trkpt lat="43.90334" lon="3.97297">
        <ele>135.8</ele>
        <time>2024-04-06T12:34:10.827Z</time>
      </trkpt>
      <trkpt lat="43.90332" lon="3.97298">
        <ele>135.6</ele>
        <time>2024-04-06T12:34:11.422Z</time>
      </trkpt>
      <trkpt lat="43.90329" lon="3.973">
        <ele>135.2</ele>
        <time>2024-04-06T12:34:12.354Z</time>
      </trkpt>
      <trkpt lat="43.90325" lon="3.973">
        <ele>135.1</ele>
        <time>2024-04-06T12:34:13.541Z</time>
      </trkpt>
      <trkpt lat="43.90323" lon="3.97299">
        <ele>135.3</ele>
        <time>2024-04-06T12:34:14.465Z</time>
      </trkpt>
      <trkpt lat="43.90321" lon="3.97299">
        <ele>135.3</ele>
        <time>2024-04-06T12:34:15.105Z</time>
      </trkpt>
      <trkpt lat="43.90318" lon="3.97301">
        <ele>134.9</ele>
        <time>2024-04-06T12:34:16.037Z</time>
      </trkpt>
      <trkpt lat="43.90314" lon="3.97303">
        <ele>134.5</ele>
        <time>2024-04-06T12:34:17.228Z</time>
      </trkpt>
      <trkpt lat="43.9031" lon="3.97306">
        <ele>134</ele>
        <time>2024-04-06T12:34:18.501Z</time>
      </trkpt>
      <trkpt lat="43.90308" lon="3.97309">
        <ele>133.7</ele>
        <time>2024-04-06T12:34:19.325Z</time>
      </trkpt>
      <trkpt lat="43.90306" lon="3.97311">
        <ele>133.6</ele>
        <time>2024-04-06T12:34:20.023Z</time>
      </trkpt>
      <trkpt lat="43.90304" lon="3.97313">
        <ele>133.5</ele>
        <time>2024-04-06T12:34:20.722Z</time>
      </trkpt>
      <trkpt lat="43.90302" lon="3.97314">
        <ele>133.5</ele>
        <time>2024-04-06T12:34:21.402Z</time>
      </trkpt>
      <trkpt lat="43.903" lon="3.97317">
        <ele>133.4</ele>
        <time>2024-04-06T12:34:22.252Z</time>
      </trkpt>
      <trkpt lat="43.90299" lon="3.97322">
        <ele>133.1</ele>
        <time>2024-04-06T12:34:23.299Z</time>
      </trkpt>
      <trkpt lat="43.90299" lon="3.97324">
        <ele>132.9</ele>
        <time>2024-04-06T12:34:23.703Z</time>
      </trkpt>
      <trkpt lat="43.90299" lon="3.97328">
        <ele>132.6</ele>
        <time>2024-04-06T12:34:24.510Z</time>
      </trkpt>
      <trkpt lat="43.90297" lon="3.97333">
        <ele>132.3</ele>
        <time>2024-04-06T12:34:25.663Z</time>
      </trkpt>
      <trkpt lat="43.90295" lon="3.97337">
        <ele>132.2</ele>
        <time>2024-04-06T12:34:26.693Z</time>
      </trkpt>
      <trkpt lat="43.90292" lon="3.97342">
        <ele>132.2</ele>
        <time>2024-04-06T12:34:28.193Z</time>
      </trkpt>
      <trkpt lat="43.9029" lon="3.97347">
        <ele>132.1</ele>
        <time>2024-04-06T12:34:29.418Z</time>
      </trkpt>
      <trkpt lat="43.90287" lon="3.97352">
        <ele>132</ele>
        <time>2024-04-06T12:34:30.824Z</time>
      </trkpt>
      <trkpt lat="43.90285" lon="3.97356">
        <ele>131.9</ele>
        <time>2024-04-06T12:34:31.854Z</time>
      </trkpt>
      <trkpt lat="43.90284" lon="3.97359">
        <ele>131.9</ele>
        <time>2024-04-06T12:34:32.616Z</time>
      </trkpt>
      <trkpt lat="43.90285" lon="3.97364">
        <ele>131.5</ele>
        <time>2024-04-06T12:34:33.663Z</time>
      </trkpt>
      <trkpt lat="43.90286" lon="3.97368">
        <ele>131.2</ele>
        <time>2024-04-06T12:34:34.517Z</time>
      </trkpt>
      <trkpt lat="43.90288" lon="3.97372">
        <ele>130.8</ele>
        <time>2024-04-06T12:34:35.499Z</time>
      </trkpt>
      <trkpt lat="43.90291" lon="3.97377">
        <ele>130.4</ele>
        <time>2024-04-06T12:34:36.811Z</time>
      </trkpt>
      <trkpt lat="43.90293" lon="3.97382">
        <ele>129.9</ele>
        <time>2024-04-06T12:34:37.965Z</time>
      </trkpt>
      <trkpt lat="43.90296" lon="3.97386">
        <ele>129.6</ele>
        <time>2024-04-06T12:34:39.130Z</time>
      </trkpt>
      <trkpt lat="43.90298" lon="3.97391">
        <ele>129.2</ele>
        <time>2024-04-06T12:34:40.283Z</time>
      </trkpt>
      <trkpt lat="43.90298" lon="3.97397">
        <ele>128.9</ele>
        <time>2024-04-06T12:34:41.494Z</time>
      </trkpt>
      <trkpt lat="43.90296" lon="3.97404">
        <ele>128.6</ele>
        <time>2024-04-06T12:34:43.013Z</time>
      </trkpt>
      <trkpt lat="43.90294" lon="3.9741">
        <ele>128.3</ele>
        <time>2024-04-06T12:34:44.346Z</time>
      </trkpt>
      <trkpt lat="43.90293" lon="3.97416">
        <ele>128</ele>
        <time>2024-04-06T12:34:45.589Z</time>
      </trkpt>
      <trkpt lat="43.90293" lon="3.97423">
        <ele>127.8</ele>
        <time>2024-04-06T12:34:47.021Z</time>
      </trkpt>
      <trkpt lat="43.90295" lon="3.97428">
        <ele>127.6</ele>
        <time>2024-04-06T12:34:48.175Z</time>
      </trkpt>
      <trkpt lat="43.90298" lon="3.97432">
        <ele>127.4</ele>
        <time>2024-04-06T12:34:49.340Z</time>
      </trkpt>
      <trkpt lat="43.90302" lon="3.97433">
        <ele>127.4</ele>
        <time>2024-04-06T12:34:50.640Z</time>
      </trkpt>
      <trkpt lat="43.90306" lon="3.97434">
        <ele>127.4</ele>
        <time>2024-04-06T12:34:51.941Z</time>
      </trkpt>
      <trkpt lat="43.9031" lon="3.97434">
        <ele>127.5</ele>
        <time>2024-04-06T12:34:53.325Z</time>
      </trkpt>
      <trkpt lat="43.90315" lon="3.97433">
        <ele>127.8</ele>
        <time>2024-04-06T12:34:55.279Z</time>
      </trkpt>
      <trkpt lat="43.9032" lon="3.97433">
        <ele>127.9</ele>
        <time>2024-04-06T12:34:56.982Z</time>
      </trkpt>
      <trkpt lat="43.90325" lon="3.97432">
        <ele>128.1</ele>
        <time>2024-04-06T12:34:58.813Z</time>
      </trkpt>
      <trkpt lat="43.90329" lon="3.97431">
        <ele>128.3</ele>
        <time>2024-04-06T12:35:00.333Z</time>
      </trkpt>
      <trkpt lat="43.90334" lon="3.97431">
        <ele>128.5</ele>
        <time>2024-04-06T12:35:02.149Z</time>
      </trkpt>
      <trkpt lat="43.90338" lon="3.97431">
        <ele>128.4</ele>
        <time>2024-04-06T12:35:03.335Z</time>
      </trkpt>
      <trkpt lat="43.90342" lon="3.9743">
        <ele>128.4</ele>
        <time>2024-04-06T12:35:04.636Z</time>
      </trkpt>
      <trkpt lat="43.90345" lon="3.97428">
        <ele>128.3</ele>
        <time>2024-04-06T12:35:05.608Z</time>
      </trkpt>
      <trkpt lat="43.90347" lon="3.97425">
        <ele>128.4</ele>
        <time>2024-04-06T12:35:06.656Z</time>
      </trkpt>
      <trkpt lat="43.9035" lon="3.97424">
        <ele>128.3</ele>
        <time>2024-04-06T12:35:07.552Z</time>
      </trkpt>
      <trkpt lat="43.90353" lon="3.97426">
        <ele>128.2</ele>
        <time>2024-04-06T12:35:08.524Z</time>
      </trkpt>
      <trkpt lat="43.90356" lon="3.97431">
        <ele>128.1</ele>
        <time>2024-04-06T12:35:09.930Z</time>
      </trkpt>
      <trkpt lat="43.90359" lon="3.97436">
        <ele>128</ele>
        <time>2024-04-06T12:35:11.336Z</time>
      </trkpt>
      <trkpt lat="43.90363" lon="3.97442">
        <ele>127.7</ele>
        <time>2024-04-06T12:35:12.985Z</time>
      </trkpt>
      <trkpt lat="43.90366" lon="3.97447">
        <ele>127</ele>
        <time>2024-04-06T12:35:14.298Z</time>
      </trkpt>
      <trkpt lat="43.90369" lon="3.97449">
        <ele>126.5</ele>
        <time>2024-04-06T12:35:15.229Z</time>
      </trkpt>
      <trkpt lat="43.90372" lon="3.97453">
        <ele>125.9</ele>
        <time>2024-04-06T12:35:16.394Z</time>
      </trkpt>
      <trkpt lat="43.90374" lon="3.97458">
        <ele>125.4</ele>
        <time>2024-04-06T12:35:17.548Z</time>
      </trkpt>
      <trkpt lat="43.90376" lon="3.97463">
        <ele>125</ele>
        <time>2024-04-06T12:35:18.701Z</time>
      </trkpt>
      <trkpt lat="43.90378" lon="3.9747">
        <ele>124.6</ele>
        <time>2024-04-06T12:35:20.220Z</time>
      </trkpt>
      <trkpt lat="43.9038" lon="3.97477">
        <ele>124.3</ele>
        <time>2024-04-06T12:35:21.739Z</time>
      </trkpt>
      <trkpt lat="43.90381" lon="3.97485">
        <ele>124.3</ele>
        <time>2024-04-06T12:35:23.611Z</time>
      </trkpt>
      <trkpt lat="43.9038" lon="3.97492">
        <ele>124.5</ele>
        <time>2024-04-06T12:35:25.471Z</time>
      </trkpt>
      <trkpt lat="43.90377" lon="3.97499">
        <ele>124.9</ele>
        <time>2024-04-06T12:35:27.809Z</time>
      </trkpt>
      <trkpt lat="43.90375" lon="3.97506">
        <ele>124.9</ele>
        <time>2024-04-06T12:35:29.545Z</time>
      </trkpt>
      <trkpt lat="43.90373" lon="3.97512">
        <ele>124.9</ele>
        <time>2024-04-06T12:35:31.069Z</time>
      </trkpt>
      <trkpt lat="43.9037" lon="3.97514">
        <ele>125</ele>
        <time>2024-04-06T12:35:32.239Z</time>
      </trkpt>
      <trkpt lat="43.90366" lon="3.97516">
        <ele>125.2</ele>
        <time>2024-04-06T12:35:33.818Z</time>
      </trkpt>
      <trkpt lat="43.90365" lon="3.97519">
        <ele>125.1</ele>
        <time>2024-04-06T12:35:34.490Z</time>
      </trkpt>
      <trkpt lat="43.90364" lon="3.97524">
        <ele>125</ele>
        <time>2024-04-06T12:35:35.593Z</time>
      </trkpt>
      <trkpt lat="43.90364" lon="3.97528">
        <ele>124.9</ele>
        <time>2024-04-06T12:35:36.424Z</time>
      </trkpt>
      <trkpt lat="43.90361" lon="3.97535">
        <ele>124.5</ele>
        <time>2024-04-06T12:35:38.067Z</time>
      </trkpt>
      <trkpt lat="43.90358" lon="3.97539">
        <ele>124.1</ele>
        <time>2024-04-06T12:35:39.232Z</time>
      </trkpt>
      <trkpt lat="43.90353" lon="3.97542">
        <ele>123.8</ele>
        <time>2024-04-06T12:35:40.757Z</time>
      </trkpt>
      <trkpt lat="43.90349" lon="3.97546">
        <ele>123.5</ele>
        <time>2024-04-06T12:35:42.137Z</time>
      </trkpt>
      <trkpt lat="43.90344" lon="3.9755">
        <ele>123.3</ele>
        <time>2024-04-06T12:35:43.801Z</time>
      </trkpt>
      <trkpt lat="43.90339" lon="3.97555">
        <ele>123</ele>
        <time>2024-04-06T12:35:45.526Z</time>
      </trkpt>
      <trkpt lat="43.90336" lon="3.97561">
        <ele>122.6</ele>
        <time>2024-04-06T12:35:46.999Z</time>
      </trkpt>
      <trkpt lat="43.90333" lon="3.97567">
        <ele>122.2</ele>
        <time>2024-04-06T12:35:48.473Z</time>
      </trkpt>
      <trkpt lat="43.90331" lon="3.97573">
        <ele>121.6</ele>
        <time>2024-04-06T12:35:49.806Z</time>
      </trkpt>
      <trkpt lat="43.90328" lon="3.97577">
        <ele>121.2</ele>
        <time>2024-04-06T12:35:50.971Z</time>
      </trkpt>
      <trkpt lat="43.90325" lon="3.97581">
        <ele>120.8</ele>
        <time>2024-04-06T12:35:52.136Z</time>
      </trkpt>
      <trkpt lat="43.90323" lon="3.97582">
        <ele>120.7</ele>
        <time>2024-04-06T12:35:52.731Z</time>
      </trkpt>
      <trkpt lat="43.9032" lon="3.97582">
        <ele>120.6</ele>
        <time>2024-04-06T12:35:53.599Z</time>
      </trkpt>
      <trkpt lat="43.90318" lon="3.97579">
        <ele>120.7</ele>
        <time>2024-04-06T12:35:54.647Z</time>
      </trkpt>
      <trkpt lat="43.90316" lon="3.97576">
        <ele>120.7</ele>
        <time>2024-04-06T12:35:55.590Z</time>
      </trkpt>
      <trkpt lat="43.90315" lon="3.97573">
        <ele>120.8</ele>
        <time>2024-04-06T12:35:56.460Z</time>
      </trkpt>
      <trkpt lat="43.90313" lon="3.9757">
        <ele>120.9</ele>
        <time>2024-04-06T12:35:57.508Z</time>
      </trkpt>
      <trkpt lat="43.9031" lon="3.97568">
        <ele>120.8</ele>
        <time>2024-04-06T12:35:58.481Z</time>
      </trkpt>
      <trkpt lat="43.90307" lon="3.97565">
        <ele>120.7</ele>
        <time>2024-04-06T12:35:59.571Z</time>
      </trkpt>
      <trkpt lat="43.90304" lon="3.97562">
        <ele>120.8</ele>
        <time>2024-04-06T12:36:00.859Z</time>
      </trkpt>
      <trkpt lat="43.90301" lon="3.97558">
        <ele>120.9</ele>
        <time>2024-04-06T12:36:02.294Z</time>
      </trkpt>
      <trkpt lat="43.90298" lon="3.97555">
        <ele>121</ele>
        <time>2024-04-06T12:36:03.581Z</time>
      </trkpt>
      <trkpt lat="43.90296" lon="3.97551">
        <ele>121.3</ele>
        <time>2024-04-06T12:36:05.063Z</time>
      </trkpt>
      <trkpt lat="43.90293" lon="3.97548">
        <ele>121.4</ele>
        <time>2024-04-06T12:36:06.351Z</time>
      </trkpt>
      <trkpt lat="43.90291" lon="3.97545">
        <ele>121.6</ele>
        <time>2024-04-06T12:36:07.523Z</time>
      </trkpt>
      <trkpt lat="43.90288" lon="3.97543">
        <ele>121.6</ele>
        <time>2024-04-06T12:36:08.588Z</time>
      </trkpt>
      <trkpt lat="43.90285" lon="3.9754">
        <ele>121.7</ele>
        <time>2024-04-06T12:36:09.875Z</time>
      </trkpt>
      <trkpt lat="43.90283" lon="3.97538">
        <ele>121.8</ele>
        <time>2024-04-06T12:36:10.772Z</time>
      </trkpt>
      <trkpt lat="43.9028" lon="3.97536">
        <ele>121.8</ele>
        <time>2024-04-06T12:36:11.837Z</time>
      </trkpt>
      <trkpt lat="43.90277" lon="3.97533">
        <ele>121.8</ele>
        <time>2024-04-06T12:36:13.020Z</time>
      </trkpt>
      <trkpt lat="43.90274" lon="3.97531">
        <ele>121.7</ele>
        <time>2024-04-06T12:36:13.993Z</time>
      </trkpt>
      <trkpt lat="43.9027" lon="3.97529">
        <ele>121.7</ele>
        <time>2024-04-06T12:36:15.353Z</time>
      </trkpt>
      <trkpt lat="43.90267" lon="3.97526">
        <ele>121.7</ele>
        <time>2024-04-06T12:36:16.536Z</time>
      </trkpt>
      <trkpt lat="43.90265" lon="3.97523">
        <ele>121.8</ele>
        <time>2024-04-06T12:36:17.585Z</time>
      </trkpt>
      <trkpt lat="43.90263" lon="3.97519">
        <ele>121.9</ele>
        <time>2024-04-06T12:36:18.812Z</time>
      </trkpt>
      <trkpt lat="43.90262" lon="3.97515">
        <ele>122.1</ele>
        <time>2024-04-06T12:36:20.016Z</time>
      </trkpt>
      <trkpt lat="43.90262" lon="3.9751">
        <ele>122.3</ele>
        <time>2024-04-06T12:36:21.392Z</time>
      </trkpt>
      <trkpt lat="43.90262" lon="3.97506">
        <ele>122.6</ele>
        <time>2024-04-06T12:36:22.691Z</time>
      </trkpt>
      <trkpt lat="43.90263" lon="3.97502">
        <ele>122.8</ele>
        <time>2024-04-06T12:36:23.895Z</time>
      </trkpt>
      <trkpt lat="43.90264" lon="3.97498">
        <ele>123.2</ele>
        <time>2024-04-06T12:36:25.409Z</time>
      </trkpt>
      <trkpt lat="43.90266" lon="3.97495">
        <ele>123.6</ele>
        <time>2024-04-06T12:36:26.895Z</time>
      </trkpt>
      <trkpt lat="43.90266" lon="3.97491">
        <ele>123.9</ele>
        <time>2024-04-06T12:36:28.193Z</time>
      </trkpt>
      <trkpt lat="43.90266" lon="3.97487">
        <ele>124.3</ele>
        <time>2024-04-06T12:36:29.664Z</time>
      </trkpt>
      <trkpt lat="43.90265" lon="3.97484">
        <ele>124.5</ele>
        <time>2024-04-06T12:36:30.665Z</time>
      </trkpt>
      <trkpt lat="43.90264" lon="3.9748">
        <ele>124.8</ele>
        <time>2024-04-06T12:36:32.012Z</time>
      </trkpt>
      <trkpt lat="43.90263" lon="3.97477">
        <ele>125</ele>
        <time>2024-04-06T12:36:33.012Z</time>
      </trkpt>
      <trkpt lat="43.90263" lon="3.97474">
        <ele>125.3</ele>
        <time>2024-04-06T12:36:34.115Z</time>
      </trkpt>
      <trkpt lat="43.90263" lon="3.97471">
        <ele>125.5</ele>
        <time>2024-04-06T12:36:35.051Z</time>
      </trkpt>
      <trkpt lat="43.90262" lon="3.97468">
        <ele>125.6</ele>
        <time>2024-04-06T12:36:35.921Z</time>
      </trkpt>
      <trkpt lat="43.90261" lon="3.97466">
        <ele>125.6</ele>
        <time>2024-04-06T12:36:36.482Z</time>
      </trkpt>
      <trkpt lat="43.9026" lon="3.97464">
        <ele>125.7</ele>
        <time>2024-04-06T12:36:37.155Z</time>
      </trkpt>
      <trkpt lat="43.90258" lon="3.97461">
        <ele>125.7</ele>
        <time>2024-04-06T12:36:38.098Z</time>
      </trkpt>
      <trkpt lat="43.90256" lon="3.97459">
        <ele>125.7</ele>
        <time>2024-04-06T12:36:38.886Z</time>
      </trkpt>
      <trkpt lat="43.90255" lon="3.97457">
        <ele>125.7</ele>
        <time>2024-04-06T12:36:39.448Z</time>
      </trkpt>
      <trkpt lat="43.90255" lon="3.97452">
        <ele>125.9</ele>
        <time>2024-04-06T12:36:40.823Z</time>
      </trkpt>
      <trkpt lat="43.90258" lon="3.97453">
        <ele>126</ele>
        <time>2024-04-06T12:36:41.916Z</time>
      </trkpt>
      <trkpt lat="43.90261" lon="3.97453">
        <ele>126.1</ele>
        <time>2024-04-06T12:36:42.982Z</time>
      </trkpt>
      <trkpt lat="43.90263" lon="3.97453">
        <ele>126.2</ele>
        <time>2024-04-06T12:36:43.732Z</time>
      </trkpt>
      <trkpt lat="43.90266" lon="3.97454">
        <ele>126.2</ele>
        <time>2024-04-06T12:36:44.720Z</time>
      </trkpt>
      <trkpt lat="43.90268" lon="3.97456">
        <ele>126.2</ele>
        <time>2024-04-06T12:36:45.508Z</time>
      </trkpt>
      <trkpt lat="43.9027" lon="3.97458">
        <ele>126.2</ele>
        <time>2024-04-06T12:36:46.297Z</time>
      </trkpt>
      <trkpt lat="43.90272" lon="3.97461">
        <ele>126.2</ele>
        <time>2024-04-06T12:36:47.239Z</time>
      </trkpt>
      <trkpt lat="43.90275" lon="3.97462">
        <ele>126.3</ele>
        <time>2024-04-06T12:36:48.332Z</time>
      </trkpt>
      <trkpt lat="43.90277" lon="3.97465">
        <ele>126.2</ele>
        <time>2024-04-06T12:36:49.183Z</time>
      </trkpt>
      <trkpt lat="43.9028" lon="3.97467">
        <ele>126.2</ele>
        <time>2024-04-06T12:36:50.248Z</time>
      </trkpt>
      <trkpt lat="43.90281" lon="3.9747">
        <ele>126.1</ele>
        <time>2024-04-06T12:36:50.920Z</time>
      </trkpt>
      <trkpt lat="43.9028" lon="3.97474">
        <ele>125.9</ele>
        <time>2024-04-06T12:36:51.774Z</time>
      </trkpt>
      <trkpt lat="43.90278" lon="3.97477">
        <ele>125.7</ele>
        <time>2024-04-06T12:36:52.598Z</time>
      </trkpt>
      <trkpt lat="43.90276" lon="3.9748">
        <ele>125.4</ele>
        <time>2024-04-06T12:36:53.423Z</time>
      </trkpt>
      <trkpt lat="43.90275" lon="3.97483">
        <ele>125.1</ele>
        <time>2024-04-06T12:36:54.090Z</time>
      </trkpt>
      <trkpt lat="43.90276" lon="3.97487">
        <ele>124.8</ele>
        <time>2024-04-06T12:36:54.944Z</time>
      </trkpt>
      <trkpt lat="43.90277" lon="3.9749">
        <ele>124.7</ele>
        <time>2024-04-06T12:36:55.616Z</time>
      </trkpt>
      <trkpt lat="43.90279" lon="3.97493">
        <ele>124.5</ele>
        <time>2024-04-06T12:36:56.440Z</time>
      </trkpt>
      <trkpt lat="43.90281" lon="3.97496">
        <ele>124.3</ele>
        <time>2024-04-06T12:36:57.265Z</time>
      </trkpt>
      <trkpt lat="43.90282" lon="3.97501">
        <ele>123.9</ele>
        <time>2024-04-06T12:36:58.312Z</time>
      </trkpt>
      <trkpt lat="43.90282" lon="3.97506">
        <ele>123.6</ele>
        <time>2024-04-06T12:36:59.320Z</time>
      </trkpt>
      <trkpt lat="43.90282" lon="3.9751">
        <ele>123.3</ele>
        <time>2024-04-06T12:37:00.127Z</time>
      </trkpt>
      <trkpt lat="43.90284" lon="3.97515">
        <ele>123</ele>
        <time>2024-04-06T12:37:01.281Z</time>
      </trkpt>
      <trkpt lat="43.90285" lon="3.97519">
        <ele>122.8</ele>
        <time>2024-04-06T12:37:02.135Z</time>
      </trkpt>
      <trkpt lat="43.90287" lon="3.97522">
        <ele>122.7</ele>
        <time>2024-04-06T12:37:02.985Z</time>
      </trkpt>
      <trkpt lat="43.9029" lon="3.97524">
        <ele>122.7</ele>
        <time>2024-04-06T12:37:04.050Z</time>
      </trkpt>
      <trkpt lat="43.90292" lon="3.97524">
        <ele>122.7</ele>
        <time>2024-04-06T12:37:04.690Z</time>
      </trkpt>
      <trkpt lat="43.90294" lon="3.97522">
        <ele>122.9</ele>
        <time>2024-04-06T12:37:05.716Z</time>
      </trkpt>
      <trkpt lat="43.90294" lon="3.97519">
        <ele>123</ele>
        <time>2024-04-06T12:37:06.517Z</time>
      </trkpt>
      <trkpt lat="43.90294" lon="3.97515">
        <ele>123.2</ele>
        <time>2024-04-06T12:37:07.670Z</time>
      </trkpt>
      <trkpt lat="43.90294" lon="3.97512">
        <ele>123.4</ele>
        <time>2024-04-06T12:37:08.605Z</time>
      </trkpt>
      <trkpt lat="43.90296" lon="3.97509">
        <ele>123.6</ele>
        <time>2024-04-06T12:37:09.777Z</time>
      </trkpt>
      <trkpt lat="43.90299" lon="3.97509">
        <ele>123.6</ele>
        <time>2024-04-06T12:37:10.737Z</time>
      </trkpt>
      <trkpt lat="43.90302" lon="3.97509">
        <ele>123.6</ele>
        <time>2024-04-06T12:37:11.697Z</time>
      </trkpt>
      <trkpt lat="43.90304" lon="3.97509">
        <ele>123.7</ele>
        <time>2024-04-06T12:37:12.447Z</time>
      </trkpt>
      <trkpt lat="43.90307" lon="3.97508">
        <ele>123.8</ele>
        <time>2024-04-06T12:37:13.540Z</time>
      </trkpt>
      <trkpt lat="43.90308" lon="3.97506">
        <ele>123.9</ele>
        <time>2024-04-06T12:37:14.213Z</time>
      </trkpt>
      <trkpt lat="43.90308" lon="3.97503">
        <ele>124.1</ele>
        <time>2024-04-06T12:37:15.149Z</time>
      </trkpt>
      <trkpt lat="43.90309" lon="3.975">
        <ele>124.2</ele>
        <time>2024-04-06T12:37:16.019Z</time>
      </trkpt>
      <trkpt lat="43.90311" lon="3.97498">
        <ele>124.5</ele>
        <time>2024-04-06T12:37:17.201Z</time>
      </trkpt>
      <trkpt lat="43.90314" lon="3.97497">
        <ele>124.8</ele>
        <time>2024-04-06T12:37:18.558Z</time>
      </trkpt>
      <trkpt lat="43.90317" lon="3.97496">
        <ele>125.1</ele>
        <time>2024-04-06T12:37:19.915Z</time>
      </trkpt>
      <trkpt lat="43.90318" lon="3.97495">
        <ele>125.3</ele>
        <time>2024-04-06T12:37:20.601Z</time>
      </trkpt>
      <trkpt lat="43.90318" lon="3.9749">
        <ele>125.6</ele>
        <time>2024-04-06T12:37:22.112Z</time>
      </trkpt>
      <trkpt lat="43.90317" lon="3.97487">
        <ele>125.8</ele>
        <time>2024-04-06T12:37:23.112Z</time>
      </trkpt>
      <trkpt lat="43.90317" lon="3.97484">
        <ele>126</ele>
        <time>2024-04-06T12:37:24.048Z</time>
      </trkpt>
      <trkpt lat="43.90317" lon="3.9748">
        <ele>126.3</ele>
        <time>2024-04-06T12:37:25.346Z</time>
      </trkpt>
      <trkpt lat="43.90317" lon="3.97477">
        <ele>126.5</ele>
        <time>2024-04-06T12:37:26.282Z</time>
      </trkpt>
      <trkpt lat="43.90317" lon="3.97474">
        <ele>126.7</ele>
        <time>2024-04-06T12:37:27.217Z</time>
      </trkpt>
      <trkpt lat="43.90315" lon="3.97473">
        <ele>126.6</ele>
        <time>2024-04-06T12:37:27.812Z</time>
      </trkpt>
      <trkpt lat="43.90313" lon="3.97472">
        <ele>126.5</ele>
        <time>2024-04-06T12:37:28.408Z</time>
      </trkpt>
      <trkpt lat="43.90312" lon="3.97471">
        <ele>126.5</ele>
        <time>2024-04-06T12:37:28.802Z</time>
      </trkpt>
      <trkpt lat="43.90309" lon="3.9747">
        <ele>126.3</ele>
        <time>2024-04-06T12:37:29.666Z</time>
      </trkpt>
      <trkpt lat="43.90307" lon="3.97467">
        <ele>126.3</ele>
        <time>2024-04-06T12:37:30.608Z</time>
      </trkpt>
      <trkpt lat="43.90306" lon="3.97464">
        <ele>126.3</ele>
        <time>2024-04-06T12:37:31.370Z</time>
      </trkpt>
      <trkpt lat="43.90305" lon="3.97461">
        <ele>126.4</ele>
        <time>2024-04-06T12:37:32.240Z</time>
      </trkpt>
      <trkpt lat="43.90304" lon="3.97458">
        <ele>126.5</ele>
        <time>2024-04-06T12:37:33.110Z</time>
      </trkpt>
      <trkpt lat="43.90303" lon="3.97455">
        <ele>126.6</ele>
        <time>2024-04-06T12:37:33.981Z</time>
      </trkpt>
      <trkpt lat="43.90301" lon="3.97453">
        <ele>126.7</ele>
        <time>2024-04-06T12:37:34.877Z</time>
      </trkpt>
      <trkpt lat="43.903" lon="3.9745">
        <ele>126.8</ele>
        <time>2024-04-06T12:37:35.747Z</time>
      </trkpt>
      <trkpt lat="43.90298" lon="3.97449">
        <ele>126.8</ele>
        <time>2024-04-06T12:37:36.428Z</time>
      </trkpt>
      <trkpt lat="43.90295" lon="3.97448">
        <ele>126.9</ele>
        <time>2024-04-06T12:37:37.521Z</time>
      </trkpt>
      <trkpt lat="43.90292" lon="3.97447">
        <ele>126.9</ele>
        <time>2024-04-06T12:37:38.508Z</time>
      </trkpt>
      <trkpt lat="43.90289" lon="3.97447">
        <ele>126.9</ele>
        <time>2024-04-06T12:37:39.468Z</time>
      </trkpt>
      <trkpt lat="43.90287" lon="3.97446">
        <ele>126.9</ele>
        <time>2024-04-06T12:37:40.148Z</time>
      </trkpt>
      <trkpt lat="43.90285" lon="3.97445">
        <ele>127</ele>
        <time>2024-04-06T12:37:40.938Z</time>
      </trkpt>
      <trkpt lat="43.90282" lon="3.97444">
        <ele>127</ele>
        <time>2024-04-06T12:37:41.925Z</time>
      </trkpt>
      <trkpt lat="43.9028" lon="3.97443">
        <ele>127.1</ele>
        <time>2024-04-06T12:37:42.714Z</time>
      </trkpt>
      <trkpt lat="43.90278" lon="3.97443">
        <ele>127.1</ele>
        <time>2024-04-06T12:37:43.354Z</time>
      </trkpt>
      <trkpt lat="43.90275" lon="3.97443">
        <ele>127</ele>
        <time>2024-04-06T12:37:44.222Z</time>
      </trkpt>
      <trkpt lat="43.90273" lon="3.97443">
        <ele>126.9</ele>
        <time>2024-04-06T12:37:44.782Z</time>
      </trkpt>
      <trkpt lat="43.9027" lon="3.97441">
        <ele>126.8</ele>
        <time>2024-04-06T12:37:45.755Z</time>
      </trkpt>
      <trkpt lat="43.90268" lon="3.97438">
        <ele>126.9</ele>
        <time>2024-04-06T12:37:46.803Z</time>
      </trkpt>
      <trkpt lat="43.90266" lon="3.97436">
        <ele>126.9</ele>
        <time>2024-04-06T12:37:47.592Z</time>
      </trkpt>
      <trkpt lat="43.90264" lon="3.97434">
        <ele>126.9</ele>
        <time>2024-04-06T12:37:48.381Z</time>
      </trkpt>
      <trkpt lat="43.90263" lon="3.97432">
        <ele>126.9</ele>
        <time>2024-04-06T12:37:48.942Z</time>
      </trkpt>
      <trkpt lat="43.90261" lon="3.9743">
        <ele>126.9</ele>
        <time>2024-04-06T12:37:49.731Z</time>
      </trkpt>
      <trkpt lat="43.9026" lon="3.97426">
        <ele>127</ele>
        <time>2024-04-06T12:37:50.813Z</time>
      </trkpt>
      <trkpt lat="43.90259" lon="3.97423">
        <ele>127.1</ele>
        <time>2024-04-06T12:37:51.683Z</time>
      </trkpt>
      <trkpt lat="43.90258" lon="3.9742">
        <ele>127.2</ele>
        <time>2024-04-06T12:37:52.553Z</time>
      </trkpt>
      <trkpt lat="43.90257" lon="3.97418">
        <ele>127.2</ele>
        <time>2024-04-06T12:37:53.115Z</time>
      </trkpt>
      <trkpt lat="43.90256" lon="3.97415">
        <ele>127.3</ele>
        <time>2024-04-06T12:37:53.985Z</time>
      </trkpt>
      <trkpt lat="43.90254" lon="3.97414">
        <ele>127.3</ele>
        <time>2024-04-06T12:37:54.665Z</time>
      </trkpt>
      <trkpt lat="43.90252" lon="3.97412">
        <ele>127.4</ele>
        <time>2024-04-06T12:37:55.562Z</time>
      </trkpt>
      <trkpt lat="43.9025" lon="3.9741">
        <ele>127.5</ele>
        <time>2024-04-06T12:37:56.458Z</time>
      </trkpt>
      <trkpt lat="43.90248" lon="3.97406">
        <ele>127.7</ele>
        <time>2024-04-06T12:37:57.804Z</time>
      </trkpt>
      <trkpt lat="43.90248" lon="3.97403">
        <ele>127.9</ele>
        <time>2024-04-06T12:37:58.740Z</time>
      </trkpt>
      <trkpt lat="43.90247" lon="3.974">
        <ele>128.1</ele>
        <time>2024-04-06T12:37:59.741Z</time>
      </trkpt>
      <trkpt lat="43.90247" lon="3.97397">
        <ele>128.3</ele>
        <time>2024-04-06T12:38:00.676Z</time>
      </trkpt>
      <trkpt lat="43.90247" lon="3.97394">
        <ele>128.5</ele>
        <time>2024-04-06T12:38:01.612Z</time>
      </trkpt>
      <trkpt lat="43.90249" lon="3.97391">
        <ele>128.8</ele>
        <time>2024-04-06T12:38:02.928Z</time>
      </trkpt>
      <trkpt lat="43.9025" lon="3.97389">
        <ele>129</ele>
        <time>2024-04-06T12:38:03.746Z</time>
      </trkpt>
      <trkpt lat="43.90251" lon="3.97386">
        <ele>129.2</ele>
        <time>2024-04-06T12:38:04.747Z</time>
      </trkpt>
      <trkpt lat="43.90253" lon="3.97384">
        <ele>129.5</ele>
        <time>2024-04-06T12:38:05.929Z</time>
      </trkpt>
      <trkpt lat="43.90254" lon="3.97382">
        <ele>129.6</ele>
        <time>2024-04-06T12:38:06.603Z</time>
      </trkpt>
      <trkpt lat="43.90257" lon="3.97385">
        <ele>129.5</ele>
        <time>2024-04-06T12:38:07.693Z</time>
      </trkpt>
      <trkpt lat="43.90258" lon="3.97387">
        <ele>129.4</ele>
        <time>2024-04-06T12:38:08.184Z</time>
      </trkpt>
      <trkpt lat="43.90261" lon="3.97388">
        <ele>129.5</ele>
        <time>2024-04-06T12:38:09.277Z</time>
      </trkpt>
      <trkpt lat="43.90263" lon="3.97387">
        <ele>129.6</ele>
        <time>2024-04-06T12:38:10.066Z</time>
      </trkpt>
      <trkpt lat="43.90265" lon="3.97384">
        <ele>129.9</ele>
        <time>2024-04-06T12:38:11.383Z</time>
      </trkpt>
      <trkpt lat="43.90265" lon="3.97381">
        <ele>130.1</ele>
        <time>2024-04-06T12:38:12.318Z</time>
      </trkpt>
      <trkpt lat="43.90263" lon="3.97377">
        <ele>130.3</ele>
        <time>2024-04-06T12:38:13.665Z</time>
      </trkpt>
      <trkpt lat="43.90261" lon="3.97375">
        <ele>130.4</ele>
        <time>2024-04-06T12:38:14.561Z</time>
      </trkpt>
      <trkpt lat="43.90259" lon="3.97373">
        <ele>130.5</ele>
        <time>2024-04-06T12:38:15.458Z</time>
      </trkpt>
      <trkpt lat="43.90258" lon="3.97371">
        <ele>130.6</ele>
        <time>2024-04-06T12:38:16.131Z</time>
      </trkpt>
      <trkpt lat="43.9026" lon="3.97368">
        <ele>130.9</ele>
        <time>2024-04-06T12:38:17.448Z</time>
      </trkpt>
      <trkpt lat="43.90263" lon="3.97365">
        <ele>131.2</ele>
        <time>2024-04-06T12:38:18.986Z</time>
      </trkpt>
      <trkpt lat="43.90265" lon="3.97361">
        <ele>131.5</ele>
        <time>2024-04-06T12:38:20.468Z</time>
      </trkpt>
      <trkpt lat="43.90266" lon="3.97358">
        <ele>131.6</ele>
        <time>2024-04-06T12:38:21.339Z</time>
      </trkpt>
      <trkpt lat="43.90268" lon="3.97356">
        <ele>131.8</ele>
        <time>2024-04-06T12:38:22.364Z</time>
      </trkpt>
      <trkpt lat="43.9027" lon="3.97354">
        <ele>131.9</ele>
        <time>2024-04-06T12:38:23.261Z</time>
      </trkpt>
      <trkpt lat="43.90273" lon="3.97353">
        <ele>132.1</ele>
        <time>2024-04-06T12:38:24.476Z</time>
      </trkpt>
      <trkpt lat="43.90275" lon="3.97351">
        <ele>132.2</ele>
        <time>2024-04-06T12:38:25.373Z</time>
      </trkpt>
      <trkpt lat="43.90276" lon="3.97349">
        <ele>132.3</ele>
        <time>2024-04-06T12:38:26.046Z</time>
      </trkpt>
      <trkpt lat="43.90276" lon="3.97346">
        <ele>132.4</ele>
        <time>2024-04-06T12:38:26.847Z</time>
      </trkpt>
      <trkpt lat="43.90275" lon="3.97343">
        <ele>132.5</ele>
        <time>2024-04-06T12:38:27.717Z</time>
      </trkpt>
      <trkpt lat="43.90274" lon="3.97341">
        <ele>132.5</ele>
        <time>2024-04-06T12:38:28.278Z</time>
      </trkpt>
      <trkpt lat="43.90272" lon="3.97338">
        <ele>132.5</ele>
        <time>2024-04-06T12:38:29.221Z</time>
      </trkpt>
      <trkpt lat="43.90271" lon="3.97335">
        <ele>132.5</ele>
        <time>2024-04-06T12:38:29.983Z</time>
      </trkpt>
      <trkpt lat="43.9027" lon="3.97332">
        <ele>132.5</ele>
        <time>2024-04-06T12:38:30.745Z</time>
      </trkpt>
      <trkpt lat="43.90268" lon="3.9733">
        <ele>132.5</ele>
        <time>2024-04-06T12:38:31.533Z</time>
      </trkpt>
      <trkpt lat="43.90267" lon="3.97329">
        <ele>132.5</ele>
        <time>2024-04-06T12:38:31.928Z</time>
      </trkpt>
      <trkpt lat="43.90264" lon="3.97329">
        <ele>132.3</ele>
        <time>2024-04-06T12:38:32.768Z</time>
      </trkpt>
      <trkpt lat="43.90261" lon="3.97327">
        <ele>132.2</ele>
        <time>2024-04-06T12:38:33.740Z</time>
      </trkpt>
      <trkpt lat="43.90259" lon="3.97325">
        <ele>132.2</ele>
        <time>2024-04-06T12:38:34.529Z</time>
      </trkpt>
      <trkpt lat="43.9026" lon="3.9732">
        <ele>132.7</ele>
        <time>2024-04-06T12:38:36.402Z</time>
      </trkpt>
      <trkpt lat="43.90262" lon="3.97318">
        <ele>133</ele>
        <time>2024-04-06T12:38:37.584Z</time>
      </trkpt>
      <trkpt lat="43.90264" lon="3.97316">
        <ele>133.3</ele>
        <time>2024-04-06T12:38:38.766Z</time>
      </trkpt>
      <trkpt lat="43.90267" lon="3.97315">
        <ele>133.5</ele>
        <time>2024-04-06T12:38:39.981Z</time>
      </trkpt>
      <trkpt lat="43.90269" lon="3.97314">
        <ele>133.8</ele>
        <time>2024-04-06T12:38:41.075Z</time>
      </trkpt>
      <trkpt lat="43.9027" lon="3.97313">
        <ele>133.9</ele>
        <time>2024-04-06T12:38:41.588Z</time>
      </trkpt>
      <trkpt lat="43.90272" lon="3.97312">
        <ele>134.1</ele>
        <time>2024-04-06T12:38:42.513Z</time>
      </trkpt>
      <trkpt lat="43.90275" lon="3.97309">
        <ele>134.6</ele>
        <time>2024-04-06T12:38:44.375Z</time>
      </trkpt>
      <trkpt lat="43.90276" lon="3.97308">
        <ele>134.7</ele>
        <time>2024-04-06T12:38:44.888Z</time>
      </trkpt>
      <trkpt lat="43.90279" lon="3.97306">
        <ele>134.9</ele>
        <time>2024-04-06T12:38:46.178Z</time>
      </trkpt>
      <trkpt lat="43.90281" lon="3.97304">
        <ele>135.1</ele>
        <time>2024-04-06T12:38:47.204Z</time>
      </trkpt>
      <trkpt lat="43.90281" lon="3.97301">
        <ele>135.4</ele>
        <time>2024-04-06T12:38:48.307Z</time>
      </trkpt>
      <trkpt lat="43.9028" lon="3.97298">
        <ele>135.8</ele>
        <time>2024-04-06T12:38:49.661Z</time>
      </trkpt>
      <trkpt lat="43.9028" lon="3.97296">
        <ele>136</ele>
        <time>2024-04-06T12:38:50.396Z</time>
      </trkpt>
      <trkpt lat="43.90278" lon="3.97292">
        <ele>136.5</ele>
        <time>2024-04-06T12:38:52.210Z</time>
      </trkpt>
      <trkpt lat="43.90277" lon="3.97288">
        <ele>136.8</ele>
        <time>2024-04-06T12:38:53.557Z</time>
      </trkpt>
      <trkpt lat="43.90274" lon="3.97285">
        <ele>136.8</ele>
        <time>2024-04-06T12:38:54.740Z</time>
      </trkpt>
      <trkpt lat="43.9027" lon="3.97285">
        <ele>136.5</ele>
        <time>2024-04-06T12:38:55.860Z</time>
      </trkpt>
      <trkpt lat="43.90269" lon="3.97287">
        <ele>136.2</ele>
        <time>2024-04-06T12:38:56.351Z</time>
      </trkpt>
      <trkpt lat="43.90267" lon="3.9729">
        <ele>135.7</ele>
        <time>2024-04-06T12:38:57.176Z</time>
      </trkpt>
      <trkpt lat="43.90265" lon="3.97291">
        <ele>135.4</ele>
        <time>2024-04-06T12:38:57.771Z</time>
      </trkpt>
      <trkpt lat="43.90263" lon="3.97292">
        <ele>135.1</ele>
        <time>2024-04-06T12:38:58.366Z</time>
      </trkpt>
      <trkpt lat="43.90261" lon="3.97292">
        <ele>135</ele>
        <time>2024-04-06T12:38:58.926Z</time>
      </trkpt>
      <trkpt lat="43.90258" lon="3.97291">
        <ele>134.8</ele>
        <time>2024-04-06T12:38:59.790Z</time>
      </trkpt>
      <trkpt lat="43.90256" lon="3.97291">
        <ele>134.6</ele>
        <time>2024-04-06T12:39:00.350Z</time>
      </trkpt>
      <trkpt lat="43.90255" lon="3.9729">
        <ele>134.6</ele>
        <time>2024-04-06T12:39:00.744Z</time>
      </trkpt>
      <trkpt lat="43.90253" lon="3.97287">
        <ele>134.6</ele>
        <time>2024-04-06T12:39:01.687Z</time>
      </trkpt>
      <trkpt lat="43.90252" lon="3.97283">
        <ele>134.8</ele>
        <time>2024-04-06T12:39:02.891Z</time>
      </trkpt>
      <trkpt lat="43.90253" lon="3.97281">
        <ele>135.1</ele>
        <time>2024-04-06T12:39:03.900Z</time>
      </trkpt>
      <trkpt lat="43.9025" lon="3.97279">
        <ele>134.9</ele>
        <time>2024-04-06T12:39:04.832Z</time>
      </trkpt>
      <trkpt lat="43.90248" lon="3.97278">
        <ele>135.1</ele>
        <time>2024-04-06T12:39:05.757Z</time>
      </trkpt>
      <trkpt lat="43.90247" lon="3.97277">
        <ele>135.3</ele>
        <time>2024-04-06T12:39:06.443Z</time>
      </trkpt>
      <trkpt lat="43.90244" lon="3.97275">
        <ele>135.7</ele>
        <time>2024-04-06T12:39:08.030Z</time>
      </trkpt>
      <trkpt lat="43.90242" lon="3.97274">
        <ele>135.9</ele>
        <time>2024-04-06T12:39:08.955Z</time>
      </trkpt>
      <trkpt lat="43.9024" lon="3.97273">
        <ele>136.2</ele>
        <time>2024-04-06T12:39:10.049Z</time>
      </trkpt>
      <trkpt lat="43.90238" lon="3.97271">
        <ele>136.6</ele>
        <time>2024-04-06T12:39:11.421Z</time>
      </trkpt>
      <trkpt lat="43.90236" lon="3.97271">
        <ele>136.7</ele>
        <time>2024-04-06T12:39:12.171Z</time>
      </trkpt>
      <trkpt lat="43.90232" lon="3.97281">
        <ele>136.1</ele>
        <time>2024-04-06T12:39:14.478Z</time>
      </trkpt>
      <trkpt lat="43.9023" lon="3.97283">
        <ele>136.1</ele>
        <time>2024-04-06T12:39:15.267Z</time>
      </trkpt>
      <trkpt lat="43.90227" lon="3.97288">
        <ele>135.9</ele>
        <time>2024-04-06T12:39:16.587Z</time>
      </trkpt>
      <trkpt lat="43.90227" lon="3.97291">
        <ele>135.7</ele>
        <time>2024-04-06T12:39:17.192Z</time>
      </trkpt>
      <trkpt lat="43.90227" lon="3.97294">
        <ele>135.5</ele>
        <time>2024-04-06T12:39:17.797Z</time>
      </trkpt>
      <trkpt lat="43.90226" lon="3.97298">
        <ele>135.3</ele>
        <time>2024-04-06T12:39:18.652Z</time>
      </trkpt>
      <trkpt lat="43.90225" lon="3.97299">
        <ele>135.3</ele>
        <time>2024-04-06T12:39:19.046Z</time>
      </trkpt>
      <trkpt lat="43.90223" lon="3.97301">
        <ele>135.3</ele>
        <time>2024-04-06T12:39:19.835Z</time>
      </trkpt>
      <trkpt lat="43.90221" lon="3.97302">
        <ele>135.6</ele>
        <time>2024-04-06T12:39:20.928Z</time>
      </trkpt>
      <trkpt lat="43.90219" lon="3.97303">
        <ele>136</ele>
        <time>2024-04-06T12:39:22.234Z</time>
      </trkpt>
      <trkpt lat="43.90217" lon="3.97303">
        <ele>136.6</ele>
        <time>2024-04-06T12:39:24.168Z</time>
      </trkpt>
      <trkpt lat="43.90214" lon="3.97305">
        <ele>137.1</ele>
        <time>2024-04-06T12:39:25.939Z</time>
      </trkpt>
      <trkpt lat="43.90213" lon="3.97308">
        <ele>137</ele>
        <time>2024-04-06T12:39:26.611Z</time>
      </trkpt>
      <trkpt lat="43.90214" lon="3.97312">
        <ele>136.1</ele>
        <time>2024-04-06T12:39:27.465Z</time>
      </trkpt>
      <trkpt lat="43.90215" lon="3.97314">
        <ele>135.6</ele>
        <time>2024-04-06T12:39:27.956Z</time>
      </trkpt>
      <trkpt lat="43.90217" lon="3.97317">
        <ele>134.7</ele>
        <time>2024-04-06T12:39:28.781Z</time>
      </trkpt>
      <trkpt lat="43.90218" lon="3.9732">
        <ele>134</ele>
        <time>2024-04-06T12:39:29.447Z</time>
      </trkpt>
      <trkpt lat="43.90218" lon="3.97323">
        <ele>133.6</ele>
        <time>2024-04-06T12:39:30.053Z</time>
      </trkpt>
      <trkpt lat="43.90218" lon="3.97326">
        <ele>133.1</ele>
        <time>2024-04-06T12:39:30.658Z</time>
      </trkpt>
      <trkpt lat="43.90218" lon="3.97331">
        <ele>132.4</ele>
        <time>2024-04-06T12:39:31.666Z</time>
      </trkpt>
      <trkpt lat="43.90219" lon="3.97336">
        <ele>131.7</ele>
        <time>2024-04-06T12:39:32.713Z</time>
      </trkpt>
      <trkpt lat="43.90219" lon="3.9734">
        <ele>131.5</ele>
        <time>2024-04-06T12:39:33.520Z</time>
      </trkpt>
      <trkpt lat="43.90219" lon="3.97345">
        <ele>131.2</ele>
        <time>2024-04-06T12:39:34.529Z</time>
      </trkpt>
      <trkpt lat="43.90218" lon="3.97349">
        <ele>131.2</ele>
        <time>2024-04-06T12:39:35.505Z</time>
      </trkpt>
      <trkpt lat="43.90218" lon="3.97352">
        <ele>131</ele>
        <time>2024-04-06T12:39:36.110Z</time>
      </trkpt>
      <trkpt lat="43.90218" lon="3.97355">
        <ele>130.8</ele>
        <time>2024-04-06T12:39:36.715Z</time>
      </trkpt>
      <trkpt lat="43.90218" lon="3.97358">
        <ele>130.6</ele>
        <time>2024-04-06T12:39:37.320Z</time>
      </trkpt>
      <trkpt lat="43.90218" lon="3.97361">
        <ele>130.5</ele>
        <time>2024-04-06T12:39:37.926Z</time>
      </trkpt>
      <trkpt lat="43.90218" lon="3.97364">
        <ele>130.2</ele>
        <time>2024-04-06T12:39:38.531Z</time>
      </trkpt>
      <trkpt lat="43.90218" lon="3.97367">
        <ele>129.9</ele>
        <time>2024-04-06T12:39:39.136Z</time>
      </trkpt>
      <trkpt lat="43.90218" lon="3.9737">
        <ele>129.5</ele>
        <time>2024-04-06T12:39:39.741Z</time>
      </trkpt>
      <trkpt lat="43.90217" lon="3.97373">
        <ele>129.4</ele>
        <time>2024-04-06T12:39:40.413Z</time>
      </trkpt>
      <trkpt lat="43.90216" lon="3.97376">
        <ele>129.2</ele>
        <time>2024-04-06T12:39:41.080Z</time>
      </trkpt>
      <trkpt lat="43.90215" lon="3.97378">
        <ele>129.1</ele>
        <time>2024-04-06T12:39:41.571Z</time>
      </trkpt>
      <trkpt lat="43.90214" lon="3.97381">
        <ele>129</ele>
        <time>2024-04-06T12:39:42.243Z</time>
      </trkpt>
      <trkpt lat="43.90213" lon="3.97384">
        <ele>128.8</ele>
        <time>2024-04-06T12:39:42.910Z</time>
      </trkpt>
      <trkpt lat="43.90211" lon="3.97387">
        <ele>128.8</ele>
        <time>2024-04-06T12:39:43.852Z</time>
      </trkpt>
      <trkpt lat="43.90208" lon="3.9739">
        <ele>129</ele>
        <time>2024-04-06T12:39:45.257Z</time>
      </trkpt>
      <trkpt lat="43.90205" lon="3.97393">
        <ele>129.1</ele>
        <time>2024-04-06T12:39:46.545Z</time>
      </trkpt>
      <trkpt lat="43.90203" lon="3.97395">
        <ele>129.2</ele>
        <time>2024-04-06T12:39:47.442Z</time>
      </trkpt>
      <trkpt lat="43.90201" lon="3.97397">
        <ele>129.2</ele>
        <time>2024-04-06T12:39:48.230Z</time>
      </trkpt>
      <trkpt lat="43.902" lon="3.974">
        <ele>128.9</ele>
        <time>2024-04-06T12:39:48.897Z</time>
      </trkpt>
      <trkpt lat="43.90198" lon="3.97403">
        <ele>128.7</ele>
        <time>2024-04-06T12:39:49.722Z</time>
      </trkpt>
      <trkpt lat="43.90197" lon="3.97407">
        <ele>128.3</ele>
        <time>2024-04-06T12:39:50.576Z</time>
      </trkpt>
      <trkpt lat="43.90197" lon="3.97412">
        <ele>127.6</ele>
        <time>2024-04-06T12:39:51.585Z</time>
      </trkpt>
      <trkpt lat="43.90197" lon="3.97417">
        <ele>127</ele>
        <time>2024-04-06T12:39:52.593Z</time>
      </trkpt>
      <trkpt lat="43.90196" lon="3.97424">
        <ele>126.2</ele>
        <time>2024-04-06T12:39:54.033Z</time>
      </trkpt>
      <trkpt lat="43.90194" lon="3.97429">
        <ele>125.8</ele>
        <time>2024-04-06T12:39:55.186Z</time>
      </trkpt>
      <trkpt lat="43.90191" lon="3.97434">
        <ele>126.1</ele>
        <time>2024-04-06T12:39:57.028Z</time>
      </trkpt>
      <trkpt lat="43.90189" lon="3.97437">
        <ele>126.3</ele>
        <time>2024-04-06T12:39:58.200Z</time>
      </trkpt>
      <trkpt lat="43.90187" lon="3.97439">
        <ele>126.6</ele>
        <time>2024-04-06T12:39:59.382Z</time>
      </trkpt>
      <trkpt lat="43.90185" lon="3.9744">
        <ele>127</ele>
        <time>2024-04-06T12:40:00.688Z</time>
      </trkpt>
      <trkpt lat="43.90184" lon="3.97442">
        <ele>127</ele>
        <time>2024-04-06T12:40:01.249Z</time>
      </trkpt>
      <trkpt lat="43.90182" lon="3.97443">
        <ele>127.4</ele>
        <time>2024-04-06T12:40:02.555Z</time>
      </trkpt>
      <trkpt lat="43.9018" lon="3.97444">
        <ele>127.7</ele>
        <time>2024-04-06T12:40:03.649Z</time>
      </trkpt>
      <trkpt lat="43.90177" lon="3.97446">
        <ele>128.2</ele>
        <time>2024-04-06T12:40:05.420Z</time>
      </trkpt>
      <trkpt lat="43.90174" lon="3.97448">
        <ele>128.6</ele>
        <time>2024-04-06T12:40:07.007Z</time>
      </trkpt>
      <trkpt lat="43.90173" lon="3.97453">
        <ele>127.9</ele>
        <time>2024-04-06T12:40:08.054Z</time>
      </trkpt>
      <trkpt lat="43.90173" lon="3.97456">
        <ele>127.4</ele>
        <time>2024-04-06T12:40:08.659Z</time>
      </trkpt>
      <trkpt lat="43.90172" lon="3.97459">
        <ele>127</ele>
        <time>2024-04-06T12:40:09.326Z</time>
      </trkpt>
      <trkpt lat="43.90173" lon="3.97464">
        <ele>126</ele>
        <time>2024-04-06T12:40:10.373Z</time>
      </trkpt>
      <trkpt lat="43.90173" lon="3.97469">
        <ele>125.1</ele>
        <time>2024-04-06T12:40:11.381Z</time>
      </trkpt>
      <trkpt lat="43.90173" lon="3.97474">
        <ele>124.5</ele>
        <time>2024-04-06T12:40:12.390Z</time>
      </trkpt>
      <trkpt lat="43.90172" lon="3.97479">
        <ele>124.3</ele>
        <time>2024-04-06T12:40:13.437Z</time>
      </trkpt>
      <trkpt lat="43.9017" lon="3.97481">
        <ele>124.4</ele>
        <time>2024-04-06T12:40:14.333Z</time>
      </trkpt>
      <trkpt lat="43.90169" lon="3.97481">
        <ele>124.5</ele>
        <time>2024-04-06T12:40:14.778Z</time>
      </trkpt>
      <trkpt lat="43.90167" lon="3.9748">
        <ele>124.7</ele>
        <time>2024-04-06T12:40:15.703Z</time>
      </trkpt>
      <trkpt lat="43.90165" lon="3.9748">
        <ele>125</ele>
        <time>2024-04-06T12:40:16.766Z</time>
      </trkpt>
      <trkpt lat="43.90162" lon="3.97482">
        <ele>125.5</ele>
        <time>2024-04-06T12:40:18.537Z</time>
      </trkpt>
      <trkpt lat="43.9016" lon="3.97483">
        <ele>125.8</ele>
        <time>2024-04-06T12:40:19.630Z</time>
      </trkpt>
      <trkpt lat="43.90159" lon="3.97484">
        <ele>126</ele>
        <time>2024-04-06T12:40:20.316Z</time>
      </trkpt>
      <trkpt lat="43.90156" lon="3.97487">
        <ele>126.4</ele>
        <time>2024-04-06T12:40:22.006Z</time>
      </trkpt>
      <trkpt lat="43.90154" lon="3.97491">
        <ele>126.6</ele>
        <time>2024-04-06T12:40:23.353Z</time>
      </trkpt>
      <trkpt lat="43.90154" lon="3.97495">
        <ele>126.5</ele>
        <time>2024-04-06T12:40:24.183Z</time>
      </trkpt>
      <trkpt lat="43.90153" lon="3.97498">
        <ele>126.5</ele>
        <time>2024-04-06T12:40:24.946Z</time>
      </trkpt>
      <trkpt lat="43.90152" lon="3.97503">
        <ele>126.5</ele>
        <time>2024-04-06T12:40:26.142Z</time>
      </trkpt>
      <trkpt lat="43.90151" lon="3.97505">
        <ele>126.5</ele>
        <time>2024-04-06T12:40:26.703Z</time>
      </trkpt>
      <trkpt lat="43.9015" lon="3.97507">
        <ele>126.6</ele>
        <time>2024-04-06T12:40:27.376Z</time>
      </trkpt>
      <trkpt lat="43.90149" lon="3.97509">
        <ele>126.6</ele>
        <time>2024-04-06T12:40:27.938Z</time>
      </trkpt>
      <trkpt lat="43.90149" lon="3.97514">
        <ele>126.4</ele>
        <time>2024-04-06T12:40:28.946Z</time>
      </trkpt>
      <trkpt lat="43.9015" lon="3.97519">
        <ele>125.9</ele>
        <time>2024-04-06T12:40:29.993Z</time>
      </trkpt>
      <trkpt lat="43.90151" lon="3.97521">
        <ele>125.6</ele>
        <time>2024-04-06T12:40:30.484Z</time>
      </trkpt>
      <trkpt lat="43.90152" lon="3.97525">
        <ele>125.3</ele>
        <time>2024-04-06T12:40:31.338Z</time>
      </trkpt>
      <trkpt lat="43.90153" lon="3.97527">
        <ele>125</ele>
        <time>2024-04-06T12:40:31.829Z</time>
      </trkpt>
      <trkpt lat="43.90156" lon="3.9753">
        <ele>124.4</ele>
        <time>2024-04-06T12:40:32.865Z</time>
      </trkpt>
      <trkpt lat="43.90158" lon="3.97531">
        <ele>124.1</ele>
        <time>2024-04-06T12:40:33.460Z</time>
      </trkpt>
      <trkpt lat="43.9016" lon="3.97533">
        <ele>123.8</ele>
        <time>2024-04-06T12:40:34.150Z</time>
      </trkpt>
      <trkpt lat="43.90162" lon="3.97535">
        <ele>123.5</ele>
        <time>2024-04-06T12:40:34.840Z</time>
      </trkpt>
      <trkpt lat="43.90164" lon="3.97536">
        <ele>123.3</ele>
        <time>2024-04-06T12:40:35.435Z</time>
      </trkpt>
      <trkpt lat="43.90167" lon="3.97537">
        <ele>123</ele>
        <time>2024-04-06T12:40:36.299Z</time>
      </trkpt>
      <trkpt lat="43.90171" lon="3.97537">
        <ele>122.7</ele>
        <time>2024-04-06T12:40:37.419Z</time>
      </trkpt>
      <trkpt lat="43.90174" lon="3.97535">
        <ele>122.5</ele>
        <time>2024-04-06T12:40:38.351Z</time>
      </trkpt>
      <trkpt lat="43.90177" lon="3.97534">
        <ele>122.4</ele>
        <time>2024-04-06T12:40:39.246Z</time>
      </trkpt>
      <trkpt lat="43.90181" lon="3.97533">
        <ele>122.2</ele>
        <time>2024-04-06T12:40:40.384Z</time>
      </trkpt>
      <trkpt lat="43.90183" lon="3.97533">
        <ele>122.1</ele>
        <time>2024-04-06T12:40:40.944Z</time>
      </trkpt>
      <trkpt lat="43.90184" lon="3.97533">
        <ele>122</ele>
        <time>2024-04-06T12:40:41.224Z</time>
      </trkpt>
      <trkpt lat="43.90191" lon="3.97537">
        <ele>121.3</ele>
        <time>2024-04-06T12:40:43.343Z</time>
      </trkpt>
      <trkpt lat="43.90192" lon="3.97542">
        <ele>120.7</ele>
        <time>2024-04-06T12:40:44.390Z</time>
      </trkpt>
      <trkpt lat="43.90193" lon="3.97545">
        <ele>120.3</ele>
        <time>2024-04-06T12:40:45.057Z</time>
      </trkpt>
      <trkpt lat="43.90193" lon="3.97547">
        <ele>120.1</ele>
        <time>2024-04-06T12:40:45.460Z</time>
      </trkpt>
      <trkpt lat="43.90192" lon="3.97551">
        <ele>119.8</ele>
        <time>2024-04-06T12:40:46.315Z</time>
      </trkpt>
      <trkpt lat="43.90191" lon="3.97554">
        <ele>119.6</ele>
        <time>2024-04-06T12:40:46.981Z</time>
      </trkpt>
      <trkpt lat="43.9019" lon="3.97556">
        <ele>119.7</ele>
        <time>2024-04-06T12:40:47.655Z</time>
      </trkpt>
      <trkpt lat="43.90189" lon="3.97559">
        <ele>120</ele>
        <time>2024-04-06T12:40:48.814Z</time>
      </trkpt>
      <trkpt lat="43.9019" lon="3.97562">
        <ele>120.1</ele>
        <time>2024-04-06T12:40:49.685Z</time>
      </trkpt>
      <trkpt lat="43.9019" lon="3.97565">
        <ele>120.3</ele>
        <time>2024-04-06T12:40:50.620Z</time>
      </trkpt>
      <trkpt lat="43.9019" lon="3.97569">
        <ele>120.5</ele>
        <time>2024-04-06T12:40:51.773Z</time>
      </trkpt>
      <trkpt lat="43.9019" lon="3.97573">
        <ele>120.8</ele>
        <time>2024-04-06T12:40:53.071Z</time>
      </trkpt>
      <trkpt lat="43.9019" lon="3.97576">
        <ele>121</ele>
        <time>2024-04-06T12:40:54.007Z</time>
      </trkpt>
      <trkpt lat="43.90191" lon="3.9758">
        <ele>121.1</ele>
        <time>2024-04-06T12:40:55.089Z</time>
      </trkpt>
      <trkpt lat="43.9019" lon="3.97584">
        <ele>121.4</ele>
        <time>2024-04-06T12:40:56.436Z</time>
      </trkpt>
      <trkpt lat="43.90189" lon="3.97588">
        <ele>121.1</ele>
        <time>2024-04-06T12:40:57.290Z</time>
      </trkpt>
      <trkpt lat="43.90188" lon="3.97592">
        <ele>120.9</ele>
        <time>2024-04-06T12:40:58.144Z</time>
      </trkpt>
      <trkpt lat="43.90187" lon="3.97596">
        <ele>120.7</ele>
        <time>2024-04-06T12:40:58.998Z</time>
      </trkpt>
      <trkpt lat="43.90186" lon="3.976">
        <ele>120.5</ele>
        <time>2024-04-06T12:40:59.852Z</time>
      </trkpt>
      <trkpt lat="43.90185" lon="3.97605">
        <ele>120.2</ele>
        <time>2024-04-06T12:41:00.899Z</time>
      </trkpt>
      <trkpt lat="43.90185" lon="3.97611">
        <ele>119.7</ele>
        <time>2024-04-06T12:41:02.109Z</time>
      </trkpt>
      <trkpt lat="43.90185" lon="3.97616">
        <ele>119.6</ele>
        <time>2024-04-06T12:41:03.169Z</time>
      </trkpt>
      <trkpt lat="43.90187" lon="3.97621">
        <ele>119.1</ele>
        <time>2024-04-06T12:41:04.323Z</time>
      </trkpt>
      <trkpt lat="43.90189" lon="3.97626">
        <ele>118.8</ele>
        <time>2024-04-06T12:41:05.477Z</time>
      </trkpt>
      <trkpt lat="43.90191" lon="3.97632">
        <ele>118.4</ele>
        <time>2024-04-06T12:41:06.810Z</time>
      </trkpt>
      <trkpt lat="43.90193" lon="3.97638">
        <ele>118.2</ele>
        <time>2024-04-06T12:41:08.154Z</time>
      </trkpt>
      <trkpt lat="43.90195" lon="3.97642">
        <ele>118.1</ele>
        <time>2024-04-06T12:41:09.184Z</time>
      </trkpt>
      <trkpt lat="43.90197" lon="3.97646">
        <ele>118.1</ele>
        <time>2024-04-06T12:41:10.306Z</time>
      </trkpt>
      <trkpt lat="43.90198" lon="3.97648">
        <ele>118.1</ele>
        <time>2024-04-06T12:41:10.868Z</time>
      </trkpt>
      <trkpt lat="43.90201" lon="3.97652">
        <ele>118.1</ele>
        <time>2024-04-06T12:41:12.199Z</time>
      </trkpt>
      <trkpt lat="43.90203" lon="3.97656">
        <ele>118.2</ele>
        <time>2024-04-06T12:41:13.426Z</time>
      </trkpt>
      <trkpt lat="43.90205" lon="3.9766">
        <ele>118.3</ele>
        <time>2024-04-06T12:41:14.653Z</time>
      </trkpt>
      <trkpt lat="43.90207" lon="3.97663">
        <ele>118.4</ele>
        <time>2024-04-06T12:41:15.702Z</time>
      </trkpt>
      <trkpt lat="43.90209" lon="3.97665">
        <ele>118.4</ele>
        <time>2024-04-06T12:41:16.491Z</time>
      </trkpt>
      <trkpt lat="43.90212" lon="3.97667">
        <ele>118.4</ele>
        <time>2024-04-06T12:41:17.556Z</time>
      </trkpt>
      <trkpt lat="43.90215" lon="3.97668">
        <ele>118.4</ele>
        <time>2024-04-06T12:41:18.543Z</time>
      </trkpt>
      <trkpt lat="43.90218" lon="3.97669">
        <ele>118.3</ele>
        <time>2024-04-06T12:41:19.438Z</time>
      </trkpt>
      <trkpt lat="43.90221" lon="3.97668">
        <ele>118.1</ele>
        <time>2024-04-06T12:41:20.302Z</time>
      </trkpt>
      <trkpt lat="43.90223" lon="3.97668">
        <ele>118</ele>
        <time>2024-04-06T12:41:20.862Z</time>
      </trkpt>
      <trkpt lat="43.90226" lon="3.97668">
        <ele>117.7</ele>
        <time>2024-04-06T12:41:21.702Z</time>
      </trkpt>
      <trkpt lat="43.9023" lon="3.9767">
        <ele>117.4</ele>
        <time>2024-04-06T12:41:22.892Z</time>
      </trkpt>
      <trkpt lat="43.90234" lon="3.9767">
        <ele>117</ele>
        <time>2024-04-06T12:41:24.012Z</time>
      </trkpt>
      <trkpt lat="43.90239" lon="3.9767">
        <ele>116.4</ele>
        <time>2024-04-06T12:41:25.412Z</time>
      </trkpt>
      <trkpt lat="43.90244" lon="3.97671">
        <ele>116</ele>
        <time>2024-04-06T12:41:26.826Z</time>
      </trkpt>
      <trkpt lat="43.90248" lon="3.97673">
        <ele>115.7</ele>
        <time>2024-04-06T12:41:28.017Z</time>
      </trkpt>
      <trkpt lat="43.90253" lon="3.97676">
        <ele>115.4</ele>
        <time>2024-04-06T12:41:29.542Z</time>
      </trkpt>
      <trkpt lat="43.90257" lon="3.97678">
        <ele>115.2</ele>
        <time>2024-04-06T12:41:30.732Z</time>
      </trkpt>
      <trkpt lat="43.9026" lon="3.97679">
        <ele>115</ele>
        <time>2024-04-06T12:41:31.596Z</time>
      </trkpt>
      <trkpt lat="43.90264" lon="3.97678">
        <ele>114.6</ele>
        <time>2024-04-06T12:41:32.734Z</time>
      </trkpt>
      <trkpt lat="43.90266" lon="3.97677">
        <ele>114.4</ele>
        <time>2024-04-06T12:41:33.329Z</time>
      </trkpt>
      <trkpt lat="43.90268" lon="3.97677">
        <ele>114.2</ele>
        <time>2024-04-06T12:41:33.889Z</time>
      </trkpt>
      <trkpt lat="43.9027" lon="3.97676">
        <ele>114</ele>
        <time>2024-04-06T12:41:34.484Z</time>
      </trkpt>
      <trkpt lat="43.90274" lon="3.97674">
        <ele>113.6</ele>
        <time>2024-04-06T12:41:35.674Z</time>
      </trkpt>
      <trkpt lat="43.90276" lon="3.97672">
        <ele>113.3</ele>
        <time>2024-04-06T12:41:36.365Z</time>
      </trkpt>
      <trkpt lat="43.90277" lon="3.97669">
        <ele>113.1</ele>
        <time>2024-04-06T12:41:37.031Z</time>
      </trkpt>
      <trkpt lat="43.90279" lon="3.97666">
        <ele>113</ele>
        <time>2024-04-06T12:41:37.882Z</time>
      </trkpt>
      <trkpt lat="43.9028" lon="3.97665">
        <ele>112.9</ele>
        <time>2024-04-06T12:41:38.227Z</time>
      </trkpt>
      <trkpt lat="43.90284" lon="3.97665">
        <ele>112.8</ele>
        <time>2024-04-06T12:41:39.414Z</time>
      </trkpt>
      <trkpt lat="43.90285" lon="3.97667">
        <ele>112.7</ele>
        <time>2024-04-06T12:41:39.905Z</time>
      </trkpt>
      <trkpt lat="43.90287" lon="3.9767">
        <ele>112.7</ele>
        <time>2024-04-06T12:41:40.847Z</time>
      </trkpt>
      <trkpt lat="43.90288" lon="3.97673">
        <ele>112.8</ele>
        <time>2024-04-06T12:41:41.717Z</time>
      </trkpt>
      <trkpt lat="43.90288" lon="3.97676">
        <ele>112.8</ele>
        <time>2024-04-06T12:41:42.409Z</time>
      </trkpt>
      <trkpt lat="43.90287" lon="3.97678">
        <ele>112.9</ele>
        <time>2024-04-06T12:41:43.082Z</time>
      </trkpt>
      <trkpt lat="43.90285" lon="3.97679">
        <ele>113.1</ele>
        <time>2024-04-06T12:41:44.007Z</time>
      </trkpt>
      <trkpt lat="43.90282" lon="3.97681">
        <ele>113.3</ele>
        <time>2024-04-06T12:41:45.297Z</time>
      </trkpt>
      <trkpt lat="43.9028" lon="3.97684">
        <ele>113.5</ele>
        <time>2024-04-06T12:41:46.469Z</time>
      </trkpt>
      <trkpt lat="43.90278" lon="3.97686">
        <ele>113.7</ele>
        <time>2024-04-06T12:41:47.495Z</time>
      </trkpt>
      <trkpt lat="43.90277" lon="3.97689">
        <ele>113.9</ele>
        <time>2024-04-06T12:41:48.496Z</time>
      </trkpt>
      <trkpt lat="43.90275" lon="3.97691">
        <ele>114.2</ele>
        <time>2024-04-06T12:41:49.678Z</time>
      </trkpt>
      <trkpt lat="43.90273" lon="3.97693">
        <ele>114.5</ele>
        <time>2024-04-06T12:41:50.860Z</time>
      </trkpt>
      <trkpt lat="43.90271" lon="3.97695">
        <ele>114.8</ele>
        <time>2024-04-06T12:41:52.042Z</time>
      </trkpt>
      <trkpt lat="43.90269" lon="3.97696">
        <ele>115.2</ele>
        <time>2024-04-06T12:41:53.348Z</time>
      </trkpt>
      <trkpt lat="43.90266" lon="3.97697">
        <ele>115.7</ele>
        <time>2024-04-06T12:41:55.064Z</time>
      </trkpt>
      <trkpt lat="43.90263" lon="3.97697">
        <ele>116.1</ele>
        <time>2024-04-06T12:41:56.564Z</time>
      </trkpt>
      <trkpt lat="43.90261" lon="3.97696">
        <ele>116.1</ele>
        <time>2024-04-06T12:41:57.245Z</time>
      </trkpt>
      <trkpt lat="43.90259" lon="3.97695">
        <ele>116.1</ele>
        <time>2024-04-06T12:41:57.925Z</time>
      </trkpt>
      <trkpt lat="43.90257" lon="3.97693">
        <ele>116.2</ele>
        <time>2024-04-06T12:41:58.821Z</time>
      </trkpt>
      <trkpt lat="43.90255" lon="3.97692">
        <ele>116.3</ele>
        <time>2024-04-06T12:41:59.611Z</time>
      </trkpt>
      <trkpt lat="43.90253" lon="3.9769">
        <ele>116.4</ele>
        <time>2024-04-06T12:42:00.507Z</time>
      </trkpt>
      <trkpt lat="43.90251" lon="3.97689">
        <ele>116.5</ele>
        <time>2024-04-06T12:42:01.297Z</time>
      </trkpt>
      <trkpt lat="43.90249" lon="3.97689">
        <ele>116.7</ele>
        <time>2024-04-06T12:42:02.185Z</time>
      </trkpt>
      <trkpt lat="43.90248" lon="3.97689">
        <ele>116.8</ele>
        <time>2024-04-06T12:42:02.629Z</time>
      </trkpt>
      <trkpt lat="43.90246" lon="3.97689">
        <ele>117</ele>
        <time>2024-04-06T12:42:03.518Z</time>
      </trkpt>
      <trkpt lat="43.90244" lon="3.97689">
        <ele>117.3</ele>
        <time>2024-04-06T12:42:04.581Z</time>
      </trkpt>
      <trkpt lat="43.90242" lon="3.97692">
        <ele>117.7</ele>
        <time>2024-04-06T12:42:06.067Z</time>
      </trkpt>
      <trkpt lat="43.90243" lon="3.97695">
        <ele>117.9</ele>
        <time>2024-04-06T12:42:07.068Z</time>
      </trkpt>
      <trkpt lat="43.90244" lon="3.977">
        <ele>118.7</ele>
        <time>2024-04-06T12:42:09.609Z</time>
      </trkpt>
      <trkpt lat="43.90244" lon="3.97704">
        <ele>119.4</ele>
        <time>2024-04-06T12:42:11.810Z</time>
      </trkpt>
      <trkpt lat="43.90243" lon="3.97706">
        <ele>119.9</ele>
        <time>2024-04-06T12:42:13.403Z</time>
      </trkpt>
      <trkpt lat="43.90241" lon="3.97706">
        <ele>120.2</ele>
        <time>2024-04-06T12:42:14.466Z</time>
      </trkpt>
      <trkpt lat="43.90239" lon="3.97704">
        <ele>120</ele>
        <time>2024-04-06T12:42:15.156Z</time>
      </trkpt>
      <trkpt lat="43.90236" lon="3.97703">
        <ele>120.2</ele>
        <time>2024-04-06T12:42:16.372Z</time>
      </trkpt>
      <trkpt lat="43.90234" lon="3.97702">
        <ele>120.2</ele>
        <time>2024-04-06T12:42:17.052Z</time>
      </trkpt>
      <trkpt lat="43.90232" lon="3.97701">
        <ele>120.3</ele>
        <time>2024-04-06T12:42:17.841Z</time>
      </trkpt>
      <trkpt lat="43.90229" lon="3.97699">
        <ele>120.2</ele>
        <time>2024-04-06T12:42:18.814Z</time>
      </trkpt>
      <trkpt lat="43.90227" lon="3.97698">
        <ele>120.2</ele>
        <time>2024-04-06T12:42:19.494Z</time>
      </trkpt>
      <trkpt lat="43.90225" lon="3.97697">
        <ele>120.2</ele>
        <time>2024-04-06T12:42:20.174Z</time>
      </trkpt>
      <trkpt lat="43.90222" lon="3.97695">
        <ele>120.1</ele>
        <time>2024-04-06T12:42:21.147Z</time>
      </trkpt>
      <trkpt lat="43.9022" lon="3.97693">
        <ele>120</ele>
        <time>2024-04-06T12:42:21.845Z</time>
      </trkpt>
      <trkpt lat="43.90217" lon="3.97692">
        <ele>120</ele>
        <time>2024-04-06T12:42:22.832Z</time>
      </trkpt>
      <trkpt lat="43.90214" lon="3.9769">
        <ele>120</ele>
        <time>2024-04-06T12:42:23.897Z</time>
      </trkpt>
      <trkpt lat="43.90211" lon="3.97687">
        <ele>119.9</ele>
        <time>2024-04-06T12:42:24.987Z</time>
      </trkpt>
      <trkpt lat="43.90208" lon="3.97684">
        <ele>119.8</ele>
        <time>2024-04-06T12:42:26.078Z</time>
      </trkpt>
      <trkpt lat="43.90205" lon="3.97681">
        <ele>119.7</ele>
        <time>2024-04-06T12:42:27.168Z</time>
      </trkpt>
      <trkpt lat="43.90203" lon="3.97678">
        <ele>119.5</ele>
        <time>2024-04-06T12:42:27.992Z</time>
      </trkpt>
      <trkpt lat="43.902" lon="3.97677">
        <ele>119.5</ele>
        <time>2024-04-06T12:42:28.979Z</time>
      </trkpt>
      <trkpt lat="43.90198" lon="3.97674">
        <ele>119.4</ele>
        <time>2024-04-06T12:42:29.830Z</time>
      </trkpt>
      <trkpt lat="43.90196" lon="3.97672">
        <ele>119.3</ele>
        <time>2024-04-06T12:42:30.528Z</time>
      </trkpt>
      <trkpt lat="43.90194" lon="3.97673">
        <ele>119.5</ele>
        <time>2024-04-06T12:42:31.453Z</time>
      </trkpt>
      <trkpt lat="43.90192" lon="3.97673">
        <ele>119.7</ele>
        <time>2024-04-06T12:42:32.342Z</time>
      </trkpt>
      <trkpt lat="43.90189" lon="3.97673">
        <ele>120</ele>
        <time>2024-04-06T12:42:33.674Z</time>
      </trkpt>
      <trkpt lat="43.90186" lon="3.9767">
        <ele>120.1</ele>
        <time>2024-04-06T12:42:34.962Z</time>
      </trkpt>
      <trkpt lat="43.90184" lon="3.97666">
        <ele>120.1</ele>
        <time>2024-04-06T12:42:36.084Z</time>
      </trkpt>
      <trkpt lat="43.90182" lon="3.97664">
        <ele>120.2</ele>
        <time>2024-04-06T12:42:36.981Z</time>
      </trkpt>
      <trkpt lat="43.9018" lon="3.97661">
        <ele>120.4</ele>
        <time>2024-04-06T12:42:38.153Z</time>
      </trkpt>
      <trkpt lat="43.90179" lon="3.97656">
        <ele>120.3</ele>
        <time>2024-04-06T12:42:39.256Z</time>
      </trkpt>
      <trkpt lat="43.90179" lon="3.97653">
        <ele>120.2</ele>
        <time>2024-04-06T12:42:39.861Z</time>
      </trkpt>
      <trkpt lat="43.90178" lon="3.97649">
        <ele>120.1</ele>
        <time>2024-04-06T12:42:40.745Z</time>
      </trkpt>
      <trkpt lat="43.90179" lon="3.97645">
        <ele>119.9</ele>
        <time>2024-04-06T12:42:41.599Z</time>
      </trkpt>
      <trkpt lat="43.90178" lon="3.97641">
        <ele>119.9</ele>
        <time>2024-04-06T12:42:42.576Z</time>
      </trkpt>
      <trkpt lat="43.90176" lon="3.97639">
        <ele>120</ele>
        <time>2024-04-06T12:42:43.472Z</time>
      </trkpt>
      <trkpt lat="43.90174" lon="3.97638">
        <ele>120.3</ele>
        <time>2024-04-06T12:42:44.566Z</time>
      </trkpt>
      <trkpt lat="43.90173" lon="3.97639">
        <ele>120.3</ele>
        <time>2024-04-06T12:42:44.960Z</time>
      </trkpt>
      <trkpt lat="43.90168" lon="3.97644">
        <ele>121</ele>
        <time>2024-04-06T12:42:47.831Z</time>
      </trkpt>
      <trkpt lat="43.90168" lon="3.97653">
        <ele>121.4</ele>
        <time>2024-04-06T12:42:50.359Z</time>
      </trkpt>
      <trkpt lat="43.90166" lon="3.97654">
        <ele>121.6</ele>
        <time>2024-04-06T12:42:51.284Z</time>
      </trkpt>
      <trkpt lat="43.90164" lon="3.97653">
        <ele>121.7</ele>
        <time>2024-04-06T12:42:52.074Z</time>
      </trkpt>
      <trkpt lat="43.90161" lon="3.97653">
        <ele>122</ele>
        <time>2024-04-06T12:42:53.406Z</time>
      </trkpt>
      <trkpt lat="43.90158" lon="3.97652">
        <ele>122.3</ele>
        <time>2024-04-06T12:42:54.763Z</time>
      </trkpt>
      <trkpt lat="43.90156" lon="3.97652">
        <ele>122.4</ele>
        <time>2024-04-06T12:42:55.513Z</time>
      </trkpt>
      <trkpt lat="43.90154" lon="3.97652">
        <ele>122.6</ele>
        <time>2024-04-06T12:42:56.402Z</time>
      </trkpt>
      <trkpt lat="43.90152" lon="3.9765">
        <ele>122.8</ele>
        <time>2024-04-06T12:42:57.427Z</time>
      </trkpt>
      <trkpt lat="43.90149" lon="3.97645">
        <ele>123</ele>
        <time>2024-04-06T12:42:59.144Z</time>
      </trkpt>
      <trkpt lat="43.90148" lon="3.97642">
        <ele>123.1</ele>
        <time>2024-04-06T12:43:00.014Z</time>
      </trkpt>
      <trkpt lat="43.90148" lon="3.97638">
        <ele>123.1</ele>
        <time>2024-04-06T12:43:00.937Z</time>
      </trkpt>
      <trkpt lat="43.90147" lon="3.97636">
        <ele>123.3</ele>
        <time>2024-04-06T12:43:01.755Z</time>
      </trkpt>
      <trkpt lat="43.90146" lon="3.97632">
        <ele>123.5</ele>
        <time>2024-04-06T12:43:02.960Z</time>
      </trkpt>
      <trkpt lat="43.90145" lon="3.97629">
        <ele>123.8</ele>
        <time>2024-04-06T12:43:04.119Z</time>
      </trkpt>
      <trkpt lat="43.90145" lon="3.97619">
        <ele>124.2</ele>
        <time>2024-04-06T12:43:06.871Z</time>
      </trkpt>
      <trkpt lat="43.90146" lon="3.97615">
        <ele>124.3</ele>
        <time>2024-04-06T12:43:07.953Z</time>
      </trkpt>
      <trkpt lat="43.90148" lon="3.9761">
        <ele>124.4</ele>
        <time>2024-04-06T12:43:09.376Z</time>
      </trkpt>
      <trkpt lat="43.90149" lon="3.97606">
        <ele>124.3</ele>
        <time>2024-04-06T12:43:10.260Z</time>
      </trkpt>
      <trkpt lat="43.90149" lon="3.97601">
        <ele>124.4</ele>
        <time>2024-04-06T12:43:11.517Z</time>
      </trkpt>
      <trkpt lat="43.9015" lon="3.97597">
        <ele>124.4</ele>
        <time>2024-04-06T12:43:12.493Z</time>
      </trkpt>
      <trkpt lat="43.9015" lon="3.97592">
        <ele>124.5</ele>
        <time>2024-04-06T12:43:13.751Z</time>
      </trkpt>
      <trkpt lat="43.90151" lon="3.97587">
        <ele>124.5</ele>
        <time>2024-04-06T12:43:14.947Z</time>
      </trkpt>
      <trkpt lat="43.90151" lon="3.97583">
        <ele>124.6</ele>
        <time>2024-04-06T12:43:15.976Z</time>
      </trkpt>
      <trkpt lat="43.9015" lon="3.97579">
        <ele>124.4</ele>
        <time>2024-04-06T12:43:16.830Z</time>
      </trkpt>
      <trkpt lat="43.90149" lon="3.97575">
        <ele>124.3</ele>
        <time>2024-04-06T12:43:17.714Z</time>
      </trkpt>
      <trkpt lat="43.90147" lon="3.97573">
        <ele>124.3</ele>
        <time>2024-04-06T12:43:18.503Z</time>
      </trkpt>
      <trkpt lat="43.90145" lon="3.9757">
        <ele>124.3</ele>
        <time>2024-04-06T12:43:19.445Z</time>
      </trkpt>
      <trkpt lat="43.90143" lon="3.97568">
        <ele>124.3</ele>
        <time>2024-04-06T12:43:20.234Z</time>
      </trkpt>
      <trkpt lat="43.90141" lon="3.97566">
        <ele>124.3</ele>
        <time>2024-04-06T12:43:21.023Z</time>
      </trkpt>
      <trkpt lat="43.90139" lon="3.97566">
        <ele>124.4</ele>
        <time>2024-04-06T12:43:21.773Z</time>
      </trkpt>
      <trkpt lat="43.90137" lon="3.97566">
        <ele>124.6</ele>
        <time>2024-04-06T12:43:22.661Z</time>
      </trkpt>
      <trkpt lat="43.90135" lon="3.97565">
        <ele>124.7</ele>
        <time>2024-04-06T12:43:23.451Z</time>
      </trkpt>
      <trkpt lat="43.90134" lon="3.97563">
        <ele>124.7</ele>
        <time>2024-04-06T12:43:24.012Z</time>
      </trkpt>
      <trkpt lat="43.90131" lon="3.9756">
        <ele>125</ele>
        <time>2024-04-06T12:43:25.551Z</time>
      </trkpt>
      <trkpt lat="43.90129" lon="3.97557">
        <ele>125.1</ele>
        <time>2024-04-06T12:43:26.599Z</time>
      </trkpt>
      <trkpt lat="43.90126" lon="3.97556">
        <ele>125.4</ele>
        <time>2024-04-06T12:43:27.956Z</time>
      </trkpt>
      <trkpt lat="43.90125" lon="3.97557">
        <ele>125.5</ele>
        <time>2024-04-06T12:43:28.469Z</time>
      </trkpt>
      <trkpt lat="43.90123" lon="3.97559">
        <ele>125.8</ele>
        <time>2024-04-06T12:43:29.651Z</time>
      </trkpt>
      <trkpt lat="43.90121" lon="3.97561">
        <ele>126</ele>
        <time>2024-04-06T12:43:30.677Z</time>
      </trkpt>
      <trkpt lat="43.9012" lon="3.97562">
        <ele>126.1</ele>
        <time>2024-04-06T12:43:31.190Z</time>
      </trkpt>
      <trkpt lat="43.90118" lon="3.97566">
        <ele>126.3</ele>
        <time>2024-04-06T12:43:32.537Z</time>
      </trkpt>
      <trkpt lat="43.90118" lon="3.97568">
        <ele>126.4</ele>
        <time>2024-04-06T12:43:33.113Z</time>
      </trkpt>
      <trkpt lat="43.90118" lon="3.97571">
        <ele>126.4</ele>
        <time>2024-04-06T12:43:33.805Z</time>
      </trkpt>
      <trkpt lat="43.90119" lon="3.97575">
        <ele>126.3</ele>
        <time>2024-04-06T12:43:34.689Z</time>
      </trkpt>
      <trkpt lat="43.9012" lon="3.97577">
        <ele>126.3</ele>
        <time>2024-04-06T12:43:35.250Z</time>
      </trkpt>
      <trkpt lat="43.9012" lon="3.97579">
        <ele>126.3</ele>
        <time>2024-04-06T12:43:35.711Z</time>
      </trkpt>
      <trkpt lat="43.90121" lon="3.97583">
        <ele>126.3</ele>
        <time>2024-04-06T12:43:36.687Z</time>
      </trkpt>
      <trkpt lat="43.90121" lon="3.97587">
        <ele>126.2</ele>
        <time>2024-04-06T12:43:37.518Z</time>
      </trkpt>
      <trkpt lat="43.90121" lon="3.97589">
        <ele>126.2</ele>
        <time>2024-04-06T12:43:37.979Z</time>
      </trkpt>
      <trkpt lat="43.90122" lon="3.97592">
        <ele>126</ele>
        <time>2024-04-06T12:43:38.646Z</time>
      </trkpt>
      <trkpt lat="43.90123" lon="3.97595">
        <ele>125.9</ele>
        <time>2024-04-06T12:43:39.318Z</time>
      </trkpt>
      <trkpt lat="43.90124" lon="3.97598">
        <ele>125.8</ele>
        <time>2024-04-06T12:43:39.990Z</time>
      </trkpt>
      <trkpt lat="43.90125" lon="3.97602">
        <ele>125.7</ele>
        <time>2024-04-06T12:43:40.874Z</time>
      </trkpt>
      <trkpt lat="43.90126" lon="3.97606">
        <ele>125.5</ele>
        <time>2024-04-06T12:43:41.728Z</time>
      </trkpt>
      <trkpt lat="43.90127" lon="3.9761">
        <ele>125.4</ele>
        <time>2024-04-06T12:43:42.612Z</time>
      </trkpt>
      <trkpt lat="43.90129" lon="3.97613">
        <ele>125.3</ele>
        <time>2024-04-06T12:43:43.463Z</time>
      </trkpt>
      <trkpt lat="43.9013" lon="3.97617">
        <ele>125.2</ele>
        <time>2024-04-06T12:43:44.347Z</time>
      </trkpt>
      <trkpt lat="43.90131" lon="3.9762">
        <ele>125.1</ele>
        <time>2024-04-06T12:43:45.019Z</time>
      </trkpt>
      <trkpt lat="43.90132" lon="3.97624">
        <ele>124.9</ele>
        <time>2024-04-06T12:43:45.873Z</time>
      </trkpt>
      <trkpt lat="43.90133" lon="3.97628">
        <ele>124.7</ele>
        <time>2024-04-06T12:43:46.727Z</time>
      </trkpt>
      <trkpt lat="43.90135" lon="3.97633">
        <ele>124.5</ele>
        <time>2024-04-06T12:43:47.881Z</time>
      </trkpt>
      <trkpt lat="43.90135" lon="3.97637">
        <ele>124.3</ele>
        <time>2024-04-06T12:43:48.688Z</time>
      </trkpt>
      <trkpt lat="43.90136" lon="3.97642">
        <ele>124.2</ele>
        <time>2024-04-06T12:43:49.791Z</time>
      </trkpt>
      <trkpt lat="43.90137" lon="3.97647">
        <ele>124.1</ele>
        <time>2024-04-06T12:43:50.894Z</time>
      </trkpt>
      <trkpt lat="43.90137" lon="3.97652">
        <ele>124.1</ele>
        <time>2024-04-06T12:43:52.047Z</time>
      </trkpt>
      <trkpt lat="43.90135" lon="3.97657">
        <ele>124.2</ele>
        <time>2024-04-06T12:43:53.470Z</time>
      </trkpt>
      <trkpt lat="43.90133" lon="3.97661">
        <ele>124.3</ele>
        <time>2024-04-06T12:43:54.697Z</time>
      </trkpt>
      <trkpt lat="43.90131" lon="3.97664">
        <ele>124.3</ele>
        <time>2024-04-06T12:43:55.639Z</time>
      </trkpt>
      <trkpt lat="43.90128" lon="3.97667">
        <ele>124.4</ele>
        <time>2024-04-06T12:43:56.927Z</time>
      </trkpt>
      <trkpt lat="43.90125" lon="3.97669">
        <ele>124.5</ele>
        <time>2024-04-06T12:43:58.097Z</time>
      </trkpt>
      <trkpt lat="43.90122" lon="3.9767">
        <ele>124.5</ele>
        <time>2024-04-06T12:43:59.084Z</time>
      </trkpt>
      <trkpt lat="43.9012" lon="3.97672">
        <ele>124.5</ele>
        <time>2024-04-06T12:43:59.873Z</time>
      </trkpt>
      <trkpt lat="43.90118" lon="3.97673">
        <ele>124.6</ele>
        <time>2024-04-06T12:44:00.663Z</time>
      </trkpt>
      <trkpt lat="43.90115" lon="3.97675">
        <ele>124.6</ele>
        <time>2024-04-06T12:44:01.728Z</time>
      </trkpt>
      <trkpt lat="43.90113" lon="3.97676">
        <ele>124.6</ele>
        <time>2024-04-06T12:44:02.408Z</time>
      </trkpt>
      <trkpt lat="43.9011" lon="3.97678">
        <ele>124.6</ele>
        <time>2024-04-06T12:44:03.473Z</time>
      </trkpt>
      <trkpt lat="43.90107" lon="3.9768">
        <ele>124.4</ele>
        <time>2024-04-06T12:44:04.405Z</time>
      </trkpt>
      <trkpt lat="43.90104" lon="3.97681">
        <ele>124.4</ele>
        <time>2024-04-06T12:44:05.392Z</time>
      </trkpt>
      <trkpt lat="43.901" lon="3.97683">
        <ele>124.2</ele>
        <time>2024-04-06T12:44:06.582Z</time>
      </trkpt>
      <trkpt lat="43.90097" lon="3.97684">
        <ele>124.1</ele>
        <time>2024-04-06T12:44:07.477Z</time>
      </trkpt>
      <trkpt lat="43.90093" lon="3.97686">
        <ele>123.9</ele>
        <time>2024-04-06T12:44:08.668Z</time>
      </trkpt>
      <trkpt lat="43.90089" lon="3.97688">
        <ele>123.6</ele>
        <time>2024-04-06T12:44:09.858Z</time>
      </trkpt>
      <trkpt lat="43.90085" lon="3.97689">
        <ele>123.4</ele>
        <time>2024-04-06T12:44:10.996Z</time>
      </trkpt>
      <trkpt lat="43.90081" lon="3.97691">
        <ele>123.3</ele>
        <time>2024-04-06T12:44:12.263Z</time>
      </trkpt>
      <trkpt lat="43.90076" lon="3.97693">
        <ele>123.4</ele>
        <time>2024-04-06T12:44:14.031Z</time>
      </trkpt>
      <trkpt lat="43.90072" lon="3.97694">
        <ele>123.4</ele>
        <time>2024-04-06T12:44:15.331Z</time>
      </trkpt>
      <trkpt lat="43.90068" lon="3.97695">
        <ele>123.5</ele>
        <time>2024-04-06T12:44:16.735Z</time>
      </trkpt>
      <trkpt lat="43.90064" lon="3.97697">
        <ele>123.6</ele>
        <time>2024-04-06T12:44:18.200Z</time>
      </trkpt>
      <trkpt lat="43.9006" lon="3.97699">
        <ele>123.7</ele>
        <time>2024-04-06T12:44:19.664Z</time>
      </trkpt>
      <trkpt lat="43.90056" lon="3.977">
        <ele>123.8</ele>
        <time>2024-04-06T12:44:21.068Z</time>
      </trkpt>
      <trkpt lat="43.90052" lon="3.97701">
        <ele>123.9</ele>
        <time>2024-04-06T12:44:22.473Z</time>
      </trkpt>
      <trkpt lat="43.90048" lon="3.97702">
        <ele>123.9</ele>
        <time>2024-04-06T12:44:23.773Z</time>
      </trkpt>
      <trkpt lat="43.90044" lon="3.97703">
        <ele>124</ele>
        <time>2024-04-06T12:44:25.178Z</time>
      </trkpt>
      <trkpt lat="43.9004" lon="3.97704">
        <ele>124</ele>
        <time>2024-04-06T12:44:26.478Z</time>
      </trkpt>
      <trkpt lat="43.90036" lon="3.97705">
        <ele>124.1</ele>
        <time>2024-04-06T12:44:27.883Z</time>
      </trkpt>
      <trkpt lat="43.90031" lon="3.97705">
        <ele>124.2</ele>
        <time>2024-04-06T12:44:29.585Z</time>
      </trkpt>
      <trkpt lat="43.90027" lon="3.97705">
        <ele>124.2</ele>
        <time>2024-04-06T12:44:30.865Z</time>
      </trkpt>
      <trkpt lat="43.90023" lon="3.97705">
        <ele>124.2</ele>
        <time>2024-04-06T12:44:32.145Z</time>
      </trkpt>
      <trkpt lat="43.90019" lon="3.97706">
        <ele>124</ele>
        <time>2024-04-06T12:44:33.283Z</time>
      </trkpt>
      <trkpt lat="43.90014" lon="3.97706">
        <ele>124</ele>
        <time>2024-04-06T12:44:34.883Z</time>
      </trkpt>
      <trkpt lat="43.9001" lon="3.97706">
        <ele>123.9</ele>
        <time>2024-04-06T12:44:36.069Z</time>
      </trkpt>
      <trkpt lat="43.90005" lon="3.97706">
        <ele>123.8</ele>
        <time>2024-04-06T12:44:37.575Z</time>
      </trkpt>
      <trkpt lat="43.9" lon="3.97706">
        <ele>123.8</ele>
        <time>2024-04-06T12:44:39.175Z</time>
      </trkpt>
      <trkpt lat="43.89995" lon="3.97706">
        <ele>123.6</ele>
        <time>2024-04-06T12:44:40.594Z</time>
      </trkpt>
      <trkpt lat="43.8999" lon="3.97706">
        <ele>123.5</ele>
        <time>2024-04-06T12:44:42.099Z</time>
      </trkpt>
      <trkpt lat="43.89985" lon="3.97705">
        <ele>123.5</ele>
        <time>2024-04-06T12:44:43.715Z</time>
      </trkpt>
      <trkpt lat="43.8998" lon="3.97705">
        <ele>123.4</ele>
        <time>2024-04-06T12:44:45.221Z</time>
      </trkpt>
      <trkpt lat="43.89974" lon="3.97705">
        <ele>123.3</ele>
        <time>2024-04-06T12:44:47.046Z</time>
      </trkpt>
      <trkpt lat="43.89969" lon="3.97705">
        <ele>123.2</ele>
        <time>2024-04-06T12:44:48.551Z</time>
      </trkpt>
      <trkpt lat="43.89964" lon="3.97704">
        <ele>123.1</ele>
        <time>2024-04-06T12:44:50.073Z</time>
      </trkpt>
      <trkpt lat="43.89959" lon="3.97704">
        <ele>123</ele>
        <time>2024-04-06T12:44:51.579Z</time>
      </trkpt>
      <trkpt lat="43.89954" lon="3.97704">
        <ele>122.9</ele>
        <time>2024-04-06T12:44:53.084Z</time>
      </trkpt>
      <trkpt lat="43.89949" lon="3.97704">
        <ele>122.8</ele>
        <time>2024-04-06T12:44:54.590Z</time>
      </trkpt>
      <trkpt lat="43.89944" lon="3.97704">
        <ele>122.7</ele>
        <time>2024-04-06T12:44:56.095Z</time>
      </trkpt>
      <trkpt lat="43.89939" lon="3.97704">
        <ele>122.7</ele>
        <time>2024-04-06T12:44:57.695Z</time>
      </trkpt>
      <trkpt lat="43.89933" lon="3.97704">
        <ele>122.7</ele>
        <time>2024-04-06T12:44:59.615Z</time>
      </trkpt>
      <trkpt lat="43.89928" lon="3.97704">
        <ele>122.7</ele>
        <time>2024-04-06T12:45:01.215Z</time>
      </trkpt>
      <trkpt lat="43.89922" lon="3.97704">
        <ele>122.7</ele>
        <time>2024-04-06T12:45:03.134Z</time>
      </trkpt>
      <trkpt lat="43.89917" lon="3.97704">
        <ele>122.7</ele>
        <time>2024-04-06T12:45:04.734Z</time>
      </trkpt>
      <trkpt lat="43.89911" lon="3.97704">
        <ele>122.7</ele>
        <time>2024-04-06T12:45:06.654Z</time>
      </trkpt>
      <trkpt lat="43.89905" lon="3.97703">
        <ele>122.7</ele>
        <time>2024-04-06T12:45:08.588Z</time>
      </trkpt>
      <trkpt lat="43.899" lon="3.97702">
        <ele>122.7</ele>
        <time>2024-04-06T12:45:10.204Z</time>
      </trkpt>
      <trkpt lat="43.89895" lon="3.97701">
        <ele>122.8</ele>
        <time>2024-04-06T12:45:11.923Z</time>
      </trkpt>
      <trkpt lat="43.89889" lon="3.97699">
        <ele>122.8</ele>
        <time>2024-04-06T12:45:13.898Z</time>
      </trkpt>
      <trkpt lat="43.89884" lon="3.97697">
        <ele>122.9</ele>
        <time>2024-04-06T12:45:15.666Z</time>
      </trkpt>
      <trkpt lat="43.89879" lon="3.97695">
        <ele>123</ele>
        <time>2024-04-06T12:45:17.433Z</time>
      </trkpt>
      <trkpt lat="43.89874" lon="3.97694">
        <ele>123</ele>
        <time>2024-04-06T12:45:19.050Z</time>
      </trkpt>
      <trkpt lat="43.89869" lon="3.97692">
        <ele>123.2</ele>
        <time>2024-04-06T12:45:20.929Z</time>
      </trkpt>
      <trkpt lat="43.89864" lon="3.97691">
        <ele>123.2</ele>
        <time>2024-04-06T12:45:22.546Z</time>
      </trkpt>
      <trkpt lat="43.89859" lon="3.9769">
        <ele>123.3</ele>
        <time>2024-04-06T12:45:24.265Z</time>
      </trkpt>
      <trkpt lat="43.89855" lon="3.97689">
        <ele>123.4</ele>
        <time>2024-04-06T12:45:25.669Z</time>
      </trkpt>
      <trkpt lat="43.8985" lon="3.97688">
        <ele>123.5</ele>
        <time>2024-04-06T12:45:27.389Z</time>
      </trkpt>
      <trkpt lat="43.89847" lon="3.97689">
        <ele>123.4</ele>
        <time>2024-04-06T12:45:28.284Z</time>
      </trkpt>
      <trkpt lat="43.89844" lon="3.97696">
        <ele>123</ele>
        <time>2024-04-06T12:45:29.927Z</time>
      </trkpt>
      <trkpt lat="43.8984" lon="3.97702">
        <ele>122.9</ele>
        <time>2024-04-06T12:45:31.717Z</time>
      </trkpt>
      <trkpt lat="43.89839" lon="3.97699">
        <ele>123</ele>
        <time>2024-04-06T12:45:32.587Z</time>
      </trkpt>
      <trkpt lat="43.89838" lon="3.97697">
        <ele>123</ele>
        <time>2024-04-06T12:45:33.148Z</time>
      </trkpt>
      <trkpt lat="43.89836" lon="3.97695">
        <ele>123</ele>
        <time>2024-04-06T12:45:33.937Z</time>
      </trkpt>
      <trkpt lat="43.89833" lon="3.97694">
        <ele>123.1</ele>
        <time>2024-04-06T12:45:35.030Z</time>
      </trkpt>
      <trkpt lat="43.89831" lon="3.97692">
        <ele>123.6</ele>
        <time>2024-04-06T12:45:36.633Z</time>
      </trkpt>
      <trkpt lat="43.89829" lon="3.9769">
        <ele>124</ele>
        <time>2024-04-06T12:45:38.005Z</time>
      </trkpt>
      <trkpt lat="43.89827" lon="3.97687">
        <ele>124.3</ele>
        <time>2024-04-06T12:45:39.322Z</time>
      </trkpt>
      <trkpt lat="43.89824" lon="3.97686">
        <ele>124.7</ele>
        <time>2024-04-06T12:45:40.844Z</time>
      </trkpt>
      <trkpt lat="43.89821" lon="3.97684">
        <ele>125</ele>
        <time>2024-04-06T12:45:42.273Z</time>
      </trkpt>
      <trkpt lat="43.89819" lon="3.97683">
        <ele>125.1</ele>
        <time>2024-04-06T12:45:43.062Z</time>
      </trkpt>
      <trkpt lat="43.89817" lon="3.97682">
        <ele>125.3</ele>
        <time>2024-04-06T12:45:43.987Z</time>
      </trkpt>
      <trkpt lat="43.89814" lon="3.97681">
        <ele>125.4</ele>
        <time>2024-04-06T12:45:45.080Z</time>
      </trkpt>
      <trkpt lat="43.89812" lon="3.9768">
        <ele>125.5</ele>
        <time>2024-04-06T12:45:45.870Z</time>
      </trkpt>
      <trkpt lat="43.8981" lon="3.97678">
        <ele>125.4</ele>
        <time>2024-04-06T12:45:46.568Z</time>
      </trkpt>
      <trkpt lat="43.89808" lon="3.97677">
        <ele>125.4</ele>
        <time>2024-04-06T12:45:47.248Z</time>
      </trkpt>
      <trkpt lat="43.89806" lon="3.97675">
        <ele>125.2</ele>
        <time>2024-04-06T12:45:47.939Z</time>
      </trkpt>
      <trkpt lat="43.89804" lon="3.97674">
        <ele>125.2</ele>
        <time>2024-04-06T12:45:48.619Z</time>
      </trkpt>
      <trkpt lat="43.89802" lon="3.97672">
        <ele>125.2</ele>
        <time>2024-04-06T12:45:49.408Z</time>
      </trkpt>
      <trkpt lat="43.898" lon="3.97671">
        <ele>125.2</ele>
        <time>2024-04-06T12:45:50.088Z</time>
      </trkpt>
      <trkpt lat="43.89799" lon="3.97669">
        <ele>125</ele>
        <time>2024-04-06T12:45:50.579Z</time>
      </trkpt>
      <trkpt lat="43.89797" lon="3.97667">
        <ele>125</ele>
        <time>2024-04-06T12:45:51.368Z</time>
      </trkpt>
      <trkpt lat="43.89795" lon="3.97666">
        <ele>125.2</ele>
        <time>2024-04-06T12:45:52.293Z</time>
      </trkpt>
      <trkpt lat="43.89793" lon="3.97664">
        <ele>125.5</ele>
        <time>2024-04-06T12:45:53.475Z</time>
      </trkpt>
      <trkpt lat="43.89791" lon="3.97663">
        <ele>125.7</ele>
        <time>2024-04-06T12:45:54.400Z</time>
      </trkpt>
      <trkpt lat="43.89789" lon="3.97662">
        <ele>125.9</ele>
        <time>2024-04-06T12:45:55.325Z</time>
      </trkpt>
      <trkpt lat="43.89788" lon="3.9766">
        <ele>126</ele>
        <time>2024-04-06T12:45:55.998Z</time>
      </trkpt>
      <trkpt lat="43.89785" lon="3.97658">
        <ele>126.2</ele>
        <time>2024-04-06T12:45:57.288Z</time>
      </trkpt>
      <trkpt lat="43.89782" lon="3.97655">
        <ele>126.4</ele>
        <time>2024-04-06T12:45:58.694Z</time>
      </trkpt>
      <trkpt lat="43.8978" lon="3.97655">
        <ele>126.5</ele>
        <time>2024-04-06T12:45:59.444Z</time>
      </trkpt>
      <trkpt lat="43.89776" lon="3.97653">
        <ele>126.5</ele>
        <time>2024-04-06T12:46:00.804Z</time>
      </trkpt>
      <trkpt lat="43.89774" lon="3.97651">
        <ele>126.4</ele>
        <time>2024-04-06T12:46:01.503Z</time>
      </trkpt>
      <trkpt lat="43.89772" lon="3.9765">
        <ele>126.4</ele>
        <time>2024-04-06T12:46:02.183Z</time>
      </trkpt>
      <trkpt lat="43.89769" lon="3.97649">
        <ele>126.4</ele>
        <time>2024-04-06T12:46:03.170Z</time>
      </trkpt>
      <trkpt lat="43.89766" lon="3.97648">
        <ele>126.3</ele>
        <time>2024-04-06T12:46:04.065Z</time>
      </trkpt>
      <trkpt lat="43.89764" lon="3.97647">
        <ele>126.3</ele>
        <time>2024-04-06T12:46:04.746Z</time>
      </trkpt>
      <trkpt lat="43.89761" lon="3.97645">
        <ele>126.2</ele>
        <time>2024-04-06T12:46:05.718Z</time>
      </trkpt>
      <trkpt lat="43.89759" lon="3.97643">
        <ele>126.1</ele>
        <time>2024-04-06T12:46:06.416Z</time>
      </trkpt>
      <trkpt lat="43.89756" lon="3.97642">
        <ele>126.1</ele>
        <time>2024-04-06T12:46:07.404Z</time>
      </trkpt>
      <trkpt lat="43.89754" lon="3.9764">
        <ele>126</ele>
        <time>2024-04-06T12:46:08.102Z</time>
      </trkpt>
      <trkpt lat="43.89751" lon="3.97639">
        <ele>126</ele>
        <time>2024-04-06T12:46:09.089Z</time>
      </trkpt>
      <trkpt lat="43.89748" lon="3.97637">
        <ele>125.9</ele>
        <time>2024-04-06T12:46:10.062Z</time>
      </trkpt>
      <trkpt lat="43.89745" lon="3.97635">
        <ele>125.8</ele>
        <time>2024-04-06T12:46:11.034Z</time>
      </trkpt>
      <trkpt lat="43.89741" lon="3.97633">
        <ele>125.6</ele>
        <time>2024-04-06T12:46:12.225Z</time>
      </trkpt>
      <trkpt lat="43.89738" lon="3.9763">
        <ele>125.5</ele>
        <time>2024-04-06T12:46:13.315Z</time>
      </trkpt>
      <trkpt lat="43.89734" lon="3.97627">
        <ele>125.3</ele>
        <time>2024-04-06T12:46:14.590Z</time>
      </trkpt>
      <trkpt lat="43.89729" lon="3.97623">
        <ele>125.1</ele>
        <time>2024-04-06T12:46:16.254Z</time>
      </trkpt>
      <trkpt lat="43.89725" lon="3.97619">
        <ele>124.9</ele>
        <time>2024-04-06T12:46:17.650Z</time>
      </trkpt>
      <trkpt lat="43.8972" lon="3.97616">
        <ele>124.8</ele>
        <time>2024-04-06T12:46:19.299Z</time>
      </trkpt>
      <trkpt lat="43.89715" lon="3.97613">
        <ele>124.9</ele>
        <time>2024-04-06T12:46:21.144Z</time>
      </trkpt>
      <trkpt lat="43.89711" lon="3.97611">
        <ele>125</ele>
        <time>2024-04-06T12:46:22.608Z</time>
      </trkpt>
      <trkpt lat="43.89707" lon="3.97609">
        <ele>125</ele>
        <time>2024-04-06T12:46:23.969Z</time>
      </trkpt>
      <trkpt lat="43.89704" lon="3.97607">
        <ele>125</ele>
        <time>2024-04-06T12:46:25.034Z</time>
      </trkpt>
      <trkpt lat="43.897" lon="3.97606">
        <ele>125</ele>
        <time>2024-04-06T12:46:26.334Z</time>
      </trkpt>
      <trkpt lat="43.89696" lon="3.97606">
        <ele>125</ele>
        <time>2024-04-06T12:46:27.614Z</time>
      </trkpt>
      <trkpt lat="43.89693" lon="3.97606">
        <ele>125.2</ele>
        <time>2024-04-06T12:46:28.803Z</time>
      </trkpt>
      <trkpt lat="43.89689" lon="3.97607">
        <ele>125.6</ele>
        <time>2024-04-06T12:46:30.598Z</time>
      </trkpt>
      <trkpt lat="43.89686" lon="3.97606">
        <ele>126</ele>
        <time>2024-04-06T12:46:32.121Z</time>
      </trkpt>
      <trkpt lat="43.89682" lon="3.97605">
        <ele>126.4</ele>
        <time>2024-04-06T12:46:33.916Z</time>
      </trkpt>
      <trkpt lat="43.89678" lon="3.97605">
        <ele>126.9</ele>
        <time>2024-04-06T12:46:35.857Z</time>
      </trkpt>
      <trkpt lat="43.89675" lon="3.97604">
        <ele>127.3</ele>
        <time>2024-04-06T12:46:37.379Z</time>
      </trkpt>
      <trkpt lat="43.89671" lon="3.97603">
        <ele>127.8</ele>
        <time>2024-04-06T12:46:39.338Z</time>
      </trkpt>
      <trkpt lat="43.89668" lon="3.97603">
        <ele>128.1</ele>
        <time>2024-04-06T12:46:40.670Z</time>
      </trkpt>
      <trkpt lat="43.89666" lon="3.97603">
        <ele>128.4</ele>
        <time>2024-04-06T12:46:41.733Z</time>
      </trkpt>
      <trkpt lat="43.89663" lon="3.97604">
        <ele>128.6</ele>
        <time>2024-04-06T12:46:42.949Z</time>
      </trkpt>
      <trkpt lat="43.89661" lon="3.97604">
        <ele>128.8</ele>
        <time>2024-04-06T12:46:43.837Z</time>
      </trkpt>
      <trkpt lat="43.89659" lon="3.97606">
        <ele>128.8</ele>
        <time>2024-04-06T12:46:44.626Z</time>
      </trkpt>
      <trkpt lat="43.89657" lon="3.97608">
        <ele>128.9</ele>
        <time>2024-04-06T12:46:45.522Z</time>
      </trkpt>
      <trkpt lat="43.89655" lon="3.9761">
        <ele>128.9</ele>
        <time>2024-04-06T12:46:46.311Z</time>
      </trkpt>
      <trkpt lat="43.89653" lon="3.97611">
        <ele>129</ele>
        <time>2024-04-06T12:46:47.101Z</time>
      </trkpt>
      <trkpt lat="43.8965" lon="3.9761">
        <ele>129.3</ele>
        <time>2024-04-06T12:46:48.458Z</time>
      </trkpt>
      <trkpt lat="43.89647" lon="3.9761">
        <ele>129.5</ele>
        <time>2024-04-06T12:46:49.647Z</time>
      </trkpt>
      <trkpt lat="43.89645" lon="3.9761">
        <ele>129.7</ele>
        <time>2024-04-06T12:46:50.535Z</time>
      </trkpt>
      <trkpt lat="43.89643" lon="3.9761">
        <ele>129.8</ele>
        <time>2024-04-06T12:46:51.285Z</time>
      </trkpt>
      <trkpt lat="43.89641" lon="3.9761">
        <ele>130</ele>
        <time>2024-04-06T12:46:52.173Z</time>
      </trkpt>
      <trkpt lat="43.89639" lon="3.97611">
        <ele>130</ele>
        <time>2024-04-06T12:46:52.854Z</time>
      </trkpt>
      <trkpt lat="43.89636" lon="3.97612">
        <ele>129.9</ele>
        <time>2024-04-06T12:46:53.749Z</time>
      </trkpt>
      <trkpt lat="43.89633" lon="3.97611">
        <ele>130</ele>
        <time>2024-04-06T12:46:54.842Z</time>
      </trkpt>
      <trkpt lat="43.8963" lon="3.97611">
        <ele>130</ele>
        <time>2024-04-06T12:46:55.802Z</time>
      </trkpt>
      <trkpt lat="43.89628" lon="3.97612">
        <ele>129.9</ele>
        <time>2024-04-06T12:46:56.397Z</time>
      </trkpt>
      <trkpt lat="43.89625" lon="3.97613">
        <ele>129.8</ele>
        <time>2024-04-06T12:46:57.292Z</time>
      </trkpt>
      <trkpt lat="43.8962" lon="3.97614">
        <ele>129.8</ele>
        <time>2024-04-06T12:46:58.909Z</time>
      </trkpt>
      <trkpt lat="43.89614" lon="3.97615">
        <ele>129.7</ele>
        <time>2024-04-06T12:47:00.747Z</time>
      </trkpt>
      <trkpt lat="43.89608" lon="3.97617">
        <ele>129.6</ele>
        <time>2024-04-06T12:47:02.626Z</time>
      </trkpt>
      <trkpt lat="43.89605" lon="3.97618">
        <ele>129.4</ele>
        <time>2024-04-06T12:47:03.490Z</time>
      </trkpt>
      <trkpt lat="43.89602" lon="3.97619">
        <ele>129.3</ele>
        <time>2024-04-06T12:47:04.386Z</time>
      </trkpt>
      <trkpt lat="43.89599" lon="3.9762">
        <ele>129.2</ele>
        <time>2024-04-06T12:47:05.281Z</time>
      </trkpt>
      <trkpt lat="43.89596" lon="3.97621">
        <ele>129.1</ele>
        <time>2024-04-06T12:47:06.176Z</time>
      </trkpt>
      <trkpt lat="43.89594" lon="3.97622">
        <ele>129</ele>
        <time>2024-04-06T12:47:06.771Z</time>
      </trkpt>
      <trkpt lat="43.89592" lon="3.97623">
        <ele>128.8</ele>
        <time>2024-04-06T12:47:07.366Z</time>
      </trkpt>
      <trkpt lat="43.89587" lon="3.97625">
        <ele>128.6</ele>
        <time>2024-04-06T12:47:08.850Z</time>
      </trkpt>
      <trkpt lat="43.89585" lon="3.97626">
        <ele>128.4</ele>
        <time>2024-04-06T12:47:09.445Z</time>
      </trkpt>
      <trkpt lat="43.89582" lon="3.97626">
        <ele>128.4</ele>
        <time>2024-04-06T12:47:10.405Z</time>
      </trkpt>
      <trkpt lat="43.89579" lon="3.97627">
        <ele>128.4</ele>
        <time>2024-04-06T12:47:11.392Z</time>
      </trkpt>
      <trkpt lat="43.89575" lon="3.97628">
        <ele>128.4</ele>
        <time>2024-04-06T12:47:12.693Z</time>
      </trkpt>
      <trkpt lat="43.89572" lon="3.97629">
        <ele>128.3</ele>
        <time>2024-04-06T12:47:13.588Z</time>
      </trkpt>
      <trkpt lat="43.89568" lon="3.9763">
        <ele>128.3</ele>
        <time>2024-04-06T12:47:14.888Z</time>
      </trkpt>
      <trkpt lat="43.89565" lon="3.97631">
        <ele>128.3</ele>
        <time>2024-04-06T12:47:15.875Z</time>
      </trkpt>
      <trkpt lat="43.89561" lon="3.97632">
        <ele>128.3</ele>
        <time>2024-04-06T12:47:17.176Z</time>
      </trkpt>
      <trkpt lat="43.89558" lon="3.97634">
        <ele>128.3</ele>
        <time>2024-04-06T12:47:18.241Z</time>
      </trkpt>
      <trkpt lat="43.89554" lon="3.97636">
        <ele>128.3</ele>
        <time>2024-04-06T12:47:19.601Z</time>
      </trkpt>
      <trkpt lat="43.89551" lon="3.97638">
        <ele>128.4</ele>
        <time>2024-04-06T12:47:20.772Z</time>
      </trkpt>
      <trkpt lat="43.89547" lon="3.97642">
        <ele>128.5</ele>
        <time>2024-04-06T12:47:22.452Z</time>
      </trkpt>
      <trkpt lat="43.89543" lon="3.97646">
        <ele>128.6</ele>
        <time>2024-04-06T12:47:24.133Z</time>
      </trkpt>
      <trkpt lat="43.89538" lon="3.97649">
        <ele>128.9</ele>
        <time>2024-04-06T12:47:26.210Z</time>
      </trkpt>
      <trkpt lat="43.89532" lon="3.97652">
        <ele>129.2</ele>
        <time>2024-04-06T12:47:28.579Z</time>
      </trkpt>
      <trkpt lat="43.89526" lon="3.97653">
        <ele>129.6</ele>
        <time>2024-04-06T12:47:30.970Z</time>
      </trkpt>
      <trkpt lat="43.8952" lon="3.97654">
        <ele>129.7</ele>
        <time>2024-04-06T12:47:33.006Z</time>
      </trkpt>
      <trkpt lat="43.89515" lon="3.97655">
        <ele>129.9</ele>
        <time>2024-04-06T12:47:34.837Z</time>
      </trkpt>
      <trkpt lat="43.8951" lon="3.97656">
        <ele>130</ele>
        <time>2024-04-06T12:47:36.557Z</time>
      </trkpt>
      <trkpt lat="43.89505" lon="3.97656">
        <ele>130.2</ele>
        <time>2024-04-06T12:47:38.372Z</time>
      </trkpt>
      <trkpt lat="43.895" lon="3.97655">
        <ele>130.4</ele>
        <time>2024-04-06T12:47:40.203Z</time>
      </trkpt>
      <trkpt lat="43.89495" lon="3.97657">
        <ele>130.3</ele>
        <time>2024-04-06T12:47:41.774Z</time>
      </trkpt>
      <trkpt lat="43.89489" lon="3.97659">
        <ele>130.3</ele>
        <time>2024-04-06T12:47:43.748Z</time>
      </trkpt>
      <trkpt lat="43.89483" lon="3.9766">
        <ele>130.2</ele>
        <time>2024-04-06T12:47:45.587Z</time>
      </trkpt>
      <trkpt lat="43.89476" lon="3.97661">
        <ele>130.2</ele>
        <time>2024-04-06T12:47:47.838Z</time>
      </trkpt>
      <trkpt lat="43.8947" lon="3.9766">
        <ele>130.1</ele>
        <time>2024-04-06T12:47:49.588Z</time>
      </trkpt>
      <trkpt lat="43.89463" lon="3.97659">
        <ele>129.6</ele>
        <time>2024-04-06T12:47:51.558Z</time>
      </trkpt>
      <trkpt lat="43.89458" lon="3.97659">
        <ele>129.3</ele>
        <time>2024-04-06T12:47:52.958Z</time>
      </trkpt>
      <trkpt lat="43.89452" lon="3.97658">
        <ele>128.9</ele>
        <time>2024-04-06T12:47:54.650Z</time>
      </trkpt>
      <trkpt lat="43.89447" lon="3.97659">
        <ele>128.5</ele>
        <time>2024-04-06T12:47:56.065Z</time>
      </trkpt>
      <trkpt lat="43.89441" lon="3.97659">
        <ele>128.1</ele>
        <time>2024-04-06T12:47:57.745Z</time>
      </trkpt>
      <trkpt lat="43.89435" lon="3.97659">
        <ele>127.7</ele>
        <time>2024-04-06T12:47:59.424Z</time>
      </trkpt>
      <trkpt lat="43.8943" lon="3.97658">
        <ele>127.4</ele>
        <time>2024-04-06T12:48:00.859Z</time>
      </trkpt>
      <trkpt lat="43.89425" lon="3.97656">
        <ele>127.3</ele>
        <time>2024-04-06T12:48:02.343Z</time>
      </trkpt>
      <trkpt lat="43.89421" lon="3.97655">
        <ele>127.1</ele>
        <time>2024-04-06T12:48:03.481Z</time>
      </trkpt>
      <trkpt lat="43.89417" lon="3.97656">
        <ele>126.8</ele>
        <time>2024-04-06T12:48:04.619Z</time>
      </trkpt>
      <trkpt lat="43.89414" lon="3.97657">
        <ele>127</ele>
        <time>2024-04-06T12:48:05.834Z</time>
      </trkpt>
      <trkpt lat="43.89411" lon="3.97659">
        <ele>127.3</ele>
        <time>2024-04-06T12:48:07.262Z</time>
      </trkpt>
      <trkpt lat="43.89409" lon="3.97663">
        <ele>127.3</ele>
        <time>2024-04-06T12:48:08.385Z</time>
      </trkpt>
      <trkpt lat="43.89408" lon="3.97667">
        <ele>127.2</ele>
        <time>2024-04-06T12:48:09.269Z</time>
      </trkpt>
      <trkpt lat="43.89406" lon="3.97671">
        <ele>127.5</ele>
        <time>2024-04-06T12:48:10.751Z</time>
      </trkpt>
      <trkpt lat="43.89404" lon="3.97676">
        <ele>127.7</ele>
        <time>2024-04-06T12:48:12.290Z</time>
      </trkpt>
      <trkpt lat="43.89402" lon="3.9768">
        <ele>127.9</ele>
        <time>2024-04-06T12:48:13.636Z</time>
      </trkpt>
      <trkpt lat="43.89399" lon="3.97684">
        <ele>128.1</ele>
        <time>2024-04-06T12:48:15.187Z</time>
      </trkpt>
      <trkpt lat="43.89396" lon="3.97687">
        <ele>128.4</ele>
        <time>2024-04-06T12:48:16.726Z</time>
      </trkpt>
      <trkpt lat="43.89391" lon="3.97691">
        <ele>128.9</ele>
        <time>2024-04-06T12:48:19.173Z</time>
      </trkpt>
      <trkpt lat="43.89386" lon="3.97695">
        <ele>129.1</ele>
        <time>2024-04-06T12:48:21.232Z</time>
      </trkpt>
      <trkpt lat="43.89381" lon="3.97701">
        <ele>129</ele>
        <time>2024-04-06T12:48:23.252Z</time>
      </trkpt>
      <trkpt lat="43.89376" lon="3.97709">
        <ele>128.7</ele>
        <time>2024-04-06T12:48:25.422Z</time>
      </trkpt>
      <trkpt lat="43.89372" lon="3.97712">
        <ele>128.6</ele>
        <time>2024-04-06T12:48:26.783Z</time>
      </trkpt>
      <trkpt lat="43.89368" lon="3.97713">
        <ele>128.6</ele>
        <time>2024-04-06T12:48:28.083Z</time>
      </trkpt>
      <trkpt lat="43.89362" lon="3.9771">
        <ele>128.9</ele>
        <time>2024-04-06T12:48:30.452Z</time>
      </trkpt>
      <trkpt lat="43.8936" lon="3.97707">
        <ele>129.1</ele>
        <time>2024-04-06T12:48:31.624Z</time>
      </trkpt>
      <trkpt lat="43.89357" lon="3.97705">
        <ele>129.1</ele>
        <time>2024-04-06T12:48:32.689Z</time>
      </trkpt>
      <trkpt lat="43.89355" lon="3.97702">
        <ele>129.3</ele>
        <time>2024-04-06T12:48:33.861Z</time>
      </trkpt>
      <trkpt lat="43.89353" lon="3.977">
        <ele>129.4</ele>
        <time>2024-04-06T12:48:34.758Z</time>
      </trkpt>
      <trkpt lat="43.89351" lon="3.97698">
        <ele>129.4</ele>
        <time>2024-04-06T12:48:35.547Z</time>
      </trkpt>
      <trkpt lat="43.89348" lon="3.97697">
        <ele>129.4</ele>
        <time>2024-04-06T12:48:36.534Z</time>
      </trkpt>
      <trkpt lat="43.89346" lon="3.97696">
        <ele>129.4</ele>
        <time>2024-04-06T12:48:37.214Z</time>
      </trkpt>
      <trkpt lat="43.89344" lon="3.97696">
        <ele>129.3</ele>
        <time>2024-04-06T12:48:37.774Z</time>
      </trkpt>
      <trkpt lat="43.89341" lon="3.97696">
        <ele>129.2</ele>
        <time>2024-04-06T12:48:38.642Z</time>
      </trkpt>
      <trkpt lat="43.89338" lon="3.97696">
        <ele>129.1</ele>
        <time>2024-04-06T12:48:39.510Z</time>
      </trkpt>
      <trkpt lat="43.89334" lon="3.97697">
        <ele>128.9</ele>
        <time>2024-04-06T12:48:40.648Z</time>
      </trkpt>
      <trkpt lat="43.89331" lon="3.97697">
        <ele>128.9</ele>
        <time>2024-04-06T12:48:41.608Z</time>
      </trkpt>
      <trkpt lat="43.89327" lon="3.97696">
        <ele>128.9</ele>
        <time>2024-04-06T12:48:42.909Z</time>
      </trkpt>
      <trkpt lat="43.89322" lon="3.97696">
        <ele>128.9</ele>
        <time>2024-04-06T12:48:44.508Z</time>
      </trkpt>
      <trkpt lat="43.89318" lon="3.97696">
        <ele>128.9</ele>
        <time>2024-04-06T12:48:45.788Z</time>
      </trkpt>
      <trkpt lat="43.89313" lon="3.97695">
        <ele>129</ele>
        <time>2024-04-06T12:48:47.508Z</time>
      </trkpt>
      <trkpt lat="43.89308" lon="3.97695">
        <ele>129</ele>
        <time>2024-04-06T12:48:49.107Z</time>
      </trkpt>
      <trkpt lat="43.89304" lon="3.97694">
        <ele>129</ele>
        <time>2024-04-06T12:48:50.408Z</time>
      </trkpt>
      <trkpt lat="43.893" lon="3.97693">
        <ele>128.9</ele>
        <time>2024-04-06T12:48:51.615Z</time>
      </trkpt>
      <trkpt lat="43.89296" lon="3.97692">
        <ele>128.8</ele>
        <time>2024-04-06T12:48:52.822Z</time>
      </trkpt>
      <trkpt lat="43.89292" lon="3.97691">
        <ele>128.8</ele>
        <time>2024-04-06T12:48:54.122Z</time>
      </trkpt>
      <trkpt lat="43.89288" lon="3.97688">
        <ele>128.8</ele>
        <time>2024-04-06T12:48:55.577Z</time>
      </trkpt>
      <trkpt lat="43.89284" lon="3.97686">
        <ele>128.8</ele>
        <time>2024-04-06T12:48:56.938Z</time>
      </trkpt>
      <trkpt lat="43.8928" lon="3.97683">
        <ele>128.9</ele>
        <time>2024-04-06T12:48:58.496Z</time>
      </trkpt>
      <trkpt lat="43.89276" lon="3.9768">
        <ele>129.1</ele>
        <time>2024-04-06T12:49:00.168Z</time>
      </trkpt>
      <trkpt lat="43.89272" lon="3.97677">
        <ele>129.4</ele>
        <time>2024-04-06T12:49:01.966Z</time>
      </trkpt>
      <trkpt lat="43.89267" lon="3.97675">
        <ele>129.6</ele>
        <time>2024-04-06T12:49:03.846Z</time>
      </trkpt>
      <trkpt lat="43.89262" lon="3.97673">
        <ele>129.8</ele>
        <time>2024-04-06T12:49:05.725Z</time>
      </trkpt>
      <trkpt lat="43.89257" lon="3.9767">
        <ele>129.9</ele>
        <time>2024-04-06T12:49:07.571Z</time>
      </trkpt>
      <trkpt lat="43.89253" lon="3.97668">
        <ele>130</ele>
        <time>2024-04-06T12:49:09.035Z</time>
      </trkpt>
      <trkpt lat="43.89248" lon="3.97667">
        <ele>130.2</ele>
        <time>2024-04-06T12:49:10.866Z</time>
      </trkpt>
      <trkpt lat="43.89244" lon="3.97665">
        <ele>130.7</ele>
        <time>2024-04-06T12:49:12.876Z</time>
      </trkpt>
      <trkpt lat="43.8924" lon="3.97663">
        <ele>131.1</ele>
        <time>2024-04-06T12:49:14.725Z</time>
      </trkpt>
      <trkpt lat="43.89236" lon="3.97661">
        <ele>131.5</ele>
        <time>2024-04-06T12:49:16.575Z</time>
      </trkpt>
      <trkpt lat="43.89233" lon="3.97659">
        <ele>131.8</ele>
        <time>2024-04-06T12:49:18.004Z</time>
      </trkpt>
      <trkpt lat="43.89229" lon="3.97657">
        <ele>132.1</ele>
        <time>2024-04-06T12:49:19.711Z</time>
      </trkpt>
      <trkpt lat="43.89226" lon="3.97655">
        <ele>132.3</ele>
        <time>2024-04-06T12:49:21.001Z</time>
      </trkpt>
      <trkpt lat="43.89224" lon="3.97652">
        <ele>132.3</ele>
        <time>2024-04-06T12:49:21.944Z</time>
      </trkpt>
      <trkpt lat="43.89221" lon="3.97649">
        <ele>132.4</ele>
        <time>2024-04-06T12:49:23.232Z</time>
      </trkpt>
      <trkpt lat="43.89219" lon="3.97647">
        <ele>132.5</ele>
        <time>2024-04-06T12:49:24.128Z</time>
      </trkpt>
      <trkpt lat="43.89216" lon="3.97644">
        <ele>132.7</ele>
        <time>2024-04-06T12:49:25.534Z</time>
      </trkpt>
      <trkpt lat="43.89213" lon="3.97642">
        <ele>133</ele>
        <time>2024-04-06T12:49:26.962Z</time>
      </trkpt>
      <trkpt lat="43.89211" lon="3.9764">
        <ele>133.2</ele>
        <time>2024-04-06T12:49:27.988Z</time>
      </trkpt>
      <trkpt lat="43.89208" lon="3.97639">
        <ele>133.5</ele>
        <time>2024-04-06T12:49:29.345Z</time>
      </trkpt>
      <trkpt lat="43.89206" lon="3.97637">
        <ele>133.7</ele>
        <time>2024-04-06T12:49:30.371Z</time>
      </trkpt>
      <trkpt lat="43.89204" lon="3.97636">
        <ele>133.9</ele>
        <time>2024-04-06T12:49:31.296Z</time>
      </trkpt>
      <trkpt lat="43.89202" lon="3.97635">
        <ele>134.1</ele>
        <time>2024-04-06T12:49:32.221Z</time>
      </trkpt>
      <trkpt lat="43.89199" lon="3.97634">
        <ele>134.4</ele>
        <time>2024-04-06T12:49:33.578Z</time>
      </trkpt>
      <trkpt lat="43.89197" lon="3.97633">
        <ele>134.6</ele>
        <time>2024-04-06T12:49:34.503Z</time>
      </trkpt>
      <trkpt lat="43.89195" lon="3.97632">
        <ele>134.7</ele>
        <time>2024-04-06T12:49:35.293Z</time>
      </trkpt>
      <trkpt lat="43.89192" lon="3.97631">
        <ele>134.7</ele>
        <time>2024-04-06T12:49:36.280Z</time>
      </trkpt>
      <trkpt lat="43.8919" lon="3.9763">
        <ele>134.6</ele>
        <time>2024-04-06T12:49:36.875Z</time>
      </trkpt>
      <trkpt lat="43.89187" lon="3.9763">
        <ele>134.6</ele>
        <time>2024-04-06T12:49:37.835Z</time>
      </trkpt>
      <trkpt lat="43.89185" lon="3.9763">
        <ele>134.6</ele>
        <time>2024-04-06T12:49:38.475Z</time>
      </trkpt>
      <trkpt lat="43.89182" lon="3.9763">
        <ele>134.5</ele>
        <time>2024-04-06T12:49:39.343Z</time>
      </trkpt>
      <trkpt lat="43.8918" lon="3.9763">
        <ele>134.5</ele>
        <time>2024-04-06T12:49:39.983Z</time>
      </trkpt>
      <trkpt lat="43.89177" lon="3.9763">
        <ele>134.5</ele>
        <time>2024-04-06T12:49:40.943Z</time>
      </trkpt>
      <trkpt lat="43.89175" lon="3.9763">
        <ele>134.4</ele>
        <time>2024-04-06T12:49:41.503Z</time>
      </trkpt>
      <trkpt lat="43.89173" lon="3.9763">
        <ele>134.4</ele>
        <time>2024-04-06T12:49:42.143Z</time>
      </trkpt>
      <trkpt lat="43.8917" lon="3.9763">
        <ele>134.4</ele>
        <time>2024-04-06T12:49:43.103Z</time>
      </trkpt>
      <trkpt lat="43.89167" lon="3.97631">
        <ele>134.3</ele>
        <time>2024-04-06T12:49:43.998Z</time>
      </trkpt>
      <trkpt lat="43.89163" lon="3.97631">
        <ele>134.2</ele>
        <time>2024-04-06T12:49:45.185Z</time>
      </trkpt>
      <trkpt lat="43.8916" lon="3.97631">
        <ele>134.1</ele>
        <time>2024-04-06T12:49:46.053Z</time>
      </trkpt>
      <trkpt lat="43.89156" lon="3.97632">
        <ele>134</ele>
        <time>2024-04-06T12:49:47.260Z</time>
      </trkpt>
      <trkpt lat="43.89152" lon="3.97633">
        <ele>133.8</ele>
        <time>2024-04-06T12:49:48.398Z</time>
      </trkpt>
      <trkpt lat="43.89148" lon="3.97634">
        <ele>133.6</ele>
        <time>2024-04-06T12:49:49.536Z</time>
      </trkpt>
      <trkpt lat="43.89144" lon="3.97637">
        <ele>133.3</ele>
        <time>2024-04-06T12:49:50.809Z</time>
      </trkpt>
      <trkpt lat="43.8914" lon="3.97639">
        <ele>133</ele>
        <time>2024-04-06T12:49:51.999Z</time>
      </trkpt>
      <trkpt lat="43.89136" lon="3.97643">
        <ele>132.7</ele>
        <time>2024-04-06T12:49:53.380Z</time>
      </trkpt>
      <trkpt lat="43.89131" lon="3.97647">
        <ele>132.4</ele>
        <time>2024-04-06T12:49:54.995Z</time>
      </trkpt>
      <trkpt lat="43.89127" lon="3.97651">
        <ele>132.1</ele>
        <time>2024-04-06T12:49:56.376Z</time>
      </trkpt>
      <trkpt lat="43.89122" lon="3.97654">
        <ele>131.9</ele>
        <time>2024-04-06T12:49:57.937Z</time>
      </trkpt>
      <trkpt lat="43.89117" lon="3.97658">
        <ele>131.6</ele>
        <time>2024-04-06T12:49:59.552Z</time>
      </trkpt>
      <trkpt lat="43.89112" lon="3.97662">
        <ele>131.3</ele>
        <time>2024-04-06T12:50:01.168Z</time>
      </trkpt>
      <trkpt lat="43.89107" lon="3.97665">
        <ele>131.3</ele>
        <time>2024-04-06T12:50:02.911Z</time>
      </trkpt>
      <trkpt lat="43.89103" lon="3.97668">
        <ele>131.2</ele>
        <time>2024-04-06T12:50:04.272Z</time>
      </trkpt>
      <trkpt lat="43.89098" lon="3.97671">
        <ele>131.2</ele>
        <time>2024-04-06T12:50:06.015Z</time>
      </trkpt>
      <trkpt lat="43.89093" lon="3.97673">
        <ele>131.2</ele>
        <time>2024-04-06T12:50:07.680Z</time>
      </trkpt>
      <trkpt lat="43.89088" lon="3.97675">
        <ele>131.2</ele>
        <time>2024-04-06T12:50:09.345Z</time>
      </trkpt>
      <trkpt lat="43.89084" lon="3.97678">
        <ele>131.2</ele>
        <time>2024-04-06T12:50:10.800Z</time>
      </trkpt>
      <trkpt lat="43.89079" lon="3.9768">
        <ele>131.2</ele>
        <time>2024-04-06T12:50:12.465Z</time>
      </trkpt>
      <trkpt lat="43.89075" lon="3.97683">
        <ele>131.1</ele>
        <time>2024-04-06T12:50:13.826Z</time>
      </trkpt>
      <trkpt lat="43.8907" lon="3.97686">
        <ele>131.1</ele>
        <time>2024-04-06T12:50:15.569Z</time>
      </trkpt>
      <trkpt lat="43.89062" lon="3.97691">
        <ele>131</ele>
        <time>2024-04-06T12:50:18.280Z</time>
      </trkpt>
      <trkpt lat="43.89058" lon="3.97693">
        <ele>131</ele>
        <time>2024-04-06T12:50:19.641Z</time>
      </trkpt>
      <trkpt lat="43.89054" lon="3.97695">
        <ele>131.1</ele>
        <time>2024-04-06T12:50:21.105Z</time>
      </trkpt>
      <trkpt lat="43.8905" lon="3.97697">
        <ele>131.3</ele>
        <time>2024-04-06T12:50:22.684Z</time>
      </trkpt>
      <trkpt lat="43.89046" lon="3.97699">
        <ele>131.5</ele>
        <time>2024-04-06T12:50:24.264Z</time>
      </trkpt>
      <trkpt lat="43.89042" lon="3.977">
        <ele>131.8</ele>
        <time>2024-04-06T12:50:25.913Z</time>
      </trkpt>
      <trkpt lat="43.89039" lon="3.97702">
        <ele>131.9</ele>
        <time>2024-04-06T12:50:27.084Z</time>
      </trkpt>
      <trkpt lat="43.89035" lon="3.97703">
        <ele>132.2</ele>
        <time>2024-04-06T12:50:28.734Z</time>
      </trkpt>
      <trkpt lat="43.89032" lon="3.97704">
        <ele>132.4</ele>
        <time>2024-04-06T12:50:29.949Z</time>
      </trkpt>
      <trkpt lat="43.89028" lon="3.97704">
        <ele>132.6</ele>
        <time>2024-04-06T12:50:31.449Z</time>
      </trkpt>
      <trkpt lat="43.89024" lon="3.97705">
        <ele>132.8</ele>
        <time>2024-04-06T12:50:32.970Z</time>
      </trkpt>
      <trkpt lat="43.89021" lon="3.97705">
        <ele>132.9</ele>
        <time>2024-04-06T12:50:34.035Z</time>
      </trkpt>
      <trkpt lat="43.89018" lon="3.97705">
        <ele>133</ele>
        <time>2024-04-06T12:50:35.101Z</time>
      </trkpt>
      <trkpt lat="43.89015" lon="3.97705">
        <ele>133.1</ele>
        <time>2024-04-06T12:50:36.167Z</time>
      </trkpt>
      <trkpt lat="43.89011" lon="3.97706">
        <ele>133.2</ele>
        <time>2024-04-06T12:50:37.572Z</time>
      </trkpt>
      <trkpt lat="43.89008" lon="3.97706">
        <ele>133.3</ele>
        <time>2024-04-06T12:50:38.638Z</time>
      </trkpt>
      <trkpt lat="43.89005" lon="3.97706">
        <ele>133.4</ele>
        <time>2024-04-06T12:50:39.704Z</time>
      </trkpt>
      <trkpt lat="43.89002" lon="3.97705">
        <ele>133.5</ele>
        <time>2024-04-06T12:50:40.797Z</time>
      </trkpt>
      <trkpt lat="43.88999" lon="3.97705">
        <ele>133.7</ele>
        <time>2024-04-06T12:50:41.986Z</time>
      </trkpt>
      <trkpt lat="43.88995" lon="3.97705">
        <ele>134</ele>
        <time>2024-04-06T12:50:43.616Z</time>
      </trkpt>
      <trkpt lat="43.88992" lon="3.97705">
        <ele>134.2</ele>
        <time>2024-04-06T12:50:44.805Z</time>
      </trkpt>
      <trkpt lat="43.88989" lon="3.97704">
        <ele>134.4</ele>
        <time>2024-04-06T12:50:46.020Z</time>
      </trkpt>
      <trkpt lat="43.88987" lon="3.97704">
        <ele>134.6</ele>
        <time>2024-04-06T12:50:46.909Z</time>
      </trkpt>
      <trkpt lat="43.88984" lon="3.97704">
        <ele>134.8</ele>
        <time>2024-04-06T12:50:48.098Z</time>
      </trkpt>
      <trkpt lat="43.88981" lon="3.97704">
        <ele>135</ele>
        <time>2024-04-06T12:50:49.287Z</time>
      </trkpt>
      <trkpt lat="43.88978" lon="3.97703">
        <ele>135.3</ele>
        <time>2024-04-06T12:50:50.644Z</time>
      </trkpt>
      <trkpt lat="43.88975" lon="3.97703">
        <ele>135.5</ele>
        <time>2024-04-06T12:50:51.833Z</time>
      </trkpt>
      <trkpt lat="43.88972" lon="3.97703">
        <ele>135.7</ele>
        <time>2024-04-06T12:50:53.022Z</time>
      </trkpt>
      <trkpt lat="43.8897" lon="3.97703">
        <ele>135.9</ele>
        <time>2024-04-06T12:50:53.910Z</time>
      </trkpt>
      <trkpt lat="43.88967" lon="3.97703">
        <ele>136.1</ele>
        <time>2024-04-06T12:50:55.099Z</time>
      </trkpt>
      <trkpt lat="43.88965" lon="3.97703">
        <ele>136.2</ele>
        <time>2024-04-06T12:50:55.849Z</time>
      </trkpt>
      <trkpt lat="43.88963" lon="3.97702">
        <ele>136.4</ele>
        <time>2024-04-06T12:50:56.774Z</time>
      </trkpt>
      <trkpt lat="43.88961" lon="3.97701">
        <ele>136.6</ele>
        <time>2024-04-06T12:50:57.699Z</time>
      </trkpt>
      <trkpt lat="43.88958" lon="3.97701">
        <ele>136.8</ele>
        <time>2024-04-06T12:50:58.888Z</time>
      </trkpt>
      <trkpt lat="43.88956" lon="3.97701">
        <ele>136.9</ele>
        <time>2024-04-06T12:50:59.638Z</time>
      </trkpt>
      <trkpt lat="43.88954" lon="3.97701">
        <ele>137.1</ele>
        <time>2024-04-06T12:51:00.526Z</time>
      </trkpt>
      <trkpt lat="43.88952" lon="3.97701">
        <ele>137.2</ele>
        <time>2024-04-06T12:51:01.276Z</time>
      </trkpt>
      <trkpt lat="43.8895" lon="3.97701">
        <ele>137.4</ele>
        <time>2024-04-06T12:51:02.165Z</time>
      </trkpt>
      <trkpt lat="43.88948" lon="3.97701">
        <ele>137.5</ele>
        <time>2024-04-06T12:51:02.915Z</time>
      </trkpt>
      <trkpt lat="43.88946" lon="3.977">
        <ele>137.7</ele>
        <time>2024-04-06T12:51:03.840Z</time>
      </trkpt>
      <trkpt lat="43.88943" lon="3.977">
        <ele>137.9</ele>
        <time>2024-04-06T12:51:05.029Z</time>
      </trkpt>
      <trkpt lat="43.88941" lon="3.977">
        <ele>138</ele>
        <time>2024-04-06T12:51:05.779Z</time>
      </trkpt>
      <trkpt lat="43.88939" lon="3.977">
        <ele>138.2</ele>
        <time>2024-04-06T12:51:06.667Z</time>
      </trkpt>
      <trkpt lat="43.88936" lon="3.977">
        <ele>138.3</ele>
        <time>2024-04-06T12:51:07.733Z</time>
      </trkpt>
      <trkpt lat="43.88934" lon="3.977">
        <ele>138.5</ele>
        <time>2024-04-06T12:51:08.621Z</time>
      </trkpt>
      <trkpt lat="43.88932" lon="3.977">
        <ele>138.6</ele>
        <time>2024-04-06T12:51:09.371Z</time>
      </trkpt>
      <trkpt lat="43.88929" lon="3.977">
        <ele>138.8</ele>
        <time>2024-04-06T12:51:10.560Z</time>
      </trkpt>
      <trkpt lat="43.88927" lon="3.97699">
        <ele>139</ele>
        <time>2024-04-06T12:51:11.485Z</time>
      </trkpt>
      <trkpt lat="43.88925" lon="3.97699">
        <ele>139.1</ele>
        <time>2024-04-06T12:51:12.235Z</time>
      </trkpt>
      <trkpt lat="43.88922" lon="3.97699">
        <ele>139.3</ele>
        <time>2024-04-06T12:51:13.424Z</time>
      </trkpt>
      <trkpt lat="43.8892" lon="3.97699">
        <ele>139.5</ele>
        <time>2024-04-06T12:51:14.313Z</time>
      </trkpt>
      <trkpt lat="43.88918" lon="3.97699">
        <ele>139.6</ele>
        <time>2024-04-06T12:51:15.063Z</time>
      </trkpt>
      <trkpt lat="43.88915" lon="3.97698">
        <ele>139.8</ele>
        <time>2024-04-06T12:51:16.278Z</time>
      </trkpt>
      <trkpt lat="43.88913" lon="3.97698">
        <ele>139.9</ele>
        <time>2024-04-06T12:51:17.028Z</time>
      </trkpt>
      <trkpt lat="43.88911" lon="3.97698">
        <ele>139.9</ele>
        <time>2024-04-06T12:51:17.668Z</time>
      </trkpt>
      <trkpt lat="43.88908" lon="3.97697">
        <ele>140.1</ele>
        <time>2024-04-06T12:51:18.883Z</time>
      </trkpt>
      <trkpt lat="43.88906" lon="3.97697">
        <ele>140.2</ele>
        <time>2024-04-06T12:51:19.633Z</time>
      </trkpt>
      <trkpt lat="43.88904" lon="3.97696">
        <ele>140.3</ele>
        <time>2024-04-06T12:51:20.423Z</time>
      </trkpt>
      <trkpt lat="43.88902" lon="3.97696">
        <ele>140.4</ele>
        <time>2024-04-06T12:51:21.173Z</time>
      </trkpt>
      <trkpt lat="43.88899" lon="3.97695">
        <ele>140.6</ele>
        <time>2024-04-06T12:51:22.388Z</time>
      </trkpt>
      <trkpt lat="43.88897" lon="3.97694">
        <ele>140.7</ele>
        <time>2024-04-06T12:51:23.178Z</time>
      </trkpt>
      <trkpt lat="43.88894" lon="3.97694">
        <ele>140.8</ele>
        <time>2024-04-06T12:51:24.244Z</time>
      </trkpt>
      <trkpt lat="43.88892" lon="3.97693">
        <ele>141</ele>
        <time>2024-04-06T12:51:25.169Z</time>
      </trkpt>
      <trkpt lat="43.8889" lon="3.97692">
        <ele>141.1</ele>
        <time>2024-04-06T12:51:25.959Z</time>
      </trkpt>
      <trkpt lat="43.88887" lon="3.97692">
        <ele>141.2</ele>
        <time>2024-04-06T12:51:27.025Z</time>
      </trkpt>
      <trkpt lat="43.88885" lon="3.97691">
        <ele>141.2</ele>
        <time>2024-04-06T12:51:27.705Z</time>
      </trkpt>
      <trkpt lat="43.88882" lon="3.9769">
        <ele>141.3</ele>
        <time>2024-04-06T12:51:28.798Z</time>
      </trkpt>
      <trkpt lat="43.88879" lon="3.9769">
        <ele>141.3</ele>
        <time>2024-04-06T12:51:29.758Z</time>
      </trkpt>
      <trkpt lat="43.88877" lon="3.97689">
        <ele>141.4</ele>
        <time>2024-04-06T12:51:30.547Z</time>
      </trkpt>
      <trkpt lat="43.88874" lon="3.97688">
        <ele>141.5</ele>
        <time>2024-04-06T12:51:31.640Z</time>
      </trkpt>
      <trkpt lat="43.88872" lon="3.97686">
        <ele>141.6</ele>
        <time>2024-04-06T12:51:32.537Z</time>
      </trkpt>
      <trkpt lat="43.8887" lon="3.97684">
        <ele>141.8</ele>
        <time>2024-04-06T12:51:33.563Z</time>
      </trkpt>
      <trkpt lat="43.88868" lon="3.97681">
        <ele>142</ele>
        <time>2024-04-06T12:51:34.735Z</time>
      </trkpt>
      <trkpt lat="43.88866" lon="3.97678">
        <ele>142.2</ele>
        <time>2024-04-06T12:51:35.907Z</time>
      </trkpt>
      <trkpt lat="43.88864" lon="3.97676">
        <ele>142.3</ele>
        <time>2024-04-06T12:51:36.804Z</time>
      </trkpt>
      <trkpt lat="43.88861" lon="3.97674">
        <ele>142.5</ele>
        <time>2024-04-06T12:51:38.094Z</time>
      </trkpt>
      <trkpt lat="43.88858" lon="3.97673">
        <ele>142.5</ele>
        <time>2024-04-06T12:51:39.082Z</time>
      </trkpt>
      <trkpt lat="43.88855" lon="3.97672">
        <ele>142.5</ele>
        <time>2024-04-06T12:51:40.069Z</time>
      </trkpt>
      <trkpt lat="43.88852" lon="3.97672">
        <ele>142.5</ele>
        <time>2024-04-06T12:51:41.029Z</time>
      </trkpt>
      <trkpt lat="43.88849" lon="3.97671">
        <ele>142.6</ele>
        <time>2024-04-06T12:51:42.122Z</time>
      </trkpt>
      <trkpt lat="43.88846" lon="3.9767">
        <ele>142.6</ele>
        <time>2024-04-06T12:51:43.109Z</time>
      </trkpt>
      <trkpt lat="43.88844" lon="3.97668">
        <ele>142.8</ele>
        <time>2024-04-06T12:51:44.135Z</time>
      </trkpt>
      <trkpt lat="43.88841" lon="3.97667">
        <ele>143</ele>
        <time>2024-04-06T12:51:45.350Z</time>
      </trkpt>
      <trkpt lat="43.88838" lon="3.97667">
        <ele>143</ele>
        <time>2024-04-06T12:51:46.310Z</time>
      </trkpt>
      <trkpt lat="43.88836" lon="3.97666">
        <ele>143</ele>
        <time>2024-04-06T12:51:46.990Z</time>
      </trkpt>
      <trkpt lat="43.88833" lon="3.97665">
        <ele>143</ele>
        <time>2024-04-06T12:51:47.978Z</time>
      </trkpt>
      <trkpt lat="43.8883" lon="3.97664">
        <ele>142.7</ele>
        <time>2024-04-06T12:51:48.841Z</time>
      </trkpt>
      <trkpt lat="43.88828" lon="3.97662">
        <ele>142.5</ele>
        <time>2024-04-06T12:51:49.532Z</time>
      </trkpt>
      <trkpt lat="43.88825" lon="3.9766">
        <ele>142.3</ele>
        <time>2024-04-06T12:51:50.463Z</time>
      </trkpt>
      <trkpt lat="43.88823" lon="3.97658">
        <ele>142.2</ele>
        <time>2024-04-06T12:51:51.162Z</time>
      </trkpt>
      <trkpt lat="43.8882" lon="3.97656">
        <ele>142</ele>
        <time>2024-04-06T12:51:52.094Z</time>
      </trkpt>
      <trkpt lat="43.88818" lon="3.97654">
        <ele>142</ele>
        <time>2024-04-06T12:51:52.883Z</time>
      </trkpt>
      <trkpt lat="43.88815" lon="3.97652">
        <ele>141.9</ele>
        <time>2024-04-06T12:51:53.855Z</time>
      </trkpt>
      <trkpt lat="43.88813" lon="3.97649">
        <ele>142.1</ele>
        <time>2024-04-06T12:51:55.027Z</time>
      </trkpt>
      <trkpt lat="43.88811" lon="3.97646">
        <ele>142.3</ele>
        <time>2024-04-06T12:51:56.199Z</time>
      </trkpt>
      <trkpt lat="43.88809" lon="3.97643">
        <ele>142.6</ele>
        <time>2024-04-06T12:51:57.516Z</time>
      </trkpt>
      <trkpt lat="43.88806" lon="3.9764">
        <ele>142.9</ele>
        <time>2024-04-06T12:51:59.055Z</time>
      </trkpt>
      <trkpt lat="43.88804" lon="3.97637">
        <ele>142.8</ele>
        <time>2024-04-06T12:51:59.906Z</time>
      </trkpt>
      <trkpt lat="43.88802" lon="3.97634">
        <ele>142.7</ele>
        <time>2024-04-06T12:52:00.756Z</time>
      </trkpt>
      <trkpt lat="43.88799" lon="3.97631">
        <ele>142.4</ele>
        <time>2024-04-06T12:52:01.792Z</time>
      </trkpt>
      <trkpt lat="43.88797" lon="3.97627">
        <ele>142.3</ele>
        <time>2024-04-06T12:52:02.822Z</time>
      </trkpt>
      <trkpt lat="43.88794" lon="3.97623">
        <ele>142.1</ele>
        <time>2024-04-06T12:52:03.986Z</time>
      </trkpt>
      <trkpt lat="43.88792" lon="3.97619">
        <ele>142.1</ele>
        <time>2024-04-06T12:52:05.109Z</time>
      </trkpt>
      <trkpt lat="43.88789" lon="3.97615">
        <ele>142</ele>
        <time>2024-04-06T12:52:06.347Z</time>
      </trkpt>
      <trkpt lat="43.88786" lon="3.9761">
        <ele>142</ele>
        <time>2024-04-06T12:52:07.847Z</time>
      </trkpt>
      <trkpt lat="43.88783" lon="3.97606">
        <ele>141.9</ele>
        <time>2024-04-06T12:52:09.085Z</time>
      </trkpt>
      <trkpt lat="43.8878" lon="3.97602">
        <ele>141.9</ele>
        <time>2024-04-06T12:52:10.416Z</time>
      </trkpt>
      <trkpt lat="43.88777" lon="3.97598">
        <ele>141.9</ele>
        <time>2024-04-06T12:52:11.747Z</time>
      </trkpt>
      <trkpt lat="43.88774" lon="3.97594">
        <ele>141.8</ele>
        <time>2024-04-06T12:52:12.985Z</time>
      </trkpt>
      <trkpt lat="43.88772" lon="3.9759">
        <ele>141.8</ele>
        <time>2024-04-06T12:52:14.108Z</time>
      </trkpt>
      <trkpt lat="43.88769" lon="3.97586">
        <ele>141.6</ele>
        <time>2024-04-06T12:52:15.273Z</time>
      </trkpt>
      <trkpt lat="43.88766" lon="3.97582">
        <ele>141.4</ele>
        <time>2024-04-06T12:52:16.437Z</time>
      </trkpt>
      <trkpt lat="43.88763" lon="3.97578">
        <ele>141.4</ele>
        <time>2024-04-06T12:52:17.769Z</time>
      </trkpt>
      <trkpt lat="43.8876" lon="3.97574">
        <ele>141.3</ele>
        <time>2024-04-06T12:52:19.006Z</time>
      </trkpt>
      <trkpt lat="43.88757" lon="3.9757">
        <ele>141.3</ele>
        <time>2024-04-06T12:52:20.338Z</time>
      </trkpt>
      <trkpt lat="43.88755" lon="3.97566">
        <ele>141.5</ele>
        <time>2024-04-06T12:52:21.684Z</time>
      </trkpt>
      <trkpt lat="43.88753" lon="3.97562">
        <ele>141.7</ele>
        <time>2024-04-06T12:52:23.031Z</time>
      </trkpt>
      <trkpt lat="43.8875" lon="3.97558">
        <ele>141.7</ele>
        <time>2024-04-06T12:52:24.362Z</time>
      </trkpt>
      <trkpt lat="43.88748" lon="3.97554">
        <ele>141.8</ele>
        <time>2024-04-06T12:52:25.590Z</time>
      </trkpt>
      <trkpt lat="43.88746" lon="3.9755">
        <ele>141.8</ele>
        <time>2024-04-06T12:52:26.712Z</time>
      </trkpt>
      <trkpt lat="43.88744" lon="3.97546">
        <ele>141.7</ele>
        <time>2024-04-06T12:52:27.742Z</time>
      </trkpt>
      <trkpt lat="43.88743" lon="3.97541">
        <ele>141.8</ele>
        <time>2024-04-06T12:52:29.043Z</time>
      </trkpt>
      <trkpt lat="43.88742" lon="3.97535">
        <ele>141.9</ele>
        <time>2024-04-06T12:52:30.567Z</time>
      </trkpt>
      <trkpt lat="43.88743" lon="3.9753">
        <ele>142.2</ele>
        <time>2024-04-06T12:52:32.118Z</time>
      </trkpt>
      <trkpt lat="43.88745" lon="3.97525">
        <ele>142.7</ele>
        <time>2024-04-06T12:52:34.092Z</time>
      </trkpt>
      <trkpt lat="43.88746" lon="3.97521">
        <ele>143.1</ele>
        <time>2024-04-06T12:52:35.606Z</time>
      </trkpt>
      <trkpt lat="43.88748" lon="3.97518">
        <ele>143.5</ele>
        <time>2024-04-06T12:52:37.092Z</time>
      </trkpt>
      <trkpt lat="43.8875" lon="3.97516">
        <ele>143.8</ele>
        <time>2024-04-06T12:52:38.274Z</time>
      </trkpt>
      <trkpt lat="43.88752" lon="3.97513">
        <ele>144.3</ele>
        <time>2024-04-06T12:52:39.960Z</time>
      </trkpt>
      <trkpt lat="43.88753" lon="3.97511">
        <ele>144.5</ele>
        <time>2024-04-06T12:52:40.779Z</time>
      </trkpt>
      <trkpt lat="43.88755" lon="3.97509">
        <ele>144.9</ele>
        <time>2024-04-06T12:52:42.151Z</time>
      </trkpt>
      <trkpt lat="43.88756" lon="3.97507">
        <ele>145.1</ele>
        <time>2024-04-06T12:52:42.969Z</time>
      </trkpt>
      <trkpt lat="43.88758" lon="3.97505">
        <ele>145.5</ele>
        <time>2024-04-06T12:52:44.341Z</time>
      </trkpt>
      <trkpt lat="43.88759" lon="3.97503">
        <ele>145.8</ele>
        <time>2024-04-06T12:52:45.350Z</time>
      </trkpt>
      <trkpt lat="43.88761" lon="3.97501">
        <ele>146.1</ele>
        <time>2024-04-06T12:52:46.533Z</time>
      </trkpt>
      <trkpt lat="43.88762" lon="3.97499">
        <ele>146.3</ele>
        <time>2024-04-06T12:52:47.351Z</time>
      </trkpt>
      <trkpt lat="43.88763" lon="3.97496">
        <ele>146.6</ele>
        <time>2024-04-06T12:52:48.511Z</time>
      </trkpt>
      <trkpt lat="43.88764" lon="3.97494">
        <ele>146.8</ele>
        <time>2024-04-06T12:52:49.329Z</time>
      </trkpt>
      <trkpt lat="43.88765" lon="3.97491">
        <ele>147.1</ele>
        <time>2024-04-06T12:52:50.489Z</time>
      </trkpt>
      <trkpt lat="43.88765" lon="3.97488">
        <ele>147.3</ele>
        <time>2024-04-06T12:52:51.425Z</time>
      </trkpt>
      <trkpt lat="43.88765" lon="3.97485">
        <ele>147.5</ele>
        <time>2024-04-06T12:52:52.360Z</time>
      </trkpt>
      <trkpt lat="43.88765" lon="3.97482">
        <ele>147.6</ele>
        <time>2024-04-06T12:52:53.161Z</time>
      </trkpt>
      <trkpt lat="43.88764" lon="3.9748">
        <ele>147.6</ele>
        <time>2024-04-06T12:52:53.723Z</time>
      </trkpt>
      <trkpt lat="43.88764" lon="3.97477">
        <ele>147.8</ele>
        <time>2024-04-06T12:52:54.658Z</time>
      </trkpt>
      <trkpt lat="43.88762" lon="3.97474">
        <ele>147.6</ele>
        <time>2024-04-06T12:52:55.483Z</time>
      </trkpt>
      <trkpt lat="43.8876" lon="3.97472">
        <ele>147.4</ele>
        <time>2024-04-06T12:52:56.173Z</time>
      </trkpt>
      <trkpt lat="43.88759" lon="3.9747">
        <ele>147.4</ele>
        <time>2024-04-06T12:52:56.735Z</time>
      </trkpt>
      <trkpt lat="43.88757" lon="3.97467">
        <ele>147.2</ele>
        <time>2024-04-06T12:52:57.559Z</time>
      </trkpt>
      <trkpt lat="43.88756" lon="3.97465">
        <ele>147.1</ele>
        <time>2024-04-06T12:52:58.050Z</time>
      </trkpt>
      <trkpt lat="43.88753" lon="3.97462">
        <ele>146.8</ele>
        <time>2024-04-06T12:52:59.086Z</time>
      </trkpt>
      <trkpt lat="43.88751" lon="3.97458">
        <ele>146.7</ele>
        <time>2024-04-06T12:53:00.116Z</time>
      </trkpt>
      <trkpt lat="43.88748" lon="3.97453">
        <ele>146.5</ele>
        <time>2024-04-06T12:53:01.436Z</time>
      </trkpt>
      <trkpt lat="43.88745" lon="3.97449">
        <ele>146.3</ele>
        <time>2024-04-06T12:53:02.601Z</time>
      </trkpt>
      <trkpt lat="43.88743" lon="3.97444">
        <ele>146.3</ele>
        <time>2024-04-06T12:53:03.919Z</time>
      </trkpt>
      <trkpt lat="43.8874" lon="3.97439">
        <ele>146</ele>
        <time>2024-04-06T12:53:05.232Z</time>
      </trkpt>
      <trkpt lat="43.88737" lon="3.97433">
        <ele>145.6</ele>
        <time>2024-04-06T12:53:06.706Z</time>
      </trkpt>
      <trkpt lat="43.88733" lon="3.97427">
        <ele>145</ele>
        <time>2024-04-06T12:53:08.355Z</time>
      </trkpt>
      <trkpt lat="43.88729" lon="3.9742">
        <ele>144.3</ele>
        <time>2024-04-06T12:53:10.157Z</time>
      </trkpt>
      <trkpt lat="43.88724" lon="3.97413">
        <ele>143.5</ele>
        <time>2024-04-06T12:53:12.146Z</time>
      </trkpt>
      <trkpt lat="43.8872" lon="3.97405">
        <ele>143.2</ele>
        <time>2024-04-06T12:53:14.121Z</time>
      </trkpt>
      <trkpt lat="43.88715" lon="3.97398">
        <ele>143</ele>
        <time>2024-04-06T12:53:16.208Z</time>
      </trkpt>
      <trkpt lat="43.88711" lon="3.97391">
        <ele>142.7</ele>
        <time>2024-04-06T12:53:18.011Z</time>
      </trkpt>
      <trkpt lat="43.88706" lon="3.97384">
        <ele>142.7</ele>
        <time>2024-04-06T12:53:20.284Z</time>
      </trkpt>
      <trkpt lat="43.88701" lon="3.97378">
        <ele>142.7</ele>
        <time>2024-04-06T12:53:22.399Z</time>
      </trkpt>
      <trkpt lat="43.88696" lon="3.97373">
        <ele>142.4</ele>
        <time>2024-04-06T12:53:24.125Z</time>
      </trkpt>
      <trkpt lat="43.88691" lon="3.97368">
        <ele>142.2</ele>
        <time>2024-04-06T12:53:25.913Z</time>
      </trkpt>
      <trkpt lat="43.88685" lon="3.97364">
        <ele>141.8</ele>
        <time>2024-04-06T12:53:27.776Z</time>
      </trkpt>
      <trkpt lat="43.8868" lon="3.97359">
        <ele>141.7</ele>
        <time>2024-04-06T12:53:29.653Z</time>
      </trkpt>
      <trkpt lat="43.88676" lon="3.97354">
        <ele>141.9</ele>
        <time>2024-04-06T12:53:31.590Z</time>
      </trkpt>
      <trkpt lat="43.88672" lon="3.97348">
        <ele>141.9</ele>
        <time>2024-04-06T12:53:33.475Z</time>
      </trkpt>
      <trkpt lat="43.88668" lon="3.97342">
        <ele>141.7</ele>
        <time>2024-04-06T12:53:35.176Z</time>
      </trkpt>
      <trkpt lat="43.88664" lon="3.97337">
        <ele>141.6</ele>
        <time>2024-04-06T12:53:36.804Z</time>
      </trkpt>
      <trkpt lat="43.88661" lon="3.97331">
        <ele>141.9</ele>
        <time>2024-04-06T12:53:38.824Z</time>
      </trkpt>
      <trkpt lat="43.88657" lon="3.97326">
        <ele>142</ele>
        <time>2024-04-06T12:53:40.649Z</time>
      </trkpt>
      <trkpt lat="43.88653" lon="3.97321">
        <ele>141.9</ele>
        <time>2024-04-06T12:53:42.277Z</time>
      </trkpt>
      <trkpt lat="43.88649" lon="3.97316">
        <ele>141.6</ele>
        <time>2024-04-06T12:53:43.785Z</time>
      </trkpt>
      <trkpt lat="43.88645" lon="3.97311">
        <ele>141.1</ele>
        <time>2024-04-06T12:53:45.292Z</time>
      </trkpt>
      <trkpt lat="43.88641" lon="3.97306">
        <ele>140.5</ele>
        <time>2024-04-06T12:53:46.799Z</time>
      </trkpt>
      <trkpt lat="43.88637" lon="3.97302">
        <ele>140.4</ele>
        <time>2024-04-06T12:53:48.283Z</time>
      </trkpt>
      <trkpt lat="43.88633" lon="3.97298">
        <ele>140.6</ele>
        <time>2024-04-06T12:53:50.076Z</time>
      </trkpt>
      <trkpt lat="43.88629" lon="3.97294">
        <ele>140.8</ele>
        <time>2024-04-06T12:53:51.869Z</time>
      </trkpt>
      <trkpt lat="43.88625" lon="3.9729">
        <ele>140.8</ele>
        <time>2024-04-06T12:53:53.447Z</time>
      </trkpt>
      <trkpt lat="43.88621" lon="3.97286">
        <ele>140.8</ele>
        <time>2024-04-06T12:53:55.025Z</time>
      </trkpt>
      <trkpt lat="43.88618" lon="3.97281">
        <ele>140.7</ele>
        <time>2024-04-06T12:53:56.431Z</time>
      </trkpt>
      <trkpt lat="43.88615" lon="3.97277">
        <ele>140.5</ele>
        <time>2024-04-06T12:53:57.596Z</time>
      </trkpt>
      <trkpt lat="43.88612" lon="3.97273">
        <ele>140.5</ele>
        <time>2024-04-06T12:53:58.927Z</time>
      </trkpt>
      <trkpt lat="43.88608" lon="3.97268">
        <ele>140.6</ele>
        <time>2024-04-06T12:54:00.752Z</time>
      </trkpt>
      <trkpt lat="43.88605" lon="3.97264">
        <ele>140.8</ele>
        <time>2024-04-06T12:54:02.303Z</time>
      </trkpt>
      <trkpt lat="43.88601" lon="3.9726">
        <ele>140.8</ele>
        <time>2024-04-06T12:54:03.880Z</time>
      </trkpt>
      <trkpt lat="43.88597" lon="3.97256">
        <ele>140.8</ele>
        <time>2024-04-06T12:54:05.458Z</time>
      </trkpt>
      <trkpt lat="43.88592" lon="3.97252">
        <ele>140.6</ele>
        <time>2024-04-06T12:54:07.122Z</time>
      </trkpt>
      <trkpt lat="43.88588" lon="3.97247">
        <ele>140.6</ele>
        <time>2024-04-06T12:54:08.844Z</time>
      </trkpt>
      <trkpt lat="43.88584" lon="3.97243">
        <ele>140.6</ele>
        <time>2024-04-06T12:54:10.422Z</time>
      </trkpt>
      <trkpt lat="43.88581" lon="3.97238">
        <ele>140.8</ele>
        <time>2024-04-06T12:54:12.139Z</time>
      </trkpt>
      <trkpt lat="43.88577" lon="3.97233">
        <ele>141.1</ele>
        <time>2024-04-06T12:54:14.197Z</time>
      </trkpt>
      <trkpt lat="43.88574" lon="3.97228">
        <ele>141.3</ele>
        <time>2024-04-06T12:54:15.914Z</time>
      </trkpt>
      <trkpt lat="43.8857" lon="3.97224">
        <ele>141.4</ele>
        <time>2024-04-06T12:54:17.594Z</time>
      </trkpt>
      <trkpt lat="43.88568" lon="3.97219">
        <ele>141.8</ele>
        <time>2024-04-06T12:54:19.406Z</time>
      </trkpt>
      <trkpt lat="43.88566" lon="3.97215">
        <ele>142.2</ele>
        <time>2024-04-06T12:54:21.043Z</time>
      </trkpt>
      <trkpt lat="43.88564" lon="3.9721">
        <ele>142.6</ele>
        <time>2024-04-06T12:54:22.855Z</time>
      </trkpt>
      <trkpt lat="43.88563" lon="3.97206">
        <ele>142.9</ele>
        <time>2024-04-06T12:54:24.202Z</time>
      </trkpt>
      <trkpt lat="43.88562" lon="3.97201">
        <ele>143.3</ele>
        <time>2024-04-06T12:54:25.904Z</time>
      </trkpt>
      <trkpt lat="43.8856" lon="3.97197">
        <ele>143.4</ele>
        <time>2024-04-06T12:54:27.132Z</time>
      </trkpt>
      <trkpt lat="43.88558" lon="3.97193">
        <ele>143.5</ele>
        <time>2024-04-06T12:54:28.359Z</time>
      </trkpt>
      <trkpt lat="43.88557" lon="3.97189">
        <ele>143.6</ele>
        <time>2024-04-06T12:54:29.441Z</time>
      </trkpt>
      <trkpt lat="43.88556" lon="3.97185">
        <ele>143.8</ele>
        <time>2024-04-06T12:54:30.646Z</time>
      </trkpt>
      <trkpt lat="43.88554" lon="3.97181">
        <ele>143.8</ele>
        <time>2024-04-06T12:54:31.769Z</time>
      </trkpt>
      <trkpt lat="43.88553" lon="3.97177">
        <ele>143.9</ele>
        <time>2024-04-06T12:54:32.851Z</time>
      </trkpt>
      <trkpt lat="43.88552" lon="3.97173">
        <ele>144.1</ele>
        <time>2024-04-06T12:54:34.056Z</time>
      </trkpt>
      <trkpt lat="43.8855" lon="3.97169">
        <ele>144</ele>
        <time>2024-04-06T12:54:35.086Z</time>
      </trkpt>
      <trkpt lat="43.88548" lon="3.97165">
        <ele>144</ele>
        <time>2024-04-06T12:54:36.209Z</time>
      </trkpt>
      <trkpt lat="43.88546" lon="3.97161">
        <ele>144</ele>
        <time>2024-04-06T12:54:37.331Z</time>
      </trkpt>
      <trkpt lat="43.88545" lon="3.97156">
        <ele>144.1</ele>
        <time>2024-04-06T12:54:38.633Z</time>
      </trkpt>
      <trkpt lat="43.88543" lon="3.97152">
        <ele>144</ele>
        <time>2024-04-06T12:54:39.663Z</time>
      </trkpt>
      <trkpt lat="43.88542" lon="3.97148">
        <ele>144.1</ele>
        <time>2024-04-06T12:54:40.745Z</time>
      </trkpt>
      <trkpt lat="43.88541" lon="3.97144">
        <ele>144.1</ele>
        <time>2024-04-06T12:54:41.721Z</time>
      </trkpt>
      <trkpt lat="43.88539" lon="3.9714">
        <ele>144</ele>
        <time>2024-04-06T12:54:42.751Z</time>
      </trkpt>
      <trkpt lat="43.88538" lon="3.97136">
        <ele>144.2</ele>
        <time>2024-04-06T12:54:43.956Z</time>
      </trkpt>
      <trkpt lat="43.88536" lon="3.97133">
        <ele>144.1</ele>
        <time>2024-04-06T12:54:44.807Z</time>
      </trkpt>
      <trkpt lat="43.88535" lon="3.97129">
        <ele>144.4</ele>
        <time>2024-04-06T12:54:46.154Z</time>
      </trkpt>
      <trkpt lat="43.88533" lon="3.97126">
        <ele>144.3</ele>
        <time>2024-04-06T12:54:47.005Z</time>
      </trkpt>
      <trkpt lat="43.88531" lon="3.97122">
        <ele>144.4</ele>
        <time>2024-04-06T12:54:48.232Z</time>
      </trkpt>
      <trkpt lat="43.8853" lon="3.97119">
        <ele>144.5</ele>
        <time>2024-04-06T12:54:49.103Z</time>
      </trkpt>
      <trkpt lat="43.88528" lon="3.97115">
        <ele>144.6</ele>
        <time>2024-04-06T12:54:50.330Z</time>
      </trkpt>
      <trkpt lat="43.88526" lon="3.97111">
        <ele>144.8</ele>
        <time>2024-04-06T12:54:51.677Z</time>
      </trkpt>
      <trkpt lat="43.88525" lon="3.97107">
        <ele>144.9</ele>
        <time>2024-04-06T12:54:52.759Z</time>
      </trkpt>
      <trkpt lat="43.88523" lon="3.97102">
        <ele>145</ele>
        <time>2024-04-06T12:54:54.182Z</time>
      </trkpt>
      <trkpt lat="43.88521" lon="3.97098">
        <ele>145.1</ele>
        <time>2024-04-06T12:54:55.409Z</time>
      </trkpt>
      <trkpt lat="43.88519" lon="3.97093">
        <ele>145.2</ele>
        <time>2024-04-06T12:54:56.832Z</time>
      </trkpt>
      <trkpt lat="43.88517" lon="3.97089">
        <ele>145.3</ele>
        <time>2024-04-06T12:54:58.060Z</time>
      </trkpt>
      <trkpt lat="43.88515" lon="3.97085">
        <ele>145.5</ele>
        <time>2024-04-06T12:54:59.406Z</time>
      </trkpt>
      <trkpt lat="43.88512" lon="3.97082">
        <ele>145.5</ele>
        <time>2024-04-06T12:55:00.589Z</time>
      </trkpt>
      <trkpt lat="43.8851" lon="3.9708">
        <ele>145.5</ele>
        <time>2024-04-06T12:55:01.378Z</time>
      </trkpt>
      <trkpt lat="43.88506" lon="3.97078">
        <ele>145.3</ele>
        <time>2024-04-06T12:55:02.569Z</time>
      </trkpt>
      <trkpt lat="43.88502" lon="3.97077">
        <ele>144.9</ele>
        <time>2024-04-06T12:55:03.707Z</time>
      </trkpt>
      <trkpt lat="43.88499" lon="3.97075">
        <ele>144.8</ele>
        <time>2024-04-06T12:55:04.679Z</time>
      </trkpt>
      <trkpt lat="43.88497" lon="3.97071">
        <ele>145.1</ele>
        <time>2024-04-06T12:55:06.161Z</time>
      </trkpt>
      <trkpt lat="43.88496" lon="3.97069">
        <ele>145.3</ele>
        <time>2024-04-06T12:55:06.980Z</time>
      </trkpt>
      <trkpt lat="43.88494" lon="3.97067">
        <ele>145.3</ele>
        <time>2024-04-06T12:55:07.769Z</time>
      </trkpt>
      <trkpt lat="43.88492" lon="3.97065">
        <ele>145.4</ele>
        <time>2024-04-06T12:55:08.665Z</time>
      </trkpt>
      <trkpt lat="43.88489" lon="3.97062">
        <ele>145.5</ele>
        <time>2024-04-06T12:55:09.953Z</time>
      </trkpt>
      <trkpt lat="43.88488" lon="3.97059">
        <ele>145.8</ele>
        <time>2024-04-06T12:55:11.113Z</time>
      </trkpt>
      <trkpt lat="43.88486" lon="3.97055">
        <ele>146</ele>
        <time>2024-04-06T12:55:12.460Z</time>
      </trkpt>
      <trkpt lat="43.88485" lon="3.97053">
        <ele>146.1</ele>
        <time>2024-04-06T12:55:13.133Z</time>
      </trkpt>
      <trkpt lat="43.88483" lon="3.9705">
        <ele>146.3</ele>
        <time>2024-04-06T12:55:14.305Z</time>
      </trkpt>
      <trkpt lat="43.88482" lon="3.97048">
        <ele>146.3</ele>
        <time>2024-04-06T12:55:14.866Z</time>
      </trkpt>
      <trkpt lat="43.8848" lon="3.97046">
        <ele>146.3</ele>
        <time>2024-04-06T12:55:15.655Z</time>
      </trkpt>
      <trkpt lat="43.88479" lon="3.97044">
        <ele>146.4</ele>
        <time>2024-04-06T12:55:16.329Z</time>
      </trkpt>
      <trkpt lat="43.88477" lon="3.97042">
        <ele>146.4</ele>
        <time>2024-04-06T12:55:17.117Z</time>
      </trkpt>
      <trkpt lat="43.88476" lon="3.97039">
        <ele>146.5</ele>
        <time>2024-04-06T12:55:17.988Z</time>
      </trkpt>
      <trkpt lat="43.88474" lon="3.97038">
        <ele>146.4</ele>
        <time>2024-04-06T12:55:18.583Z</time>
      </trkpt>
      <trkpt lat="43.88471" lon="3.97034">
        <ele>146.4</ele>
        <time>2024-04-06T12:55:19.914Z</time>
      </trkpt>
      <trkpt lat="43.88469" lon="3.97032">
        <ele>146.3</ele>
        <time>2024-04-06T12:55:20.613Z</time>
      </trkpt>
      <trkpt lat="43.88467" lon="3.9703">
        <ele>146.3</ele>
        <time>2024-04-06T12:55:21.402Z</time>
      </trkpt>
      <trkpt lat="43.88465" lon="3.97029">
        <ele>146.1</ele>
        <time>2024-04-06T12:55:21.997Z</time>
      </trkpt>
      <trkpt lat="43.88462" lon="3.97029">
        <ele>145.8</ele>
        <time>2024-04-06T12:55:22.837Z</time>
      </trkpt>
      <trkpt lat="43.88459" lon="3.9703">
        <ele>145.4</ele>
        <time>2024-04-06T12:55:23.701Z</time>
      </trkpt>
      <trkpt lat="43.88456" lon="3.97031">
        <ele>144.9</ele>
        <time>2024-04-06T12:55:24.564Z</time>
      </trkpt>
      <trkpt lat="43.88454" lon="3.97032">
        <ele>144.6</ele>
        <time>2024-04-06T12:55:25.160Z</time>
      </trkpt>
      <trkpt lat="43.8845" lon="3.9703">
        <ele>144.4</ele>
        <time>2024-04-06T12:55:26.350Z</time>
      </trkpt>
      <trkpt lat="43.88447" lon="3.97029">
        <ele>144.1</ele>
        <time>2024-04-06T12:55:27.214Z</time>
      </trkpt>
      <trkpt lat="43.88445" lon="3.97029">
        <ele>143.9</ele>
        <time>2024-04-06T12:55:27.774Z</time>
      </trkpt>
      <trkpt lat="43.88442" lon="3.97029">
        <ele>144</ele>
        <time>2024-04-06T12:55:28.840Z</time>
      </trkpt>
      <trkpt lat="43.88439" lon="3.97029">
        <ele>144.1</ele>
        <time>2024-04-06T12:55:29.906Z</time>
      </trkpt>
      <trkpt lat="43.88437" lon="3.9703">
        <ele>144</ele>
        <time>2024-04-06T12:55:30.501Z</time>
      </trkpt>
      <trkpt lat="43.88434" lon="3.9703">
        <ele>144.1</ele>
        <time>2024-04-06T12:55:31.567Z</time>
      </trkpt>
      <trkpt lat="43.88432" lon="3.9703">
        <ele>144.2</ele>
        <time>2024-04-06T12:55:32.317Z</time>
      </trkpt>
      <trkpt lat="43.8843" lon="3.9703">
        <ele>144.3</ele>
        <time>2024-04-06T12:55:33.067Z</time>
      </trkpt>
      <trkpt lat="43.88426" lon="3.9703">
        <ele>144.4</ele>
        <time>2024-04-06T12:55:34.451Z</time>
      </trkpt>
      <trkpt lat="43.88423" lon="3.9703">
        <ele>144.5</ele>
        <time>2024-04-06T12:55:35.517Z</time>
      </trkpt>
      <trkpt lat="43.88421" lon="3.97028">
        <ele>144.8</ele>
        <time>2024-04-06T12:55:36.699Z</time>
      </trkpt>
      <trkpt lat="43.8842" lon="3.97026">
        <ele>145.1</ele>
        <time>2024-04-06T12:55:37.708Z</time>
      </trkpt>
      <trkpt lat="43.88418" lon="3.97024">
        <ele>145.5</ele>
        <time>2024-04-06T12:55:39.080Z</time>
      </trkpt>
      <trkpt lat="43.88417" lon="3.97022">
        <ele>145.8</ele>
        <time>2024-04-06T12:55:40.089Z</time>
      </trkpt>
      <trkpt lat="43.88415" lon="3.97018">
        <ele>146.3</ele>
        <time>2024-04-06T12:55:41.904Z</time>
      </trkpt>
      <trkpt lat="43.88414" lon="3.97014">
        <ele>146.9</ele>
        <time>2024-04-06T12:55:43.841Z</time>
      </trkpt>
      <trkpt lat="43.88413" lon="3.97011">
        <ele>147.3</ele>
        <time>2024-04-06T12:55:45.195Z</time>
      </trkpt>
      <trkpt lat="43.88406" lon="3.97006">
        <ele>147.8</ele>
        <time>2024-04-06T12:55:48.283Z</time>
      </trkpt>
      <trkpt lat="43.88406" lon="3.97004">
        <ele>148</ele>
        <time>2024-04-06T12:55:49.018Z</time>
      </trkpt>
      <trkpt lat="43.88403" lon="3.97">
        <ele>148.5</ele>
        <time>2024-04-06T12:55:51.002Z</time>
      </trkpt>
      <trkpt lat="43.88402" lon="3.96998">
        <ele>148.7</ele>
        <time>2024-04-06T12:55:51.821Z</time>
      </trkpt>
      <trkpt lat="43.88401" lon="3.96995">
        <ele>149</ele>
        <time>2024-04-06T12:55:52.981Z</time>
      </trkpt>
      <trkpt lat="43.88399" lon="3.96994">
        <ele>149</ele>
        <time>2024-04-06T12:55:53.661Z</time>
      </trkpt>
      <trkpt lat="43.88397" lon="3.96993">
        <ele>149</ele>
        <time>2024-04-06T12:55:54.341Z</time>
      </trkpt>
      <trkpt lat="43.88394" lon="3.96993">
        <ele>148.9</ele>
        <time>2024-04-06T12:55:55.209Z</time>
      </trkpt>
      <trkpt lat="43.88392" lon="3.96992">
        <ele>149</ele>
        <time>2024-04-06T12:55:55.999Z</time>
      </trkpt>
      <trkpt lat="43.8839" lon="3.9699">
        <ele>149.1</ele>
        <time>2024-04-06T12:55:56.896Z</time>
      </trkpt>
      <trkpt lat="43.88389" lon="3.96988">
        <ele>149.3</ele>
        <time>2024-04-06T12:55:57.714Z</time>
      </trkpt>
      <trkpt lat="43.88387" lon="3.96986">
        <ele>149.4</ele>
        <time>2024-04-06T12:55:58.611Z</time>
      </trkpt>
      <trkpt lat="43.88386" lon="3.96984">
        <ele>149.6</ele>
        <time>2024-04-06T12:55:59.429Z</time>
      </trkpt>
      <trkpt lat="43.88384" lon="3.96982">
        <ele>149.7</ele>
        <time>2024-04-06T12:56:00.326Z</time>
      </trkpt>
      <trkpt lat="43.88383" lon="3.9698">
        <ele>149.9</ele>
        <time>2024-04-06T12:56:01.145Z</time>
      </trkpt>
      <trkpt lat="43.88381" lon="3.96977">
        <ele>150.2</ele>
        <time>2024-04-06T12:56:02.461Z</time>
      </trkpt>
      <trkpt lat="43.88379" lon="3.96975">
        <ele>150.3</ele>
        <time>2024-04-06T12:56:03.358Z</time>
      </trkpt>
      <trkpt lat="43.88378" lon="3.96973">
        <ele>150.5</ele>
        <time>2024-04-06T12:56:04.176Z</time>
      </trkpt>
      <trkpt lat="43.88376" lon="3.96971">
        <ele>150.6</ele>
        <time>2024-04-06T12:56:05.073Z</time>
      </trkpt>
      <trkpt lat="43.88373" lon="3.9697">
        <ele>150.6</ele>
        <time>2024-04-06T12:56:06.060Z</time>
      </trkpt>
      <trkpt lat="43.88371" lon="3.96968">
        <ele>150.7</ele>
        <time>2024-04-06T12:56:06.957Z</time>
      </trkpt>
      <trkpt lat="43.88369" lon="3.96966">
        <ele>150.8</ele>
        <time>2024-04-06T12:56:07.853Z</time>
      </trkpt>
      <trkpt lat="43.88367" lon="3.96963">
        <ele>150.9</ele>
        <time>2024-04-06T12:56:08.902Z</time>
      </trkpt>
      <trkpt lat="43.88365" lon="3.96961">
        <ele>151</ele>
        <time>2024-04-06T12:56:09.799Z</time>
      </trkpt>
      <trkpt lat="43.88363" lon="3.96959">
        <ele>151.1</ele>
        <time>2024-04-06T12:56:10.695Z</time>
      </trkpt>
      <trkpt lat="43.88361" lon="3.96957">
        <ele>151.1</ele>
        <time>2024-04-06T12:56:11.484Z</time>
      </trkpt>
      <trkpt lat="43.88358" lon="3.96956">
        <ele>150.8</ele>
        <time>2024-04-06T12:56:12.348Z</time>
      </trkpt>
      <trkpt lat="43.88356" lon="3.96954">
        <ele>150.8</ele>
        <time>2024-04-06T12:56:13.137Z</time>
      </trkpt>
      <trkpt lat="43.88354" lon="3.96952">
        <ele>150.7</ele>
        <time>2024-04-06T12:56:13.835Z</time>
      </trkpt>
      <trkpt lat="43.88352" lon="3.9695">
        <ele>150.6</ele>
        <time>2024-04-06T12:56:14.534Z</time>
      </trkpt>
      <trkpt lat="43.88351" lon="3.96947">
        <ele>150.7</ele>
        <time>2024-04-06T12:56:15.404Z</time>
      </trkpt>
      <trkpt lat="43.8835" lon="3.96944">
        <ele>150.8</ele>
        <time>2024-04-06T12:56:16.274Z</time>
      </trkpt>
      <trkpt lat="43.88347" lon="3.96942">
        <ele>150.6</ele>
        <time>2024-04-06T12:56:17.206Z</time>
      </trkpt>
      <trkpt lat="43.88345" lon="3.96938">
        <ele>150.6</ele>
        <time>2024-04-06T12:56:18.329Z</time>
      </trkpt>
      <trkpt lat="43.88344" lon="3.96934">
        <ele>150.7</ele>
        <time>2024-04-06T12:56:19.411Z</time>
      </trkpt>
      <trkpt lat="43.88342" lon="3.96931">
        <ele>150.6</ele>
        <time>2024-04-06T12:56:20.262Z</time>
      </trkpt>
      <trkpt lat="43.88342" lon="3.96927">
        <ele>150.8</ele>
        <time>2024-04-06T12:56:21.415Z</time>
      </trkpt>
      <trkpt lat="43.88341" lon="3.96924">
        <ele>150.8</ele>
        <time>2024-04-06T12:56:22.177Z</time>
      </trkpt>
      <trkpt lat="43.88341" lon="3.96922">
        <ele>150.9</ele>
        <time>2024-04-06T12:56:22.754Z</time>
      </trkpt>
      <trkpt lat="43.88339" lon="3.9692">
        <ele>150.7</ele>
        <time>2024-04-06T12:56:23.444Z</time>
      </trkpt>
      <trkpt lat="43.88338" lon="3.96918">
        <ele>150.6</ele>
        <time>2024-04-06T12:56:23.935Z</time>
      </trkpt>
      <trkpt lat="43.88337" lon="3.96915">
        <ele>150.6</ele>
        <time>2024-04-06T12:56:24.698Z</time>
      </trkpt>
      <trkpt lat="43.88336" lon="3.96912">
        <ele>150.6</ele>
        <time>2024-04-06T12:56:25.460Z</time>
      </trkpt>
      <trkpt lat="43.88334" lon="3.9691">
        <ele>150.3</ele>
        <time>2024-04-06T12:56:26.150Z</time>
      </trkpt>
      <trkpt lat="43.88333" lon="3.96907">
        <ele>150.3</ele>
        <time>2024-04-06T12:56:26.912Z</time>
      </trkpt>
      <trkpt lat="43.88332" lon="3.96906">
        <ele>150.1</ele>
        <time>2024-04-06T12:56:27.257Z</time>
      </trkpt>
      <trkpt lat="43.88329" lon="3.96904">
        <ele>149.7</ele>
        <time>2024-04-06T12:56:28.189Z</time>
      </trkpt>
      <trkpt lat="43.88327" lon="3.96894">
        <ele>149.7</ele>
        <time>2024-04-06T12:56:30.583Z</time>
      </trkpt>
      <trkpt lat="43.88325" lon="3.96885">
        <ele>149.5</ele>
        <time>2024-04-06T12:56:32.659Z</time>
      </trkpt>
      <trkpt lat="43.88323" lon="3.96875">
        <ele>149.3</ele>
        <time>2024-04-06T12:56:34.867Z</time>
      </trkpt>
      <trkpt lat="43.88322" lon="3.96866">
        <ele>149.3</ele>
        <time>2024-04-06T12:56:36.782Z</time>
      </trkpt>
      <trkpt lat="43.8832" lon="3.96856">
        <ele>149.1</ele>
        <time>2024-04-06T12:56:38.989Z</time>
      </trkpt>
      <trkpt lat="43.88318" lon="3.96846">
        <ele>148.8</ele>
        <time>2024-04-06T12:56:41.196Z</time>
      </trkpt>
      <trkpt lat="43.88316" lon="3.96837">
        <ele>148.7</ele>
        <time>2024-04-06T12:56:43.273Z</time>
      </trkpt>
      <trkpt lat="43.88314" lon="3.96827">
        <ele>148.5</ele>
        <time>2024-04-06T12:56:45.480Z</time>
      </trkpt>
      <trkpt lat="43.88315" lon="3.96824">
        <ele>148.6</ele>
        <time>2024-04-06T12:56:46.351Z</time>
      </trkpt>
      <trkpt lat="43.88316" lon="3.96819">
        <ele>148.6</ele>
        <time>2024-04-06T12:56:47.547Z</time>
      </trkpt>
      <trkpt lat="43.88315" lon="3.96815">
        <ele>148.5</ele>
        <time>2024-04-06T12:56:48.432Z</time>
      </trkpt>
      <trkpt lat="43.88315" lon="3.96812">
        <ele>148.4</ele>
        <time>2024-04-06T12:56:49.037Z</time>
      </trkpt>
      <trkpt lat="43.88315" lon="3.96808">
        <ele>148.4</ele>
        <time>2024-04-06T12:56:49.960Z</time>
      </trkpt>
      <trkpt lat="43.88316" lon="3.96806">
        <ele>148.5</ele>
        <time>2024-04-06T12:56:50.633Z</time>
      </trkpt>
      <trkpt lat="43.88318" lon="3.96805">
        <ele>148.8</ele>
        <time>2024-04-06T12:56:51.727Z</time>
      </trkpt>
      <trkpt lat="43.88321" lon="3.96806">
        <ele>149.2</ele>
        <time>2024-04-06T12:56:53.249Z</time>
      </trkpt>
      <trkpt lat="43.88323" lon="3.96807">
        <ele>149.5</ele>
        <time>2024-04-06T12:56:54.343Z</time>
      </trkpt>
      <trkpt lat="43.88325" lon="3.96809">
        <ele>149.8</ele>
        <time>2024-04-06T12:56:55.525Z</time>
      </trkpt>
      <trkpt lat="43.88326" lon="3.96811">
        <ele>149.9</ele>
        <time>2024-04-06T12:56:56.199Z</time>
      </trkpt>
      <trkpt lat="43.88327" lon="3.96814">
        <ele>149.9</ele>
        <time>2024-04-06T12:56:56.961Z</time>
      </trkpt>
      <trkpt lat="43.88329" lon="3.96816">
        <ele>150.1</ele>
        <time>2024-04-06T12:56:57.987Z</time>
      </trkpt>
      <trkpt lat="43.88331" lon="3.96818">
        <ele>150.3</ele>
        <time>2024-04-06T12:56:59.013Z</time>
      </trkpt>
      <trkpt lat="43.88332" lon="3.96819">
        <ele>150.4</ele>
        <time>2024-04-06T12:56:59.526Z</time>
      </trkpt>
      <trkpt lat="43.88334" lon="3.9682">
        <ele>150.6</ele>
        <time>2024-04-06T12:57:00.451Z</time>
      </trkpt>
      <trkpt lat="43.88336" lon="3.96819">
        <ele>150.9</ele>
        <time>2024-04-06T12:57:01.544Z</time>
      </trkpt>
      <trkpt lat="43.88338" lon="3.96818">
        <ele>151.2</ele>
        <time>2024-04-06T12:57:02.638Z</time>
      </trkpt>
      <trkpt lat="43.8834" lon="3.96816">
        <ele>151.6</ele>
        <time>2024-04-06T12:57:04.010Z</time>
      </trkpt>
      <trkpt lat="43.88342" lon="3.96814">
        <ele>151.9</ele>
        <time>2024-04-06T12:57:05.192Z</time>
      </trkpt>
      <trkpt lat="43.88343" lon="3.96812">
        <ele>152.2</ele>
        <time>2024-04-06T12:57:06.202Z</time>
      </trkpt>
      <trkpt lat="43.88344" lon="3.9681">
        <ele>152.4</ele>
        <time>2024-04-06T12:57:07.020Z</time>
      </trkpt>
      <trkpt lat="43.88346" lon="3.96807">
        <ele>152.8</ele>
        <time>2024-04-06T12:57:08.506Z</time>
      </trkpt>
      <trkpt lat="43.88347" lon="3.96805">
        <ele>152.9</ele>
        <time>2024-04-06T12:57:09.180Z</time>
      </trkpt>
      <trkpt lat="43.88348" lon="3.96803">
        <ele>153</ele>
        <time>2024-04-06T12:57:09.853Z</time>
      </trkpt>
      <trkpt lat="43.88349" lon="3.96801">
        <ele>153</ele>
        <time>2024-04-06T12:57:10.414Z</time>
      </trkpt>
      <trkpt lat="43.8835" lon="3.96799">
        <ele>153.1</ele>
        <time>2024-04-06T12:57:11.088Z</time>
      </trkpt>
      <trkpt lat="43.88352" lon="3.96797">
        <ele>153.3</ele>
        <time>2024-04-06T12:57:12.114Z</time>
      </trkpt>
      <trkpt lat="43.88353" lon="3.96795">
        <ele>153.3</ele>
        <time>2024-04-06T12:57:12.675Z</time>
      </trkpt>
      <trkpt lat="43.88354" lon="3.96792">
        <ele>153.4</ele>
        <time>2024-04-06T12:57:13.545Z</time>
      </trkpt>
      <trkpt lat="43.88355" lon="3.96789">
        <ele>153.4</ele>
        <time>2024-04-06T12:57:14.308Z</time>
      </trkpt>
      <trkpt lat="43.88356" lon="3.96786">
        <ele>153.4</ele>
        <time>2024-04-06T12:57:15.070Z</time>
      </trkpt>
      <trkpt lat="43.88357" lon="3.96782">
        <ele>153.4</ele>
        <time>2024-04-06T12:57:16.046Z</time>
      </trkpt>
      <trkpt lat="43.88359" lon="3.96778">
        <ele>153.6</ele>
        <time>2024-04-06T12:57:17.393Z</time>
      </trkpt>
      <trkpt lat="43.8836" lon="3.96773">
        <ele>153.6</ele>
        <time>2024-04-06T12:57:18.590Z</time>
      </trkpt>
      <trkpt lat="43.88361" lon="3.96768">
        <ele>153.6</ele>
        <time>2024-04-06T12:57:19.786Z</time>
      </trkpt>
      <trkpt lat="43.88361" lon="3.96763">
        <ele>153.5</ele>
        <time>2024-04-06T12:57:20.847Z</time>
      </trkpt>
      <trkpt lat="43.88362" lon="3.96757">
        <ele>153.5</ele>
        <time>2024-04-06T12:57:22.267Z</time>
      </trkpt>
      <trkpt lat="43.88361" lon="3.96752">
        <ele>153.1</ele>
        <time>2024-04-06T12:57:23.314Z</time>
      </trkpt>
      <trkpt lat="43.8836" lon="3.96746">
        <ele>153</ele>
        <time>2024-04-06T12:57:24.640Z</time>
      </trkpt>
      <trkpt lat="43.88359" lon="3.9674">
        <ele>153.1</ele>
        <time>2024-04-06T12:57:26.164Z</time>
      </trkpt>
      <trkpt lat="43.88358" lon="3.96734">
        <ele>153.2</ele>
        <time>2024-04-06T12:57:27.688Z</time>
      </trkpt>
      <trkpt lat="43.88358" lon="3.96728">
        <ele>153.4</ele>
        <time>2024-04-06T12:57:29.290Z</time>
      </trkpt>
      <trkpt lat="43.88357" lon="3.96723">
        <ele>153.5</ele>
        <time>2024-04-06T12:57:30.591Z</time>
      </trkpt>
      <trkpt lat="43.88356" lon="3.96718">
        <ele>154</ele>
        <time>2024-04-06T12:57:32.464Z</time>
      </trkpt>
      <trkpt lat="43.88356" lon="3.96714">
        <ele>154.6</ele>
        <time>2024-04-06T12:57:34.378Z</time>
      </trkpt>
      <trkpt lat="43.88356" lon="3.96709">
        <ele>155.3</ele>
        <time>2024-04-06T12:57:36.645Z</time>
      </trkpt>
      <trkpt lat="43.88356" lon="3.96706">
        <ele>155.7</ele>
        <time>2024-04-06T12:57:37.957Z</time>
      </trkpt>
      <trkpt lat="43.88355" lon="3.96703">
        <ele>156</ele>
        <time>2024-04-06T12:57:39.117Z</time>
      </trkpt>
      <trkpt lat="43.88355" lon="3.96701">
        <ele>156.2</ele>
        <time>2024-04-06T12:57:39.852Z</time>
      </trkpt>
      <trkpt lat="43.88354" lon="3.96698">
        <ele>156.5</ele>
        <time>2024-04-06T12:57:41.012Z</time>
      </trkpt>
      <trkpt lat="43.88353" lon="3.96694">
        <ele>156.9</ele>
        <time>2024-04-06T12:57:42.526Z</time>
      </trkpt>
      <trkpt lat="43.88352" lon="3.9669">
        <ele>157.2</ele>
        <time>2024-04-06T12:57:43.873Z</time>
      </trkpt>
      <trkpt lat="43.88351" lon="3.96686">
        <ele>157.5</ele>
        <time>2024-04-06T12:57:45.220Z</time>
      </trkpt>
      <trkpt lat="43.8835" lon="3.96682">
        <ele>157.7</ele>
        <time>2024-04-06T12:57:46.425Z</time>
      </trkpt>
      <trkpt lat="43.88349" lon="3.96679">
        <ele>157.9</ele>
        <time>2024-04-06T12:57:47.426Z</time>
      </trkpt>
      <trkpt lat="43.88348" lon="3.96676">
        <ele>158.1</ele>
        <time>2024-04-06T12:57:48.427Z</time>
      </trkpt>
      <trkpt lat="43.88347" lon="3.96672">
        <ele>158.4</ele>
        <time>2024-04-06T12:57:49.775Z</time>
      </trkpt>
      <trkpt lat="43.88346" lon="3.96669">
        <ele>158.6</ele>
        <time>2024-04-06T12:57:50.776Z</time>
      </trkpt>
      <trkpt lat="43.88346" lon="3.96667">
        <ele>158.8</ele>
        <time>2024-04-06T12:57:51.511Z</time>
      </trkpt>
      <trkpt lat="43.88346" lon="3.96662">
        <ele>159.2</ele>
        <time>2024-04-06T12:57:53.174Z</time>
      </trkpt>
      <trkpt lat="43.88347" lon="3.9666">
        <ele>159.6</ele>
        <time>2024-04-06T12:57:54.436Z</time>
      </trkpt>
      <trkpt lat="43.88348" lon="3.96656">
        <ele>160.1</ele>
        <time>2024-04-06T12:57:56.144Z</time>
      </trkpt>
      <trkpt lat="43.88347" lon="3.96652">
        <ele>160.3</ele>
        <time>2024-04-06T12:57:57.349Z</time>
      </trkpt>
      <trkpt lat="43.88346" lon="3.96648">
        <ele>160.5</ele>
        <time>2024-04-06T12:57:58.554Z</time>
      </trkpt>
      <trkpt lat="43.88345" lon="3.96644">
        <ele>160.7</ele>
        <time>2024-04-06T12:57:59.759Z</time>
      </trkpt>
      <trkpt lat="43.88344" lon="3.9664">
        <ele>160.8</ele>
        <time>2024-04-06T12:58:00.841Z</time>
      </trkpt>
      <trkpt lat="43.88344" lon="3.96636">
        <ele>161.2</ele>
        <time>2024-04-06T12:58:02.311Z</time>
      </trkpt>
      <trkpt lat="43.88344" lon="3.96632">
        <ele>161.5</ele>
        <time>2024-04-06T12:58:03.610Z</time>
      </trkpt>
      <trkpt lat="43.88343" lon="3.96628">
        <ele>161.7</ele>
        <time>2024-04-06T12:58:04.815Z</time>
      </trkpt>
      <trkpt lat="43.88342" lon="3.96624">
        <ele>161.8</ele>
        <time>2024-04-06T12:58:05.897Z</time>
      </trkpt>
      <trkpt lat="43.88341" lon="3.9662">
        <ele>161.9</ele>
        <time>2024-04-06T12:58:06.980Z</time>
      </trkpt>
      <trkpt lat="43.88341" lon="3.96616">
        <ele>162.3</ele>
        <time>2024-04-06T12:58:08.450Z</time>
      </trkpt>
      <trkpt lat="43.8834" lon="3.96612">
        <ele>162.4</ele>
        <time>2024-04-06T12:58:09.532Z</time>
      </trkpt>
      <trkpt lat="43.8834" lon="3.96608">
        <ele>162.7</ele>
        <time>2024-04-06T12:58:10.831Z</time>
      </trkpt>
      <trkpt lat="43.88339" lon="3.96604">
        <ele>162.9</ele>
        <time>2024-04-06T12:58:12.036Z</time>
      </trkpt>
      <trkpt lat="43.88337" lon="3.96602">
        <ele>162.7</ele>
        <time>2024-04-06T12:58:12.726Z</time>
      </trkpt>
      <trkpt lat="43.88335" lon="3.966">
        <ele>162.5</ele>
        <time>2024-04-06T12:58:13.416Z</time>
      </trkpt>
      <trkpt lat="43.88334" lon="3.96599">
        <ele>162.4</ele>
        <time>2024-04-06T12:58:13.762Z</time>
      </trkpt>
      <trkpt lat="43.88331" lon="3.96595">
        <ele>162.4</ele>
        <time>2024-04-06T12:58:15.093Z</time>
      </trkpt>
      <trkpt lat="43.8833" lon="3.96592">
        <ele>162.6</ele>
        <time>2024-04-06T12:58:16.094Z</time>
      </trkpt>
      <trkpt lat="43.88328" lon="3.96588">
        <ele>162.8</ele>
        <time>2024-04-06T12:58:17.441Z</time>
      </trkpt>
      <trkpt lat="43.88327" lon="3.96585">
        <ele>162.9</ele>
        <time>2024-04-06T12:58:18.311Z</time>
      </trkpt>
      <trkpt lat="43.88325" lon="3.96581">
        <ele>163</ele>
        <time>2024-04-06T12:58:19.539Z</time>
      </trkpt>
      <trkpt lat="43.88324" lon="3.96577">
        <ele>163.1</ele>
        <time>2024-04-06T12:58:20.621Z</time>
      </trkpt>
      <trkpt lat="43.88324" lon="3.96574">
        <ele>163.3</ele>
        <time>2024-04-06T12:58:21.557Z</time>
      </trkpt>
      <trkpt lat="43.88324" lon="3.96572">
        <ele>163.5</ele>
        <time>2024-04-06T12:58:22.292Z</time>
      </trkpt>
      <trkpt lat="43.88324" lon="3.96569">
        <ele>163.7</ele>
        <time>2024-04-06T12:58:23.227Z</time>
      </trkpt>
      <trkpt lat="43.88324" lon="3.96565">
        <ele>164</ele>
        <time>2024-04-06T12:58:24.526Z</time>
      </trkpt>
      <trkpt lat="43.88324" lon="3.9656">
        <ele>164.3</ele>
        <time>2024-04-06T12:58:26.037Z</time>
      </trkpt>
      <trkpt lat="43.88324" lon="3.96556">
        <ele>164.6</ele>
        <time>2024-04-06T12:58:27.335Z</time>
      </trkpt>
      <trkpt lat="43.88324" lon="3.96551">
        <ele>165</ele>
        <time>2024-04-06T12:58:28.999Z</time>
      </trkpt>
      <trkpt lat="43.88326" lon="3.96547">
        <ele>165.6</ele>
        <time>2024-04-06T12:58:31.017Z</time>
      </trkpt>
      <trkpt lat="43.88326" lon="3.96544">
        <ele>165.8</ele>
        <time>2024-04-06T12:58:31.953Z</time>
      </trkpt>
      <trkpt lat="43.88326" lon="3.9654">
        <ele>166.1</ele>
        <time>2024-04-06T12:58:33.252Z</time>
      </trkpt>
      <trkpt lat="43.88326" lon="3.96537">
        <ele>166.3</ele>
        <time>2024-04-06T12:58:34.187Z</time>
      </trkpt>
      <trkpt lat="43.88326" lon="3.96534">
        <ele>166.5</ele>
        <time>2024-04-06T12:58:35.123Z</time>
      </trkpt>
      <trkpt lat="43.88325" lon="3.96531">
        <ele>166.6</ele>
        <time>2024-04-06T12:58:35.993Z</time>
      </trkpt>
      <trkpt lat="43.88324" lon="3.9653">
        <ele>166.5</ele>
        <time>2024-04-06T12:58:36.338Z</time>
      </trkpt>
      <trkpt lat="43.88325" lon="3.96525">
        <ele>167</ele>
        <time>2024-04-06T12:58:38.211Z</time>
      </trkpt>
      <trkpt lat="43.88325" lon="3.96522">
        <ele>167.2</ele>
        <time>2024-04-06T12:58:39.147Z</time>
      </trkpt>
      <trkpt lat="43.88326" lon="3.96518">
        <ele>167.6</ele>
        <time>2024-04-06T12:58:40.661Z</time>
      </trkpt>
      <trkpt lat="43.88326" lon="3.96514">
        <ele>167.9</ele>
        <time>2024-04-06T12:58:41.959Z</time>
      </trkpt>
      <trkpt lat="43.88326" lon="3.9651">
        <ele>168.2</ele>
        <time>2024-04-06T12:58:43.258Z</time>
      </trkpt>
      <trkpt lat="43.88325" lon="3.96505">
        <ele>168.4</ele>
        <time>2024-04-06T12:58:44.677Z</time>
      </trkpt>
      <trkpt lat="43.88325" lon="3.96501">
        <ele>168.7</ele>
        <time>2024-04-06T12:58:45.976Z</time>
      </trkpt>
      <trkpt lat="43.88325" lon="3.96496">
        <ele>169.1</ele>
        <time>2024-04-06T12:58:47.639Z</time>
      </trkpt>
      <trkpt lat="43.88325" lon="3.96491">
        <ele>169.5</ele>
        <time>2024-04-06T12:58:49.303Z</time>
      </trkpt>
      <trkpt lat="43.88324" lon="3.96487">
        <ele>169.7</ele>
        <time>2024-04-06T12:58:50.508Z</time>
      </trkpt>
      <trkpt lat="43.88322" lon="3.96483">
        <ele>169.8</ele>
        <time>2024-04-06T12:58:51.735Z</time>
      </trkpt>
      <trkpt lat="43.88321" lon="3.96479">
        <ele>170.1</ele>
        <time>2024-04-06T12:58:53.082Z</time>
      </trkpt>
      <trkpt lat="43.88321" lon="3.96475">
        <ele>170.4</ele>
        <time>2024-04-06T12:58:54.381Z</time>
      </trkpt>
      <trkpt lat="43.88322" lon="3.96471">
        <ele>170.9</ele>
        <time>2024-04-06T12:58:56.090Z</time>
      </trkpt>
      <trkpt lat="43.88322" lon="3.96468">
        <ele>171.2</ele>
        <time>2024-04-06T12:58:57.193Z</time>
      </trkpt>
      <trkpt lat="43.88322" lon="3.96464">
        <ele>171.7</ele>
        <time>2024-04-06T12:58:58.866Z</time>
      </trkpt>
      <trkpt lat="43.88322" lon="3.9646">
        <ele>172.1</ele>
        <time>2024-04-06T12:59:00.337Z</time>
      </trkpt>
      <trkpt lat="43.88323" lon="3.96457">
        <ele>172.5</ele>
        <time>2024-04-06T12:59:01.691Z</time>
      </trkpt>
      <trkpt lat="43.88325" lon="3.96452">
        <ele>173.3</ele>
        <time>2024-04-06T12:59:04.282Z</time>
      </trkpt>
      <trkpt lat="43.88325" lon="3.96451">
        <ele>173.4</ele>
        <time>2024-04-06T12:59:04.650Z</time>
      </trkpt>
      <trkpt lat="43.88329" lon="3.96443">
        <ele>174.6</ele>
        <time>2024-04-06T12:59:08.686Z</time>
      </trkpt>
      <trkpt lat="43.8833" lon="3.96442">
        <ele>174.8</ele>
        <time>2024-04-06T12:59:09.372Z</time>
      </trkpt>
      <trkpt lat="43.88331" lon="3.96438">
        <ele>175.2</ele>
        <time>2024-04-06T12:59:10.886Z</time>
      </trkpt>
      <trkpt lat="43.8833" lon="3.96435">
        <ele>175.3</ele>
        <time>2024-04-06T12:59:11.756Z</time>
      </trkpt>
      <trkpt lat="43.88329" lon="3.96432">
        <ele>175.4</ele>
        <time>2024-04-06T12:59:12.626Z</time>
      </trkpt>
      <trkpt lat="43.88327" lon="3.96428">
        <ele>175.5</ele>
        <time>2024-04-06T12:59:13.854Z</time>
      </trkpt>
      <trkpt lat="43.88326" lon="3.96425">
        <ele>175.6</ele>
        <time>2024-04-06T12:59:14.725Z</time>
      </trkpt>
      <trkpt lat="43.88323" lon="3.96424">
        <ele>175.4</ele>
        <time>2024-04-06T12:59:15.588Z</time>
      </trkpt>
      <trkpt lat="43.88321" lon="3.96424">
        <ele>175.1</ele>
        <time>2024-04-06T12:59:16.148Z</time>
      </trkpt>
      <trkpt lat="43.88319" lon="3.96423">
        <ele>175</ele>
        <time>2024-04-06T12:59:16.743Z</time>
      </trkpt>
      <trkpt lat="43.88317" lon="3.96422">
        <ele>174.9</ele>
        <time>2024-04-06T12:59:17.339Z</time>
      </trkpt>
      <trkpt lat="43.88316" lon="3.9642">
        <ele>174.9</ele>
        <time>2024-04-06T12:59:17.900Z</time>
      </trkpt>
      <trkpt lat="43.88315" lon="3.96416">
        <ele>175.1</ele>
        <time>2024-04-06T12:59:19.105Z</time>
      </trkpt>
      <trkpt lat="43.88314" lon="3.96411">
        <ele>175.3</ele>
        <time>2024-04-06T12:59:20.524Z</time>
      </trkpt>
      <trkpt lat="43.88311" lon="3.96408">
        <ele>175.2</ele>
        <time>2024-04-06T12:59:21.614Z</time>
      </trkpt>
      <trkpt lat="43.88309" lon="3.96407">
        <ele>175.1</ele>
        <time>2024-04-06T12:59:22.209Z</time>
      </trkpt>
      <trkpt lat="43.88307" lon="3.96407">
        <ele>174.9</ele>
        <time>2024-04-06T12:59:22.769Z</time>
      </trkpt>
      <trkpt lat="43.88305" lon="3.96407">
        <ele>174.7</ele>
        <time>2024-04-06T12:59:23.329Z</time>
      </trkpt>
      <trkpt lat="43.88303" lon="3.96407">
        <ele>174.5</ele>
        <time>2024-04-06T12:59:23.889Z</time>
      </trkpt>
      <trkpt lat="43.883" lon="3.96406">
        <ele>174.4</ele>
        <time>2024-04-06T12:59:24.784Z</time>
      </trkpt>
      <trkpt lat="43.88299" lon="3.96404">
        <ele>174.4</ele>
        <time>2024-04-06T12:59:25.346Z</time>
      </trkpt>
      <trkpt lat="43.88297" lon="3.96401">
        <ele>174.5</ele>
        <time>2024-04-06T12:59:26.394Z</time>
      </trkpt>
      <trkpt lat="43.88297" lon="3.96399">
        <ele>174.7</ele>
        <time>2024-04-06T12:59:27.130Z</time>
      </trkpt>
      <trkpt lat="43.88296" lon="3.96394">
        <ele>174.9</ele>
        <time>2024-04-06T12:59:28.548Z</time>
      </trkpt>
      <trkpt lat="43.88294" lon="3.96391">
        <ele>175</ele>
        <time>2024-04-06T12:59:29.597Z</time>
      </trkpt>
      <trkpt lat="43.88294" lon="3.96386">
        <ele>175.3</ele>
        <time>2024-04-06T12:59:31.108Z</time>
      </trkpt>
      <trkpt lat="43.88294" lon="3.96383">
        <ele>175.5</ele>
        <time>2024-04-06T12:59:32.043Z</time>
      </trkpt>
      <trkpt lat="43.88293" lon="3.96379">
        <ele>175.6</ele>
        <time>2024-04-06T12:59:33.125Z</time>
      </trkpt>
      <trkpt lat="43.88292" lon="3.96377">
        <ele>175.7</ele>
        <time>2024-04-06T12:59:33.799Z</time>
      </trkpt>
      <trkpt lat="43.88292" lon="3.96373">
        <ele>175.9</ele>
        <time>2024-04-06T12:59:34.952Z</time>
      </trkpt>
      <trkpt lat="43.8829" lon="3.9637">
        <ele>175.9</ele>
        <time>2024-04-06T12:59:35.894Z</time>
      </trkpt>
      <trkpt lat="43.88288" lon="3.96366">
        <ele>175.9</ele>
        <time>2024-04-06T12:59:37.017Z</time>
      </trkpt>
      <trkpt lat="43.88286" lon="3.96364">
        <ele>175.8</ele>
        <time>2024-04-06T12:59:37.715Z</time>
      </trkpt>
      <trkpt lat="43.88285" lon="3.96362">
        <ele>175.7</ele>
        <time>2024-04-06T12:59:38.207Z</time>
      </trkpt>
      <trkpt lat="43.88284" lon="3.96358">
        <ele>175.9</ele>
        <time>2024-04-06T12:59:39.411Z</time>
      </trkpt>
      <trkpt lat="43.88282" lon="3.96354">
        <ele>176</ele>
        <time>2024-04-06T12:59:40.639Z</time>
      </trkpt>
      <trkpt lat="43.88279" lon="3.96352">
        <ele>175.8</ele>
        <time>2024-04-06T12:59:41.571Z</time>
      </trkpt>
      <trkpt lat="43.88276" lon="3.9635">
        <ele>175.7</ele>
        <time>2024-04-06T12:59:42.543Z</time>
      </trkpt>
      <trkpt lat="43.88273" lon="3.96348">
        <ele>175.7</ele>
        <time>2024-04-06T12:59:43.608Z</time>
      </trkpt>
      <trkpt lat="43.88272" lon="3.96345">
        <ele>175.8</ele>
        <time>2024-04-06T12:59:44.479Z</time>
      </trkpt>
      <trkpt lat="43.88271" lon="3.96342">
        <ele>176</ele>
        <time>2024-04-06T12:59:45.480Z</time>
      </trkpt>
      <trkpt lat="43.8827" lon="3.96339">
        <ele>176.1</ele>
        <time>2024-04-06T12:59:46.350Z</time>
      </trkpt>
      <trkpt lat="43.88269" lon="3.96336">
        <ele>176.2</ele>
        <time>2024-04-06T12:59:47.221Z</time>
      </trkpt>
      <trkpt lat="43.88268" lon="3.96333">
        <ele>176.3</ele>
        <time>2024-04-06T12:59:48.091Z</time>
      </trkpt>
      <trkpt lat="43.88267" lon="3.9633">
        <ele>176.3</ele>
        <time>2024-04-06T12:59:48.853Z</time>
      </trkpt>
      <trkpt lat="43.88266" lon="3.96326">
        <ele>176.3</ele>
        <time>2024-04-06T12:59:49.830Z</time>
      </trkpt>
      <trkpt lat="43.88265" lon="3.96323">
        <ele>176.3</ele>
        <time>2024-04-06T12:59:50.592Z</time>
      </trkpt>
      <trkpt lat="43.88264" lon="3.9632">
        <ele>176.2</ele>
        <time>2024-04-06T12:59:51.264Z</time>
      </trkpt>
      <trkpt lat="43.88263" lon="3.96317">
        <ele>176.2</ele>
        <time>2024-04-06T12:59:52.026Z</time>
      </trkpt>
      <trkpt lat="43.8826" lon="3.96316">
        <ele>175.9</ele>
        <time>2024-04-06T12:59:52.890Z</time>
      </trkpt>
      <trkpt lat="43.88258" lon="3.96317">
        <ele>175.7</ele>
        <time>2024-04-06T12:59:53.486Z</time>
      </trkpt>
      <trkpt lat="43.88256" lon="3.96317">
        <ele>175.6</ele>
        <time>2024-04-06T12:59:54.045Z</time>
      </trkpt>
      <trkpt lat="43.88254" lon="3.96316">
        <ele>175.4</ele>
        <time>2024-04-06T12:59:54.641Z</time>
      </trkpt>
      <trkpt lat="43.88252" lon="3.96314">
        <ele>175.2</ele>
        <time>2024-04-06T12:59:55.331Z</time>
      </trkpt>
      <trkpt lat="43.88252" lon="3.96309">
        <ele>175.2</ele>
        <time>2024-04-06T12:59:56.484Z</time>
      </trkpt>
      <trkpt lat="43.88252" lon="3.96306">
        <ele>175.2</ele>
        <time>2024-04-06T12:59:57.176Z</time>
      </trkpt>
      <trkpt lat="43.88253" lon="3.96303">
        <ele>175.4</ele>
        <time>2024-04-06T12:59:58.177Z</time>
      </trkpt>
      <trkpt lat="43.88253" lon="3.963">
        <ele>175.5</ele>
        <time>2024-04-06T12:59:58.978Z</time>
      </trkpt>
      <trkpt lat="43.88254" lon="3.96298">
        <ele>175.7</ele>
        <time>2024-04-06T12:59:59.797Z</time>
      </trkpt>
      <trkpt lat="43.88254" lon="3.96295">
        <ele>175.8</ele>
        <time>2024-04-06T13:00:00.598Z</time>
      </trkpt>
      <trkpt lat="43.88253" lon="3.96293">
        <ele>175.8</ele>
        <time>2024-04-06T13:00:01.159Z</time>
      </trkpt>
      <trkpt lat="43.88252" lon="3.9629">
        <ele>175.8</ele>
        <time>2024-04-06T13:00:01.921Z</time>
      </trkpt>
      <trkpt lat="43.88251" lon="3.96287">
        <ele>175.8</ele>
        <time>2024-04-06T13:00:02.684Z</time>
      </trkpt>
      <trkpt lat="43.8825" lon="3.96284">
        <ele>175.8</ele>
        <time>2024-04-06T13:00:03.446Z</time>
      </trkpt>
      <trkpt lat="43.8825" lon="3.96281">
        <ele>175.9</ele>
        <time>2024-04-06T13:00:04.247Z</time>
      </trkpt>
      <trkpt lat="43.88249" lon="3.96279">
        <ele>175.9</ele>
        <time>2024-04-06T13:00:04.808Z</time>
      </trkpt>
      <trkpt lat="43.88249" lon="3.96276">
        <ele>176</ele>
        <time>2024-04-06T13:00:05.609Z</time>
      </trkpt>
      <trkpt lat="43.88249" lon="3.96273">
        <ele>176</ele>
        <time>2024-04-06T13:00:06.301Z</time>
      </trkpt>
      <trkpt lat="43.8825" lon="3.9627">
        <ele>176</ele>
        <time>2024-04-06T13:00:07.063Z</time>
      </trkpt>
      <trkpt lat="43.8825" lon="3.96267">
        <ele>176</ele>
        <time>2024-04-06T13:00:07.755Z</time>
      </trkpt>
      <trkpt lat="43.88249" lon="3.96264">
        <ele>176</ele>
        <time>2024-04-06T13:00:08.518Z</time>
      </trkpt>
      <trkpt lat="43.88249" lon="3.96261">
        <ele>176</ele>
        <time>2024-04-06T13:00:09.210Z</time>
      </trkpt>
      <trkpt lat="43.88246" lon="3.96258">
        <ele>176</ele>
        <time>2024-04-06T13:00:10.393Z</time>
      </trkpt>
      <trkpt lat="43.88244" lon="3.96257">
        <ele>175.9</ele>
        <time>2024-04-06T13:00:10.988Z</time>
      </trkpt>
      <trkpt lat="43.88242" lon="3.96257">
        <ele>175.9</ele>
        <time>2024-04-06T13:00:11.628Z</time>
      </trkpt>
      <trkpt lat="43.8824" lon="3.96259">
        <ele>175.9</ele>
        <time>2024-04-06T13:00:12.417Z</time>
      </trkpt>
      <trkpt lat="43.8824" lon="3.96262">
        <ele>175.8</ele>
        <time>2024-04-06T13:00:13.022Z</time>
      </trkpt>
      <trkpt lat="43.88241" lon="3.96265">
        <ele>175.8</ele>
        <time>2024-04-06T13:00:13.784Z</time>
      </trkpt>
      <trkpt lat="43.88241" lon="3.96268">
        <ele>175.8</ele>
        <time>2024-04-06T13:00:14.476Z</time>
      </trkpt>
      <trkpt lat="43.88241" lon="3.96271">
        <ele>175.8</ele>
        <time>2024-04-06T13:00:15.168Z</time>
      </trkpt>
      <trkpt lat="43.8824" lon="3.96274">
        <ele>175.7</ele>
        <time>2024-04-06T13:00:15.840Z</time>
      </trkpt>
      <trkpt lat="43.88238" lon="3.96277">
        <ele>175.6</ele>
        <time>2024-04-06T13:00:16.691Z</time>
      </trkpt>
      <trkpt lat="43.88236" lon="3.96278">
        <ele>175.5</ele>
        <time>2024-04-06T13:00:17.286Z</time>
      </trkpt>
      <trkpt lat="43.88234" lon="3.96282">
        <ele>175.3</ele>
        <time>2024-04-06T13:00:18.269Z</time>
      </trkpt>
      <trkpt lat="43.88234" lon="3.96285">
        <ele>175.2</ele>
        <time>2024-04-06T13:00:18.874Z</time>
      </trkpt>
      <trkpt lat="43.88235" lon="3.96288">
        <ele>175.1</ele>
        <time>2024-04-06T13:00:19.546Z</time>
      </trkpt>
      <trkpt lat="43.88235" lon="3.96292">
        <ele>174.9</ele>
        <time>2024-04-06T13:00:20.353Z</time>
      </trkpt>
      <trkpt lat="43.88236" lon="3.96292">
        <ele>175</ele>
        <time>2024-04-06T13:00:20.797Z</time>
      </trkpt>
      <trkpt lat="43.88229" lon="3.96295">
        <ele>174.6</ele>
        <time>2024-04-06T13:00:22.849Z</time>
      </trkpt>
      <trkpt lat="43.88229" lon="3.96297">
        <ele>174.6</ele>
        <time>2024-04-06T13:00:23.310Z</time>
      </trkpt>
      <trkpt lat="43.88228" lon="3.96302">
        <ele>174.3</ele>
        <time>2024-04-06T13:00:24.357Z</time>
      </trkpt>
      <trkpt lat="43.88226" lon="3.96304">
        <ele>174.2</ele>
        <time>2024-04-06T13:00:25.055Z</time>
      </trkpt>
      <trkpt lat="43.88224" lon="3.96306">
        <ele>174</ele>
        <time>2024-04-06T13:00:25.746Z</time>
      </trkpt>
      <trkpt lat="43.88222" lon="3.96308">
        <ele>173.9</ele>
        <time>2024-04-06T13:00:26.444Z</time>
      </trkpt>
      <trkpt lat="43.8822" lon="3.9631">
        <ele>173.8</ele>
        <time>2024-04-06T13:00:27.142Z</time>
      </trkpt>
      <trkpt lat="43.88218" lon="3.96312">
        <ele>173.7</ele>
        <time>2024-04-06T13:00:27.841Z</time>
      </trkpt>
      <trkpt lat="43.88215" lon="3.96313">
        <ele>173.5</ele>
        <time>2024-04-06T13:00:28.705Z</time>
      </trkpt>
      <trkpt lat="43.88212" lon="3.96315">
        <ele>173.4</ele>
        <time>2024-04-06T13:00:29.677Z</time>
      </trkpt>
      <trkpt lat="43.8821" lon="3.96317">
        <ele>173.3</ele>
        <time>2024-04-06T13:00:30.376Z</time>
      </trkpt>
      <trkpt lat="43.88208" lon="3.9632">
        <ele>173.2</ele>
        <time>2024-04-06T13:00:31.226Z</time>
      </trkpt>
      <trkpt lat="43.88205" lon="3.96323">
        <ele>173.1</ele>
        <time>2024-04-06T13:00:32.317Z</time>
      </trkpt>
      <trkpt lat="43.88202" lon="3.96326">
        <ele>173.1</ele>
        <time>2024-04-06T13:00:33.500Z</time>
      </trkpt>
      <trkpt lat="43.882" lon="3.9633">
        <ele>173</ele>
        <time>2024-04-06T13:00:34.530Z</time>
      </trkpt>
      <trkpt lat="43.88197" lon="3.96333">
        <ele>173</ele>
        <time>2024-04-06T13:00:35.713Z</time>
      </trkpt>
      <trkpt lat="43.88195" lon="3.96337">
        <ele>172.9</ele>
        <time>2024-04-06T13:00:36.743Z</time>
      </trkpt>
      <trkpt lat="43.88192" lon="3.9634">
        <ele>172.7</ele>
        <time>2024-04-06T13:00:37.779Z</time>
      </trkpt>
      <trkpt lat="43.8819" lon="3.96343">
        <ele>172.5</ele>
        <time>2024-04-06T13:00:38.603Z</time>
      </trkpt>
      <trkpt lat="43.88187" lon="3.96346">
        <ele>172.4</ele>
        <time>2024-04-06T13:00:39.694Z</time>
      </trkpt>
      <trkpt lat="43.88185" lon="3.96349">
        <ele>172.3</ele>
        <time>2024-04-06T13:00:40.544Z</time>
      </trkpt>
      <trkpt lat="43.88183" lon="3.96351">
        <ele>172.2</ele>
        <time>2024-04-06T13:00:41.243Z</time>
      </trkpt>
      <trkpt lat="43.88181" lon="3.96354">
        <ele>172.1</ele>
        <time>2024-04-06T13:00:42.094Z</time>
      </trkpt>
      <trkpt lat="43.88179" lon="3.96357">
        <ele>172.1</ele>
        <time>2024-04-06T13:00:43.036Z</time>
      </trkpt>
      <trkpt lat="43.88176" lon="3.96359">
        <ele>172</ele>
        <time>2024-04-06T13:00:44.009Z</time>
      </trkpt>
      <trkpt lat="43.88173" lon="3.9636">
        <ele>172</ele>
        <time>2024-04-06T13:00:44.996Z</time>
      </trkpt>
      <trkpt lat="43.88171" lon="3.96361">
        <ele>172</ele>
        <time>2024-04-06T13:00:45.676Z</time>
      </trkpt>
      <trkpt lat="43.88169" lon="3.9636">
        <ele>172</ele>
        <time>2024-04-06T13:00:46.356Z</time>
      </trkpt>
      <trkpt lat="43.88166" lon="3.96359">
        <ele>172</ele>
        <time>2024-04-06T13:00:47.344Z</time>
      </trkpt>
      <trkpt lat="43.88164" lon="3.96357">
        <ele>172</ele>
        <time>2024-04-06T13:00:48.132Z</time>
      </trkpt>
      <trkpt lat="43.88162" lon="3.96356">
        <ele>172</ele>
        <time>2024-04-06T13:00:48.813Z</time>
      </trkpt>
      <trkpt lat="43.8816" lon="3.96354">
        <ele>172.1</ele>
        <time>2024-04-06T13:00:49.709Z</time>
      </trkpt>
      <trkpt lat="43.88158" lon="3.9635">
        <ele>172.1</ele>
        <time>2024-04-06T13:00:50.832Z</time>
      </trkpt>
      <trkpt lat="43.88156" lon="3.96347">
        <ele>172.2</ele>
        <time>2024-04-06T13:00:51.881Z</time>
      </trkpt>
      <trkpt lat="43.88154" lon="3.96343">
        <ele>172.3</ele>
        <time>2024-04-06T13:00:53.108Z</time>
      </trkpt>
      <trkpt lat="43.88151" lon="3.96339">
        <ele>172.4</ele>
        <time>2024-04-06T13:00:54.543Z</time>
      </trkpt>
      <trkpt lat="43.88148" lon="3.96335">
        <ele>172.6</ele>
        <time>2024-04-06T13:00:56.094Z</time>
      </trkpt>
      <trkpt lat="43.88144" lon="3.96331">
        <ele>172.8</ele>
        <time>2024-04-06T13:00:57.887Z</time>
      </trkpt>
      <trkpt lat="43.8814" lon="3.96328">
        <ele>173</ele>
        <time>2024-04-06T13:00:59.560Z</time>
      </trkpt>
      <trkpt lat="43.88135" lon="3.96325">
        <ele>173</ele>
        <time>2024-04-06T13:01:01.303Z</time>
      </trkpt>
      <trkpt lat="43.88131" lon="3.96321">
        <ele>173</ele>
        <time>2024-04-06T13:01:02.880Z</time>
      </trkpt>
      <trkpt lat="43.88128" lon="3.96316">
        <ele>173</ele>
        <time>2024-04-06T13:01:04.381Z</time>
      </trkpt>
      <trkpt lat="43.88126" lon="3.96311">
        <ele>173</ele>
        <time>2024-04-06T13:01:05.700Z</time>
      </trkpt>
      <trkpt lat="43.88124" lon="3.96305">
        <ele>173</ele>
        <time>2024-04-06T13:01:07.224Z</time>
      </trkpt>
      <trkpt lat="43.88122" lon="3.96299">
        <ele>173.2</ele>
        <time>2024-04-06T13:01:08.965Z</time>
      </trkpt>
      <trkpt lat="43.8812" lon="3.96294">
        <ele>173.4</ele>
        <time>2024-04-06T13:01:10.503Z</time>
      </trkpt>
      <trkpt lat="43.88117" lon="3.96289">
        <ele>173.6</ele>
        <time>2024-04-06T13:01:12.220Z</time>
      </trkpt>
      <trkpt lat="43.88113" lon="3.96286">
        <ele>173.7</ele>
        <time>2024-04-06T13:01:13.779Z</time>
      </trkpt>
      <trkpt lat="43.88108" lon="3.96283">
        <ele>173.8</ele>
        <time>2024-04-06T13:01:15.624Z</time>
      </trkpt>
      <trkpt lat="43.88103" lon="3.9628">
        <ele>173.9</ele>
        <time>2024-04-06T13:01:17.470Z</time>
      </trkpt>
      <trkpt lat="43.88098" lon="3.96279">
        <ele>174</ele>
        <time>2024-04-06T13:01:19.189Z</time>
      </trkpt>
      <trkpt lat="43.88094" lon="3.96278">
        <ele>174</ele>
        <time>2024-04-06T13:01:20.490Z</time>
      </trkpt>
      <trkpt lat="43.88089" lon="3.96277">
        <ele>174</ele>
        <time>2024-04-06T13:01:22.106Z</time>
      </trkpt>
      <trkpt lat="43.88084" lon="3.96276">
        <ele>174</ele>
        <time>2024-04-06T13:01:23.722Z</time>
      </trkpt>
      <trkpt lat="43.88078" lon="3.96275">
        <ele>173.8</ele>
        <time>2024-04-06T13:01:25.472Z</time>
      </trkpt>
      <trkpt lat="43.88073" lon="3.96274">
        <ele>173.7</ele>
        <time>2024-04-06T13:01:26.994Z</time>
      </trkpt>
      <trkpt lat="43.88068" lon="3.96273">
        <ele>173.5</ele>
        <time>2024-04-06T13:01:28.430Z</time>
      </trkpt>
      <trkpt lat="43.88063" lon="3.9627">
        <ele>173.5</ele>
        <time>2024-04-06T13:01:30.173Z</time>
      </trkpt>
      <trkpt lat="43.88057" lon="3.96266">
        <ele>173.5</ele>
        <time>2024-04-06T13:01:32.303Z</time>
      </trkpt>
      <trkpt lat="43.88052" lon="3.96261">
        <ele>173.5</ele>
        <time>2024-04-06T13:01:34.275Z</time>
      </trkpt>
      <trkpt lat="43.88047" lon="3.96257">
        <ele>173.4</ele>
        <time>2024-04-06T13:01:36.027Z</time>
      </trkpt>
      <trkpt lat="43.88041" lon="3.96255">
        <ele>173.3</ele>
        <time>2024-04-06T13:01:37.906Z</time>
      </trkpt>
      <trkpt lat="43.88034" lon="3.96252">
        <ele>173.2</ele>
        <time>2024-04-06T13:01:40.154Z</time>
      </trkpt>
      <trkpt lat="43.88028" lon="3.9625">
        <ele>173</ele>
        <time>2024-04-06T13:01:41.945Z</time>
      </trkpt>
      <trkpt lat="43.88022" lon="3.96248">
        <ele>172.8</ele>
        <time>2024-04-06T13:01:43.736Z</time>
      </trkpt>
      <trkpt lat="43.88017" lon="3.96244">
        <ele>172.6</ele>
        <time>2024-04-06T13:01:45.399Z</time>
      </trkpt>
      <trkpt lat="43.88012" lon="3.96239">
        <ele>172.4</ele>
        <time>2024-04-06T13:01:47.187Z</time>
      </trkpt>
      <trkpt lat="43.88006" lon="3.96236">
        <ele>172.2</ele>
        <time>2024-04-06T13:01:49.044Z</time>
      </trkpt>
      <trkpt lat="43.88001" lon="3.96234">
        <ele>172</ele>
        <time>2024-04-06T13:01:50.527Z</time>
      </trkpt>
      <trkpt lat="43.87995" lon="3.96234">
        <ele>171.8</ele>
        <time>2024-04-06T13:01:52.263Z</time>
      </trkpt>
      <trkpt lat="43.87991" lon="3.96235">
        <ele>171.7</ele>
        <time>2024-04-06T13:01:53.470Z</time>
      </trkpt>
      <trkpt lat="43.87987" lon="3.96235">
        <ele>171.5</ele>
        <time>2024-04-06T13:01:54.590Z</time>
      </trkpt>
      <trkpt lat="43.87983" lon="3.96234">
        <ele>171.4</ele>
        <time>2024-04-06T13:01:55.797Z</time>
      </trkpt>
      <trkpt lat="43.8798" lon="3.96231">
        <ele>171.3</ele>
        <time>2024-04-06T13:01:56.888Z</time>
      </trkpt>
      <trkpt lat="43.87977" lon="3.96229">
        <ele>171.2</ele>
        <time>2024-04-06T13:01:57.860Z</time>
      </trkpt>
      <trkpt lat="43.87974" lon="3.96226">
        <ele>171.1</ele>
        <time>2024-04-06T13:01:58.950Z</time>
      </trkpt>
      <trkpt lat="43.87972" lon="3.96223">
        <ele>171</ele>
        <time>2024-04-06T13:01:59.801Z</time>
      </trkpt>
      <trkpt lat="43.87969" lon="3.96219">
        <ele>171</ele>
        <time>2024-04-06T13:02:01.133Z</time>
      </trkpt>
      <trkpt lat="43.87967" lon="3.96216">
        <ele>171</ele>
        <time>2024-04-06T13:02:02.075Z</time>
      </trkpt>
      <trkpt lat="43.87964" lon="3.96213">
        <ele>170.9</ele>
        <time>2024-04-06T13:02:03.165Z</time>
      </trkpt>
      <trkpt lat="43.8796" lon="3.96212">
        <ele>170.8</ele>
        <time>2024-04-06T13:02:04.372Z</time>
      </trkpt>
      <trkpt lat="43.87957" lon="3.96211">
        <ele>170.6</ele>
        <time>2024-04-06T13:02:05.236Z</time>
      </trkpt>
      <trkpt lat="43.87954" lon="3.9621">
        <ele>170.5</ele>
        <time>2024-04-06T13:02:06.131Z</time>
      </trkpt>
      <trkpt lat="43.8795" lon="3.96208">
        <ele>170.3</ele>
        <time>2024-04-06T13:02:07.322Z</time>
      </trkpt>
      <trkpt lat="43.87947" lon="3.96207">
        <ele>170.1</ele>
        <time>2024-04-06T13:02:08.186Z</time>
      </trkpt>
      <trkpt lat="43.87943" lon="3.96207">
        <ele>169.9</ele>
        <time>2024-04-06T13:02:09.306Z</time>
      </trkpt>
      <trkpt lat="43.87939" lon="3.96206">
        <ele>169.8</ele>
        <time>2024-04-06T13:02:10.513Z</time>
      </trkpt>
      <trkpt lat="43.87936" lon="3.96206">
        <ele>169.7</ele>
        <time>2024-04-06T13:02:11.381Z</time>
      </trkpt>
      <trkpt lat="43.87932" lon="3.96205">
        <ele>169.6</ele>
        <time>2024-04-06T13:02:12.588Z</time>
      </trkpt>
      <trkpt lat="43.87929" lon="3.96204">
        <ele>169.4</ele>
        <time>2024-04-06T13:02:13.452Z</time>
      </trkpt>
      <trkpt lat="43.87925" lon="3.96202">
        <ele>169.3</ele>
        <time>2024-04-06T13:02:14.718Z</time>
      </trkpt>
      <trkpt lat="43.87921" lon="3.96199">
        <ele>169.2</ele>
        <time>2024-04-06T13:02:16.079Z</time>
      </trkpt>
      <trkpt lat="43.87918" lon="3.96196">
        <ele>169</ele>
        <time>2024-04-06T13:02:17.115Z</time>
      </trkpt>
      <trkpt lat="43.87915" lon="3.96193">
        <ele>169</ele>
        <time>2024-04-06T13:02:18.298Z</time>
      </trkpt>
      <trkpt lat="43.87912" lon="3.9619">
        <ele>169</ele>
        <time>2024-04-06T13:02:19.481Z</time>
      </trkpt>
      <trkpt lat="43.87908" lon="3.96188">
        <ele>168.9</ele>
        <time>2024-04-06T13:02:20.748Z</time>
      </trkpt>
      <trkpt lat="43.87905" lon="3.96186">
        <ele>168.9</ele>
        <time>2024-04-06T13:02:21.813Z</time>
      </trkpt>
      <trkpt lat="43.87902" lon="3.96184">
        <ele>168.8</ele>
        <time>2024-04-06T13:02:22.786Z</time>
      </trkpt>
      <trkpt lat="43.87898" lon="3.96181">
        <ele>168.8</ele>
        <time>2024-04-06T13:02:24.241Z</time>
      </trkpt>
      <trkpt lat="43.87895" lon="3.96179">
        <ele>168.8</ele>
        <time>2024-04-06T13:02:25.306Z</time>
      </trkpt>
      <trkpt lat="43.87892" lon="3.96177">
        <ele>168.7</ele>
        <time>2024-04-06T13:02:26.278Z</time>
      </trkpt>
      <trkpt lat="43.87889" lon="3.96174">
        <ele>168.7</ele>
        <time>2024-04-06T13:02:27.462Z</time>
      </trkpt>
      <trkpt lat="43.87886" lon="3.96172">
        <ele>168.6</ele>
        <time>2024-04-06T13:02:28.434Z</time>
      </trkpt>
      <trkpt lat="43.87883" lon="3.96169">
        <ele>168.5</ele>
        <time>2024-04-06T13:02:29.524Z</time>
      </trkpt>
      <trkpt lat="43.8788" lon="3.96168">
        <ele>168.3</ele>
        <time>2024-04-06T13:02:30.388Z</time>
      </trkpt>
      <trkpt lat="43.87876" lon="3.96167">
        <ele>168.1</ele>
        <time>2024-04-06T13:02:31.526Z</time>
      </trkpt>
      <trkpt lat="43.87871" lon="3.96166">
        <ele>167.7</ele>
        <time>2024-04-06T13:02:32.941Z</time>
      </trkpt>
      <trkpt lat="43.87866" lon="3.96165">
        <ele>167.4</ele>
        <time>2024-04-06T13:02:34.355Z</time>
      </trkpt>
      <trkpt lat="43.87862" lon="3.96162">
        <ele>167.2</ele>
        <time>2024-04-06T13:02:35.630Z</time>
      </trkpt>
      <trkpt lat="43.87857" lon="3.96159">
        <ele>167.1</ele>
        <time>2024-04-06T13:02:37.279Z</time>
      </trkpt>
      <trkpt lat="43.87852" lon="3.96157">
        <ele>166.9</ele>
        <time>2024-04-06T13:02:38.762Z</time>
      </trkpt>
      <trkpt lat="43.87847" lon="3.96155">
        <ele>166.7</ele>
        <time>2024-04-06T13:02:40.245Z</time>
      </trkpt>
      <trkpt lat="43.87842" lon="3.96152">
        <ele>166.5</ele>
        <time>2024-04-06T13:02:41.806Z</time>
      </trkpt>
      <trkpt lat="43.87837" lon="3.96149">
        <ele>166.2</ele>
        <time>2024-04-06T13:02:43.331Z</time>
      </trkpt>
      <trkpt lat="43.87832" lon="3.96144">
        <ele>165.9</ele>
        <time>2024-04-06T13:02:45.057Z</time>
      </trkpt>
      <trkpt lat="43.87831" lon="3.96138">
        <ele>165.8</ele>
        <time>2024-04-06T13:02:46.383Z</time>
      </trkpt>
      <trkpt lat="43.87831" lon="3.96133">
        <ele>165.8</ele>
        <time>2024-04-06T13:02:47.536Z</time>
      </trkpt>
      <trkpt lat="43.87831" lon="3.96128">
        <ele>165.9</ele>
        <time>2024-04-06T13:02:48.794Z</time>
      </trkpt>
      <trkpt lat="43.87831" lon="3.96123">
        <ele>165.9</ele>
        <time>2024-04-06T13:02:49.948Z</time>
      </trkpt>
      <trkpt lat="43.87832" lon="3.96119">
        <ele>165.9</ele>
        <time>2024-04-06T13:02:50.924Z</time>
      </trkpt>
      <trkpt lat="43.87834" lon="3.96114">
        <ele>166</ele>
        <time>2024-04-06T13:02:52.347Z</time>
      </trkpt>
      <trkpt lat="43.87836" lon="3.96111">
        <ele>166.1</ele>
        <time>2024-04-06T13:02:53.396Z</time>
      </trkpt>
      <trkpt lat="43.87839" lon="3.96109">
        <ele>166.3</ele>
        <time>2024-04-06T13:02:54.686Z</time>
      </trkpt>
      <trkpt lat="43.87841" lon="3.96107">
        <ele>166.5</ele>
        <time>2024-04-06T13:02:55.712Z</time>
      </trkpt>
      <trkpt lat="43.87844" lon="3.96104">
        <ele>166.8</ele>
        <time>2024-04-06T13:02:57.251Z</time>
      </trkpt>
      <trkpt lat="43.87847" lon="3.96102">
        <ele>167</ele>
        <time>2024-04-06T13:02:58.542Z</time>
      </trkpt>
      <trkpt lat="43.8785" lon="3.96099">
        <ele>167.2</ele>
        <time>2024-04-06T13:02:59.947Z</time>
      </trkpt>
      <trkpt lat="43.87854" lon="3.96097">
        <ele>167.4</ele>
        <time>2024-04-06T13:03:01.527Z</time>
      </trkpt>
      <trkpt lat="43.87856" lon="3.96095">
        <ele>167.5</ele>
        <time>2024-04-06T13:03:02.423Z</time>
      </trkpt>
      <trkpt lat="43.87858" lon="3.96093">
        <ele>167.6</ele>
        <time>2024-04-06T13:03:03.320Z</time>
      </trkpt>
      <trkpt lat="43.8786" lon="3.9609">
        <ele>167.8</ele>
        <time>2024-04-06T13:03:04.492Z</time>
      </trkpt>
      <trkpt lat="43.87862" lon="3.96087">
        <ele>167.9</ele>
        <time>2024-04-06T13:03:05.541Z</time>
      </trkpt>
      <trkpt lat="43.87864" lon="3.96085">
        <ele>168.1</ele>
        <time>2024-04-06T13:03:06.567Z</time>
      </trkpt>
      <trkpt lat="43.87865" lon="3.96082">
        <ele>168.2</ele>
        <time>2024-04-06T13:03:07.437Z</time>
      </trkpt>
      <trkpt lat="43.87864" lon="3.96077">
        <ele>168.6</ele>
        <time>2024-04-06T13:03:09.139Z</time>
      </trkpt>
      <trkpt lat="43.87863" lon="3.96073">
        <ele>168.8</ele>
        <time>2024-04-06T13:03:10.344Z</time>
      </trkpt>
      <trkpt lat="43.87862" lon="3.9607">
        <ele>169</ele>
        <time>2024-04-06T13:03:11.345Z</time>
      </trkpt>
      <trkpt lat="43.87862" lon="3.96067">
        <ele>169.2</ele>
        <time>2024-04-06T13:03:12.281Z</time>
      </trkpt>
      <trkpt lat="43.87861" lon="3.96064">
        <ele>169.4</ele>
        <time>2024-04-06T13:03:13.282Z</time>
      </trkpt>
      <trkpt lat="43.87861" lon="3.9606">
        <ele>169.7</ele>
        <time>2024-04-06T13:03:14.581Z</time>
      </trkpt>
      <trkpt lat="43.8786" lon="3.96056">
        <ele>169.9</ele>
        <time>2024-04-06T13:03:15.786Z</time>
      </trkpt>
      <trkpt lat="43.8786" lon="3.96053">
        <ele>170.1</ele>
        <time>2024-04-06T13:03:16.721Z</time>
      </trkpt>
      <trkpt lat="43.8786" lon="3.96049">
        <ele>170.2</ele>
        <time>2024-04-06T13:03:17.750Z</time>
      </trkpt>
      <trkpt lat="43.8786" lon="3.96045">
        <ele>170.3</ele>
        <time>2024-04-06T13:03:18.779Z</time>
      </trkpt>
      <trkpt lat="43.87859" lon="3.96041">
        <ele>170.4</ele>
        <time>2024-04-06T13:03:19.862Z</time>
      </trkpt>
      <trkpt lat="43.87859" lon="3.96038">
        <ele>170.6</ele>
        <time>2024-04-06T13:03:20.797Z</time>
      </trkpt>
      <trkpt lat="43.87859" lon="3.96035">
        <ele>170.7</ele>
        <time>2024-04-06T13:03:21.598Z</time>
      </trkpt>
      <trkpt lat="43.87861" lon="3.96032">
        <ele>170.8</ele>
        <time>2024-04-06T13:03:22.647Z</time>
      </trkpt>
      <trkpt lat="43.87863" lon="3.9603">
        <ele>170.9</ele>
        <time>2024-04-06T13:03:23.544Z</time>
      </trkpt>
      <trkpt lat="43.87866" lon="3.96028">
        <ele>171</ele>
        <time>2024-04-06T13:03:24.714Z</time>
      </trkpt>
      <trkpt lat="43.87869" lon="3.96026">
        <ele>171</ele>
        <time>2024-04-06T13:03:25.779Z</time>
      </trkpt>
      <trkpt lat="43.87872" lon="3.96024">
        <ele>171.1</ele>
        <time>2024-04-06T13:03:26.949Z</time>
      </trkpt>
      <trkpt lat="43.87875" lon="3.96024">
        <ele>171.1</ele>
        <time>2024-04-06T13:03:27.909Z</time>
      </trkpt>
      <trkpt lat="43.87878" lon="3.96026">
        <ele>171</ele>
        <time>2024-04-06T13:03:28.882Z</time>
      </trkpt>
      <trkpt lat="43.87881" lon="3.96028">
        <ele>171</ele>
        <time>2024-04-06T13:03:29.947Z</time>
      </trkpt>
      <trkpt lat="43.87885" lon="3.96029">
        <ele>171</ele>
        <time>2024-04-06T13:03:31.247Z</time>
      </trkpt>
      <trkpt lat="43.87888" lon="3.96031">
        <ele>171</ele>
        <time>2024-04-06T13:03:32.312Z</time>
      </trkpt>
      <trkpt lat="43.87892" lon="3.96032">
        <ele>171.2</ele>
        <time>2024-04-06T13:03:33.833Z</time>
      </trkpt>
      <trkpt lat="43.87896" lon="3.96033">
        <ele>171.4</ele>
        <time>2024-04-06T13:03:35.353Z</time>
      </trkpt>
      <trkpt lat="43.879" lon="3.96035">
        <ele>171.6</ele>
        <time>2024-04-06T13:03:36.932Z</time>
      </trkpt>
      <trkpt lat="43.87903" lon="3.96036">
        <ele>171.7</ele>
        <time>2024-04-06T13:03:38.025Z</time>
      </trkpt>
      <trkpt lat="43.87907" lon="3.96038">
        <ele>171.8</ele>
        <time>2024-04-06T13:03:39.489Z</time>
      </trkpt>
      <trkpt lat="43.87911" lon="3.96039">
        <ele>171.9</ele>
        <time>2024-04-06T13:03:40.894Z</time>
      </trkpt>
      <trkpt lat="43.87914" lon="3.9604">
        <ele>172</ele>
        <time>2024-04-06T13:03:41.987Z</time>
      </trkpt>
      <trkpt lat="43.87917" lon="3.96038">
        <ele>172.3</ele>
        <time>2024-04-06T13:03:43.415Z</time>
      </trkpt>
      <trkpt lat="43.87919" lon="3.96036">
        <ele>172.5</ele>
        <time>2024-04-06T13:03:44.441Z</time>
      </trkpt>
      <trkpt lat="43.8792" lon="3.96033">
        <ele>172.8</ele>
        <time>2024-04-06T13:03:45.601Z</time>
      </trkpt>
      <trkpt lat="43.87921" lon="3.96031">
        <ele>172.9</ele>
        <time>2024-04-06T13:03:46.275Z</time>
      </trkpt>
      <trkpt lat="43.8792" lon="3.96027">
        <ele>173.1</ele>
        <time>2024-04-06T13:03:47.480Z</time>
      </trkpt>
      <trkpt lat="43.87918" lon="3.96025">
        <ele>173.1</ele>
        <time>2024-04-06T13:03:48.269Z</time>
      </trkpt>
      <trkpt lat="43.87916" lon="3.96023">
        <ele>173.1</ele>
        <time>2024-04-06T13:03:49.057Z</time>
      </trkpt>
      <trkpt lat="43.87915" lon="3.96019">
        <ele>173.2</ele>
        <time>2024-04-06T13:03:50.140Z</time>
      </trkpt>
      <trkpt lat="43.87915" lon="3.96015">
        <ele>173.3</ele>
        <time>2024-04-06T13:03:51.169Z</time>
      </trkpt>
      <trkpt lat="43.87916" lon="3.96012">
        <ele>173.5</ele>
        <time>2024-04-06T13:03:52.170Z</time>
      </trkpt>
      <trkpt lat="43.87917" lon="3.96009">
        <ele>173.7</ele>
        <time>2024-04-06T13:03:53.171Z</time>
      </trkpt>
      <trkpt lat="43.87918" lon="3.96006">
        <ele>173.8</ele>
        <time>2024-04-06T13:03:54.041Z</time>
      </trkpt>
      <trkpt lat="43.87918" lon="3.96002">
        <ele>174</ele>
        <time>2024-04-06T13:03:55.194Z</time>
      </trkpt>
      <trkpt lat="43.87917" lon="3.95999">
        <ele>174</ele>
        <time>2024-04-06T13:03:55.957Z</time>
      </trkpt>
      <trkpt lat="43.87917" lon="3.95996">
        <ele>174.2</ele>
        <time>2024-04-06T13:03:56.892Z</time>
      </trkpt>
      <trkpt lat="43.87917" lon="3.95993">
        <ele>174.3</ele>
        <time>2024-04-06T13:03:57.693Z</time>
      </trkpt>
      <trkpt lat="43.87917" lon="3.9599">
        <ele>174.4</ele>
        <time>2024-04-06T13:03:58.495Z</time>
      </trkpt>
      <trkpt lat="43.87917" lon="3.95987">
        <ele>174.5</ele>
        <time>2024-04-06T13:03:59.296Z</time>
      </trkpt>
      <trkpt lat="43.87918" lon="3.95985">
        <ele>174.6</ele>
        <time>2024-04-06T13:03:59.969Z</time>
      </trkpt>
      <trkpt lat="43.87919" lon="3.95983">
        <ele>174.7</ele>
        <time>2024-04-06T13:04:00.642Z</time>
      </trkpt>
      <trkpt lat="43.87921" lon="3.95982">
        <ele>174.8</ele>
        <time>2024-04-06T13:04:01.432Z</time>
      </trkpt>
      <trkpt lat="43.87923" lon="3.9598">
        <ele>174.9</ele>
        <time>2024-04-06T13:04:02.329Z</time>
      </trkpt>
      <trkpt lat="43.87926" lon="3.95978">
        <ele>175.1</ele>
        <time>2024-04-06T13:04:03.619Z</time>
      </trkpt>
      <trkpt lat="43.87928" lon="3.95978">
        <ele>175.2</ele>
        <time>2024-04-06T13:04:04.369Z</time>
      </trkpt>
      <trkpt lat="43.87931" lon="3.95978">
        <ele>175.3</ele>
        <time>2024-04-06T13:04:05.435Z</time>
      </trkpt>
      <trkpt lat="43.87933" lon="3.95977">
        <ele>175.4</ele>
        <time>2024-04-06T13:04:06.225Z</time>
      </trkpt>
      <trkpt lat="43.87934" lon="3.95974">
        <ele>175.6</ele>
        <time>2024-04-06T13:04:07.226Z</time>
      </trkpt>
      <trkpt lat="43.87935" lon="3.95971">
        <ele>175.7</ele>
        <time>2024-04-06T13:04:08.096Z</time>
      </trkpt>
      <trkpt lat="43.87937" lon="3.95968">
        <ele>175.7</ele>
        <time>2024-04-06T13:04:09.039Z</time>
      </trkpt>
      <trkpt lat="43.87939" lon="3.95966">
        <ele>175.8</ele>
        <time>2024-04-06T13:04:09.935Z</time>
      </trkpt>
      <trkpt lat="43.87942" lon="3.95964">
        <ele>175.9</ele>
        <time>2024-04-06T13:04:11.106Z</time>
      </trkpt>
      <trkpt lat="43.87945" lon="3.95964">
        <ele>176</ele>
        <time>2024-04-06T13:04:12.172Z</time>
      </trkpt>
      <trkpt lat="43.87948" lon="3.95965">
        <ele>176.1</ele>
        <time>2024-04-06T13:04:13.265Z</time>
      </trkpt>
      <trkpt lat="43.87951" lon="3.95966">
        <ele>176.2</ele>
        <time>2024-04-06T13:04:14.358Z</time>
      </trkpt>
      <trkpt lat="43.87954" lon="3.95966">
        <ele>176.3</ele>
        <time>2024-04-06T13:04:15.424Z</time>
      </trkpt>
      <trkpt lat="43.87957" lon="3.95967">
        <ele>176.5</ele>
        <time>2024-04-06T13:04:16.639Z</time>
      </trkpt>
      <trkpt lat="43.8796" lon="3.95967">
        <ele>176.6</ele>
        <time>2024-04-06T13:04:17.705Z</time>
      </trkpt>
      <trkpt lat="43.87963" lon="3.95967">
        <ele>176.7</ele>
        <time>2024-04-06T13:04:18.771Z</time>
      </trkpt>
      <trkpt lat="43.87966" lon="3.95968">
        <ele>176.8</ele>
        <time>2024-04-06T13:04:19.864Z</time>
      </trkpt>
      <trkpt lat="43.87969" lon="3.9597">
        <ele>176.9</ele>
        <time>2024-04-06T13:04:21.034Z</time>
      </trkpt>
      <trkpt lat="43.8797" lon="3.95974">
        <ele>176.9</ele>
        <time>2024-04-06T13:04:22.011Z</time>
      </trkpt>
      <trkpt lat="43.87971" lon="3.95978">
        <ele>176.7</ele>
        <time>2024-04-06T13:04:22.865Z</time>
      </trkpt>
      <trkpt lat="43.87973" lon="3.95982">
        <ele>176.7</ele>
        <time>2024-04-06T13:04:23.988Z</time>
      </trkpt>
      <trkpt lat="43.87974" lon="3.95986">
        <ele>176.6</ele>
        <time>2024-04-06T13:04:24.872Z</time>
      </trkpt>
      <trkpt lat="43.87976" lon="3.95991">
        <ele>176.6</ele>
        <time>2024-04-06T13:04:26.191Z</time>
      </trkpt>
      <trkpt lat="43.87977" lon="3.95995">
        <ele>176.5</ele>
        <time>2024-04-06T13:04:27.076Z</time>
      </trkpt>
      <trkpt lat="43.87978" lon="3.95999">
        <ele>176.4</ele>
        <time>2024-04-06T13:04:27.960Z</time>
      </trkpt>
      <trkpt lat="43.87979" lon="3.96004">
        <ele>176.5</ele>
        <time>2024-04-06T13:04:29.261Z</time>
      </trkpt>
      <trkpt lat="43.87979" lon="3.96009">
        <ele>176.4</ele>
        <time>2024-04-06T13:04:30.322Z</time>
      </trkpt>
      <trkpt lat="43.87978" lon="3.96012">
        <ele>176.3</ele>
        <time>2024-04-06T13:04:30.994Z</time>
      </trkpt>
      <trkpt lat="43.87975" lon="3.96014">
        <ele>176.1</ele>
        <time>2024-04-06T13:04:31.926Z</time>
      </trkpt>
      <trkpt lat="43.87972" lon="3.96016">
        <ele>176</ele>
        <time>2024-04-06T13:04:32.898Z</time>
      </trkpt>
      <trkpt lat="43.87969" lon="3.96018">
        <ele>175.8</ele>
        <time>2024-04-06T13:04:33.830Z</time>
      </trkpt>
      <trkpt lat="43.87966" lon="3.9602">
        <ele>175.6</ele>
        <time>2024-04-06T13:04:34.762Z</time>
      </trkpt>
      <trkpt lat="43.87962" lon="3.96022">
        <ele>175.3</ele>
        <time>2024-04-06T13:04:35.952Z</time>
      </trkpt>
      <trkpt lat="43.87958" lon="3.96024">
        <ele>175</ele>
        <time>2024-04-06T13:04:37.143Z</time>
      </trkpt>
      <trkpt lat="43.87955" lon="3.96028">
        <ele>174.8</ele>
        <time>2024-04-06T13:04:38.308Z</time>
      </trkpt>
      <trkpt lat="43.87953" lon="3.96032">
        <ele>174.5</ele>
        <time>2024-04-06T13:04:39.290Z</time>
      </trkpt>
      <trkpt lat="43.87952" lon="3.96037">
        <ele>174.2</ele>
        <time>2024-04-06T13:04:40.337Z</time>
      </trkpt>
      <trkpt lat="43.87951" lon="3.96043">
        <ele>173.9</ele>
        <time>2024-04-06T13:04:41.580Z</time>
      </trkpt>
      <trkpt lat="43.87951" lon="3.96047">
        <ele>173.8</ele>
        <time>2024-04-06T13:04:42.411Z</time>
      </trkpt>
      <trkpt lat="43.87952" lon="3.9605">
        <ele>173.7</ele>
        <time>2024-04-06T13:04:43.083Z</time>
      </trkpt>
      <trkpt lat="43.87955" lon="3.96052">
        <ele>173.9</ele>
        <time>2024-04-06T13:04:44.374Z</time>
      </trkpt>
      <trkpt lat="43.87957" lon="3.96053">
        <ele>174</ele>
        <time>2024-04-06T13:04:45.163Z</time>
      </trkpt>
      <trkpt lat="43.87959" lon="3.96054">
        <ele>174.1</ele>
        <time>2024-04-06T13:04:45.953Z</time>
      </trkpt>
      <trkpt lat="43.87961" lon="3.96056">
        <ele>174.2</ele>
        <time>2024-04-06T13:04:46.850Z</time>
      </trkpt>
      <trkpt lat="43.87963" lon="3.96058">
        <ele>174.2</ele>
        <time>2024-04-06T13:04:47.639Z</time>
      </trkpt>
      <trkpt lat="43.87965" lon="3.9606">
        <ele>174.2</ele>
        <time>2024-04-06T13:04:48.428Z</time>
      </trkpt>
      <trkpt lat="43.87967" lon="3.96062">
        <ele>174.2</ele>
        <time>2024-04-06T13:04:49.216Z</time>
      </trkpt>
      <trkpt lat="43.87969" lon="3.96064">
        <ele>174.2</ele>
        <time>2024-04-06T13:04:50.005Z</time>
      </trkpt>
      <trkpt lat="43.87972" lon="3.96066">
        <ele>174.2</ele>
        <time>2024-04-06T13:04:51.070Z</time>
      </trkpt>
      <trkpt lat="43.87974" lon="3.96067">
        <ele>174.3</ele>
        <time>2024-04-06T13:04:51.860Z</time>
      </trkpt>
      <trkpt lat="43.87976" lon="3.9607">
        <ele>174.2</ele>
        <time>2024-04-06T13:04:52.711Z</time>
      </trkpt>
      <trkpt lat="43.87977" lon="3.96073">
        <ele>174</ele>
        <time>2024-04-06T13:04:53.378Z</time>
      </trkpt>
      <trkpt lat="43.87978" lon="3.96078">
        <ele>173.8</ele>
        <time>2024-04-06T13:04:54.425Z</time>
      </trkpt>
      <trkpt lat="43.87978" lon="3.96082">
        <ele>173.5</ele>
        <time>2024-04-06T13:04:55.232Z</time>
      </trkpt>
      <trkpt lat="43.87978" lon="3.96085">
        <ele>173.5</ele>
        <time>2024-04-06T13:04:55.924Z</time>
      </trkpt>
      <trkpt lat="43.87977" lon="3.96088">
        <ele>173.5</ele>
        <time>2024-04-06T13:04:56.686Z</time>
      </trkpt>
      <trkpt lat="43.87978" lon="3.96091">
        <ele>173.6</ele>
        <time>2024-04-06T13:04:57.557Z</time>
      </trkpt>
      <trkpt lat="43.87979" lon="3.96093">
        <ele>173.8</ele>
        <time>2024-04-06T13:04:58.375Z</time>
      </trkpt>
      <trkpt lat="43.8798" lon="3.96095">
        <ele>173.9</ele>
        <time>2024-04-06T13:04:59.049Z</time>
      </trkpt>
      <trkpt lat="43.87981" lon="3.96098">
        <ele>174</ele>
        <time>2024-04-06T13:04:59.919Z</time>
      </trkpt>
      <trkpt lat="43.87981" lon="3.96101">
        <ele>174.1</ele>
        <time>2024-04-06T13:05:00.720Z</time>
      </trkpt>
      <trkpt lat="43.87982" lon="3.96104">
        <ele>174.2</ele>
        <time>2024-04-06T13:05:01.591Z</time>
      </trkpt>
      <trkpt lat="43.87983" lon="3.96106">
        <ele>174.3</ele>
        <time>2024-04-06T13:05:02.264Z</time>
      </trkpt>
      <trkpt lat="43.87983" lon="3.96109">
        <ele>174.3</ele>
        <time>2024-04-06T13:05:02.956Z</time>
      </trkpt>
      <trkpt lat="43.87981" lon="3.96111">
        <ele>174.3</ele>
        <time>2024-04-06T13:05:03.745Z</time>
      </trkpt>
      <trkpt lat="43.8798" lon="3.96114">
        <ele>174.3</ele>
        <time>2024-04-06T13:05:04.507Z</time>
      </trkpt>
      <trkpt lat="43.87979" lon="3.96116">
        <ele>174.2</ele>
        <time>2024-04-06T13:05:04.998Z</time>
      </trkpt>
      <trkpt lat="43.87979" lon="3.96119">
        <ele>174.2</ele>
        <time>2024-04-06T13:05:05.690Z</time>
      </trkpt>
      <trkpt lat="43.87979" lon="3.96121">
        <ele>174.2</ele>
        <time>2024-04-06T13:05:06.151Z</time>
      </trkpt>
      <trkpt lat="43.87982" lon="3.96121">
        <ele>174.4</ele>
        <time>2024-04-06T13:05:07.340Z</time>
      </trkpt>
      <trkpt lat="43.87984" lon="3.9612">
        <ele>174.4</ele>
        <time>2024-04-06T13:05:08.021Z</time>
      </trkpt>
      <trkpt lat="43.87986" lon="3.96119">
        <ele>174.5</ele>
        <time>2024-04-06T13:05:08.810Z</time>
      </trkpt>
      <trkpt lat="43.87989" lon="3.96118">
        <ele>174.6</ele>
        <time>2024-04-06T13:05:09.903Z</time>
      </trkpt>
      <trkpt lat="43.87992" lon="3.96117">
        <ele>174.7</ele>
        <time>2024-04-06T13:05:10.996Z</time>
      </trkpt>
      <trkpt lat="43.87995" lon="3.96115">
        <ele>174.8</ele>
        <time>2024-04-06T13:05:12.167Z</time>
      </trkpt>
      <trkpt lat="43.87997" lon="3.96114">
        <ele>174.9</ele>
        <time>2024-04-06T13:05:12.956Z</time>
      </trkpt>
      <trkpt lat="43.88001" lon="3.96114">
        <ele>175</ele>
        <time>2024-04-06T13:05:14.340Z</time>
      </trkpt>
      <trkpt lat="43.88004" lon="3.96115">
        <ele>175.1</ele>
        <time>2024-04-06T13:05:15.433Z</time>
      </trkpt>
      <trkpt lat="43.88006" lon="3.96115">
        <ele>175.2</ele>
        <time>2024-04-06T13:05:16.183Z</time>
      </trkpt>
      <trkpt lat="43.88009" lon="3.96115">
        <ele>175.3</ele>
        <time>2024-04-06T13:05:17.249Z</time>
      </trkpt>
      <trkpt lat="43.88012" lon="3.96116">
        <ele>175.4</ele>
        <time>2024-04-06T13:05:18.342Z</time>
      </trkpt>
      <trkpt lat="43.88019" lon="3.96115">
        <ele>175.7</ele>
        <time>2024-04-06T13:05:20.919Z</time>
      </trkpt>
      <trkpt lat="43.88015" lon="3.96118">
        <ele>175.5</ele>
        <time>2024-04-06T13:05:22.194Z</time>
      </trkpt>
      <trkpt lat="43.88017" lon="3.96121">
        <ele>175.6</ele>
        <time>2024-04-06T13:05:23.243Z</time>
      </trkpt>
      <trkpt lat="43.8802" lon="3.96124">
        <ele>175.7</ele>
        <time>2024-04-06T13:05:24.531Z</time>
      </trkpt>
      <trkpt lat="43.88022" lon="3.96126">
        <ele>175.8</ele>
        <time>2024-04-06T13:05:25.427Z</time>
      </trkpt>
      <trkpt lat="43.88025" lon="3.96127">
        <ele>175.9</ele>
        <time>2024-04-06T13:05:26.520Z</time>
      </trkpt>
      <trkpt lat="43.88028" lon="3.96125">
        <ele>176</ele>
        <time>2024-04-06T13:05:27.691Z</time>
      </trkpt>
      <trkpt lat="43.8803" lon="3.96122">
        <ele>176</ele>
        <time>2024-04-06T13:05:28.633Z</time>
      </trkpt>
      <trkpt lat="43.88032" lon="3.96118">
        <ele>176.1</ele>
        <time>2024-04-06T13:05:29.861Z</time>
      </trkpt>
      <trkpt lat="43.88034" lon="3.96115">
        <ele>176.2</ele>
        <time>2024-04-06T13:05:30.909Z</time>
      </trkpt>
      <trkpt lat="43.88036" lon="3.96111">
        <ele>176.3</ele>
        <time>2024-04-06T13:05:32.137Z</time>
      </trkpt>
      <trkpt lat="43.88036" lon="3.96106">
        <ele>176.3</ele>
        <time>2024-04-06T13:05:33.290Z</time>
      </trkpt>
      <trkpt lat="43.88037" lon="3.96102">
        <ele>176.3</ele>
        <time>2024-04-06T13:05:34.267Z</time>
      </trkpt>
      <trkpt lat="43.88037" lon="3.96098">
        <ele>176.3</ele>
        <time>2024-04-06T13:05:35.189Z</time>
      </trkpt>
      <trkpt lat="43.88037" lon="3.96094">
        <ele>176.3</ele>
        <time>2024-04-06T13:05:36.112Z</time>
      </trkpt>
      <trkpt lat="43.88037" lon="3.9609">
        <ele>176.3</ele>
        <time>2024-04-06T13:05:37.034Z</time>
      </trkpt>
      <trkpt lat="43.88038" lon="3.96085">
        <ele>176.4</ele>
        <time>2024-04-06T13:05:38.335Z</time>
      </trkpt>
      <trkpt lat="43.88039" lon="3.96081">
        <ele>176.5</ele>
        <time>2024-04-06T13:05:39.418Z</time>
      </trkpt>
      <trkpt lat="43.88041" lon="3.96077">
        <ele>176.8</ele>
        <time>2024-04-06T13:05:40.900Z</time>
      </trkpt>
      <trkpt lat="43.88043" lon="3.96073">
        <ele>177.1</ele>
        <time>2024-04-06T13:05:42.382Z</time>
      </trkpt>
      <trkpt lat="43.88046" lon="3.96072">
        <ele>177.3</ele>
        <time>2024-04-06T13:05:43.597Z</time>
      </trkpt>
      <trkpt lat="43.88048" lon="3.96074">
        <ele>177.3</ele>
        <time>2024-04-06T13:05:44.386Z</time>
      </trkpt>
      <trkpt lat="43.88051" lon="3.96077">
        <ele>177.3</ele>
        <time>2024-04-06T13:05:45.570Z</time>
      </trkpt>
      <trkpt lat="43.88053" lon="3.9608">
        <ele>177.1</ele>
        <time>2024-04-06T13:05:46.394Z</time>
      </trkpt>
      <trkpt lat="43.88055" lon="3.96084">
        <ele>177</ele>
        <time>2024-04-06T13:05:47.424Z</time>
      </trkpt>
      <trkpt lat="43.88057" lon="3.96088">
        <ele>177.1</ele>
        <time>2024-04-06T13:05:48.652Z</time>
      </trkpt>
      <trkpt lat="43.88058" lon="3.96092">
        <ele>177.1</ele>
        <time>2024-04-06T13:05:49.628Z</time>
      </trkpt>
      <trkpt lat="43.88059" lon="3.96097">
        <ele>177.1</ele>
        <time>2024-04-06T13:05:50.825Z</time>
      </trkpt>
      <trkpt lat="43.8806" lon="3.96101">
        <ele>177.2</ele>
        <time>2024-04-06T13:05:51.907Z</time>
      </trkpt>
      <trkpt lat="43.88061" lon="3.96106">
        <ele>177.2</ele>
        <time>2024-04-06T13:05:53.104Z</time>
      </trkpt>
      <trkpt lat="43.88061" lon="3.9611">
        <ele>177.2</ele>
        <time>2024-04-06T13:05:54.027Z</time>
      </trkpt>
      <trkpt lat="43.88061" lon="3.96115">
        <ele>177.1</ele>
        <time>2024-04-06T13:05:55.087Z</time>
      </trkpt>
      <trkpt lat="43.8806" lon="3.96119">
        <ele>176.9</ele>
        <time>2024-04-06T13:05:55.941Z</time>
      </trkpt>
      <trkpt lat="43.8806" lon="3.96124">
        <ele>176.7</ele>
        <time>2024-04-06T13:05:56.950Z</time>
      </trkpt>
      <trkpt lat="43.8806" lon="3.96128">
        <ele>176.6</ele>
        <time>2024-04-06T13:05:57.781Z</time>
      </trkpt>
      <trkpt lat="43.8806" lon="3.96131">
        <ele>176.4</ele>
        <time>2024-04-06T13:05:58.387Z</time>
      </trkpt>
      <trkpt lat="43.88063" lon="3.96133">
        <ele>176.5</ele>
        <time>2024-04-06T13:05:59.557Z</time>
      </trkpt>
      <trkpt lat="43.88066" lon="3.96131">
        <ele>176.7</ele>
        <time>2024-04-06T13:06:00.848Z</time>
      </trkpt>
      <trkpt lat="43.88067" lon="3.9613">
        <ele>176.7</ele>
        <time>2024-04-06T13:06:01.242Z</time>
      </trkpt>
      <trkpt lat="43.88068" lon="3.96127">
        <ele>176.9</ele>
        <time>2024-04-06T13:06:02.243Z</time>
      </trkpt>
      <trkpt lat="43.88071" lon="3.96125">
        <ele>177.1</ele>
        <time>2024-04-06T13:06:03.534Z</time>
      </trkpt>
      <trkpt lat="43.88074" lon="3.96124">
        <ele>177.2</ele>
        <time>2024-04-06T13:06:04.627Z</time>
      </trkpt>
      <trkpt lat="43.88076" lon="3.96123">
        <ele>177.3</ele>
        <time>2024-04-06T13:06:05.416Z</time>
      </trkpt>
      <trkpt lat="43.88079" lon="3.96121">
        <ele>177.5</ele>
        <time>2024-04-06T13:06:06.707Z</time>
      </trkpt>
      <trkpt lat="43.88081" lon="3.96118">
        <ele>177.7</ele>
        <time>2024-04-06T13:06:07.879Z</time>
      </trkpt>
      <trkpt lat="43.88084" lon="3.96117">
        <ele>177.8</ele>
        <time>2024-04-06T13:06:08.972Z</time>
      </trkpt>
      <trkpt lat="43.88086" lon="3.96116">
        <ele>177.9</ele>
        <time>2024-04-06T13:06:09.762Z</time>
      </trkpt>
      <trkpt lat="43.88089" lon="3.96116">
        <ele>178</ele>
        <time>2024-04-06T13:06:10.828Z</time>
      </trkpt>
      <trkpt lat="43.88092" lon="3.96114">
        <ele>178.2</ele>
        <time>2024-04-06T13:06:12.118Z</time>
      </trkpt>
      <trkpt lat="43.88093" lon="3.96112">
        <ele>178.3</ele>
        <time>2024-04-06T13:06:12.791Z</time>
      </trkpt>
      <trkpt lat="43.88095" lon="3.96109">
        <ele>178.4</ele>
        <time>2024-04-06T13:06:13.840Z</time>
      </trkpt>
      <trkpt lat="43.88097" lon="3.96108">
        <ele>178.5</ele>
        <time>2024-04-06T13:06:14.630Z</time>
      </trkpt>
      <trkpt lat="43.881" lon="3.96109">
        <ele>178.6</ele>
        <time>2024-04-06T13:06:15.723Z</time>
      </trkpt>
      <trkpt lat="43.88103" lon="3.96109">
        <ele>178.7</ele>
        <time>2024-04-06T13:06:16.789Z</time>
      </trkpt>
      <trkpt lat="43.88106" lon="3.96108">
        <ele>178.8</ele>
        <time>2024-04-06T13:06:17.882Z</time>
      </trkpt>
      <trkpt lat="43.88108" lon="3.96106">
        <ele>178.9</ele>
        <time>2024-04-06T13:06:18.778Z</time>
      </trkpt>
      <trkpt lat="43.88111" lon="3.96105">
        <ele>179</ele>
        <time>2024-04-06T13:06:19.871Z</time>
      </trkpt>
      <trkpt lat="43.88114" lon="3.96104">
        <ele>179.1</ele>
        <time>2024-04-06T13:06:20.964Z</time>
      </trkpt>
      <trkpt lat="43.88117" lon="3.96102">
        <ele>179.2</ele>
        <time>2024-04-06T13:06:22.135Z</time>
      </trkpt>
      <trkpt lat="43.88119" lon="3.961">
        <ele>179.3</ele>
        <time>2024-04-06T13:06:23.031Z</time>
      </trkpt>
      <trkpt lat="43.88119" lon="3.96096">
        <ele>179.3</ele>
        <time>2024-04-06T13:06:23.954Z</time>
      </trkpt>
      <trkpt lat="43.88119" lon="3.96092">
        <ele>179.3</ele>
        <time>2024-04-06T13:06:24.876Z</time>
      </trkpt>
      <trkpt lat="43.88121" lon="3.9609">
        <ele>179.4</ele>
        <time>2024-04-06T13:06:25.773Z</time>
      </trkpt>
      <trkpt lat="43.88123" lon="3.96093">
        <ele>179.4</ele>
        <time>2024-04-06T13:06:26.715Z</time>
      </trkpt>
      <trkpt lat="43.88126" lon="3.96095">
        <ele>179.5</ele>
        <time>2024-04-06T13:06:27.886Z</time>
      </trkpt>
      <trkpt lat="43.88128" lon="3.96094">
        <ele>179.6</ele>
        <time>2024-04-06T13:06:28.675Z</time>
      </trkpt>
      <trkpt lat="43.88129" lon="3.96093">
        <ele>179.6</ele>
        <time>2024-04-06T13:06:29.070Z</time>
      </trkpt>
      <trkpt lat="43.88131" lon="3.9609">
        <ele>179.7</ele>
        <time>2024-04-06T13:06:30.118Z</time>
      </trkpt>
      <trkpt lat="43.88132" lon="3.96088">
        <ele>179.8</ele>
        <time>2024-04-06T13:06:30.792Z</time>
      </trkpt>
      <trkpt lat="43.88133" lon="3.96086">
        <ele>179.8</ele>
        <time>2024-04-06T13:06:31.353Z</time>
      </trkpt>
      <trkpt lat="43.88134" lon="3.96083">
        <ele>179.8</ele>
        <time>2024-04-06T13:06:32.115Z</time>
      </trkpt>
      <trkpt lat="43.88135" lon="3.9608">
        <ele>180</ele>
        <time>2024-04-06T13:06:33.116Z</time>
      </trkpt>
      <trkpt lat="43.88136" lon="3.96078">
        <ele>180.1</ele>
        <time>2024-04-06T13:06:33.790Z</time>
      </trkpt>
      <trkpt lat="43.88138" lon="3.96074">
        <ele>180.3</ele>
        <time>2024-04-06T13:06:35.136Z</time>
      </trkpt>
      <trkpt lat="43.88139" lon="3.96072">
        <ele>180.4</ele>
        <time>2024-04-06T13:06:35.810Z</time>
      </trkpt>
      <trkpt lat="43.88141" lon="3.9607">
        <ele>180.6</ele>
        <time>2024-04-06T13:06:36.836Z</time>
      </trkpt>
      <trkpt lat="43.88143" lon="3.96067">
        <ele>180.7</ele>
        <time>2024-04-06T13:06:37.884Z</time>
      </trkpt>
      <trkpt lat="43.88144" lon="3.96065">
        <ele>180.8</ele>
        <time>2024-04-06T13:06:38.558Z</time>
      </trkpt>
      <trkpt lat="43.88145" lon="3.96062">
        <ele>181</ele>
        <time>2024-04-06T13:06:39.559Z</time>
      </trkpt>
      <trkpt lat="43.88145" lon="3.9606">
        <ele>181.1</ele>
        <time>2024-04-06T13:06:40.135Z</time>
      </trkpt>
      <trkpt lat="43.88146" lon="3.96059">
        <ele>181.1</ele>
        <time>2024-04-06T13:06:40.530Z</time>
      </trkpt>
      <trkpt lat="43.88148" lon="3.96057">
        <ele>181.3</ele>
        <time>2024-04-06T13:06:41.556Z</time>
      </trkpt>
      <trkpt lat="43.88149" lon="3.96055">
        <ele>181.4</ele>
        <time>2024-04-06T13:06:42.229Z</time>
      </trkpt>
      <trkpt lat="43.8815" lon="3.96053">
        <ele>181.6</ele>
        <time>2024-04-06T13:06:43.048Z</time>
      </trkpt>
      <trkpt lat="43.88153" lon="3.9605">
        <ele>181.9</ele>
        <time>2024-04-06T13:06:44.586Z</time>
      </trkpt>
      <trkpt lat="43.88154" lon="3.96052">
        <ele>181.8</ele>
        <time>2024-04-06T13:06:45.078Z</time>
      </trkpt>
      <trkpt lat="43.88152" lon="3.96053">
        <ele>181.7</ele>
        <time>2024-04-06T13:06:45.673Z</time>
      </trkpt>
      <trkpt lat="43.88152" lon="3.96052">
        <ele>181.7</ele>
        <time>2024-04-06T13:06:45.903Z</time>
      </trkpt>
      <trkpt lat="43.8815" lon="3.96044">
        <ele>182.2</ele>
        <time>2024-04-06T13:06:48.450Z</time>
      </trkpt>
      <trkpt lat="43.88148" lon="3.96044">
        <ele>182.2</ele>
        <time>2024-04-06T13:06:49.090Z</time>
      </trkpt>
      <trkpt lat="43.88145" lon="3.96043">
        <ele>182.1</ele>
        <time>2024-04-06T13:06:49.986Z</time>
      </trkpt>
      <trkpt lat="43.88142" lon="3.96043">
        <ele>182</ele>
        <time>2024-04-06T13:06:50.854Z</time>
      </trkpt>
      <trkpt lat="43.88138" lon="3.96043">
        <ele>181.9</ele>
        <time>2024-04-06T13:06:52.040Z</time>
      </trkpt>
      <trkpt lat="43.88133" lon="3.96042">
        <ele>181.9</ele>
        <time>2024-04-06T13:06:53.657Z</time>
      </trkpt>
      <trkpt lat="43.88128" lon="3.9604">
        <ele>181.9</ele>
        <time>2024-04-06T13:06:55.322Z</time>
      </trkpt>
      <trkpt lat="43.88123" lon="3.96039">
        <ele>181.9</ele>
        <time>2024-04-06T13:06:56.938Z</time>
      </trkpt>
      <trkpt lat="43.88118" lon="3.96038">
        <ele>181.8</ele>
        <time>2024-04-06T13:06:58.460Z</time>
      </trkpt>
      <trkpt lat="43.88113" lon="3.96038">
        <ele>181.7</ele>
        <time>2024-04-06T13:06:59.965Z</time>
      </trkpt>
      <trkpt lat="43.88107" lon="3.96037">
        <ele>181.5</ele>
        <time>2024-04-06T13:07:01.715Z</time>
      </trkpt>
      <trkpt lat="43.88102" lon="3.96035">
        <ele>181.4</ele>
        <time>2024-04-06T13:07:03.286Z</time>
      </trkpt>
      <trkpt lat="43.88097" lon="3.96034">
        <ele>181.3</ele>
        <time>2024-04-06T13:07:04.808Z</time>
      </trkpt>
      <trkpt lat="43.88091" lon="3.96032">
        <ele>181.1</ele>
        <time>2024-04-06T13:07:06.598Z</time>
      </trkpt>
      <trkpt lat="43.88087" lon="3.96028">
        <ele>181.1</ele>
        <time>2024-04-06T13:07:08.176Z</time>
      </trkpt>
      <trkpt lat="43.88083" lon="3.96023">
        <ele>181.1</ele>
        <time>2024-04-06T13:07:09.899Z</time>
      </trkpt>
      <trkpt lat="43.88078" lon="3.96019">
        <ele>180.9</ele>
        <time>2024-04-06T13:07:11.562Z</time>
      </trkpt>
      <trkpt lat="43.88073" lon="3.96016">
        <ele>180.7</ele>
        <time>2024-04-06T13:07:13.123Z</time>
      </trkpt>
      <trkpt lat="43.88067" lon="3.96013">
        <ele>180.4</ele>
        <time>2024-04-06T13:07:14.909Z</time>
      </trkpt>
      <trkpt lat="43.88061" lon="3.9601">
        <ele>180</ele>
        <time>2024-04-06T13:07:16.694Z</time>
      </trkpt>
      <trkpt lat="43.88055" lon="3.96007">
        <ele>179.7</ele>
        <time>2024-04-06T13:07:18.480Z</time>
      </trkpt>
      <trkpt lat="43.8805" lon="3.96003">
        <ele>179.7</ele>
        <time>2024-04-06T13:07:20.327Z</time>
      </trkpt>
      <trkpt lat="43.88045" lon="3.96001">
        <ele>179.6</ele>
        <time>2024-04-06T13:07:21.897Z</time>
      </trkpt>
      <trkpt lat="43.88039" lon="3.96">
        <ele>179.4</ele>
        <time>2024-04-06T13:07:23.647Z</time>
      </trkpt>
      <trkpt lat="43.88034" lon="3.95998">
        <ele>179.3</ele>
        <time>2024-04-06T13:07:25.218Z</time>
      </trkpt>
      <trkpt lat="43.88029" lon="3.95996">
        <ele>179.2</ele>
        <time>2024-04-06T13:07:26.788Z</time>
      </trkpt>
      <trkpt lat="43.88024" lon="3.95991">
        <ele>179.1</ele>
        <time>2024-04-06T13:07:28.665Z</time>
      </trkpt>
      <trkpt lat="43.88021" lon="3.95986">
        <ele>179.1</ele>
        <time>2024-04-06T13:07:30.166Z</time>
      </trkpt>
      <trkpt lat="43.88016" lon="3.95982">
        <ele>178.9</ele>
        <time>2024-04-06T13:07:31.829Z</time>
      </trkpt>
      <trkpt lat="43.88011" lon="3.95978">
        <ele>178.7</ele>
        <time>2024-04-06T13:07:33.493Z</time>
      </trkpt>
      <trkpt lat="43.88006" lon="3.95974">
        <ele>178.4</ele>
        <time>2024-04-06T13:07:35.109Z</time>
      </trkpt>
      <trkpt lat="43.88001" lon="3.95971">
        <ele>178.1</ele>
        <time>2024-04-06T13:07:36.634Z</time>
      </trkpt>
      <trkpt lat="43.87996" lon="3.95967">
        <ele>178</ele>
        <time>2024-04-06T13:07:38.386Z</time>
      </trkpt>
      <trkpt lat="43.87991" lon="3.95963">
        <ele>177.9</ele>
        <time>2024-04-06T13:07:40.138Z</time>
      </trkpt>
      <trkpt lat="43.87986" lon="3.95959">
        <ele>177.7</ele>
        <time>2024-04-06T13:07:41.802Z</time>
      </trkpt>
      <trkpt lat="43.87981" lon="3.95955">
        <ele>177.5</ele>
        <time>2024-04-06T13:07:43.465Z</time>
      </trkpt>
      <trkpt lat="43.87975" lon="3.95953">
        <ele>177.2</ele>
        <time>2024-04-06T13:07:45.193Z</time>
      </trkpt>
      <trkpt lat="43.8797" lon="3.95951">
        <ele>176.9</ele>
        <time>2024-04-06T13:07:46.650Z</time>
      </trkpt>
      <trkpt lat="43.87964" lon="3.95949">
        <ele>176.7</ele>
        <time>2024-04-06T13:07:48.440Z</time>
      </trkpt>
      <trkpt lat="43.87958" lon="3.95947">
        <ele>176.5</ele>
        <time>2024-04-06T13:07:50.231Z</time>
      </trkpt>
      <trkpt lat="43.87953" lon="3.95943">
        <ele>176.3</ele>
        <time>2024-04-06T13:07:51.895Z</time>
      </trkpt>
      <trkpt lat="43.87947" lon="3.95939">
        <ele>176.1</ele>
        <time>2024-04-06T13:07:53.840Z</time>
      </trkpt>
      <trkpt lat="43.87943" lon="3.95934">
        <ele>175.9</ele>
        <time>2024-04-06T13:07:55.380Z</time>
      </trkpt>
      <trkpt lat="43.87939" lon="3.9593">
        <ele>175.8</ele>
        <time>2024-04-06T13:07:56.864Z</time>
      </trkpt>
      <trkpt lat="43.87934" lon="3.95928">
        <ele>175.6</ele>
        <time>2024-04-06T13:07:58.347Z</time>
      </trkpt>
      <trkpt lat="43.87928" lon="3.95928">
        <ele>175.4</ele>
        <time>2024-04-06T13:08:00.083Z</time>
      </trkpt>
      <trkpt lat="43.87922" lon="3.95927">
        <ele>175.2</ele>
        <time>2024-04-06T13:08:01.833Z</time>
      </trkpt>
      <trkpt lat="43.87916" lon="3.95927">
        <ele>175</ele>
        <time>2024-04-06T13:08:03.570Z</time>
      </trkpt>
      <trkpt lat="43.87911" lon="3.95926">
        <ele>174.8</ele>
        <time>2024-04-06T13:08:05.005Z</time>
      </trkpt>
      <trkpt lat="43.87905" lon="3.95926">
        <ele>174.6</ele>
        <time>2024-04-06T13:08:06.741Z</time>
      </trkpt>
      <trkpt lat="43.879" lon="3.95927">
        <ele>174.4</ele>
        <time>2024-04-06T13:08:08.176Z</time>
      </trkpt>
      <trkpt lat="43.87894" lon="3.95929">
        <ele>174.2</ele>
        <time>2024-04-06T13:08:09.967Z</time>
      </trkpt>
      <trkpt lat="43.8789" lon="3.95931">
        <ele>174</ele>
        <time>2024-04-06T13:08:11.157Z</time>
      </trkpt>
      <trkpt lat="43.87885" lon="3.95933">
        <ele>173.7</ele>
        <time>2024-04-06T13:08:12.614Z</time>
      </trkpt>
      <trkpt lat="43.87881" lon="3.95933">
        <ele>173.4</ele>
        <time>2024-04-06T13:08:13.734Z</time>
      </trkpt>
      <trkpt lat="43.87877" lon="3.95933">
        <ele>173.1</ele>
        <time>2024-04-06T13:08:14.854Z</time>
      </trkpt>
      <trkpt lat="43.87872" lon="3.95933">
        <ele>172.8</ele>
        <time>2024-04-06T13:08:16.254Z</time>
      </trkpt>
      <trkpt lat="43.87867" lon="3.95935">
        <ele>172.4</ele>
        <time>2024-04-06T13:08:17.711Z</time>
      </trkpt>
      <trkpt lat="43.87863" lon="3.95939">
        <ele>172.1</ele>
        <time>2024-04-06T13:08:19.091Z</time>
      </trkpt>
      <trkpt lat="43.8786" lon="3.95945">
        <ele>171.9</ele>
        <time>2024-04-06T13:08:20.593Z</time>
      </trkpt>
      <trkpt lat="43.87857" lon="3.95953">
        <ele>171.6</ele>
        <time>2024-04-06T13:08:22.413Z</time>
      </trkpt>
      <trkpt lat="43.87853" lon="3.95961">
        <ele>171.3</ele>
        <time>2024-04-06T13:08:24.389Z</time>
      </trkpt>
      <trkpt lat="43.87849" lon="3.95968">
        <ele>171.1</ele>
        <time>2024-04-06T13:08:26.264Z</time>
      </trkpt>
      <trkpt lat="43.87846" lon="3.95976">
        <ele>170.9</ele>
        <time>2024-04-06T13:08:28.160Z</time>
      </trkpt>
      <trkpt lat="43.87843" lon="3.95984">
        <ele>170.7</ele>
        <time>2024-04-06T13:08:30.055Z</time>
      </trkpt>
      <trkpt lat="43.8784" lon="3.9599">
        <ele>170.5</ele>
        <time>2024-04-06T13:08:31.557Z</time>
      </trkpt>
      <trkpt lat="43.87836" lon="3.95996">
        <ele>170.2</ele>
        <time>2024-04-06T13:08:33.207Z</time>
      </trkpt>
      <trkpt lat="43.87833" lon="3.95999">
        <ele>170</ele>
        <time>2024-04-06T13:08:34.242Z</time>
      </trkpt>
      <trkpt lat="43.8783" lon="3.95998">
        <ele>169.9</ele>
        <time>2024-04-06T13:08:35.137Z</time>
      </trkpt>
      <trkpt lat="43.87827" lon="3.95996">
        <ele>169.9</ele>
        <time>2024-04-06T13:08:36.202Z</time>
      </trkpt>
      <trkpt lat="43.87823" lon="3.95991">
        <ele>169.8</ele>
        <time>2024-04-06T13:08:37.831Z</time>
      </trkpt>
      <trkpt lat="43.8782" lon="3.95985">
        <ele>169.8</ele>
        <time>2024-04-06T13:08:39.515Z</time>
      </trkpt>
      <trkpt lat="43.87816" lon="3.9598">
        <ele>169.6</ele>
        <time>2024-04-06T13:08:41.055Z</time>
      </trkpt>
      <trkpt lat="43.87811" lon="3.95979">
        <ele>169.3</ele>
        <time>2024-04-06T13:08:42.470Z</time>
      </trkpt>
      <trkpt lat="43.87806" lon="3.95979">
        <ele>169</ele>
        <time>2024-04-06T13:08:43.870Z</time>
      </trkpt>
      <trkpt lat="43.87801" lon="3.9598">
        <ele>168.7</ele>
        <time>2024-04-06T13:08:45.284Z</time>
      </trkpt>
      <trkpt lat="43.87796" lon="3.95981">
        <ele>168.3</ele>
        <time>2024-04-06T13:08:46.698Z</time>
      </trkpt>
      <trkpt lat="43.87791" lon="3.95983">
        <ele>168</ele>
        <time>2024-04-06T13:08:48.155Z</time>
      </trkpt>
      <trkpt lat="43.87786" lon="3.95986">
        <ele>167.6</ele>
        <time>2024-04-06T13:08:49.680Z</time>
      </trkpt>
      <trkpt lat="43.87783" lon="3.95989">
        <ele>167.4</ele>
        <time>2024-04-06T13:08:50.716Z</time>
      </trkpt>
      <trkpt lat="43.8778" lon="3.95995">
        <ele>167.2</ele>
        <time>2024-04-06T13:08:52.218Z</time>
      </trkpt>
      <trkpt lat="43.87778" lon="3.96001">
        <ele>167</ele>
        <time>2024-04-06T13:08:53.562Z</time>
      </trkpt>
      <trkpt lat="43.87775" lon="3.96008">
        <ele>166.9</ele>
        <time>2024-04-06T13:08:55.346Z</time>
      </trkpt>
      <trkpt lat="43.87772" lon="3.96014">
        <ele>166.8</ele>
        <time>2024-04-06T13:08:56.935Z</time>
      </trkpt>
      <trkpt lat="43.87769" lon="3.9602">
        <ele>166.7</ele>
        <time>2024-04-06T13:08:58.525Z</time>
      </trkpt>
      <trkpt lat="43.87764" lon="3.96024">
        <ele>166.5</ele>
        <time>2024-04-06T13:09:00.189Z</time>
      </trkpt>
      <trkpt lat="43.8776" lon="3.96027">
        <ele>166.4</ele>
        <time>2024-04-06T13:09:01.550Z</time>
      </trkpt>
      <trkpt lat="43.87755" lon="3.9603">
        <ele>166.2</ele>
        <time>2024-04-06T13:09:03.110Z</time>
      </trkpt>
      <trkpt lat="43.87751" lon="3.96034">
        <ele>166</ele>
        <time>2024-04-06T13:09:04.507Z</time>
      </trkpt>
      <trkpt lat="43.87748" lon="3.9604">
        <ele>165.9</ele>
        <time>2024-04-06T13:09:06.097Z</time>
      </trkpt>
      <trkpt lat="43.87745" lon="3.96046">
        <ele>165.8</ele>
        <time>2024-04-06T13:09:07.686Z</time>
      </trkpt>
      <trkpt lat="43.87741" lon="3.96049">
        <ele>165.7</ele>
        <time>2024-04-06T13:09:09.047Z</time>
      </trkpt>
      <trkpt lat="43.87737" lon="3.96051">
        <ele>165.5</ele>
        <time>2024-04-06T13:09:10.238Z</time>
      </trkpt>
      <trkpt lat="43.87734" lon="3.96054">
        <ele>165.4</ele>
        <time>2024-04-06T13:09:11.328Z</time>
      </trkpt>
      <trkpt lat="43.87731" lon="3.96058">
        <ele>165.2</ele>
        <time>2024-04-06T13:09:12.493Z</time>
      </trkpt>
      <trkpt lat="43.87729" lon="3.96063">
        <ele>165</ele>
        <time>2024-04-06T13:09:13.647Z</time>
      </trkpt>
      <trkpt lat="43.87727" lon="3.96068">
        <ele>164.7</ele>
        <time>2024-04-06T13:09:14.801Z</time>
      </trkpt>
      <trkpt lat="43.87724" lon="3.96072">
        <ele>164.5</ele>
        <time>2024-04-06T13:09:15.966Z</time>
      </trkpt>
      <trkpt lat="43.87721" lon="3.96072">
        <ele>164.3</ele>
        <time>2024-04-06T13:09:16.806Z</time>
      </trkpt>
      <trkpt lat="43.87716" lon="3.9607">
        <ele>164.1</ele>
        <time>2024-04-06T13:09:18.289Z</time>
      </trkpt>
      <trkpt lat="43.87711" lon="3.96068">
        <ele>163.9</ele>
        <time>2024-04-06T13:09:19.773Z</time>
      </trkpt>
      <trkpt lat="43.87707" lon="3.96067">
        <ele>163.7</ele>
        <time>2024-04-06T13:09:20.911Z</time>
      </trkpt>
      <trkpt lat="43.87703" lon="3.96064">
        <ele>163.5</ele>
        <time>2024-04-06T13:09:22.186Z</time>
      </trkpt>
      <trkpt lat="43.87699" lon="3.96062">
        <ele>163.3</ele>
        <time>2024-04-06T13:09:23.376Z</time>
      </trkpt>
      <trkpt lat="43.87694" lon="3.96058">
        <ele>163</ele>
        <time>2024-04-06T13:09:24.992Z</time>
      </trkpt>
      <trkpt lat="43.87689" lon="3.96055">
        <ele>162.8</ele>
        <time>2024-04-06T13:09:26.553Z</time>
      </trkpt>
      <trkpt lat="43.87684" lon="3.96053">
        <ele>162.6</ele>
        <time>2024-04-06T13:09:28.037Z</time>
      </trkpt>
      <trkpt lat="43.87679" lon="3.96053">
        <ele>162.4</ele>
        <time>2024-04-06T13:09:29.455Z</time>
      </trkpt>
      <trkpt lat="43.87674" lon="3.96055">
        <ele>162.2</ele>
        <time>2024-04-06T13:09:30.939Z</time>
      </trkpt>
      <trkpt lat="43.87669" lon="3.96058">
        <ele>162</ele>
        <time>2024-04-06T13:09:32.499Z</time>
      </trkpt>
      <trkpt lat="43.87665" lon="3.9606">
        <ele>161.7</ele>
        <time>2024-04-06T13:09:33.690Z</time>
      </trkpt>
      <trkpt lat="43.8766" lon="3.96062">
        <ele>161.3</ele>
        <time>2024-04-06T13:09:35.147Z</time>
      </trkpt>
      <trkpt lat="43.87655" lon="3.96064">
        <ele>160.9</ele>
        <time>2024-04-06T13:09:36.604Z</time>
      </trkpt>
      <trkpt lat="43.8765" lon="3.96065">
        <ele>160.5</ele>
        <time>2024-04-06T13:09:38.018Z</time>
      </trkpt>
      <trkpt lat="43.87644" lon="3.96065">
        <ele>160</ele>
        <time>2024-04-06T13:09:39.698Z</time>
      </trkpt>
      <trkpt lat="43.87639" lon="3.96066">
        <ele>159.6</ele>
        <time>2024-04-06T13:09:41.112Z</time>
      </trkpt>
      <trkpt lat="43.87634" lon="3.96068">
        <ele>159.4</ele>
        <time>2024-04-06T13:09:42.596Z</time>
      </trkpt>
      <trkpt lat="43.8763" lon="3.9607">
        <ele>159.2</ele>
        <time>2024-04-06T13:09:43.786Z</time>
      </trkpt>
      <trkpt lat="43.87624" lon="3.9607">
        <ele>158.9</ele>
        <time>2024-04-06T13:09:45.466Z</time>
      </trkpt>
      <trkpt lat="43.87619" lon="3.96068">
        <ele>158.8</ele>
        <time>2024-04-06T13:09:47.036Z</time>
      </trkpt>
      <trkpt lat="43.87613" lon="3.96063">
        <ele>158.8</ele>
        <time>2024-04-06T13:09:49.276Z</time>
      </trkpt>
      <trkpt lat="43.87607" lon="3.96058">
        <ele>158.6</ele>
        <time>2024-04-06T13:09:51.330Z</time>
      </trkpt>
      <trkpt lat="43.87602" lon="3.96052">
        <ele>158.3</ele>
        <time>2024-04-06T13:09:53.181Z</time>
      </trkpt>
      <trkpt lat="43.87596" lon="3.96046">
        <ele>157.9</ele>
        <time>2024-04-06T13:09:55.252Z</time>
      </trkpt>
      <trkpt lat="43.87591" lon="3.96041">
        <ele>157.6</ele>
        <time>2024-04-06T13:09:56.978Z</time>
      </trkpt>
      <trkpt lat="43.87586" lon="3.96035">
        <ele>157.2</ele>
        <time>2024-04-06T13:09:58.828Z</time>
      </trkpt>
      <trkpt lat="43.87582" lon="3.96029">
        <ele>157</ele>
        <time>2024-04-06T13:10:00.530Z</time>
      </trkpt>
      <trkpt lat="43.87579" lon="3.96025">
        <ele>156.9</ele>
        <time>2024-04-06T13:10:01.768Z</time>
      </trkpt>
      <trkpt lat="43.87576" lon="3.96023">
        <ele>156.9</ele>
        <time>2024-04-06T13:10:02.833Z</time>
      </trkpt>
      <trkpt lat="43.87573" lon="3.96023">
        <ele>156.8</ele>
        <time>2024-04-06T13:10:03.701Z</time>
      </trkpt>
      <trkpt lat="43.8757" lon="3.96022">
        <ele>156.7</ele>
        <time>2024-04-06T13:10:04.596Z</time>
      </trkpt>
      <trkpt lat="43.87567" lon="3.96021">
        <ele>156.7</ele>
        <time>2024-04-06T13:10:05.584Z</time>
      </trkpt>
      <trkpt lat="43.87565" lon="3.96022">
        <ele>156.5</ele>
        <time>2024-04-06T13:10:06.179Z</time>
      </trkpt>
      <trkpt lat="43.87563" lon="3.96024">
        <ele>156.4</ele>
        <time>2024-04-06T13:10:06.877Z</time>
      </trkpt>
      <trkpt lat="43.87563" lon="3.96027">
        <ele>156.3</ele>
        <time>2024-04-06T13:10:07.483Z</time>
      </trkpt>
      <trkpt lat="43.87562" lon="3.96031">
        <ele>156.2</ele>
        <time>2024-04-06T13:10:08.367Z</time>
      </trkpt>
      <trkpt lat="43.87561" lon="3.96034">
        <ele>156.2</ele>
        <time>2024-04-06T13:10:09.130Z</time>
      </trkpt>
      <trkpt lat="43.87559" lon="3.96038">
        <ele>156.1</ele>
        <time>2024-04-06T13:10:10.160Z</time>
      </trkpt>
      <trkpt lat="43.87558" lon="3.9604">
        <ele>156.1</ele>
        <time>2024-04-06T13:10:10.721Z</time>
      </trkpt>
      <trkpt lat="43.87557" lon="3.96043">
        <ele>156.1</ele>
        <time>2024-04-06T13:10:11.483Z</time>
      </trkpt>
      <trkpt lat="43.87556" lon="3.96047">
        <ele>156</ele>
        <time>2024-04-06T13:10:12.368Z</time>
      </trkpt>
      <trkpt lat="43.87557" lon="3.9605">
        <ele>156.1</ele>
        <time>2024-04-06T13:10:13.239Z</time>
      </trkpt>
      <trkpt lat="43.87559" lon="3.96054">
        <ele>156.1</ele>
        <time>2024-04-06T13:10:14.361Z</time>
      </trkpt>
      <trkpt lat="43.87561" lon="3.96057">
        <ele>156.1</ele>
        <time>2024-04-06T13:10:15.304Z</time>
      </trkpt>
      <trkpt lat="43.87562" lon="3.9606">
        <ele>155.9</ele>
        <time>2024-04-06T13:10:15.971Z</time>
      </trkpt>
      <trkpt lat="43.87563" lon="3.96063">
        <ele>155.8</ele>
        <time>2024-04-06T13:10:16.643Z</time>
      </trkpt>
      <trkpt lat="43.87565" lon="3.96065">
        <ele>155.8</ele>
        <time>2024-04-06T13:10:17.432Z</time>
      </trkpt>
      <trkpt lat="43.87567" lon="3.96067">
        <ele>155.8</ele>
        <time>2024-04-06T13:10:18.221Z</time>
      </trkpt>
      <trkpt lat="43.87568" lon="3.96069">
        <ele>155.7</ele>
        <time>2024-04-06T13:10:18.712Z</time>
      </trkpt>
      <trkpt lat="43.87569" lon="3.96071">
        <ele>155.6</ele>
        <time>2024-04-06T13:10:19.203Z</time>
      </trkpt>
      <trkpt lat="43.8757" lon="3.96074">
        <ele>155.5</ele>
        <time>2024-04-06T13:10:19.876Z</time>
      </trkpt>
      <trkpt lat="43.87572" lon="3.96078">
        <ele>155.5</ele>
        <time>2024-04-06T13:10:20.998Z</time>
      </trkpt>
      <trkpt lat="43.87573" lon="3.96082">
        <ele>155.3</ele>
        <time>2024-04-06T13:10:21.853Z</time>
      </trkpt>
      <trkpt lat="43.87575" lon="3.96085">
        <ele>155.3</ele>
        <time>2024-04-06T13:10:22.795Z</time>
      </trkpt>
      <trkpt lat="43.87576" lon="3.96089">
        <ele>155.3</ele>
        <time>2024-04-06T13:10:23.772Z</time>
      </trkpt>
      <trkpt lat="43.87579" lon="3.96093">
        <ele>155.3</ele>
        <time>2024-04-06T13:10:25.103Z</time>
      </trkpt>
      <trkpt lat="43.8758" lon="3.96095">
        <ele>155.3</ele>
        <time>2024-04-06T13:10:25.665Z</time>
      </trkpt>
      <trkpt lat="43.87582" lon="3.96098">
        <ele>155.4</ele>
        <time>2024-04-06T13:10:26.713Z</time>
      </trkpt>
      <trkpt lat="43.87584" lon="3.96101">
        <ele>155.4</ele>
        <time>2024-04-06T13:10:27.656Z</time>
      </trkpt>
      <trkpt lat="43.87586" lon="3.96106">
        <ele>155.4</ele>
        <time>2024-04-06T13:10:28.975Z</time>
      </trkpt>
      <trkpt lat="43.87589" lon="3.96112">
        <ele>155.4</ele>
        <time>2024-04-06T13:10:30.659Z</time>
      </trkpt>
      <trkpt lat="43.87591" lon="3.96118">
        <ele>155.5</ele>
        <time>2024-04-06T13:10:32.287Z</time>
      </trkpt>
      <trkpt lat="43.87593" lon="3.96126">
        <ele>155.5</ele>
        <time>2024-04-06T13:10:34.240Z</time>
      </trkpt>
      <trkpt lat="43.87592" lon="3.96133">
        <ele>155.4</ele>
        <time>2024-04-06T13:10:35.791Z</time>
      </trkpt>
      <trkpt lat="43.8759" lon="3.96139">
        <ele>155.2</ele>
        <time>2024-04-06T13:10:37.136Z</time>
      </trkpt>
      <trkpt lat="43.87586" lon="3.96143">
        <ele>155.2</ele>
        <time>2024-04-06T13:10:38.713Z</time>
      </trkpt>
      <trkpt lat="43.87582" lon="3.96145">
        <ele>155.2</ele>
        <time>2024-04-06T13:10:40.074Z</time>
      </trkpt>
      <trkpt lat="43.87578" lon="3.96148">
        <ele>155.1</ele>
        <time>2024-04-06T13:10:41.435Z</time>
      </trkpt>
      <trkpt lat="43.87573" lon="3.9615">
        <ele>155</ele>
        <time>2024-04-06T13:10:43.005Z</time>
      </trkpt>
      <trkpt lat="43.87567" lon="3.9615">
        <ele>154.8</ele>
        <time>2024-04-06T13:10:44.742Z</time>
      </trkpt>
      <trkpt lat="43.87562" lon="3.96151">
        <ele>154.7</ele>
        <time>2024-04-06T13:10:46.264Z</time>
      </trkpt>
      <trkpt lat="43.87557" lon="3.96152">
        <ele>154.5</ele>
        <time>2024-04-06T13:10:47.699Z</time>
      </trkpt>
      <trkpt lat="43.87552" lon="3.96154">
        <ele>154.5</ele>
        <time>2024-04-06T13:10:49.364Z</time>
      </trkpt>
      <trkpt lat="43.87548" lon="3.96156">
        <ele>154.4</ele>
        <time>2024-04-06T13:10:50.631Z</time>
      </trkpt>
      <trkpt lat="43.87545" lon="3.96158">
        <ele>154.4</ele>
        <time>2024-04-06T13:10:51.696Z</time>
      </trkpt>
      <trkpt lat="43.87543" lon="3.96159">
        <ele>154.4</ele>
        <time>2024-04-06T13:10:52.376Z</time>
      </trkpt>
      <trkpt lat="43.87542" lon="3.96162">
        <ele>154.4</ele>
        <time>2024-04-06T13:10:53.138Z</time>
      </trkpt>
      <trkpt lat="43.87542" lon="3.96166">
        <ele>154.5</ele>
        <time>2024-04-06T13:10:54.167Z</time>
      </trkpt>
      <trkpt lat="43.87541" lon="3.96169">
        <ele>154.6</ele>
        <time>2024-04-06T13:10:55.038Z</time>
      </trkpt>
      <trkpt lat="43.87541" lon="3.96173">
        <ele>154.7</ele>
        <time>2024-04-06T13:10:56.067Z</time>
      </trkpt>
      <trkpt lat="43.87541" lon="3.96176">
        <ele>154.8</ele>
        <time>2024-04-06T13:10:56.868Z</time>
      </trkpt>
      <trkpt lat="43.87539" lon="3.96179">
        <ele>154.8</ele>
        <time>2024-04-06T13:10:57.810Z</time>
      </trkpt>
      <trkpt lat="43.87538" lon="3.96181">
        <ele>154.9</ele>
        <time>2024-04-06T13:10:58.484Z</time>
      </trkpt>
      <trkpt lat="43.87538" lon="3.96184">
        <ele>155</ele>
        <time>2024-04-06T13:10:59.285Z</time>
      </trkpt>
      <trkpt lat="43.8754" lon="3.96188">
        <ele>155.2</ele>
        <time>2024-04-06T13:11:00.631Z</time>
      </trkpt>
      <trkpt lat="43.87541" lon="3.96191">
        <ele>155.4</ele>
        <time>2024-04-06T13:11:01.633Z</time>
      </trkpt>
      <trkpt lat="43.87542" lon="3.96193">
        <ele>155.5</ele>
        <time>2024-04-06T13:11:02.306Z</time>
      </trkpt>
      <trkpt lat="43.87542" lon="3.96196">
        <ele>155.5</ele>
        <time>2024-04-06T13:11:02.998Z</time>
      </trkpt>
      <trkpt lat="43.87542" lon="3.96197">
        <ele>155.6</ele>
        <time>2024-04-06T13:11:03.366Z</time>
      </trkpt>
      <trkpt lat="43.87545" lon="3.96206">
        <ele>155.8</ele>
        <time>2024-04-06T13:11:05.862Z</time>
      </trkpt>
      <trkpt lat="43.87546" lon="3.96207">
        <ele>155.8</ele>
        <time>2024-04-06T13:11:06.257Z</time>
      </trkpt>
      <trkpt lat="43.87548" lon="3.9621">
        <ele>155.9</ele>
        <time>2024-04-06T13:11:07.305Z</time>
      </trkpt>
      <trkpt lat="43.87549" lon="3.96214">
        <ele>155.9</ele>
        <time>2024-04-06T13:11:08.282Z</time>
      </trkpt>
      <trkpt lat="43.87552" lon="3.96217">
        <ele>156</ele>
        <time>2024-04-06T13:11:09.570Z</time>
      </trkpt>
      <trkpt lat="43.87555" lon="3.96219">
        <ele>156</ele>
        <time>2024-04-06T13:11:10.635Z</time>
      </trkpt>
      <trkpt lat="43.87555" lon="3.96224">
        <ele>156</ele>
        <time>2024-04-06T13:11:11.788Z</time>
      </trkpt>
      <trkpt lat="43.87555" lon="3.96227">
        <ele>156</ele>
        <time>2024-04-06T13:11:12.480Z</time>
      </trkpt>
      <trkpt lat="43.87557" lon="3.96228">
        <ele>156</ele>
        <time>2024-04-06T13:11:13.160Z</time>
      </trkpt>
      <trkpt lat="43.8756" lon="3.9623">
        <ele>156.1</ele>
        <time>2024-04-06T13:11:14.330Z</time>
      </trkpt>
      <trkpt lat="43.87562" lon="3.96231">
        <ele>156.2</ele>
        <time>2024-04-06T13:11:15.120Z</time>
      </trkpt>
      <trkpt lat="43.87566" lon="3.96232">
        <ele>156.2</ele>
        <time>2024-04-06T13:11:16.420Z</time>
      </trkpt>
      <trkpt lat="43.87568" lon="3.96232">
        <ele>156.3</ele>
        <time>2024-04-06T13:11:17.171Z</time>
      </trkpt>
      <trkpt lat="43.87571" lon="3.96232">
        <ele>156.4</ele>
        <time>2024-04-06T13:11:18.237Z</time>
      </trkpt>
      <trkpt lat="43.87573" lon="3.96231">
        <ele>156.4</ele>
        <time>2024-04-06T13:11:18.917Z</time>
      </trkpt>
      <trkpt lat="43.87576" lon="3.96231">
        <ele>156.5</ele>
        <time>2024-04-06T13:11:19.983Z</time>
      </trkpt>
      <trkpt lat="43.87579" lon="3.96231">
        <ele>156.6</ele>
        <time>2024-04-06T13:11:21.049Z</time>
      </trkpt>
      <trkpt lat="43.87581" lon="3.96231">
        <ele>156.6</ele>
        <time>2024-04-06T13:11:21.689Z</time>
      </trkpt>
      <trkpt lat="43.87583" lon="3.96232">
        <ele>156.6</ele>
        <time>2024-04-06T13:11:22.369Z</time>
      </trkpt>
      <trkpt lat="43.87585" lon="3.96233">
        <ele>156.7</ele>
        <time>2024-04-06T13:11:23.158Z</time>
      </trkpt>
      <trkpt lat="43.87587" lon="3.96234">
        <ele>156.7</ele>
        <time>2024-04-06T13:11:23.839Z</time>
      </trkpt>
      <trkpt lat="43.87588" lon="3.96235">
        <ele>156.7</ele>
        <time>2024-04-06T13:11:24.233Z</time>
      </trkpt>
      <trkpt lat="43.8759" lon="3.96236">
        <ele>156.7</ele>
        <time>2024-04-06T13:11:24.913Z</time>
      </trkpt>
      <trkpt lat="43.87593" lon="3.96237">
        <ele>156.8</ele>
        <time>2024-04-06T13:11:26.006Z</time>
      </trkpt>
      <trkpt lat="43.87595" lon="3.96237">
        <ele>156.9</ele>
        <time>2024-04-06T13:11:26.757Z</time>
      </trkpt>
      <trkpt lat="43.87597" lon="3.96238">
        <ele>156.9</ele>
        <time>2024-04-06T13:11:27.437Z</time>
      </trkpt>
      <trkpt lat="43.876" lon="3.96238">
        <ele>157</ele>
        <time>2024-04-06T13:11:28.503Z</time>
      </trkpt>
      <trkpt lat="43.87602" lon="3.96237">
        <ele>157.1</ele>
        <time>2024-04-06T13:11:29.292Z</time>
      </trkpt>
      <trkpt lat="43.87605" lon="3.96236">
        <ele>157.3</ele>
        <time>2024-04-06T13:11:30.508Z</time>
      </trkpt>
      <trkpt lat="43.87607" lon="3.96235">
        <ele>157.4</ele>
        <time>2024-04-06T13:11:31.297Z</time>
      </trkpt>
      <trkpt lat="43.8761" lon="3.96234">
        <ele>157.5</ele>
        <time>2024-04-06T13:11:32.390Z</time>
      </trkpt>
      <trkpt lat="43.87612" lon="3.96232">
        <ele>157.7</ele>
        <time>2024-04-06T13:11:33.416Z</time>
      </trkpt>
      <trkpt lat="43.87614" lon="3.96231">
        <ele>157.8</ele>
        <time>2024-04-06T13:11:34.206Z</time>
      </trkpt>
      <trkpt lat="43.87617" lon="3.96229">
        <ele>158</ele>
        <time>2024-04-06T13:11:35.497Z</time>
      </trkpt>
      <trkpt lat="43.87619" lon="3.96229">
        <ele>158</ele>
        <time>2024-04-06T13:11:36.136Z</time>
      </trkpt>
      <trkpt lat="43.87621" lon="3.96228">
        <ele>158.1</ele>
        <time>2024-04-06T13:11:36.926Z</time>
      </trkpt>
      <trkpt lat="43.87623" lon="3.96226">
        <ele>158.3</ele>
        <time>2024-04-06T13:11:37.952Z</time>
      </trkpt>
      <trkpt lat="43.87626" lon="3.96225">
        <ele>158.4</ele>
        <time>2024-04-06T13:11:39.045Z</time>
      </trkpt>
      <trkpt lat="43.87628" lon="3.96225">
        <ele>158.5</ele>
        <time>2024-04-06T13:11:39.795Z</time>
      </trkpt>
      <trkpt lat="43.8763" lon="3.96225">
        <ele>158.6</ele>
        <time>2024-04-06T13:11:40.545Z</time>
      </trkpt>
      <trkpt lat="43.87631" lon="3.96227">
        <ele>158.5</ele>
        <time>2024-04-06T13:11:41.037Z</time>
      </trkpt>
      <trkpt lat="43.87633" lon="3.96228">
        <ele>158.6</ele>
        <time>2024-04-06T13:11:41.826Z</time>
      </trkpt>
      <trkpt lat="43.87635" lon="3.96228">
        <ele>158.7</ele>
        <time>2024-04-06T13:11:42.576Z</time>
      </trkpt>
      <trkpt lat="43.87639" lon="3.96231">
        <ele>158.7</ele>
        <time>2024-04-06T13:11:44.031Z</time>
      </trkpt>
      <trkpt lat="43.8764" lon="3.96234">
        <ele>158.6</ele>
        <time>2024-04-06T13:11:44.703Z</time>
      </trkpt>
      <trkpt lat="43.87642" lon="3.96237">
        <ele>158.6</ele>
        <time>2024-04-06T13:11:45.646Z</time>
      </trkpt>
      <trkpt lat="43.87643" lon="3.96241">
        <ele>158.5</ele>
        <time>2024-04-06T13:11:46.531Z</time>
      </trkpt>
      <trkpt lat="43.87644" lon="3.96245">
        <ele>158.4</ele>
        <time>2024-04-06T13:11:47.415Z</time>
      </trkpt>
      <trkpt lat="43.87643" lon="3.96248">
        <ele>158.2</ele>
        <time>2024-04-06T13:11:48.082Z</time>
      </trkpt>
      <trkpt lat="43.87642" lon="3.9625">
        <ele>158.1</ele>
        <time>2024-04-06T13:11:48.573Z</time>
      </trkpt>
      <trkpt lat="43.87639" lon="3.96252">
        <ele>158</ele>
        <time>2024-04-06T13:11:49.546Z</time>
      </trkpt>
      <trkpt lat="43.87637" lon="3.96254">
        <ele>157.9</ele>
        <time>2024-04-06T13:11:50.244Z</time>
      </trkpt>
      <trkpt lat="43.87636" lon="3.96256">
        <ele>157.9</ele>
        <time>2024-04-06T13:11:50.806Z</time>
      </trkpt>
      <trkpt lat="43.87637" lon="3.96259">
        <ele>157.9</ele>
        <time>2024-04-06T13:11:51.568Z</time>
      </trkpt>
      <trkpt lat="43.87638" lon="3.96262">
        <ele>158</ele>
        <time>2024-04-06T13:11:52.439Z</time>
      </trkpt>
      <trkpt lat="43.87639" lon="3.96266">
        <ele>158</ele>
        <time>2024-04-06T13:11:53.415Z</time>
      </trkpt>
      <trkpt lat="43.8764" lon="3.9627">
        <ele>158</ele>
        <time>2024-04-06T13:11:54.392Z</time>
      </trkpt>
      <trkpt lat="43.8764" lon="3.96273">
        <ele>158</ele>
        <time>2024-04-06T13:11:55.084Z</time>
      </trkpt>
      <trkpt lat="43.87641" lon="3.96276">
        <ele>158</ele>
        <time>2024-04-06T13:11:55.846Z</time>
      </trkpt>
      <trkpt lat="43.87643" lon="3.96278">
        <ele>158</ele>
        <time>2024-04-06T13:11:56.635Z</time>
      </trkpt>
      <trkpt lat="43.87645" lon="3.96282">
        <ele>157.9</ele>
        <time>2024-04-06T13:11:57.665Z</time>
      </trkpt>
      <trkpt lat="43.87647" lon="3.96284">
        <ele>157.8</ele>
        <time>2024-04-06T13:11:58.363Z</time>
      </trkpt>
      <trkpt lat="43.87649" lon="3.96287">
        <ele>157.8</ele>
        <time>2024-04-06T13:11:59.306Z</time>
      </trkpt>
      <trkpt lat="43.87652" lon="3.96289">
        <ele>157.8</ele>
        <time>2024-04-06T13:12:00.371Z</time>
      </trkpt>
      <trkpt lat="43.87655" lon="3.96288">
        <ele>157.8</ele>
        <time>2024-04-06T13:12:01.358Z</time>
      </trkpt>
      <trkpt lat="43.87657" lon="3.96287">
        <ele>157.9</ele>
        <time>2024-04-06T13:12:02.148Z</time>
      </trkpt>
      <trkpt lat="43.87659" lon="3.96287">
        <ele>157.9</ele>
        <time>2024-04-06T13:12:02.788Z</time>
      </trkpt>
      <trkpt lat="43.87662" lon="3.96287">
        <ele>157.9</ele>
        <time>2024-04-06T13:12:03.748Z</time>
      </trkpt>
      <trkpt lat="43.87665" lon="3.96287">
        <ele>158</ele>
        <time>2024-04-06T13:12:04.814Z</time>
      </trkpt>
      <trkpt lat="43.87668" lon="3.96288">
        <ele>158.1</ele>
        <time>2024-04-06T13:12:05.907Z</time>
      </trkpt>
      <trkpt lat="43.8767" lon="3.96289">
        <ele>158.2</ele>
        <time>2024-04-06T13:12:06.696Z</time>
      </trkpt>
      <trkpt lat="43.87673" lon="3.96289">
        <ele>158.4</ele>
        <time>2024-04-06T13:12:07.885Z</time>
      </trkpt>
      <trkpt lat="43.87675" lon="3.96289">
        <ele>158.5</ele>
        <time>2024-04-06T13:12:08.635Z</time>
      </trkpt>
      <trkpt lat="43.87678" lon="3.96291">
        <ele>158.6</ele>
        <time>2024-04-06T13:12:09.806Z</time>
      </trkpt>
      <trkpt lat="43.8768" lon="3.96293">
        <ele>158.7</ele>
        <time>2024-04-06T13:12:10.702Z</time>
      </trkpt>
      <trkpt lat="43.87682" lon="3.96294">
        <ele>158.8</ele>
        <time>2024-04-06T13:12:11.492Z</time>
      </trkpt>
      <trkpt lat="43.87684" lon="3.96295">
        <ele>158.9</ele>
        <time>2024-04-06T13:12:12.282Z</time>
      </trkpt>
      <trkpt lat="43.87686" lon="3.96295">
        <ele>159</ele>
        <time>2024-04-06T13:12:13.032Z</time>
      </trkpt>
      <trkpt lat="43.87688" lon="3.96295">
        <ele>159.1</ele>
        <time>2024-04-06T13:12:13.782Z</time>
      </trkpt>
      <trkpt lat="43.8769" lon="3.96296">
        <ele>159.1</ele>
        <time>2024-04-06T13:12:14.462Z</time>
      </trkpt>
      <trkpt lat="43.87692" lon="3.96296">
        <ele>159.2</ele>
        <time>2024-04-06T13:12:15.212Z</time>
      </trkpt>
      <trkpt lat="43.87696" lon="3.96295">
        <ele>159.4</ele>
        <time>2024-04-06T13:12:16.732Z</time>
      </trkpt>
      <trkpt lat="43.87698" lon="3.96292">
        <ele>159.6</ele>
        <time>2024-04-06T13:12:17.905Z</time>
      </trkpt>
      <trkpt lat="43.87699" lon="3.96288">
        <ele>159.7</ele>
        <time>2024-04-06T13:12:18.987Z</time>
      </trkpt>
      <trkpt lat="43.87701" lon="3.96285">
        <ele>159.8</ele>
        <time>2024-04-06T13:12:20.036Z</time>
      </trkpt>
      <trkpt lat="43.87702" lon="3.96285">
        <ele>159.8</ele>
        <time>2024-04-06T13:12:20.356Z</time>
      </trkpt>
      <trkpt lat="43.87704" lon="3.96287">
        <ele>159.8</ele>
        <time>2024-04-06T13:12:21.145Z</time>
      </trkpt>
      <trkpt lat="43.87705" lon="3.9629">
        <ele>159.7</ele>
        <time>2024-04-06T13:12:21.817Z</time>
      </trkpt>
      <trkpt lat="43.87705" lon="3.96293">
        <ele>159.7</ele>
        <time>2024-04-06T13:12:22.509Z</time>
      </trkpt>
      <trkpt lat="43.87706" lon="3.96295">
        <ele>159.6</ele>
        <time>2024-04-06T13:12:23.000Z</time>
      </trkpt>
      <trkpt lat="43.87707" lon="3.963">
        <ele>159.6</ele>
        <time>2024-04-06T13:12:24.197Z</time>
      </trkpt>
      <trkpt lat="43.87708" lon="3.96302">
        <ele>159.6</ele>
        <time>2024-04-06T13:12:24.758Z</time>
      </trkpt>
      <trkpt lat="43.87709" lon="3.96305">
        <ele>159.5</ele>
        <time>2024-04-06T13:12:25.430Z</time>
      </trkpt>
      <trkpt lat="43.8771" lon="3.96307">
        <ele>159.5</ele>
        <time>2024-04-06T13:12:25.992Z</time>
      </trkpt>
      <trkpt lat="43.87711" lon="3.9631">
        <ele>159.5</ele>
        <time>2024-04-06T13:12:26.754Z</time>
      </trkpt>
      <trkpt lat="43.87712" lon="3.96313">
        <ele>159.5</ele>
        <time>2024-04-06T13:12:27.516Z</time>
      </trkpt>
      <trkpt lat="43.87712" lon="3.96316">
        <ele>159.4</ele>
        <time>2024-04-06T13:12:28.122Z</time>
      </trkpt>
      <trkpt lat="43.87712" lon="3.96318">
        <ele>159.3</ele>
        <time>2024-04-06T13:12:28.525Z</time>
      </trkpt>
      <trkpt lat="43.87712" lon="3.96322">
        <ele>159.3</ele>
        <time>2024-04-06T13:12:29.448Z</time>
      </trkpt>
      <trkpt lat="43.87714" lon="3.96326">
        <ele>159.2</ele>
        <time>2024-04-06T13:12:30.478Z</time>
      </trkpt>
      <trkpt lat="43.87715" lon="3.96327">
        <ele>159.2</ele>
        <time>2024-04-06T13:12:30.872Z</time>
      </trkpt>
      <trkpt lat="43.87719" lon="3.96326">
        <ele>159.2</ele>
        <time>2024-04-06T13:12:32.173Z</time>
      </trkpt>
      <trkpt lat="43.87721" lon="3.96325">
        <ele>159.3</ele>
        <time>2024-04-06T13:12:32.963Z</time>
      </trkpt>
      <trkpt lat="43.87723" lon="3.96324">
        <ele>159.4</ele>
        <time>2024-04-06T13:12:33.752Z</time>
      </trkpt>
      <trkpt lat="43.87725" lon="3.96323">
        <ele>159.5</ele>
        <time>2024-04-06T13:12:34.542Z</time>
      </trkpt>
      <trkpt lat="43.87727" lon="3.96324">
        <ele>159.6</ele>
        <time>2024-04-06T13:12:35.332Z</time>
      </trkpt>
      <trkpt lat="43.87728" lon="3.96324">
        <ele>159.7</ele>
        <time>2024-04-06T13:12:35.776Z</time>
      </trkpt>
      <trkpt lat="43.8773" lon="3.96324">
        <ele>159.8</ele>
        <time>2024-04-06T13:12:36.526Z</time>
      </trkpt>
      <trkpt lat="43.87733" lon="3.96325">
        <ele>160</ele>
        <time>2024-04-06T13:12:37.741Z</time>
      </trkpt>
      <trkpt lat="43.87734" lon="3.96326">
        <ele>160</ele>
        <time>2024-04-06T13:12:38.136Z</time>
      </trkpt>
      <trkpt lat="43.87735" lon="3.96328">
        <ele>160</ele>
        <time>2024-04-06T13:12:38.697Z</time>
      </trkpt>
      <trkpt lat="43.87737" lon="3.96331">
        <ele>160.1</ele>
        <time>2024-04-06T13:12:39.746Z</time>
      </trkpt>
      <trkpt lat="43.87737" lon="3.96335">
        <ele>160.1</ele>
        <time>2024-04-06T13:12:40.668Z</time>
      </trkpt>
      <trkpt lat="43.87738" lon="3.9634">
        <ele>160.1</ele>
        <time>2024-04-06T13:12:41.865Z</time>
      </trkpt>
      <trkpt lat="43.87739" lon="3.96343">
        <ele>160.1</ele>
        <time>2024-04-06T13:12:42.627Z</time>
      </trkpt>
      <trkpt lat="43.8774" lon="3.96345">
        <ele>160.2</ele>
        <time>2024-04-06T13:12:43.301Z</time>
      </trkpt>
      <trkpt lat="43.87742" lon="3.96348">
        <ele>160.2</ele>
        <time>2024-04-06T13:12:44.243Z</time>
      </trkpt>
      <trkpt lat="43.87743" lon="3.96353">
        <ele>160.1</ele>
        <time>2024-04-06T13:12:45.347Z</time>
      </trkpt>
      <trkpt lat="43.87742" lon="3.96357">
        <ele>160.1</ele>
        <time>2024-04-06T13:12:46.323Z</time>
      </trkpt>
      <trkpt lat="43.87742" lon="3.96361">
        <ele>160</ele>
        <time>2024-04-06T13:12:47.154Z</time>
      </trkpt>
      <trkpt lat="43.87741" lon="3.96364">
        <ele>160.1</ele>
        <time>2024-04-06T13:12:48.025Z</time>
      </trkpt>
      <trkpt lat="43.8774" lon="3.96368">
        <ele>160.2</ele>
        <time>2024-04-06T13:12:49.107Z</time>
      </trkpt>
      <trkpt lat="43.87743" lon="3.96369">
        <ele>160.3</ele>
        <time>2024-04-06T13:12:50.200Z</time>
      </trkpt>
      <trkpt lat="43.87745" lon="3.96371">
        <ele>160.4</ele>
        <time>2024-04-06T13:12:51.097Z</time>
      </trkpt>
      <trkpt lat="43.87747" lon="3.96372">
        <ele>160.4</ele>
        <time>2024-04-06T13:12:51.777Z</time>
      </trkpt>
      <trkpt lat="43.87748" lon="3.96374">
        <ele>160.5</ele>
        <time>2024-04-06T13:12:52.451Z</time>
      </trkpt>
      <trkpt lat="43.8775" lon="3.96377">
        <ele>160.6</ele>
        <time>2024-04-06T13:12:53.499Z</time>
      </trkpt>
      <trkpt lat="43.87751" lon="3.9638">
        <ele>160.7</ele>
        <time>2024-04-06T13:12:54.370Z</time>
      </trkpt>
      <trkpt lat="43.87752" lon="3.96383">
        <ele>160.8</ele>
        <time>2024-04-06T13:12:55.240Z</time>
      </trkpt>
      <trkpt lat="43.87752" lon="3.96386">
        <ele>160.9</ele>
        <time>2024-04-06T13:12:56.041Z</time>
      </trkpt>
      <trkpt lat="43.87753" lon="3.96389">
        <ele>161</ele>
        <time>2024-04-06T13:12:56.912Z</time>
      </trkpt>
      <trkpt lat="43.87752" lon="3.96392">
        <ele>161.1</ele>
        <time>2024-04-06T13:12:57.782Z</time>
      </trkpt>
      <trkpt lat="43.87752" lon="3.96394">
        <ele>161.2</ele>
        <time>2024-04-06T13:12:58.359Z</time>
      </trkpt>
      <trkpt lat="43.87752" lon="3.96399">
        <ele>161.3</ele>
        <time>2024-04-06T13:12:59.617Z</time>
      </trkpt>
      <trkpt lat="43.87751" lon="3.96402">
        <ele>161.5</ele>
        <time>2024-04-06T13:13:00.618Z</time>
      </trkpt>
      <trkpt lat="43.87751" lon="3.96405">
        <ele>161.6</ele>
        <time>2024-04-06T13:13:01.419Z</time>
      </trkpt>
      <trkpt lat="43.87751" lon="3.96408">
        <ele>161.7</ele>
        <time>2024-04-06T13:13:02.220Z</time>
      </trkpt>
      <trkpt lat="43.87752" lon="3.96411">
        <ele>161.7</ele>
        <time>2024-04-06T13:13:02.982Z</time>
      </trkpt>
      <trkpt lat="43.87752" lon="3.96414">
        <ele>161.8</ele>
        <time>2024-04-06T13:13:03.783Z</time>
      </trkpt>
      <trkpt lat="43.87753" lon="3.96416">
        <ele>161.9</ele>
        <time>2024-04-06T13:13:04.457Z</time>
      </trkpt>
      <trkpt lat="43.87755" lon="3.9642">
        <ele>161.8</ele>
        <time>2024-04-06T13:13:05.487Z</time>
      </trkpt>
      <trkpt lat="43.87758" lon="3.96422">
        <ele>161.8</ele>
        <time>2024-04-06T13:13:06.552Z</time>
      </trkpt>
      <trkpt lat="43.8776" lon="3.96421">
        <ele>161.7</ele>
        <time>2024-04-06T13:13:07.147Z</time>
      </trkpt>
      <trkpt lat="43.87762" lon="3.96422">
        <ele>161.7</ele>
        <time>2024-04-06T13:13:07.827Z</time>
      </trkpt>
      <trkpt lat="43.87763" lon="3.96424">
        <ele>161.7</ele>
        <time>2024-04-06T13:13:08.389Z</time>
      </trkpt>
      <trkpt lat="43.87764" lon="3.96427">
        <ele>161.7</ele>
        <time>2024-04-06T13:13:09.151Z</time>
      </trkpt>
      <trkpt lat="43.87764" lon="3.9643">
        <ele>161.7</ele>
        <time>2024-04-06T13:13:09.843Z</time>
      </trkpt>
      <trkpt lat="43.87763" lon="3.96433">
        <ele>161.8</ele>
        <time>2024-04-06T13:13:10.713Z</time>
      </trkpt>
      <trkpt lat="43.87763" lon="3.96436">
        <ele>161.9</ele>
        <time>2024-04-06T13:13:11.515Z</time>
      </trkpt>
      <trkpt lat="43.87763" lon="3.96439">
        <ele>161.9</ele>
        <time>2024-04-06T13:13:12.207Z</time>
      </trkpt>
      <trkpt lat="43.87763" lon="3.96443">
        <ele>162</ele>
        <time>2024-04-06T13:13:13.235Z</time>
      </trkpt>
      <trkpt lat="43.87763" lon="3.96446">
        <ele>162</ele>
        <time>2024-04-06T13:13:13.927Z</time>
      </trkpt>
      <trkpt lat="43.87763" lon="3.9645">
        <ele>162.1</ele>
        <time>2024-04-06T13:13:14.956Z</time>
      </trkpt>
      <trkpt lat="43.87763" lon="3.96453">
        <ele>162.2</ele>
        <time>2024-04-06T13:13:15.757Z</time>
      </trkpt>
      <trkpt lat="43.87763" lon="3.96456">
        <ele>162.2</ele>
        <time>2024-04-06T13:13:16.449Z</time>
      </trkpt>
      <trkpt lat="43.87763" lon="3.9646">
        <ele>162.3</ele>
        <time>2024-04-06T13:13:17.478Z</time>
      </trkpt>
      <trkpt lat="43.87763" lon="3.96463">
        <ele>162.4</ele>
        <time>2024-04-06T13:13:18.279Z</time>
      </trkpt>
      <trkpt lat="43.87763" lon="3.96466">
        <ele>162.4</ele>
        <time>2024-04-06T13:13:18.971Z</time>
      </trkpt>
      <trkpt lat="43.87763" lon="3.96469">
        <ele>162.5</ele>
        <time>2024-04-06T13:13:19.772Z</time>
      </trkpt>
      <trkpt lat="43.87763" lon="3.96472">
        <ele>162.5</ele>
        <time>2024-04-06T13:13:20.464Z</time>
      </trkpt>
      <trkpt lat="43.87763" lon="3.96475">
        <ele>162.6</ele>
        <time>2024-04-06T13:13:21.266Z</time>
      </trkpt>
      <trkpt lat="43.87763" lon="3.96477">
        <ele>162.7</ele>
        <time>2024-04-06T13:13:21.842Z</time>
      </trkpt>
      <trkpt lat="43.87762" lon="3.9648">
        <ele>162.8</ele>
        <time>2024-04-06T13:13:22.713Z</time>
      </trkpt>
      <trkpt lat="43.87762" lon="3.96483">
        <ele>163</ele>
        <time>2024-04-06T13:13:23.648Z</time>
      </trkpt>
      <trkpt lat="43.87762" lon="3.96486">
        <ele>163.1</ele>
        <time>2024-04-06T13:13:24.449Z</time>
      </trkpt>
      <trkpt lat="43.87762" lon="3.96489">
        <ele>163.2</ele>
        <time>2024-04-06T13:13:25.251Z</time>
      </trkpt>
      <trkpt lat="43.87761" lon="3.96492">
        <ele>163.3</ele>
        <time>2024-04-06T13:13:26.121Z</time>
      </trkpt>
      <trkpt lat="43.87761" lon="3.96495">
        <ele>163.4</ele>
        <time>2024-04-06T13:13:26.922Z</time>
      </trkpt>
      <trkpt lat="43.87761" lon="3.96498">
        <ele>163.5</ele>
        <time>2024-04-06T13:13:27.723Z</time>
      </trkpt>
      <trkpt lat="43.8776" lon="3.965">
        <ele>163.6</ele>
        <time>2024-04-06T13:13:28.397Z</time>
      </trkpt>
      <trkpt lat="43.8776" lon="3.96503">
        <ele>163.6</ele>
        <time>2024-04-06T13:13:29.089Z</time>
      </trkpt>
      <trkpt lat="43.87758" lon="3.96505">
        <ele>163.7</ele>
        <time>2024-04-06T13:13:29.985Z</time>
      </trkpt>
      <trkpt lat="43.87757" lon="3.96507">
        <ele>163.7</ele>
        <time>2024-04-06T13:13:30.547Z</time>
      </trkpt>
      <trkpt lat="43.87755" lon="3.96507">
        <ele>163.8</ele>
        <time>2024-04-06T13:13:31.297Z</time>
      </trkpt>
      <trkpt lat="43.87752" lon="3.96507">
        <ele>163.9</ele>
        <time>2024-04-06T13:13:32.363Z</time>
      </trkpt>
      <trkpt lat="43.8775" lon="3.96508">
        <ele>164</ele>
        <time>2024-04-06T13:13:33.152Z</time>
      </trkpt>
      <trkpt lat="43.87747" lon="3.96509">
        <ele>163.9</ele>
        <time>2024-04-06T13:13:34.048Z</time>
      </trkpt>
      <trkpt lat="43.87744" lon="3.96509">
        <ele>163.8</ele>
        <time>2024-04-06T13:13:34.916Z</time>
      </trkpt>
      <trkpt lat="43.87742" lon="3.96509">
        <ele>163.7</ele>
        <time>2024-04-06T13:13:35.476Z</time>
      </trkpt>
      <trkpt lat="43.87738" lon="3.96507">
        <ele>163.6</ele>
        <time>2024-04-06T13:13:36.742Z</time>
      </trkpt>
      <trkpt lat="43.87735" lon="3.96506">
        <ele>163.5</ele>
        <time>2024-04-06T13:13:37.638Z</time>
      </trkpt>
      <trkpt lat="43.87731" lon="3.96505">
        <ele>163.3</ele>
        <time>2024-04-06T13:13:38.776Z</time>
      </trkpt>
      <trkpt lat="43.87727" lon="3.96505">
        <ele>163.2</ele>
        <time>2024-04-06T13:13:39.962Z</time>
      </trkpt>
      <trkpt lat="43.87722" lon="3.96505">
        <ele>163</ele>
        <time>2024-04-06T13:13:41.381Z</time>
      </trkpt>
      <trkpt lat="43.87718" lon="3.96505">
        <ele>162.8</ele>
        <time>2024-04-06T13:13:42.501Z</time>
      </trkpt>
      <trkpt lat="43.87714" lon="3.96506">
        <ele>162.6</ele>
        <time>2024-04-06T13:13:43.639Z</time>
      </trkpt>
      <trkpt lat="43.87709" lon="3.96507">
        <ele>162.4</ele>
        <time>2024-04-06T13:13:45.074Z</time>
      </trkpt>
      <trkpt lat="43.87705" lon="3.96507">
        <ele>162.2</ele>
        <time>2024-04-06T13:13:46.194Z</time>
      </trkpt>
      <trkpt lat="43.877" lon="3.96507">
        <ele>162</ele>
        <time>2024-04-06T13:13:47.612Z</time>
      </trkpt>
      <trkpt lat="43.87696" lon="3.96506">
        <ele>161.9</ele>
        <time>2024-04-06T13:13:48.820Z</time>
      </trkpt>
      <trkpt lat="43.8769" lon="3.96505">
        <ele>161.5</ele>
        <time>2024-04-06T13:13:50.511Z</time>
      </trkpt>
      <trkpt lat="43.87685" lon="3.96504">
        <ele>161.2</ele>
        <time>2024-04-06T13:13:51.926Z</time>
      </trkpt>
      <trkpt lat="43.8768" lon="3.96503">
        <ele>160.9</ele>
        <time>2024-04-06T13:13:53.340Z</time>
      </trkpt>
      <trkpt lat="43.87676" lon="3.96503">
        <ele>160.6</ele>
        <time>2024-04-06T13:13:54.460Z</time>
      </trkpt>
      <trkpt lat="43.87671" lon="3.96502">
        <ele>160.2</ele>
        <time>2024-04-06T13:13:55.874Z</time>
      </trkpt>
      <trkpt lat="43.87666" lon="3.96501">
        <ele>159.9</ele>
        <time>2024-04-06T13:13:57.289Z</time>
      </trkpt>
      <trkpt lat="43.87661" lon="3.96499">
        <ele>159.4</ele>
        <time>2024-04-06T13:13:58.746Z</time>
      </trkpt>
      <trkpt lat="43.87656" lon="3.96497">
        <ele>159</ele>
        <time>2024-04-06T13:14:00.203Z</time>
      </trkpt>
      <trkpt lat="43.87651" lon="3.96495">
        <ele>158.6</ele>
        <time>2024-04-06T13:14:01.660Z</time>
      </trkpt>
      <trkpt lat="43.87647" lon="3.96493">
        <ele>158.3</ele>
        <time>2024-04-06T13:14:02.850Z</time>
      </trkpt>
      <trkpt lat="43.87643" lon="3.96491">
        <ele>158</ele>
        <time>2024-04-06T13:14:04.040Z</time>
      </trkpt>
      <trkpt lat="43.87639" lon="3.96488">
        <ele>157.9</ele>
        <time>2024-04-06T13:14:05.401Z</time>
      </trkpt>
      <trkpt lat="43.87635" lon="3.96486">
        <ele>157.9</ele>
        <time>2024-04-06T13:14:06.762Z</time>
      </trkpt>
      <trkpt lat="43.87631" lon="3.96484">
        <ele>157.9</ele>
        <time>2024-04-06T13:14:08.122Z</time>
      </trkpt>
      <trkpt lat="43.87626" lon="3.96482">
        <ele>157.8</ele>
        <time>2024-04-06T13:14:09.693Z</time>
      </trkpt>
      <trkpt lat="43.87621" lon="3.96481">
        <ele>157.7</ele>
        <time>2024-04-06T13:14:11.215Z</time>
      </trkpt>
      <trkpt lat="43.87616" lon="3.96479">
        <ele>157.7</ele>
        <time>2024-04-06T13:14:12.880Z</time>
      </trkpt>
      <trkpt lat="43.87611" lon="3.96477">
        <ele>157.6</ele>
        <time>2024-04-06T13:14:14.450Z</time>
      </trkpt>
      <trkpt lat="43.87607" lon="3.96476">
        <ele>157.4</ele>
        <time>2024-04-06T13:14:15.588Z</time>
      </trkpt>
      <trkpt lat="43.87602" lon="3.96474">
        <ele>157.2</ele>
        <time>2024-04-06T13:14:17.072Z</time>
      </trkpt>
      <trkpt lat="43.87598" lon="3.96471">
        <ele>157.1</ele>
        <time>2024-04-06T13:14:18.433Z</time>
      </trkpt>
      <trkpt lat="43.87594" lon="3.96469">
        <ele>156.9</ele>
        <time>2024-04-06T13:14:19.623Z</time>
      </trkpt>
      <trkpt lat="43.8759" lon="3.96466">
        <ele>156.7</ele>
        <time>2024-04-06T13:14:20.898Z</time>
      </trkpt>
      <trkpt lat="43.87586" lon="3.96463">
        <ele>156.5</ele>
        <time>2024-04-06T13:14:22.174Z</time>
      </trkpt>
      <trkpt lat="43.87582" lon="3.9646">
        <ele>156.4</ele>
        <time>2024-04-06T13:14:23.535Z</time>
      </trkpt>
      <trkpt lat="43.87577" lon="3.96458">
        <ele>156.4</ele>
        <time>2024-04-06T13:14:25.200Z</time>
      </trkpt>
      <trkpt lat="43.87572" lon="3.96458">
        <ele>156.3</ele>
        <time>2024-04-06T13:14:26.705Z</time>
      </trkpt>
      <trkpt lat="43.87567" lon="3.96458">
        <ele>156.2</ele>
        <time>2024-04-06T13:14:28.211Z</time>
      </trkpt>
      <trkpt lat="43.87561" lon="3.96459">
        <ele>156.1</ele>
        <time>2024-04-06T13:14:30.049Z</time>
      </trkpt>
      <trkpt lat="43.87556" lon="3.96459">
        <ele>156</ele>
        <time>2024-04-06T13:14:31.555Z</time>
      </trkpt>
      <trkpt lat="43.87551" lon="3.96459">
        <ele>155.9</ele>
        <time>2024-04-06T13:14:33.060Z</time>
      </trkpt>
      <trkpt lat="43.87546" lon="3.96457">
        <ele>155.9</ele>
        <time>2024-04-06T13:14:34.725Z</time>
      </trkpt>
      <trkpt lat="43.87541" lon="3.96457">
        <ele>155.9</ele>
        <time>2024-04-06T13:14:36.325Z</time>
      </trkpt>
      <trkpt lat="43.87536" lon="3.96456">
        <ele>155.9</ele>
        <time>2024-04-06T13:14:37.941Z</time>
      </trkpt>
      <trkpt lat="43.87531" lon="3.96456">
        <ele>155.8</ele>
        <time>2024-04-06T13:14:39.447Z</time>
      </trkpt>
      <trkpt lat="43.87527" lon="3.96455">
        <ele>155.9</ele>
        <time>2024-04-06T13:14:40.851Z</time>
      </trkpt>
      <trkpt lat="43.87523" lon="3.96454">
        <ele>156</ele>
        <time>2024-04-06T13:14:42.256Z</time>
      </trkpt>
      <trkpt lat="43.87519" lon="3.96454">
        <ele>156</ele>
        <time>2024-04-06T13:14:43.536Z</time>
      </trkpt>
      <trkpt lat="43.87515" lon="3.96453">
        <ele>156.1</ele>
        <time>2024-04-06T13:14:44.940Z</time>
      </trkpt>
      <trkpt lat="43.87512" lon="3.96453">
        <ele>156.1</ele>
        <time>2024-04-06T13:14:45.900Z</time>
      </trkpt>
      <trkpt lat="43.87508" lon="3.96452">
        <ele>156.2</ele>
        <time>2024-04-06T13:14:47.305Z</time>
      </trkpt>
      <trkpt lat="43.87504" lon="3.96451">
        <ele>156.3</ele>
        <time>2024-04-06T13:14:48.709Z</time>
      </trkpt>
      <trkpt lat="43.87501" lon="3.96451">
        <ele>156.3</ele>
        <time>2024-04-06T13:14:49.669Z</time>
      </trkpt>
      <trkpt lat="43.87497" lon="3.9645">
        <ele>156.4</ele>
        <time>2024-04-06T13:14:51.074Z</time>
      </trkpt>
      <trkpt lat="43.87493" lon="3.9645">
        <ele>156.3</ele>
        <time>2024-04-06T13:14:52.260Z</time>
      </trkpt>
      <trkpt lat="43.87488" lon="3.96449">
        <ele>156.4</ele>
        <time>2024-04-06T13:14:53.979Z</time>
      </trkpt>
      <trkpt lat="43.87484" lon="3.96448">
        <ele>156.5</ele>
        <time>2024-04-06T13:14:55.384Z</time>
      </trkpt>
      <trkpt lat="43.87479" lon="3.96448">
        <ele>156.5</ele>
        <time>2024-04-06T13:14:56.984Z</time>
      </trkpt>
      <trkpt lat="43.87474" lon="3.96447">
        <ele>156.6</ele>
        <time>2024-04-06T13:14:58.703Z</time>
      </trkpt>
      <trkpt lat="43.8747" lon="3.96446">
        <ele>156.9</ele>
        <time>2024-04-06T13:15:00.353Z</time>
      </trkpt>
      <trkpt lat="43.87465" lon="3.96445">
        <ele>157.2</ele>
        <time>2024-04-06T13:15:02.307Z</time>
      </trkpt>
      <trkpt lat="43.8746" lon="3.96445">
        <ele>157.4</ele>
        <time>2024-04-06T13:15:04.122Z</time>
      </trkpt>
      <trkpt lat="43.87456" lon="3.96447">
        <ele>157.2</ele>
        <time>2024-04-06T13:15:05.313Z</time>
      </trkpt>
      <trkpt lat="43.87451" lon="3.96449">
        <ele>157.1</ele>
        <time>2024-04-06T13:15:06.883Z</time>
      </trkpt>
      <trkpt lat="43.87447" lon="3.96453">
        <ele>156.7</ele>
        <time>2024-04-06T13:15:08.264Z</time>
      </trkpt>
      <trkpt lat="43.87442" lon="3.96456">
        <ele>156.5</ele>
        <time>2024-04-06T13:15:09.824Z</time>
      </trkpt>
      <trkpt lat="43.87437" lon="3.96458">
        <ele>156.6</ele>
        <time>2024-04-06T13:15:11.592Z</time>
      </trkpt>
      <trkpt lat="43.87431" lon="3.9646">
        <ele>156.7</ele>
        <time>2024-04-06T13:15:13.669Z</time>
      </trkpt>
      <trkpt lat="43.87426" lon="3.96461">
        <ele>156.9</ele>
        <time>2024-04-06T13:15:15.500Z</time>
      </trkpt>
      <trkpt lat="43.8742" lon="3.96462">
        <ele>157.2</ele>
        <time>2024-04-06T13:15:17.764Z</time>
      </trkpt>
      <trkpt lat="43.87415" lon="3.96464">
        <ele>157.3</ele>
        <time>2024-04-06T13:15:19.532Z</time>
      </trkpt>
      <trkpt lat="43.8741" lon="3.96466">
        <ele>157.3</ele>
        <time>2024-04-06T13:15:21.197Z</time>
      </trkpt>
      <trkpt lat="43.87405" lon="3.9647">
        <ele>157.1</ele>
        <time>2024-04-06T13:15:22.861Z</time>
      </trkpt>
      <trkpt lat="43.87401" lon="3.96475">
        <ele>156.8</ele>
        <time>2024-04-06T13:15:24.368Z</time>
      </trkpt>
      <trkpt lat="43.87396" lon="3.96482">
        <ele>156.6</ele>
        <time>2024-04-06T13:15:26.456Z</time>
      </trkpt>
      <trkpt lat="43.87392" lon="3.96489">
        <ele>156.4</ele>
        <time>2024-04-06T13:15:28.331Z</time>
      </trkpt>
      <trkpt lat="43.87388" lon="3.96497">
        <ele>156.3</ele>
        <time>2024-04-06T13:15:30.482Z</time>
      </trkpt>
      <trkpt lat="43.87385" lon="3.96505">
        <ele>155.8</ele>
        <time>2024-04-06T13:15:32.302Z</time>
      </trkpt>
      <trkpt lat="43.87381" lon="3.96513">
        <ele>155.3</ele>
        <time>2024-04-06T13:15:34.267Z</time>
      </trkpt>
      <trkpt lat="43.87376" lon="3.9652">
        <ele>155.1</ele>
        <time>2024-04-06T13:15:36.354Z</time>
      </trkpt>
      <trkpt lat="43.87372" lon="3.96527">
        <ele>154.9</ele>
        <time>2024-04-06T13:15:38.230Z</time>
      </trkpt>
      <trkpt lat="43.87368" lon="3.96534">
        <ele>154.8</ele>
        <time>2024-04-06T13:15:40.195Z</time>
      </trkpt>
      <trkpt lat="43.87364" lon="3.9654">
        <ele>154.8</ele>
        <time>2024-04-06T13:15:42.080Z</time>
      </trkpt>
      <trkpt lat="43.87359" lon="3.96546">
        <ele>154.8</ele>
        <time>2024-04-06T13:15:44.195Z</time>
      </trkpt>
      <trkpt lat="43.87354" lon="3.96551">
        <ele>154.8</ele>
        <time>2024-04-06T13:15:46.168Z</time>
      </trkpt>
      <trkpt lat="43.87349" lon="3.96554">
        <ele>155</ele>
        <time>2024-04-06T13:15:48.124Z</time>
      </trkpt>
      <trkpt lat="43.87343" lon="3.96556">
        <ele>155.3</ele>
        <time>2024-04-06T13:15:50.428Z</time>
      </trkpt>
      <trkpt lat="43.87339" lon="3.96557">
        <ele>155.5</ele>
        <time>2024-04-06T13:15:51.949Z</time>
      </trkpt>
      <trkpt lat="43.87335" lon="3.96559">
        <ele>155.6</ele>
        <time>2024-04-06T13:15:53.413Z</time>
      </trkpt>
      <trkpt lat="43.87331" lon="3.96561">
        <ele>155.8</ele>
        <time>2024-04-06T13:15:54.992Z</time>
      </trkpt>
      <trkpt lat="43.87327" lon="3.96563">
        <ele>155.9</ele>
        <time>2024-04-06T13:15:56.456Z</time>
      </trkpt>
      <trkpt lat="43.87324" lon="3.96565">
        <ele>156</ele>
        <time>2024-04-06T13:15:57.627Z</time>
      </trkpt>
      <trkpt lat="43.8732" lon="3.96565">
        <ele>156.3</ele>
        <time>2024-04-06T13:15:59.257Z</time>
      </trkpt>
      <trkpt lat="43.87317" lon="3.96566">
        <ele>156.4</ele>
        <time>2024-04-06T13:16:00.350Z</time>
      </trkpt>
      <trkpt lat="43.87314" lon="3.96566">
        <ele>156.6</ele>
        <time>2024-04-06T13:16:01.539Z</time>
      </trkpt>
      <trkpt lat="43.87311" lon="3.96567">
        <ele>156.8</ele>
        <time>2024-04-06T13:16:02.754Z</time>
      </trkpt>
      <trkpt lat="43.87308" lon="3.96567">
        <ele>157</ele>
        <time>2024-04-06T13:16:03.943Z</time>
      </trkpt>
      <trkpt lat="43.87305" lon="3.96568">
        <ele>157.2</ele>
        <time>2024-04-06T13:16:05.159Z</time>
      </trkpt>
      <trkpt lat="43.87302" lon="3.96569">
        <ele>157.5</ele>
        <time>2024-04-06T13:16:06.516Z</time>
      </trkpt>
      <trkpt lat="43.87299" lon="3.96569">
        <ele>158</ele>
        <time>2024-04-06T13:16:08.213Z</time>
      </trkpt>
      <trkpt lat="43.87296" lon="3.9657">
        <ele>158.3</ele>
        <time>2024-04-06T13:16:09.571Z</time>
      </trkpt>
      <trkpt lat="43.87294" lon="3.96571">
        <ele>158.6</ele>
        <time>2024-04-06T13:16:10.664Z</time>
      </trkpt>
      <trkpt lat="43.87291" lon="3.96571">
        <ele>159</ele>
        <time>2024-04-06T13:16:12.165Z</time>
      </trkpt>
      <trkpt lat="43.87289" lon="3.96572">
        <ele>159.2</ele>
        <time>2024-04-06T13:16:13.090Z</time>
      </trkpt>
      <trkpt lat="43.87287" lon="3.96573">
        <ele>159.4</ele>
        <time>2024-04-06T13:16:14.015Z</time>
      </trkpt>
      <trkpt lat="43.87284" lon="3.96573">
        <ele>159.8</ele>
        <time>2024-04-06T13:16:15.515Z</time>
      </trkpt>
      <trkpt lat="43.87282" lon="3.96574">
        <ele>160.1</ele>
        <time>2024-04-06T13:16:16.609Z</time>
      </trkpt>
      <trkpt lat="43.8728" lon="3.96575">
        <ele>160.3</ele>
        <time>2024-04-06T13:16:17.534Z</time>
      </trkpt>
      <trkpt lat="43.87278" lon="3.96575">
        <ele>160.6</ele>
        <time>2024-04-06T13:16:18.597Z</time>
      </trkpt>
      <trkpt lat="43.87277" lon="3.96576">
        <ele>160.6</ele>
        <time>2024-04-06T13:16:18.991Z</time>
      </trkpt>
      <trkpt lat="43.87273" lon="3.96577">
        <ele>161.1</ele>
        <time>2024-04-06T13:16:20.950Z</time>
      </trkpt>
      <trkpt lat="43.8727" lon="3.96577">
        <ele>161.6</ele>
        <time>2024-04-06T13:16:22.647Z</time>
      </trkpt>
      <trkpt lat="43.87267" lon="3.96578">
        <ele>161.9</ele>
        <time>2024-04-06T13:16:24.004Z</time>
      </trkpt>
      <trkpt lat="43.87264" lon="3.96578">
        <ele>162.4</ele>
        <time>2024-04-06T13:16:25.702Z</time>
      </trkpt>
      <trkpt lat="43.87261" lon="3.96579">
        <ele>162.7</ele>
        <time>2024-04-06T13:16:27.059Z</time>
      </trkpt>
      <trkpt lat="43.87258" lon="3.9658">
        <ele>163.1</ele>
        <time>2024-04-06T13:16:28.582Z</time>
      </trkpt>
      <trkpt lat="43.87255" lon="3.96581">
        <ele>163.4</ele>
        <time>2024-04-06T13:16:29.939Z</time>
      </trkpt>
      <trkpt lat="43.87253" lon="3.96582">
        <ele>163.7</ele>
        <time>2024-04-06T13:16:31.033Z</time>
      </trkpt>
      <trkpt lat="43.8725" lon="3.96583">
        <ele>164</ele>
        <time>2024-04-06T13:16:32.390Z</time>
      </trkpt>
      <trkpt lat="43.87247" lon="3.96585">
        <ele>164.4</ele>
        <time>2024-04-06T13:16:33.977Z</time>
      </trkpt>
      <trkpt lat="43.87244" lon="3.96587">
        <ele>164.8</ele>
        <time>2024-04-06T13:16:35.565Z</time>
      </trkpt>
      <trkpt lat="43.87242" lon="3.9659">
        <ele>165</ele>
        <time>2024-04-06T13:16:36.737Z</time>
      </trkpt>
      <trkpt lat="43.87239" lon="3.96591">
        <ele>165.4</ele>
        <time>2024-04-06T13:16:38.259Z</time>
      </trkpt>
      <trkpt lat="43.87236" lon="3.96593">
        <ele>165.8</ele>
        <time>2024-04-06T13:16:39.847Z</time>
      </trkpt>
      <trkpt lat="43.87234" lon="3.96595">
        <ele>166.1</ele>
        <time>2024-04-06T13:16:41.029Z</time>
      </trkpt>
      <trkpt lat="43.87231" lon="3.96596">
        <ele>166.6</ele>
        <time>2024-04-06T13:16:42.745Z</time>
      </trkpt>
      <trkpt lat="43.87229" lon="3.96598">
        <ele>166.9</ele>
        <time>2024-04-06T13:16:43.927Z</time>
      </trkpt>
      <trkpt lat="43.87226" lon="3.966">
        <ele>167.4</ele>
        <time>2024-04-06T13:16:45.698Z</time>
      </trkpt>
      <trkpt lat="43.87224" lon="3.96601">
        <ele>167.7</ele>
        <time>2024-04-06T13:16:46.792Z</time>
      </trkpt>
      <trkpt lat="43.87222" lon="3.96603">
        <ele>168</ele>
        <time>2024-04-06T13:16:47.974Z</time>
      </trkpt>
      <trkpt lat="43.87219" lon="3.96605">
        <ele>168.2</ele>
        <time>2024-04-06T13:16:49.265Z</time>
      </trkpt>
      <trkpt lat="43.87217" lon="3.96607">
        <ele>168.4</ele>
        <time>2024-04-06T13:16:50.291Z</time>
      </trkpt>
      <trkpt lat="43.87214" lon="3.96609">
        <ele>168.6</ele>
        <time>2024-04-06T13:16:51.581Z</time>
      </trkpt>
      <trkpt lat="43.87212" lon="3.96611">
        <ele>168.7</ele>
        <time>2024-04-06T13:16:52.478Z</time>
      </trkpt>
      <trkpt lat="43.8721" lon="3.96614">
        <ele>168.8</ele>
        <time>2024-04-06T13:16:53.527Z</time>
      </trkpt>
      <trkpt lat="43.87207" lon="3.96616">
        <ele>168.9</ele>
        <time>2024-04-06T13:16:54.697Z</time>
      </trkpt>
      <trkpt lat="43.87205" lon="3.96619">
        <ele>169</ele>
        <time>2024-04-06T13:16:55.746Z</time>
      </trkpt>
      <trkpt lat="43.87203" lon="3.96622">
        <ele>169.1</ele>
        <time>2024-04-06T13:16:56.794Z</time>
      </trkpt>
      <trkpt lat="43.87201" lon="3.96625">
        <ele>169.3</ele>
        <time>2024-04-06T13:16:57.967Z</time>
      </trkpt>
      <trkpt lat="43.87198" lon="3.96627">
        <ele>169.6</ele>
        <time>2024-04-06T13:16:59.395Z</time>
      </trkpt>
      <trkpt lat="43.87195" lon="3.9663">
        <ele>169.9</ele>
        <time>2024-04-06T13:17:00.934Z</time>
      </trkpt>
      <trkpt lat="43.87193" lon="3.96632">
        <ele>170</ele>
        <time>2024-04-06T13:17:01.831Z</time>
      </trkpt>
      <trkpt lat="43.87191" lon="3.96634">
        <ele>170</ele>
        <time>2024-04-06T13:17:02.620Z</time>
      </trkpt>
      <trkpt lat="43.87189" lon="3.96635">
        <ele>170</ele>
        <time>2024-04-06T13:17:03.300Z</time>
      </trkpt>
      <trkpt lat="43.87187" lon="3.96636">
        <ele>170</ele>
        <time>2024-04-06T13:17:03.980Z</time>
      </trkpt>
      <trkpt lat="43.87185" lon="3.96637">
        <ele>170</ele>
        <time>2024-04-06T13:17:04.660Z</time>
      </trkpt>
      <trkpt lat="43.87182" lon="3.96638">
        <ele>170</ele>
        <time>2024-04-06T13:17:05.648Z</time>
      </trkpt>
      <trkpt lat="43.8718" lon="3.96639">
        <ele>170</ele>
        <time>2024-04-06T13:17:06.328Z</time>
      </trkpt>
      <trkpt lat="43.87177" lon="3.96642">
        <ele>170</ele>
        <time>2024-04-06T13:17:07.511Z</time>
      </trkpt>
      <trkpt lat="43.87176" lon="3.96644">
        <ele>169.9</ele>
        <time>2024-04-06T13:17:08.003Z</time>
      </trkpt>
      <trkpt lat="43.87174" lon="3.96645">
        <ele>169.9</ele>
        <time>2024-04-06T13:17:08.683Z</time>
      </trkpt>
      <trkpt lat="43.87172" lon="3.96646">
        <ele>170</ele>
        <time>2024-04-06T13:17:09.472Z</time>
      </trkpt>
      <trkpt lat="43.8717" lon="3.96648">
        <ele>170</ele>
        <time>2024-04-06T13:17:10.261Z</time>
      </trkpt>
      <trkpt lat="43.87167" lon="3.96649">
        <ele>170</ele>
        <time>2024-04-06T13:17:11.249Z</time>
      </trkpt>
      <trkpt lat="43.87165" lon="3.9665">
        <ele>169.9</ele>
        <time>2024-04-06T13:17:11.844Z</time>
      </trkpt>
      <trkpt lat="43.87162" lon="3.96651">
        <ele>169.8</ele>
        <time>2024-04-06T13:17:12.739Z</time>
      </trkpt>
      <trkpt lat="43.87159" lon="3.96651">
        <ele>169.7</ele>
        <time>2024-04-06T13:17:13.607Z</time>
      </trkpt>
      <trkpt lat="43.87155" lon="3.96652">
        <ele>169.6</ele>
        <time>2024-04-06T13:17:14.814Z</time>
      </trkpt>
      <trkpt lat="43.87152" lon="3.96653">
        <ele>169.5</ele>
        <time>2024-04-06T13:17:15.710Z</time>
      </trkpt>
      <trkpt lat="43.87149" lon="3.96653">
        <ele>169.4</ele>
        <time>2024-04-06T13:17:16.578Z</time>
      </trkpt>
      <trkpt lat="43.87146" lon="3.96654">
        <ele>169.3</ele>
        <time>2024-04-06T13:17:17.473Z</time>
      </trkpt>
      <trkpt lat="43.87143" lon="3.96654">
        <ele>169.1</ele>
        <time>2024-04-06T13:17:18.313Z</time>
      </trkpt>
      <trkpt lat="43.8714" lon="3.96655">
        <ele>169</ele>
        <time>2024-04-06T13:17:19.208Z</time>
      </trkpt>
      <trkpt lat="43.87137" lon="3.96656">
        <ele>168.8</ele>
        <time>2024-04-06T13:17:20.072Z</time>
      </trkpt>
      <trkpt lat="43.87134" lon="3.96657">
        <ele>168.5</ele>
        <time>2024-04-06T13:17:20.936Z</time>
      </trkpt>
      <trkpt lat="43.87131" lon="3.96658">
        <ele>168.3</ele>
        <time>2024-04-06T13:17:21.800Z</time>
      </trkpt>
      <trkpt lat="43.87128" lon="3.9666">
        <ele>168</ele>
        <time>2024-04-06T13:17:22.732Z</time>
      </trkpt>
      <trkpt lat="43.87126" lon="3.96662">
        <ele>167.9</ele>
        <time>2024-04-06T13:17:23.430Z</time>
      </trkpt>
      <trkpt lat="43.87123" lon="3.96664">
        <ele>167.7</ele>
        <time>2024-04-06T13:17:24.362Z</time>
      </trkpt>
      <trkpt lat="43.8712" lon="3.96666">
        <ele>167.6</ele>
        <time>2024-04-06T13:17:25.334Z</time>
      </trkpt>
      <trkpt lat="43.87117" lon="3.96668">
        <ele>167.4</ele>
        <time>2024-04-06T13:17:26.266Z</time>
      </trkpt>
      <trkpt lat="43.87114" lon="3.96671">
        <ele>167.1</ele>
        <time>2024-04-06T13:17:27.302Z</time>
      </trkpt>
      <trkpt lat="43.87111" lon="3.96673">
        <ele>166.8</ele>
        <time>2024-04-06T13:17:28.234Z</time>
      </trkpt>
      <trkpt lat="43.87107" lon="3.96674">
        <ele>166.8</ele>
        <time>2024-04-06T13:17:29.534Z</time>
      </trkpt>
      <trkpt lat="43.87104" lon="3.96675">
        <ele>166.8</ele>
        <time>2024-04-06T13:17:30.521Z</time>
      </trkpt>
      <trkpt lat="43.871" lon="3.96676">
        <ele>166.8</ele>
        <time>2024-04-06T13:17:31.822Z</time>
      </trkpt>
      <trkpt lat="43.87096" lon="3.96676">
        <ele>166.8</ele>
        <time>2024-04-06T13:17:33.102Z</time>
      </trkpt>
      <trkpt lat="43.87092" lon="3.96676">
        <ele>166.9</ele>
        <time>2024-04-06T13:17:34.486Z</time>
      </trkpt>
      <trkpt lat="43.87087" lon="3.96677">
        <ele>167</ele>
        <time>2024-04-06T13:17:36.205Z</time>
      </trkpt>
      <trkpt lat="43.87083" lon="3.96678">
        <ele>167</ele>
        <time>2024-04-06T13:17:37.506Z</time>
      </trkpt>
      <trkpt lat="43.87079" lon="3.9668">
        <ele>167.1</ele>
        <time>2024-04-06T13:17:38.970Z</time>
      </trkpt>
      <trkpt lat="43.87075" lon="3.96682">
        <ele>167.2</ele>
        <time>2024-04-06T13:17:40.434Z</time>
      </trkpt>
      <trkpt lat="43.87071" lon="3.96683">
        <ele>167.3</ele>
        <time>2024-04-06T13:17:41.838Z</time>
      </trkpt>
      <trkpt lat="43.87067" lon="3.96683">
        <ele>167.3</ele>
        <time>2024-04-06T13:17:43.118Z</time>
      </trkpt>
      <trkpt lat="43.87063" lon="3.96684">
        <ele>167.5</ele>
        <time>2024-04-06T13:17:44.639Z</time>
      </trkpt>
      <trkpt lat="43.87059" lon="3.96684">
        <ele>167.5</ele>
        <time>2024-04-06T13:17:45.919Z</time>
      </trkpt>
      <trkpt lat="43.87055" lon="3.96685">
        <ele>167.7</ele>
        <time>2024-04-06T13:17:47.439Z</time>
      </trkpt>
      <trkpt lat="43.87051" lon="3.96685">
        <ele>167.6</ele>
        <time>2024-04-06T13:17:48.626Z</time>
      </trkpt>
      <trkpt lat="43.87048" lon="3.96685">
        <ele>167.6</ele>
        <time>2024-04-06T13:17:49.586Z</time>
      </trkpt>
      <trkpt lat="43.87044" lon="3.96685">
        <ele>167.5</ele>
        <time>2024-04-06T13:17:50.772Z</time>
      </trkpt>
      <trkpt lat="43.8704" lon="3.96685">
        <ele>167.5</ele>
        <time>2024-04-06T13:17:52.052Z</time>
      </trkpt>
      <trkpt lat="43.87037" lon="3.96687">
        <ele>167.6</ele>
        <time>2024-04-06T13:17:53.222Z</time>
      </trkpt>
      <trkpt lat="43.87034" lon="3.96689">
        <ele>167.7</ele>
        <time>2024-04-06T13:17:54.392Z</time>
      </trkpt>
      <trkpt lat="43.8703" lon="3.96692">
        <ele>167.8</ele>
        <time>2024-04-06T13:17:55.951Z</time>
      </trkpt>
      <trkpt lat="43.87026" lon="3.96694">
        <ele>167.8</ele>
        <time>2024-04-06T13:17:57.311Z</time>
      </trkpt>
      <trkpt lat="43.87023" lon="3.96697">
        <ele>167.6</ele>
        <time>2024-04-06T13:17:58.347Z</time>
      </trkpt>
      <trkpt lat="43.8702" lon="3.967">
        <ele>167.2</ele>
        <time>2024-04-06T13:17:59.382Z</time>
      </trkpt>
      <trkpt lat="43.87017" lon="3.96704">
        <ele>166.9</ele>
        <time>2024-04-06T13:18:00.547Z</time>
      </trkpt>
      <trkpt lat="43.87013" lon="3.96707">
        <ele>166.5</ele>
        <time>2024-04-06T13:18:01.820Z</time>
      </trkpt>
      <trkpt lat="43.8701" lon="3.9671">
        <ele>166.2</ele>
        <time>2024-04-06T13:18:02.856Z</time>
      </trkpt>
      <trkpt lat="43.87006" lon="3.96712">
        <ele>165.8</ele>
        <time>2024-04-06T13:18:04.046Z</time>
      </trkpt>
      <trkpt lat="43.87001" lon="3.96715">
        <ele>165.3</ele>
        <time>2024-04-06T13:18:05.571Z</time>
      </trkpt>
      <trkpt lat="43.86997" lon="3.96717">
        <ele>164.8</ele>
        <time>2024-04-06T13:18:06.762Z</time>
      </trkpt>
      <trkpt lat="43.86991" lon="3.9672">
        <ele>164.1</ele>
        <time>2024-04-06T13:18:08.548Z</time>
      </trkpt>
      <trkpt lat="43.86986" lon="3.96721">
        <ele>163.5</ele>
        <time>2024-04-06T13:18:09.962Z</time>
      </trkpt>
      <trkpt lat="43.8698" lon="3.96721">
        <ele>162.8</ele>
        <time>2024-04-06T13:18:11.642Z</time>
      </trkpt>
      <trkpt lat="43.86974" lon="3.96722">
        <ele>162.2</ele>
        <time>2024-04-06T13:18:13.334Z</time>
      </trkpt>
      <trkpt lat="43.86968" lon="3.96725">
        <ele>161.5</ele>
        <time>2024-04-06T13:18:15.119Z</time>
      </trkpt>
      <trkpt lat="43.86963" lon="3.96729">
        <ele>160.8</ele>
        <time>2024-04-06T13:18:16.735Z</time>
      </trkpt>
      <trkpt lat="43.86957" lon="3.96734">
        <ele>160.2</ele>
        <time>2024-04-06T13:18:18.695Z</time>
      </trkpt>
      <trkpt lat="43.86952" lon="3.9674">
        <ele>159.6</ele>
        <time>2024-04-06T13:18:20.546Z</time>
      </trkpt>
      <trkpt lat="43.86946" lon="3.96747">
        <ele>159.1</ele>
        <time>2024-04-06T13:18:22.741Z</time>
      </trkpt>
      <trkpt lat="43.8694" lon="3.96751">
        <ele>158.8</ele>
        <time>2024-04-06T13:18:24.605Z</time>
      </trkpt>
      <trkpt lat="43.86933" lon="3.96755">
        <ele>158.6</ele>
        <time>2024-04-06T13:18:26.841Z</time>
      </trkpt>
      <trkpt lat="43.86927" lon="3.96758">
        <ele>158.4</ele>
        <time>2024-04-06T13:18:28.697Z</time>
      </trkpt>
      <trkpt lat="43.8692" lon="3.96762">
        <ele>158.4</ele>
        <time>2024-04-06T13:18:31.120Z</time>
      </trkpt>
      <trkpt lat="43.86915" lon="3.96765">
        <ele>158.5</ele>
        <time>2024-04-06T13:18:32.966Z</time>
      </trkpt>
      <trkpt lat="43.86908" lon="3.96767">
        <ele>158.4</ele>
        <time>2024-04-06T13:18:35.157Z</time>
      </trkpt>
      <trkpt lat="43.86903" lon="3.96769">
        <ele>158.4</ele>
        <time>2024-04-06T13:18:36.822Z</time>
      </trkpt>
      <trkpt lat="43.86897" lon="3.96769">
        <ele>158.2</ele>
        <time>2024-04-06T13:18:38.558Z</time>
      </trkpt>
      <trkpt lat="43.86892" lon="3.96771">
        <ele>158.3</ele>
        <time>2024-04-06T13:18:40.326Z</time>
      </trkpt>
      <trkpt lat="43.86887" lon="3.96774">
        <ele>158.7</ele>
        <time>2024-04-06T13:18:42.535Z</time>
      </trkpt>
      <trkpt lat="43.86883" lon="3.96778">
        <ele>159.2</ele>
        <time>2024-04-06T13:18:44.735Z</time>
      </trkpt>
      <trkpt lat="43.8688" lon="3.96781">
        <ele>159.4</ele>
        <time>2024-04-06T13:18:46.141Z</time>
      </trkpt>
      <trkpt lat="43.86876" lon="3.96784">
        <ele>159.7</ele>
        <time>2024-04-06T13:18:47.939Z</time>
      </trkpt>
      <trkpt lat="43.86873" lon="3.96787">
        <ele>160</ele>
        <time>2024-04-06T13:18:49.478Z</time>
      </trkpt>
      <trkpt lat="43.86869" lon="3.96788">
        <ele>160.2</ele>
        <time>2024-04-06T13:18:50.999Z</time>
      </trkpt>
      <trkpt lat="43.86866" lon="3.9679">
        <ele>160.5</ele>
        <time>2024-04-06T13:18:52.427Z</time>
      </trkpt>
      <trkpt lat="43.86862" lon="3.96792">
        <ele>161</ele>
        <time>2024-04-06T13:18:54.436Z</time>
      </trkpt>
      <trkpt lat="43.86859" lon="3.96794">
        <ele>161.3</ele>
        <time>2024-04-06T13:18:55.865Z</time>
      </trkpt>
      <trkpt lat="43.86856" lon="3.96795">
        <ele>161.5</ele>
        <time>2024-04-06T13:18:57.080Z</time>
      </trkpt>
      <trkpt lat="43.86853" lon="3.96797">
        <ele>161.9</ele>
        <time>2024-04-06T13:18:58.668Z</time>
      </trkpt>
      <trkpt lat="43.86851" lon="3.96799">
        <ele>162.2</ele>
        <time>2024-04-06T13:18:59.850Z</time>
      </trkpt>
      <trkpt lat="43.86849" lon="3.968">
        <ele>162.4</ele>
        <time>2024-04-06T13:19:00.775Z</time>
      </trkpt>
      <trkpt lat="43.86847" lon="3.96802">
        <ele>162.7</ele>
        <time>2024-04-06T13:19:01.957Z</time>
      </trkpt>
      <trkpt lat="43.86845" lon="3.96803">
        <ele>162.9</ele>
        <time>2024-04-06T13:19:02.882Z</time>
      </trkpt>
      <trkpt lat="43.86842" lon="3.96804">
        <ele>163.2</ele>
        <time>2024-04-06T13:19:04.239Z</time>
      </trkpt>
      <trkpt lat="43.8684" lon="3.96805">
        <ele>163.5</ele>
        <time>2024-04-06T13:19:05.333Z</time>
      </trkpt>
      <trkpt lat="43.86839" lon="3.96806">
        <ele>163.6</ele>
        <time>2024-04-06T13:19:05.846Z</time>
      </trkpt>
      <trkpt lat="43.86837" lon="3.96808">
        <ele>163.6</ele>
        <time>2024-04-06T13:19:06.635Z</time>
      </trkpt>
      <trkpt lat="43.86835" lon="3.96809">
        <ele>163.8</ele>
        <time>2024-04-06T13:19:07.560Z</time>
      </trkpt>
      <trkpt lat="43.86833" lon="3.96809">
        <ele>163.9</ele>
        <time>2024-04-06T13:19:08.310Z</time>
      </trkpt>
      <trkpt lat="43.86831" lon="3.9681">
        <ele>164</ele>
        <time>2024-04-06T13:19:09.100Z</time>
      </trkpt>
      <trkpt lat="43.86829" lon="3.96811">
        <ele>164.1</ele>
        <time>2024-04-06T13:19:09.889Z</time>
      </trkpt>
      <trkpt lat="43.86827" lon="3.96812">
        <ele>164.2</ele>
        <time>2024-04-06T13:19:10.679Z</time>
      </trkpt>
      <trkpt lat="43.86825" lon="3.96814">
        <ele>164.3</ele>
        <time>2024-04-06T13:19:11.576Z</time>
      </trkpt>
      <trkpt lat="43.86824" lon="3.96815">
        <ele>164.3</ele>
        <time>2024-04-06T13:19:11.970Z</time>
      </trkpt>
      <trkpt lat="43.86822" lon="3.96817">
        <ele>164.4</ele>
        <time>2024-04-06T13:19:12.867Z</time>
      </trkpt>
      <trkpt lat="43.8682" lon="3.96818">
        <ele>164.5</ele>
        <time>2024-04-06T13:19:13.657Z</time>
      </trkpt>
      <trkpt lat="43.86818" lon="3.96819">
        <ele>164.6</ele>
        <time>2024-04-06T13:19:14.446Z</time>
      </trkpt>
      <trkpt lat="43.86816" lon="3.9682">
        <ele>164.7</ele>
        <time>2024-04-06T13:19:15.236Z</time>
      </trkpt>
      <trkpt lat="43.86813" lon="3.96821">
        <ele>164.9</ele>
        <time>2024-04-06T13:19:16.451Z</time>
      </trkpt>
      <trkpt lat="43.86812" lon="3.96821">
        <ele>165</ele>
        <time>2024-04-06T13:19:16.895Z</time>
      </trkpt>
      <trkpt lat="43.8681" lon="3.96823">
        <ele>165.1</ele>
        <time>2024-04-06T13:19:17.792Z</time>
      </trkpt>
      <trkpt lat="43.86808" lon="3.96824">
        <ele>165.2</ele>
        <time>2024-04-06T13:19:18.582Z</time>
      </trkpt>
      <trkpt lat="43.86806" lon="3.96825">
        <ele>165.3</ele>
        <time>2024-04-06T13:19:19.371Z</time>
      </trkpt>
      <trkpt lat="43.86803" lon="3.96827">
        <ele>165.1</ele>
        <time>2024-04-06T13:19:20.303Z</time>
      </trkpt>
      <trkpt lat="43.868" lon="3.96829">
        <ele>165</ele>
        <time>2024-04-06T13:19:21.276Z</time>
      </trkpt>
      <trkpt lat="43.86797" lon="3.96831">
        <ele>164.8</ele>
        <time>2024-04-06T13:19:22.208Z</time>
      </trkpt>
      <trkpt lat="43.86794" lon="3.96833">
        <ele>164.6</ele>
        <time>2024-04-06T13:19:23.140Z</time>
      </trkpt>
      <trkpt lat="43.86791" lon="3.96836">
        <ele>164.3</ele>
        <time>2024-04-06T13:19:24.175Z</time>
      </trkpt>
      <trkpt lat="43.86788" lon="3.96841">
        <ele>163.9</ele>
        <time>2024-04-06T13:19:25.488Z</time>
      </trkpt>
      <trkpt lat="43.86785" lon="3.96845">
        <ele>163.6</ele>
        <time>2024-04-06T13:19:26.653Z</time>
      </trkpt>
      <trkpt lat="43.86782" lon="3.9685">
        <ele>163.4</ele>
        <time>2024-04-06T13:19:27.974Z</time>
      </trkpt>
      <trkpt lat="43.86778" lon="3.96855">
        <ele>163.2</ele>
        <time>2024-04-06T13:19:29.514Z</time>
      </trkpt>
      <trkpt lat="43.86775" lon="3.96861">
        <ele>162.5</ele>
        <time>2024-04-06T13:19:30.988Z</time>
      </trkpt>
      <trkpt lat="43.86772" lon="3.96868">
        <ele>161.8</ele>
        <time>2024-04-06T13:19:32.632Z</time>
      </trkpt>
      <trkpt lat="43.8677" lon="3.96875">
        <ele>161.4</ele>
        <time>2024-04-06T13:19:34.152Z</time>
      </trkpt>
      <trkpt lat="43.86769" lon="3.96882">
        <ele>161.1</ele>
        <time>2024-04-06T13:19:35.592Z</time>
      </trkpt>
      <trkpt lat="43.86768" lon="3.9689">
        <ele>160.8</ele>
        <time>2024-04-06T13:19:37.231Z</time>
      </trkpt>
      <trkpt lat="43.86765" lon="3.96897">
        <ele>159.9</ele>
        <time>2024-04-06T13:19:38.875Z</time>
      </trkpt>
      <trkpt lat="43.86763" lon="3.96903">
        <ele>159.2</ele>
        <time>2024-04-06T13:19:40.209Z</time>
      </trkpt>
      <trkpt lat="43.86759" lon="3.96908">
        <ele>158.6</ele>
        <time>2024-04-06T13:19:41.717Z</time>
      </trkpt>
      <trkpt lat="43.86756" lon="3.96911">
        <ele>158.3</ele>
        <time>2024-04-06T13:19:42.752Z</time>
      </trkpt>
      <trkpt lat="43.86754" lon="3.96914">
        <ele>158.1</ele>
        <time>2024-04-06T13:19:43.577Z</time>
      </trkpt>
      <trkpt lat="43.86754" lon="3.96919">
        <ele>157.8</ele>
        <time>2024-04-06T13:19:44.586Z</time>
      </trkpt>
      <trkpt lat="43.86756" lon="3.96921">
        <ele>157.7</ele>
        <time>2024-04-06T13:19:45.285Z</time>
      </trkpt>
      <trkpt lat="43.86757" lon="3.96923">
        <ele>157.5</ele>
        <time>2024-04-06T13:19:45.776Z</time>
      </trkpt>
      <trkpt lat="43.86759" lon="3.96927">
        <ele>157.3</ele>
        <time>2024-04-06T13:19:46.758Z</time>
      </trkpt>
      <trkpt lat="43.86759" lon="3.96932">
        <ele>156.9</ele>
        <time>2024-04-06T13:19:47.768Z</time>
      </trkpt>
      <trkpt lat="43.86759" lon="3.96937">
        <ele>156.5</ele>
        <time>2024-04-06T13:19:48.777Z</time>
      </trkpt>
      <trkpt lat="43.86757" lon="3.96943">
        <ele>156.1</ele>
        <time>2024-04-06T13:19:50.111Z</time>
      </trkpt>
      <trkpt lat="43.86756" lon="3.96948">
        <ele>155.6</ele>
        <time>2024-04-06T13:19:51.159Z</time>
      </trkpt>
      <trkpt lat="43.86757" lon="3.96955">
        <ele>155</ele>
        <time>2024-04-06T13:19:52.599Z</time>
      </trkpt>
      <trkpt lat="43.86758" lon="3.96961">
        <ele>154.4</ele>
        <time>2024-04-06T13:19:53.842Z</time>
      </trkpt>
      <trkpt lat="43.86759" lon="3.96968">
        <ele>153.7</ele>
        <time>2024-04-06T13:19:55.282Z</time>
      </trkpt>
      <trkpt lat="43.86759" lon="3.96976">
        <ele>153.1</ele>
        <time>2024-04-06T13:19:56.897Z</time>
      </trkpt>
      <trkpt lat="43.86756" lon="3.96983">
        <ele>152.4</ele>
        <time>2024-04-06T13:19:58.541Z</time>
      </trkpt>
      <trkpt lat="43.86753" lon="3.96988">
        <ele>152</ele>
        <time>2024-04-06T13:19:59.854Z</time>
      </trkpt>
      <trkpt lat="43.86749" lon="3.9699">
        <ele>151.6</ele>
        <time>2024-04-06T13:20:01.044Z</time>
      </trkpt>
      <trkpt lat="43.86745" lon="3.96991">
        <ele>150.9</ele>
        <time>2024-04-06T13:20:02.182Z</time>
      </trkpt>
      <trkpt lat="43.86742" lon="3.96993">
        <ele>150.2</ele>
        <time>2024-04-06T13:20:03.114Z</time>
      </trkpt>
      <trkpt lat="43.8674" lon="3.96996">
        <ele>149.6</ele>
        <time>2024-04-06T13:20:03.939Z</time>
      </trkpt>
      <trkpt lat="43.86739" lon="3.97001">
        <ele>148.9</ele>
        <time>2024-04-06T13:20:04.986Z</time>
      </trkpt>
      <trkpt lat="43.86739" lon="3.97007">
        <ele>148.4</ele>
        <time>2024-04-06T13:20:06.197Z</time>
      </trkpt>
      <trkpt lat="43.8674" lon="3.97013">
        <ele>148.1</ele>
        <time>2024-04-06T13:20:07.440Z</time>
      </trkpt>
      <trkpt lat="43.86739" lon="3.97017">
        <ele>147.6</ele>
        <time>2024-04-06T13:20:08.295Z</time>
      </trkpt>
      <trkpt lat="43.86736" lon="3.97021">
        <ele>146.6</ele>
        <time>2024-04-06T13:20:09.460Z</time>
      </trkpt>
      <trkpt lat="43.86733" lon="3.97024">
        <ele>145.7</ele>
        <time>2024-04-06T13:20:10.495Z</time>
      </trkpt>
      <trkpt lat="43.86732" lon="3.97028">
        <ele>145.1</ele>
        <time>2024-04-06T13:20:11.350Z</time>
      </trkpt>
      <trkpt lat="43.8673" lon="3.97033">
        <ele>144.5</ele>
        <time>2024-04-06T13:20:12.504Z</time>
      </trkpt>
      <trkpt lat="43.86729" lon="3.97037">
        <ele>144.1</ele>
        <time>2024-04-06T13:20:13.359Z</time>
      </trkpt>
      <trkpt lat="43.8673" lon="3.9704">
        <ele>144.2</ele>
        <time>2024-04-06T13:20:14.229Z</time>
      </trkpt>
      <trkpt lat="43.86731" lon="3.97043">
        <ele>144.3</ele>
        <time>2024-04-06T13:20:15.100Z</time>
      </trkpt>
      <trkpt lat="43.86733" lon="3.97045">
        <ele>144.7</ele>
        <time>2024-04-06T13:20:16.472Z</time>
      </trkpt>
      <trkpt lat="43.86735" lon="3.97046">
        <ele>145.1</ele>
        <time>2024-04-06T13:20:17.778Z</time>
      </trkpt>
      <trkpt lat="43.86737" lon="3.97047">
        <ele>145.5</ele>
        <time>2024-04-06T13:20:19.084Z</time>
      </trkpt>
      <trkpt lat="43.86738" lon="3.97048">
        <ele>145.7</ele>
        <time>2024-04-06T13:20:19.770Z</time>
      </trkpt>
      <trkpt lat="43.8674" lon="3.9705">
        <ele>146</ele>
        <time>2024-04-06T13:20:20.952Z</time>
      </trkpt>
      <trkpt lat="43.86741" lon="3.97052">
        <ele>146.2</ele>
        <time>2024-04-06T13:20:21.771Z</time>
      </trkpt>
      <trkpt lat="43.86742" lon="3.97054">
        <ele>146.3</ele>
        <time>2024-04-06T13:20:22.444Z</time>
      </trkpt>
      <trkpt lat="43.86744" lon="3.97056">
        <ele>146.7</ele>
        <time>2024-04-06T13:20:23.816Z</time>
      </trkpt>
      <trkpt lat="43.86744" lon="3.97058">
        <ele>146.6</ele>
        <time>2024-04-06T13:20:24.220Z</time>
      </trkpt>
      <trkpt lat="43.86745" lon="3.9706">
        <ele>146.7</ele>
        <time>2024-04-06T13:20:24.893Z</time>
      </trkpt>
      <trkpt lat="43.86746" lon="3.97063">
        <ele>146.8</ele>
        <time>2024-04-06T13:20:25.764Z</time>
      </trkpt>
      <trkpt lat="43.86747" lon="3.97065">
        <ele>146.9</ele>
        <time>2024-04-06T13:20:26.437Z</time>
      </trkpt>
      <trkpt lat="43.86748" lon="3.97067">
        <ele>147.1</ele>
        <time>2024-04-06T13:20:27.256Z</time>
      </trkpt>
      <trkpt lat="43.86749" lon="3.97069">
        <ele>147.3</ele>
        <time>2024-04-06T13:20:28.074Z</time>
      </trkpt>
      <trkpt lat="43.8675" lon="3.97071">
        <ele>147.4</ele>
        <time>2024-04-06T13:20:28.748Z</time>
      </trkpt>
      <trkpt lat="43.86751" lon="3.97074">
        <ele>147.4</ele>
        <time>2024-04-06T13:20:29.510Z</time>
      </trkpt>
      <trkpt lat="43.86752" lon="3.97076">
        <ele>147.4</ele>
        <time>2024-04-06T13:20:30.072Z</time>
      </trkpt>
      <trkpt lat="43.86753" lon="3.97079">
        <ele>147.4</ele>
        <time>2024-04-06T13:20:30.834Z</time>
      </trkpt>
      <trkpt lat="43.86754" lon="3.97081">
        <ele>147.4</ele>
        <time>2024-04-06T13:20:31.396Z</time>
      </trkpt>
      <trkpt lat="43.86755" lon="3.97084">
        <ele>147.4</ele>
        <time>2024-04-06T13:20:32.158Z</time>
      </trkpt>
      <trkpt lat="43.86755" lon="3.97087">
        <ele>147.4</ele>
        <time>2024-04-06T13:20:32.850Z</time>
      </trkpt>
      <trkpt lat="43.86755" lon="3.9709">
        <ele>147.4</ele>
        <time>2024-04-06T13:20:33.542Z</time>
      </trkpt>
      <trkpt lat="43.86756" lon="3.97093">
        <ele>147.4</ele>
        <time>2024-04-06T13:20:34.305Z</time>
      </trkpt>
      <trkpt lat="43.86757" lon="3.97095">
        <ele>147.5</ele>
        <time>2024-04-06T13:20:34.978Z</time>
      </trkpt>
      <trkpt lat="43.86758" lon="3.97098">
        <ele>147.6</ele>
        <time>2024-04-06T13:20:35.849Z</time>
      </trkpt>
      <trkpt lat="43.86759" lon="3.97101">
        <ele>147.6</ele>
        <time>2024-04-06T13:20:36.611Z</time>
      </trkpt>
      <trkpt lat="43.8676" lon="3.97103">
        <ele>147.7</ele>
        <time>2024-04-06T13:20:37.284Z</time>
      </trkpt>
      <trkpt lat="43.86761" lon="3.97106">
        <ele>147.8</ele>
        <time>2024-04-06T13:20:38.155Z</time>
      </trkpt>
      <trkpt lat="43.86761" lon="3.97109">
        <ele>147.8</ele>
        <time>2024-04-06T13:20:38.847Z</time>
      </trkpt>
      <trkpt lat="43.86762" lon="3.97112">
        <ele>147.9</ele>
        <time>2024-04-06T13:20:39.718Z</time>
      </trkpt>
      <trkpt lat="43.86762" lon="3.97115">
        <ele>147.9</ele>
        <time>2024-04-06T13:20:40.410Z</time>
      </trkpt>
      <trkpt lat="43.86761" lon="3.97118">
        <ele>147.9</ele>
        <time>2024-04-06T13:20:41.172Z</time>
      </trkpt>
      <trkpt lat="43.86761" lon="3.97122">
        <ele>148</ele>
        <time>2024-04-06T13:20:42.201Z</time>
      </trkpt>
      <trkpt lat="43.86761" lon="3.97125">
        <ele>148.1</ele>
        <time>2024-04-06T13:20:43.002Z</time>
      </trkpt>
      <trkpt lat="43.86761" lon="3.97128">
        <ele>148.2</ele>
        <time>2024-04-06T13:20:43.804Z</time>
      </trkpt>
      <trkpt lat="43.86762" lon="3.97131">
        <ele>148.3</ele>
        <time>2024-04-06T13:20:44.674Z</time>
      </trkpt>
      <trkpt lat="43.86763" lon="3.97134">
        <ele>148.4</ele>
        <time>2024-04-06T13:20:45.545Z</time>
      </trkpt>
      <trkpt lat="43.86764" lon="3.97136">
        <ele>148.5</ele>
        <time>2024-04-06T13:20:46.218Z</time>
      </trkpt>
      <trkpt lat="43.86765" lon="3.97139">
        <ele>148.5</ele>
        <time>2024-04-06T13:20:46.981Z</time>
      </trkpt>
      <trkpt lat="43.86766" lon="3.97141">
        <ele>148.6</ele>
        <time>2024-04-06T13:20:47.654Z</time>
      </trkpt>
      <trkpt lat="43.86766" lon="3.97144">
        <ele>148.6</ele>
        <time>2024-04-06T13:20:48.346Z</time>
      </trkpt>
      <trkpt lat="43.86765" lon="3.97146">
        <ele>148.5</ele>
        <time>2024-04-06T13:20:48.837Z</time>
      </trkpt>
      <trkpt lat="43.86763" lon="3.97148">
        <ele>148.5</ele>
        <time>2024-04-06T13:20:49.626Z</time>
      </trkpt>
      <trkpt lat="43.86762" lon="3.97151">
        <ele>148.4</ele>
        <time>2024-04-06T13:20:50.299Z</time>
      </trkpt>
      <trkpt lat="43.86762" lon="3.97153">
        <ele>148.4</ele>
        <time>2024-04-06T13:20:50.760Z</time>
      </trkpt>
      <trkpt lat="43.86762" lon="3.97156">
        <ele>148.4</ele>
        <time>2024-04-06T13:20:51.452Z</time>
      </trkpt>
      <trkpt lat="43.86763" lon="3.97159">
        <ele>148.5</ele>
        <time>2024-04-06T13:20:52.323Z</time>
      </trkpt>
      <trkpt lat="43.86763" lon="3.97162">
        <ele>148.5</ele>
        <time>2024-04-06T13:20:53.015Z</time>
      </trkpt>
      <trkpt lat="43.86764" lon="3.97164">
        <ele>148.5</ele>
        <time>2024-04-06T13:20:53.576Z</time>
      </trkpt>
      <trkpt lat="43.86764" lon="3.97167">
        <ele>148.5</ele>
        <time>2024-04-06T13:20:54.268Z</time>
      </trkpt>
      <trkpt lat="43.86765" lon="3.97169">
        <ele>148.5</ele>
        <time>2024-04-06T13:20:54.830Z</time>
      </trkpt>
      <trkpt lat="43.86766" lon="3.97172">
        <ele>148.6</ele>
        <time>2024-04-06T13:20:55.700Z</time>
      </trkpt>
      <trkpt lat="43.86766" lon="3.97175">
        <ele>148.6</ele>
        <time>2024-04-06T13:20:56.392Z</time>
      </trkpt>
      <trkpt lat="43.86765" lon="3.97178">
        <ele>148.5</ele>
        <time>2024-04-06T13:20:57.064Z</time>
      </trkpt>
      <trkpt lat="43.86764" lon="3.97182">
        <ele>148.5</ele>
        <time>2024-04-06T13:20:58.041Z</time>
      </trkpt>
      <trkpt lat="43.86762" lon="3.97185">
        <ele>148.4</ele>
        <time>2024-04-06T13:20:58.892Z</time>
      </trkpt>
      <trkpt lat="43.86761" lon="3.97188">
        <ele>148.4</ele>
        <time>2024-04-06T13:20:59.654Z</time>
      </trkpt>
      <trkpt lat="43.8676" lon="3.97192">
        <ele>148.4</ele>
        <time>2024-04-06T13:21:00.631Z</time>
      </trkpt>
      <trkpt lat="43.86759" lon="3.97195">
        <ele>148.3</ele>
        <time>2024-04-06T13:21:01.303Z</time>
      </trkpt>
      <trkpt lat="43.86757" lon="3.97198">
        <ele>148.2</ele>
        <time>2024-04-06T13:21:02.154Z</time>
      </trkpt>
      <trkpt lat="43.86755" lon="3.97201">
        <ele>148.1</ele>
        <time>2024-04-06T13:21:03.005Z</time>
      </trkpt>
      <trkpt lat="43.86753" lon="3.97206">
        <ele>148.1</ele>
        <time>2024-04-06T13:21:04.324Z</time>
      </trkpt>
      <trkpt lat="43.8675" lon="3.97212">
        <ele>148</ele>
        <time>2024-04-06T13:21:05.914Z</time>
      </trkpt>
      <trkpt lat="43.86748" lon="3.97218">
        <ele>147.8</ele>
        <time>2024-04-06T13:21:07.258Z</time>
      </trkpt>
      <trkpt lat="43.86745" lon="3.97225">
        <ele>147.6</ele>
        <time>2024-04-06T13:21:08.954Z</time>
      </trkpt>
      <trkpt lat="43.86744" lon="3.97232">
        <ele>147.4</ele>
        <time>2024-04-06T13:21:10.418Z</time>
      </trkpt>
      <trkpt lat="43.86745" lon="3.97237">
        <ele>147.3</ele>
        <time>2024-04-06T13:21:11.522Z</time>
      </trkpt>
      <trkpt lat="43.86747" lon="3.97241">
        <ele>147.3</ele>
        <time>2024-04-06T13:21:12.645Z</time>
      </trkpt>
      <trkpt lat="43.86748" lon="3.97247">
        <ele>147.1</ele>
        <time>2024-04-06T13:21:13.888Z</time>
      </trkpt>
      <trkpt lat="43.86749" lon="3.97254">
        <ele>146.9</ele>
        <time>2024-04-06T13:21:15.353Z</time>
      </trkpt>
      <trkpt lat="43.86751" lon="3.9726">
        <ele>146.6</ele>
        <time>2024-04-06T13:21:16.687Z</time>
      </trkpt>
      <trkpt lat="43.86753" lon="3.97267">
        <ele>146.2</ele>
        <time>2024-04-06T13:21:18.207Z</time>
      </trkpt>
      <trkpt lat="43.86755" lon="3.97274">
        <ele>145.8</ele>
        <time>2024-04-06T13:21:19.727Z</time>
      </trkpt>
      <trkpt lat="43.86755" lon="3.97281">
        <ele>145.4</ele>
        <time>2024-04-06T13:21:21.140Z</time>
      </trkpt>
      <trkpt lat="43.86755" lon="3.97288">
        <ele>144.9</ele>
        <time>2024-04-06T13:21:22.553Z</time>
      </trkpt>
      <trkpt lat="43.86755" lon="3.97295">
        <ele>144.4</ele>
        <time>2024-04-06T13:21:23.966Z</time>
      </trkpt>
      <trkpt lat="43.86754" lon="3.97303">
        <ele>143.9</ele>
        <time>2024-04-06T13:21:25.604Z</time>
      </trkpt>
      <trkpt lat="43.86754" lon="3.97311">
        <ele>143.3</ele>
        <time>2024-04-06T13:21:27.219Z</time>
      </trkpt>
      <trkpt lat="43.86754" lon="3.9732">
        <ele>142.7</ele>
        <time>2024-04-06T13:21:29.036Z</time>
      </trkpt>
      <trkpt lat="43.86754" lon="3.97328">
        <ele>142.1</ele>
        <time>2024-04-06T13:21:30.651Z</time>
      </trkpt>
      <trkpt lat="43.86753" lon="3.97337">
        <ele>141.4</ele>
        <time>2024-04-06T13:21:32.489Z</time>
      </trkpt>
      <trkpt lat="43.86754" lon="3.97346">
        <ele>140.4</ele>
        <time>2024-04-06T13:21:34.327Z</time>
      </trkpt>
      <trkpt lat="43.86756" lon="3.97353">
        <ele>139.6</ele>
        <time>2024-04-06T13:21:35.847Z</time>
      </trkpt>
      <trkpt lat="43.86759" lon="3.9736">
        <ele>138.8</ele>
        <time>2024-04-06T13:21:37.490Z</time>
      </trkpt>
      <trkpt lat="43.86762" lon="3.97367">
        <ele>138.1</ele>
        <time>2024-04-06T13:21:39.134Z</time>
      </trkpt>
      <trkpt lat="43.86764" lon="3.97375">
        <ele>137.5</ele>
        <time>2024-04-06T13:21:40.843Z</time>
      </trkpt>
      <trkpt lat="43.86765" lon="3.97383">
        <ele>136.9</ele>
        <time>2024-04-06T13:21:42.482Z</time>
      </trkpt>
      <trkpt lat="43.86767" lon="3.97389">
        <ele>136.4</ele>
        <time>2024-04-06T13:21:43.816Z</time>
      </trkpt>
      <trkpt lat="43.86767" lon="3.97396">
        <ele>136</ele>
        <time>2024-04-06T13:21:45.229Z</time>
      </trkpt>
      <trkpt lat="43.86766" lon="3.97403">
        <ele>135.7</ele>
        <time>2024-04-06T13:21:46.670Z</time>
      </trkpt>
      <trkpt lat="43.86765" lon="3.97411">
        <ele>135.3</ele>
        <time>2024-04-06T13:21:48.309Z</time>
      </trkpt>
      <trkpt lat="43.86765" lon="3.97418">
        <ele>134.9</ele>
        <time>2024-04-06T13:21:49.721Z</time>
      </trkpt>
      <trkpt lat="43.86765" lon="3.97425">
        <ele>134.3</ele>
        <time>2024-04-06T13:21:51.134Z</time>
      </trkpt>
      <trkpt lat="43.86767" lon="3.97432">
        <ele>133.7</ele>
        <time>2024-04-06T13:21:52.654Z</time>
      </trkpt>
      <trkpt lat="43.8677" lon="3.97438">
        <ele>133.2</ele>
        <time>2024-04-06T13:21:54.128Z</time>
      </trkpt>
      <trkpt lat="43.86774" lon="3.97442">
        <ele>133.1</ele>
        <time>2024-04-06T13:21:55.612Z</time>
      </trkpt>
      <trkpt lat="43.86779" lon="3.97447">
        <ele>132.7</ele>
        <time>2024-04-06T13:21:57.337Z</time>
      </trkpt>
      <trkpt lat="43.86783" lon="3.97452">
        <ele>132</ele>
        <time>2024-04-06T13:21:58.845Z</time>
      </trkpt>
      <trkpt lat="43.86787" lon="3.97457">
        <ele>131.5</ele>
        <time>2024-04-06T13:22:00.352Z</time>
      </trkpt>
      <trkpt lat="43.8679" lon="3.97462">
        <ele>130.9</ele>
        <time>2024-04-06T13:22:01.665Z</time>
      </trkpt>
      <trkpt lat="43.86793" lon="3.97464">
        <ele>130.7</ele>
        <time>2024-04-06T13:22:02.597Z</time>
      </trkpt>
      <trkpt lat="43.86797" lon="3.97465">
        <ele>130.6</ele>
        <time>2024-04-06T13:22:03.804Z</time>
      </trkpt>
      <trkpt lat="43.86801" lon="3.97466">
        <ele>130.5</ele>
        <time>2024-04-06T13:22:05.011Z</time>
      </trkpt>
      <trkpt lat="43.86806" lon="3.97467">
        <ele>130.3</ele>
        <time>2024-04-06T13:22:06.447Z</time>
      </trkpt>
      <trkpt lat="43.8681" lon="3.97469">
        <ele>129.7</ele>
        <time>2024-04-06T13:22:07.637Z</time>
      </trkpt>
      <trkpt lat="43.86814" lon="3.97471">
        <ele>129.1</ele>
        <time>2024-04-06T13:22:08.827Z</time>
      </trkpt>
      <trkpt lat="43.86818" lon="3.97475">
        <ele>128.5</ele>
        <time>2024-04-06T13:22:10.208Z</time>
      </trkpt>
      <trkpt lat="43.86822" lon="3.9748">
        <ele>127.7</ele>
        <time>2024-04-06T13:22:11.716Z</time>
      </trkpt>
      <trkpt lat="43.86825" lon="3.97483">
        <ele>127.1</ele>
        <time>2024-04-06T13:22:12.751Z</time>
      </trkpt>
      <trkpt lat="43.86828" lon="3.97485">
        <ele>126.7</ele>
        <time>2024-04-06T13:22:13.683Z</time>
      </trkpt>
      <trkpt lat="43.86832" lon="3.97487">
        <ele>126.1</ele>
        <time>2024-04-06T13:22:14.873Z</time>
      </trkpt>
      <trkpt lat="43.86836" lon="3.9749">
        <ele>125.3</ele>
        <time>2024-04-06T13:22:16.147Z</time>
      </trkpt>
      <trkpt lat="43.86839" lon="3.97492">
        <ele>124.7</ele>
        <time>2024-04-06T13:22:17.078Z</time>
      </trkpt>
      <trkpt lat="43.86842" lon="3.97495">
        <ele>124.1</ele>
        <time>2024-04-06T13:22:18.114Z</time>
      </trkpt>
      <trkpt lat="43.86843" lon="3.97498">
        <ele>123.7</ele>
        <time>2024-04-06T13:22:18.781Z</time>
      </trkpt>
      <trkpt lat="43.86843" lon="3.97503">
        <ele>123.5</ele>
        <time>2024-04-06T13:22:19.790Z</time>
      </trkpt>
      <trkpt lat="43.86842" lon="3.97507">
        <ele>123.5</ele>
        <time>2024-04-06T13:22:20.767Z</time>
      </trkpt>
      <trkpt lat="43.8684" lon="3.97512">
        <ele>123.6</ele>
        <time>2024-04-06T13:22:22.190Z</time>
      </trkpt>
      <trkpt lat="43.86838" lon="3.97516">
        <ele>123.8</ele>
        <time>2024-04-06T13:22:23.537Z</time>
      </trkpt>
      <trkpt lat="43.86835" lon="3.9752">
        <ele>124</ele>
        <time>2024-04-06T13:22:25.087Z</time>
      </trkpt>
      <trkpt lat="43.86833" lon="3.97523">
        <ele>124.2</ele>
        <time>2024-04-06T13:22:26.260Z</time>
      </trkpt>
      <trkpt lat="43.86832" lon="3.97527">
        <ele>124.1</ele>
        <time>2024-04-06T13:22:27.144Z</time>
      </trkpt>
      <trkpt lat="43.86831" lon="3.97533">
        <ele>123.8</ele>
        <time>2024-04-06T13:22:28.387Z</time>
      </trkpt>
      <trkpt lat="43.8683" lon="3.97538">
        <ele>123.5</ele>
        <time>2024-04-06T13:22:29.435Z</time>
      </trkpt>
      <trkpt lat="43.8683" lon="3.97543">
        <ele>123.2</ele>
        <time>2024-04-06T13:22:30.444Z</time>
      </trkpt>
      <trkpt lat="43.86833" lon="3.97546">
        <ele>122.7</ele>
        <time>2024-04-06T13:22:31.479Z</time>
      </trkpt>
      <trkpt lat="43.86835" lon="3.9755">
        <ele>122.2</ele>
        <time>2024-04-06T13:22:32.462Z</time>
      </trkpt>
      <trkpt lat="43.86835" lon="3.97555">
        <ele>121.8</ele>
        <time>2024-04-06T13:22:33.471Z</time>
      </trkpt>
      <trkpt lat="43.86832" lon="3.97558">
        <ele>122.1</ele>
        <time>2024-04-06T13:22:35.010Z</time>
      </trkpt>
      <trkpt lat="43.86829" lon="3.9756">
        <ele>122.3</ele>
        <time>2024-04-06T13:22:36.301Z</time>
      </trkpt>
      <trkpt lat="43.86825" lon="3.9756">
        <ele>122.7</ele>
        <time>2024-04-06T13:22:38.077Z</time>
      </trkpt>
      <trkpt lat="43.86822" lon="3.9756">
        <ele>123.1</ele>
        <time>2024-04-06T13:22:39.578Z</time>
      </trkpt>
      <trkpt lat="43.86819" lon="3.9756">
        <ele>123.4</ele>
        <time>2024-04-06T13:22:40.910Z</time>
      </trkpt>
      <trkpt lat="43.86816" lon="3.97561">
        <ele>123.7</ele>
        <time>2024-04-06T13:22:42.267Z</time>
      </trkpt>
      <trkpt lat="43.86814" lon="3.97564">
        <ele>123.8</ele>
        <time>2024-04-06T13:22:43.316Z</time>
      </trkpt>
      <trkpt lat="43.86813" lon="3.97567">
        <ele>123.8</ele>
        <time>2024-04-06T13:22:44.078Z</time>
      </trkpt>
      <trkpt lat="43.86812" lon="3.97572">
        <ele>123.7</ele>
        <time>2024-04-06T13:22:45.182Z</time>
      </trkpt>
      <trkpt lat="43.86811" lon="3.97577">
        <ele>123.6</ele>
        <time>2024-04-06T13:22:46.286Z</time>
      </trkpt>
      <trkpt lat="43.8681" lon="3.97581">
        <ele>123.6</ele>
        <time>2024-04-06T13:22:47.263Z</time>
      </trkpt>
      <trkpt lat="43.86809" lon="3.97586">
        <ele>123.5</ele>
        <time>2024-04-06T13:22:48.367Z</time>
      </trkpt>
      <trkpt lat="43.86806" lon="3.9759">
        <ele>123.7</ele>
        <time>2024-04-06T13:22:49.918Z</time>
      </trkpt>
      <trkpt lat="43.86802" lon="3.97591">
        <ele>123.6</ele>
        <time>2024-04-06T13:22:51.125Z</time>
      </trkpt>
      <trkpt lat="43.868" lon="3.97592">
        <ele>123.5</ele>
        <time>2024-04-06T13:22:51.720Z</time>
      </trkpt>
      <trkpt lat="43.86798" lon="3.97594">
        <ele>123.3</ele>
        <time>2024-04-06T13:22:52.410Z</time>
      </trkpt>
      <trkpt lat="43.86795" lon="3.97597">
        <ele>123.1</ele>
        <time>2024-04-06T13:22:53.446Z</time>
      </trkpt>
      <trkpt lat="43.86793" lon="3.97601">
        <ele>122.9</ele>
        <time>2024-04-06T13:22:54.428Z</time>
      </trkpt>
      <trkpt lat="43.86792" lon="3.97603">
        <ele>122.8</ele>
        <time>2024-04-06T13:22:54.919Z</time>
      </trkpt>
      <trkpt lat="43.86793" lon="3.97606">
        <ele>122.7</ele>
        <time>2024-04-06T13:22:55.592Z</time>
      </trkpt>
      <trkpt lat="43.86796" lon="3.97609">
        <ele>122.7</ele>
        <time>2024-04-06T13:22:56.775Z</time>
      </trkpt>
      <trkpt lat="43.86799" lon="3.97612">
        <ele>122.7</ele>
        <time>2024-04-06T13:22:57.958Z</time>
      </trkpt>
      <trkpt lat="43.86801" lon="3.97616">
        <ele>122.7</ele>
        <time>2024-04-06T13:22:59.081Z</time>
      </trkpt>
      <trkpt lat="43.86802" lon="3.97621">
        <ele>122.5</ele>
        <time>2024-04-06T13:23:00.129Z</time>
      </trkpt>
      <trkpt lat="43.86803" lon="3.97626">
        <ele>122.4</ele>
        <time>2024-04-06T13:23:01.233Z</time>
      </trkpt>
      <trkpt lat="43.86803" lon="3.9763">
        <ele>122.2</ele>
        <time>2024-04-06T13:23:02.040Z</time>
      </trkpt>
      <trkpt lat="43.86803" lon="3.97634">
        <ele>122.1</ele>
        <time>2024-04-06T13:23:02.871Z</time>
      </trkpt>
      <trkpt lat="43.86803" lon="3.97638">
        <ele>121.9</ele>
        <time>2024-04-06T13:23:03.678Z</time>
      </trkpt>
      <trkpt lat="43.86805" lon="3.97643">
        <ele>121.8</ele>
        <time>2024-04-06T13:23:04.904Z</time>
      </trkpt>
      <trkpt lat="43.86807" lon="3.97648">
        <ele>121.5</ele>
        <time>2024-04-06T13:23:06.058Z</time>
      </trkpt>
      <trkpt lat="43.86809" lon="3.97652">
        <ele>121.1</ele>
        <time>2024-04-06T13:23:07.041Z</time>
      </trkpt>
      <trkpt lat="43.86813" lon="3.97656">
        <ele>120.5</ele>
        <time>2024-04-06T13:23:08.421Z</time>
      </trkpt>
      <trkpt lat="43.86816" lon="3.97658">
        <ele>120.1</ele>
        <time>2024-04-06T13:23:09.353Z</time>
      </trkpt>
      <trkpt lat="43.86819" lon="3.97657">
        <ele>119.7</ele>
        <time>2024-04-06T13:23:10.217Z</time>
      </trkpt>
      <trkpt lat="43.86821" lon="3.97655">
        <ele>119.5</ele>
        <time>2024-04-06T13:23:10.907Z</time>
      </trkpt>
      <trkpt lat="43.86821" lon="3.97653">
        <ele>119.6</ele>
        <time>2024-04-06T13:23:11.484Z</time>
      </trkpt>
      <trkpt lat="43.86824" lon="3.97659">
        <ele>119.1</ele>
        <time>2024-04-06T13:23:12.958Z</time>
      </trkpt>
      <trkpt lat="43.86826" lon="3.97664">
        <ele>118.8</ele>
        <time>2024-04-06T13:23:14.112Z</time>
      </trkpt>
      <trkpt lat="43.86828" lon="3.97666">
        <ele>118.6</ele>
        <time>2024-04-06T13:23:14.802Z</time>
      </trkpt>
      <trkpt lat="43.86831" lon="3.97668">
        <ele>118.2</ele>
        <time>2024-04-06T13:23:15.734Z</time>
      </trkpt>
      <trkpt lat="43.86834" lon="3.9767">
        <ele>117.8</ele>
        <time>2024-04-06T13:23:16.666Z</time>
      </trkpt>
      <trkpt lat="43.86837" lon="3.97672">
        <ele>117.2</ele>
        <time>2024-04-06T13:23:17.598Z</time>
      </trkpt>
      <trkpt lat="43.86841" lon="3.97672">
        <ele>116.5</ele>
        <time>2024-04-06T13:23:18.718Z</time>
      </trkpt>
      <trkpt lat="43.86844" lon="3.97671">
        <ele>116</ele>
        <time>2024-04-06T13:23:19.582Z</time>
      </trkpt>
      <trkpt lat="43.86847" lon="3.97672">
        <ele>115.5</ele>
        <time>2024-04-06T13:23:20.446Z</time>
      </trkpt>
      <trkpt lat="43.8685" lon="3.97674">
        <ele>115.1</ele>
        <time>2024-04-06T13:23:21.377Z</time>
      </trkpt>
      <trkpt lat="43.86851" lon="3.97678">
        <ele>114.9</ele>
        <time>2024-04-06T13:23:22.232Z</time>
      </trkpt>
      <trkpt lat="43.86852" lon="3.97682">
        <ele>114.8</ele>
        <time>2024-04-06T13:23:23.117Z</time>
      </trkpt>
      <trkpt lat="43.86852" lon="3.97686">
        <ele>114.9</ele>
        <time>2024-04-06T13:23:24.146Z</time>
      </trkpt>
      <trkpt lat="43.86852" lon="3.9769">
        <ele>114.9</ele>
        <time>2024-04-06T13:23:25.068Z</time>
      </trkpt>
      <trkpt lat="43.86852" lon="3.97694">
        <ele>115</ele>
        <time>2024-04-06T13:23:26.098Z</time>
      </trkpt>
      <trkpt lat="43.86852" lon="3.97698">
        <ele>115</ele>
        <time>2024-04-06T13:23:27.020Z</time>
      </trkpt>
      <trkpt lat="43.86853" lon="3.97702">
        <ele>114.9</ele>
        <time>2024-04-06T13:23:27.905Z</time>
      </trkpt>
      <trkpt lat="43.86853" lon="3.97706">
        <ele>114.9</ele>
        <time>2024-04-06T13:23:28.828Z</time>
      </trkpt>
      <trkpt lat="43.86852" lon="3.97709">
        <ele>115</ele>
        <time>2024-04-06T13:23:29.698Z</time>
      </trkpt>
      <trkpt lat="43.8685" lon="3.97712">
        <ele>115.2</ele>
        <time>2024-04-06T13:23:30.871Z</time>
      </trkpt>
      <trkpt lat="43.86849" lon="3.97715">
        <ele>115.3</ele>
        <time>2024-04-06T13:23:31.741Z</time>
      </trkpt>
      <trkpt lat="43.86849" lon="3.97718">
        <ele>115.3</ele>
        <time>2024-04-06T13:23:32.433Z</time>
      </trkpt>
      <trkpt lat="43.86853" lon="3.97721">
        <ele>114.9</ele>
        <time>2024-04-06T13:23:33.706Z</time>
      </trkpt>
      <trkpt lat="43.86854" lon="3.97723">
        <ele>114.7</ele>
        <time>2024-04-06T13:23:34.198Z</time>
      </trkpt>
      <trkpt lat="43.86854" lon="3.97727">
        <ele>114.4</ele>
        <time>2024-04-06T13:23:35.005Z</time>
      </trkpt>
      <trkpt lat="43.86854" lon="3.97731">
        <ele>114.1</ele>
        <time>2024-04-06T13:23:35.812Z</time>
      </trkpt>
      <trkpt lat="43.86854" lon="3.97735">
        <ele>113.8</ele>
        <time>2024-04-06T13:23:36.620Z</time>
      </trkpt>
      <trkpt lat="43.86853" lon="3.97739">
        <ele>113.7</ele>
        <time>2024-04-06T13:23:37.504Z</time>
      </trkpt>
      <trkpt lat="43.86852" lon="3.97744">
        <ele>113.4</ele>
        <time>2024-04-06T13:23:38.552Z</time>
      </trkpt>
      <trkpt lat="43.86851" lon="3.97748">
        <ele>113.2</ele>
        <time>2024-04-06T13:23:39.406Z</time>
      </trkpt>
      <trkpt lat="43.86849" lon="3.97752">
        <ele>113.2</ele>
        <time>2024-04-06T13:23:40.529Z</time>
      </trkpt>
      <trkpt lat="43.86847" lon="3.97754">
        <ele>113.3</ele>
        <time>2024-04-06T13:23:41.426Z</time>
      </trkpt>
      <trkpt lat="43.86844" lon="3.97755">
        <ele>113.6</ele>
        <time>2024-04-06T13:23:42.783Z</time>
      </trkpt>
      <trkpt lat="43.86842" lon="3.97755">
        <ele>113.8</ele>
        <time>2024-04-06T13:23:43.671Z</time>
      </trkpt>
      <trkpt lat="43.86838" lon="3.97755">
        <ele>114.3</ele>
        <time>2024-04-06T13:23:45.612Z</time>
      </trkpt>
      <trkpt lat="43.86835" lon="3.97753">
        <ele>114.7</ele>
        <time>2024-04-06T13:23:47.200Z</time>
      </trkpt>
      <trkpt lat="43.86833" lon="3.97752">
        <ele>114.9</ele>
        <time>2024-04-06T13:23:48.125Z</time>
      </trkpt>
      <trkpt lat="43.8683" lon="3.97751">
        <ele>115.1</ele>
        <time>2024-04-06T13:23:49.340Z</time>
      </trkpt>
      <trkpt lat="43.86828" lon="3.97754">
        <ele>115.1</ele>
        <time>2024-04-06T13:23:50.283Z</time>
      </trkpt>
      <trkpt lat="43.86827" lon="3.97757">
        <ele>115</ele>
        <time>2024-04-06T13:23:50.955Z</time>
      </trkpt>
      <trkpt lat="43.86829" lon="3.97758">
        <ele>114.9</ele>
        <time>2024-04-06T13:23:51.550Z</time>
      </trkpt>
      <trkpt lat="43.8683" lon="3.97763">
        <ele>114.7</ele>
        <time>2024-04-06T13:23:52.597Z</time>
      </trkpt>
      <trkpt lat="43.8683" lon="3.97767">
        <ele>114.6</ele>
        <time>2024-04-06T13:23:53.429Z</time>
      </trkpt>
      <trkpt lat="43.8683" lon="3.97771">
        <ele>114.5</ele>
        <time>2024-04-06T13:23:54.260Z</time>
      </trkpt>
      <trkpt lat="43.86829" lon="3.97775">
        <ele>114.4</ele>
        <time>2024-04-06T13:23:55.145Z</time>
      </trkpt>
      <trkpt lat="43.86829" lon="3.97779">
        <ele>114.3</ele>
        <time>2024-04-06T13:23:55.976Z</time>
      </trkpt>
      <trkpt lat="43.86829" lon="3.9778">
        <ele>114.3</ele>
        <time>2024-04-06T13:23:56.206Z</time>
      </trkpt>
      <trkpt lat="43.86833" lon="3.97787">
        <ele>114</ele>
        <time>2024-04-06T13:23:58.009Z</time>
      </trkpt>
      <trkpt lat="43.86834" lon="3.97789">
        <ele>113.9</ele>
        <time>2024-04-06T13:23:58.501Z</time>
      </trkpt>
      <trkpt lat="43.86836" lon="3.9779">
        <ele>113.6</ele>
        <time>2024-04-06T13:23:59.096Z</time>
      </trkpt>
      <trkpt lat="43.86838" lon="3.97792">
        <ele>113.2</ele>
        <time>2024-04-06T13:23:59.786Z</time>
      </trkpt>
      <trkpt lat="43.86838" lon="3.97791">
        <ele>113.2</ele>
        <time>2024-04-06T13:24:00.017Z</time>
      </trkpt>
      <trkpt lat="43.86844" lon="3.97799">
        <ele>112.2</ele>
        <time>2024-04-06T13:24:02.347Z</time>
      </trkpt>
      <trkpt lat="43.86845" lon="3.97802">
        <ele>112</ele>
        <time>2024-04-06T13:24:03.014Z</time>
      </trkpt>
      <trkpt lat="43.86845" lon="3.97806">
        <ele>111.9</ele>
        <time>2024-04-06T13:24:03.845Z</time>
      </trkpt>
      <trkpt lat="43.86844" lon="3.97809">
        <ele>112.1</ele>
        <time>2024-04-06T13:24:04.846Z</time>
      </trkpt>
      <trkpt lat="43.86844" lon="3.97812">
        <ele>112</ele>
        <time>2024-04-06T13:24:05.452Z</time>
      </trkpt>
      <trkpt lat="43.86843" lon="3.97817">
        <ele>112.1</ele>
        <time>2024-04-06T13:24:06.753Z</time>
      </trkpt>
      <trkpt lat="43.86844" lon="3.97821">
        <ele>112</ele>
        <time>2024-04-06T13:24:07.638Z</time>
      </trkpt>
      <trkpt lat="43.86845" lon="3.97825">
        <ele>111.8</ele>
        <time>2024-04-06T13:24:08.493Z</time>
      </trkpt>
      <trkpt lat="43.86847" lon="3.97827">
        <ele>111.5</ele>
        <time>2024-04-06T13:24:09.183Z</time>
      </trkpt>
      <trkpt lat="43.8685" lon="3.97826">
        <ele>111.1</ele>
        <time>2024-04-06T13:24:10.047Z</time>
      </trkpt>
      <trkpt lat="43.86853" lon="3.97825">
        <ele>110.8</ele>
        <time>2024-04-06T13:24:10.911Z</time>
      </trkpt>
      <trkpt lat="43.86855" lon="3.97826">
        <ele>110.5</ele>
        <time>2024-04-06T13:24:11.506Z</time>
      </trkpt>
      <trkpt lat="43.86856" lon="3.97828">
        <ele>110.4</ele>
        <time>2024-04-06T13:24:11.997Z</time>
      </trkpt>
      <trkpt lat="43.86857" lon="3.97832">
        <ele>110.4</ele>
        <time>2024-04-06T13:24:12.974Z</time>
      </trkpt>
      <trkpt lat="43.86859" lon="3.97833">
        <ele>110.2</ele>
        <time>2024-04-06T13:24:13.569Z</time>
      </trkpt>
      <trkpt lat="43.8686" lon="3.97836">
        <ele>110.1</ele>
        <time>2024-04-06T13:24:14.241Z</time>
      </trkpt>
      <trkpt lat="43.86861" lon="3.9784">
        <ele>110</ele>
        <time>2024-04-06T13:24:15.126Z</time>
      </trkpt>
      <trkpt lat="43.8686" lon="3.97843">
        <ele>110.1</ele>
        <time>2024-04-06T13:24:15.996Z</time>
      </trkpt>
      <trkpt lat="43.8686" lon="3.97846">
        <ele>110.1</ele>
        <time>2024-04-06T13:24:16.688Z</time>
      </trkpt>
      <trkpt lat="43.86861" lon="3.97848">
        <ele>110</ele>
        <time>2024-04-06T13:24:17.180Z</time>
      </trkpt>
      <trkpt lat="43.86862" lon="3.97851">
        <ele>109.8</ele>
        <time>2024-04-06T13:24:17.847Z</time>
      </trkpt>
      <trkpt lat="43.86863" lon="3.97855">
        <ele>109.7</ele>
        <time>2024-04-06T13:24:18.731Z</time>
      </trkpt>
      <trkpt lat="43.86863" lon="3.97857">
        <ele>109.7</ele>
        <time>2024-04-06T13:24:19.193Z</time>
      </trkpt>
      <trkpt lat="43.86861" lon="3.97861">
        <ele>110</ele>
        <time>2024-04-06T13:24:20.675Z</time>
      </trkpt>
      <trkpt lat="43.86859" lon="3.97862">
        <ele>110.2</ele>
        <time>2024-04-06T13:24:21.600Z</time>
      </trkpt>
      <trkpt lat="43.86859" lon="3.97867">
        <ele>110.2</ele>
        <time>2024-04-06T13:24:22.754Z</time>
      </trkpt>
      <trkpt lat="43.86859" lon="3.9787">
        <ele>110.2</ele>
        <time>2024-04-06T13:24:23.446Z</time>
      </trkpt>
      <trkpt lat="43.8686" lon="3.97872">
        <ele>110.1</ele>
        <time>2024-04-06T13:24:23.937Z</time>
      </trkpt>
      <trkpt lat="43.86861" lon="3.97875">
        <ele>110</ele>
        <time>2024-04-06T13:24:24.609Z</time>
      </trkpt>
      <trkpt lat="43.86862" lon="3.97878">
        <ele>109.9</ele>
        <time>2024-04-06T13:24:25.281Z</time>
      </trkpt>
      <trkpt lat="43.86863" lon="3.97881">
        <ele>109.8</ele>
        <time>2024-04-06T13:24:25.954Z</time>
      </trkpt>
      <trkpt lat="43.86865" lon="3.97884">
        <ele>109.6</ele>
        <time>2024-04-06T13:24:26.778Z</time>
      </trkpt>
      <trkpt lat="43.86867" lon="3.97887">
        <ele>109.5</ele>
        <time>2024-04-06T13:24:27.629Z</time>
      </trkpt>
      <trkpt lat="43.86869" lon="3.9789">
        <ele>109.4</ele>
        <time>2024-04-06T13:24:28.480Z</time>
      </trkpt>
      <trkpt lat="43.8687" lon="3.97894">
        <ele>109.4</ele>
        <time>2024-04-06T13:24:29.457Z</time>
      </trkpt>
      <trkpt lat="43.86871" lon="3.97898">
        <ele>109.4</ele>
        <time>2024-04-06T13:24:30.433Z</time>
      </trkpt>
      <trkpt lat="43.86872" lon="3.97901">
        <ele>109.4</ele>
        <time>2024-04-06T13:24:31.196Z</time>
      </trkpt>
      <trkpt lat="43.86874" lon="3.97903">
        <ele>109.3</ele>
        <time>2024-04-06T13:24:31.894Z</time>
      </trkpt>
      <trkpt lat="43.86876" lon="3.97905">
        <ele>109.2</ele>
        <time>2024-04-06T13:24:32.593Z</time>
      </trkpt>
      <trkpt lat="43.86877" lon="3.97908">
        <ele>109.2</ele>
        <time>2024-04-06T13:24:33.355Z</time>
      </trkpt>
      <trkpt lat="43.86878" lon="3.9791">
        <ele>109.2</ele>
        <time>2024-04-06T13:24:33.917Z</time>
      </trkpt>
      <trkpt lat="43.86879" lon="3.97913">
        <ele>109.3</ele>
        <time>2024-04-06T13:24:34.787Z</time>
      </trkpt>
      <trkpt lat="43.86879" lon="3.97916">
        <ele>109.3</ele>
        <time>2024-04-06T13:24:35.479Z</time>
      </trkpt>
      <trkpt lat="43.86879" lon="3.97919">
        <ele>109.4</ele>
        <time>2024-04-06T13:24:36.280Z</time>
      </trkpt>
      <trkpt lat="43.8688" lon="3.97923">
        <ele>109.3</ele>
        <time>2024-04-06T13:24:37.165Z</time>
      </trkpt>
      <trkpt lat="43.86883" lon="3.97926">
        <ele>109.2</ele>
        <time>2024-04-06T13:24:38.255Z</time>
      </trkpt>
      <trkpt lat="43.86884" lon="3.97928">
        <ele>109.2</ele>
        <time>2024-04-06T13:24:38.817Z</time>
      </trkpt>
      <trkpt lat="43.86886" lon="3.97933">
        <ele>109.1</ele>
        <time>2024-04-06T13:24:40.042Z</time>
      </trkpt>
      <trkpt lat="43.86886" lon="3.97937">
        <ele>109.1</ele>
        <time>2024-04-06T13:24:40.965Z</time>
      </trkpt>
      <trkpt lat="43.86886" lon="3.9794">
        <ele>109.1</ele>
        <time>2024-04-06T13:24:41.657Z</time>
      </trkpt>
      <trkpt lat="43.86886" lon="3.97942">
        <ele>109.1</ele>
        <time>2024-04-06T13:24:42.119Z</time>
      </trkpt>
      <trkpt lat="43.86886" lon="3.97945">
        <ele>109.1</ele>
        <time>2024-04-06T13:24:42.811Z</time>
      </trkpt>
      <trkpt lat="43.86885" lon="3.97948">
        <ele>109.1</ele>
        <time>2024-04-06T13:24:43.573Z</time>
      </trkpt>
      <trkpt lat="43.86884" lon="3.9795">
        <ele>109.1</ele>
        <time>2024-04-06T13:24:44.134Z</time>
      </trkpt>
      <trkpt lat="43.86883" lon="3.97953">
        <ele>109.1</ele>
        <time>2024-04-06T13:24:44.897Z</time>
      </trkpt>
      <trkpt lat="43.86883" lon="3.97956">
        <ele>109.1</ele>
        <time>2024-04-06T13:24:45.589Z</time>
      </trkpt>
      <trkpt lat="43.86884" lon="3.97959">
        <ele>109.1</ele>
        <time>2024-04-06T13:24:46.351Z</time>
      </trkpt>
      <trkpt lat="43.86885" lon="3.97964">
        <ele>109</ele>
        <time>2024-04-06T13:24:47.455Z</time>
      </trkpt>
      <trkpt lat="43.86883" lon="3.97967">
        <ele>109</ele>
        <time>2024-04-06T13:24:48.398Z</time>
      </trkpt>
      <trkpt lat="43.86883" lon="3.97971">
        <ele>109</ele>
        <time>2024-04-06T13:24:49.320Z</time>
      </trkpt>
      <trkpt lat="43.86884" lon="3.97973">
        <ele>109</ele>
        <time>2024-04-06T13:24:49.882Z</time>
      </trkpt>
      <trkpt lat="43.86887" lon="3.97973">
        <ele>109</ele>
        <time>2024-04-06T13:24:50.842Z</time>
      </trkpt>
      <trkpt lat="43.86889" lon="3.97974">
        <ele>109</ele>
        <time>2024-04-06T13:24:51.522Z</time>
      </trkpt>
      <trkpt lat="43.86893" lon="3.97971">
        <ele>108.7</ele>
        <time>2024-04-06T13:24:52.795Z</time>
      </trkpt>
      <trkpt lat="43.86895" lon="3.97971">
        <ele>108.5</ele>
        <time>2024-04-06T13:24:53.355Z</time>
      </trkpt>
      <trkpt lat="43.86896" lon="3.97972">
        <ele>108.5</ele>
        <time>2024-04-06T13:24:53.750Z</time>
      </trkpt>
      <trkpt lat="43.86899" lon="3.97975">
        <ele>108.3</ele>
        <time>2024-04-06T13:24:54.785Z</time>
      </trkpt>
      <trkpt lat="43.86902" lon="3.97977">
        <ele>108.1</ele>
        <time>2024-04-06T13:24:55.717Z</time>
      </trkpt>
      <trkpt lat="43.86904" lon="3.97979">
        <ele>107.9</ele>
        <time>2024-04-06T13:24:56.407Z</time>
      </trkpt>
      <trkpt lat="43.86906" lon="3.97981">
        <ele>107.8</ele>
        <time>2024-04-06T13:24:57.106Z</time>
      </trkpt>
      <trkpt lat="43.86906" lon="3.97985">
        <ele>107.8</ele>
        <time>2024-04-06T13:24:58.028Z</time>
      </trkpt>
      <trkpt lat="43.86905" lon="3.97989">
        <ele>107.8</ele>
        <time>2024-04-06T13:24:59.005Z</time>
      </trkpt>
      <trkpt lat="43.86906" lon="3.97992">
        <ele>107.8</ele>
        <time>2024-04-06T13:24:59.767Z</time>
      </trkpt>
      <trkpt lat="43.86908" lon="3.97995">
        <ele>107.6</ele>
        <time>2024-04-06T13:25:00.592Z</time>
      </trkpt>
      <trkpt lat="43.8691" lon="3.97999">
        <ele>107.5</ele>
        <time>2024-04-06T13:25:01.622Z</time>
      </trkpt>
      <trkpt lat="43.8691" lon="3.98004">
        <ele>107.4</ele>
        <time>2024-04-06T13:25:02.683Z</time>
      </trkpt>
      <trkpt lat="43.86911" lon="3.98009">
        <ele>107.3</ele>
        <time>2024-04-06T13:25:03.787Z</time>
      </trkpt>
      <trkpt lat="43.86914" lon="3.98011">
        <ele>107.2</ele>
        <time>2024-04-06T13:25:04.759Z</time>
      </trkpt>
      <trkpt lat="43.86917" lon="3.98011">
        <ele>107</ele>
        <time>2024-04-06T13:25:05.599Z</time>
      </trkpt>
      <trkpt lat="43.8692" lon="3.98013">
        <ele>106.8</ele>
        <time>2024-04-06T13:25:06.531Z</time>
      </trkpt>
      <trkpt lat="43.86922" lon="3.98016">
        <ele>106.6</ele>
        <time>2024-04-06T13:25:07.356Z</time>
      </trkpt>
      <trkpt lat="43.86923" lon="3.98021">
        <ele>106.4</ele>
        <time>2024-04-06T13:25:08.403Z</time>
      </trkpt>
      <trkpt lat="43.86924" lon="3.98026">
        <ele>106.2</ele>
        <time>2024-04-06T13:25:09.451Z</time>
      </trkpt>
      <trkpt lat="43.86923" lon="3.98031">
        <ele>106.3</ele>
        <time>2024-04-06T13:25:10.752Z</time>
      </trkpt>
      <trkpt lat="43.86922" lon="3.98034">
        <ele>106.4</ele>
        <time>2024-04-06T13:25:11.623Z</time>
      </trkpt>
      <trkpt lat="43.8692" lon="3.98038">
        <ele>106.6</ele>
        <time>2024-04-06T13:25:12.969Z</time>
      </trkpt>
      <trkpt lat="43.86918" lon="3.98042">
        <ele>106.9</ele>
        <time>2024-04-06T13:25:14.452Z</time>
      </trkpt>
      <trkpt lat="43.86919" lon="3.98045">
        <ele>106.7</ele>
        <time>2024-04-06T13:25:15.119Z</time>
      </trkpt>
      <trkpt lat="43.86922" lon="3.98047">
        <ele>106.4</ele>
        <time>2024-04-06T13:25:16.051Z</time>
      </trkpt>
      <trkpt lat="43.86924" lon="3.98048">
        <ele>106.2</ele>
        <time>2024-04-06T13:25:16.646Z</time>
      </trkpt>
      <trkpt lat="43.86926" lon="3.9805">
        <ele>106</ele>
        <time>2024-04-06T13:25:17.336Z</time>
      </trkpt>
      <trkpt lat="43.86928" lon="3.98053">
        <ele>105.8</ele>
        <time>2024-04-06T13:25:18.161Z</time>
      </trkpt>
      <trkpt lat="43.8693" lon="3.98056">
        <ele>105.6</ele>
        <time>2024-04-06T13:25:18.986Z</time>
      </trkpt>
      <trkpt lat="43.86932" lon="3.98057">
        <ele>105.4</ele>
        <time>2024-04-06T13:25:19.581Z</time>
      </trkpt>
      <trkpt lat="43.86934" lon="3.98056">
        <ele>105.1</ele>
        <time>2024-04-06T13:25:20.176Z</time>
      </trkpt>
      <trkpt lat="43.86937" lon="3.98055">
        <ele>104.8</ele>
        <time>2024-04-06T13:25:21.040Z</time>
      </trkpt>
      <trkpt lat="43.8694" lon="3.98055">
        <ele>104.5</ele>
        <time>2024-04-06T13:25:21.880Z</time>
      </trkpt>
      <trkpt lat="43.86943" lon="3.98055">
        <ele>104.2</ele>
        <time>2024-04-06T13:25:22.720Z</time>
      </trkpt>
      <trkpt lat="43.86947" lon="3.98058">
        <ele>103.8</ele>
        <time>2024-04-06T13:25:23.993Z</time>
      </trkpt>
      <trkpt lat="43.86949" lon="3.9806">
        <ele>103.7</ele>
        <time>2024-04-06T13:25:24.692Z</time>
      </trkpt>
      <trkpt lat="43.8695" lon="3.98062">
        <ele>103.7</ele>
        <time>2024-04-06T13:25:25.253Z</time>
      </trkpt>
      <trkpt lat="43.86951" lon="3.98065">
        <ele>103.7</ele>
        <time>2024-04-06T13:25:26.015Z</time>
      </trkpt>
      <trkpt lat="43.86951" lon="3.98067">
        <ele>103.9</ele>
        <time>2024-04-06T13:25:26.751Z</time>
      </trkpt>
      <trkpt lat="43.86949" lon="3.9807">
        <ele>104.4</ele>
        <time>2024-04-06T13:25:28.437Z</time>
      </trkpt>
      <trkpt lat="43.86947" lon="3.98072">
        <ele>104.8</ele>
        <time>2024-04-06T13:25:29.809Z</time>
      </trkpt>
      <trkpt lat="43.86945" lon="3.98074">
        <ele>105.2</ele>
        <time>2024-04-06T13:25:31.181Z</time>
      </trkpt>
      <trkpt lat="43.86946" lon="3.98077">
        <ele>105.3</ele>
        <time>2024-04-06T13:25:32.052Z</time>
      </trkpt>
      <trkpt lat="43.86948" lon="3.98082">
        <ele>105.4</ele>
        <time>2024-04-06T13:25:33.474Z</time>
      </trkpt>
      <trkpt lat="43.86949" lon="3.98084">
        <ele>105.3</ele>
        <time>2024-04-06T13:25:33.966Z</time>
      </trkpt>
      <trkpt lat="43.86951" lon="3.98088">
        <ele>104.9</ele>
        <time>2024-04-06T13:25:34.948Z</time>
      </trkpt>
      <trkpt lat="43.86951" lon="3.98091">
        <ele>104.8</ele>
        <time>2024-04-06T13:25:35.554Z</time>
      </trkpt>
      <trkpt lat="43.86951" lon="3.98094">
        <ele>104.8</ele>
        <time>2024-04-06T13:25:36.246Z</time>
      </trkpt>
      <trkpt lat="43.86951" lon="3.98097">
        <ele>104.7</ele>
        <time>2024-04-06T13:25:36.851Z</time>
      </trkpt>
      <trkpt lat="43.86952" lon="3.981">
        <ele>104.5</ele>
        <time>2024-04-06T13:25:37.518Z</time>
      </trkpt>
      <trkpt lat="43.86953" lon="3.98103">
        <ele>104.3</ele>
        <time>2024-04-06T13:25:38.186Z</time>
      </trkpt>
      <trkpt lat="43.86955" lon="3.98106">
        <ele>104</ele>
        <time>2024-04-06T13:25:39.010Z</time>
      </trkpt>
      <trkpt lat="43.86958" lon="3.98108">
        <ele>103.6</ele>
        <time>2024-04-06T13:25:39.942Z</time>
      </trkpt>
      <trkpt lat="43.8696" lon="3.98111">
        <ele>103.3</ele>
        <time>2024-04-06T13:25:40.767Z</time>
      </trkpt>
      <trkpt lat="43.86963" lon="3.98114">
        <ele>103</ele>
        <time>2024-04-06T13:25:41.802Z</time>
      </trkpt>
      <trkpt lat="43.86966" lon="3.98118">
        <ele>102.6</ele>
        <time>2024-04-06T13:25:42.967Z</time>
      </trkpt>
      <trkpt lat="43.86969" lon="3.98123">
        <ele>102.3</ele>
        <time>2024-04-06T13:25:44.280Z</time>
      </trkpt>
      <trkpt lat="43.86972" lon="3.98127">
        <ele>102</ele>
        <time>2024-04-06T13:25:45.445Z</time>
      </trkpt>
      <trkpt lat="43.86975" lon="3.98131">
        <ele>101.7</ele>
        <time>2024-04-06T13:25:46.611Z</time>
      </trkpt>
      <trkpt lat="43.86978" lon="3.98133">
        <ele>101.4</ele>
        <time>2024-04-06T13:25:47.542Z</time>
      </trkpt>
      <trkpt lat="43.86983" lon="3.98135">
        <ele>100.8</ele>
        <time>2024-04-06T13:25:48.999Z</time>
      </trkpt>
      <trkpt lat="43.86987" lon="3.98138">
        <ele>100.4</ele>
        <time>2024-04-06T13:25:50.272Z</time>
      </trkpt>
      <trkpt lat="43.8699" lon="3.98142">
        <ele>100</ele>
        <time>2024-04-06T13:25:51.438Z</time>
      </trkpt>
      <trkpt lat="43.86991" lon="3.98147">
        <ele>99.9</ele>
        <time>2024-04-06T13:25:52.541Z</time>
      </trkpt>
      <trkpt lat="43.8699" lon="3.98152">
        <ele>99.9</ele>
        <time>2024-04-06T13:25:53.738Z</time>
      </trkpt>
      <trkpt lat="43.86988" lon="3.98156">
        <ele>100</ele>
        <time>2024-04-06T13:25:54.966Z</time>
      </trkpt>
      <trkpt lat="43.86986" lon="3.98159">
        <ele>100.1</ele>
        <time>2024-04-06T13:25:56.015Z</time>
      </trkpt>
      <trkpt lat="43.86985" lon="3.98163">
        <ele>100.2</ele>
        <time>2024-04-06T13:25:57.097Z</time>
      </trkpt>
      <trkpt lat="43.86986" lon="3.98166">
        <ele>100</ele>
        <time>2024-04-06T13:25:57.764Z</time>
      </trkpt>
      <trkpt lat="43.86987" lon="3.98168">
        <ele>99.9</ele>
        <time>2024-04-06T13:25:58.256Z</time>
      </trkpt>
      <trkpt lat="43.86989" lon="3.98171">
        <ele>99.7</ele>
        <time>2024-04-06T13:25:59.080Z</time>
      </trkpt>
      <trkpt lat="43.86991" lon="3.98176">
        <ele>99.4</ele>
        <time>2024-04-06T13:26:00.235Z</time>
      </trkpt>
      <trkpt lat="43.86992" lon="3.9818">
        <ele>99.2</ele>
        <time>2024-04-06T13:26:01.089Z</time>
      </trkpt>
      <trkpt lat="43.86993" lon="3.98185">
        <ele>99</ele>
        <time>2024-04-06T13:26:02.136Z</time>
      </trkpt>
      <trkpt lat="43.86994" lon="3.9819">
        <ele>98.8</ele>
        <time>2024-04-06T13:26:03.184Z</time>
      </trkpt>
      <trkpt lat="43.86995" lon="3.98195">
        <ele>98.5</ele>
        <time>2024-04-06T13:26:04.231Z</time>
      </trkpt>
      <trkpt lat="43.86997" lon="3.98198">
        <ele>98.2</ele>
        <time>2024-04-06T13:26:05.056Z</time>
      </trkpt>
      <trkpt lat="43.87" lon="3.98201">
        <ele>97.8</ele>
        <time>2024-04-06T13:26:06.091Z</time>
      </trkpt>
      <trkpt lat="43.87003" lon="3.98203">
        <ele>97.6</ele>
        <time>2024-04-06T13:26:07.023Z</time>
      </trkpt>
      <trkpt lat="43.87005" lon="3.98205">
        <ele>97.4</ele>
        <time>2024-04-06T13:26:07.713Z</time>
      </trkpt>
      <trkpt lat="43.87007" lon="3.98207">
        <ele>97.2</ele>
        <time>2024-04-06T13:26:08.404Z</time>
      </trkpt>
      <trkpt lat="43.87009" lon="3.98209">
        <ele>97</ele>
        <time>2024-04-06T13:26:09.094Z</time>
      </trkpt>
      <trkpt lat="43.87011" lon="3.98211">
        <ele>96.8</ele>
        <time>2024-04-06T13:26:09.784Z</time>
      </trkpt>
      <trkpt lat="43.87012" lon="3.98213">
        <ele>96.6</ele>
        <time>2024-04-06T13:26:10.276Z</time>
      </trkpt>
      <trkpt lat="43.87014" lon="3.98214">
        <ele>96.4</ele>
        <time>2024-04-06T13:26:10.871Z</time>
      </trkpt>
      <trkpt lat="43.87016" lon="3.98213">
        <ele>96.4</ele>
        <time>2024-04-06T13:26:11.551Z</time>
      </trkpt>
      <trkpt lat="43.8702" lon="3.98212">
        <ele>96.2</ele>
        <time>2024-04-06T13:26:12.689Z</time>
      </trkpt>
      <trkpt lat="43.87022" lon="3.98213">
        <ele>96</ele>
        <time>2024-04-06T13:26:13.284Z</time>
      </trkpt>
      <trkpt lat="43.87025" lon="3.98214">
        <ele>95.8</ele>
        <time>2024-04-06T13:26:14.148Z</time>
      </trkpt>
      <trkpt lat="43.87028" lon="3.98216">
        <ele>95.4</ele>
        <time>2024-04-06T13:26:15.080Z</time>
      </trkpt>
      <trkpt lat="43.87031" lon="3.98216">
        <ele>95.3</ele>
        <time>2024-04-06T13:26:15.948Z</time>
      </trkpt>
      <trkpt lat="43.87035" lon="3.98218">
        <ele>95</ele>
        <time>2024-04-06T13:26:17.138Z</time>
      </trkpt>
      <trkpt lat="43.87038" lon="3.98222">
        <ele>94.6</ele>
        <time>2024-04-06T13:26:18.304Z</time>
      </trkpt>
      <trkpt lat="43.87042" lon="3.98224">
        <ele>94.4</ele>
        <time>2024-04-06T13:26:19.494Z</time>
      </trkpt>
      <trkpt lat="43.87045" lon="3.98227">
        <ele>94.1</ele>
        <time>2024-04-06T13:26:20.529Z</time>
      </trkpt>
      <trkpt lat="43.87046" lon="3.98231">
        <ele>93.8</ele>
        <time>2024-04-06T13:26:21.384Z</time>
      </trkpt>
      <trkpt lat="43.87046" lon="3.98235">
        <ele>93.6</ele>
        <time>2024-04-06T13:26:22.191Z</time>
      </trkpt>
      <trkpt lat="43.87045" lon="3.9824">
        <ele>93.3</ele>
        <time>2024-04-06T13:26:23.239Z</time>
      </trkpt>
      <trkpt lat="43.87046" lon="3.98245">
        <ele>93</ele>
        <time>2024-04-06T13:26:24.286Z</time>
      </trkpt>
      <trkpt lat="43.87048" lon="3.9825">
        <ele>92.5</ele>
        <time>2024-04-06T13:26:25.440Z</time>
      </trkpt>
      <trkpt lat="43.8705" lon="3.98255">
        <ele>92</ele>
        <time>2024-04-06T13:26:26.594Z</time>
      </trkpt>
      <trkpt lat="43.87051" lon="3.9826">
        <ele>91.6</ele>
        <time>2024-04-06T13:26:27.641Z</time>
      </trkpt>
      <trkpt lat="43.87052" lon="3.98264">
        <ele>91.2</ele>
        <time>2024-04-06T13:26:28.496Z</time>
      </trkpt>
      <trkpt lat="43.87054" lon="3.98266">
        <ele>91</ele>
        <time>2024-04-06T13:26:29.186Z</time>
      </trkpt>
      <trkpt lat="43.87056" lon="3.98269">
        <ele>90.6</ele>
        <time>2024-04-06T13:26:30.011Z</time>
      </trkpt>
      <trkpt lat="43.87059" lon="3.98272">
        <ele>90.1</ele>
        <time>2024-04-06T13:26:31.046Z</time>
      </trkpt>
      <trkpt lat="43.87061" lon="3.98276">
        <ele>89.6</ele>
        <time>2024-04-06T13:26:32.029Z</time>
      </trkpt>
      <trkpt lat="43.87063" lon="3.9828">
        <ele>89.1</ele>
        <time>2024-04-06T13:26:33.011Z</time>
      </trkpt>
      <trkpt lat="43.87065" lon="3.98284">
        <ele>88.7</ele>
        <time>2024-04-06T13:26:33.994Z</time>
      </trkpt>
      <trkpt lat="43.87067" lon="3.98288">
        <ele>88.3</ele>
        <time>2024-04-06T13:26:34.976Z</time>
      </trkpt>
      <trkpt lat="43.87069" lon="3.9829">
        <ele>88.1</ele>
        <time>2024-04-06T13:26:35.667Z</time>
      </trkpt>
      <trkpt lat="43.87071" lon="3.98291">
        <ele>87.9</ele>
        <time>2024-04-06T13:26:36.262Z</time>
      </trkpt>
      <trkpt lat="43.87074" lon="3.98291">
        <ele>87.7</ele>
        <time>2024-04-06T13:26:37.102Z</time>
      </trkpt>
      <trkpt lat="43.87077" lon="3.98293">
        <ele>87.4</ele>
        <time>2024-04-06T13:26:38.034Z</time>
      </trkpt>
      <trkpt lat="43.87078" lon="3.98295">
        <ele>87.3</ele>
        <time>2024-04-06T13:26:38.525Z</time>
      </trkpt>
      <trkpt lat="43.8708" lon="3.98296">
        <ele>87.2</ele>
        <time>2024-04-06T13:26:39.120Z</time>
      </trkpt>
      <trkpt lat="43.87083" lon="3.98298">
        <ele>87</ele>
        <time>2024-04-06T13:26:40.052Z</time>
      </trkpt>
      <trkpt lat="43.87085" lon="3.98299">
        <ele>87.1</ele>
        <time>2024-04-06T13:26:40.842Z</time>
      </trkpt>
      <trkpt lat="43.87086" lon="3.98301">
        <ele>87.2</ele>
        <time>2024-04-06T13:26:41.515Z</time>
      </trkpt>
      <trkpt lat="43.87087" lon="3.98303">
        <ele>87.3</ele>
        <time>2024-04-06T13:26:42.189Z</time>
      </trkpt>
      <trkpt lat="43.87089" lon="3.98306">
        <ele>87.4</ele>
        <time>2024-04-06T13:26:43.237Z</time>
      </trkpt>
      <trkpt lat="43.87091" lon="3.98309">
        <ele>87.6</ele>
        <time>2024-04-06T13:26:44.410Z</time>
      </trkpt>
      <trkpt lat="43.87093" lon="3.98311">
        <ele>87.8</ele>
        <time>2024-04-06T13:26:45.436Z</time>
      </trkpt>
      <trkpt lat="43.87095" lon="3.98312">
        <ele>88</ele>
        <time>2024-04-06T13:26:46.361Z</time>
      </trkpt>
      <trkpt lat="43.87097" lon="3.98313">
        <ele>88.1</ele>
        <time>2024-04-06T13:26:47.150Z</time>
      </trkpt>
      <trkpt lat="43.871" lon="3.98317">
        <ele>88.4</ele>
        <time>2024-04-06T13:26:48.830Z</time>
      </trkpt>
      <trkpt lat="43.87102" lon="3.98319">
        <ele>88.5</ele>
        <time>2024-04-06T13:26:49.726Z</time>
      </trkpt>
      <trkpt lat="43.87104" lon="3.98322">
        <ele>88.6</ele>
        <time>2024-04-06T13:26:50.775Z</time>
      </trkpt>
      <trkpt lat="43.87106" lon="3.98324">
        <ele>88.8</ele>
        <time>2024-04-06T13:26:51.801Z</time>
      </trkpt>
      <trkpt lat="43.87109" lon="3.98325">
        <ele>88.9</ele>
        <time>2024-04-06T13:26:52.894Z</time>
      </trkpt>
      <trkpt lat="43.87113" lon="3.98324">
        <ele>89.1</ele>
        <time>2024-04-06T13:26:54.415Z</time>
      </trkpt>
      <trkpt lat="43.87116" lon="3.98323">
        <ele>89.2</ele>
        <time>2024-04-06T13:26:55.508Z</time>
      </trkpt>
      <trkpt lat="43.87119" lon="3.98322">
        <ele>89.3</ele>
        <time>2024-04-06T13:26:56.601Z</time>
      </trkpt>
      <trkpt lat="43.87123" lon="3.98321">
        <ele>89.4</ele>
        <time>2024-04-06T13:26:58.005Z</time>
      </trkpt>
      <trkpt lat="43.87126" lon="3.9832">
        <ele>89.5</ele>
        <time>2024-04-06T13:26:59.098Z</time>
      </trkpt>
      <trkpt lat="43.8713" lon="3.98319">
        <ele>89.7</ele>
        <time>2024-04-06T13:27:00.619Z</time>
      </trkpt>
      <trkpt lat="43.87133" lon="3.98319">
        <ele>89.8</ele>
        <time>2024-04-06T13:27:01.685Z</time>
      </trkpt>
      <trkpt lat="43.87137" lon="3.98318">
        <ele>89.9</ele>
        <time>2024-04-06T13:27:03.089Z</time>
      </trkpt>
      <trkpt lat="43.87141" lon="3.98318">
        <ele>90.3</ele>
        <time>2024-04-06T13:27:04.866Z</time>
      </trkpt>
      <trkpt lat="43.87144" lon="3.98316">
        <ele>90.6</ele>
        <time>2024-04-06T13:27:06.294Z</time>
      </trkpt>
      <trkpt lat="43.87147" lon="3.98313">
        <ele>91</ele>
        <time>2024-04-06T13:27:07.984Z</time>
      </trkpt>
      <trkpt lat="43.8715" lon="3.98312">
        <ele>91.3</ele>
        <time>2024-04-06T13:27:09.342Z</time>
      </trkpt>
      <trkpt lat="43.87152" lon="3.98312">
        <ele>91.5</ele>
        <time>2024-04-06T13:27:10.230Z</time>
      </trkpt>
      <trkpt lat="43.87154" lon="3.98312">
        <ele>91.8</ele>
        <time>2024-04-06T13:27:11.293Z</time>
      </trkpt>
      <trkpt lat="43.87156" lon="3.98314">
        <ele>92</ele>
        <time>2024-04-06T13:27:12.319Z</time>
      </trkpt>
      <trkpt lat="43.87158" lon="3.98315">
        <ele>92.3</ele>
        <time>2024-04-06T13:27:13.413Z</time>
      </trkpt>
      <trkpt lat="43.87159" lon="3.98317">
        <ele>92.5</ele>
        <time>2024-04-06T13:27:14.232Z</time>
      </trkpt>
      <trkpt lat="43.87162" lon="3.98319">
        <ele>92.9</ele>
        <time>2024-04-06T13:27:15.819Z</time>
      </trkpt>
      <trkpt lat="43.87165" lon="3.98322">
        <ele>93.4</ele>
        <time>2024-04-06T13:27:17.681Z</time>
      </trkpt>
      <trkpt lat="43.87167" lon="3.98323">
        <ele>93.6</ele>
        <time>2024-04-06T13:27:18.606Z</time>
      </trkpt>
      <trkpt lat="43.87169" lon="3.98324">
        <ele>93.7</ele>
        <time>2024-04-06T13:27:19.396Z</time>
      </trkpt>
      <trkpt lat="43.87172" lon="3.98327">
        <ele>93.8</ele>
        <time>2024-04-06T13:27:20.684Z</time>
      </trkpt>
      <trkpt lat="43.87173" lon="3.98328">
        <ele>93.9</ele>
        <time>2024-04-06T13:27:21.197Z</time>
      </trkpt>
      <trkpt lat="43.87175" lon="3.9833">
        <ele>93.9</ele>
        <time>2024-04-06T13:27:21.985Z</time>
      </trkpt>
      <trkpt lat="43.87177" lon="3.98331">
        <ele>93.9</ele>
        <time>2024-04-06T13:27:22.666Z</time>
      </trkpt>
      <trkpt lat="43.87178" lon="3.98333">
        <ele>94</ele>
        <time>2024-04-06T13:27:23.339Z</time>
      </trkpt>
      <trkpt lat="43.8718" lon="3.98335">
        <ele>94</ele>
        <time>2024-04-06T13:27:24.128Z</time>
      </trkpt>
      <trkpt lat="43.87182" lon="3.98337">
        <ele>93.9</ele>
        <time>2024-04-06T13:27:24.826Z</time>
      </trkpt>
      <trkpt lat="43.87183" lon="3.98338">
        <ele>93.9</ele>
        <time>2024-04-06T13:27:25.221Z</time>
      </trkpt>
      <trkpt lat="43.87185" lon="3.98339">
        <ele>93.9</ele>
        <time>2024-04-06T13:27:25.901Z</time>
      </trkpt>
      <trkpt lat="43.87187" lon="3.98339">
        <ele>93.9</ele>
        <time>2024-04-06T13:27:26.541Z</time>
      </trkpt>
      <trkpt lat="43.87189" lon="3.9834">
        <ele>93.8</ele>
        <time>2024-04-06T13:27:27.136Z</time>
      </trkpt>
      <trkpt lat="43.87191" lon="3.9834">
        <ele>93.8</ele>
        <time>2024-04-06T13:27:27.776Z</time>
      </trkpt>
      <trkpt lat="43.87194" lon="3.9834">
        <ele>93.8</ele>
        <time>2024-04-06T13:27:28.736Z</time>
      </trkpt>
      <trkpt lat="43.87198" lon="3.9834">
        <ele>93.8</ele>
        <time>2024-04-06T13:27:30.016Z</time>
      </trkpt>
      <trkpt lat="43.872" lon="3.98338">
        <ele>93.8</ele>
        <time>2024-04-06T13:27:30.805Z</time>
      </trkpt>
      <trkpt lat="43.872" lon="3.98336">
        <ele>93.9</ele>
        <time>2024-04-06T13:27:31.382Z</time>
      </trkpt>
      <trkpt lat="43.87201" lon="3.98332">
        <ele>94</ele>
        <time>2024-04-06T13:27:32.464Z</time>
      </trkpt>
      <trkpt lat="43.87203" lon="3.9833">
        <ele>94</ele>
        <time>2024-04-06T13:27:33.253Z</time>
      </trkpt>
      <trkpt lat="43.87204" lon="3.98327">
        <ele>94.1</ele>
        <time>2024-04-06T13:27:34.123Z</time>
      </trkpt>
      <trkpt lat="43.87205" lon="3.98325">
        <ele>94.1</ele>
        <time>2024-04-06T13:27:34.685Z</time>
      </trkpt>
      <trkpt lat="43.87206" lon="3.98322">
        <ele>94.2</ele>
        <time>2024-04-06T13:27:35.555Z</time>
      </trkpt>
      <trkpt lat="43.87206" lon="3.98319">
        <ele>94.2</ele>
        <time>2024-04-06T13:27:36.247Z</time>
      </trkpt>
      <trkpt lat="43.87206" lon="3.98315">
        <ele>94.3</ele>
        <time>2024-04-06T13:27:37.276Z</time>
      </trkpt>
      <trkpt lat="43.87207" lon="3.98313">
        <ele>94.3</ele>
        <time>2024-04-06T13:27:37.838Z</time>
      </trkpt>
      <trkpt lat="43.87209" lon="3.9831">
        <ele>94.4</ele>
        <time>2024-04-06T13:27:38.887Z</time>
      </trkpt>
      <trkpt lat="43.8721" lon="3.98307">
        <ele>94.5</ele>
        <time>2024-04-06T13:27:39.757Z</time>
      </trkpt>
      <trkpt lat="43.87211" lon="3.98304">
        <ele>94.6</ele>
        <time>2024-04-06T13:27:40.628Z</time>
      </trkpt>
      <trkpt lat="43.87213" lon="3.983">
        <ele>94.8</ele>
        <time>2024-04-06T13:27:41.974Z</time>
      </trkpt>
      <trkpt lat="43.87214" lon="3.98297">
        <ele>94.9</ele>
        <time>2024-04-06T13:27:42.845Z</time>
      </trkpt>
      <trkpt lat="43.87215" lon="3.98293">
        <ele>95.1</ele>
        <time>2024-04-06T13:27:44.050Z</time>
      </trkpt>
      <trkpt lat="43.87215" lon="3.98291">
        <ele>95.1</ele>
        <time>2024-04-06T13:27:44.511Z</time>
      </trkpt>
      <trkpt lat="43.87216" lon="3.98288">
        <ele>95.3</ele>
        <time>2024-04-06T13:27:45.512Z</time>
      </trkpt>
      <trkpt lat="43.87216" lon="3.98285">
        <ele>95.4</ele>
        <time>2024-04-06T13:27:46.314Z</time>
      </trkpt>
      <trkpt lat="43.87217" lon="3.98281">
        <ele>95.5</ele>
        <time>2024-04-06T13:27:47.396Z</time>
      </trkpt>
      <trkpt lat="43.87217" lon="3.98277">
        <ele>95.6</ele>
        <time>2024-04-06T13:27:48.425Z</time>
      </trkpt>
      <trkpt lat="43.87217" lon="3.98274">
        <ele>95.7</ele>
        <time>2024-04-06T13:27:49.226Z</time>
      </trkpt>
      <trkpt lat="43.87218" lon="3.98271">
        <ele>95.9</ele>
        <time>2024-04-06T13:27:50.227Z</time>
      </trkpt>
      <trkpt lat="43.87218" lon="3.98266">
        <ele>96.1</ele>
        <time>2024-04-06T13:27:51.604Z</time>
      </trkpt>
      <trkpt lat="43.87218" lon="3.98262">
        <ele>96.2</ele>
        <time>2024-04-06T13:27:52.633Z</time>
      </trkpt>
      <trkpt lat="43.87219" lon="3.98258">
        <ele>96.4</ele>
        <time>2024-04-06T13:27:53.838Z</time>
      </trkpt>
      <trkpt lat="43.87219" lon="3.98254">
        <ele>96.5</ele>
        <time>2024-04-06T13:27:54.867Z</time>
      </trkpt>
      <trkpt lat="43.87219" lon="3.98251">
        <ele>96.6</ele>
        <time>2024-04-06T13:27:55.668Z</time>
      </trkpt>
      <trkpt lat="43.87219" lon="3.98247">
        <ele>96.5</ele>
        <time>2024-04-06T13:27:56.499Z</time>
      </trkpt>
      <trkpt lat="43.8722" lon="3.98243">
        <ele>96.5</ele>
        <time>2024-04-06T13:27:57.476Z</time>
      </trkpt>
      <trkpt lat="43.8722" lon="3.9824">
        <ele>96.4</ele>
        <time>2024-04-06T13:27:58.081Z</time>
      </trkpt>
      <trkpt lat="43.87222" lon="3.98237">
        <ele>96.5</ele>
        <time>2024-04-06T13:27:59.130Z</time>
      </trkpt>
      <trkpt lat="43.87224" lon="3.98234">
        <ele>96.5</ele>
        <time>2024-04-06T13:28:00.072Z</time>
      </trkpt>
      <trkpt lat="43.87226" lon="3.98231">
        <ele>96.5</ele>
        <time>2024-04-06T13:28:01.015Z</time>
      </trkpt>
      <trkpt lat="43.87228" lon="3.98227">
        <ele>96.4</ele>
        <time>2024-04-06T13:28:02.045Z</time>
      </trkpt>
      <trkpt lat="43.8723" lon="3.98224">
        <ele>96.3</ele>
        <time>2024-04-06T13:28:02.896Z</time>
      </trkpt>
      <trkpt lat="43.87232" lon="3.9822">
        <ele>96.4</ele>
        <time>2024-04-06T13:28:04.124Z</time>
      </trkpt>
      <trkpt lat="43.87234" lon="3.98216">
        <ele>96.4</ele>
        <time>2024-04-06T13:28:05.247Z</time>
      </trkpt>
      <trkpt lat="43.87236" lon="3.98213">
        <ele>96.5</ele>
        <time>2024-04-06T13:28:06.295Z</time>
      </trkpt>
      <trkpt lat="43.87238" lon="3.98209">
        <ele>96.6</ele>
        <time>2024-04-06T13:28:07.523Z</time>
      </trkpt>
      <trkpt lat="43.87241" lon="3.98205">
        <ele>96.7</ele>
        <time>2024-04-06T13:28:08.958Z</time>
      </trkpt>
      <trkpt lat="43.87243" lon="3.98201">
        <ele>96.7</ele>
        <time>2024-04-06T13:28:10.081Z</time>
      </trkpt>
      <trkpt lat="43.87246" lon="3.98197">
        <ele>96.9</ele>
        <time>2024-04-06T13:28:11.632Z</time>
      </trkpt>
      <trkpt lat="43.87248" lon="3.98193">
        <ele>96.9</ele>
        <time>2024-04-06T13:28:12.755Z</time>
      </trkpt>
      <trkpt lat="43.87251" lon="3.98188">
        <ele>96.8</ele>
        <time>2024-04-06T13:28:14.161Z</time>
      </trkpt>
      <trkpt lat="43.87253" lon="3.98184">
        <ele>96.7</ele>
        <time>2024-04-06T13:28:15.191Z</time>
      </trkpt>
      <trkpt lat="43.87255" lon="3.9818">
        <ele>96.7</ele>
        <time>2024-04-06T13:28:16.314Z</time>
      </trkpt>
      <trkpt lat="43.87258" lon="3.98175">
        <ele>96.7</ele>
        <time>2024-04-06T13:28:17.815Z</time>
      </trkpt>
      <trkpt lat="43.8726" lon="3.9817">
        <ele>96.8</ele>
        <time>2024-04-06T13:28:19.238Z</time>
      </trkpt>
      <trkpt lat="43.87263" lon="3.98165">
        <ele>96.9</ele>
        <time>2024-04-06T13:28:20.841Z</time>
      </trkpt>
      <trkpt lat="43.87265" lon="3.9816">
        <ele>97.1</ele>
        <time>2024-04-06T13:28:22.380Z</time>
      </trkpt>
      <trkpt lat="43.87268" lon="3.98156">
        <ele>97.3</ele>
        <time>2024-04-06T13:28:23.931Z</time>
      </trkpt>
      <trkpt lat="43.8727" lon="3.98152">
        <ele>97.4</ele>
        <time>2024-04-06T13:28:25.158Z</time>
      </trkpt>
      <trkpt lat="43.87272" lon="3.98148">
        <ele>97.6</ele>
        <time>2024-04-06T13:28:26.505Z</time>
      </trkpt>
      <trkpt lat="43.87274" lon="3.98144">
        <ele>97.7</ele>
        <time>2024-04-06T13:28:27.733Z</time>
      </trkpt>
      <trkpt lat="43.87276" lon="3.98139">
        <ele>97.9</ele>
        <time>2024-04-06T13:28:29.271Z</time>
      </trkpt>
      <trkpt lat="43.87277" lon="3.98134">
        <ele>97.8</ele>
        <time>2024-04-06T13:28:30.375Z</time>
      </trkpt>
      <trkpt lat="43.87279" lon="3.9813">
        <ele>97.8</ele>
        <time>2024-04-06T13:28:31.498Z</time>
      </trkpt>
      <trkpt lat="43.8728" lon="3.98124">
        <ele>97.6</ele>
        <time>2024-04-06T13:28:32.741Z</time>
      </trkpt>
      <trkpt lat="43.87281" lon="3.98119">
        <ele>97.6</ele>
        <time>2024-04-06T13:28:33.938Z</time>
      </trkpt>
      <trkpt lat="43.87282" lon="3.98114">
        <ele>97.5</ele>
        <time>2024-04-06T13:28:35.042Z</time>
      </trkpt>
      <trkpt lat="43.87283" lon="3.98109">
        <ele>97.6</ele>
        <time>2024-04-06T13:28:36.343Z</time>
      </trkpt>
      <trkpt lat="43.87285" lon="3.98104">
        <ele>97.9</ele>
        <time>2024-04-06T13:28:38.011Z</time>
      </trkpt>
      <trkpt lat="43.87286" lon="3.981">
        <ele>98.1</ele>
        <time>2024-04-06T13:28:39.216Z</time>
      </trkpt>
      <trkpt lat="43.87287" lon="3.98095">
        <ele>98.2</ele>
        <time>2024-04-06T13:28:40.517Z</time>
      </trkpt>
      <trkpt lat="43.87288" lon="3.9809">
        <ele>98.3</ele>
        <time>2024-04-06T13:28:41.818Z</time>
      </trkpt>
      <trkpt lat="43.87289" lon="3.98086">
        <ele>98.4</ele>
        <time>2024-04-06T13:28:42.901Z</time>
      </trkpt>
      <trkpt lat="43.8729" lon="3.98081">
        <ele>98.4</ele>
        <time>2024-04-06T13:28:44.098Z</time>
      </trkpt>
      <trkpt lat="43.87292" lon="3.98076">
        <ele>98.5</ele>
        <time>2024-04-06T13:28:45.520Z</time>
      </trkpt>
      <trkpt lat="43.87292" lon="3.98071">
        <ele>98.5</ele>
        <time>2024-04-06T13:28:46.674Z</time>
      </trkpt>
      <trkpt lat="43.87293" lon="3.98066">
        <ele>98.5</ele>
        <time>2024-04-06T13:28:47.871Z</time>
      </trkpt>
      <trkpt lat="43.87295" lon="3.98062">
        <ele>98.6</ele>
        <time>2024-04-06T13:28:49.098Z</time>
      </trkpt>
      <trkpt lat="43.87296" lon="3.98058">
        <ele>98.7</ele>
        <time>2024-04-06T13:28:50.181Z</time>
      </trkpt>
      <trkpt lat="43.87298" lon="3.98054">
        <ele>98.7</ele>
        <time>2024-04-06T13:28:51.304Z</time>
      </trkpt>
      <trkpt lat="43.87299" lon="3.98049">
        <ele>98.5</ele>
        <time>2024-04-06T13:28:52.351Z</time>
      </trkpt>
      <trkpt lat="43.873" lon="3.98044">
        <ele>98.4</ele>
        <time>2024-04-06T13:28:53.455Z</time>
      </trkpt>
      <trkpt lat="43.87302" lon="3.9804">
        <ele>98.3</ele>
        <time>2024-04-06T13:28:54.485Z</time>
      </trkpt>
      <trkpt lat="43.87305" lon="3.98035">
        <ele>98.2</ele>
        <time>2024-04-06T13:28:55.891Z</time>
      </trkpt>
      <trkpt lat="43.87307" lon="3.98031">
        <ele>98.2</ele>
        <time>2024-04-06T13:28:57.014Z</time>
      </trkpt>
      <trkpt lat="43.87309" lon="3.98027">
        <ele>98.3</ele>
        <time>2024-04-06T13:28:58.242Z</time>
      </trkpt>
      <trkpt lat="43.87311" lon="3.98023">
        <ele>98.5</ele>
        <time>2024-04-06T13:28:59.589Z</time>
      </trkpt>
      <trkpt lat="43.87313" lon="3.9802">
        <ele>98.7</ele>
        <time>2024-04-06T13:29:00.761Z</time>
      </trkpt>
      <trkpt lat="43.87314" lon="3.98016">
        <ele>98.9</ele>
        <time>2024-04-06T13:29:01.966Z</time>
      </trkpt>
      <trkpt lat="43.87316" lon="3.98013">
        <ele>99.1</ele>
        <time>2024-04-06T13:29:03.138Z</time>
      </trkpt>
      <trkpt lat="43.87318" lon="3.9801">
        <ele>99.2</ele>
        <time>2024-04-06T13:29:04.187Z</time>
      </trkpt>
      <trkpt lat="43.87319" lon="3.98006">
        <ele>99.4</ele>
        <time>2024-04-06T13:29:05.392Z</time>
      </trkpt>
      <trkpt lat="43.8732" lon="3.98003">
        <ele>99.5</ele>
        <time>2024-04-06T13:29:06.262Z</time>
      </trkpt>
      <trkpt lat="43.87321" lon="3.98">
        <ele>99.6</ele>
        <time>2024-04-06T13:29:07.133Z</time>
      </trkpt>
      <trkpt lat="43.87322" lon="3.97997">
        <ele>99.6</ele>
        <time>2024-04-06T13:29:07.895Z</time>
      </trkpt>
      <trkpt lat="43.87323" lon="3.97993">
        <ele>99.7</ele>
        <time>2024-04-06T13:29:08.978Z</time>
      </trkpt>
      <trkpt lat="43.87324" lon="3.9799">
        <ele>99.8</ele>
        <time>2024-04-06T13:29:09.848Z</time>
      </trkpt>
      <trkpt lat="43.87324" lon="3.97987">
        <ele>99.8</ele>
        <time>2024-04-06T13:29:10.540Z</time>
      </trkpt>
      <trkpt lat="43.87325" lon="3.97984">
        <ele>99.9</ele>
        <time>2024-04-06T13:29:11.411Z</time>
      </trkpt>
      <trkpt lat="43.87326" lon="3.97981">
        <ele>99.9</ele>
        <time>2024-04-06T13:29:12.173Z</time>
      </trkpt>
      <trkpt lat="43.87327" lon="3.97977">
        <ele>100</ele>
        <time>2024-04-06T13:29:13.255Z</time>
      </trkpt>
      <trkpt lat="43.87328" lon="3.97974">
        <ele>100</ele>
        <time>2024-04-06T13:29:14.018Z</time>
      </trkpt>
      <trkpt lat="43.87329" lon="3.97971">
        <ele>100</ele>
        <time>2024-04-06T13:29:14.780Z</time>
      </trkpt>
      <trkpt lat="43.87331" lon="3.97967">
        <ele>100</ele>
        <time>2024-04-06T13:29:15.903Z</time>
      </trkpt>
      <trkpt lat="43.87332" lon="3.97963">
        <ele>100</ele>
        <time>2024-04-06T13:29:16.880Z</time>
      </trkpt>
      <trkpt lat="43.87333" lon="3.9796">
        <ele>100</ele>
        <time>2024-04-06T13:29:17.642Z</time>
      </trkpt>
      <trkpt lat="43.87334" lon="3.97956">
        <ele>100</ele>
        <time>2024-04-06T13:29:18.619Z</time>
      </trkpt>
      <trkpt lat="43.87335" lon="3.97952">
        <ele>100.1</ele>
        <time>2024-04-06T13:29:19.701Z</time>
      </trkpt>
      <trkpt lat="43.87337" lon="3.97948">
        <ele>100.3</ele>
        <time>2024-04-06T13:29:21.048Z</time>
      </trkpt>
      <trkpt lat="43.87338" lon="3.97945">
        <ele>100.3</ele>
        <time>2024-04-06T13:29:21.810Z</time>
      </trkpt>
      <trkpt lat="43.87339" lon="3.97943">
        <ele>100.4</ele>
        <time>2024-04-06T13:29:22.483Z</time>
      </trkpt>
      <trkpt lat="43.8734" lon="3.9794">
        <ele>100.6</ele>
        <time>2024-04-06T13:29:23.485Z</time>
      </trkpt>
      <trkpt lat="43.87341" lon="3.97937">
        <ele>100.7</ele>
        <time>2024-04-06T13:29:24.355Z</time>
      </trkpt>
      <trkpt lat="43.87342" lon="3.97934">
        <ele>100.9</ele>
        <time>2024-04-06T13:29:25.356Z</time>
      </trkpt>
      <trkpt lat="43.87343" lon="3.97932">
        <ele>101</ele>
        <time>2024-04-06T13:29:26.030Z</time>
      </trkpt>
      <trkpt lat="43.87344" lon="3.97928">
        <ele>101.1</ele>
        <time>2024-04-06T13:29:27.112Z</time>
      </trkpt>
      <trkpt lat="43.87345" lon="3.97925">
        <ele>101.2</ele>
        <time>2024-04-06T13:29:27.983Z</time>
      </trkpt>
      <trkpt lat="43.87347" lon="3.97922">
        <ele>101.4</ele>
        <time>2024-04-06T13:29:29.155Z</time>
      </trkpt>
      <trkpt lat="43.87348" lon="3.97919">
        <ele>101.5</ele>
        <time>2024-04-06T13:29:30.025Z</time>
      </trkpt>
      <trkpt lat="43.87349" lon="3.97915">
        <ele>101.6</ele>
        <time>2024-04-06T13:29:31.108Z</time>
      </trkpt>
      <trkpt lat="43.8735" lon="3.97912">
        <ele>101.6</ele>
        <time>2024-04-06T13:29:31.870Z</time>
      </trkpt>
      <trkpt lat="43.87351" lon="3.97907">
        <ele>101.6</ele>
        <time>2024-04-06T13:29:33.067Z</time>
      </trkpt>
      <trkpt lat="43.87353" lon="3.97903">
        <ele>101.7</ele>
        <time>2024-04-06T13:29:34.295Z</time>
      </trkpt>
      <trkpt lat="43.87354" lon="3.97899">
        <ele>101.7</ele>
        <time>2024-04-06T13:29:35.271Z</time>
      </trkpt>
      <trkpt lat="43.87356" lon="3.97895">
        <ele>101.8</ele>
        <time>2024-04-06T13:29:36.499Z</time>
      </trkpt>
      <trkpt lat="43.87357" lon="3.97891">
        <ele>101.9</ele>
        <time>2024-04-06T13:29:37.581Z</time>
      </trkpt>
      <trkpt lat="43.87358" lon="3.97887">
        <ele>101.9</ele>
        <time>2024-04-06T13:29:38.558Z</time>
      </trkpt>
      <trkpt lat="43.8736" lon="3.97882">
        <ele>102</ele>
        <time>2024-04-06T13:29:39.981Z</time>
      </trkpt>
      <trkpt lat="43.87362" lon="3.97878">
        <ele>102</ele>
        <time>2024-04-06T13:29:41.104Z</time>
      </trkpt>
      <trkpt lat="43.87363" lon="3.97874">
        <ele>102.1</ele>
        <time>2024-04-06T13:29:42.186Z</time>
      </trkpt>
      <trkpt lat="43.87365" lon="3.9787">
        <ele>102.1</ele>
        <time>2024-04-06T13:29:43.309Z</time>
      </trkpt>
      <trkpt lat="43.87366" lon="3.97866">
        <ele>102.2</ele>
        <time>2024-04-06T13:29:44.391Z</time>
      </trkpt>
      <trkpt lat="43.87368" lon="3.97863">
        <ele>102.2</ele>
        <time>2024-04-06T13:29:45.334Z</time>
      </trkpt>
      <trkpt lat="43.8737" lon="3.97859">
        <ele>102.3</ele>
        <time>2024-04-06T13:29:46.562Z</time>
      </trkpt>
      <trkpt lat="43.87372" lon="3.97855">
        <ele>102.4</ele>
        <time>2024-04-06T13:29:47.789Z</time>
      </trkpt>
      <trkpt lat="43.87374" lon="3.97852">
        <ele>102.5</ele>
        <time>2024-04-06T13:29:48.838Z</time>
      </trkpt>
      <trkpt lat="43.87377" lon="3.97849">
        <ele>102.6</ele>
        <time>2024-04-06T13:29:50.126Z</time>
      </trkpt>
      <trkpt lat="43.87379" lon="3.97847">
        <ele>102.6</ele>
        <time>2024-04-06T13:29:50.915Z</time>
      </trkpt>
      <trkpt lat="43.87382" lon="3.97845">
        <ele>102.8</ele>
        <time>2024-04-06T13:29:52.205Z</time>
      </trkpt>
      <trkpt lat="43.87385" lon="3.97844">
        <ele>102.9</ele>
        <time>2024-04-06T13:29:53.298Z</time>
      </trkpt>
      <trkpt lat="43.87387" lon="3.97842">
        <ele>102.9</ele>
        <time>2024-04-06T13:29:54.087Z</time>
      </trkpt>
      <trkpt lat="43.8739" lon="3.97841">
        <ele>103.1</ele>
        <time>2024-04-06T13:29:55.303Z</time>
      </trkpt>
      <trkpt lat="43.87393" lon="3.97839">
        <ele>103.3</ele>
        <time>2024-04-06T13:29:56.593Z</time>
      </trkpt>
      <trkpt lat="43.87395" lon="3.97838">
        <ele>103.4</ele>
        <time>2024-04-06T13:29:57.383Z</time>
      </trkpt>
      <trkpt lat="43.87398" lon="3.97836">
        <ele>103.7</ele>
        <time>2024-04-06T13:29:58.811Z</time>
      </trkpt>
      <trkpt lat="43.87401" lon="3.97834">
        <ele>103.9</ele>
        <time>2024-04-06T13:30:00.102Z</time>
      </trkpt>
      <trkpt lat="43.87403" lon="3.97831">
        <ele>104.1</ele>
        <time>2024-04-06T13:30:01.274Z</time>
      </trkpt>
      <trkpt lat="43.87404" lon="3.97828">
        <ele>104.2</ele>
        <time>2024-04-06T13:30:02.145Z</time>
      </trkpt>
      <trkpt lat="43.87406" lon="3.97826">
        <ele>104.4</ele>
        <time>2024-04-06T13:30:03.171Z</time>
      </trkpt>
      <trkpt lat="43.87408" lon="3.97823">
        <ele>104.6</ele>
        <time>2024-04-06T13:30:04.343Z</time>
      </trkpt>
      <trkpt lat="43.87409" lon="3.9782">
        <ele>104.8</ele>
        <time>2024-04-06T13:30:05.344Z</time>
      </trkpt>
      <trkpt lat="43.87409" lon="3.97818">
        <ele>104.8</ele>
        <time>2024-04-06T13:30:05.805Z</time>
      </trkpt>
      <trkpt lat="43.87409" lon="3.97813">
        <ele>105</ele>
        <time>2024-04-06T13:30:07.182Z</time>
      </trkpt>
      <trkpt lat="43.87408" lon="3.9781">
        <ele>105</ele>
        <time>2024-04-06T13:30:07.944Z</time>
      </trkpt>
      <trkpt lat="43.87407" lon="3.97807">
        <ele>104.9</ele>
        <time>2024-04-06T13:30:08.616Z</time>
      </trkpt>
      <trkpt lat="43.87405" lon="3.97805">
        <ele>104.7</ele>
        <time>2024-04-06T13:30:09.307Z</time>
      </trkpt>
      <trkpt lat="43.87403" lon="3.97805">
        <ele>104.5</ele>
        <time>2024-04-06T13:30:09.867Z</time>
      </trkpt>
      <trkpt lat="43.874" lon="3.97802">
        <ele>104.3</ele>
        <time>2024-04-06T13:30:10.902Z</time>
      </trkpt>
      <trkpt lat="43.87399" lon="3.978">
        <ele>104.2</ele>
        <time>2024-04-06T13:30:11.393Z</time>
      </trkpt>
      <trkpt lat="43.87398" lon="3.97796">
        <ele>104.2</ele>
        <time>2024-04-06T13:30:12.370Z</time>
      </trkpt>
      <trkpt lat="43.87398" lon="3.97791">
        <ele>104.3</ele>
        <time>2024-04-06T13:30:13.628Z</time>
      </trkpt>
      <trkpt lat="43.87399" lon="3.97788">
        <ele>104.5</ele>
        <time>2024-04-06T13:30:14.629Z</time>
      </trkpt>
      <trkpt lat="43.874" lon="3.97784">
        <ele>104.7</ele>
        <time>2024-04-06T13:30:15.834Z</time>
      </trkpt>
      <trkpt lat="43.87401" lon="3.97779">
        <ele>104.8</ele>
        <time>2024-04-06T13:30:17.135Z</time>
      </trkpt>
      <trkpt lat="43.87401" lon="3.97775">
        <ele>105</ele>
        <time>2024-04-06T13:30:18.288Z</time>
      </trkpt>
      <trkpt lat="43.87401" lon="3.97771">
        <ele>105.1</ele>
        <time>2024-04-06T13:30:19.317Z</time>
      </trkpt>
      <trkpt lat="43.874" lon="3.97767">
        <ele>105.2</ele>
        <time>2024-04-06T13:30:20.400Z</time>
      </trkpt>
      <trkpt lat="43.87399" lon="3.97763">
        <ele>105.3</ele>
        <time>2024-04-06T13:30:21.482Z</time>
      </trkpt>
      <trkpt lat="43.87398" lon="3.97759">
        <ele>105.3</ele>
        <time>2024-04-06T13:30:22.459Z</time>
      </trkpt>
      <trkpt lat="43.87396" lon="3.97755">
        <ele>105.3</ele>
        <time>2024-04-06T13:30:23.582Z</time>
      </trkpt>
      <trkpt lat="43.87396" lon="3.97753">
        <ele>105.4</ele>
        <time>2024-04-06T13:30:24.158Z</time>
      </trkpt>
      <trkpt lat="43.87394" lon="3.97748">
        <ele>105.4</ele>
        <time>2024-04-06T13:30:25.477Z</time>
      </trkpt>
      <trkpt lat="43.87392" lon="3.97745">
        <ele>105.4</ele>
        <time>2024-04-06T13:30:26.420Z</time>
      </trkpt>
      <trkpt lat="43.87391" lon="3.97741">
        <ele>105.5</ele>
        <time>2024-04-06T13:30:27.502Z</time>
      </trkpt>
      <trkpt lat="43.87389" lon="3.97737">
        <ele>105.5</ele>
        <time>2024-04-06T13:30:28.625Z</time>
      </trkpt>
      <trkpt lat="43.87388" lon="3.97732">
        <ele>105.6</ele>
        <time>2024-04-06T13:30:29.926Z</time>
      </trkpt>
      <trkpt lat="43.87387" lon="3.97728">
        <ele>105.8</ele>
        <time>2024-04-06T13:30:31.131Z</time>
      </trkpt>
      <trkpt lat="43.87385" lon="3.97724">
        <ele>105.9</ele>
        <time>2024-04-06T13:30:32.359Z</time>
      </trkpt>
      <trkpt lat="43.87383" lon="3.9772">
        <ele>106.1</ele>
        <time>2024-04-06T13:30:33.706Z</time>
      </trkpt>
      <trkpt lat="43.87382" lon="3.97716">
        <ele>106.2</ele>
        <time>2024-04-06T13:30:34.788Z</time>
      </trkpt>
      <trkpt lat="43.8738" lon="3.97712">
        <ele>106.3</ele>
        <time>2024-04-06T13:30:36.016Z</time>
      </trkpt>
      <trkpt lat="43.87379" lon="3.97707">
        <ele>106.4</ele>
        <time>2024-04-06T13:30:37.317Z</time>
      </trkpt>
      <trkpt lat="43.87379" lon="3.97704">
        <ele>106.4</ele>
        <time>2024-04-06T13:30:38.009Z</time>
      </trkpt>
      <trkpt lat="43.87378" lon="3.97702">
        <ele>106.4</ele>
        <time>2024-04-06T13:30:38.571Z</time>
      </trkpt>
      <trkpt lat="43.87378" lon="3.97699">
        <ele>106.5</ele>
        <time>2024-04-06T13:30:39.372Z</time>
      </trkpt>
      <trkpt lat="43.87377" lon="3.97697">
        <ele>106.5</ele>
        <time>2024-04-06T13:30:39.933Z</time>
      </trkpt>
      <trkpt lat="43.87376" lon="3.97694">
        <ele>106.6</ele>
        <time>2024-04-06T13:30:40.804Z</time>
      </trkpt>
      <trkpt lat="43.87376" lon="3.97691">
        <ele>106.7</ele>
        <time>2024-04-06T13:30:41.605Z</time>
      </trkpt>
      <trkpt lat="43.87376" lon="3.97688">
        <ele>106.8</ele>
        <time>2024-04-06T13:30:42.406Z</time>
      </trkpt>
      <trkpt lat="43.87375" lon="3.97685">
        <ele>106.8</ele>
        <time>2024-04-06T13:30:43.168Z</time>
      </trkpt>
      <trkpt lat="43.87375" lon="3.97682">
        <ele>106.9</ele>
        <time>2024-04-06T13:30:43.970Z</time>
      </trkpt>
      <trkpt lat="43.87375" lon="3.97679">
        <ele>107.1</ele>
        <time>2024-04-06T13:30:44.905Z</time>
      </trkpt>
      <trkpt lat="43.87375" lon="3.97676">
        <ele>107.2</ele>
        <time>2024-04-06T13:30:45.706Z</time>
      </trkpt>
      <trkpt lat="43.87375" lon="3.97674">
        <ele>107.2</ele>
        <time>2024-04-06T13:30:46.168Z</time>
      </trkpt>
      <trkpt lat="43.87375" lon="3.97671">
        <ele>107.3</ele>
        <time>2024-04-06T13:30:46.969Z</time>
      </trkpt>
      <trkpt lat="43.87375" lon="3.97668">
        <ele>107.5</ele>
        <time>2024-04-06T13:30:47.905Z</time>
      </trkpt>
      <trkpt lat="43.87375" lon="3.97666">
        <ele>107.5</ele>
        <time>2024-04-06T13:30:48.366Z</time>
      </trkpt>
      <trkpt lat="43.87375" lon="3.97663">
        <ele>107.5</ele>
        <time>2024-04-06T13:30:49.058Z</time>
      </trkpt>
      <trkpt lat="43.87375" lon="3.9766">
        <ele>107.5</ele>
        <time>2024-04-06T13:30:49.750Z</time>
      </trkpt>
      <trkpt lat="43.87376" lon="3.97658">
        <ele>107.5</ele>
        <time>2024-04-06T13:30:50.311Z</time>
      </trkpt>
      <trkpt lat="43.87376" lon="3.97655">
        <ele>107.5</ele>
        <time>2024-04-06T13:30:51.003Z</time>
      </trkpt>
      <trkpt lat="43.87377" lon="3.97653">
        <ele>107.6</ele>
        <time>2024-04-06T13:30:51.677Z</time>
      </trkpt>
      <trkpt lat="43.87378" lon="3.9765">
        <ele>107.6</ele>
        <time>2024-04-06T13:30:52.439Z</time>
      </trkpt>
      <trkpt lat="43.87379" lon="3.97648">
        <ele>107.6</ele>
        <time>2024-04-06T13:30:53.001Z</time>
      </trkpt>
      <trkpt lat="43.8738" lon="3.97645">
        <ele>107.7</ele>
        <time>2024-04-06T13:30:53.871Z</time>
      </trkpt>
      <trkpt lat="43.87381" lon="3.97643">
        <ele>107.7</ele>
        <time>2024-04-06T13:30:54.432Z</time>
      </trkpt>
      <trkpt lat="43.87382" lon="3.9764">
        <ele>107.8</ele>
        <time>2024-04-06T13:30:55.303Z</time>
      </trkpt>
      <trkpt lat="43.87382" lon="3.97638">
        <ele>107.8</ele>
        <time>2024-04-06T13:30:55.764Z</time>
      </trkpt>
      <trkpt lat="43.87383" lon="3.97635">
        <ele>107.9</ele>
        <time>2024-04-06T13:30:56.635Z</time>
      </trkpt>
      <trkpt lat="43.87383" lon="3.97632">
        <ele>108</ele>
        <time>2024-04-06T13:30:57.436Z</time>
      </trkpt>
      <trkpt lat="43.87384" lon="3.97629">
        <ele>108.1</ele>
        <time>2024-04-06T13:30:58.306Z</time>
      </trkpt>
      <trkpt lat="43.87385" lon="3.97627">
        <ele>108.2</ele>
        <time>2024-04-06T13:30:58.980Z</time>
      </trkpt>
      <trkpt lat="43.87386" lon="3.97624">
        <ele>108.4</ele>
        <time>2024-04-06T13:30:59.981Z</time>
      </trkpt>
      <trkpt lat="43.87387" lon="3.97621">
        <ele>108.5</ele>
        <time>2024-04-06T13:31:00.851Z</time>
      </trkpt>
      <trkpt lat="43.87388" lon="3.97619">
        <ele>108.7</ele>
        <time>2024-04-06T13:31:01.670Z</time>
      </trkpt>
      <trkpt lat="43.87389" lon="3.97617">
        <ele>108.8</ele>
        <time>2024-04-06T13:31:02.343Z</time>
      </trkpt>
      <trkpt lat="43.8739" lon="3.97614">
        <ele>108.9</ele>
        <time>2024-04-06T13:31:03.214Z</time>
      </trkpt>
      <trkpt lat="43.8739" lon="3.97611">
        <ele>109</ele>
        <time>2024-04-06T13:31:04.015Z</time>
      </trkpt>
      <trkpt lat="43.87391" lon="3.97609">
        <ele>109</ele>
        <time>2024-04-06T13:31:04.576Z</time>
      </trkpt>
      <trkpt lat="43.87392" lon="3.97606">
        <ele>109</ele>
        <time>2024-04-06T13:31:05.339Z</time>
      </trkpt>
      <trkpt lat="43.87392" lon="3.97604">
        <ele>108.9</ele>
        <time>2024-04-06T13:31:05.743Z</time>
      </trkpt>
      <trkpt lat="43.87393" lon="3.97599">
        <ele>108.8</ele>
        <time>2024-04-06T13:31:06.846Z</time>
      </trkpt>
      <trkpt lat="43.87394" lon="3.97596">
        <ele>108.8</ele>
        <time>2024-04-06T13:31:07.609Z</time>
      </trkpt>
      <trkpt lat="43.87394" lon="3.97593">
        <ele>108.8</ele>
        <time>2024-04-06T13:31:08.301Z</time>
      </trkpt>
      <trkpt lat="43.87395" lon="3.97591">
        <ele>108.8</ele>
        <time>2024-04-06T13:31:08.862Z</time>
      </trkpt>
      <trkpt lat="43.87395" lon="3.97588">
        <ele>108.8</ele>
        <time>2024-04-06T13:31:09.554Z</time>
      </trkpt>
      <trkpt lat="43.87396" lon="3.97584">
        <ele>108.8</ele>
        <time>2024-04-06T13:31:10.531Z</time>
      </trkpt>
      <trkpt lat="43.87398" lon="3.9758">
        <ele>109</ele>
        <time>2024-04-06T13:31:11.877Z</time>
      </trkpt>
      <trkpt lat="43.87399" lon="3.97576">
        <ele>109.2</ele>
        <time>2024-04-06T13:31:13.082Z</time>
      </trkpt>
      <trkpt lat="43.874" lon="3.97572">
        <ele>109.4</ele>
        <time>2024-04-06T13:31:14.287Z</time>
      </trkpt>
      <trkpt lat="43.87401" lon="3.97568">
        <ele>109.5</ele>
        <time>2024-04-06T13:31:15.370Z</time>
      </trkpt>
      <trkpt lat="43.87402" lon="3.97564">
        <ele>109.7</ele>
        <time>2024-04-06T13:31:16.575Z</time>
      </trkpt>
      <trkpt lat="43.87403" lon="3.9756">
        <ele>110</ele>
        <time>2024-04-06T13:31:17.922Z</time>
      </trkpt>
      <trkpt lat="43.87404" lon="3.97555">
        <ele>110.2</ele>
        <time>2024-04-06T13:31:19.341Z</time>
      </trkpt>
      <trkpt lat="43.87405" lon="3.97551">
        <ele>110.3</ele>
        <time>2024-04-06T13:31:20.424Z</time>
      </trkpt>
      <trkpt lat="43.87406" lon="3.97547">
        <ele>110.5</ele>
        <time>2024-04-06T13:31:21.629Z</time>
      </trkpt>
      <trkpt lat="43.87407" lon="3.97543">
        <ele>110.6</ele>
        <time>2024-04-06T13:31:22.711Z</time>
      </trkpt>
      <trkpt lat="43.87408" lon="3.97539">
        <ele>110.8</ele>
        <time>2024-04-06T13:31:23.916Z</time>
      </trkpt>
      <trkpt lat="43.87408" lon="3.97535">
        <ele>110.8</ele>
        <time>2024-04-06T13:31:24.839Z</time>
      </trkpt>
      <trkpt lat="43.87409" lon="3.97531">
        <ele>110.9</ele>
        <time>2024-04-06T13:31:25.921Z</time>
      </trkpt>
      <trkpt lat="43.8741" lon="3.97527">
        <ele>111.1</ele>
        <time>2024-04-06T13:31:27.126Z</time>
      </trkpt>
      <trkpt lat="43.87411" lon="3.97523">
        <ele>111.3</ele>
        <time>2024-04-06T13:31:28.331Z</time>
      </trkpt>
      <trkpt lat="43.87411" lon="3.97519">
        <ele>111.4</ele>
        <time>2024-04-06T13:31:29.360Z</time>
      </trkpt>
      <trkpt lat="43.87412" lon="3.97516">
        <ele>111.7</ele>
        <time>2024-04-06T13:31:30.520Z</time>
      </trkpt>
      <trkpt lat="43.87413" lon="3.97512">
        <ele>112</ele>
        <time>2024-04-06T13:31:31.867Z</time>
      </trkpt>
      <trkpt lat="43.87413" lon="3.97509">
        <ele>112.1</ele>
        <time>2024-04-06T13:31:32.669Z</time>
      </trkpt>
      <trkpt lat="43.87413" lon="3.97505">
        <ele>112.2</ele>
        <time>2024-04-06T13:31:33.698Z</time>
      </trkpt>
      <trkpt lat="43.87413" lon="3.97502">
        <ele>112.3</ele>
        <time>2024-04-06T13:31:34.499Z</time>
      </trkpt>
      <trkpt lat="43.87414" lon="3.97499">
        <ele>112.5</ele>
        <time>2024-04-06T13:31:35.500Z</time>
      </trkpt>
      <trkpt lat="43.87414" lon="3.97496">
        <ele>112.5</ele>
        <time>2024-04-06T13:31:36.192Z</time>
      </trkpt>
      <trkpt lat="43.87414" lon="3.97493">
        <ele>112.5</ele>
        <time>2024-04-06T13:31:36.884Z</time>
      </trkpt>
      <trkpt lat="43.87414" lon="3.9749">
        <ele>112.5</ele>
        <time>2024-04-06T13:31:37.576Z</time>
      </trkpt>
      <trkpt lat="43.87414" lon="3.97487">
        <ele>112.5</ele>
        <time>2024-04-06T13:31:38.268Z</time>
      </trkpt>
      <trkpt lat="43.87415" lon="3.97484">
        <ele>112.7</ele>
        <time>2024-04-06T13:31:39.269Z</time>
      </trkpt>
      <trkpt lat="43.87415" lon="3.97481">
        <ele>112.7</ele>
        <time>2024-04-06T13:31:39.961Z</time>
      </trkpt>
      <trkpt lat="43.87416" lon="3.97476">
        <ele>112.9</ele>
        <time>2024-04-06T13:31:41.380Z</time>
      </trkpt>
      <trkpt lat="43.87417" lon="3.97473">
        <ele>113</ele>
        <time>2024-04-06T13:31:42.250Z</time>
      </trkpt>
      <trkpt lat="43.87418" lon="3.9747">
        <ele>113.1</ele>
        <time>2024-04-06T13:31:43.121Z</time>
      </trkpt>
      <trkpt lat="43.87419" lon="3.97467">
        <ele>113.1</ele>
        <time>2024-04-06T13:31:43.883Z</time>
      </trkpt>
      <trkpt lat="43.8742" lon="3.97464">
        <ele>113.1</ele>
        <time>2024-04-06T13:31:44.645Z</time>
      </trkpt>
      <trkpt lat="43.87421" lon="3.9746">
        <ele>113</ele>
        <time>2024-04-06T13:31:45.530Z</time>
      </trkpt>
      <trkpt lat="43.87423" lon="3.97456">
        <ele>113.1</ele>
        <time>2024-04-06T13:31:46.758Z</time>
      </trkpt>
      <trkpt lat="43.87425" lon="3.97452">
        <ele>113.2</ele>
        <time>2024-04-06T13:31:47.985Z</time>
      </trkpt>
      <trkpt lat="43.87427" lon="3.97448">
        <ele>113.2</ele>
        <time>2024-04-06T13:31:49.108Z</time>
      </trkpt>
      <trkpt lat="43.87428" lon="3.97444">
        <ele>113.2</ele>
        <time>2024-04-06T13:31:50.085Z</time>
      </trkpt>
      <trkpt lat="43.87429" lon="3.97439">
        <ele>113.1</ele>
        <time>2024-04-06T13:31:51.189Z</time>
      </trkpt>
      <trkpt lat="43.8743" lon="3.97435">
        <ele>113.1</ele>
        <time>2024-04-06T13:31:52.165Z</time>
      </trkpt>
      <trkpt lat="43.87431" lon="3.9743">
        <ele>113</ele>
        <time>2024-04-06T13:31:53.269Z</time>
      </trkpt>
      <trkpt lat="43.87432" lon="3.97426">
        <ele>113.1</ele>
        <time>2024-04-06T13:31:54.351Z</time>
      </trkpt>
      <trkpt lat="43.87433" lon="3.97423">
        <ele>113.1</ele>
        <time>2024-04-06T13:31:55.114Z</time>
      </trkpt>
      <trkpt lat="43.87436" lon="3.97423">
        <ele>113.6</ele>
        <time>2024-04-06T13:31:56.811Z</time>
      </trkpt>
      <trkpt lat="43.87439" lon="3.97427">
        <ele>114.2</ele>
        <time>2024-04-06T13:31:58.977Z</time>
      </trkpt>
      <trkpt lat="43.87441" lon="3.9743">
        <ele>114.5</ele>
        <time>2024-04-06T13:32:00.293Z</time>
      </trkpt>
      <trkpt lat="43.87445" lon="3.97431">
        <ele>115.1</ele>
        <time>2024-04-06T13:32:02.435Z</time>
      </trkpt>
      <trkpt lat="43.87448" lon="3.97432">
        <ele>115.3</ele>
        <time>2024-04-06T13:32:03.650Z</time>
      </trkpt>
      <trkpt lat="43.8745" lon="3.97433">
        <ele>115.5</ele>
        <time>2024-04-06T13:32:04.575Z</time>
      </trkpt>
      <trkpt lat="43.87452" lon="3.97433">
        <ele>115.7</ele>
        <time>2024-04-06T13:32:05.464Z</time>
      </trkpt>
      <trkpt lat="43.87454" lon="3.97434">
        <ele>115.9</ele>
        <time>2024-04-06T13:32:06.389Z</time>
      </trkpt>
      <trkpt lat="43.87455" lon="3.97435">
        <ele>116</ele>
        <time>2024-04-06T13:32:06.902Z</time>
      </trkpt>
      <trkpt lat="43.87459" lon="3.97436">
        <ele>116.4</ele>
        <time>2024-04-06T13:32:08.697Z</time>
      </trkpt>
      <trkpt lat="43.8746" lon="3.97437">
        <ele>116.5</ele>
        <time>2024-04-06T13:32:09.210Z</time>
      </trkpt>
      <trkpt lat="43.87464" lon="3.97437">
        <ele>116.9</ele>
        <time>2024-04-06T13:32:10.986Z</time>
      </trkpt>
      <trkpt lat="43.87467" lon="3.97439">
        <ele>117.3</ele>
        <time>2024-04-06T13:32:12.574Z</time>
      </trkpt>
      <trkpt lat="43.8747" lon="3.9744">
        <ele>117.6</ele>
        <time>2024-04-06T13:32:13.931Z</time>
      </trkpt>
      <trkpt lat="43.87473" lon="3.97441">
        <ele>118</ele>
        <time>2024-04-06T13:32:15.453Z</time>
      </trkpt>
      <trkpt lat="43.87476" lon="3.97441">
        <ele>118.4</ele>
        <time>2024-04-06T13:32:16.954Z</time>
      </trkpt>
      <trkpt lat="43.87478" lon="3.97443">
        <ele>118.8</ele>
        <time>2024-04-06T13:32:18.326Z</time>
      </trkpt>
      <trkpt lat="43.87481" lon="3.97445">
        <ele>119.3</ele>
        <time>2024-04-06T13:32:20.097Z</time>
      </trkpt>
      <trkpt lat="43.87483" lon="3.97446">
        <ele>119.6</ele>
        <time>2024-04-06T13:32:21.191Z</time>
      </trkpt>
      <trkpt lat="43.87486" lon="3.97448">
        <ele>120</ele>
        <time>2024-04-06T13:32:22.778Z</time>
      </trkpt>
      <trkpt lat="43.87489" lon="3.9745">
        <ele>120.4</ele>
        <time>2024-04-06T13:32:24.365Z</time>
      </trkpt>
      <trkpt lat="43.87492" lon="3.97452">
        <ele>120.7</ele>
        <time>2024-04-06T13:32:25.794Z</time>
      </trkpt>
      <trkpt lat="43.87495" lon="3.97454">
        <ele>121.1</ele>
        <time>2024-04-06T13:32:27.381Z</time>
      </trkpt>
      <trkpt lat="43.87498" lon="3.97455">
        <ele>121.4</ele>
        <time>2024-04-06T13:32:28.739Z</time>
      </trkpt>
      <trkpt lat="43.87501" lon="3.97456">
        <ele>121.7</ele>
        <time>2024-04-06T13:32:30.096Z</time>
      </trkpt>
      <trkpt lat="43.87504" lon="3.97457">
        <ele>122.1</ele>
        <time>2024-04-06T13:32:31.618Z</time>
      </trkpt>
      <trkpt lat="43.87507" lon="3.97458">
        <ele>122.4</ele>
        <time>2024-04-06T13:32:32.975Z</time>
      </trkpt>
      <trkpt lat="43.8751" lon="3.97459">
        <ele>122.7</ele>
        <time>2024-04-06T13:32:34.333Z</time>
      </trkpt>
      <trkpt lat="43.87513" lon="3.9746">
        <ele>123</ele>
        <time>2024-04-06T13:32:35.690Z</time>
      </trkpt>
      <trkpt lat="43.87516" lon="3.9746">
        <ele>123.4</ele>
        <time>2024-04-06T13:32:37.190Z</time>
      </trkpt>
      <trkpt lat="43.8752" lon="3.97461">
        <ele>123.9</ele>
        <time>2024-04-06T13:32:39.148Z</time>
      </trkpt>
      <trkpt lat="43.87523" lon="3.97461">
        <ele>124.2</ele>
        <time>2024-04-06T13:32:40.481Z</time>
      </trkpt>
      <trkpt lat="43.87526" lon="3.97462">
        <ele>124.5</ele>
        <time>2024-04-06T13:32:41.838Z</time>
      </trkpt>
      <trkpt lat="43.87528" lon="3.97462">
        <ele>124.8</ele>
        <time>2024-04-06T13:32:42.901Z</time>
      </trkpt>
      <trkpt lat="43.87531" lon="3.97462">
        <ele>125.1</ele>
        <time>2024-04-06T13:32:44.234Z</time>
      </trkpt>
      <trkpt lat="43.87534" lon="3.97462">
        <ele>125.4</ele>
        <time>2024-04-06T13:32:45.566Z</time>
      </trkpt>
      <trkpt lat="43.87537" lon="3.97462">
        <ele>125.7</ele>
        <time>2024-04-06T13:32:46.898Z</time>
      </trkpt>
      <trkpt lat="43.8754" lon="3.97462">
        <ele>126.1</ele>
        <time>2024-04-06T13:32:48.399Z</time>
      </trkpt>
      <trkpt lat="43.8754" lon="3.97461">
        <ele>126.1</ele>
        <time>2024-04-06T13:32:48.629Z</time>
      </trkpt>
      <trkpt lat="43.87541" lon="3.97455">
        <ele>126.7</ele>
        <time>2024-04-06T13:32:50.864Z</time>
      </trkpt>
      <trkpt lat="43.87542" lon="3.97454">
        <ele>126.8</ele>
        <time>2024-04-06T13:32:51.377Z</time>
      </trkpt>
      <trkpt lat="43.87544" lon="3.97453">
        <ele>127.1</ele>
        <time>2024-04-06T13:32:52.471Z</time>
      </trkpt>
      <trkpt lat="43.87547" lon="3.97451">
        <ele>127.6</ele>
        <time>2024-04-06T13:32:54.242Z</time>
      </trkpt>
      <trkpt lat="43.87549" lon="3.97451">
        <ele>127.8</ele>
        <time>2024-04-06T13:32:55.130Z</time>
      </trkpt>
      <trkpt lat="43.87551" lon="3.97451">
        <ele>128</ele>
        <time>2024-04-06T13:32:56.019Z</time>
      </trkpt>
      <trkpt lat="43.87554" lon="3.9745">
        <ele>128.4</ele>
        <time>2024-04-06T13:32:57.541Z</time>
      </trkpt>
      <trkpt lat="43.87556" lon="3.97447">
        <ele>128.8</ele>
        <time>2024-04-06T13:32:59.027Z</time>
      </trkpt>
      <trkpt lat="43.87557" lon="3.97444">
        <ele>129.1</ele>
        <time>2024-04-06T13:33:00.187Z</time>
      </trkpt>
      <trkpt lat="43.87557" lon="3.97441">
        <ele>129.3</ele>
        <time>2024-04-06T13:33:01.123Z</time>
      </trkpt>
      <trkpt lat="43.87557" lon="3.97437">
        <ele>129.6</ele>
        <time>2024-04-06T13:33:02.422Z</time>
      </trkpt>
      <trkpt lat="43.87559" lon="3.97433">
        <ele>130</ele>
        <time>2024-04-06T13:33:04.059Z</time>
      </trkpt>
      <trkpt lat="43.8756" lon="3.9743">
        <ele>130.3</ele>
        <time>2024-04-06T13:33:05.219Z</time>
      </trkpt>
      <trkpt lat="43.87562" lon="3.97428">
        <ele>130.6</ele>
        <time>2024-04-06T13:33:06.401Z</time>
      </trkpt>
      <trkpt lat="43.87564" lon="3.97426">
        <ele>130.8</ele>
        <time>2024-04-06T13:33:07.427Z</time>
      </trkpt>
      <trkpt lat="43.87565" lon="3.97425">
        <ele>131</ele>
        <time>2024-04-06T13:33:08.113Z</time>
      </trkpt>
      <trkpt lat="43.87567" lon="3.97423">
        <ele>131.3</ele>
        <time>2024-04-06T13:33:09.295Z</time>
      </trkpt>
      <trkpt lat="43.87568" lon="3.9742">
        <ele>131.6</ele>
        <time>2024-04-06T13:33:10.455Z</time>
      </trkpt>
      <trkpt lat="43.87569" lon="3.97417">
        <ele>131.9</ele>
        <time>2024-04-06T13:33:11.615Z</time>
      </trkpt>
      <trkpt lat="43.87569" lon="3.97414">
        <ele>132.2</ele>
        <time>2024-04-06T13:33:12.718Z</time>
      </trkpt>
      <trkpt lat="43.8757" lon="3.97411">
        <ele>132.5</ele>
        <time>2024-04-06T13:33:13.878Z</time>
      </trkpt>
      <trkpt lat="43.87571" lon="3.97408">
        <ele>132.8</ele>
        <time>2024-04-06T13:33:15.038Z</time>
      </trkpt>
      <trkpt lat="43.87571" lon="3.97405">
        <ele>133</ele>
        <time>2024-04-06T13:33:15.974Z</time>
      </trkpt>
      <trkpt lat="43.87571" lon="3.97401">
        <ele>133.3</ele>
        <time>2024-04-06T13:33:17.273Z</time>
      </trkpt>
      <trkpt lat="43.8757" lon="3.97398">
        <ele>133.4</ele>
        <time>2024-04-06T13:33:18.143Z</time>
      </trkpt>
      <trkpt lat="43.87571" lon="3.97394">
        <ele>133.8</ele>
        <time>2024-04-06T13:33:19.657Z</time>
      </trkpt>
      <trkpt lat="43.87571" lon="3.97391">
        <ele>134.1</ele>
        <time>2024-04-06T13:33:20.760Z</time>
      </trkpt>
      <trkpt lat="43.87571" lon="3.97385">
        <ele>134.4</ele>
        <time>2024-04-06T13:33:22.490Z</time>
      </trkpt>
      <trkpt lat="43.87568" lon="3.97377">
        <ele>134.2</ele>
        <time>2024-04-06T13:33:24.385Z</time>
      </trkpt>
      <trkpt lat="43.87566" lon="3.97372">
        <ele>134.1</ele>
        <time>2024-04-06T13:33:25.610Z</time>
      </trkpt>
      <trkpt lat="43.87565" lon="3.9737">
        <ele>134</ele>
        <time>2024-04-06T13:33:26.102Z</time>
      </trkpt>
      <trkpt lat="43.87568" lon="3.97378">
        <ele>134.2</ele>
        <time>2024-04-06T13:33:28.392Z</time>
      </trkpt>
      <trkpt lat="43.87571" lon="3.97385">
        <ele>134.4</ele>
        <time>2024-04-06T13:33:30.483Z</time>
      </trkpt>
      <trkpt lat="43.87568" lon="3.97376">
        <ele>134.3</ele>
        <time>2024-04-06T13:33:32.585Z</time>
      </trkpt>
      <trkpt lat="43.87564" lon="3.97366">
        <ele>134</ele>
        <time>2024-04-06T13:33:35.035Z</time>
      </trkpt>
      <trkpt lat="43.87565" lon="3.97363">
        <ele>134.3</ele>
        <time>2024-04-06T13:33:36.195Z</time>
      </trkpt>
      <trkpt lat="43.87566" lon="3.97361">
        <ele>134.5</ele>
        <time>2024-04-06T13:33:37.014Z</time>
      </trkpt>
      <trkpt lat="43.87569" lon="3.97358">
        <ele>135</ele>
        <time>2024-04-06T13:33:38.876Z</time>
      </trkpt>
      <trkpt lat="43.87571" lon="3.97355">
        <ele>135.4</ele>
        <time>2024-04-06T13:33:40.362Z</time>
      </trkpt>
      <trkpt lat="43.87573" lon="3.97352">
        <ele>135.8</ele>
        <time>2024-04-06T13:33:41.849Z</time>
      </trkpt>
      <trkpt lat="43.87575" lon="3.97348">
        <ele>136.3</ele>
        <time>2024-04-06T13:33:43.663Z</time>
      </trkpt>
      <trkpt lat="43.87578" lon="3.97345">
        <ele>136.8</ele>
        <time>2024-04-06T13:33:45.525Z</time>
      </trkpt>
      <trkpt lat="43.8758" lon="3.97343">
        <ele>137.2</ele>
        <time>2024-04-06T13:33:46.897Z</time>
      </trkpt>
      <trkpt lat="43.87582" lon="3.9734">
        <ele>137.6</ele>
        <time>2024-04-06T13:33:48.384Z</time>
      </trkpt>
      <trkpt lat="43.87585" lon="3.97337">
        <ele>138</ele>
        <time>2024-04-06T13:33:50.074Z</time>
      </trkpt>
      <trkpt lat="43.87587" lon="3.97334">
        <ele>138.4</ele>
        <time>2024-04-06T13:33:51.560Z</time>
      </trkpt>
      <trkpt lat="43.87588" lon="3.97331">
        <ele>138.5</ele>
        <time>2024-04-06T13:33:52.431Z</time>
      </trkpt>
      <trkpt lat="43.87589" lon="3.97326">
        <ele>138.7</ele>
        <time>2024-04-06T13:33:53.849Z</time>
      </trkpt>
      <trkpt lat="43.87588" lon="3.97324">
        <ele>138.6</ele>
        <time>2024-04-06T13:33:54.341Z</time>
      </trkpt>
      <trkpt lat="43.87588" lon="3.9732">
        <ele>138.6</ele>
        <time>2024-04-06T13:33:55.263Z</time>
      </trkpt>
      <trkpt lat="43.87588" lon="3.97317">
        <ele>138.6</ele>
        <time>2024-04-06T13:33:55.955Z</time>
      </trkpt>
      <trkpt lat="43.87588" lon="3.97313">
        <ele>138.6</ele>
        <time>2024-04-06T13:33:56.878Z</time>
      </trkpt>
      <trkpt lat="43.87588" lon="3.9731">
        <ele>138.6</ele>
        <time>2024-04-06T13:33:57.570Z</time>
      </trkpt>
      <trkpt lat="43.87587" lon="3.97307">
        <ele>138.5</ele>
        <time>2024-04-06T13:33:58.242Z</time>
      </trkpt>
      <trkpt lat="43.87585" lon="3.97303">
        <ele>138.3</ele>
        <time>2024-04-06T13:33:59.224Z</time>
      </trkpt>
      <trkpt lat="43.87583" lon="3.973">
        <ele>138.2</ele>
        <time>2024-04-06T13:34:00.075Z</time>
      </trkpt>
      <trkpt lat="43.87581" lon="3.97296">
        <ele>138</ele>
        <time>2024-04-06T13:34:01.058Z</time>
      </trkpt>
      <trkpt lat="43.8758" lon="3.97291">
        <ele>138</ele>
        <time>2024-04-06T13:34:02.255Z</time>
      </trkpt>
      <trkpt lat="43.8758" lon="3.97286">
        <ele>138.2</ele>
        <time>2024-04-06T13:34:03.631Z</time>
      </trkpt>
      <trkpt lat="43.8758" lon="3.97282">
        <ele>138.3</ele>
        <time>2024-04-06T13:34:04.660Z</time>
      </trkpt>
      <trkpt lat="43.87581" lon="3.97278">
        <ele>138.6</ele>
        <time>2024-04-06T13:34:06.007Z</time>
      </trkpt>
      <trkpt lat="43.87581" lon="3.97274">
        <ele>138.3</ele>
        <time>2024-04-06T13:34:06.815Z</time>
      </trkpt>
      <trkpt lat="43.87581" lon="3.97271">
        <ele>138.1</ele>
        <time>2024-04-06T13:34:07.420Z</time>
      </trkpt>
      <trkpt lat="43.87582" lon="3.97267">
        <ele>138</ele>
        <time>2024-04-06T13:34:08.305Z</time>
      </trkpt>
      <trkpt lat="43.87584" lon="3.97265">
        <ele>138.2</ele>
        <time>2024-04-06T13:34:09.331Z</time>
      </trkpt>
      <trkpt lat="43.87586" lon="3.97262">
        <ele>138.2</ele>
        <time>2024-04-06T13:34:10.273Z</time>
      </trkpt>
      <trkpt lat="43.87588" lon="3.9726">
        <ele>138.3</ele>
        <time>2024-04-06T13:34:11.170Z</time>
      </trkpt>
      <trkpt lat="43.8759" lon="3.97258">
        <ele>138.5</ele>
        <time>2024-04-06T13:34:12.196Z</time>
      </trkpt>
      <trkpt lat="43.87592" lon="3.97256">
        <ele>138.6</ele>
        <time>2024-04-06T13:34:13.092Z</time>
      </trkpt>
      <trkpt lat="43.87594" lon="3.97254">
        <ele>138.8</ele>
        <time>2024-04-06T13:34:14.118Z</time>
      </trkpt>
      <trkpt lat="43.87596" lon="3.97251">
        <ele>138.9</ele>
        <time>2024-04-06T13:34:15.167Z</time>
      </trkpt>
      <trkpt lat="43.87597" lon="3.97248">
        <ele>138.9</ele>
        <time>2024-04-06T13:34:15.929Z</time>
      </trkpt>
      <trkpt lat="43.87598" lon="3.97245">
        <ele>138.9</ele>
        <time>2024-04-06T13:34:16.692Z</time>
      </trkpt>
      <trkpt lat="43.87598" lon="3.97242">
        <ele>138.8</ele>
        <time>2024-04-06T13:34:17.297Z</time>
      </trkpt>
      <trkpt lat="43.87599" lon="3.97238">
        <ele>138.8</ele>
        <time>2024-04-06T13:34:18.274Z</time>
      </trkpt>
      <trkpt lat="43.876" lon="3.97234">
        <ele>138.8</ele>
        <time>2024-04-06T13:34:19.250Z</time>
      </trkpt>
      <trkpt lat="43.87601" lon="3.97229">
        <ele>138.8</ele>
        <time>2024-04-06T13:34:20.447Z</time>
      </trkpt>
      <trkpt lat="43.87601" lon="3.97224">
        <ele>138.6</ele>
        <time>2024-04-06T13:34:21.456Z</time>
      </trkpt>
      <trkpt lat="43.87602" lon="3.9722">
        <ele>138.6</ele>
        <time>2024-04-06T13:34:22.433Z</time>
      </trkpt>
      <trkpt lat="43.87603" lon="3.97215">
        <ele>138.6</ele>
        <time>2024-04-06T13:34:23.630Z</time>
      </trkpt>
      <trkpt lat="43.87605" lon="3.97211">
        <ele>138.7</ele>
        <time>2024-04-06T13:34:24.857Z</time>
      </trkpt>
      <trkpt lat="43.87606" lon="3.97207">
        <ele>138.7</ele>
        <time>2024-04-06T13:34:25.834Z</time>
      </trkpt>
      <trkpt lat="43.87607" lon="3.97202">
        <ele>138.7</ele>
        <time>2024-04-06T13:34:27.031Z</time>
      </trkpt>
      <trkpt lat="43.87609" lon="3.97198">
        <ele>138.8</ele>
        <time>2024-04-06T13:34:28.258Z</time>
      </trkpt>
      <trkpt lat="43.87611" lon="3.97193">
        <ele>138.9</ele>
        <time>2024-04-06T13:34:29.681Z</time>
      </trkpt>
      <trkpt lat="43.87614" lon="3.97189">
        <ele>139.2</ele>
        <time>2024-04-06T13:34:31.360Z</time>
      </trkpt>
      <trkpt lat="43.87616" lon="3.97184">
        <ele>139.3</ele>
        <time>2024-04-06T13:34:32.783Z</time>
      </trkpt>
      <trkpt lat="43.87619" lon="3.9718">
        <ele>139.5</ele>
        <time>2024-04-06T13:34:34.334Z</time>
      </trkpt>
      <trkpt lat="43.87622" lon="3.97176">
        <ele>139.6</ele>
        <time>2024-04-06T13:34:35.769Z</time>
      </trkpt>
      <trkpt lat="43.87625" lon="3.97173">
        <ele>139.8</ele>
        <time>2024-04-06T13:34:37.175Z</time>
      </trkpt>
      <trkpt lat="43.87628" lon="3.97171">
        <ele>140.1</ele>
        <time>2024-04-06T13:34:38.604Z</time>
      </trkpt>
      <trkpt lat="43.8763" lon="3.97168">
        <ele>140.1</ele>
        <time>2024-04-06T13:34:39.546Z</time>
      </trkpt>
      <trkpt lat="43.87631" lon="3.97165">
        <ele>140.1</ele>
        <time>2024-04-06T13:34:40.308Z</time>
      </trkpt>
      <trkpt lat="43.87634" lon="3.97163">
        <ele>140.3</ele>
        <time>2024-04-06T13:34:41.599Z</time>
      </trkpt>
      <trkpt lat="43.87636" lon="3.97162">
        <ele>140.5</ele>
        <time>2024-04-06T13:34:42.524Z</time>
      </trkpt>
      <trkpt lat="43.87639" lon="3.97163">
        <ele>140.9</ele>
        <time>2024-04-06T13:34:44.046Z</time>
      </trkpt>
      <trkpt lat="43.87641" lon="3.97164">
        <ele>141.2</ele>
        <time>2024-04-06T13:34:45.140Z</time>
      </trkpt>
      <trkpt lat="43.87643" lon="3.97164">
        <ele>141.5</ele>
        <time>2024-04-06T13:34:46.203Z</time>
      </trkpt>
      <trkpt lat="43.87645" lon="3.97164">
        <ele>141.8</ele>
        <time>2024-04-06T13:34:47.267Z</time>
      </trkpt>
      <trkpt lat="43.87647" lon="3.97163">
        <ele>142</ele>
        <time>2024-04-06T13:34:48.192Z</time>
      </trkpt>
      <trkpt lat="43.87649" lon="3.97162">
        <ele>142.2</ele>
        <time>2024-04-06T13:34:49.117Z</time>
      </trkpt>
      <trkpt lat="43.87651" lon="3.97158">
        <ele>142.3</ele>
        <time>2024-04-06T13:34:50.344Z</time>
      </trkpt>
      <trkpt lat="43.87651" lon="3.97154">
        <ele>142.1</ele>
        <time>2024-04-06T13:34:51.152Z</time>
      </trkpt>
      <trkpt lat="43.87652" lon="3.97151">
        <ele>142.1</ele>
        <time>2024-04-06T13:34:51.914Z</time>
      </trkpt>
      <trkpt lat="43.87654" lon="3.97148">
        <ele>142.1</ele>
        <time>2024-04-06T13:34:52.856Z</time>
      </trkpt>
      <trkpt lat="43.87657" lon="3.97147">
        <ele>142.4</ele>
        <time>2024-04-06T13:34:54.214Z</time>
      </trkpt>
      <trkpt lat="43.87659" lon="3.97146">
        <ele>142.6</ele>
        <time>2024-04-06T13:34:55.139Z</time>
      </trkpt>
      <trkpt lat="43.87662" lon="3.97145">
        <ele>142.9</ele>
        <time>2024-04-06T13:34:56.496Z</time>
      </trkpt>
      <trkpt lat="43.87664" lon="3.97144">
        <ele>143.1</ele>
        <time>2024-04-06T13:34:57.421Z</time>
      </trkpt>
      <trkpt lat="43.87666" lon="3.97144">
        <ele>143.3</ele>
        <time>2024-04-06T13:34:58.309Z</time>
      </trkpt>
      <trkpt lat="43.87668" lon="3.97143">
        <ele>143.4</ele>
        <time>2024-04-06T13:34:59.099Z</time>
      </trkpt>
      <trkpt lat="43.8767" lon="3.97143">
        <ele>143.7</ele>
        <time>2024-04-06T13:35:00.162Z</time>
      </trkpt>
      <trkpt lat="43.87672" lon="3.97143">
        <ele>143.9</ele>
        <time>2024-04-06T13:35:01.050Z</time>
      </trkpt>
      <trkpt lat="43.87674" lon="3.97142">
        <ele>144</ele>
        <time>2024-04-06T13:35:01.840Z</time>
      </trkpt>
      <trkpt lat="43.87676" lon="3.97142">
        <ele>144.2</ele>
        <time>2024-04-06T13:35:02.728Z</time>
      </trkpt>
      <trkpt lat="43.87678" lon="3.97143">
        <ele>144.5</ele>
        <time>2024-04-06T13:35:03.822Z</time>
      </trkpt>
      <trkpt lat="43.8768" lon="3.97142">
        <ele>144.7</ele>
        <time>2024-04-06T13:35:04.747Z</time>
      </trkpt>
      <trkpt lat="43.87682" lon="3.97142">
        <ele>144.9</ele>
        <time>2024-04-06T13:35:05.635Z</time>
      </trkpt>
      <trkpt lat="43.87684" lon="3.97142">
        <ele>145.1</ele>
        <time>2024-04-06T13:35:06.523Z</time>
      </trkpt>
      <trkpt lat="43.87686" lon="3.97141">
        <ele>145.2</ele>
        <time>2024-04-06T13:35:07.313Z</time>
      </trkpt>
      <trkpt lat="43.87688" lon="3.97141">
        <ele>145.5</ele>
        <time>2024-04-06T13:35:08.376Z</time>
      </trkpt>
      <trkpt lat="43.8769" lon="3.9714">
        <ele>145.6</ele>
        <time>2024-04-06T13:35:09.166Z</time>
      </trkpt>
      <trkpt lat="43.87692" lon="3.97138">
        <ele>145.6</ele>
        <time>2024-04-06T13:35:09.955Z</time>
      </trkpt>
      <trkpt lat="43.87694" lon="3.97137">
        <ele>145.8</ele>
        <time>2024-04-06T13:35:10.880Z</time>
      </trkpt>
      <trkpt lat="43.87696" lon="3.97136">
        <ele>145.7</ele>
        <time>2024-04-06T13:35:11.475Z</time>
      </trkpt>
      <trkpt lat="43.87698" lon="3.97136">
        <ele>145.8</ele>
        <time>2024-04-06T13:35:12.225Z</time>
      </trkpt>
      <trkpt lat="43.877" lon="3.97135">
        <ele>145.8</ele>
        <time>2024-04-06T13:35:12.905Z</time>
      </trkpt>
      <trkpt lat="43.87703" lon="3.97135">
        <ele>145.9</ele>
        <time>2024-04-06T13:35:13.971Z</time>
      </trkpt>
      <trkpt lat="43.87705" lon="3.97134">
        <ele>145.9</ele>
        <time>2024-04-06T13:35:14.651Z</time>
      </trkpt>
      <trkpt lat="43.87708" lon="3.97133">
        <ele>146</ele>
        <time>2024-04-06T13:35:15.745Z</time>
      </trkpt>
      <trkpt lat="43.87711" lon="3.97133">
        <ele>146.1</ele>
        <time>2024-04-06T13:35:16.810Z</time>
      </trkpt>
      <trkpt lat="43.87713" lon="3.97132">
        <ele>146.1</ele>
        <time>2024-04-06T13:35:17.491Z</time>
      </trkpt>
      <trkpt lat="43.87715" lon="3.9713">
        <ele>146</ele>
        <time>2024-04-06T13:35:18.189Z</time>
      </trkpt>
      <trkpt lat="43.87718" lon="3.97129">
        <ele>146.1</ele>
        <time>2024-04-06T13:35:19.282Z</time>
      </trkpt>
      <trkpt lat="43.8772" lon="3.9713">
        <ele>146.3</ele>
        <time>2024-04-06T13:35:20.207Z</time>
      </trkpt>
      <trkpt lat="43.87721" lon="3.97132">
        <ele>146.4</ele>
        <time>2024-04-06T13:35:20.880Z</time>
      </trkpt>
      <trkpt lat="43.87723" lon="3.97133">
        <ele>146.6</ele>
        <time>2024-04-06T13:35:21.805Z</time>
      </trkpt>
      <trkpt lat="43.87726" lon="3.97131">
        <ele>146.6</ele>
        <time>2024-04-06T13:35:22.870Z</time>
      </trkpt>
      <trkpt lat="43.87728" lon="3.97128">
        <ele>146.4</ele>
        <time>2024-04-06T13:35:23.695Z</time>
      </trkpt>
      <trkpt lat="43.8773" lon="3.97124">
        <ele>146.2</ele>
        <time>2024-04-06T13:35:24.678Z</time>
      </trkpt>
      <trkpt lat="43.87732" lon="3.9712">
        <ele>146</ele>
        <time>2024-04-06T13:35:25.660Z</time>
      </trkpt>
      <trkpt lat="43.87734" lon="3.97117">
        <ele>145.8</ele>
        <time>2024-04-06T13:35:26.485Z</time>
      </trkpt>
      <trkpt lat="43.87736" lon="3.97115">
        <ele>145.8</ele>
        <time>2024-04-06T13:35:27.274Z</time>
      </trkpt>
      <trkpt lat="43.87738" lon="3.97115">
        <ele>145.8</ele>
        <time>2024-04-06T13:35:27.914Z</time>
      </trkpt>
      <trkpt lat="43.87741" lon="3.97115">
        <ele>146</ele>
        <time>2024-04-06T13:35:29.103Z</time>
      </trkpt>
      <trkpt lat="43.87743" lon="3.97115">
        <ele>146</ele>
        <time>2024-04-06T13:35:29.742Z</time>
      </trkpt>
      <trkpt lat="43.87745" lon="3.97115">
        <ele>146.1</ele>
        <time>2024-04-06T13:35:30.493Z</time>
      </trkpt>
      <trkpt lat="43.87746" lon="3.97119">
        <ele>146.4</ele>
        <time>2024-04-06T13:35:31.840Z</time>
      </trkpt>
      <trkpt lat="43.87748" lon="3.97123">
        <ele>146.8</ele>
        <time>2024-04-06T13:35:33.477Z</time>
      </trkpt>
      <trkpt lat="43.87751" lon="3.97127">
        <ele>147.2</ele>
        <time>2024-04-06T13:35:35.300Z</time>
      </trkpt>
      <trkpt lat="43.87753" lon="3.9713">
        <ele>147.6</ele>
        <time>2024-04-06T13:35:36.787Z</time>
      </trkpt>
      <trkpt lat="43.87756" lon="3.97132">
        <ele>148</ele>
        <time>2024-04-06T13:35:38.374Z</time>
      </trkpt>
      <trkpt lat="43.87759" lon="3.97134">
        <ele>148.4</ele>
        <time>2024-04-06T13:35:39.962Z</time>
      </trkpt>
      <trkpt lat="43.87761" lon="3.97135">
        <ele>148.6</ele>
        <time>2024-04-06T13:35:40.887Z</time>
      </trkpt>
      <trkpt lat="43.87763" lon="3.97134">
        <ele>148.7</ele>
        <time>2024-04-06T13:35:41.676Z</time>
      </trkpt>
      <trkpt lat="43.87765" lon="3.97132">
        <ele>148.7</ele>
        <time>2024-04-06T13:35:42.465Z</time>
      </trkpt>
      <trkpt lat="43.87766" lon="3.97129">
        <ele>148.6</ele>
        <time>2024-04-06T13:35:43.137Z</time>
      </trkpt>
      <trkpt lat="43.87768" lon="3.97127">
        <ele>148.7</ele>
        <time>2024-04-06T13:35:44.034Z</time>
      </trkpt>
      <trkpt lat="43.8777" lon="3.97126">
        <ele>148.8</ele>
        <time>2024-04-06T13:35:44.824Z</time>
      </trkpt>
      <trkpt lat="43.87772" lon="3.97125">
        <ele>149</ele>
        <time>2024-04-06T13:35:45.748Z</time>
      </trkpt>
      <trkpt lat="43.87774" lon="3.97126">
        <ele>149.2</ele>
        <time>2024-04-06T13:35:46.673Z</time>
      </trkpt>
      <trkpt lat="43.87777" lon="3.97128">
        <ele>149.5</ele>
        <time>2024-04-06T13:35:48.102Z</time>
      </trkpt>
      <trkpt lat="43.8778" lon="3.97129">
        <ele>149.9</ele>
        <time>2024-04-06T13:35:49.624Z</time>
      </trkpt>
      <trkpt lat="43.87783" lon="3.97131">
        <ele>150.2</ele>
        <time>2024-04-06T13:35:51.053Z</time>
      </trkpt>
      <trkpt lat="43.87786" lon="3.97132">
        <ele>150.6</ele>
        <time>2024-04-06T13:35:52.576Z</time>
      </trkpt>
      <trkpt lat="43.87789" lon="3.97132">
        <ele>150.9</ele>
        <time>2024-04-06T13:35:53.908Z</time>
      </trkpt>
      <trkpt lat="43.87792" lon="3.97132">
        <ele>151.2</ele>
        <time>2024-04-06T13:35:55.240Z</time>
      </trkpt>
      <trkpt lat="43.87795" lon="3.97128">
        <ele>151.2</ele>
        <time>2024-04-06T13:35:56.572Z</time>
      </trkpt>
      <trkpt lat="43.87796" lon="3.97126">
        <ele>151.2</ele>
        <time>2024-04-06T13:35:57.133Z</time>
      </trkpt>
      <trkpt lat="43.87797" lon="3.97123">
        <ele>151.1</ele>
        <time>2024-04-06T13:35:57.805Z</time>
      </trkpt>
      <trkpt lat="43.87797" lon="3.9712">
        <ele>150.9</ele>
        <time>2024-04-06T13:35:58.411Z</time>
      </trkpt>
      <trkpt lat="43.87797" lon="3.97118">
        <ele>150.8</ele>
        <time>2024-04-06T13:35:58.814Z</time>
      </trkpt>
      <trkpt lat="43.87797" lon="3.97114">
        <ele>150.6</ele>
        <time>2024-04-06T13:35:59.622Z</time>
      </trkpt>
      <trkpt lat="43.87799" lon="3.9711">
        <ele>150.5</ele>
        <time>2024-04-06T13:36:00.652Z</time>
      </trkpt>
      <trkpt lat="43.87801" lon="3.97108">
        <ele>150.5</ele>
        <time>2024-04-06T13:36:01.440Z</time>
      </trkpt>
      <trkpt lat="43.87803" lon="3.97106">
        <ele>150.6</ele>
        <time>2024-04-06T13:36:02.337Z</time>
      </trkpt>
      <trkpt lat="43.87805" lon="3.97104">
        <ele>150.7</ele>
        <time>2024-04-06T13:36:03.234Z</time>
      </trkpt>
      <trkpt lat="43.87807" lon="3.97102">
        <ele>150.8</ele>
        <time>2024-04-06T13:36:04.130Z</time>
      </trkpt>
      <trkpt lat="43.87809" lon="3.97099">
        <ele>150.9</ele>
        <time>2024-04-06T13:36:05.179Z</time>
      </trkpt>
      <trkpt lat="43.87811" lon="3.97098">
        <ele>151</ele>
        <time>2024-04-06T13:36:05.969Z</time>
      </trkpt>
      <trkpt lat="43.87813" lon="3.97098">
        <ele>151.2</ele>
        <time>2024-04-06T13:36:06.857Z</time>
      </trkpt>
      <trkpt lat="43.87815" lon="3.97099">
        <ele>151.4</ele>
        <time>2024-04-06T13:36:07.782Z</time>
      </trkpt>
      <trkpt lat="43.87817" lon="3.971">
        <ele>151.7</ele>
        <time>2024-04-06T13:36:08.876Z</time>
      </trkpt>
      <trkpt lat="43.87819" lon="3.971">
        <ele>151.9</ele>
        <time>2024-04-06T13:36:09.764Z</time>
      </trkpt>
      <trkpt lat="43.87821" lon="3.97101">
        <ele>152.1</ele>
        <time>2024-04-06T13:36:10.689Z</time>
      </trkpt>
      <trkpt lat="43.87825" lon="3.97102">
        <ele>152.5</ele>
        <time>2024-04-06T13:36:12.484Z</time>
      </trkpt>
      <trkpt lat="43.87828" lon="3.97103">
        <ele>152.9</ele>
        <time>2024-04-06T13:36:14.007Z</time>
      </trkpt>
      <trkpt lat="43.87831" lon="3.97104">
        <ele>153.3</ele>
        <time>2024-04-06T13:36:15.529Z</time>
      </trkpt>
      <trkpt lat="43.87834" lon="3.97103">
        <ele>153.4</ele>
        <time>2024-04-06T13:36:16.622Z</time>
      </trkpt>
      <trkpt lat="43.87836" lon="3.97103">
        <ele>153.4</ele>
        <time>2024-04-06T13:36:17.262Z</time>
      </trkpt>
      <trkpt lat="43.87838" lon="3.97106">
        <ele>153.7</ele>
        <time>2024-04-06T13:36:18.579Z</time>
      </trkpt>
      <trkpt lat="43.87841" lon="3.97109">
        <ele>153.9</ele>
        <time>2024-04-06T13:36:19.985Z</time>
      </trkpt>
      <trkpt lat="43.87843" lon="3.9711">
        <ele>153.9</ele>
        <time>2024-04-06T13:36:20.665Z</time>
      </trkpt>
      <trkpt lat="43.87845" lon="3.97112">
        <ele>154</ele>
        <time>2024-04-06T13:36:21.561Z</time>
      </trkpt>
      <trkpt lat="43.87848" lon="3.97112">
        <ele>154</ele>
        <time>2024-04-06T13:36:22.521Z</time>
      </trkpt>
      <trkpt lat="43.8785" lon="3.97112">
        <ele>154</ele>
        <time>2024-04-06T13:36:23.161Z</time>
      </trkpt>
      <trkpt lat="43.87852" lon="3.97111">
        <ele>154</ele>
        <time>2024-04-06T13:36:23.842Z</time>
      </trkpt>
      <trkpt lat="43.87855" lon="3.97111">
        <ele>154</ele>
        <time>2024-04-06T13:36:24.801Z</time>
      </trkpt>
      <trkpt lat="43.87857" lon="3.97111">
        <ele>154</ele>
        <time>2024-04-06T13:36:25.441Z</time>
      </trkpt>
      <trkpt lat="43.87859" lon="3.97111">
        <ele>154</ele>
        <time>2024-04-06T13:36:26.081Z</time>
      </trkpt>
      <trkpt lat="43.87861" lon="3.97112">
        <ele>154</ele>
        <time>2024-04-06T13:36:26.762Z</time>
      </trkpt>
      <trkpt lat="43.87863" lon="3.97114">
        <ele>154</ele>
        <time>2024-04-06T13:36:27.550Z</time>
      </trkpt>
      <trkpt lat="43.87864" lon="3.97116">
        <ele>154.1</ele>
        <time>2024-04-06T13:36:28.224Z</time>
      </trkpt>
      <trkpt lat="43.87866" lon="3.97118">
        <ele>154.1</ele>
        <time>2024-04-06T13:36:29.013Z</time>
      </trkpt>
      <trkpt lat="43.87868" lon="3.97119">
        <ele>154</ele>
        <time>2024-04-06T13:36:29.608Z</time>
      </trkpt>
      <trkpt lat="43.8787" lon="3.9712">
        <ele>154</ele>
        <time>2024-04-06T13:36:30.288Z</time>
      </trkpt>
      <trkpt lat="43.87873" lon="3.97121">
        <ele>153.9</ele>
        <time>2024-04-06T13:36:31.183Z</time>
      </trkpt>
      <trkpt lat="43.87875" lon="3.97122">
        <ele>153.9</ele>
        <time>2024-04-06T13:36:31.864Z</time>
      </trkpt>
      <trkpt lat="43.87878" lon="3.97121">
        <ele>153.7</ele>
        <time>2024-04-06T13:36:32.727Z</time>
      </trkpt>
      <trkpt lat="43.87882" lon="3.9712">
        <ele>153.6</ele>
        <time>2024-04-06T13:36:33.934Z</time>
      </trkpt>
      <trkpt lat="43.87886" lon="3.97118">
        <ele>153.4</ele>
        <time>2024-04-06T13:36:35.125Z</time>
      </trkpt>
      <trkpt lat="43.8789" lon="3.97116">
        <ele>153</ele>
        <time>2024-04-06T13:36:36.315Z</time>
      </trkpt>
      <trkpt lat="43.87894" lon="3.97114">
        <ele>152.4</ele>
        <time>2024-04-06T13:36:37.506Z</time>
      </trkpt>
      <trkpt lat="43.87899" lon="3.97114">
        <ele>151.6</ele>
        <time>2024-04-06T13:36:38.906Z</time>
      </trkpt>
      <trkpt lat="43.87904" lon="3.97113">
        <ele>150.9</ele>
        <time>2024-04-06T13:36:40.320Z</time>
      </trkpt>
      <trkpt lat="43.87909" lon="3.97114">
        <ele>150.2</ele>
        <time>2024-04-06T13:36:41.734Z</time>
      </trkpt>
      <trkpt lat="43.87914" lon="3.97114">
        <ele>149.5</ele>
        <time>2024-04-06T13:36:43.134Z</time>
      </trkpt>
      <trkpt lat="43.87919" lon="3.97119">
        <ele>148.9</ele>
        <time>2024-04-06T13:36:44.860Z</time>
      </trkpt>
      <trkpt lat="43.87923" lon="3.97123">
        <ele>148.5</ele>
        <time>2024-04-06T13:36:46.240Z</time>
      </trkpt>
      <trkpt lat="43.87926" lon="3.97126">
        <ele>148.2</ele>
        <time>2024-04-06T13:36:47.276Z</time>
      </trkpt>
      <trkpt lat="43.87932" lon="3.97127">
        <ele>147.4</ele>
        <time>2024-04-06T13:36:48.968Z</time>
      </trkpt>
      <trkpt lat="43.87937" lon="3.97127">
        <ele>146.6</ele>
        <time>2024-04-06T13:36:50.368Z</time>
      </trkpt>
      <trkpt lat="43.8794" lon="3.97126">
        <ele>146.2</ele>
        <time>2024-04-06T13:36:51.231Z</time>
      </trkpt>
      <trkpt lat="43.87945" lon="3.97126">
        <ele>145.5</ele>
        <time>2024-04-06T13:36:52.631Z</time>
      </trkpt>
      <trkpt lat="43.8795" lon="3.97126">
        <ele>144.8</ele>
        <time>2024-04-06T13:36:54.031Z</time>
      </trkpt>
      <trkpt lat="43.87953" lon="3.97127">
        <ele>144.5</ele>
        <time>2024-04-06T13:36:54.895Z</time>
      </trkpt>
      <trkpt lat="43.87957" lon="3.97125">
        <ele>143.9</ele>
        <time>2024-04-06T13:36:56.085Z</time>
      </trkpt>
      <trkpt lat="43.87961" lon="3.97124">
        <ele>143.4</ele>
        <time>2024-04-06T13:36:57.223Z</time>
      </trkpt>
      <trkpt lat="43.87964" lon="3.97121">
        <ele>143</ele>
        <time>2024-04-06T13:36:58.259Z</time>
      </trkpt>
      <trkpt lat="43.87967" lon="3.97118">
        <ele>142.6</ele>
        <time>2024-04-06T13:36:59.294Z</time>
      </trkpt>
      <trkpt lat="43.8797" lon="3.97115">
        <ele>142.3</ele>
        <time>2024-04-06T13:37:00.330Z</time>
      </trkpt>
      <trkpt lat="43.87973" lon="3.97113">
        <ele>142</ele>
        <time>2024-04-06T13:37:01.261Z</time>
      </trkpt>
      <trkpt lat="43.87977" lon="3.9711">
        <ele>141.8</ele>
        <time>2024-04-06T13:37:02.537Z</time>
      </trkpt>
      <trkpt lat="43.87981" lon="3.97108">
        <ele>141.8</ele>
        <time>2024-04-06T13:37:03.897Z</time>
      </trkpt>
      <trkpt lat="43.87985" lon="3.97107">
        <ele>141.7</ele>
        <time>2024-04-06T13:37:05.104Z</time>
      </trkpt>
      <trkpt lat="43.87989" lon="3.97108">
        <ele>141.5</ele>
        <time>2024-04-06T13:37:06.242Z</time>
      </trkpt>
      <trkpt lat="43.87994" lon="3.97108">
        <ele>141.4</ele>
        <time>2024-04-06T13:37:07.748Z</time>
      </trkpt>
      <trkpt lat="43.87998" lon="3.97109">
        <ele>141.2</ele>
        <time>2024-04-06T13:37:08.886Z</time>
      </trkpt>
      <trkpt lat="43.88003" lon="3.9711">
        <ele>141.2</ele>
        <time>2024-04-06T13:37:10.502Z</time>
      </trkpt>
      <trkpt lat="43.88007" lon="3.97111">
        <ele>141.3</ele>
        <time>2024-04-06T13:37:11.906Z</time>
      </trkpt>
      <trkpt lat="43.88011" lon="3.9711">
        <ele>141.5</ele>
        <time>2024-04-06T13:37:13.427Z</time>
      </trkpt>
      <trkpt lat="43.88014" lon="3.97108">
        <ele>141.7</ele>
        <time>2024-04-06T13:37:14.717Z</time>
      </trkpt>
      <trkpt lat="43.88017" lon="3.97106">
        <ele>141.9</ele>
        <time>2024-04-06T13:37:16.008Z</time>
      </trkpt>
      <trkpt lat="43.8802" lon="3.97104">
        <ele>142</ele>
        <time>2024-04-06T13:37:17.178Z</time>
      </trkpt>
      <trkpt lat="43.88023" lon="3.97102">
        <ele>142.2</ele>
        <time>2024-04-06T13:37:18.469Z</time>
      </trkpt>
      <trkpt lat="43.88025" lon="3.971">
        <ele>142.3</ele>
        <time>2024-04-06T13:37:19.365Z</time>
      </trkpt>
      <trkpt lat="43.88028" lon="3.97097">
        <ele>142.5</ele>
        <time>2024-04-06T13:37:20.771Z</time>
      </trkpt>
      <trkpt lat="43.88031" lon="3.97094">
        <ele>142.7</ele>
        <time>2024-04-06T13:37:22.177Z</time>
      </trkpt>
      <trkpt lat="43.88034" lon="3.9709">
        <ele>142.8</ele>
        <time>2024-04-06T13:37:23.612Z</time>
      </trkpt>
      <trkpt lat="43.88037" lon="3.97087">
        <ele>142.9</ele>
        <time>2024-04-06T13:37:24.900Z</time>
      </trkpt>
      <trkpt lat="43.88039" lon="3.97084">
        <ele>143</ele>
        <time>2024-04-06T13:37:25.948Z</time>
      </trkpt>
      <trkpt lat="43.88041" lon="3.97081">
        <ele>143.1</ele>
        <time>2024-04-06T13:37:26.997Z</time>
      </trkpt>
      <trkpt lat="43.88041" lon="3.97078">
        <ele>143.2</ele>
        <time>2024-04-06T13:37:27.798Z</time>
      </trkpt>
      <trkpt lat="43.88042" lon="3.97074">
        <ele>143.3</ele>
        <time>2024-04-06T13:37:28.880Z</time>
      </trkpt>
      <trkpt lat="43.88041" lon="3.9707">
        <ele>143.5</ele>
        <time>2024-04-06T13:37:30.085Z</time>
      </trkpt>
      <trkpt lat="43.8804" lon="3.97067">
        <ele>143.6</ele>
        <time>2024-04-06T13:37:30.956Z</time>
      </trkpt>
      <trkpt lat="43.88039" lon="3.97063">
        <ele>143.7</ele>
        <time>2024-04-06T13:37:32.038Z</time>
      </trkpt>
      <trkpt lat="43.88039" lon="3.97059">
        <ele>143.9</ele>
        <time>2024-04-06T13:37:33.191Z</time>
      </trkpt>
      <trkpt lat="43.88039" lon="3.97056">
        <ele>144</ele>
        <time>2024-04-06T13:37:33.992Z</time>
      </trkpt>
      <trkpt lat="43.88039" lon="3.97052">
        <ele>144.1</ele>
        <time>2024-04-06T13:37:35.021Z</time>
      </trkpt>
      <trkpt lat="43.8804" lon="3.97049">
        <ele>144.1</ele>
        <time>2024-04-06T13:37:35.783Z</time>
      </trkpt>
      <trkpt lat="43.8804" lon="3.97045">
        <ele>144.2</ele>
        <time>2024-04-06T13:37:36.812Z</time>
      </trkpt>
      <trkpt lat="43.8804" lon="3.97042">
        <ele>144.3</ele>
        <time>2024-04-06T13:37:37.613Z</time>
      </trkpt>
      <trkpt lat="43.88039" lon="3.97038">
        <ele>144.4</ele>
        <time>2024-04-06T13:37:38.696Z</time>
      </trkpt>
      <trkpt lat="43.88039" lon="3.97035">
        <ele>144.4</ele>
        <time>2024-04-06T13:37:39.388Z</time>
      </trkpt>
      <trkpt lat="43.88038" lon="3.97032">
        <ele>144.5</ele>
        <time>2024-04-06T13:37:40.258Z</time>
      </trkpt>
      <trkpt lat="43.88036" lon="3.97028">
        <ele>144.7</ele>
        <time>2024-04-06T13:37:41.605Z</time>
      </trkpt>
      <trkpt lat="43.88035" lon="3.97025">
        <ele>144.8</ele>
        <time>2024-04-06T13:37:42.475Z</time>
      </trkpt>
      <trkpt lat="43.88033" lon="3.97022">
        <ele>144.9</ele>
        <time>2024-04-06T13:37:43.524Z</time>
      </trkpt>
      <trkpt lat="43.88031" lon="3.97019">
        <ele>145.1</ele>
        <time>2024-04-06T13:37:44.696Z</time>
      </trkpt>
      <trkpt lat="43.88029" lon="3.97016">
        <ele>145.3</ele>
        <time>2024-04-06T13:37:45.868Z</time>
      </trkpt>
      <trkpt lat="43.88027" lon="3.97013">
        <ele>145.6</ele>
        <time>2024-04-06T13:37:47.185Z</time>
      </trkpt>
      <trkpt lat="43.88025" lon="3.9701">
        <ele>145.7</ele>
        <time>2024-04-06T13:37:48.234Z</time>
      </trkpt>
      <trkpt lat="43.88023" lon="3.97007">
        <ele>145.9</ele>
        <time>2024-04-06T13:37:49.406Z</time>
      </trkpt>
      <trkpt lat="43.88021" lon="3.97005">
        <ele>146.1</ele>
        <time>2024-04-06T13:37:50.432Z</time>
      </trkpt>
      <trkpt lat="43.88019" lon="3.97002">
        <ele>146.2</ele>
        <time>2024-04-06T13:37:51.480Z</time>
      </trkpt>
      <trkpt lat="43.88017" lon="3.97">
        <ele>146.4</ele>
        <time>2024-04-06T13:37:52.506Z</time>
      </trkpt>
      <trkpt lat="43.88015" lon="3.96997">
        <ele>146.3</ele>
        <time>2024-04-06T13:37:53.357Z</time>
      </trkpt>
      <trkpt lat="43.88013" lon="3.96995">
        <ele>146.4</ele>
        <time>2024-04-06T13:37:54.254Z</time>
      </trkpt>
      <trkpt lat="43.88011" lon="3.96992">
        <ele>146.4</ele>
        <time>2024-04-06T13:37:55.196Z</time>
      </trkpt>
      <trkpt lat="43.88009" lon="3.9699">
        <ele>146.4</ele>
        <time>2024-04-06T13:37:55.985Z</time>
      </trkpt>
      <trkpt lat="43.88006" lon="3.96988">
        <ele>146.6</ele>
        <time>2024-04-06T13:37:57.276Z</time>
      </trkpt>
      <trkpt lat="43.88004" lon="3.96986">
        <ele>146.7</ele>
        <time>2024-04-06T13:37:58.172Z</time>
      </trkpt>
      <trkpt lat="43.88002" lon="3.96984">
        <ele>146.8</ele>
        <time>2024-04-06T13:37:59.069Z</time>
      </trkpt>
      <trkpt lat="43.87999" lon="3.96983">
        <ele>147</ele>
        <time>2024-04-06T13:38:00.284Z</time>
      </trkpt>
      <trkpt lat="43.87997" lon="3.96982">
        <ele>147.1</ele>
        <time>2024-04-06T13:38:01.074Z</time>
      </trkpt>
      <trkpt lat="43.87994" lon="3.9698">
        <ele>147.2</ele>
        <time>2024-04-06T13:38:02.244Z</time>
      </trkpt>
      <trkpt lat="43.87992" lon="3.96978">
        <ele>147.2</ele>
        <time>2024-04-06T13:38:03.033Z</time>
      </trkpt>
      <trkpt lat="43.87989" lon="3.96976">
        <ele>147.3</ele>
        <time>2024-04-06T13:38:04.203Z</time>
      </trkpt>
      <trkpt lat="43.87987" lon="3.96974">
        <ele>147.4</ele>
        <time>2024-04-06T13:38:05.100Z</time>
      </trkpt>
      <trkpt lat="43.87985" lon="3.96971">
        <ele>147.5</ele>
        <time>2024-04-06T13:38:06.149Z</time>
      </trkpt>
      <trkpt lat="43.87983" lon="3.96969">
        <ele>147.5</ele>
        <time>2024-04-06T13:38:06.937Z</time>
      </trkpt>
      <trkpt lat="43.87981" lon="3.96967">
        <ele>147.6</ele>
        <time>2024-04-06T13:38:07.834Z</time>
      </trkpt>
      <trkpt lat="43.87979" lon="3.96965">
        <ele>147.6</ele>
        <time>2024-04-06T13:38:08.623Z</time>
      </trkpt>
      <trkpt lat="43.87977" lon="3.96963">
        <ele>147.7</ele>
        <time>2024-04-06T13:38:09.520Z</time>
      </trkpt>
      <trkpt lat="43.87975" lon="3.9696">
        <ele>147.8</ele>
        <time>2024-04-06T13:38:10.568Z</time>
      </trkpt>
      <trkpt lat="43.87973" lon="3.96958">
        <ele>147.9</ele>
        <time>2024-04-06T13:38:11.465Z</time>
      </trkpt>
      <trkpt lat="43.87971" lon="3.96955">
        <ele>147.9</ele>
        <time>2024-04-06T13:38:12.407Z</time>
      </trkpt>
      <trkpt lat="43.8797" lon="3.96952">
        <ele>147.8</ele>
        <time>2024-04-06T13:38:13.079Z</time>
      </trkpt>
      <trkpt lat="43.87968" lon="3.96949">
        <ele>147.7</ele>
        <time>2024-04-06T13:38:13.930Z</time>
      </trkpt>
      <trkpt lat="43.87967" lon="3.96946">
        <ele>147.6</ele>
        <time>2024-04-06T13:38:14.602Z</time>
      </trkpt>
      <trkpt lat="43.87965" lon="3.96942">
        <ele>147.4</ele>
        <time>2024-04-06T13:38:15.585Z</time>
      </trkpt>
      <trkpt lat="43.87964" lon="3.96939">
        <ele>147.3</ele>
        <time>2024-04-06T13:38:16.257Z</time>
      </trkpt>
      <trkpt lat="43.87963" lon="3.96936">
        <ele>147.2</ele>
        <time>2024-04-06T13:38:16.929Z</time>
      </trkpt>
      <trkpt lat="43.87961" lon="3.96932">
        <ele>147.1</ele>
        <time>2024-04-06T13:38:17.959Z</time>
      </trkpt>
      <trkpt lat="43.8796" lon="3.96929">
        <ele>147.1</ele>
        <time>2024-04-06T13:38:18.721Z</time>
      </trkpt>
      <trkpt lat="43.87959" lon="3.96925">
        <ele>147</ele>
        <time>2024-04-06T13:38:19.606Z</time>
      </trkpt>
      <trkpt lat="43.87958" lon="3.96921">
        <ele>147</ele>
        <time>2024-04-06T13:38:20.582Z</time>
      </trkpt>
      <trkpt lat="43.87957" lon="3.96917">
        <ele>147</ele>
        <time>2024-04-06T13:38:21.559Z</time>
      </trkpt>
      <trkpt lat="43.87956" lon="3.96913">
        <ele>147.3</ele>
        <time>2024-04-06T13:38:22.906Z</time>
      </trkpt>
      <trkpt lat="43.87955" lon="3.9691">
        <ele>147.5</ele>
        <time>2024-04-06T13:38:23.907Z</time>
      </trkpt>
      <trkpt lat="43.87953" lon="3.96906">
        <ele>147.8</ele>
        <time>2024-04-06T13:38:25.389Z</time>
      </trkpt>
      <trkpt lat="43.87952" lon="3.96902">
        <ele>148.1</ele>
        <time>2024-04-06T13:38:26.737Z</time>
      </trkpt>
      <trkpt lat="43.87951" lon="3.96899">
        <ele>148.3</ele>
        <time>2024-04-06T13:38:27.738Z</time>
      </trkpt>
      <trkpt lat="43.87949" lon="3.96896">
        <ele>148.5</ele>
        <time>2024-04-06T13:38:28.910Z</time>
      </trkpt>
      <trkpt lat="43.87948" lon="3.96893">
        <ele>148.7</ele>
        <time>2024-04-06T13:38:29.911Z</time>
      </trkpt>
      <trkpt lat="43.87947" lon="3.9689">
        <ele>148.9</ele>
        <time>2024-04-06T13:38:30.912Z</time>
      </trkpt>
      <trkpt lat="43.87946" lon="3.96887">
        <ele>149.1</ele>
        <time>2024-04-06T13:38:31.913Z</time>
      </trkpt>
      <trkpt lat="43.87945" lon="3.96885">
        <ele>149.1</ele>
        <time>2024-04-06T13:38:32.475Z</time>
      </trkpt>
      <trkpt lat="43.87946" lon="3.96881">
        <ele>149.3</ele>
        <time>2024-04-06T13:38:33.680Z</time>
      </trkpt>
      <trkpt lat="43.87949" lon="3.9688">
        <ele>149.3</ele>
        <time>2024-04-06T13:38:34.667Z</time>
      </trkpt>
      <trkpt lat="43.87952" lon="3.96882">
        <ele>149.2</ele>
        <time>2024-04-06T13:38:35.639Z</time>
      </trkpt>
      <trkpt lat="43.87954" lon="3.96884">
        <ele>149.2</ele>
        <time>2024-04-06T13:38:36.428Z</time>
      </trkpt>
      <trkpt lat="43.87957" lon="3.96886">
        <ele>149.1</ele>
        <time>2024-04-06T13:38:37.401Z</time>
      </trkpt>
      <trkpt lat="43.87959" lon="3.96888">
        <ele>149</ele>
        <time>2024-04-06T13:38:38.099Z</time>
      </trkpt>
      <trkpt lat="43.87962" lon="3.96891">
        <ele>148.8</ele>
        <time>2024-04-06T13:38:39.135Z</time>
      </trkpt>
      <trkpt lat="43.87964" lon="3.96894">
        <ele>148.6</ele>
        <time>2024-04-06T13:38:39.959Z</time>
      </trkpt>
      <trkpt lat="43.87967" lon="3.96896">
        <ele>148.5</ele>
        <time>2024-04-06T13:38:40.932Z</time>
      </trkpt>
      <trkpt lat="43.8797" lon="3.96898">
        <ele>148.3</ele>
        <time>2024-04-06T13:38:41.864Z</time>
      </trkpt>
      <trkpt lat="43.87974" lon="3.969">
        <ele>148.2</ele>
        <time>2024-04-06T13:38:43.131Z</time>
      </trkpt>
      <trkpt lat="43.87977" lon="3.96901">
        <ele>148.1</ele>
        <time>2024-04-06T13:38:44.026Z</time>
      </trkpt>
      <trkpt lat="43.87981" lon="3.96903">
        <ele>148</ele>
        <time>2024-04-06T13:38:45.293Z</time>
      </trkpt>
      <trkpt lat="43.87984" lon="3.96904">
        <ele>147.9</ele>
        <time>2024-04-06T13:38:46.188Z</time>
      </trkpt>
      <trkpt lat="43.87988" lon="3.96906">
        <ele>147.8</ele>
        <time>2024-04-06T13:38:47.455Z</time>
      </trkpt>
      <trkpt lat="43.87992" lon="3.96904">
        <ele>147.9</ele>
        <time>2024-04-06T13:38:48.919Z</time>
      </trkpt>
      <trkpt lat="43.87996" lon="3.96902">
        <ele>148.1</ele>
        <time>2024-04-06T13:38:50.498Z</time>
      </trkpt>
      <trkpt lat="43.88" lon="3.96899">
        <ele>148.3</ele>
        <time>2024-04-06T13:38:52.170Z</time>
      </trkpt>
      <trkpt lat="43.88003" lon="3.96897">
        <ele>148.4</ele>
        <time>2024-04-06T13:38:53.341Z</time>
      </trkpt>
      <trkpt lat="43.88007" lon="3.96895">
        <ele>148.6</ele>
        <time>2024-04-06T13:38:54.920Z</time>
      </trkpt>
      <trkpt lat="43.88011" lon="3.96894">
        <ele>148.6</ele>
        <time>2024-04-06T13:38:56.220Z</time>
      </trkpt>
      <trkpt lat="43.88014" lon="3.96893">
        <ele>148.7</ele>
        <time>2024-04-06T13:38:57.313Z</time>
      </trkpt>
      <trkpt lat="43.88018" lon="3.9689">
        <ele>148.9</ele>
        <time>2024-04-06T13:38:58.986Z</time>
      </trkpt>
      <trkpt lat="43.88021" lon="3.96889">
        <ele>149</ele>
        <time>2024-04-06T13:39:00.079Z</time>
      </trkpt>
      <trkpt lat="43.88025" lon="3.96888">
        <ele>149</ele>
        <time>2024-04-06T13:39:01.379Z</time>
      </trkpt>
      <trkpt lat="43.88029" lon="3.96889">
        <ele>149</ele>
        <time>2024-04-06T13:39:02.680Z</time>
      </trkpt>
      <trkpt lat="43.88032" lon="3.96891">
        <ele>148.9</ele>
        <time>2024-04-06T13:39:03.652Z</time>
      </trkpt>
      <trkpt lat="43.88036" lon="3.96894">
        <ele>148.7</ele>
        <time>2024-04-06T13:39:04.927Z</time>
      </trkpt>
      <trkpt lat="43.88039" lon="3.96897">
        <ele>148.5</ele>
        <time>2024-04-06T13:39:05.963Z</time>
      </trkpt>
      <trkpt lat="43.88043" lon="3.96899">
        <ele>148.5</ele>
        <time>2024-04-06T13:39:07.323Z</time>
      </trkpt>
      <trkpt lat="43.88047" lon="3.96901">
        <ele>148.4</ele>
        <time>2024-04-06T13:39:08.590Z</time>
      </trkpt>
      <trkpt lat="43.88051" lon="3.96905">
        <ele>148.3</ele>
        <time>2024-04-06T13:39:10.073Z</time>
      </trkpt>
      <trkpt lat="43.88053" lon="3.9691">
        <ele>148.2</ele>
        <time>2024-04-06T13:39:11.299Z</time>
      </trkpt>
      <trkpt lat="43.88054" lon="3.96916">
        <ele>148</ele>
        <time>2024-04-06T13:39:12.542Z</time>
      </trkpt>
      <trkpt lat="43.88056" lon="3.96922">
        <ele>147.4</ele>
        <time>2024-04-06T13:39:13.876Z</time>
      </trkpt>
      <trkpt lat="43.88059" lon="3.96927">
        <ele>146.9</ele>
        <time>2024-04-06T13:39:15.188Z</time>
      </trkpt>
      <trkpt lat="43.88063" lon="3.96929">
        <ele>146.8</ele>
        <time>2024-04-06T13:39:16.455Z</time>
      </trkpt>
      <trkpt lat="43.88067" lon="3.96929">
        <ele>146.9</ele>
        <time>2024-04-06T13:39:17.839Z</time>
      </trkpt>
      <trkpt lat="43.88072" lon="3.96929">
        <ele>146.9</ele>
        <time>2024-04-06T13:39:19.439Z</time>
      </trkpt>
      <trkpt lat="43.88077" lon="3.96929">
        <ele>147</ele>
        <time>2024-04-06T13:39:21.142Z</time>
      </trkpt>
      <trkpt lat="43.88082" lon="3.96929">
        <ele>147.1</ele>
        <time>2024-04-06T13:39:22.845Z</time>
      </trkpt>
      <trkpt lat="43.88087" lon="3.96929">
        <ele>147</ele>
        <time>2024-04-06T13:39:24.350Z</time>
      </trkpt>
      <trkpt lat="43.88092" lon="3.9693">
        <ele>146.7</ele>
        <time>2024-04-06T13:39:25.764Z</time>
      </trkpt>
      <trkpt lat="43.88097" lon="3.9693">
        <ele>146.5</ele>
        <time>2024-04-06T13:39:27.183Z</time>
      </trkpt>
      <trkpt lat="43.88102" lon="3.96931">
        <ele>146.3</ele>
        <time>2024-04-06T13:39:28.618Z</time>
      </trkpt>
      <trkpt lat="43.88107" lon="3.96932">
        <ele>146</ele>
        <time>2024-04-06T13:39:30.033Z</time>
      </trkpt>
      <trkpt lat="43.88112" lon="3.96932">
        <ele>145.9</ele>
        <time>2024-04-06T13:39:31.538Z</time>
      </trkpt>
      <trkpt lat="43.88117" lon="3.96933">
        <ele>145.7</ele>
        <time>2024-04-06T13:39:32.973Z</time>
      </trkpt>
      <trkpt lat="43.88122" lon="3.96934">
        <ele>145.6</ele>
        <time>2024-04-06T13:39:34.495Z</time>
      </trkpt>
      <trkpt lat="43.88127" lon="3.96934">
        <ele>145.5</ele>
        <time>2024-04-06T13:39:36.001Z</time>
      </trkpt>
      <trkpt lat="43.88132" lon="3.96935">
        <ele>145.4</ele>
        <time>2024-04-06T13:39:37.523Z</time>
      </trkpt>
      <trkpt lat="43.88138" lon="3.96935">
        <ele>145.4</ele>
        <time>2024-04-06T13:39:39.443Z</time>
      </trkpt>
      <trkpt lat="43.88143" lon="3.96936">
        <ele>145.3</ele>
        <time>2024-04-06T13:39:40.965Z</time>
      </trkpt>
      <trkpt lat="43.88148" lon="3.96937">
        <ele>145.4</ele>
        <time>2024-04-06T13:39:42.684Z</time>
      </trkpt>
      <trkpt lat="43.88153" lon="3.96937">
        <ele>145.4</ele>
        <time>2024-04-06T13:39:44.284Z</time>
      </trkpt>
      <trkpt lat="43.88158" lon="3.96938">
        <ele>145.4</ele>
        <time>2024-04-06T13:39:45.900Z</time>
      </trkpt>
      <trkpt lat="43.88163" lon="3.96939">
        <ele>145.4</ele>
        <time>2024-04-06T13:39:47.516Z</time>
      </trkpt>
      <trkpt lat="43.88168" lon="3.9694">
        <ele>145.4</ele>
        <time>2024-04-06T13:39:49.133Z</time>
      </trkpt>
      <trkpt lat="43.88173" lon="3.96942">
        <ele>145.4</ele>
        <time>2024-04-06T13:39:50.798Z</time>
      </trkpt>
      <trkpt lat="43.88177" lon="3.96943">
        <ele>145.5</ele>
        <time>2024-04-06T13:39:52.202Z</time>
      </trkpt>
      <trkpt lat="43.88182" lon="3.96943">
        <ele>145.6</ele>
        <time>2024-04-06T13:39:53.905Z</time>
      </trkpt>
      <trkpt lat="43.88187" lon="3.96944">
        <ele>145.8</ele>
        <time>2024-04-06T13:39:55.737Z</time>
      </trkpt>
      <trkpt lat="43.88191" lon="3.96945">
        <ele>145.9</ele>
        <time>2024-04-06T13:39:57.141Z</time>
      </trkpt>
      <trkpt lat="43.88196" lon="3.96946">
        <ele>145.9</ele>
        <time>2024-04-06T13:39:58.757Z</time>
      </trkpt>
      <trkpt lat="43.882" lon="3.96947">
        <ele>145.9</ele>
        <time>2024-04-06T13:40:00.058Z</time>
      </trkpt>
      <trkpt lat="43.88205" lon="3.96949">
        <ele>145.7</ele>
        <time>2024-04-06T13:40:01.541Z</time>
      </trkpt>
      <trkpt lat="43.8821" lon="3.96951">
        <ele>145.5</ele>
        <time>2024-04-06T13:40:03.025Z</time>
      </trkpt>
      <trkpt lat="43.88216" lon="3.96953">
        <ele>145.2</ele>
        <time>2024-04-06T13:40:04.752Z</time>
      </trkpt>
      <trkpt lat="43.88221" lon="3.96956">
        <ele>144.8</ele>
        <time>2024-04-06T13:40:06.278Z</time>
      </trkpt>
      <trkpt lat="43.88226" lon="3.96959">
        <ele>144</ele>
        <time>2024-04-06T13:40:07.803Z</time>
      </trkpt>
      <trkpt lat="43.88232" lon="3.96962">
        <ele>143.2</ele>
        <time>2024-04-06T13:40:09.588Z</time>
      </trkpt>
      <trkpt lat="43.88237" lon="3.96964">
        <ele>142.7</ele>
        <time>2024-04-06T13:40:11.045Z</time>
      </trkpt>
      <trkpt lat="43.88244" lon="3.96966">
        <ele>142.2</ele>
        <time>2024-04-06T13:40:13.046Z</time>
      </trkpt>
      <trkpt lat="43.88249" lon="3.96968">
        <ele>141.9</ele>
        <time>2024-04-06T13:40:14.503Z</time>
      </trkpt>
      <trkpt lat="43.88255" lon="3.96971">
        <ele>141.3</ele>
        <time>2024-04-06T13:40:16.289Z</time>
      </trkpt>
      <trkpt lat="43.88259" lon="3.96973">
        <ele>140.6</ele>
        <time>2024-04-06T13:40:17.479Z</time>
      </trkpt>
      <trkpt lat="43.88262" lon="3.96976">
        <ele>140</ele>
        <time>2024-04-06T13:40:18.514Z</time>
      </trkpt>
      <trkpt lat="43.88265" lon="3.96978">
        <ele>139.6</ele>
        <time>2024-04-06T13:40:19.446Z</time>
      </trkpt>
      <trkpt lat="43.88268" lon="3.9698">
        <ele>139.1</ele>
        <time>2024-04-06T13:40:20.378Z</time>
      </trkpt>
      <trkpt lat="43.8827" lon="3.96982">
        <ele>138.8</ele>
        <time>2024-04-06T13:40:21.068Z</time>
      </trkpt>
      <trkpt lat="43.88271" lon="3.96978">
        <ele>138.8</ele>
        <time>2024-04-06T13:40:22.045Z</time>
      </trkpt>
      <trkpt lat="43.88271" lon="3.96974">
        <ele>138.9</ele>
        <time>2024-04-06T13:40:23.074Z</time>
      </trkpt>
      <trkpt lat="43.88273" lon="3.96971">
        <ele>138.8</ele>
        <time>2024-04-06T13:40:23.924Z</time>
      </trkpt>
      <trkpt lat="43.88274" lon="3.96968">
        <ele>138.9</ele>
        <time>2024-04-06T13:40:24.795Z</time>
      </trkpt>
      <trkpt lat="43.88274" lon="3.96966">
        <ele>139.1</ele>
        <time>2024-04-06T13:40:25.530Z</time>
      </trkpt>
      <trkpt lat="43.88276" lon="3.96963">
        <ele>139.2</ele>
        <time>2024-04-06T13:40:26.579Z</time>
      </trkpt>
      <trkpt lat="43.88277" lon="3.9696">
        <ele>139.4</ele>
        <time>2024-04-06T13:40:27.580Z</time>
      </trkpt>
      <trkpt lat="43.88279" lon="3.96958">
        <ele>139.8</ele>
        <time>2024-04-06T13:40:28.952Z</time>
      </trkpt>
      <trkpt lat="43.88281" lon="3.96955">
        <ele>140.5</ele>
        <time>2024-04-06T13:40:31.153Z</time>
      </trkpt>
      <trkpt lat="43.88283" lon="3.96953">
        <ele>141.1</ele>
        <time>2024-04-06T13:40:33.039Z</time>
      </trkpt>
      <trkpt lat="43.88284" lon="3.96951">
        <ele>141.6</ele>
        <time>2024-04-06T13:40:34.633Z</time>
      </trkpt>
      <trkpt lat="43.88287" lon="3.96946">
        <ele>142.8</ele>
        <time>2024-04-06T13:40:38.408Z</time>
      </trkpt>
      <trkpt lat="43.88289" lon="3.9694">
        <ele>144</ele>
        <time>2024-04-06T13:40:42.182Z</time>
      </trkpt>
      <trkpt lat="43.88284" lon="3.96939">
        <ele>143.3</ele>
        <time>2024-04-06T13:40:43.596Z</time>
      </trkpt>
      <trkpt lat="43.88278" lon="3.96937">
        <ele>142.9</ele>
        <time>2024-04-06T13:40:45.324Z</time>
      </trkpt>
      <trkpt lat="43.88281" lon="3.96928">
        <ele>145.2</ele>
        <time>2024-04-06T13:40:53.345Z</time>
      </trkpt>
      <trkpt lat="43.88284" lon="3.96918">
        <ele>147.1</ele>
        <time>2024-04-06T13:40:59.016Z</time>
      </trkpt>
      <trkpt lat="43.88288" lon="3.96911">
        <ele>146.6</ele>
        <time>2024-04-06T13:41:00.818Z</time>
      </trkpt>
      <trkpt lat="43.88291" lon="3.96904">
        <ele>146.1</ele>
        <time>2024-04-06T13:41:02.462Z</time>
      </trkpt>
      <trkpt lat="43.88289" lon="3.96899">
        <ele>145.9</ele>
        <time>2024-04-06T13:41:03.616Z</time>
      </trkpt>
      <trkpt lat="43.88287" lon="3.96896">
        <ele>145.8</ele>
        <time>2024-04-06T13:41:04.466Z</time>
      </trkpt>
      <trkpt lat="43.88285" lon="3.96891">
        <ele>145.4</ele>
        <time>2024-04-06T13:41:05.620Z</time>
      </trkpt>
      <trkpt lat="43.88284" lon="3.96889">
        <ele>145.2</ele>
        <time>2024-04-06T13:41:06.112Z</time>
      </trkpt>
      <trkpt lat="43.88283" lon="3.96886">
        <ele>145</ele>
        <time>2024-04-06T13:41:06.779Z</time>
      </trkpt>
      <trkpt lat="43.88282" lon="3.96884">
        <ele>144.9</ele>
        <time>2024-04-06T13:41:07.270Z</time>
      </trkpt>
      <trkpt lat="43.88281" lon="3.96881">
        <ele>144.6</ele>
        <time>2024-04-06T13:41:07.937Z</time>
      </trkpt>
      <trkpt lat="43.8828" lon="3.96879">
        <ele>144.5</ele>
        <time>2024-04-06T13:41:08.428Z</time>
      </trkpt>
      <trkpt lat="43.88279" lon="3.96877">
        <ele>144.2</ele>
        <time>2024-04-06T13:41:08.919Z</time>
      </trkpt>
      <trkpt lat="43.88278" lon="3.96875">
        <ele>144</ele>
        <time>2024-04-06T13:41:09.410Z</time>
      </trkpt>
      <trkpt lat="43.88276" lon="3.96871">
        <ele>144</ele>
        <time>2024-04-06T13:41:10.533Z</time>
      </trkpt>
      <trkpt lat="43.88275" lon="3.96864">
        <ele>143.8</ele>
        <time>2024-04-06T13:41:11.973Z</time>
      </trkpt>
      <trkpt lat="43.88275" lon="3.96856">
        <ele>143.7</ele>
        <time>2024-04-06T13:41:13.920Z</time>
      </trkpt>
      <trkpt lat="43.88274" lon="3.96849">
        <ele>144</ele>
        <time>2024-04-06T13:41:15.781Z</time>
      </trkpt>
      <trkpt lat="43.88273" lon="3.96841">
        <ele>144.1</ele>
        <time>2024-04-06T13:41:17.756Z</time>
      </trkpt>
      <trkpt lat="43.88274" lon="3.96838">
        <ele>144.1</ele>
        <time>2024-04-06T13:41:18.518Z</time>
      </trkpt>
      <trkpt lat="43.88274" lon="3.96834">
        <ele>144.1</ele>
        <time>2024-04-06T13:41:19.441Z</time>
      </trkpt>
      <trkpt lat="43.88275" lon="3.96829">
        <ele>144.1</ele>
        <time>2024-04-06T13:41:20.637Z</time>
      </trkpt>
      <trkpt lat="43.88275" lon="3.96825">
        <ele>144.1</ele>
        <time>2024-04-06T13:41:21.560Z</time>
      </trkpt>
      <trkpt lat="43.88274" lon="3.9682">
        <ele>144.1</ele>
        <time>2024-04-06T13:41:22.756Z</time>
      </trkpt>
      <trkpt lat="43.88274" lon="3.96816">
        <ele>144.1</ele>
        <time>2024-04-06T13:41:23.679Z</time>
      </trkpt>
      <trkpt lat="43.88273" lon="3.96812">
        <ele>144.2</ele>
        <time>2024-04-06T13:41:24.761Z</time>
      </trkpt>
      <trkpt lat="43.88272" lon="3.96808">
        <ele>144.2</ele>
        <time>2024-04-06T13:41:25.738Z</time>
      </trkpt>
      <trkpt lat="43.88271" lon="3.96804">
        <ele>144.3</ele>
        <time>2024-04-06T13:41:26.820Z</time>
      </trkpt>
      <trkpt lat="43.88272" lon="3.96801">
        <ele>144.5</ele>
        <time>2024-04-06T13:41:27.821Z</time>
      </trkpt>
      <trkpt lat="43.88272" lon="3.96798">
        <ele>144.7</ele>
        <time>2024-04-06T13:41:28.757Z</time>
      </trkpt>
      <trkpt lat="43.88272" lon="3.96794">
        <ele>145</ele>
        <time>2024-04-06T13:41:30.055Z</time>
      </trkpt>
      <trkpt lat="43.88273" lon="3.96791">
        <ele>145.1</ele>
        <time>2024-04-06T13:41:30.926Z</time>
      </trkpt>
      <trkpt lat="43.88274" lon="3.96787">
        <ele>145.4</ele>
        <time>2024-04-06T13:41:32.273Z</time>
      </trkpt>
      <trkpt lat="43.88276" lon="3.96785">
        <ele>145.5</ele>
        <time>2024-04-06T13:41:33.170Z</time>
      </trkpt>
      <trkpt lat="43.88279" lon="3.96784">
        <ele>145.6</ele>
        <time>2024-04-06T13:41:34.263Z</time>
      </trkpt>
      <trkpt lat="43.88282" lon="3.96785">
        <ele>145.7</ele>
        <time>2024-04-06T13:41:35.356Z</time>
      </trkpt>
      <trkpt lat="43.88285" lon="3.96786">
        <ele>145.8</ele>
        <time>2024-04-06T13:41:36.449Z</time>
      </trkpt>
      <trkpt lat="43.88288" lon="3.96786">
        <ele>146</ele>
        <time>2024-04-06T13:41:37.638Z</time>
      </trkpt>
      <trkpt lat="43.88291" lon="3.96788">
        <ele>146.1</ele>
        <time>2024-04-06T13:41:38.808Z</time>
      </trkpt>
      <trkpt lat="43.88293" lon="3.96789">
        <ele>146.2</ele>
        <time>2024-04-06T13:41:39.598Z</time>
      </trkpt>
      <trkpt lat="43.88295" lon="3.9679">
        <ele>146.3</ele>
        <time>2024-04-06T13:41:40.387Z</time>
      </trkpt>
      <trkpt lat="43.88298" lon="3.96791">
        <ele>146.5</ele>
        <time>2024-04-06T13:41:41.603Z</time>
      </trkpt>
      <trkpt lat="43.883" lon="3.96792">
        <ele>146.6</ele>
        <time>2024-04-06T13:41:42.392Z</time>
      </trkpt>
      <trkpt lat="43.88302" lon="3.96792">
        <ele>146.7</ele>
        <time>2024-04-06T13:41:43.142Z</time>
      </trkpt>
      <trkpt lat="43.88304" lon="3.96793">
        <ele>146.9</ele>
        <time>2024-04-06T13:41:44.067Z</time>
      </trkpt>
      <trkpt lat="43.88306" lon="3.96794">
        <ele>147.1</ele>
        <time>2024-04-06T13:41:44.992Z</time>
      </trkpt>
      <trkpt lat="43.88307" lon="3.96795">
        <ele>147.2</ele>
        <time>2024-04-06T13:41:45.505Z</time>
      </trkpt>
      <trkpt lat="43.88309" lon="3.96796">
        <ele>147.4</ele>
        <time>2024-04-06T13:41:46.430Z</time>
      </trkpt>
      <trkpt lat="43.88311" lon="3.96797">
        <ele>147.7</ele>
        <time>2024-04-06T13:41:47.524Z</time>
      </trkpt>
      <trkpt lat="43.88313" lon="3.96798">
        <ele>147.9</ele>
        <time>2024-04-06T13:41:48.449Z</time>
      </trkpt>
      <trkpt lat="43.88315" lon="3.96799">
        <ele>148.2</ele>
        <time>2024-04-06T13:41:49.543Z</time>
      </trkpt>
      <trkpt lat="43.88317" lon="3.968">
        <ele>148.5</ele>
        <time>2024-04-06T13:41:50.637Z</time>
      </trkpt>
      <trkpt lat="43.88318" lon="3.96801">
        <ele>148.6</ele>
        <time>2024-04-06T13:41:51.149Z</time>
      </trkpt>
      <trkpt lat="43.88322" lon="3.96803">
        <ele>149.3</ele>
        <time>2024-04-06T13:41:53.537Z</time>
      </trkpt>
      <trkpt lat="43.88323" lon="3.96804">
        <ele>149.4</ele>
        <time>2024-04-06T13:41:54.050Z</time>
      </trkpt>
      <trkpt lat="43.88326" lon="3.96807">
        <ele>149.9</ele>
        <time>2024-04-06T13:41:55.912Z</time>
      </trkpt>
      <trkpt lat="43.88328" lon="3.96809">
        <ele>150.2</ele>
        <time>2024-04-06T13:41:57.094Z</time>
      </trkpt>
      <trkpt lat="43.88331" lon="3.96811">
        <ele>150.5</ele>
        <time>2024-04-06T13:41:58.523Z</time>
      </trkpt>
      <trkpt lat="43.88333" lon="3.96814">
        <ele>150.7</ele>
        <time>2024-04-06T13:41:59.695Z</time>
      </trkpt>
      <trkpt lat="43.88335" lon="3.96816">
        <ele>150.9</ele>
        <time>2024-04-06T13:42:00.721Z</time>
      </trkpt>
      <trkpt lat="43.88337" lon="3.96819">
        <ele>151</ele>
        <time>2024-04-06T13:42:01.769Z</time>
      </trkpt>
      <trkpt lat="43.88339" lon="3.9682">
        <ele>151.3</ele>
        <time>2024-04-06T13:42:02.863Z</time>
      </trkpt>
      <trkpt lat="43.8834" lon="3.96823">
        <ele>151.3</ele>
        <time>2024-04-06T13:42:03.626Z</time>
      </trkpt>
      <trkpt lat="43.88341" lon="3.96827">
        <ele>151.3</ele>
        <time>2024-04-06T13:42:04.602Z</time>
      </trkpt>
      <trkpt lat="43.88343" lon="3.9683">
        <ele>151.5</ele>
        <time>2024-04-06T13:42:05.774Z</time>
      </trkpt>
      <trkpt lat="43.88345" lon="3.96833">
        <ele>151.7</ele>
        <time>2024-04-06T13:42:06.946Z</time>
      </trkpt>
      <trkpt lat="43.88345" lon="3.96836">
        <ele>151.8</ele>
        <time>2024-04-06T13:42:07.747Z</time>
      </trkpt>
      <trkpt lat="43.88345" lon="3.96841">
        <ele>152</ele>
        <time>2024-04-06T13:42:09.124Z</time>
      </trkpt>
      <trkpt lat="43.88345" lon="3.96845">
        <ele>152.1</ele>
        <time>2024-04-06T13:42:10.152Z</time>
      </trkpt>
      <trkpt lat="43.88345" lon="3.96848">
        <ele>152.2</ele>
        <time>2024-04-06T13:42:10.953Z</time>
      </trkpt>
      <trkpt lat="43.88345" lon="3.96851">
        <ele>152.3</ele>
        <time>2024-04-06T13:42:11.755Z</time>
      </trkpt>
      <trkpt lat="43.88345" lon="3.96855">
        <ele>152.5</ele>
        <time>2024-04-06T13:42:12.908Z</time>
      </trkpt>
      <trkpt lat="43.88345" lon="3.96858">
        <ele>152.6</ele>
        <time>2024-04-06T13:42:13.709Z</time>
      </trkpt>
      <trkpt lat="43.88344" lon="3.9686">
        <ele>152.5</ele>
        <time>2024-04-06T13:42:14.200Z</time>
      </trkpt>
      <trkpt lat="43.88343" lon="3.96863">
        <ele>152.4</ele>
        <time>2024-04-06T13:42:14.872Z</time>
      </trkpt>
      <trkpt lat="43.88343" lon="3.96865">
        <ele>152.4</ele>
        <time>2024-04-06T13:42:15.333Z</time>
      </trkpt>
      <trkpt lat="43.88342" lon="3.96868">
        <ele>152.2</ele>
        <time>2024-04-06T13:42:16.000Z</time>
      </trkpt>
      <trkpt lat="43.88342" lon="3.96872">
        <ele>152.2</ele>
        <time>2024-04-06T13:42:16.923Z</time>
      </trkpt>
      <trkpt lat="43.88342" lon="3.96877">
        <ele>152.2</ele>
        <time>2024-04-06T13:42:18.076Z</time>
      </trkpt>
      <trkpt lat="43.88343" lon="3.96879">
        <ele>152.4</ele>
        <time>2024-04-06T13:42:18.894Z</time>
      </trkpt>
      <trkpt lat="43.88346" lon="3.96882">
        <ele>152.8</ele>
        <time>2024-04-06T13:42:20.584Z</time>
      </trkpt>
      <trkpt lat="43.88347" lon="3.96883">
        <ele>153</ele>
        <time>2024-04-06T13:42:21.270Z</time>
      </trkpt>
      <trkpt lat="43.88349" lon="3.96883">
        <ele>153.3</ele>
        <time>2024-04-06T13:42:22.334Z</time>
      </trkpt>
      <trkpt lat="43.88353" lon="3.96884">
        <ele>153.8</ele>
        <time>2024-04-06T13:42:24.292Z</time>
      </trkpt>
      <trkpt lat="43.88356" lon="3.96884">
        <ele>154.3</ele>
        <time>2024-04-06T13:42:25.989Z</time>
      </trkpt>
      <trkpt lat="43.88359" lon="3.96884">
        <ele>154.7</ele>
        <time>2024-04-06T13:42:27.490Z</time>
      </trkpt>
      <trkpt lat="43.88362" lon="3.96882">
        <ele>155.1</ele>
        <time>2024-04-06T13:42:29.077Z</time>
      </trkpt>
      <trkpt lat="43.88365" lon="3.9688">
        <ele>155.6</ele>
        <time>2024-04-06T13:42:30.848Z</time>
      </trkpt>
      <trkpt lat="43.88367" lon="3.96879">
        <ele>155.8</ele>
        <time>2024-04-06T13:42:31.773Z</time>
      </trkpt>
      <trkpt lat="43.8837" lon="3.96878">
        <ele>156.3</ele>
        <time>2024-04-06T13:42:33.489Z</time>
      </trkpt>
      <trkpt lat="43.88373" lon="3.96877">
        <ele>156.7</ele>
        <time>2024-04-06T13:42:35.011Z</time>
      </trkpt>
      <trkpt lat="43.88375" lon="3.96875">
        <ele>157</ele>
        <time>2024-04-06T13:42:36.193Z</time>
      </trkpt>
      <trkpt lat="43.88377" lon="3.96874">
        <ele>157.3</ele>
        <time>2024-04-06T13:42:37.287Z</time>
      </trkpt>
      <trkpt lat="43.8838" lon="3.96874">
        <ele>157.7</ele>
        <time>2024-04-06T13:42:38.788Z</time>
      </trkpt>
      <trkpt lat="43.88382" lon="3.96874">
        <ele>158</ele>
        <time>2024-04-06T13:42:39.851Z</time>
      </trkpt>
      <trkpt lat="43.88385" lon="3.96873">
        <ele>158.4</ele>
        <time>2024-04-06T13:42:41.373Z</time>
      </trkpt>
      <trkpt lat="43.88388" lon="3.96873">
        <ele>158.9</ele>
        <time>2024-04-06T13:42:43.071Z</time>
      </trkpt>
      <trkpt lat="43.88391" lon="3.96872">
        <ele>159.3</ele>
        <time>2024-04-06T13:42:44.593Z</time>
      </trkpt>
      <trkpt lat="43.88393" lon="3.96873">
        <ele>159.5</ele>
        <time>2024-04-06T13:42:45.518Z</time>
      </trkpt>
      <trkpt lat="43.88395" lon="3.96874">
        <ele>159.8</ele>
        <time>2024-04-06T13:42:46.612Z</time>
      </trkpt>
      <trkpt lat="43.88397" lon="3.96875">
        <ele>160</ele>
        <time>2024-04-06T13:42:47.537Z</time>
      </trkpt>
      <trkpt lat="43.88399" lon="3.96875">
        <ele>160.3</ele>
        <time>2024-04-06T13:42:48.600Z</time>
      </trkpt>
      <trkpt lat="43.88402" lon="3.96875">
        <ele>160.7</ele>
        <time>2024-04-06T13:42:50.101Z</time>
      </trkpt>
      <trkpt lat="43.88404" lon="3.96876">
        <ele>160.9</ele>
        <time>2024-04-06T13:42:51.026Z</time>
      </trkpt>
      <trkpt lat="43.88406" lon="3.96878">
        <ele>161.1</ele>
        <time>2024-04-06T13:42:52.051Z</time>
      </trkpt>
      <trkpt lat="43.88408" lon="3.96879">
        <ele>161.3</ele>
        <time>2024-04-06T13:42:52.976Z</time>
      </trkpt>
      <trkpt lat="43.88411" lon="3.9688">
        <ele>161.6</ele>
        <time>2024-04-06T13:42:54.334Z</time>
      </trkpt>
      <trkpt lat="43.88414" lon="3.96879">
        <ele>162</ele>
        <time>2024-04-06T13:42:55.856Z</time>
      </trkpt>
      <trkpt lat="43.88417" lon="3.9688">
        <ele>162.4</ele>
        <time>2024-04-06T13:42:57.379Z</time>
      </trkpt>
      <trkpt lat="43.88419" lon="3.96881">
        <ele>162.6</ele>
        <time>2024-04-06T13:42:58.304Z</time>
      </trkpt>
      <trkpt lat="43.88421" lon="3.96882">
        <ele>162.8</ele>
        <time>2024-04-06T13:42:59.228Z</time>
      </trkpt>
      <trkpt lat="43.88424" lon="3.96882">
        <ele>163.1</ele>
        <time>2024-04-06T13:43:00.561Z</time>
      </trkpt>
      <trkpt lat="43.88426" lon="3.96883">
        <ele>163.3</ele>
        <time>2024-04-06T13:43:01.486Z</time>
      </trkpt>
      <trkpt lat="43.88428" lon="3.96884">
        <ele>163.5</ele>
        <time>2024-04-06T13:43:02.411Z</time>
      </trkpt>
      <trkpt lat="43.88431" lon="3.96884">
        <ele>163.8</ele>
        <time>2024-04-06T13:43:03.743Z</time>
      </trkpt>
      <trkpt lat="43.88434" lon="3.96885">
        <ele>164.1</ele>
        <time>2024-04-06T13:43:05.100Z</time>
      </trkpt>
      <trkpt lat="43.88437" lon="3.96887">
        <ele>164.3</ele>
        <time>2024-04-06T13:43:06.391Z</time>
      </trkpt>
      <trkpt lat="43.88439" lon="3.96887">
        <ele>164.5</ele>
        <time>2024-04-06T13:43:07.279Z</time>
      </trkpt>
      <trkpt lat="43.88441" lon="3.96889">
        <ele>164.6</ele>
        <time>2024-04-06T13:43:08.176Z</time>
      </trkpt>
      <trkpt lat="43.88443" lon="3.96889">
        <ele>164.8</ele>
        <time>2024-04-06T13:43:09.064Z</time>
      </trkpt>
      <trkpt lat="43.88446" lon="3.9689">
        <ele>165</ele>
        <time>2024-04-06T13:43:10.279Z</time>
      </trkpt>
      <trkpt lat="43.88449" lon="3.96891">
        <ele>165.1</ele>
        <time>2024-04-06T13:43:11.372Z</time>
      </trkpt>
      <trkpt lat="43.88452" lon="3.96892">
        <ele>165.2</ele>
        <time>2024-04-06T13:43:12.465Z</time>
      </trkpt>
      <trkpt lat="43.88455" lon="3.96891">
        <ele>165.5</ele>
        <time>2024-04-06T13:43:13.823Z</time>
      </trkpt>
      <trkpt lat="43.88457" lon="3.9689">
        <ele>165.8</ele>
        <time>2024-04-06T13:43:14.916Z</time>
      </trkpt>
      <trkpt lat="43.8846" lon="3.96889">
        <ele>166.1</ele>
        <time>2024-04-06T13:43:16.274Z</time>
      </trkpt>
      <trkpt lat="43.88463" lon="3.96889">
        <ele>166.3</ele>
        <time>2024-04-06T13:43:17.463Z</time>
      </trkpt>
      <trkpt lat="43.88466" lon="3.96888">
        <ele>166.6</ele>
        <time>2024-04-06T13:43:18.820Z</time>
      </trkpt>
      <trkpt lat="43.88469" lon="3.96888">
        <ele>166.9</ele>
        <time>2024-04-06T13:43:20.152Z</time>
      </trkpt>
      <trkpt lat="43.88472" lon="3.96888">
        <ele>167.1</ele>
        <time>2024-04-06T13:43:21.341Z</time>
      </trkpt>
      <trkpt lat="43.88475" lon="3.96887">
        <ele>167.5</ele>
        <time>2024-04-06T13:43:22.864Z</time>
      </trkpt>
      <trkpt lat="43.88477" lon="3.96886">
        <ele>167.8</ele>
        <time>2024-04-06T13:43:23.957Z</time>
      </trkpt>
      <trkpt lat="43.8848" lon="3.96886">
        <ele>168.2</ele>
        <time>2024-04-06T13:43:25.458Z</time>
      </trkpt>
      <trkpt lat="43.88483" lon="3.96886">
        <ele>168.5</ele>
        <time>2024-04-06T13:43:26.790Z</time>
      </trkpt>
      <trkpt lat="43.88486" lon="3.96886">
        <ele>168.9</ele>
        <time>2024-04-06T13:43:28.290Z</time>
      </trkpt>
      <trkpt lat="43.88488" lon="3.96886">
        <ele>169.1</ele>
        <time>2024-04-06T13:43:29.179Z</time>
      </trkpt>
      <trkpt lat="43.88491" lon="3.96886">
        <ele>169.4</ele>
        <time>2024-04-06T13:43:30.511Z</time>
      </trkpt>
      <trkpt lat="43.88494" lon="3.96886">
        <ele>169.7</ele>
        <time>2024-04-06T13:43:31.843Z</time>
      </trkpt>
      <trkpt lat="43.88497" lon="3.96886">
        <ele>170.1</ele>
        <time>2024-04-06T13:43:33.344Z</time>
      </trkpt>
      <trkpt lat="43.88499" lon="3.96886">
        <ele>170.3</ele>
        <time>2024-04-06T13:43:34.232Z</time>
      </trkpt>
      <trkpt lat="43.88502" lon="3.96885">
        <ele>170.8</ele>
        <time>2024-04-06T13:43:35.948Z</time>
      </trkpt>
      <trkpt lat="43.88504" lon="3.96884">
        <ele>171.3</ele>
        <time>2024-04-06T13:43:37.521Z</time>
      </trkpt>
      <trkpt lat="43.88507" lon="3.96884">
        <ele>171.7</ele>
        <time>2024-04-06T13:43:39.021Z</time>
      </trkpt>
      <trkpt lat="43.8851" lon="3.96886">
        <ele>171.9</ele>
        <time>2024-04-06T13:43:40.312Z</time>
      </trkpt>
      <trkpt lat="43.88512" lon="3.96887">
        <ele>172</ele>
        <time>2024-04-06T13:43:41.101Z</time>
      </trkpt>
      <trkpt lat="43.88515" lon="3.96888">
        <ele>172.3</ele>
        <time>2024-04-06T13:43:42.459Z</time>
      </trkpt>
      <trkpt lat="43.88517" lon="3.96889">
        <ele>172.4</ele>
        <time>2024-04-06T13:43:43.248Z</time>
      </trkpt>
      <trkpt lat="43.8852" lon="3.9689">
        <ele>172.8</ele>
        <time>2024-04-06T13:43:44.771Z</time>
      </trkpt>
      <trkpt lat="43.88523" lon="3.96891">
        <ele>173.1</ele>
        <time>2024-04-06T13:43:46.128Z</time>
      </trkpt>
      <trkpt lat="43.88525" lon="3.96892">
        <ele>173.3</ele>
        <time>2024-04-06T13:43:47.053Z</time>
      </trkpt>
      <trkpt lat="43.88527" lon="3.96894">
        <ele>173.3</ele>
        <time>2024-04-06T13:43:47.842Z</time>
      </trkpt>
      <trkpt lat="43.8853" lon="3.96896">
        <ele>173.8</ele>
        <time>2024-04-06T13:43:49.613Z</time>
      </trkpt>
      <trkpt lat="43.88532" lon="3.96897">
        <ele>174.1</ele>
        <time>2024-04-06T13:43:50.706Z</time>
      </trkpt>
      <trkpt lat="43.88535" lon="3.96899">
        <ele>174.6</ele>
        <time>2024-04-06T13:43:52.477Z</time>
      </trkpt>
      <trkpt lat="43.88537" lon="3.969">
        <ele>175</ele>
        <time>2024-04-06T13:43:53.783Z</time>
      </trkpt>
      <trkpt lat="43.8854" lon="3.96902">
        <ele>175.5</ele>
        <time>2024-04-06T13:43:55.554Z</time>
      </trkpt>
      <trkpt lat="43.88542" lon="3.96904">
        <ele>175.7</ele>
        <time>2024-04-06T13:43:56.580Z</time>
      </trkpt>
      <trkpt lat="43.88545" lon="3.96905">
        <ele>176.2</ele>
        <time>2024-04-06T13:43:58.296Z</time>
      </trkpt>
      <trkpt lat="43.88548" lon="3.96907">
        <ele>176.7</ele>
        <time>2024-04-06T13:44:00.067Z</time>
      </trkpt>
      <trkpt lat="43.8855" lon="3.96909">
        <ele>176.8</ele>
        <time>2024-04-06T13:44:00.963Z</time>
      </trkpt>
      <trkpt lat="43.88552" lon="3.9691">
        <ele>177.2</ele>
        <time>2024-04-06T13:44:02.269Z</time>
      </trkpt>
      <trkpt lat="43.88554" lon="3.96912">
        <ele>177.3</ele>
        <time>2024-04-06T13:44:03.166Z</time>
      </trkpt>
      <trkpt lat="43.88556" lon="3.96915">
        <ele>177.4</ele>
        <time>2024-04-06T13:44:04.214Z</time>
      </trkpt>
      <trkpt lat="43.88558" lon="3.96916">
        <ele>177.7</ele>
        <time>2024-04-06T13:44:05.308Z</time>
      </trkpt>
      <trkpt lat="43.8856" lon="3.96919">
        <ele>177.8</ele>
        <time>2024-04-06T13:44:06.357Z</time>
      </trkpt>
      <trkpt lat="43.88562" lon="3.96921">
        <ele>178</ele>
        <time>2024-04-06T13:44:07.383Z</time>
      </trkpt>
      <trkpt lat="43.88564" lon="3.96923">
        <ele>178.3</ele>
        <time>2024-04-06T13:44:08.565Z</time>
      </trkpt>
      <trkpt lat="43.88567" lon="3.96925">
        <ele>178.8</ele>
        <time>2024-04-06T13:44:10.336Z</time>
      </trkpt>
      <trkpt lat="43.88569" lon="3.96927">
        <ele>179.1</ele>
        <time>2024-04-06T13:44:11.518Z</time>
      </trkpt>
      <trkpt lat="43.88571" lon="3.96929">
        <ele>179.4</ele>
        <time>2024-04-06T13:44:12.700Z</time>
      </trkpt>
      <trkpt lat="43.88574" lon="3.9693">
        <ele>180</ele>
        <time>2024-04-06T13:44:14.643Z</time>
      </trkpt>
      <trkpt lat="43.88576" lon="3.96932">
        <ele>180.4</ele>
        <time>2024-04-06T13:44:16.015Z</time>
      </trkpt>
      <trkpt lat="43.88578" lon="3.96934">
        <ele>180.7</ele>
        <time>2024-04-06T13:44:17.197Z</time>
      </trkpt>
      <trkpt lat="43.8858" lon="3.96936">
        <ele>181</ele>
        <time>2024-04-06T13:44:18.379Z</time>
      </trkpt>
      <trkpt lat="43.88583" lon="3.96938">
        <ele>181.6</ele>
        <time>2024-04-06T13:44:20.362Z</time>
      </trkpt>
      <trkpt lat="43.88585" lon="3.9694">
        <ele>181.9</ele>
        <time>2024-04-06T13:44:21.544Z</time>
      </trkpt>
      <trkpt lat="43.88588" lon="3.96942">
        <ele>182.5</ele>
        <time>2024-04-06T13:44:23.528Z</time>
      </trkpt>
      <trkpt lat="43.8859" lon="3.96945">
        <ele>182.6</ele>
        <time>2024-04-06T13:44:24.576Z</time>
      </trkpt>
      <trkpt lat="43.88592" lon="3.96947">
        <ele>182.8</ele>
        <time>2024-04-06T13:44:25.602Z</time>
      </trkpt>
      <trkpt lat="43.88595" lon="3.96949">
        <ele>183.2</ele>
        <time>2024-04-06T13:44:27.190Z</time>
      </trkpt>
      <trkpt lat="43.88597" lon="3.96951">
        <ele>183.4</ele>
        <time>2024-04-06T13:44:28.216Z</time>
      </trkpt>
      <trkpt lat="43.886" lon="3.96953">
        <ele>183.8</ele>
        <time>2024-04-06T13:44:29.803Z</time>
      </trkpt>
      <trkpt lat="43.88602" lon="3.96955">
        <ele>184.1</ele>
        <time>2024-04-06T13:44:30.985Z</time>
      </trkpt>
      <trkpt lat="43.88604" lon="3.96957">
        <ele>184.3</ele>
        <time>2024-04-06T13:44:32.011Z</time>
      </trkpt>
      <trkpt lat="43.88606" lon="3.96958">
        <ele>184.7</ele>
        <time>2024-04-06T13:44:33.317Z</time>
      </trkpt>
      <trkpt lat="43.88609" lon="3.9696">
        <ele>185.2</ele>
        <time>2024-04-06T13:44:35.088Z</time>
      </trkpt>
      <trkpt lat="43.88611" lon="3.96962">
        <ele>185.4</ele>
        <time>2024-04-06T13:44:36.114Z</time>
      </trkpt>
      <trkpt lat="43.88613" lon="3.96964">
        <ele>185.7</ele>
        <time>2024-04-06T13:44:37.296Z</time>
      </trkpt>
      <trkpt lat="43.88616" lon="3.96965">
        <ele>186.5</ele>
        <time>2024-04-06T13:44:39.815Z</time>
      </trkpt>
      <trkpt lat="43.88618" lon="3.96967">
        <ele>186.8</ele>
        <time>2024-04-06T13:44:40.998Z</time>
      </trkpt>
      <trkpt lat="43.8862" lon="3.9697">
        <ele>186.9</ele>
        <time>2024-04-06T13:44:42.046Z</time>
      </trkpt>
      <trkpt lat="43.88623" lon="3.96971">
        <ele>187.6</ele>
        <time>2024-04-06T13:44:44.254Z</time>
      </trkpt>
      <trkpt lat="43.88625" lon="3.96973">
        <ele>187.9</ele>
        <time>2024-04-06T13:44:45.436Z</time>
      </trkpt>
      <trkpt lat="43.88627" lon="3.96975">
        <ele>188.1</ele>
        <time>2024-04-06T13:44:46.462Z</time>
      </trkpt>
      <trkpt lat="43.8863" lon="3.96977">
        <ele>188.6</ele>
        <time>2024-04-06T13:44:48.233Z</time>
      </trkpt>
      <trkpt lat="43.88631" lon="3.96979">
        <ele>188.5</ele>
        <time>2024-04-06T13:44:48.724Z</time>
      </trkpt>
      <trkpt lat="43.88634" lon="3.96982">
        <ele>188.8</ele>
        <time>2024-04-06T13:44:50.263Z</time>
      </trkpt>
      <trkpt lat="43.88636" lon="3.96983">
        <ele>189.2</ele>
        <time>2024-04-06T13:44:51.569Z</time>
      </trkpt>
      <trkpt lat="43.88638" lon="3.96985">
        <ele>189.4</ele>
        <time>2024-04-06T13:44:52.595Z</time>
      </trkpt>
      <trkpt lat="43.8864" lon="3.96986">
        <ele>189.9</ele>
        <time>2024-04-06T13:44:54.168Z</time>
      </trkpt>
      <trkpt lat="43.88642" lon="3.96987">
        <ele>190.3</ele>
        <time>2024-04-06T13:44:55.474Z</time>
      </trkpt>
      <trkpt lat="43.88643" lon="3.96987">
        <ele>190.6</ele>
        <time>2024-04-06T13:44:56.441Z</time>
      </trkpt>
      <trkpt lat="43.88641" lon="3.96989">
        <ele>189.6</ele>
        <time>2024-04-06T13:44:57.131Z</time>
      </trkpt>
      <trkpt lat="43.88645" lon="3.96994">
        <ele>189.9</ele>
        <time>2024-04-06T13:44:59.189Z</time>
      </trkpt>
      <trkpt lat="43.88646" lon="3.96994">
        <ele>190.2</ele>
        <time>2024-04-06T13:45:00.156Z</time>
      </trkpt>
      <trkpt lat="43.88648" lon="3.96996">
        <ele>190.4</ele>
        <time>2024-04-06T13:45:01.182Z</time>
      </trkpt>
      <trkpt lat="43.88651" lon="3.96998">
        <ele>190.9</ele>
        <time>2024-04-06T13:45:02.953Z</time>
      </trkpt>
      <trkpt lat="43.88653" lon="3.97">
        <ele>191.1</ele>
        <time>2024-04-06T13:45:03.979Z</time>
      </trkpt>
      <trkpt lat="43.88656" lon="3.97001">
        <ele>191.8</ele>
        <time>2024-04-06T13:45:06.187Z</time>
      </trkpt>
      <trkpt lat="43.88659" lon="3.97003">
        <ele>192.3</ele>
        <time>2024-04-06T13:45:07.957Z</time>
      </trkpt>
      <trkpt lat="43.88662" lon="3.97006">
        <ele>192.8</ele>
        <time>2024-04-06T13:45:09.819Z</time>
      </trkpt>
      <trkpt lat="43.88664" lon="3.97009">
        <ele>192.9</ele>
        <time>2024-04-06T13:45:10.868Z</time>
      </trkpt>
      <trkpt lat="43.88667" lon="3.97011">
        <ele>193.5</ele>
        <time>2024-04-06T13:45:12.851Z</time>
      </trkpt>
      <trkpt lat="43.8867" lon="3.97013">
        <ele>194.3</ele>
        <time>2024-04-06T13:45:15.367Z</time>
      </trkpt>
      <trkpt lat="43.88672" lon="3.97015">
        <ele>194.7</ele>
        <time>2024-04-06T13:45:16.739Z</time>
      </trkpt>
      <trkpt lat="43.88675" lon="3.97017">
        <ele>195.4</ele>
        <time>2024-04-06T13:45:18.968Z</time>
      </trkpt>
      <trkpt lat="43.88677" lon="3.97019">
        <ele>195.7</ele>
        <time>2024-04-06T13:45:20.150Z</time>
      </trkpt>
      <trkpt lat="43.8868" lon="3.97021">
        <ele>196.4</ele>
        <time>2024-04-06T13:45:22.380Z</time>
      </trkpt>
      <trkpt lat="43.88682" lon="3.97023">
        <ele>196.8</ele>
        <time>2024-04-06T13:45:23.752Z</time>
      </trkpt>
      <trkpt lat="43.88684" lon="3.97025">
        <ele>197.1</ele>
        <time>2024-04-06T13:45:24.934Z</time>
      </trkpt>
      <trkpt lat="43.88686" lon="3.97027">
        <ele>197.4</ele>
        <time>2024-04-06T13:45:26.116Z</time>
      </trkpt>
      <trkpt lat="43.88688" lon="3.97029">
        <ele>197.7</ele>
        <time>2024-04-06T13:45:27.299Z</time>
      </trkpt>
      <trkpt lat="43.8869" lon="3.97031">
        <ele>198</ele>
        <time>2024-04-06T13:45:28.481Z</time>
      </trkpt>
      <trkpt lat="43.88692" lon="3.97033">
        <ele>198.3</ele>
        <time>2024-04-06T13:45:29.663Z</time>
      </trkpt>
      <trkpt lat="43.88695" lon="3.97035">
        <ele>198.9</ele>
        <time>2024-04-06T13:45:31.646Z</time>
      </trkpt>
      <trkpt lat="43.88697" lon="3.97037">
        <ele>199.2</ele>
        <time>2024-04-06T13:45:32.828Z</time>
      </trkpt>
      <trkpt lat="43.88699" lon="3.97039">
        <ele>199.5</ele>
        <time>2024-04-06T13:45:34.011Z</time>
      </trkpt>
      <trkpt lat="43.88701" lon="3.97041">
        <ele>199.7</ele>
        <time>2024-04-06T13:45:35.037Z</time>
      </trkpt>
      <trkpt lat="43.88703" lon="3.97043">
        <ele>200</ele>
        <time>2024-04-06T13:45:36.219Z</time>
      </trkpt>
      <trkpt lat="43.88706" lon="3.97045">
        <ele>200.6</ele>
        <time>2024-04-06T13:45:38.202Z</time>
      </trkpt>
      <trkpt lat="43.88708" lon="3.97046">
        <ele>201.1</ele>
        <time>2024-04-06T13:45:39.775Z</time>
      </trkpt>
      <trkpt lat="43.88711" lon="3.97048">
        <ele>201.7</ele>
        <time>2024-04-06T13:45:41.759Z</time>
      </trkpt>
      <trkpt lat="43.88713" lon="3.9705">
        <ele>202</ele>
        <time>2024-04-06T13:45:42.941Z</time>
      </trkpt>
      <trkpt lat="43.88715" lon="3.97051">
        <ele>202.5</ele>
        <time>2024-04-06T13:45:44.514Z</time>
      </trkpt>
      <trkpt lat="43.88717" lon="3.97054">
        <ele>202.6</ele>
        <time>2024-04-06T13:45:45.563Z</time>
      </trkpt>
      <trkpt lat="43.88718" lon="3.97056">
        <ele>202.6</ele>
        <time>2024-04-06T13:45:46.124Z</time>
      </trkpt>
      <trkpt lat="43.8872" lon="3.97058">
        <ele>202.9</ele>
        <time>2024-04-06T13:45:47.306Z</time>
      </trkpt>
      <trkpt lat="43.88722" lon="3.97059">
        <ele>203.4</ele>
        <time>2024-04-06T13:45:48.879Z</time>
      </trkpt>
      <trkpt lat="43.88724" lon="3.97061">
        <ele>203.8</ele>
        <time>2024-04-06T13:45:50.251Z</time>
      </trkpt>
      <trkpt lat="43.88726" lon="3.97063">
        <ele>204.1</ele>
        <time>2024-04-06T13:45:51.433Z</time>
      </trkpt>
      <trkpt lat="43.88727" lon="3.97064">
        <ele>204.3</ele>
        <time>2024-04-06T13:45:52.119Z</time>
      </trkpt>
      <trkpt lat="43.88728" lon="3.97064">
        <ele>204.6</ele>
        <time>2024-04-06T13:45:53.086Z</time>
      </trkpt>
      <trkpt lat="43.88731" lon="3.97069">
        <ele>204.8</ele>
        <time>2024-04-06T13:45:54.803Z</time>
      </trkpt>
      <trkpt lat="43.88733" lon="3.9707">
        <ele>205.2</ele>
        <time>2024-04-06T13:45:56.109Z</time>
      </trkpt>
      <trkpt lat="43.88735" lon="3.97071">
        <ele>205.7</ele>
        <time>2024-04-06T13:45:57.682Z</time>
      </trkpt>
      <trkpt lat="43.88737" lon="3.97073">
        <ele>205.9</ele>
        <time>2024-04-06T13:45:58.708Z</time>
      </trkpt>
      <trkpt lat="43.88739" lon="3.97074">
        <ele>206.4</ele>
        <time>2024-04-06T13:46:00.281Z</time>
      </trkpt>
      <trkpt lat="43.88741" lon="3.97076">
        <ele>206.6</ele>
        <time>2024-04-06T13:46:01.307Z</time>
      </trkpt>
      <trkpt lat="43.88743" lon="3.97078">
        <ele>206.9</ele>
        <time>2024-04-06T13:46:02.490Z</time>
      </trkpt>
      <trkpt lat="43.88745" lon="3.9708">
        <ele>207.1</ele>
        <time>2024-04-06T13:46:03.516Z</time>
      </trkpt>
      <trkpt lat="43.88747" lon="3.97082">
        <ele>207.4</ele>
        <time>2024-04-06T13:46:04.698Z</time>
      </trkpt>
      <trkpt lat="43.88749" lon="3.97083">
        <ele>207.8</ele>
        <time>2024-04-06T13:46:06.004Z</time>
      </trkpt>
      <trkpt lat="43.88752" lon="3.97085">
        <ele>208.1</ele>
        <time>2024-04-06T13:46:07.432Z</time>
      </trkpt>
      <trkpt lat="43.88754" lon="3.97086">
        <ele>208.4</ele>
        <time>2024-04-06T13:46:08.526Z</time>
      </trkpt>
      <trkpt lat="43.88756" lon="3.97087">
        <ele>208.7</ele>
        <time>2024-04-06T13:46:09.620Z</time>
      </trkpt>
      <trkpt lat="43.88758" lon="3.97087">
        <ele>209.2</ele>
        <time>2024-04-06T13:46:11.192Z</time>
      </trkpt>
      <trkpt lat="43.88761" lon="3.97095">
        <ele>208.1</ele>
        <time>2024-04-06T13:46:13.011Z</time>
      </trkpt>
      <trkpt lat="43.88762" lon="3.97098">
        <ele>207.6</ele>
        <time>2024-04-06T13:46:13.678Z</time>
      </trkpt>
      <trkpt lat="43.88762" lon="3.971">
        <ele>207.2</ele>
        <time>2024-04-06T13:46:14.082Z</time>
      </trkpt>
      <trkpt lat="43.88764" lon="3.97105">
        <ele>206.5</ele>
        <time>2024-04-06T13:46:15.236Z</time>
      </trkpt>
      <trkpt lat="43.88764" lon="3.97107">
        <ele>206</ele>
        <time>2024-04-06T13:46:15.639Z</time>
      </trkpt>
      <trkpt lat="43.88765" lon="3.97112">
        <ele>205</ele>
        <time>2024-04-06T13:46:16.686Z</time>
      </trkpt>
      <trkpt lat="43.88766" lon="3.97116">
        <ele>204.2</ele>
        <time>2024-04-06T13:46:17.541Z</time>
      </trkpt>
      <trkpt lat="43.88767" lon="3.97118">
        <ele>203.9</ele>
        <time>2024-04-06T13:46:18.032Z</time>
      </trkpt>
      <trkpt lat="43.88769" lon="3.9712">
        <ele>203.9</ele>
        <time>2024-04-06T13:46:18.821Z</time>
      </trkpt>
      <trkpt lat="43.8877" lon="3.97122">
        <ele>203.6</ele>
        <time>2024-04-06T13:46:19.312Z</time>
      </trkpt>
      <trkpt lat="43.88772" lon="3.97125">
        <ele>203.3</ele>
        <time>2024-04-06T13:46:20.136Z</time>
      </trkpt>
      <trkpt lat="43.88773" lon="3.97127">
        <ele>203</ele>
        <time>2024-04-06T13:46:20.627Z</time>
      </trkpt>
      <trkpt lat="43.88774" lon="3.97129">
        <ele>202.7</ele>
        <time>2024-04-06T13:46:21.119Z</time>
      </trkpt>
      <trkpt lat="43.88775" lon="3.97132">
        <ele>202.1</ele>
        <time>2024-04-06T13:46:21.786Z</time>
      </trkpt>
      <trkpt lat="43.88776" lon="3.97134">
        <ele>201.8</ele>
        <time>2024-04-06T13:46:22.277Z</time>
      </trkpt>
      <trkpt lat="43.88777" lon="3.97137">
        <ele>201.3</ele>
        <time>2024-04-06T13:46:22.944Z</time>
      </trkpt>
      <trkpt lat="43.88778" lon="3.97139">
        <ele>201</ele>
        <time>2024-04-06T13:46:23.435Z</time>
      </trkpt>
      <trkpt lat="43.88779" lon="3.97142">
        <ele>200.5</ele>
        <time>2024-04-06T13:46:24.102Z</time>
      </trkpt>
      <trkpt lat="43.8878" lon="3.97145">
        <ele>199.9</ele>
        <time>2024-04-06T13:46:24.769Z</time>
      </trkpt>
      <trkpt lat="43.88781" lon="3.97148">
        <ele>199.4</ele>
        <time>2024-04-06T13:46:25.436Z</time>
      </trkpt>
      <trkpt lat="43.88783" lon="3.97151">
        <ele>199.1</ele>
        <time>2024-04-06T13:46:26.260Z</time>
      </trkpt>
      <trkpt lat="43.88784" lon="3.97154">
        <ele>198.5</ele>
        <time>2024-04-06T13:46:26.927Z</time>
      </trkpt>
      <trkpt lat="43.88785" lon="3.97157">
        <ele>198</ele>
        <time>2024-04-06T13:46:27.594Z</time>
      </trkpt>
      <trkpt lat="43.88787" lon="3.97161">
        <ele>197.4</ele>
        <time>2024-04-06T13:46:28.577Z</time>
      </trkpt>
      <trkpt lat="43.88788" lon="3.97164">
        <ele>196.9</ele>
        <time>2024-04-06T13:46:29.243Z</time>
      </trkpt>
      <trkpt lat="43.8879" lon="3.97167">
        <ele>196.6</ele>
        <time>2024-04-06T13:46:30.068Z</time>
      </trkpt>
      <trkpt lat="43.88792" lon="3.97171">
        <ele>195.9</ele>
        <time>2024-04-06T13:46:31.050Z</time>
      </trkpt>
      <trkpt lat="43.88793" lon="3.97174">
        <ele>195.3</ele>
        <time>2024-04-06T13:46:31.717Z</time>
      </trkpt>
      <trkpt lat="43.88794" lon="3.97177">
        <ele>194.7</ele>
        <time>2024-04-06T13:46:32.384Z</time>
      </trkpt>
      <trkpt lat="43.88796" lon="3.9718">
        <ele>194.3</ele>
        <time>2024-04-06T13:46:33.209Z</time>
      </trkpt>
      <trkpt lat="43.88797" lon="3.97182">
        <ele>193.9</ele>
        <time>2024-04-06T13:46:33.700Z</time>
      </trkpt>
      <trkpt lat="43.88799" lon="3.97185">
        <ele>193.5</ele>
        <time>2024-04-06T13:46:34.525Z</time>
      </trkpt>
      <trkpt lat="43.88801" lon="3.97189">
        <ele>192.7</ele>
        <time>2024-04-06T13:46:35.507Z</time>
      </trkpt>
      <trkpt lat="43.88802" lon="3.97192">
        <ele>192.1</ele>
        <time>2024-04-06T13:46:36.174Z</time>
      </trkpt>
      <trkpt lat="43.88804" lon="3.97196">
        <ele>191.3</ele>
        <time>2024-04-06T13:46:37.156Z</time>
      </trkpt>
      <trkpt lat="43.88806" lon="3.97199">
        <ele>190.9</ele>
        <time>2024-04-06T13:46:37.981Z</time>
      </trkpt>
      <trkpt lat="43.88809" lon="3.97203">
        <ele>190.6</ele>
        <time>2024-04-06T13:46:39.146Z</time>
      </trkpt>
      <trkpt lat="43.88811" lon="3.97206">
        <ele>190.3</ele>
        <time>2024-04-06T13:46:39.970Z</time>
      </trkpt>
      <trkpt lat="43.88813" lon="3.97209">
        <ele>189.9</ele>
        <time>2024-04-06T13:46:40.795Z</time>
      </trkpt>
      <trkpt lat="43.88815" lon="3.97212">
        <ele>189.6</ele>
        <time>2024-04-06T13:46:41.620Z</time>
      </trkpt>
      <trkpt lat="43.88817" lon="3.97216">
        <ele>189</ele>
        <time>2024-04-06T13:46:42.602Z</time>
      </trkpt>
      <trkpt lat="43.88819" lon="3.9722">
        <ele>188.5</ele>
        <time>2024-04-06T13:46:43.584Z</time>
      </trkpt>
      <trkpt lat="43.88821" lon="3.97223">
        <ele>188.2</ele>
        <time>2024-04-06T13:46:44.409Z</time>
      </trkpt>
      <trkpt lat="43.88823" lon="3.97227">
        <ele>187.6</ele>
        <time>2024-04-06T13:46:45.391Z</time>
      </trkpt>
      <trkpt lat="43.88826" lon="3.9723">
        <ele>187.5</ele>
        <time>2024-04-06T13:46:46.481Z</time>
      </trkpt>
      <trkpt lat="43.88828" lon="3.97233">
        <ele>187.2</ele>
        <time>2024-04-06T13:46:47.306Z</time>
      </trkpt>
      <trkpt lat="43.88831" lon="3.97237">
        <ele>186.8</ele>
        <time>2024-04-06T13:46:48.471Z</time>
      </trkpt>
      <trkpt lat="43.88833" lon="3.97242">
        <ele>186</ele>
        <time>2024-04-06T13:46:49.625Z</time>
      </trkpt>
      <trkpt lat="43.88835" lon="3.97246">
        <ele>185.4</ele>
        <time>2024-04-06T13:46:50.607Z</time>
      </trkpt>
      <trkpt lat="43.88838" lon="3.9725">
        <ele>185</ele>
        <time>2024-04-06T13:46:51.772Z</time>
      </trkpt>
      <trkpt lat="43.8884" lon="3.97254">
        <ele>184.4</ele>
        <time>2024-04-06T13:46:52.754Z</time>
      </trkpt>
      <trkpt lat="43.88843" lon="3.97258">
        <ele>184.1</ele>
        <time>2024-04-06T13:46:53.919Z</time>
      </trkpt>
      <trkpt lat="43.88845" lon="3.97263">
        <ele>183.2</ele>
        <time>2024-04-06T13:46:55.073Z</time>
      </trkpt>
      <trkpt lat="43.88847" lon="3.97266">
        <ele>182.9</ele>
        <time>2024-04-06T13:46:55.898Z</time>
      </trkpt>
      <trkpt lat="43.88849" lon="3.9727">
        <ele>182.3</ele>
        <time>2024-04-06T13:46:56.880Z</time>
      </trkpt>
      <trkpt lat="43.88851" lon="3.97273">
        <ele>182</ele>
        <time>2024-04-06T13:46:57.705Z</time>
      </trkpt>
      <trkpt lat="43.88853" lon="3.97277">
        <ele>181.4</ele>
        <time>2024-04-06T13:46:58.687Z</time>
      </trkpt>
      <trkpt lat="43.88855" lon="3.97281">
        <ele>181</ele>
        <time>2024-04-06T13:46:59.669Z</time>
      </trkpt>
      <trkpt lat="43.88857" lon="3.97285">
        <ele>180.6</ele>
        <time>2024-04-06T13:47:00.652Z</time>
      </trkpt>
      <trkpt lat="43.88859" lon="3.97288">
        <ele>180.3</ele>
        <time>2024-04-06T13:47:01.476Z</time>
      </trkpt>
      <trkpt lat="43.8886" lon="3.97292">
        <ele>179.7</ele>
        <time>2024-04-06T13:47:02.330Z</time>
      </trkpt>
      <trkpt lat="43.88862" lon="3.97296">
        <ele>179.2</ele>
        <time>2024-04-06T13:47:03.313Z</time>
      </trkpt>
      <trkpt lat="43.88864" lon="3.973">
        <ele>178.6</ele>
        <time>2024-04-06T13:47:04.295Z</time>
      </trkpt>
      <trkpt lat="43.88866" lon="3.97306">
        <ele>177.6</ele>
        <time>2024-04-06T13:47:05.629Z</time>
      </trkpt>
      <trkpt lat="43.88868" lon="3.97311">
        <ele>176.9</ele>
        <time>2024-04-06T13:47:06.783Z</time>
      </trkpt>
      <trkpt lat="43.88871" lon="3.97317">
        <ele>176.1</ele>
        <time>2024-04-06T13:47:08.256Z</time>
      </trkpt>
      <trkpt lat="43.88873" lon="3.97323">
        <ele>175.2</ele>
        <time>2024-04-06T13:47:09.590Z</time>
      </trkpt>
      <trkpt lat="43.88875" lon="3.97329">
        <ele>174.4</ele>
        <time>2024-04-06T13:47:10.924Z</time>
      </trkpt>
      <trkpt lat="43.88878" lon="3.97335">
        <ele>173.8</ele>
        <time>2024-04-06T13:47:12.398Z</time>
      </trkpt>
      <trkpt lat="43.88881" lon="3.9734">
        <ele>173.6</ele>
        <time>2024-04-06T13:47:13.718Z</time>
      </trkpt>
      <trkpt lat="43.88885" lon="3.97345">
        <ele>173.6</ele>
        <time>2024-04-06T13:47:15.440Z</time>
      </trkpt>
      <trkpt lat="43.88888" lon="3.9735">
        <ele>173.4</ele>
        <time>2024-04-06T13:47:16.760Z</time>
      </trkpt>
      <trkpt lat="43.8889" lon="3.97355">
        <ele>172.9</ele>
        <time>2024-04-06T13:47:17.914Z</time>
      </trkpt>
      <trkpt lat="43.88893" lon="3.97359">
        <ele>172.2</ele>
        <time>2024-04-06T13:47:19.079Z</time>
      </trkpt>
      <trkpt lat="43.88896" lon="3.97362">
        <ele>171.6</ele>
        <time>2024-04-06T13:47:20.115Z</time>
      </trkpt>
      <trkpt lat="43.88899" lon="3.97366">
        <ele>171</ele>
        <time>2024-04-06T13:47:21.279Z</time>
      </trkpt>
      <trkpt lat="43.88902" lon="3.97369">
        <ele>170.5</ele>
        <time>2024-04-06T13:47:22.315Z</time>
      </trkpt>
      <trkpt lat="43.88905" lon="3.97374">
        <ele>169.8</ele>
        <time>2024-04-06T13:47:23.627Z</time>
      </trkpt>
      <trkpt lat="43.88907" lon="3.97378">
        <ele>169.3</ele>
        <time>2024-04-06T13:47:24.610Z</time>
      </trkpt>
      <trkpt lat="43.8891" lon="3.97383">
        <ele>168.7</ele>
        <time>2024-04-06T13:47:25.923Z</time>
      </trkpt>
      <trkpt lat="43.88913" lon="3.97388">
        <ele>168.1</ele>
        <time>2024-04-06T13:47:27.235Z</time>
      </trkpt>
      <trkpt lat="43.88914" lon="3.97395">
        <ele>167.5</ele>
        <time>2024-04-06T13:47:28.675Z</time>
      </trkpt>
      <trkpt lat="43.88915" lon="3.97402">
        <ele>167</ele>
        <time>2024-04-06T13:47:30.115Z</time>
      </trkpt>
      <trkpt lat="43.88917" lon="3.97409">
        <ele>166.6</ele>
        <time>2024-04-06T13:47:31.634Z</time>
      </trkpt>
      <trkpt lat="43.88918" lon="3.97414">
        <ele>166.3</ele>
        <time>2024-04-06T13:47:32.681Z</time>
      </trkpt>
      <trkpt lat="43.88918" lon="3.97418">
        <ele>166.1</ele>
        <time>2024-04-06T13:47:33.489Z</time>
      </trkpt>
      <trkpt lat="43.88917" lon="3.97422">
        <ele>165.8</ele>
        <time>2024-04-06T13:47:34.343Z</time>
      </trkpt>
      <trkpt lat="43.88916" lon="3.97425">
        <ele>165.7</ele>
        <time>2024-04-06T13:47:35.015Z</time>
      </trkpt>
      <trkpt lat="43.88916" lon="3.97428">
        <ele>165.5</ele>
        <time>2024-04-06T13:47:35.620Z</time>
      </trkpt>
      <trkpt lat="43.88915" lon="3.97431">
        <ele>165.4</ele>
        <time>2024-04-06T13:47:36.292Z</time>
      </trkpt>
      <trkpt lat="43.88913" lon="3.97434">
        <ele>165.1</ele>
        <time>2024-04-06T13:47:37.117Z</time>
      </trkpt>
      <trkpt lat="43.88912" lon="3.97437">
        <ele>164.9</ele>
        <time>2024-04-06T13:47:37.784Z</time>
      </trkpt>
      <trkpt lat="43.88911" lon="3.97439">
        <ele>164.7</ele>
        <time>2024-04-06T13:47:38.275Z</time>
      </trkpt>
      <trkpt lat="43.8891" lon="3.97441">
        <ele>164.5</ele>
        <time>2024-04-06T13:47:38.766Z</time>
      </trkpt>
      <trkpt lat="43.88909" lon="3.97443">
        <ele>164.3</ele>
        <time>2024-04-06T13:47:39.257Z</time>
      </trkpt>
      <trkpt lat="43.88908" lon="3.97447">
        <ele>163.8</ele>
        <time>2024-04-06T13:47:40.111Z</time>
      </trkpt>
      <trkpt lat="43.88908" lon="3.97452">
        <ele>163.2</ele>
        <time>2024-04-06T13:47:41.120Z</time>
      </trkpt>
      <trkpt lat="43.88908" lon="3.97454">
        <ele>162.9</ele>
        <time>2024-04-06T13:47:41.524Z</time>
      </trkpt>
      <trkpt lat="43.88907" lon="3.97457">
        <ele>162.4</ele>
        <time>2024-04-06T13:47:42.191Z</time>
      </trkpt>
      <trkpt lat="43.88905" lon="3.97458">
        <ele>161.9</ele>
        <time>2024-04-06T13:47:42.786Z</time>
      </trkpt>
      <trkpt lat="43.88901" lon="3.97458">
        <ele>161.2</ele>
        <time>2024-04-06T13:47:43.906Z</time>
      </trkpt>
      <trkpt lat="43.88898" lon="3.97459">
        <ele>160.5</ele>
        <time>2024-04-06T13:47:44.770Z</time>
      </trkpt>
      <trkpt lat="43.88896" lon="3.97463">
        <ele>159.4</ele>
        <time>2024-04-06T13:47:45.752Z</time>
      </trkpt>
      <trkpt lat="43.88896" lon="3.97466">
        <ele>158.9</ele>
        <time>2024-04-06T13:47:46.357Z</time>
      </trkpt>
      <trkpt lat="43.88896" lon="3.9747">
        <ele>158.2</ele>
        <time>2024-04-06T13:47:47.165Z</time>
      </trkpt>
      <trkpt lat="43.88895" lon="3.97474">
        <ele>157.4</ele>
        <time>2024-04-06T13:47:48.019Z</time>
      </trkpt>
      <trkpt lat="43.88894" lon="3.97479">
        <ele>156.7</ele>
        <time>2024-04-06T13:47:49.066Z</time>
      </trkpt>
      <trkpt lat="43.88893" lon="3.97484">
        <ele>156.1</ele>
        <time>2024-04-06T13:47:50.113Z</time>
      </trkpt>
      <trkpt lat="43.88892" lon="3.97489">
        <ele>155.4</ele>
        <time>2024-04-06T13:47:51.160Z</time>
      </trkpt>
      <trkpt lat="43.88893" lon="3.97494">
        <ele>155.2</ele>
        <time>2024-04-06T13:47:52.207Z</time>
      </trkpt>
      <trkpt lat="43.88894" lon="3.97499">
        <ele>155</ele>
        <time>2024-04-06T13:47:53.254Z</time>
      </trkpt>
      <trkpt lat="43.88895" lon="3.97504">
        <ele>154.6</ele>
        <time>2024-04-06T13:47:54.301Z</time>
      </trkpt>
      <trkpt lat="43.88896" lon="3.97509">
        <ele>154.2</ele>
        <time>2024-04-06T13:47:55.348Z</time>
      </trkpt>
      <trkpt lat="43.88897" lon="3.97514">
        <ele>153.8</ele>
        <time>2024-04-06T13:47:56.395Z</time>
      </trkpt>
      <trkpt lat="43.88899" lon="3.97521">
        <ele>153.3</ele>
        <time>2024-04-06T13:47:57.914Z</time>
      </trkpt>
      <trkpt lat="43.889" lon="3.97527">
        <ele>152.7</ele>
        <time>2024-04-06T13:47:59.157Z</time>
      </trkpt>
      <trkpt lat="43.88902" lon="3.97531">
        <ele>152.5</ele>
        <time>2024-04-06T13:48:00.139Z</time>
      </trkpt>
      <trkpt lat="43.88904" lon="3.97533">
        <ele>152.6</ele>
        <time>2024-04-06T13:48:01.036Z</time>
      </trkpt>
      <trkpt lat="43.88908" lon="3.97534">
        <ele>153</ele>
        <time>2024-04-06T13:48:02.831Z</time>
      </trkpt>
      <trkpt lat="43.88911" lon="3.97534">
        <ele>153.4</ele>
        <time>2024-04-06T13:48:04.331Z</time>
      </trkpt>
      <trkpt lat="43.88915" lon="3.97534">
        <ele>153.9</ele>
        <time>2024-04-06T13:48:06.272Z</time>
      </trkpt>
      <trkpt lat="43.88918" lon="3.97535">
        <ele>154</ele>
        <time>2024-04-06T13:48:07.365Z</time>
      </trkpt>
      <trkpt lat="43.88922" lon="3.97537">
        <ele>153.7</ele>
        <time>2024-04-06T13:48:08.556Z</time>
      </trkpt>
      <trkpt lat="43.88926" lon="3.97538">
        <ele>153.5</ele>
        <time>2024-04-06T13:48:09.694Z</time>
      </trkpt>
      <trkpt lat="43.8893" lon="3.97541">
        <ele>153.1</ele>
        <time>2024-04-06T13:48:10.967Z</time>
      </trkpt>
      <trkpt lat="43.88934" lon="3.97544">
        <ele>152.7</ele>
        <time>2024-04-06T13:48:12.240Z</time>
      </trkpt>
      <trkpt lat="43.88938" lon="3.97545">
        <ele>152.5</ele>
        <time>2024-04-06T13:48:13.378Z</time>
      </trkpt>
      <trkpt lat="43.88943" lon="3.97546">
        <ele>152.4</ele>
        <time>2024-04-06T13:48:14.900Z</time>
      </trkpt>
      <trkpt lat="43.88947" lon="3.97546">
        <ele>152.3</ele>
        <time>2024-04-06T13:48:16.086Z</time>
      </trkpt>
      <trkpt lat="43.88951" lon="3.97547">
        <ele>152</ele>
        <time>2024-04-06T13:48:17.224Z</time>
      </trkpt>
      <trkpt lat="43.88955" lon="3.97549">
        <ele>151.6</ele>
        <time>2024-04-06T13:48:18.414Z</time>
      </trkpt>
      <trkpt lat="43.8896" lon="3.97552">
        <ele>151</ele>
        <time>2024-04-06T13:48:19.940Z</time>
      </trkpt>
      <trkpt lat="43.88965" lon="3.97556">
        <ele>150.2</ele>
        <time>2024-04-06T13:48:21.555Z</time>
      </trkpt>
      <trkpt lat="43.8897" lon="3.9756">
        <ele>149.4</ele>
        <time>2024-04-06T13:48:23.171Z</time>
      </trkpt>
      <trkpt lat="43.88975" lon="3.97565">
        <ele>148.6</ele>
        <time>2024-04-06T13:48:24.897Z</time>
      </trkpt>
      <trkpt lat="43.8898" lon="3.97569">
        <ele>148.1</ele>
        <time>2024-04-06T13:48:26.513Z</time>
      </trkpt>
      <trkpt lat="43.88985" lon="3.97571">
        <ele>147.8</ele>
        <time>2024-04-06T13:48:27.970Z</time>
      </trkpt>
      <trkpt lat="43.8899" lon="3.97572">
        <ele>147.6</ele>
        <time>2024-04-06T13:48:29.405Z</time>
      </trkpt>
      <trkpt lat="43.88996" lon="3.97572">
        <ele>147.6</ele>
        <time>2024-04-06T13:48:31.325Z</time>
      </trkpt>
      <trkpt lat="43.89" lon="3.97572">
        <ele>147.6</ele>
        <time>2024-04-06T13:48:32.604Z</time>
      </trkpt>
      <trkpt lat="43.89004" lon="3.97572">
        <ele>147.6</ele>
        <time>2024-04-06T13:48:33.884Z</time>
      </trkpt>
      <trkpt lat="43.89008" lon="3.97572">
        <ele>147.5</ele>
        <time>2024-04-06T13:48:35.071Z</time>
      </trkpt>
      <trkpt lat="43.89011" lon="3.97572">
        <ele>147.5</ele>
        <time>2024-04-06T13:48:36.031Z</time>
      </trkpt>
      <trkpt lat="43.89015" lon="3.97572">
        <ele>147.4</ele>
        <time>2024-04-06T13:48:37.217Z</time>
      </trkpt>
      <trkpt lat="43.89019" lon="3.97573">
        <ele>147.2</ele>
        <time>2024-04-06T13:48:38.355Z</time>
      </trkpt>
      <trkpt lat="43.89024" lon="3.97573">
        <ele>147.2</ele>
        <time>2024-04-06T13:48:39.955Z</time>
      </trkpt>
      <trkpt lat="43.89028" lon="3.97571">
        <ele>147.3</ele>
        <time>2024-04-06T13:48:41.419Z</time>
      </trkpt>
      <trkpt lat="43.89031" lon="3.9757">
        <ele>147.3</ele>
        <time>2024-04-06T13:48:42.406Z</time>
      </trkpt>
      <trkpt lat="43.89033" lon="3.97568">
        <ele>147.5</ele>
        <time>2024-04-06T13:48:43.432Z</time>
      </trkpt>
      <trkpt lat="43.89035" lon="3.97567">
        <ele>147.5</ele>
        <time>2024-04-06T13:48:44.113Z</time>
      </trkpt>
      <trkpt lat="43.89037" lon="3.97565">
        <ele>147.6</ele>
        <time>2024-04-06T13:48:45.009Z</time>
      </trkpt>
      <trkpt lat="43.89037" lon="3.97564">
        <ele>147.8</ele>
        <time>2024-04-06T13:48:45.644Z</time>
      </trkpt>
      <trkpt lat="43.89041" lon="3.97556">
        <ele>148.5</ele>
        <time>2024-04-06T13:48:48.758Z</time>
      </trkpt>
      <trkpt lat="43.89042" lon="3.97554">
        <ele>148.7</ele>
        <time>2024-04-06T13:48:49.576Z</time>
      </trkpt>
      <trkpt lat="43.89043" lon="3.97551">
        <ele>148.9</ele>
        <time>2024-04-06T13:48:50.577Z</time>
      </trkpt>
      <trkpt lat="43.89045" lon="3.97549">
        <ele>149</ele>
        <time>2024-04-06T13:48:51.474Z</time>
      </trkpt>
      <trkpt lat="43.89045" lon="3.97546">
        <ele>149.3</ele>
        <time>2024-04-06T13:48:52.576Z</time>
      </trkpt>
      <trkpt lat="43.89046" lon="3.97544">
        <ele>149.5</ele>
        <time>2024-04-06T13:48:53.395Z</time>
      </trkpt>
      <trkpt lat="43.89046" lon="3.97541">
        <ele>149.8</ele>
        <time>2024-04-06T13:48:54.498Z</time>
      </trkpt>
      <trkpt lat="43.89046" lon="3.97538">
        <ele>150</ele>
        <time>2024-04-06T13:48:55.433Z</time>
      </trkpt>
      <trkpt lat="43.89046" lon="3.97535">
        <ele>150.3</ele>
        <time>2024-04-06T13:48:56.536Z</time>
      </trkpt>
      <trkpt lat="43.89047" lon="3.97533">
        <ele>150.4</ele>
        <time>2024-04-06T13:48:57.209Z</time>
      </trkpt>
      <trkpt lat="43.89047" lon="3.9753">
        <ele>150.7</ele>
        <time>2024-04-06T13:48:58.312Z</time>
      </trkpt>
      <trkpt lat="43.89048" lon="3.97527">
        <ele>150.9</ele>
        <time>2024-04-06T13:48:59.313Z</time>
      </trkpt>
      <trkpt lat="43.89048" lon="3.97524">
        <ele>151.1</ele>
        <time>2024-04-06T13:49:00.249Z</time>
      </trkpt>
      <trkpt lat="43.89049" lon="3.97521">
        <ele>151.3</ele>
        <time>2024-04-06T13:49:01.250Z</time>
      </trkpt>
      <trkpt lat="43.89049" lon="3.97518">
        <ele>151.5</ele>
        <time>2024-04-06T13:49:02.185Z</time>
      </trkpt>
      <trkpt lat="43.8905" lon="3.97515">
        <ele>151.6</ele>
        <time>2024-04-06T13:49:03.055Z</time>
      </trkpt>
      <trkpt lat="43.89051" lon="3.97512">
        <ele>151.7</ele>
        <time>2024-04-06T13:49:03.926Z</time>
      </trkpt>
      <trkpt lat="43.89051" lon="3.9751">
        <ele>151.9</ele>
        <time>2024-04-06T13:49:04.661Z</time>
      </trkpt>
      <trkpt lat="43.89052" lon="3.97507">
        <ele>152</ele>
        <time>2024-04-06T13:49:05.531Z</time>
      </trkpt>
      <trkpt lat="43.89053" lon="3.97505">
        <ele>152</ele>
        <time>2024-04-06T13:49:06.093Z</time>
      </trkpt>
      <trkpt lat="43.89053" lon="3.97502">
        <ele>152.2</ele>
        <time>2024-04-06T13:49:07.028Z</time>
      </trkpt>
      <trkpt lat="43.89054" lon="3.975">
        <ele>152.2</ele>
        <time>2024-04-06T13:49:07.590Z</time>
      </trkpt>
      <trkpt lat="43.89055" lon="3.97497">
        <ele>152.5</ele>
        <time>2024-04-06T13:49:08.749Z</time>
      </trkpt>
      <trkpt lat="43.89056" lon="3.97495">
        <ele>152.7</ele>
        <time>2024-04-06T13:49:09.568Z</time>
      </trkpt>
      <trkpt lat="43.89058" lon="3.97491">
        <ele>153.2</ele>
        <time>2024-04-06T13:49:11.382Z</time>
      </trkpt>
      <trkpt lat="43.89061" lon="3.97488">
        <ele>153.4</ele>
        <time>2024-04-06T13:49:12.788Z</time>
      </trkpt>
      <trkpt lat="43.89063" lon="3.97486">
        <ele>153.6</ele>
        <time>2024-04-06T13:49:13.814Z</time>
      </trkpt>
      <trkpt lat="43.89066" lon="3.97483">
        <ele>153.8</ele>
        <time>2024-04-06T13:49:15.219Z</time>
      </trkpt>
      <trkpt lat="43.89069" lon="3.97482">
        <ele>153.8</ele>
        <time>2024-04-06T13:49:16.207Z</time>
      </trkpt>
      <trkpt lat="43.89071" lon="3.9748">
        <ele>153.9</ele>
        <time>2024-04-06T13:49:17.103Z</time>
      </trkpt>
      <trkpt lat="43.89074" lon="3.97478">
        <ele>154</ele>
        <time>2024-04-06T13:49:18.273Z</time>
      </trkpt>
      <trkpt lat="43.89077" lon="3.97478">
        <ele>153.8</ele>
        <time>2024-04-06T13:49:19.113Z</time>
      </trkpt>
      <trkpt lat="43.89081" lon="3.97476">
        <ele>153.7</ele>
        <time>2024-04-06T13:49:20.380Z</time>
      </trkpt>
      <trkpt lat="43.89083" lon="3.97474">
        <ele>153.8</ele>
        <time>2024-04-06T13:49:21.277Z</time>
      </trkpt>
      <trkpt lat="43.89084" lon="3.97472">
        <ele>154</ele>
        <time>2024-04-06T13:49:22.095Z</time>
      </trkpt>
      <trkpt lat="43.89087" lon="3.97468">
        <ele>154.2</ele>
        <time>2024-04-06T13:49:23.646Z</time>
      </trkpt>
      <trkpt lat="43.89088" lon="3.97464">
        <ele>154.7</ele>
        <time>2024-04-06T13:49:25.354Z</time>
      </trkpt>
      <trkpt lat="43.89089" lon="3.97462">
        <ele>154.8</ele>
        <time>2024-04-06T13:49:26.027Z</time>
      </trkpt>
      <trkpt lat="43.89091" lon="3.9746">
        <ele>155</ele>
        <time>2024-04-06T13:49:27.053Z</time>
      </trkpt>
      <trkpt lat="43.89092" lon="3.97457">
        <ele>155.4</ele>
        <time>2024-04-06T13:49:28.408Z</time>
      </trkpt>
      <trkpt lat="43.89093" lon="3.97455">
        <ele>155.6</ele>
        <time>2024-04-06T13:49:29.226Z</time>
      </trkpt>
      <trkpt lat="43.89095" lon="3.97454">
        <ele>155.7</ele>
        <time>2024-04-06T13:49:30.016Z</time>
      </trkpt>
      <trkpt lat="43.89097" lon="3.9745">
        <ele>156.2</ele>
        <time>2024-04-06T13:49:31.830Z</time>
      </trkpt>
      <trkpt lat="43.89099" lon="3.97448">
        <ele>156.5</ele>
        <time>2024-04-06T13:49:33.012Z</time>
      </trkpt>
      <trkpt lat="43.89102" lon="3.97446">
        <ele>156.8</ele>
        <time>2024-04-06T13:49:34.441Z</time>
      </trkpt>
      <trkpt lat="43.89105" lon="3.97446">
        <ele>156.7</ele>
        <time>2024-04-06T13:49:35.309Z</time>
      </trkpt>
      <trkpt lat="43.89108" lon="3.97446">
        <ele>156.7</ele>
        <time>2024-04-06T13:49:36.269Z</time>
      </trkpt>
      <trkpt lat="43.89111" lon="3.97447">
        <ele>156.5</ele>
        <time>2024-04-06T13:49:37.133Z</time>
      </trkpt>
      <trkpt lat="43.89114" lon="3.97449">
        <ele>156.6</ele>
        <time>2024-04-06T13:49:38.303Z</time>
      </trkpt>
      <trkpt lat="43.89117" lon="3.9745">
        <ele>156.8</ele>
        <time>2024-04-06T13:49:39.518Z</time>
      </trkpt>
      <trkpt lat="43.8912" lon="3.97451">
        <ele>157</ele>
        <time>2024-04-06T13:49:40.733Z</time>
      </trkpt>
      <trkpt lat="43.89123" lon="3.97451">
        <ele>157.4</ele>
        <time>2024-04-06T13:49:42.234Z</time>
      </trkpt>
      <trkpt lat="43.89126" lon="3.97452">
        <ele>157.6</ele>
        <time>2024-04-06T13:49:43.449Z</time>
      </trkpt>
      <trkpt lat="43.89128" lon="3.97453">
        <ele>157.7</ele>
        <time>2024-04-06T13:49:44.239Z</time>
      </trkpt>
      <trkpt lat="43.89131" lon="3.97454">
        <ele>157.9</ele>
        <time>2024-04-06T13:49:45.454Z</time>
      </trkpt>
      <trkpt lat="43.89134" lon="3.97454">
        <ele>158.3</ele>
        <time>2024-04-06T13:49:46.954Z</time>
      </trkpt>
      <trkpt lat="43.89137" lon="3.97454">
        <ele>158.7</ele>
        <time>2024-04-06T13:49:48.455Z</time>
      </trkpt>
      <trkpt lat="43.8914" lon="3.97454">
        <ele>159</ele>
        <time>2024-04-06T13:49:49.787Z</time>
      </trkpt>
      <trkpt lat="43.89143" lon="3.97454">
        <ele>159.1</ele>
        <time>2024-04-06T13:49:50.853Z</time>
      </trkpt>
      <trkpt lat="43.89144" lon="3.97454">
        <ele>159.1</ele>
        <time>2024-04-06T13:49:51.173Z</time>
      </trkpt>
      <trkpt lat="43.89149" lon="3.97452">
        <ele>159.7</ele>
        <time>2024-04-06T13:49:53.612Z</time>
      </trkpt>
      <trkpt lat="43.8915" lon="3.97452">
        <ele>159.8</ele>
        <time>2024-04-06T13:49:54.056Z</time>
      </trkpt>
      <trkpt lat="43.89152" lon="3.97452">
        <ele>159.8</ele>
        <time>2024-04-06T13:49:54.696Z</time>
      </trkpt>
      <trkpt lat="43.89154" lon="3.97452">
        <ele>159.9</ele>
        <time>2024-04-06T13:49:55.446Z</time>
      </trkpt>
      <trkpt lat="43.89157" lon="3.97452">
        <ele>160</ele>
        <time>2024-04-06T13:49:56.512Z</time>
      </trkpt>
      <trkpt lat="43.89161" lon="3.97451">
        <ele>160.4</ele>
        <time>2024-04-06T13:49:58.307Z</time>
      </trkpt>
      <trkpt lat="43.89163" lon="3.9745">
        <ele>160.7</ele>
        <time>2024-04-06T13:49:59.401Z</time>
      </trkpt>
      <trkpt lat="43.89164" lon="3.97449">
        <ele>160.9</ele>
        <time>2024-04-06T13:50:00.087Z</time>
      </trkpt>
      <trkpt lat="43.89166" lon="3.97448">
        <ele>161.2</ele>
        <time>2024-04-06T13:50:01.181Z</time>
      </trkpt>
      <trkpt lat="43.89167" lon="3.97446">
        <ele>161.6</ele>
        <time>2024-04-06T13:50:02.442Z</time>
      </trkpt>
      <trkpt lat="43.8917" lon="3.97444">
        <ele>161.9</ele>
        <time>2024-04-06T13:50:03.870Z</time>
      </trkpt>
      <trkpt lat="43.89173" lon="3.97442">
        <ele>162.2</ele>
        <time>2024-04-06T13:50:05.299Z</time>
      </trkpt>
      <trkpt lat="43.89176" lon="3.97441">
        <ele>162.2</ele>
        <time>2024-04-06T13:50:06.286Z</time>
      </trkpt>
      <trkpt lat="43.8918" lon="3.9744">
        <ele>162.2</ele>
        <time>2024-04-06T13:50:07.587Z</time>
      </trkpt>
      <trkpt lat="43.89183" lon="3.97438">
        <ele>162.6</ele>
        <time>2024-04-06T13:50:09.174Z</time>
      </trkpt>
      <trkpt lat="43.89185" lon="3.97436">
        <ele>163</ele>
        <time>2024-04-06T13:50:10.546Z</time>
      </trkpt>
      <trkpt lat="43.89188" lon="3.97433">
        <ele>163.7</ele>
        <time>2024-04-06T13:50:12.828Z</time>
      </trkpt>
      <trkpt lat="43.8919" lon="3.97431">
        <ele>164.1</ele>
        <time>2024-04-06T13:50:14.200Z</time>
      </trkpt>
      <trkpt lat="43.89193" lon="3.97429">
        <ele>164.5</ele>
        <time>2024-04-06T13:50:15.787Z</time>
      </trkpt>
      <trkpt lat="43.89195" lon="3.97427">
        <ele>165</ele>
        <time>2024-04-06T13:50:17.390Z</time>
      </trkpt>
      <trkpt lat="43.89198" lon="3.97425">
        <ele>165.5</ele>
        <time>2024-04-06T13:50:19.161Z</time>
      </trkpt>
      <trkpt lat="43.892" lon="3.97423">
        <ele>166</ele>
        <time>2024-04-06T13:50:20.765Z</time>
      </trkpt>
      <trkpt lat="43.89202" lon="3.97421">
        <ele>166.5</ele>
        <time>2024-04-06T13:50:22.368Z</time>
      </trkpt>
      <trkpt lat="43.89205" lon="3.97419">
        <ele>166.9</ele>
        <time>2024-04-06T13:50:23.956Z</time>
      </trkpt>
      <trkpt lat="43.89207" lon="3.97418">
        <ele>167.2</ele>
        <time>2024-04-06T13:50:25.049Z</time>
      </trkpt>
      <trkpt lat="43.89209" lon="3.97417">
        <ele>167.4</ele>
        <time>2024-04-06T13:50:25.974Z</time>
      </trkpt>
      <trkpt lat="43.89211" lon="3.97415">
        <ele>167.9</ele>
        <time>2024-04-06T13:50:27.578Z</time>
      </trkpt>
      <trkpt lat="43.89213" lon="3.97414">
        <ele>168.2</ele>
        <time>2024-04-06T13:50:28.671Z</time>
      </trkpt>
      <trkpt lat="43.89216" lon="3.97413">
        <ele>168.4</ele>
        <time>2024-04-06T13:50:29.887Z</time>
      </trkpt>
      <trkpt lat="43.89219" lon="3.97412">
        <ele>168.6</ele>
        <time>2024-04-06T13:50:31.102Z</time>
      </trkpt>
      <trkpt lat="43.89221" lon="3.97411">
        <ele>168.9</ele>
        <time>2024-04-06T13:50:32.196Z</time>
      </trkpt>
      <trkpt lat="43.89224" lon="3.9741">
        <ele>169.3</ele>
        <time>2024-04-06T13:50:33.718Z</time>
      </trkpt>
      <trkpt lat="43.89226" lon="3.97409">
        <ele>169.7</ele>
        <time>2024-04-06T13:50:35.024Z</time>
      </trkpt>
      <trkpt lat="43.89229" lon="3.97408">
        <ele>170.2</ele>
        <time>2024-04-06T13:50:36.740Z</time>
      </trkpt>
      <trkpt lat="43.89231" lon="3.97408">
        <ele>170.3</ele>
        <time>2024-04-06T13:50:37.490Z</time>
      </trkpt>
      <trkpt lat="43.89234" lon="3.97408">
        <ele>170.5</ele>
        <time>2024-04-06T13:50:38.679Z</time>
      </trkpt>
      <trkpt lat="43.89237" lon="3.97409">
        <ele>170.4</ele>
        <time>2024-04-06T13:50:39.574Z</time>
      </trkpt>
      <trkpt lat="43.8924" lon="3.97409">
        <ele>170.6</ele>
        <time>2024-04-06T13:50:40.763Z</time>
      </trkpt>
      <trkpt lat="43.89243" lon="3.97409">
        <ele>170.8</ele>
        <time>2024-04-06T13:50:41.952Z</time>
      </trkpt>
      <trkpt lat="43.89245" lon="3.97409">
        <ele>170.9</ele>
        <time>2024-04-06T13:50:42.702Z</time>
      </trkpt>
      <trkpt lat="43.89248" lon="3.9741">
        <ele>170.8</ele>
        <time>2024-04-06T13:50:43.598Z</time>
      </trkpt>
      <trkpt lat="43.89251" lon="3.9741">
        <ele>170.9</ele>
        <time>2024-04-06T13:50:44.663Z</time>
      </trkpt>
      <trkpt lat="43.89254" lon="3.9741">
        <ele>170.9</ele>
        <time>2024-04-06T13:50:45.623Z</time>
      </trkpt>
      <trkpt lat="43.89256" lon="3.9741">
        <ele>170.9</ele>
        <time>2024-04-06T13:50:46.263Z</time>
      </trkpt>
      <trkpt lat="43.89259" lon="3.9741">
        <ele>170.8</ele>
        <time>2024-04-06T13:50:47.131Z</time>
      </trkpt>
      <trkpt lat="43.89263" lon="3.9741">
        <ele>170.8</ele>
        <time>2024-04-06T13:50:48.411Z</time>
      </trkpt>
      <trkpt lat="43.89265" lon="3.97409">
        <ele>171.1</ele>
        <time>2024-04-06T13:50:49.505Z</time>
      </trkpt>
      <trkpt lat="43.89267" lon="3.97409">
        <ele>171</ele>
        <time>2024-04-06T13:50:50.065Z</time>
      </trkpt>
      <trkpt lat="43.8927" lon="3.97409">
        <ele>171</ele>
        <time>2024-04-06T13:50:51.025Z</time>
      </trkpt>
      <trkpt lat="43.89272" lon="3.97409">
        <ele>171</ele>
        <time>2024-04-06T13:50:51.665Z</time>
      </trkpt>
      <trkpt lat="43.89274" lon="3.97408">
        <ele>171.2</ele>
        <time>2024-04-06T13:50:52.590Z</time>
      </trkpt>
      <trkpt lat="43.89276" lon="3.97408">
        <ele>171.2</ele>
        <time>2024-04-06T13:50:53.230Z</time>
      </trkpt>
      <trkpt lat="43.89278" lon="3.97407">
        <ele>171.4</ele>
        <time>2024-04-06T13:50:54.155Z</time>
      </trkpt>
      <trkpt lat="43.89279" lon="3.97406">
        <ele>171.4</ele>
        <time>2024-04-06T13:50:54.549Z</time>
      </trkpt>
      <trkpt lat="43.89283" lon="3.97404">
        <ele>170.9</ele>
        <time>2024-04-06T13:50:55.740Z</time>
      </trkpt>
      <trkpt lat="43.89285" lon="3.97403">
        <ele>170.6</ele>
        <time>2024-04-06T13:50:56.335Z</time>
      </trkpt>
      <trkpt lat="43.89287" lon="3.97403">
        <ele>170.1</ele>
        <time>2024-04-06T13:50:56.895Z</time>
      </trkpt>
      <trkpt lat="43.89289" lon="3.97401">
        <ele>170.1</ele>
        <time>2024-04-06T13:50:57.684Z</time>
      </trkpt>
      <trkpt lat="43.89291" lon="3.974">
        <ele>169.8</ele>
        <time>2024-04-06T13:50:58.279Z</time>
      </trkpt>
      <trkpt lat="43.89293" lon="3.97398">
        <ele>169.7</ele>
        <time>2024-04-06T13:50:58.977Z</time>
      </trkpt>
      <trkpt lat="43.89294" lon="3.97395">
        <ele>170</ele>
        <time>2024-04-06T13:51:00.137Z</time>
      </trkpt>
      <trkpt lat="43.89297" lon="3.97391">
        <ele>170</ele>
        <time>2024-04-06T13:51:01.468Z</time>
      </trkpt>
      <trkpt lat="43.89298" lon="3.97389">
        <ele>170.2</ele>
        <time>2024-04-06T13:51:02.287Z</time>
      </trkpt>
      <trkpt lat="43.893" lon="3.97386">
        <ele>170.2</ele>
        <time>2024-04-06T13:51:03.229Z</time>
      </trkpt>
      <trkpt lat="43.89302" lon="3.97382">
        <ele>170.4</ele>
        <time>2024-04-06T13:51:04.575Z</time>
      </trkpt>
      <trkpt lat="43.89305" lon="3.97378">
        <ele>170.1</ele>
        <time>2024-04-06T13:51:05.740Z</time>
      </trkpt>
      <trkpt lat="43.89307" lon="3.97373">
        <ele>170.1</ele>
        <time>2024-04-06T13:51:07.059Z</time>
      </trkpt>
      <trkpt lat="43.8931" lon="3.97369">
        <ele>169.3</ele>
        <time>2024-04-06T13:51:08.224Z</time>
      </trkpt>
      <trkpt lat="43.89313" lon="3.97363">
        <ele>168.9</ele>
        <time>2024-04-06T13:51:09.697Z</time>
      </trkpt>
      <trkpt lat="43.89316" lon="3.97358">
        <ele>168.5</ele>
        <time>2024-04-06T13:51:11.010Z</time>
      </trkpt>
      <trkpt lat="43.89319" lon="3.97352">
        <ele>168.4</ele>
        <time>2024-04-06T13:51:12.599Z</time>
      </trkpt>
      <trkpt lat="43.89323" lon="3.97346">
        <ele>167.8</ele>
        <time>2024-04-06T13:51:14.248Z</time>
      </trkpt>
      <trkpt lat="43.89327" lon="3.97339">
        <ele>167.6</ele>
        <time>2024-04-06T13:51:16.124Z</time>
      </trkpt>
      <trkpt lat="43.8933" lon="3.97333">
        <ele>167.6</ele>
        <time>2024-04-06T13:51:17.808Z</time>
      </trkpt>
      <trkpt lat="43.89334" lon="3.97326">
        <ele>166.7</ele>
        <time>2024-04-06T13:51:19.610Z</time>
      </trkpt>
      <trkpt lat="43.89337" lon="3.97318">
        <ele>166</ele>
        <time>2024-04-06T13:51:21.430Z</time>
      </trkpt>
      <trkpt lat="43.89339" lon="3.97311">
        <ele>165.7</ele>
        <time>2024-04-06T13:51:22.949Z</time>
      </trkpt>
      <trkpt lat="43.89341" lon="3.97304">
        <ele>165.3</ele>
        <time>2024-04-06T13:51:24.468Z</time>
      </trkpt>
      <trkpt lat="43.89343" lon="3.97298">
        <ele>165.1</ele>
        <time>2024-04-06T13:51:25.812Z</time>
      </trkpt>
      <trkpt lat="43.89344" lon="3.97291">
        <ele>165.8</ele>
        <time>2024-04-06T13:51:28.410Z</time>
      </trkpt>
      <trkpt lat="43.89346" lon="3.97284">
        <ele>166</ele>
        <time>2024-04-06T13:51:30.360Z</time>
      </trkpt>
      <trkpt lat="43.89347" lon="3.97276">
        <ele>167.1</ele>
        <time>2024-04-06T13:51:33.952Z</time>
      </trkpt>
      <trkpt lat="43.89348" lon="3.9727">
        <ele>168</ele>
        <time>2024-04-06T13:51:36.838Z</time>
      </trkpt>
      <trkpt lat="43.8935" lon="3.97264">
        <ele>168.4</ele>
        <time>2024-04-06T13:51:38.840Z</time>
      </trkpt>
      <trkpt lat="43.89352" lon="3.97258">
        <ele>168.7</ele>
        <time>2024-04-06T13:51:40.705Z</time>
      </trkpt>
      <trkpt lat="43.89353" lon="3.97252">
        <ele>169.5</ele>
        <time>2024-04-06T13:51:43.350Z</time>
      </trkpt>
      <trkpt lat="43.89355" lon="3.97248">
        <ele>169.3</ele>
        <time>2024-04-06T13:51:44.332Z</time>
      </trkpt>
      <trkpt lat="43.89357" lon="3.97246">
        <ele>168.7</ele>
        <time>2024-04-06T13:51:45.022Z</time>
      </trkpt>
      <trkpt lat="43.89359" lon="3.97246">
        <ele>167.6</ele>
        <time>2024-04-06T13:51:45.582Z</time>
      </trkpt>
      <trkpt lat="43.89362" lon="3.97247">
        <ele>166.4</ele>
        <time>2024-04-06T13:51:46.446Z</time>
      </trkpt>
      <trkpt lat="43.89364" lon="3.97248">
        <ele>167.1</ele>
        <time>2024-04-06T13:51:48.768Z</time>
      </trkpt>
      <trkpt lat="43.89366" lon="3.9725">
        <ele>167.5</ele>
        <time>2024-04-06T13:51:50.140Z</time>
      </trkpt>
      <trkpt lat="43.89368" lon="3.97252">
        <ele>168</ele>
        <time>2024-04-06T13:51:51.744Z</time>
      </trkpt>
      <trkpt lat="43.8937" lon="3.97255">
        <ele>168.2</ele>
        <time>2024-04-06T13:51:52.916Z</time>
      </trkpt>
      <trkpt lat="43.89371" lon="3.97258">
        <ele>167.9</ele>
        <time>2024-04-06T13:51:53.583Z</time>
      </trkpt>
      <trkpt lat="43.89373" lon="3.97261">
        <ele>168.1</ele>
        <time>2024-04-06T13:51:54.755Z</time>
      </trkpt>
      <trkpt lat="43.89374" lon="3.97263">
        <ele>168</ele>
        <time>2024-04-06T13:51:55.246Z</time>
      </trkpt>
      <trkpt lat="43.89376" lon="3.97265">
        <ele>168.4</ele>
        <time>2024-04-06T13:51:56.618Z</time>
      </trkpt>
      <trkpt lat="43.89378" lon="3.97267">
        <ele>168.7</ele>
        <time>2024-04-06T13:51:57.800Z</time>
      </trkpt>
      <trkpt lat="43.8938" lon="3.97269">
        <ele>169</ele>
        <time>2024-04-06T13:51:58.982Z</time>
      </trkpt>
      <trkpt lat="43.89381" lon="3.97271">
        <ele>168.9</ele>
        <time>2024-04-06T13:51:59.473Z</time>
      </trkpt>
      <trkpt lat="43.89382" lon="3.97273">
        <ele>168.7</ele>
        <time>2024-04-06T13:51:59.964Z</time>
      </trkpt>
      <trkpt lat="43.89384" lon="3.97275">
        <ele>168.9</ele>
        <time>2024-04-06T13:52:00.990Z</time>
      </trkpt>
      <trkpt lat="43.89385" lon="3.97277">
        <ele>168.7</ele>
        <time>2024-04-06T13:52:01.482Z</time>
      </trkpt>
      <trkpt lat="43.89387" lon="3.97278">
        <ele>169.2</ele>
        <time>2024-04-06T13:52:03.055Z</time>
      </trkpt>
      <trkpt lat="43.89389" lon="3.9728">
        <ele>169.6</ele>
        <time>2024-04-06T13:52:04.427Z</time>
      </trkpt>
      <trkpt lat="43.8939" lon="3.97282">
        <ele>169.7</ele>
        <time>2024-04-06T13:52:05.100Z</time>
      </trkpt>
      <trkpt lat="43.89393" lon="3.97286">
        <ele>170.6</ele>
        <time>2024-04-06T13:52:07.954Z</time>
      </trkpt>
      <trkpt lat="43.89394" lon="3.97288">
        <ele>170.7</ele>
        <time>2024-04-06T13:52:08.627Z</time>
      </trkpt>
      <trkpt lat="43.89395" lon="3.9729">
        <ele>170.9</ele>
        <time>2024-04-06T13:52:09.446Z</time>
      </trkpt>
      <trkpt lat="43.89396" lon="3.97292">
        <ele>171</ele>
        <time>2024-04-06T13:52:10.119Z</time>
      </trkpt>
      <trkpt lat="43.89397" lon="3.97294">
        <ele>171.2</ele>
        <time>2024-04-06T13:52:10.938Z</time>
      </trkpt>
      <trkpt lat="43.89399" lon="3.97298">
        <ele>171.5</ele>
        <time>2024-04-06T13:52:12.420Z</time>
      </trkpt>
      <trkpt lat="43.894" lon="3.973">
        <ele>171.6</ele>
        <time>2024-04-06T13:52:13.093Z</time>
      </trkpt>
      <trkpt lat="43.89401" lon="3.97305">
        <ele>171.1</ele>
        <time>2024-04-06T13:52:14.140Z</time>
      </trkpt>
      <trkpt lat="43.89403" lon="3.97309">
        <ele>171.4</ele>
        <time>2024-04-06T13:52:15.622Z</time>
      </trkpt>
      <trkpt lat="43.89404" lon="3.97311">
        <ele>171.5</ele>
        <time>2024-04-06T13:52:16.295Z</time>
      </trkpt>
      <trkpt lat="43.89405" lon="3.97313">
        <ele>171.7</ele>
        <time>2024-04-06T13:52:17.114Z</time>
      </trkpt>
      <trkpt lat="43.89406" lon="3.97318">
        <ele>171.2</ele>
        <time>2024-04-06T13:52:18.161Z</time>
      </trkpt>
      <trkpt lat="43.89407" lon="3.97322">
        <ele>170.9</ele>
        <time>2024-04-06T13:52:19.015Z</time>
      </trkpt>
      <trkpt lat="43.89409" lon="3.97326">
        <ele>171.2</ele>
        <time>2024-04-06T13:52:20.497Z</time>
      </trkpt>
      <trkpt lat="43.8941" lon="3.97331">
        <ele>170.7</ele>
        <time>2024-04-06T13:52:21.544Z</time>
      </trkpt>
      <trkpt lat="43.89412" lon="3.97335">
        <ele>171</ele>
        <time>2024-04-06T13:52:23.026Z</time>
      </trkpt>
      <trkpt lat="43.89414" lon="3.97339">
        <ele>171.3</ele>
        <time>2024-04-06T13:52:24.508Z</time>
      </trkpt>
      <trkpt lat="43.89416" lon="3.97343">
        <ele>171.6</ele>
        <time>2024-04-06T13:52:25.990Z</time>
      </trkpt>
      <trkpt lat="43.89419" lon="3.97346">
        <ele>172.1</ele>
        <time>2024-04-06T13:52:27.852Z</time>
      </trkpt>
      <trkpt lat="43.89421" lon="3.97349">
        <ele>172.2</ele>
        <time>2024-04-06T13:52:28.900Z</time>
      </trkpt>
      <trkpt lat="43.89424" lon="3.97352">
        <ele>172.7</ele>
        <time>2024-04-06T13:52:30.762Z</time>
      </trkpt>
      <trkpt lat="43.89426" lon="3.97353">
        <ele>173.2</ele>
        <time>2024-04-06T13:52:32.336Z</time>
      </trkpt>
      <trkpt lat="43.89429" lon="3.97355">
        <ele>173.9</ele>
        <time>2024-04-06T13:52:34.565Z</time>
      </trkpt>
      <trkpt lat="43.89432" lon="3.97357">
        <ele>174.5</ele>
        <time>2024-04-06T13:52:36.549Z</time>
      </trkpt>
      <trkpt lat="43.89435" lon="3.9736">
        <ele>174.9</ele>
        <time>2024-04-06T13:52:38.239Z</time>
      </trkpt>
      <trkpt lat="43.89438" lon="3.97362">
        <ele>175.5</ele>
        <time>2024-04-06T13:52:40.222Z</time>
      </trkpt>
      <trkpt lat="43.8944" lon="3.97364">
        <ele>175.7</ele>
        <time>2024-04-06T13:52:41.248Z</time>
      </trkpt>
      <trkpt lat="43.89443" lon="3.97367">
        <ele>176</ele>
        <time>2024-04-06T13:52:42.787Z</time>
      </trkpt>
      <trkpt lat="43.89446" lon="3.97368">
        <ele>176.5</ele>
        <time>2024-04-06T13:52:44.503Z</time>
      </trkpt>
      <trkpt lat="43.89449" lon="3.9737">
        <ele>176.5</ele>
        <time>2024-04-06T13:52:45.568Z</time>
      </trkpt>
      <trkpt lat="43.89452" lon="3.97371">
        <ele>176.8</ele>
        <time>2024-04-06T13:52:46.925Z</time>
      </trkpt>
      <trkpt lat="43.89455" lon="3.97373">
        <ele>176.7</ele>
        <time>2024-04-06T13:52:47.897Z</time>
      </trkpt>
      <trkpt lat="43.89458" lon="3.97375">
        <ele>176.7</ele>
        <time>2024-04-06T13:52:48.962Z</time>
      </trkpt>
      <trkpt lat="43.8946" lon="3.97376">
        <ele>176.7</ele>
        <time>2024-04-06T13:52:49.642Z</time>
      </trkpt>
      <trkpt lat="43.89463" lon="3.97378">
        <ele>176.7</ele>
        <time>2024-04-06T13:52:50.707Z</time>
      </trkpt>
      <trkpt lat="43.89466" lon="3.97379">
        <ele>176.9</ele>
        <time>2024-04-06T13:52:51.923Z</time>
      </trkpt>
      <trkpt lat="43.89468" lon="3.9738">
        <ele>176.9</ele>
        <time>2024-04-06T13:52:52.603Z</time>
      </trkpt>
      <trkpt lat="43.89471" lon="3.9738">
        <ele>177.4</ele>
        <time>2024-04-06T13:52:54.300Z</time>
      </trkpt>
      <trkpt lat="43.89473" lon="3.97381">
        <ele>177.2</ele>
        <time>2024-04-06T13:52:54.896Z</time>
      </trkpt>
      <trkpt lat="43.89476" lon="3.97382">
        <ele>176.9</ele>
        <time>2024-04-06T13:52:55.759Z</time>
      </trkpt>
      <trkpt lat="43.89479" lon="3.97382">
        <ele>176.8</ele>
        <time>2024-04-06T13:52:56.628Z</time>
      </trkpt>
      <trkpt lat="43.89482" lon="3.97383">
        <ele>176.5</ele>
        <time>2024-04-06T13:52:57.491Z</time>
      </trkpt>
      <trkpt lat="43.89485" lon="3.97383">
        <ele>176.4</ele>
        <time>2024-04-06T13:52:58.359Z</time>
      </trkpt>
      <trkpt lat="43.89489" lon="3.97382">
        <ele>176.5</ele>
        <time>2024-04-06T13:52:59.764Z</time>
      </trkpt>
      <trkpt lat="43.89493" lon="3.97382">
        <ele>176.4</ele>
        <time>2024-04-06T13:53:00.950Z</time>
      </trkpt>
      <trkpt lat="43.89496" lon="3.97383">
        <ele>176.2</ele>
        <time>2024-04-06T13:53:01.814Z</time>
      </trkpt>
      <trkpt lat="43.895" lon="3.97385">
        <ele>175.7</ele>
        <time>2024-04-06T13:53:03.005Z</time>
      </trkpt>
      <trkpt lat="43.89505" lon="3.97388">
        <ele>176.2</ele>
        <time>2024-04-06T13:53:05.356Z</time>
      </trkpt>
      <trkpt lat="43.89509" lon="3.97392">
        <ele>176.4</ele>
        <time>2024-04-06T13:53:07.149Z</time>
      </trkpt>
      <trkpt lat="43.89512" lon="3.97397">
        <ele>176.3</ele>
        <time>2024-04-06T13:53:08.555Z</time>
      </trkpt>
      <trkpt lat="43.89516" lon="3.97401">
        <ele>176.5</ele>
        <time>2024-04-06T13:53:10.348Z</time>
      </trkpt>
      <trkpt lat="43.89519" lon="3.97405">
        <ele>176.6</ele>
        <time>2024-04-06T13:53:11.783Z</time>
      </trkpt>
      <trkpt lat="43.89521" lon="3.97409">
        <ele>176.5</ele>
        <time>2024-04-06T13:53:12.813Z</time>
      </trkpt>
      <trkpt lat="43.89523" lon="3.97412">
        <ele>176.5</ele>
        <time>2024-04-06T13:53:13.756Z</time>
      </trkpt>
      <trkpt lat="43.89525" lon="3.97416">
        <ele>176.4</ele>
        <time>2024-04-06T13:53:14.785Z</time>
      </trkpt>
      <trkpt lat="43.89527" lon="3.97419">
        <ele>176.5</ele>
        <time>2024-04-06T13:53:15.834Z</time>
      </trkpt>
      <trkpt lat="43.89529" lon="3.97422">
        <ele>176.5</ele>
        <time>2024-04-06T13:53:16.776Z</time>
      </trkpt>
      <trkpt lat="43.89531" lon="3.97425">
        <ele>176.3</ele>
        <time>2024-04-06T13:53:17.601Z</time>
      </trkpt>
      <trkpt lat="43.89533" lon="3.97429">
        <ele>175.9</ele>
        <time>2024-04-06T13:53:18.583Z</time>
      </trkpt>
      <trkpt lat="43.89536" lon="3.97432">
        <ele>175.6</ele>
        <time>2024-04-06T13:53:19.618Z</time>
      </trkpt>
      <trkpt lat="43.89538" lon="3.97436">
        <ele>175.1</ele>
        <time>2024-04-06T13:53:20.601Z</time>
      </trkpt>
      <trkpt lat="43.89541" lon="3.9744">
        <ele>174.6</ele>
        <time>2024-04-06T13:53:21.765Z</time>
      </trkpt>
      <trkpt lat="43.89544" lon="3.97443">
        <ele>174.2</ele>
        <time>2024-04-06T13:53:22.801Z</time>
      </trkpt>
      <trkpt lat="43.89548" lon="3.97446">
        <ele>173.7</ele>
        <time>2024-04-06T13:53:24.074Z</time>
      </trkpt>
      <trkpt lat="43.89552" lon="3.97448">
        <ele>173.4</ele>
        <time>2024-04-06T13:53:25.264Z</time>
      </trkpt>
      <trkpt lat="43.89557" lon="3.97449">
        <ele>173</ele>
        <time>2024-04-06T13:53:26.678Z</time>
      </trkpt>
      <trkpt lat="43.89561" lon="3.97449">
        <ele>172.4</ele>
        <time>2024-04-06T13:53:27.798Z</time>
      </trkpt>
      <trkpt lat="43.89565" lon="3.97448">
        <ele>172</ele>
        <time>2024-04-06T13:53:28.936Z</time>
      </trkpt>
      <trkpt lat="43.8957" lon="3.97447">
        <ele>171.4</ele>
        <time>2024-04-06T13:53:30.351Z</time>
      </trkpt>
      <trkpt lat="43.89575" lon="3.97444">
        <ele>171.3</ele>
        <time>2024-04-06T13:53:31.999Z</time>
      </trkpt>
      <trkpt lat="43.8958" lon="3.9744">
        <ele>171.1</ele>
        <time>2024-04-06T13:53:33.663Z</time>
      </trkpt>
      <trkpt lat="43.89584" lon="3.97436">
        <ele>171</ele>
        <time>2024-04-06T13:53:35.146Z</time>
      </trkpt>
      <trkpt lat="43.89588" lon="3.97431">
        <ele>170.2</ele>
        <time>2024-04-06T13:53:36.653Z</time>
      </trkpt>
      <trkpt lat="43.89592" lon="3.97425">
        <ele>169.6</ele>
        <time>2024-04-06T13:53:38.302Z</time>
      </trkpt>
      <trkpt lat="43.89595" lon="3.9742">
        <ele>169.3</ele>
        <time>2024-04-06T13:53:39.615Z</time>
      </trkpt>
      <trkpt lat="43.89599" lon="3.97415">
        <ele>168.8</ele>
        <time>2024-04-06T13:53:41.122Z</time>
      </trkpt>
      <trkpt lat="43.89603" lon="3.97411">
        <ele>168.4</ele>
        <time>2024-04-06T13:53:42.502Z</time>
      </trkpt>
      <trkpt lat="43.89608" lon="3.97407">
        <ele>167.6</ele>
        <time>2024-04-06T13:53:44.118Z</time>
      </trkpt>
      <trkpt lat="43.89612" lon="3.97403">
        <ele>167.1</ele>
        <time>2024-04-06T13:53:45.499Z</time>
      </trkpt>
      <trkpt lat="43.89616" lon="3.97397">
        <ele>166.9</ele>
        <time>2024-04-06T13:53:47.485Z</time>
      </trkpt>
      <trkpt lat="43.89619" lon="3.97391">
        <ele>167.1</ele>
        <time>2024-04-06T13:53:49.075Z</time>
      </trkpt>
      <trkpt lat="43.89623" lon="3.97385">
        <ele>166.9</ele>
        <time>2024-04-06T13:53:50.776Z</time>
      </trkpt>
      <trkpt lat="43.89625" lon="3.97379">
        <ele>167.5</ele>
        <time>2024-04-06T13:53:53.096Z</time>
      </trkpt>
      <trkpt lat="43.89628" lon="3.97374">
        <ele>167.2</ele>
        <time>2024-04-06T13:53:54.408Z</time>
      </trkpt>
      <trkpt lat="43.8963" lon="3.97368">
        <ele>167.6</ele>
        <time>2024-04-06T13:53:56.410Z</time>
      </trkpt>
      <trkpt lat="43.89632" lon="3.97363">
        <ele>167.6</ele>
        <time>2024-04-06T13:53:57.729Z</time>
      </trkpt>
      <trkpt lat="43.89636" lon="3.97358">
        <ele>166.3</ele>
        <time>2024-04-06T13:53:59.236Z</time>
      </trkpt>
      <trkpt lat="43.89639" lon="3.97353">
        <ele>165.7</ele>
        <time>2024-04-06T13:54:00.549Z</time>
      </trkpt>
      <trkpt lat="43.89643" lon="3.97342">
        <ele>166.3</ele>
        <time>2024-04-06T13:54:04.078Z</time>
      </trkpt>
      <trkpt lat="43.89646" lon="3.97336">
        <ele>166.1</ele>
        <time>2024-04-06T13:54:05.580Z</time>
      </trkpt>
      <trkpt lat="43.8965" lon="3.97331">
        <ele>165.3</ele>
        <time>2024-04-06T13:54:07.087Z</time>
      </trkpt>
      <trkpt lat="43.89652" lon="3.97325">
        <ele>165.4</ele>
        <time>2024-04-06T13:54:08.715Z</time>
      </trkpt>
      <trkpt lat="43.89655" lon="3.97319">
        <ele>164.9</ele>
        <time>2024-04-06T13:54:10.188Z</time>
      </trkpt>
      <trkpt lat="43.89658" lon="3.97313">
        <ele>164.2</ele>
        <time>2024-04-06T13:54:11.661Z</time>
      </trkpt>
      <trkpt lat="43.89661" lon="3.97307">
        <ele>163.3</ele>
        <time>2024-04-06T13:54:13.135Z</time>
      </trkpt>
      <trkpt lat="43.89663" lon="3.97301">
        <ele>162.8</ele>
        <time>2024-04-06T13:54:14.469Z</time>
      </trkpt>
      <trkpt lat="43.89665" lon="3.97294">
        <ele>162.3</ele>
        <time>2024-04-06T13:54:15.988Z</time>
      </trkpt>
      <trkpt lat="43.89666" lon="3.97287">
        <ele>162.4</ele>
        <time>2024-04-06T13:54:17.736Z</time>
      </trkpt>
      <trkpt lat="43.89667" lon="3.97281">
        <ele>162.6</ele>
        <time>2024-04-06T13:54:19.374Z</time>
      </trkpt>
      <trkpt lat="43.89668" lon="3.97276">
        <ele>163</ele>
        <time>2024-04-06T13:54:21.075Z</time>
      </trkpt>
      <trkpt lat="43.89669" lon="3.97271">
        <ele>163.8</ele>
        <time>2024-04-06T13:54:23.617Z</time>
      </trkpt>
      <trkpt lat="43.8967" lon="3.97266">
        <ele>164.6</ele>
        <time>2024-04-06T13:54:26.158Z</time>
      </trkpt>
      <trkpt lat="43.89671" lon="3.97262">
        <ele>165.2</ele>
        <time>2024-04-06T13:54:28.095Z</time>
      </trkpt>
      <trkpt lat="43.89674" lon="3.97258">
        <ele>165.5</ele>
        <time>2024-04-06T13:54:29.774Z</time>
      </trkpt>
      <trkpt lat="43.89677" lon="3.97255">
        <ele>165.8</ele>
        <time>2024-04-06T13:54:31.313Z</time>
      </trkpt>
      <trkpt lat="43.89682" lon="3.97254">
        <ele>165.4</ele>
        <time>2024-04-06T13:54:32.727Z</time>
      </trkpt>
      <trkpt lat="43.89686" lon="3.97254">
        <ele>164.9</ele>
        <time>2024-04-06T13:54:33.847Z</time>
      </trkpt>
      <trkpt lat="43.8969" lon="3.97256">
        <ele>163.9</ele>
        <time>2024-04-06T13:54:35.038Z</time>
      </trkpt>
      <trkpt lat="43.89694" lon="3.97258">
        <ele>162.8</ele>
        <time>2024-04-06T13:54:36.228Z</time>
      </trkpt>
      <trkpt lat="43.89697" lon="3.97261">
        <ele>162.7</ele>
        <time>2024-04-06T13:54:37.318Z</time>
      </trkpt>
      <trkpt lat="43.89701" lon="3.97264">
        <ele>163.1</ele>
        <time>2024-04-06T13:54:39.255Z</time>
      </trkpt>
      <trkpt lat="43.89704" lon="3.97266">
        <ele>163.4</ele>
        <time>2024-04-06T13:54:40.684Z</time>
      </trkpt>
      <trkpt lat="43.89708" lon="3.97269">
        <ele>163.7</ele>
        <time>2024-04-06T13:54:42.482Z</time>
      </trkpt>
      <trkpt lat="43.89711" lon="3.97272">
        <ele>163.7</ele>
        <time>2024-04-06T13:54:43.665Z</time>
      </trkpt>
      <trkpt lat="43.89715" lon="3.97275">
        <ele>163.9</ele>
        <time>2024-04-06T13:54:45.337Z</time>
      </trkpt>
      <trkpt lat="43.89718" lon="3.97277">
        <ele>164.1</ele>
        <time>2024-04-06T13:54:46.627Z</time>
      </trkpt>
      <trkpt lat="43.89721" lon="3.9728">
        <ele>164</ele>
        <time>2024-04-06T13:54:47.718Z</time>
      </trkpt>
      <trkpt lat="43.89724" lon="3.97284">
        <ele>163.9</ele>
        <time>2024-04-06T13:54:48.955Z</time>
      </trkpt>
      <trkpt lat="43.89727" lon="3.97287">
        <ele>164.3</ele>
        <time>2024-04-06T13:54:50.645Z</time>
      </trkpt>
      <trkpt lat="43.8973" lon="3.97291">
        <ele>164.3</ele>
        <time>2024-04-06T13:54:51.976Z</time>
      </trkpt>
      <trkpt lat="43.89733" lon="3.97296">
        <ele>163.9</ele>
        <time>2024-04-06T13:54:53.289Z</time>
      </trkpt>
      <trkpt lat="43.89737" lon="3.973">
        <ele>164.1</ele>
        <time>2024-04-06T13:54:55.082Z</time>
      </trkpt>
      <trkpt lat="43.8974" lon="3.97305">
        <ele>163.6</ele>
        <time>2024-04-06T13:54:56.395Z</time>
      </trkpt>
      <trkpt lat="43.89743" lon="3.97309">
        <ele>163.6</ele>
        <time>2024-04-06T13:54:57.726Z</time>
      </trkpt>
      <trkpt lat="43.89747" lon="3.97314">
        <ele>163.8</ele>
        <time>2024-04-06T13:54:59.662Z</time>
      </trkpt>
      <trkpt lat="43.8975" lon="3.97319">
        <ele>163.6</ele>
        <time>2024-04-06T13:55:00.982Z</time>
      </trkpt>
      <trkpt lat="43.89754" lon="3.97324">
        <ele>163.7</ele>
        <time>2024-04-06T13:55:02.808Z</time>
      </trkpt>
      <trkpt lat="43.89757" lon="3.97329">
        <ele>163.4</ele>
        <time>2024-04-06T13:55:04.120Z</time>
      </trkpt>
      <trkpt lat="43.89761" lon="3.97335">
        <ele>163.3</ele>
        <time>2024-04-06T13:55:05.910Z</time>
      </trkpt>
      <trkpt lat="43.89764" lon="3.9734">
        <ele>163.3</ele>
        <time>2024-04-06T13:55:07.410Z</time>
      </trkpt>
      <trkpt lat="43.89767" lon="3.97346">
        <ele>163.2</ele>
        <time>2024-04-06T13:55:08.999Z</time>
      </trkpt>
      <trkpt lat="43.8977" lon="3.97351">
        <ele>163.3</ele>
        <time>2024-04-06T13:55:10.603Z</time>
      </trkpt>
      <trkpt lat="43.89773" lon="3.97357">
        <ele>163.2</ele>
        <time>2024-04-06T13:55:12.192Z</time>
      </trkpt>
      <trkpt lat="43.89776" lon="3.97362">
        <ele>163.3</ele>
        <time>2024-04-06T13:55:13.795Z</time>
      </trkpt>
      <trkpt lat="43.89779" lon="3.97368">
        <ele>163.4</ele>
        <time>2024-04-06T13:55:15.582Z</time>
      </trkpt>
      <trkpt lat="43.89782" lon="3.97373">
        <ele>163.7</ele>
        <time>2024-04-06T13:55:17.423Z</time>
      </trkpt>
      <trkpt lat="43.89785" lon="3.97379">
        <ele>163.8</ele>
        <time>2024-04-06T13:55:19.210Z</time>
      </trkpt>
      <trkpt lat="43.89788" lon="3.97385">
        <ele>163.9</ele>
        <time>2024-04-06T13:55:20.996Z</time>
      </trkpt>
      <trkpt lat="43.8979" lon="3.97391">
        <ele>163.7</ele>
        <time>2024-04-06T13:55:22.340Z</time>
      </trkpt>
      <trkpt lat="43.89793" lon="3.97397">
        <ele>163.7</ele>
        <time>2024-04-06T13:55:24.024Z</time>
      </trkpt>
      <trkpt lat="43.89796" lon="3.97403">
        <ele>163.7</ele>
        <time>2024-04-06T13:55:25.708Z</time>
      </trkpt>
      <trkpt lat="43.89799" lon="3.97409">
        <ele>163.6</ele>
        <time>2024-04-06T13:55:27.297Z</time>
      </trkpt>
      <trkpt lat="43.89803" lon="3.97414">
        <ele>163.8</ele>
        <time>2024-04-06T13:55:29.233Z</time>
      </trkpt>
      <trkpt lat="43.89806" lon="3.97419">
        <ele>163.8</ele>
        <time>2024-04-06T13:55:30.734Z</time>
      </trkpt>
      <trkpt lat="43.8981" lon="3.97424">
        <ele>164.1</ele>
        <time>2024-04-06T13:55:32.791Z</time>
      </trkpt>
      <trkpt lat="43.89814" lon="3.97429">
        <ele>164.3</ele>
        <time>2024-04-06T13:55:34.727Z</time>
      </trkpt>
      <trkpt lat="43.89818" lon="3.97434">
        <ele>164.2</ele>
        <time>2024-04-06T13:55:36.355Z</time>
      </trkpt>
      <trkpt lat="43.89822" lon="3.97438">
        <ele>164.3</ele>
        <time>2024-04-06T13:55:38.036Z</time>
      </trkpt>
      <trkpt lat="43.89827" lon="3.97442">
        <ele>164.4</ele>
        <time>2024-04-06T13:55:39.985Z</time>
      </trkpt>
      <trkpt lat="43.89831" lon="3.97447">
        <ele>164</ele>
        <time>2024-04-06T13:55:41.492Z</time>
      </trkpt>
      <trkpt lat="43.89836" lon="3.97451">
        <ele>163.9</ele>
        <time>2024-04-06T13:55:43.244Z</time>
      </trkpt>
      <trkpt lat="43.8984" lon="3.97455">
        <ele>163.5</ele>
        <time>2024-04-06T13:55:44.624Z</time>
      </trkpt>
      <trkpt lat="43.89844" lon="3.97458">
        <ele>163.2</ele>
        <time>2024-04-06T13:55:45.897Z</time>
      </trkpt>
      <trkpt lat="43.89848" lon="3.9746">
        <ele>163.2</ele>
        <time>2024-04-06T13:55:47.257Z</time>
      </trkpt>
      <trkpt lat="43.89853" lon="3.97462">
        <ele>163.1</ele>
        <time>2024-04-06T13:55:48.828Z</time>
      </trkpt>
      <trkpt lat="43.89858" lon="3.97463">
        <ele>163.4</ele>
        <time>2024-04-06T13:55:50.782Z</time>
      </trkpt>
      <trkpt lat="43.89863" lon="3.97464">
        <ele>163.3</ele>
        <time>2024-04-06T13:55:52.304Z</time>
      </trkpt>
      <trkpt lat="43.89869" lon="3.97464">
        <ele>163.3</ele>
        <time>2024-04-06T13:55:54.224Z</time>
      </trkpt>
      <trkpt lat="43.89874" lon="3.97463">
        <ele>163.5</ele>
        <time>2024-04-06T13:55:56.055Z</time>
      </trkpt>
      <trkpt lat="43.89879" lon="3.97462">
        <ele>163.7</ele>
        <time>2024-04-06T13:55:57.887Z</time>
      </trkpt>
      <trkpt lat="43.89885" lon="3.97461">
        <ele>163.9</ele>
        <time>2024-04-06T13:56:00.032Z</time>
      </trkpt>
      <trkpt lat="43.89891" lon="3.9746">
        <ele>163.9</ele>
        <time>2024-04-06T13:56:01.966Z</time>
      </trkpt>
      <trkpt lat="43.89897" lon="3.97459">
        <ele>163.5</ele>
        <time>2024-04-06T13:56:03.658Z</time>
      </trkpt>
      <trkpt lat="43.89902" lon="3.97457">
        <ele>163.4</ele>
        <time>2024-04-06T13:56:05.228Z</time>
      </trkpt>
      <trkpt lat="43.89907" lon="3.97455">
        <ele>163.4</ele>
        <time>2024-04-06T13:56:06.893Z</time>
      </trkpt>
      <trkpt lat="43.89912" lon="3.97453">
        <ele>163.3</ele>
        <time>2024-04-06T13:56:08.464Z</time>
      </trkpt>
      <trkpt lat="43.89917" lon="3.9745">
        <ele>163.6</ele>
        <time>2024-04-06T13:56:10.541Z</time>
      </trkpt>
      <trkpt lat="43.89922" lon="3.97448">
        <ele>163.5</ele>
        <time>2024-04-06T13:56:12.112Z</time>
      </trkpt>
      <trkpt lat="43.89927" lon="3.97447">
        <ele>163.2</ele>
        <time>2024-04-06T13:56:13.526Z</time>
      </trkpt>
      <trkpt lat="43.89932" lon="3.97446">
        <ele>162.9</ele>
        <time>2024-04-06T13:56:14.940Z</time>
      </trkpt>
      <trkpt lat="43.89937" lon="3.97444">
        <ele>162.9</ele>
        <time>2024-04-06T13:56:16.605Z</time>
      </trkpt>
      <trkpt lat="43.89941" lon="3.97442">
        <ele>163.1</ele>
        <time>2024-04-06T13:56:18.185Z</time>
      </trkpt>
      <trkpt lat="43.89945" lon="3.9744">
        <ele>163.2</ele>
        <time>2024-04-06T13:56:19.649Z</time>
      </trkpt>
      <trkpt lat="43.8995" lon="3.97438">
        <ele>163.2</ele>
        <time>2024-04-06T13:56:21.314Z</time>
      </trkpt>
      <trkpt lat="43.89954" lon="3.97436">
        <ele>163.2</ele>
        <time>2024-04-06T13:56:22.674Z</time>
      </trkpt>
      <trkpt lat="43.89958" lon="3.97434">
        <ele>163.2</ele>
        <time>2024-04-06T13:56:24.035Z</time>
      </trkpt>
      <trkpt lat="43.89961" lon="3.97431">
        <ele>163.5</ele>
        <time>2024-04-06T13:56:25.573Z</time>
      </trkpt>
      <trkpt lat="43.89965" lon="3.97428">
        <ele>163.6</ele>
        <time>2024-04-06T13:56:27.132Z</time>
      </trkpt>
      <trkpt lat="43.89969" lon="3.97426">
        <ele>163.5</ele>
        <time>2024-04-06T13:56:28.398Z</time>
      </trkpt>
      <trkpt lat="43.89972" lon="3.97423">
        <ele>163.7</ele>
        <time>2024-04-06T13:56:29.804Z</time>
      </trkpt>
      <trkpt lat="43.89975" lon="3.9742">
        <ele>164.1</ele>
        <time>2024-04-06T13:56:31.494Z</time>
      </trkpt>
      <trkpt lat="43.89978" lon="3.97418">
        <ele>164.3</ele>
        <time>2024-04-06T13:56:32.784Z</time>
      </trkpt>
      <trkpt lat="43.89981" lon="3.97416">
        <ele>164.6</ele>
        <time>2024-04-06T13:56:34.213Z</time>
      </trkpt>
      <trkpt lat="43.89983" lon="3.97415">
        <ele>164.8</ele>
        <time>2024-04-06T13:56:35.138Z</time>
      </trkpt>
      <trkpt lat="43.89987" lon="3.97414">
        <ele>164.9</ele>
        <time>2024-04-06T13:56:36.542Z</time>
      </trkpt>
      <trkpt lat="43.8999" lon="3.97414">
        <ele>164.6</ele>
        <time>2024-04-06T13:56:37.382Z</time>
      </trkpt>
      <trkpt lat="43.89994" lon="3.97414">
        <ele>164.4</ele>
        <time>2024-04-06T13:56:38.502Z</time>
      </trkpt>
      <trkpt lat="43.89998" lon="3.97415">
        <ele>163.7</ele>
        <time>2024-04-06T13:56:39.640Z</time>
      </trkpt>
      <trkpt lat="43.90002" lon="3.97416">
        <ele>163.2</ele>
        <time>2024-04-06T13:56:40.778Z</time>
      </trkpt>
      <trkpt lat="43.90006" lon="3.97416">
        <ele>163</ele>
        <time>2024-04-06T13:56:41.898Z</time>
      </trkpt>
      <trkpt lat="43.90011" lon="3.97416">
        <ele>162.8</ele>
        <time>2024-04-06T13:56:43.317Z</time>
      </trkpt>
      <trkpt lat="43.90015" lon="3.97415">
        <ele>163</ele>
        <time>2024-04-06T13:56:44.837Z</time>
      </trkpt>
      <trkpt lat="43.9002" lon="3.97414">
        <ele>163.2</ele>
        <time>2024-04-06T13:56:46.668Z</time>
      </trkpt>
      <trkpt lat="43.90024" lon="3.97413">
        <ele>163.3</ele>
        <time>2024-04-06T13:56:48.073Z</time>
      </trkpt>
      <trkpt lat="43.90029" lon="3.97412">
        <ele>163.5</ele>
        <time>2024-04-06T13:56:49.904Z</time>
      </trkpt>
      <trkpt lat="43.90033" lon="3.97412">
        <ele>163.4</ele>
        <time>2024-04-06T13:56:51.091Z</time>
      </trkpt>
      <trkpt lat="43.90037" lon="3.97411">
        <ele>163.7</ele>
        <time>2024-04-06T13:56:52.741Z</time>
      </trkpt>
      <trkpt lat="43.90041" lon="3.9741">
        <ele>163.9</ele>
        <time>2024-04-06T13:56:54.261Z</time>
      </trkpt>
      <trkpt lat="43.90044" lon="3.9741">
        <ele>163.9</ele>
        <time>2024-04-06T13:56:55.221Z</time>
      </trkpt>
      <trkpt lat="43.90048" lon="3.97411">
        <ele>163.5</ele>
        <time>2024-04-06T13:56:56.359Z</time>
      </trkpt>
      <trkpt lat="43.90052" lon="3.9741">
        <ele>163.7</ele>
        <time>2024-04-06T13:56:57.879Z</time>
      </trkpt>
      <trkpt lat="43.90056" lon="3.9741">
        <ele>163.6</ele>
        <time>2024-04-06T13:56:59.066Z</time>
      </trkpt>
      <trkpt lat="43.9006" lon="3.97408">
        <ele>163.5</ele>
        <time>2024-04-06T13:57:00.333Z</time>
      </trkpt>
      <trkpt lat="43.90065" lon="3.97406">
        <ele>163.2</ele>
        <time>2024-04-06T13:57:01.790Z</time>
      </trkpt>
      <trkpt lat="43.90069" lon="3.97404">
        <ele>163</ele>
        <time>2024-04-06T13:57:02.980Z</time>
      </trkpt>
      <trkpt lat="43.90073" lon="3.97401">
        <ele>163.1</ele>
        <time>2024-04-06T13:57:04.538Z</time>
      </trkpt>
      <trkpt lat="43.90077" lon="3.97398">
        <ele>163.1</ele>
        <time>2024-04-06T13:57:05.993Z</time>
      </trkpt>
      <trkpt lat="43.90081" lon="3.97395">
        <ele>163.1</ele>
        <time>2024-04-06T13:57:07.448Z</time>
      </trkpt>
      <trkpt lat="43.90084" lon="3.97392">
        <ele>163.2</ele>
        <time>2024-04-06T13:57:08.735Z</time>
      </trkpt>
      <trkpt lat="43.90088" lon="3.97389">
        <ele>163.1</ele>
        <time>2024-04-06T13:57:10.096Z</time>
      </trkpt>
      <trkpt lat="43.90092" lon="3.97386">
        <ele>163.2</ele>
        <time>2024-04-06T13:57:11.654Z</time>
      </trkpt>
      <trkpt lat="43.90096" lon="3.97382">
        <ele>163.6</ele>
        <time>2024-04-06T13:57:13.706Z</time>
      </trkpt>
      <trkpt lat="43.90099" lon="3.97379">
        <ele>163.8</ele>
        <time>2024-04-06T13:57:15.112Z</time>
      </trkpt>
      <trkpt lat="43.90103" lon="3.97376">
        <ele>163.8</ele>
        <time>2024-04-06T13:57:16.567Z</time>
      </trkpt>
      <trkpt lat="43.90107" lon="3.97373">
        <ele>163.8</ele>
        <time>2024-04-06T13:57:18.021Z</time>
      </trkpt>
      <trkpt lat="43.90111" lon="3.9737">
        <ele>163.8</ele>
        <time>2024-04-06T13:57:19.476Z</time>
      </trkpt>
      <trkpt lat="43.90115" lon="3.97367">
        <ele>163.6</ele>
        <time>2024-04-06T13:57:20.751Z</time>
      </trkpt>
      <trkpt lat="43.90118" lon="3.97364">
        <ele>163.6</ele>
        <time>2024-04-06T13:57:21.935Z</time>
      </trkpt>
      <trkpt lat="43.90122" lon="3.97361">
        <ele>163.3</ele>
        <time>2024-04-06T13:57:23.208Z</time>
      </trkpt>
      <trkpt lat="43.90126" lon="3.97357">
        <ele>163.2</ele>
        <time>2024-04-06T13:57:24.691Z</time>
      </trkpt>
      <trkpt lat="43.90129" lon="3.97354">
        <ele>163.1</ele>
        <time>2024-04-06T13:57:25.781Z</time>
      </trkpt>
      <trkpt lat="43.90133" lon="3.9735">
        <ele>163</ele>
        <time>2024-04-06T13:57:27.264Z</time>
      </trkpt>
      <trkpt lat="43.90135" lon="3.97346">
        <ele>163.3</ele>
        <time>2024-04-06T13:57:28.746Z</time>
      </trkpt>
      <trkpt lat="43.90138" lon="3.97341">
        <ele>163.6</ele>
        <time>2024-04-06T13:57:30.588Z</time>
      </trkpt>
      <trkpt lat="43.9014" lon="3.97337">
        <ele>163.7</ele>
        <time>2024-04-06T13:57:31.815Z</time>
      </trkpt>
      <trkpt lat="43.90143" lon="3.97333">
        <ele>163.1</ele>
        <time>2024-04-06T13:57:32.980Z</time>
      </trkpt>
      <trkpt lat="43.90145" lon="3.97329">
        <ele>162.9</ele>
        <time>2024-04-06T13:57:33.962Z</time>
      </trkpt>
      <trkpt lat="43.90148" lon="3.97324">
        <ele>162.3</ele>
        <time>2024-04-06T13:57:35.274Z</time>
      </trkpt>
      <trkpt lat="43.9015" lon="3.9732">
        <ele>162</ele>
        <time>2024-04-06T13:57:36.257Z</time>
      </trkpt>
      <trkpt lat="43.90152" lon="3.97315">
        <ele>161.9</ele>
        <time>2024-04-06T13:57:37.482Z</time>
      </trkpt>
      <trkpt lat="43.90153" lon="3.9731">
        <ele>162.2</ele>
        <time>2024-04-06T13:57:39.033Z</time>
      </trkpt>
      <trkpt lat="43.90154" lon="3.97304">
        <ele>162.7</ele>
        <time>2024-04-06T13:57:41.093Z</time>
      </trkpt>
      <trkpt lat="43.90156" lon="3.97298">
        <ele>162.9</ele>
        <time>2024-04-06T13:57:42.834Z</time>
      </trkpt>
      <trkpt lat="43.90157" lon="3.97292">
        <ele>163.6</ele>
        <time>2024-04-06T13:57:45.262Z</time>
      </trkpt>
      <trkpt lat="43.90159" lon="3.97286">
        <ele>163.9</ele>
        <time>2024-04-06T13:57:47.127Z</time>
      </trkpt>
      <trkpt lat="43.90162" lon="3.97281">
        <ele>163.5</ele>
        <time>2024-04-06T13:57:48.439Z</time>
      </trkpt>
      <trkpt lat="43.90164" lon="3.97276">
        <ele>163.6</ele>
        <time>2024-04-06T13:57:49.862Z</time>
      </trkpt>
      <trkpt lat="43.90167" lon="3.97271">
        <ele>163</ele>
        <time>2024-04-06T13:57:51.174Z</time>
      </trkpt>
      <trkpt lat="43.90169" lon="3.97265">
        <ele>163.1</ele>
        <time>2024-04-06T13:57:52.802Z</time>
      </trkpt>
      <trkpt lat="43.90172" lon="3.9726">
        <ele>162.4</ele>
        <time>2024-04-06T13:57:54.114Z</time>
      </trkpt>
      <trkpt lat="43.90173" lon="3.97254">
        <ele>162.9</ele>
        <time>2024-04-06T13:57:56.175Z</time>
      </trkpt>
      <trkpt lat="43.90175" lon="3.97249">
        <ele>162.5</ele>
        <time>2024-04-06T13:57:57.328Z</time>
      </trkpt>
      <trkpt lat="43.90175" lon="3.97244">
        <ele>162.5</ele>
        <time>2024-04-06T13:57:58.481Z</time>
      </trkpt>
      <trkpt lat="43.90174" lon="3.97239">
        <ele>163</ele>
        <time>2024-04-06T13:58:00.354Z</time>
      </trkpt>
      <trkpt lat="43.90174" lon="3.97235">
        <ele>162.9</ele>
        <time>2024-04-06T13:58:01.184Z</time>
      </trkpt>
      <trkpt lat="43.90173" lon="3.9723">
        <ele>163.4</ele>
        <time>2024-04-06T13:58:03.057Z</time>
      </trkpt>
      <trkpt lat="43.90172" lon="3.97225">
        <ele>163.7</ele>
        <time>2024-04-06T13:58:04.608Z</time>
      </trkpt>
      <trkpt lat="43.90171" lon="3.97219">
        <ele>164</ele>
        <time>2024-04-06T13:58:06.372Z</time>
      </trkpt>
      <trkpt lat="43.90171" lon="3.97214">
        <ele>163.8</ele>
        <time>2024-04-06T13:58:07.381Z</time>
      </trkpt>
      <trkpt lat="43.90171" lon="3.97208">
        <ele>163.6</ele>
        <time>2024-04-06T13:58:08.591Z</time>
      </trkpt>
      <trkpt lat="43.90171" lon="3.97201">
        <ele>163.4</ele>
        <time>2024-04-06T13:58:10.024Z</time>
      </trkpt>
      <trkpt lat="43.90171" lon="3.97194">
        <ele>163.1</ele>
        <time>2024-04-06T13:58:11.436Z</time>
      </trkpt>
      <trkpt lat="43.90171" lon="3.97187">
        <ele>163</ele>
        <time>2024-04-06T13:58:12.955Z</time>
      </trkpt>
      <trkpt lat="43.90172" lon="3.9718">
        <ele>162.5</ele>
        <time>2024-04-06T13:58:14.395Z</time>
      </trkpt>
      <trkpt lat="43.90172" lon="3.97172">
        <ele>162.4</ele>
        <time>2024-04-06T13:58:16.145Z</time>
      </trkpt>
      <trkpt lat="43.90173" lon="3.97165">
        <ele>161.7</ele>
        <time>2024-04-06T13:58:17.584Z</time>
      </trkpt>
      <trkpt lat="43.90172" lon="3.97157">
        <ele>161.8</ele>
        <time>2024-04-06T13:58:19.558Z</time>
      </trkpt>
      <trkpt lat="43.90172" lon="3.97149">
        <ele>161.4</ele>
        <time>2024-04-06T13:58:21.172Z</time>
      </trkpt>
      <trkpt lat="43.90171" lon="3.97142">
        <ele>161.5</ele>
        <time>2024-04-06T13:58:22.920Z</time>
      </trkpt>
      <trkpt lat="43.9017" lon="3.97134">
        <ele>161.7</ele>
        <time>2024-04-06T13:58:25.005Z</time>
      </trkpt>
      <trkpt lat="43.9017" lon="3.97126">
        <ele>161.7</ele>
        <time>2024-04-06T13:58:26.849Z</time>
      </trkpt>
      <trkpt lat="43.9017" lon="3.9712">
        <ele>161.7</ele>
        <time>2024-04-06T13:58:28.232Z</time>
      </trkpt>
      <trkpt lat="43.9017" lon="3.97114">
        <ele>161.6</ele>
        <time>2024-04-06T13:58:29.522Z</time>
      </trkpt>
      <trkpt lat="43.90171" lon="3.97108">
        <ele>161.9</ele>
        <time>2024-04-06T13:58:31.286Z</time>
      </trkpt>
      <trkpt lat="43.90173" lon="3.97105">
        <ele>162.2</ele>
        <time>2024-04-06T13:58:32.603Z</time>
      </trkpt>
      <trkpt lat="43.90177" lon="3.97102">
        <ele>162.6</ele>
        <time>2024-04-06T13:58:34.540Z</time>
      </trkpt>
      <trkpt lat="43.90182" lon="3.97102">
        <ele>162.6</ele>
        <time>2024-04-06T13:58:36.139Z</time>
      </trkpt>
      <trkpt lat="43.90185" lon="3.97105">
        <ele>161.8</ele>
        <time>2024-04-06T13:58:37.175Z</time>
      </trkpt>
      <trkpt lat="43.90189" lon="3.97109">
        <ele>160.3</ele>
        <time>2024-04-06T13:58:38.555Z</time>
      </trkpt>
      <trkpt lat="43.90193" lon="3.97114">
        <ele>158.5</ele>
        <time>2024-04-06T13:58:40.062Z</time>
      </trkpt>
      <trkpt lat="43.90198" lon="3.97118">
        <ele>158.4</ele>
        <time>2024-04-06T13:58:41.814Z</time>
      </trkpt>
      <trkpt lat="43.90202" lon="3.97122">
        <ele>158.7</ele>
        <time>2024-04-06T13:58:43.730Z</time>
      </trkpt>
      <trkpt lat="43.90207" lon="3.97126">
        <ele>159</ele>
        <time>2024-04-06T13:58:45.909Z</time>
      </trkpt>
      <trkpt lat="43.90211" lon="3.97129">
        <ele>159.3</ele>
        <time>2024-04-06T13:58:47.707Z</time>
      </trkpt>
      <trkpt lat="43.90215" lon="3.97132">
        <ele>159.5</ele>
        <time>2024-04-06T13:58:49.379Z</time>
      </trkpt>
      <trkpt lat="43.90219" lon="3.97136">
        <ele>159.2</ele>
        <time>2024-04-06T13:58:50.759Z</time>
      </trkpt>
      <trkpt lat="43.90223" lon="3.9714">
        <ele>159</ele>
        <time>2024-04-06T13:58:52.156Z</time>
      </trkpt>
      <trkpt lat="43.90227" lon="3.97144">
        <ele>159.3</ele>
        <time>2024-04-06T13:58:54.072Z</time>
      </trkpt>
      <trkpt lat="43.90231" lon="3.97148">
        <ele>159.6</ele>
        <time>2024-04-06T13:58:55.989Z</time>
      </trkpt>
      <trkpt lat="43.90235" lon="3.97152">
        <ele>159.6</ele>
        <time>2024-04-06T13:58:57.566Z</time>
      </trkpt>
      <trkpt lat="43.90239" lon="3.97157">
        <ele>159.3</ele>
        <time>2024-04-06T13:58:59.073Z</time>
      </trkpt>
      <trkpt lat="43.90242" lon="3.97161">
        <ele>158.8</ele>
        <time>2024-04-06T13:59:00.238Z</time>
      </trkpt>
      <trkpt lat="43.90246" lon="3.97166">
        <ele>158.2</ele>
        <time>2024-04-06T13:59:01.745Z</time>
      </trkpt>
      <trkpt lat="43.90249" lon="3.97171">
        <ele>157.7</ele>
        <time>2024-04-06T13:59:03.058Z</time>
      </trkpt>
      <trkpt lat="43.90253" lon="3.97176">
        <ele>157.6</ele>
        <time>2024-04-06T13:59:04.686Z</time>
      </trkpt>
      <trkpt lat="43.90257" lon="3.9718">
        <ele>157.8</ele>
        <time>2024-04-06T13:59:06.479Z</time>
      </trkpt>
      <trkpt lat="43.9026" lon="3.97184">
        <ele>157.6</ele>
        <time>2024-04-06T13:59:07.643Z</time>
      </trkpt>
      <trkpt lat="43.90263" lon="3.97188">
        <ele>157.5</ele>
        <time>2024-04-06T13:59:08.881Z</time>
      </trkpt>
      <trkpt lat="43.90266" lon="3.97191">
        <ele>157.5</ele>
        <time>2024-04-06T13:59:10.064Z</time>
      </trkpt>
      <trkpt lat="43.90269" lon="3.97195">
        <ele>157.3</ele>
        <time>2024-04-06T13:59:11.229Z</time>
      </trkpt>
      <trkpt lat="43.90272" lon="3.97198">
        <ele>157.5</ele>
        <time>2024-04-06T13:59:12.634Z</time>
      </trkpt>
      <trkpt lat="43.90274" lon="3.97201">
        <ele>157.4</ele>
        <time>2024-04-06T13:59:13.485Z</time>
      </trkpt>
      <trkpt lat="43.90277" lon="3.97204">
        <ele>157.7</ele>
        <time>2024-04-06T13:59:15.024Z</time>
      </trkpt>
      <trkpt lat="43.90279" lon="3.97207">
        <ele>157.6</ele>
        <time>2024-04-06T13:59:15.874Z</time>
      </trkpt>
      <trkpt lat="43.90281" lon="3.97209">
        <ele>157.7</ele>
        <time>2024-04-06T13:59:16.771Z</time>
      </trkpt>
      <trkpt lat="43.90284" lon="3.97211">
        <ele>158</ele>
        <time>2024-04-06T13:59:18.199Z</time>
      </trkpt>
      <trkpt lat="43.90286" lon="3.97212">
        <ele>158.3</ele>
        <time>2024-04-06T13:59:19.293Z</time>
      </trkpt>
      <trkpt lat="43.90288" lon="3.97213">
        <ele>158.6</ele>
        <time>2024-04-06T13:59:20.387Z</time>
      </trkpt>
      <trkpt lat="43.9029" lon="3.97214">
        <ele>158.9</ele>
        <time>2024-04-06T13:59:21.481Z</time>
      </trkpt>
      <trkpt lat="43.90292" lon="3.97215">
        <ele>159.1</ele>
        <time>2024-04-06T13:59:22.406Z</time>
      </trkpt>
      <trkpt lat="43.90293" lon="3.97217">
        <ele>159</ele>
        <time>2024-04-06T13:59:22.897Z</time>
      </trkpt>
      <trkpt lat="43.90295" lon="3.97218">
        <ele>159.3</ele>
        <time>2024-04-06T13:59:23.991Z</time>
      </trkpt>
      <trkpt lat="43.90297" lon="3.97219">
        <ele>159.5</ele>
        <time>2024-04-06T13:59:24.915Z</time>
      </trkpt>
      <trkpt lat="43.90299" lon="3.9722">
        <ele>159.8</ele>
        <time>2024-04-06T13:59:26.009Z</time>
      </trkpt>
      <trkpt lat="43.90301" lon="3.97221">
        <ele>160.1</ele>
        <time>2024-04-06T13:59:27.103Z</time>
      </trkpt>
      <trkpt lat="43.90303" lon="3.97221">
        <ele>160.6</ele>
        <time>2024-04-06T13:59:28.675Z</time>
      </trkpt>
      <trkpt lat="43.90305" lon="3.97222">
        <ele>160.9</ele>
        <time>2024-04-06T13:59:29.769Z</time>
      </trkpt>
      <trkpt lat="43.90307" lon="3.97223">
        <ele>160.6</ele>
        <time>2024-04-06T13:59:30.364Z</time>
      </trkpt>
      <trkpt lat="43.90309" lon="3.97223">
        <ele>160.6</ele>
        <time>2024-04-06T13:59:31.004Z</time>
      </trkpt>
      <trkpt lat="43.90312" lon="3.97223">
        <ele>160.5</ele>
        <time>2024-04-06T13:59:31.872Z</time>
      </trkpt>
      <trkpt lat="43.90314" lon="3.97222">
        <ele>160.7</ele>
        <time>2024-04-06T13:59:32.797Z</time>
      </trkpt>
      <trkpt lat="43.90316" lon="3.97222">
        <ele>160.7</ele>
        <time>2024-04-06T13:59:33.437Z</time>
      </trkpt>
      <trkpt lat="43.90318" lon="3.97221">
        <ele>160.8</ele>
        <time>2024-04-06T13:59:34.226Z</time>
      </trkpt>
      <trkpt lat="43.9032" lon="3.9722">
        <ele>161</ele>
        <time>2024-04-06T13:59:35.151Z</time>
      </trkpt>
      <trkpt lat="43.90322" lon="3.9722">
        <ele>160.9</ele>
        <time>2024-04-06T13:59:35.711Z</time>
      </trkpt>
      <trkpt lat="43.90324" lon="3.97219">
        <ele>161</ele>
        <time>2024-04-06T13:59:36.501Z</time>
      </trkpt>
      <trkpt lat="43.90326" lon="3.97218">
        <ele>161.2</ele>
        <time>2024-04-06T13:59:37.426Z</time>
      </trkpt>
      <trkpt lat="43.90328" lon="3.97217">
        <ele>161.3</ele>
        <time>2024-04-06T13:59:38.215Z</time>
      </trkpt>
      <trkpt lat="43.9033" lon="3.97216">
        <ele>161.5</ele>
        <time>2024-04-06T13:59:39.140Z</time>
      </trkpt>
      <trkpt lat="43.90333" lon="3.97215">
        <ele>161.6</ele>
        <time>2024-04-06T13:59:40.233Z</time>
      </trkpt>
      <trkpt lat="43.90335" lon="3.97214">
        <ele>161.5</ele>
        <time>2024-04-06T13:59:40.829Z</time>
      </trkpt>
      <trkpt lat="43.90338" lon="3.97212">
        <ele>161.5</ele>
        <time>2024-04-06T13:59:41.893Z</time>
      </trkpt>
      <trkpt lat="43.90341" lon="3.97211">
        <ele>161.3</ele>
        <time>2024-04-06T13:59:42.757Z</time>
      </trkpt>
      <trkpt lat="43.90343" lon="3.9721">
        <ele>161.2</ele>
        <time>2024-04-06T13:59:43.352Z</time>
      </trkpt>
      <trkpt lat="43.90346" lon="3.97208">
        <ele>161.2</ele>
        <time>2024-04-06T13:59:44.417Z</time>
      </trkpt>
      <trkpt lat="43.90349" lon="3.97207">
        <ele>161</ele>
        <time>2024-04-06T13:59:45.281Z</time>
      </trkpt>
      <trkpt lat="43.90352" lon="3.97205">
        <ele>161</ele>
        <time>2024-04-06T13:59:46.346Z</time>
      </trkpt>
      <trkpt lat="43.90355" lon="3.97204">
        <ele>160.8</ele>
        <time>2024-04-06T13:59:47.210Z</time>
      </trkpt>
      <trkpt lat="43.90359" lon="3.97202">
        <ele>160.7</ele>
        <time>2024-04-06T13:59:48.477Z</time>
      </trkpt>
      <trkpt lat="43.90362" lon="3.972">
        <ele>160.6</ele>
        <time>2024-04-06T13:59:49.449Z</time>
      </trkpt>
      <trkpt lat="43.90365" lon="3.97198">
        <ele>160.5</ele>
        <time>2024-04-06T13:59:50.422Z</time>
      </trkpt>
      <trkpt lat="43.90369" lon="3.97196">
        <ele>160.2</ele>
        <time>2024-04-06T13:59:51.612Z</time>
      </trkpt>
      <trkpt lat="43.90373" lon="3.97194">
        <ele>160</ele>
        <time>2024-04-06T13:59:52.802Z</time>
      </trkpt>
      <trkpt lat="43.90377" lon="3.97192">
        <ele>159.7</ele>
        <time>2024-04-06T13:59:53.993Z</time>
      </trkpt>
      <trkpt lat="43.90381" lon="3.9719">
        <ele>159.3</ele>
        <time>2024-04-06T13:59:55.183Z</time>
      </trkpt>
      <trkpt lat="43.90385" lon="3.97187">
        <ele>159.1</ele>
        <time>2024-04-06T13:59:56.458Z</time>
      </trkpt>
      <trkpt lat="43.9039" lon="3.97185">
        <ele>158.4</ele>
        <time>2024-04-06T13:59:57.915Z</time>
      </trkpt>
      <trkpt lat="43.90394" lon="3.97182">
        <ele>158</ele>
        <time>2024-04-06T13:59:59.188Z</time>
      </trkpt>
      <trkpt lat="43.90399" lon="3.97179">
        <ele>157.4</ele>
        <time>2024-04-06T14:00:00.713Z</time>
      </trkpt>
      <trkpt lat="43.90404" lon="3.97175">
        <ele>157.1</ele>
        <time>2024-04-06T14:00:02.329Z</time>
      </trkpt>
      <trkpt lat="43.90409" lon="3.97172">
        <ele>156.6</ele>
        <time>2024-04-06T14:00:03.854Z</time>
      </trkpt>
      <trkpt lat="43.90413" lon="3.97168">
        <ele>156.5</ele>
        <time>2024-04-06T14:00:05.337Z</time>
      </trkpt>
      <trkpt lat="43.90417" lon="3.97164">
        <ele>156.5</ele>
        <time>2024-04-06T14:00:06.915Z</time>
      </trkpt>
      <trkpt lat="43.90422" lon="3.9716">
        <ele>156.6</ele>
        <time>2024-04-06T14:00:08.864Z</time>
      </trkpt>
      <trkpt lat="43.90426" lon="3.97157">
        <ele>156.5</ele>
        <time>2024-04-06T14:00:10.224Z</time>
      </trkpt>
      <trkpt lat="43.9043" lon="3.97154">
        <ele>156.4</ele>
        <time>2024-04-06T14:00:11.585Z</time>
      </trkpt>
      <trkpt lat="43.90434" lon="3.97151">
        <ele>156.2</ele>
        <time>2024-04-06T14:00:12.860Z</time>
      </trkpt>
      <trkpt lat="43.90437" lon="3.97148">
        <ele>156.1</ele>
        <time>2024-04-06T14:00:13.951Z</time>
      </trkpt>
      <trkpt lat="43.90441" lon="3.97145">
        <ele>155.8</ele>
        <time>2024-04-06T14:00:15.223Z</time>
      </trkpt>
      <trkpt lat="43.90444" lon="3.97142">
        <ele>155.6</ele>
        <time>2024-04-06T14:00:16.259Z</time>
      </trkpt>
      <trkpt lat="43.90446" lon="3.97138">
        <ele>155.7</ele>
        <time>2024-04-06T14:00:17.486Z</time>
      </trkpt>
      <trkpt lat="43.90448" lon="3.97134">
        <ele>155.6</ele>
        <time>2024-04-06T14:00:18.516Z</time>
      </trkpt>
      <trkpt lat="43.90449" lon="3.97129">
        <ele>155.8</ele>
        <time>2024-04-06T14:00:19.934Z</time>
      </trkpt>
      <trkpt lat="43.90449" lon="3.97125">
        <ele>156.1</ele>
        <time>2024-04-06T14:00:21.233Z</time>
      </trkpt>
      <trkpt lat="43.9045" lon="3.9712">
        <ele>156.3</ele>
        <time>2024-04-06T14:00:22.651Z</time>
      </trkpt>
      <trkpt lat="43.9045" lon="3.97116">
        <ele>156.6</ele>
        <time>2024-04-06T14:00:23.949Z</time>
      </trkpt>
      <trkpt lat="43.9045" lon="3.97111">
        <ele>157</ele>
        <time>2024-04-06T14:00:25.613Z</time>
      </trkpt>
      <trkpt lat="43.9045" lon="3.97106">
        <ele>157.8</ele>
        <time>2024-04-06T14:00:28.141Z</time>
      </trkpt>
      <trkpt lat="43.9045" lon="3.97101">
        <ele>158.6</ele>
        <time>2024-04-06T14:00:30.670Z</time>
      </trkpt>
      <trkpt lat="43.9045" lon="3.97096">
        <ele>159.4</ele>
        <time>2024-04-06T14:00:33.199Z</time>
      </trkpt>
      <trkpt lat="43.90452" lon="3.97092">
        <ele>159.8</ele>
        <time>2024-04-06T14:00:34.836Z</time>
      </trkpt>
      <trkpt lat="43.90454" lon="3.97089">
        <ele>160</ele>
        <time>2024-04-06T14:00:36.008Z</time>
      </trkpt>
      <trkpt lat="43.90456" lon="3.97086">
        <ele>160.3</ele>
        <time>2024-04-06T14:00:37.324Z</time>
      </trkpt>
      <trkpt lat="43.90459" lon="3.97084">
        <ele>160.3</ele>
        <time>2024-04-06T14:00:38.389Z</time>
      </trkpt>
      <trkpt lat="43.90461" lon="3.97083">
        <ele>160.3</ele>
        <time>2024-04-06T14:00:39.070Z</time>
      </trkpt>
      <trkpt lat="43.90464" lon="3.97083">
        <ele>160</ele>
        <time>2024-04-06T14:00:39.909Z</time>
      </trkpt>
      <trkpt lat="43.90466" lon="3.97083">
        <ele>159.8</ele>
        <time>2024-04-06T14:00:40.469Z</time>
      </trkpt>
      <trkpt lat="43.90468" lon="3.97083">
        <ele>159.6</ele>
        <time>2024-04-06T14:00:41.029Z</time>
      </trkpt>
      <trkpt lat="43.9047" lon="3.97082">
        <ele>159.6</ele>
        <time>2024-04-06T14:00:41.710Z</time>
      </trkpt>
      <trkpt lat="43.90473" lon="3.97082">
        <ele>159.3</ele>
        <time>2024-04-06T14:00:42.550Z</time>
      </trkpt>
      <trkpt lat="43.90475" lon="3.97082">
        <ele>159.2</ele>
        <time>2024-04-06T14:00:43.109Z</time>
      </trkpt>
      <trkpt lat="43.90478" lon="3.97082">
        <ele>159</ele>
        <time>2024-04-06T14:00:43.949Z</time>
      </trkpt>
      <trkpt lat="43.90481" lon="3.97082">
        <ele>158.7</ele>
        <time>2024-04-06T14:00:44.789Z</time>
      </trkpt>
      <trkpt lat="43.90483" lon="3.97082">
        <ele>158.6</ele>
        <time>2024-04-06T14:00:45.349Z</time>
      </trkpt>
      <trkpt lat="43.90486" lon="3.97081">
        <ele>158.6</ele>
        <time>2024-04-06T14:00:46.336Z</time>
      </trkpt>
      <trkpt lat="43.90489" lon="3.9708">
        <ele>158.7</ele>
        <time>2024-04-06T14:00:47.430Z</time>
      </trkpt>
      <trkpt lat="43.90492" lon="3.97079">
        <ele>158.7</ele>
        <time>2024-04-06T14:00:48.417Z</time>
      </trkpt>
      <trkpt lat="43.90495" lon="3.97079">
        <ele>158.5</ele>
        <time>2024-04-06T14:00:49.257Z</time>
      </trkpt>
      <trkpt lat="43.90498" lon="3.97078">
        <ele>158.5</ele>
        <time>2024-04-06T14:00:50.244Z</time>
      </trkpt>
      <trkpt lat="43.90501" lon="3.97076">
        <ele>158.6</ele>
        <time>2024-04-06T14:00:51.414Z</time>
      </trkpt>
      <trkpt lat="43.90504" lon="3.97074">
        <ele>158.5</ele>
        <time>2024-04-06T14:00:52.387Z</time>
      </trkpt>
      <trkpt lat="43.90508" lon="3.97072">
        <ele>158.1</ele>
        <time>2024-04-06T14:00:53.577Z</time>
      </trkpt>
      <trkpt lat="43.90511" lon="3.97069">
        <ele>158.2</ele>
        <time>2024-04-06T14:00:54.865Z</time>
      </trkpt>
      <trkpt lat="43.90514" lon="3.97066">
        <ele>158.3</ele>
        <time>2024-04-06T14:00:56.152Z</time>
      </trkpt>
      <trkpt lat="43.90518" lon="3.97063">
        <ele>158.2</ele>
        <time>2024-04-06T14:00:57.513Z</time>
      </trkpt>
      <trkpt lat="43.9052" lon="3.97061">
        <ele>158.3</ele>
        <time>2024-04-06T14:00:58.410Z</time>
      </trkpt>
      <trkpt lat="43.90523" lon="3.97058">
        <ele>158.4</ele>
        <time>2024-04-06T14:00:59.697Z</time>
      </trkpt>
      <trkpt lat="43.90526" lon="3.97056">
        <ele>158.3</ele>
        <time>2024-04-06T14:01:00.670Z</time>
      </trkpt>
      <trkpt lat="43.90529" lon="3.97053">
        <ele>158.1</ele>
        <time>2024-04-06T14:01:01.705Z</time>
      </trkpt>
      <trkpt lat="43.90531" lon="3.9705">
        <ele>157.9</ele>
        <time>2024-04-06T14:01:02.529Z</time>
      </trkpt>
      <trkpt lat="43.90533" lon="3.97046">
        <ele>157.9</ele>
        <time>2024-04-06T14:01:03.652Z</time>
      </trkpt>
      <trkpt lat="43.90536" lon="3.97042">
        <ele>157.4</ele>
        <time>2024-04-06T14:01:04.817Z</time>
      </trkpt>
      <trkpt lat="43.90538" lon="3.97038">
        <ele>157.2</ele>
        <time>2024-04-06T14:01:05.799Z</time>
      </trkpt>
      <trkpt lat="43.9054" lon="3.97033">
        <ele>157</ele>
        <time>2024-04-06T14:01:06.952Z</time>
      </trkpt>
      <trkpt lat="43.90542" lon="3.97029">
        <ele>156.7</ele>
        <time>2024-04-06T14:01:07.934Z</time>
      </trkpt>
      <trkpt lat="43.90543" lon="3.97024">
        <ele>156.6</ele>
        <time>2024-04-06T14:01:09.038Z</time>
      </trkpt>
      <trkpt lat="43.90544" lon="3.97019">
        <ele>156.5</ele>
        <time>2024-04-06T14:01:10.141Z</time>
      </trkpt>
      <trkpt lat="43.90544" lon="3.97015">
        <ele>156.7</ele>
        <time>2024-04-06T14:01:11.293Z</time>
      </trkpt>
      <trkpt lat="43.90545" lon="3.9701">
        <ele>156.6</ele>
        <time>2024-04-06T14:01:12.397Z</time>
      </trkpt>
      <trkpt lat="43.90545" lon="3.97005">
        <ele>157</ele>
        <time>2024-04-06T14:01:14.060Z</time>
      </trkpt>
      <trkpt lat="43.90545" lon="3.97">
        <ele>157.3</ele>
        <time>2024-04-06T14:01:15.570Z</time>
      </trkpt>
      <trkpt lat="43.90545" lon="3.96994">
        <ele>158</ele>
        <time>2024-04-06T14:01:17.973Z</time>
      </trkpt>
      <trkpt lat="43.90545" lon="3.96989">
        <ele>158.6</ele>
        <time>2024-04-06T14:01:20.010Z</time>
      </trkpt>
      <trkpt lat="43.90546" lon="3.96984">
        <ele>158.9</ele>
        <time>2024-04-06T14:01:21.562Z</time>
      </trkpt>
      <trkpt lat="43.90548" lon="3.9698">
        <ele>158.8</ele>
        <time>2024-04-06T14:01:22.591Z</time>
      </trkpt>
      <trkpt lat="43.90551" lon="3.96977">
        <ele>158.3</ele>
        <time>2024-04-06T14:01:23.627Z</time>
      </trkpt>
      <trkpt lat="43.90554" lon="3.96975">
        <ele>157.8</ele>
        <time>2024-04-06T14:01:24.558Z</time>
      </trkpt>
      <trkpt lat="43.90558" lon="3.96972">
        <ele>157.4</ele>
        <time>2024-04-06T14:01:25.831Z</time>
      </trkpt>
      <trkpt lat="43.90562" lon="3.9697">
        <ele>156.7</ele>
        <time>2024-04-06T14:01:27.022Z</time>
      </trkpt>
      <trkpt lat="43.90566" lon="3.96968">
        <ele>156</ele>
        <time>2024-04-06T14:01:28.212Z</time>
      </trkpt>
      <trkpt lat="43.90569" lon="3.96966">
        <ele>155.6</ele>
        <time>2024-04-06T14:01:29.144Z</time>
      </trkpt>
      <trkpt lat="43.90572" lon="3.96963">
        <ele>155.4</ele>
        <time>2024-04-06T14:01:30.179Z</time>
      </trkpt>
      <trkpt lat="43.90575" lon="3.96959">
        <ele>155.3</ele>
        <time>2024-04-06T14:01:31.417Z</time>
      </trkpt>
      <trkpt lat="43.90577" lon="3.96955">
        <ele>155.6</ele>
        <time>2024-04-06T14:01:32.898Z</time>
      </trkpt>
      <trkpt lat="43.90579" lon="3.96951">
        <ele>155.8</ele>
        <time>2024-04-06T14:01:34.245Z</time>
      </trkpt>
      <trkpt lat="43.9058" lon="3.96947">
        <ele>156.3</ele>
        <time>2024-04-06T14:01:35.953Z</time>
      </trkpt>
      <trkpt lat="43.90581" lon="3.96943">
        <ele>156.7</ele>
        <time>2024-04-06T14:01:37.466Z</time>
      </trkpt>
      <trkpt lat="43.90582" lon="3.96938">
        <ele>157</ele>
        <time>2024-04-06T14:01:39.018Z</time>
      </trkpt>
      <trkpt lat="43.90584" lon="3.96933">
        <ele>156.9</ele>
        <time>2024-04-06T14:01:40.242Z</time>
      </trkpt>
      <trkpt lat="43.90586" lon="3.96929">
        <ele>156.4</ele>
        <time>2024-04-06T14:01:41.225Z</time>
      </trkpt>
      <trkpt lat="43.90588" lon="3.96924">
        <ele>156</ele>
        <time>2024-04-06T14:01:42.378Z</time>
      </trkpt>
      <trkpt lat="43.90589" lon="3.96919">
        <ele>156.1</ele>
        <time>2024-04-06T14:01:43.679Z</time>
      </trkpt>
      <trkpt lat="43.9059" lon="3.96914">
        <ele>155.9</ele>
        <time>2024-04-06T14:01:44.726Z</time>
      </trkpt>
      <trkpt lat="43.90591" lon="3.96909">
        <ele>155.3</ele>
        <time>2024-04-06T14:01:45.772Z</time>
      </trkpt>
      <trkpt lat="43.9059" lon="3.96904">
        <ele>155.8</ele>
        <time>2024-04-06T14:01:47.645Z</time>
      </trkpt>
      <trkpt lat="43.9059" lon="3.969">
        <ele>155.8</ele>
        <time>2024-04-06T14:01:48.567Z</time>
      </trkpt>
      <trkpt lat="43.90589" lon="3.96896">
        <ele>156.3</ele>
        <time>2024-04-06T14:01:50.275Z</time>
      </trkpt>
      <trkpt lat="43.90588" lon="3.96892">
        <ele>157</ele>
        <time>2024-04-06T14:01:52.481Z</time>
      </trkpt>
      <trkpt lat="43.90587" lon="3.96888">
        <ele>157.7</ele>
        <time>2024-04-06T14:01:54.687Z</time>
      </trkpt>
      <trkpt lat="43.90586" lon="3.96884">
        <ele>158.9</ele>
        <time>2024-04-06T14:01:58.996Z</time>
      </trkpt>
      <trkpt lat="43.90586" lon="3.9688">
        <ele>159.4</ele>
        <time>2024-04-06T14:02:00.669Z</time>
      </trkpt>
      <trkpt lat="43.90585" lon="3.96876">
        <ele>160.5</ele>
        <time>2024-04-06T14:02:04.459Z</time>
      </trkpt>
      <trkpt lat="43.90586" lon="3.96872">
        <ele>160.4</ele>
        <time>2024-04-06T14:02:05.343Z</time>
      </trkpt>
      <trkpt lat="43.90587" lon="3.96868">
        <ele>160.5</ele>
        <time>2024-04-06T14:02:06.425Z</time>
      </trkpt>
      <trkpt lat="43.90589" lon="3.96864">
        <ele>160.1</ele>
        <time>2024-04-06T14:02:07.407Z</time>
      </trkpt>
      <trkpt lat="43.90591" lon="3.96861">
        <ele>159.7</ele>
        <time>2024-04-06T14:02:08.231Z</time>
      </trkpt>
      <trkpt lat="43.90593" lon="3.96858">
        <ele>159.5</ele>
        <time>2024-04-06T14:02:09.056Z</time>
      </trkpt>
      <trkpt lat="43.90596" lon="3.96856">
        <ele>158.6</ele>
        <time>2024-04-06T14:02:09.988Z</time>
      </trkpt>
      <trkpt lat="43.90599" lon="3.96854">
        <ele>157.8</ele>
        <time>2024-04-06T14:02:10.920Z</time>
      </trkpt>
      <trkpt lat="43.90601" lon="3.96851">
        <ele>157.7</ele>
        <time>2024-04-06T14:02:11.770Z</time>
      </trkpt>
      <trkpt lat="43.90603" lon="3.96849">
        <ele>157.3</ele>
        <time>2024-04-06T14:02:12.460Z</time>
      </trkpt>
      <trkpt lat="43.90605" lon="3.96846">
        <ele>157.2</ele>
        <time>2024-04-06T14:02:13.311Z</time>
      </trkpt>
      <trkpt lat="43.90607" lon="3.96843">
        <ele>157.1</ele>
        <time>2024-04-06T14:02:14.161Z</time>
      </trkpt>
      <trkpt lat="43.90608" lon="3.96839">
        <ele>157.7</ele>
        <time>2024-04-06T14:02:16.098Z</time>
      </trkpt>
      <trkpt lat="43.90609" lon="3.96836">
        <ele>158.1</ele>
        <time>2024-04-06T14:02:17.453Z</time>
      </trkpt>
      <trkpt lat="43.9061" lon="3.96832">
        <ele>158.5</ele>
        <time>2024-04-06T14:02:18.966Z</time>
      </trkpt>
      <trkpt lat="43.90611" lon="3.96829">
        <ele>158.5</ele>
        <time>2024-04-06T14:02:19.728Z</time>
      </trkpt>
      <trkpt lat="43.90611" lon="3.96825">
        <ele>158.9</ele>
        <time>2024-04-06T14:02:21.198Z</time>
      </trkpt>
      <trkpt lat="43.90611" lon="3.96822">
        <ele>159.3</ele>
        <time>2024-04-06T14:02:22.510Z</time>
      </trkpt>
      <trkpt lat="43.90612" lon="3.96819">
        <ele>158.8</ele>
        <time>2024-04-06T14:02:23.177Z</time>
      </trkpt>
      <trkpt lat="43.90612" lon="3.96816">
        <ele>159.2</ele>
        <time>2024-04-06T14:02:24.489Z</time>
      </trkpt>
      <trkpt lat="43.90612" lon="3.96813">
        <ele>159.5</ele>
        <time>2024-04-06T14:02:25.592Z</time>
      </trkpt>
      <trkpt lat="43.90612" lon="3.96809">
        <ele>159.9</ele>
        <time>2024-04-06T14:02:27.062Z</time>
      </trkpt>
      <trkpt lat="43.90612" lon="3.96806">
        <ele>160.2</ele>
        <time>2024-04-06T14:02:28.165Z</time>
      </trkpt>
      <trkpt lat="43.90612" lon="3.96803">
        <ele>160.3</ele>
        <time>2024-04-06T14:02:28.965Z</time>
      </trkpt>
      <trkpt lat="43.90612" lon="3.968">
        <ele>160.3</ele>
        <time>2024-04-06T14:02:29.657Z</time>
      </trkpt>
      <trkpt lat="43.90612" lon="3.96797">
        <ele>160.3</ele>
        <time>2024-04-06T14:02:30.349Z</time>
      </trkpt>
      <trkpt lat="43.90612" lon="3.96794">
        <ele>160.3</ele>
        <time>2024-04-06T14:02:31.040Z</time>
      </trkpt>
      <trkpt lat="43.90612" lon="3.96791">
        <ele>160.3</ele>
        <time>2024-04-06T14:02:31.732Z</time>
      </trkpt>
      <trkpt lat="43.90612" lon="3.96787">
        <ele>160.4</ele>
        <time>2024-04-06T14:02:32.760Z</time>
      </trkpt>
      <trkpt lat="43.90612" lon="3.96784">
        <ele>160.4</ele>
        <time>2024-04-06T14:02:33.452Z</time>
      </trkpt>
      <trkpt lat="43.90612" lon="3.9678">
        <ele>160.4</ele>
        <time>2024-04-06T14:02:34.374Z</time>
      </trkpt>
      <trkpt lat="43.90612" lon="3.96777">
        <ele>160.4</ele>
        <time>2024-04-06T14:02:35.066Z</time>
      </trkpt>
      <trkpt lat="43.90612" lon="3.96773">
        <ele>160.2</ele>
        <time>2024-04-06T14:02:35.872Z</time>
      </trkpt>
      <trkpt lat="43.90612" lon="3.9677">
        <ele>160.1</ele>
        <time>2024-04-06T14:02:36.478Z</time>
      </trkpt>
      <trkpt lat="43.90612" lon="3.96767">
        <ele>160</ele>
        <time>2024-04-06T14:02:37.083Z</time>
      </trkpt>
      <trkpt lat="43.90611" lon="3.96763">
        <ele>160.5</ele>
        <time>2024-04-06T14:02:38.791Z</time>
      </trkpt>
      <trkpt lat="43.9061" lon="3.9676">
        <ele>160.9</ele>
        <time>2024-04-06T14:02:40.145Z</time>
      </trkpt>
      <trkpt lat="43.90609" lon="3.96758">
        <ele>161.2</ele>
        <time>2024-04-06T14:02:41.154Z</time>
      </trkpt>
      <trkpt lat="43.90608" lon="3.96755">
        <ele>161.6</ele>
        <time>2024-04-06T14:02:42.508Z</time>
      </trkpt>
      <trkpt lat="43.90608" lon="3.96752">
        <ele>161.5</ele>
        <time>2024-04-06T14:02:43.113Z</time>
      </trkpt>
      <trkpt lat="43.90607" lon="3.96749">
        <ele>161.7</ele>
        <time>2024-04-06T14:02:44.114Z</time>
      </trkpt>
      <trkpt lat="43.90607" lon="3.96746">
        <ele>161.2</ele>
        <time>2024-04-06T14:02:44.719Z</time>
      </trkpt>
      <trkpt lat="43.90606" lon="3.96743">
        <ele>161.2</ele>
        <time>2024-04-06T14:02:45.481Z</time>
      </trkpt>
      <trkpt lat="43.90605" lon="3.96741">
        <ele>161.3</ele>
        <time>2024-04-06T14:02:46.155Z</time>
      </trkpt>
      <trkpt lat="43.90605" lon="3.96738">
        <ele>160.8</ele>
        <time>2024-04-06T14:02:46.760Z</time>
      </trkpt>
      <trkpt lat="43.90604" lon="3.96736">
        <ele>160.9</ele>
        <time>2024-04-06T14:02:47.433Z</time>
      </trkpt>
      <trkpt lat="43.90603" lon="3.96733">
        <ele>160.9</ele>
        <time>2024-04-06T14:02:48.195Z</time>
      </trkpt>
      <trkpt lat="43.90602" lon="3.96731">
        <ele>161.1</ele>
        <time>2024-04-06T14:02:49.013Z</time>
      </trkpt>
      <trkpt lat="43.90601" lon="3.96729">
        <ele>161.2</ele>
        <time>2024-04-06T14:02:49.687Z</time>
      </trkpt>
      <trkpt lat="43.906" lon="3.96727">
        <ele>161.4</ele>
        <time>2024-04-06T14:02:50.505Z</time>
      </trkpt>
      <trkpt lat="43.90599" lon="3.96724">
        <ele>161.4</ele>
        <time>2024-04-06T14:02:51.267Z</time>
      </trkpt>
      <trkpt lat="43.90598" lon="3.96722">
        <ele>161.6</ele>
        <time>2024-04-06T14:02:52.085Z</time>
      </trkpt>
      <trkpt lat="43.90597" lon="3.96719">
        <ele>162.5</ele>
        <time>2024-04-06T14:02:55.255Z</time>
      </trkpt>
      <trkpt lat="43.90597" lon="3.96716">
        <ele>162.9</ele>
        <time>2024-04-06T14:02:56.567Z</time>
      </trkpt>
      <trkpt lat="43.90597" lon="3.96713">
        <ele>163.3</ele>
        <time>2024-04-06T14:02:57.879Z</time>
      </trkpt>
      <trkpt lat="43.90597" lon="3.9671">
        <ele>163.6</ele>
        <time>2024-04-06T14:02:58.982Z</time>
      </trkpt>
      <trkpt lat="43.90597" lon="3.96707">
        <ele>164</ele>
        <time>2024-04-06T14:03:00.293Z</time>
      </trkpt>
      <trkpt lat="43.90598" lon="3.96704">
        <ele>164</ele>
        <time>2024-04-06T14:03:01.056Z</time>
      </trkpt>
      <trkpt lat="43.90599" lon="3.96702">
        <ele>163.8</ele>
        <time>2024-04-06T14:03:01.547Z</time>
      </trkpt>
      <trkpt lat="43.906" lon="3.96699">
        <ele>163.8</ele>
        <time>2024-04-06T14:03:02.309Z</time>
      </trkpt>
      <trkpt lat="43.90602" lon="3.96696">
        <ele>163.4</ele>
        <time>2024-04-06T14:03:03.133Z</time>
      </trkpt>
      <trkpt lat="43.90604" lon="3.96694">
        <ele>162.9</ele>
        <time>2024-04-06T14:03:03.823Z</time>
      </trkpt>
      <trkpt lat="43.90607" lon="3.96691">
        <ele>162.3</ele>
        <time>2024-04-06T14:03:04.858Z</time>
      </trkpt>
      <trkpt lat="43.90609" lon="3.96688">
        <ele>162.2</ele>
        <time>2024-04-06T14:03:05.709Z</time>
      </trkpt>
      <trkpt lat="43.90611" lon="3.96685">
        <ele>162.1</ele>
        <time>2024-04-06T14:03:06.560Z</time>
      </trkpt>
      <trkpt lat="43.90613" lon="3.96682">
        <ele>161.8</ele>
        <time>2024-04-06T14:03:07.384Z</time>
      </trkpt>
      <trkpt lat="43.90615" lon="3.96678">
        <ele>161.7</ele>
        <time>2024-04-06T14:03:08.414Z</time>
      </trkpt>
      <trkpt lat="43.90616" lon="3.96674">
        <ele>162</ele>
        <time>2024-04-06T14:03:09.761Z</time>
      </trkpt>
      <trkpt lat="43.90618" lon="3.9667">
        <ele>161.9</ele>
        <time>2024-04-06T14:03:10.791Z</time>
      </trkpt>
      <trkpt lat="43.90621" lon="3.96666">
        <ele>161.1</ele>
        <time>2024-04-06T14:03:11.955Z</time>
      </trkpt>
      <trkpt lat="43.90623" lon="3.96661">
        <ele>160.9</ele>
        <time>2024-04-06T14:03:13.109Z</time>
      </trkpt>
      <trkpt lat="43.90625" lon="3.96657">
        <ele>160.6</ele>
        <time>2024-04-06T14:03:14.091Z</time>
      </trkpt>
      <trkpt lat="43.90628" lon="3.96651">
        <ele>160.2</ele>
        <time>2024-04-06T14:03:15.564Z</time>
      </trkpt>
      <trkpt lat="43.9063" lon="3.96646">
        <ele>160.2</ele>
        <time>2024-04-06T14:03:16.883Z</time>
      </trkpt>
      <trkpt lat="43.90633" lon="3.96641">
        <ele>159.9</ele>
        <time>2024-04-06T14:03:18.195Z</time>
      </trkpt>
      <trkpt lat="43.90635" lon="3.96637">
        <ele>159.8</ele>
        <time>2024-04-06T14:03:19.225Z</time>
      </trkpt>
      <trkpt lat="43.90638" lon="3.96632">
        <ele>159.3</ele>
        <time>2024-04-06T14:03:20.537Z</time>
      </trkpt>
      <trkpt lat="43.9064" lon="3.96628">
        <ele>159</ele>
        <time>2024-04-06T14:03:21.519Z</time>
      </trkpt>
      <trkpt lat="43.90642" lon="3.96624">
        <ele>158.5</ele>
        <time>2024-04-06T14:03:22.502Z</time>
      </trkpt>
      <trkpt lat="43.90644" lon="3.9662">
        <ele>158</ele>
        <time>2024-04-06T14:03:23.484Z</time>
      </trkpt>
      <trkpt lat="43.90646" lon="3.96615">
        <ele>157.6</ele>
        <time>2024-04-06T14:03:24.637Z</time>
      </trkpt>
      <trkpt lat="43.90648" lon="3.96609">
        <ele>157.3</ele>
        <time>2024-04-06T14:03:25.971Z</time>
      </trkpt>
      <trkpt lat="43.90649" lon="3.96604">
        <ele>157.3</ele>
        <time>2024-04-06T14:03:27.167Z</time>
      </trkpt>
      <trkpt lat="43.90651" lon="3.96599">
        <ele>156.8</ele>
        <time>2024-04-06T14:03:28.321Z</time>
      </trkpt>
      <trkpt lat="43.90653" lon="3.96594">
        <ele>156.2</ele>
        <time>2024-04-06T14:03:29.474Z</time>
      </trkpt>
      <trkpt lat="43.90655" lon="3.96588">
        <ele>155.8</ele>
        <time>2024-04-06T14:03:30.808Z</time>
      </trkpt>
      <trkpt lat="43.90655" lon="3.96582">
        <ele>156.4</ele>
        <time>2024-04-06T14:03:33.013Z</time>
      </trkpt>
      <trkpt lat="43.90657" lon="3.96577">
        <ele>155.8</ele>
        <time>2024-04-06T14:03:34.167Z</time>
      </trkpt>
      <trkpt lat="43.90659" lon="3.96572">
        <ele>155.3</ele>
        <time>2024-04-06T14:03:35.320Z</time>
      </trkpt>
      <trkpt lat="43.9066" lon="3.96567">
        <ele>155.2</ele>
        <time>2024-04-06T14:03:36.423Z</time>
      </trkpt>
      <trkpt lat="43.90662" lon="3.96562">
        <ele>154.7</ele>
        <time>2024-04-06T14:03:37.577Z</time>
      </trkpt>
      <trkpt lat="43.90664" lon="3.96558">
        <ele>154.1</ele>
        <time>2024-04-06T14:03:38.559Z</time>
      </trkpt>
      <trkpt lat="43.90667" lon="3.96553">
        <ele>153.2</ele>
        <time>2024-04-06T14:03:39.872Z</time>
      </trkpt>
      <trkpt lat="43.90669" lon="3.96549">
        <ele>153</ele>
        <time>2024-04-06T14:03:40.854Z</time>
      </trkpt>
      <trkpt lat="43.90672" lon="3.96545">
        <ele>152.3</ele>
        <time>2024-04-06T14:03:42.019Z</time>
      </trkpt>
      <trkpt lat="43.90674" lon="3.96541">
        <ele>151.9</ele>
        <time>2024-04-06T14:03:43.001Z</time>
      </trkpt>
      <trkpt lat="43.90677" lon="3.96537">
        <ele>151.1</ele>
        <time>2024-04-06T14:03:44.165Z</time>
      </trkpt>
      <trkpt lat="43.90679" lon="3.96533">
        <ele>150.6</ele>
        <time>2024-04-06T14:03:45.147Z</time>
      </trkpt>
      <trkpt lat="43.9068" lon="3.96529">
        <ele>150.6</ele>
        <time>2024-04-06T14:03:46.124Z</time>
      </trkpt>
      <trkpt lat="43.90682" lon="3.96524">
        <ele>149.8</ele>
        <time>2024-04-06T14:03:47.277Z</time>
      </trkpt>
      <trkpt lat="43.90683" lon="3.96519">
        <ele>149.3</ele>
        <time>2024-04-06T14:03:48.324Z</time>
      </trkpt>
      <trkpt lat="43.90684" lon="3.96513">
        <ele>148.8</ele>
        <time>2024-04-06T14:03:49.566Z</time>
      </trkpt>
      <trkpt lat="43.90685" lon="3.96508">
        <ele>148.4</ele>
        <time>2024-04-06T14:03:50.613Z</time>
      </trkpt>
      <trkpt lat="43.90686" lon="3.96502">
        <ele>148</ele>
        <time>2024-04-06T14:03:51.855Z</time>
      </trkpt>
      <trkpt lat="43.90688" lon="3.96497">
        <ele>147.6</ele>
        <time>2024-04-06T14:03:53.009Z</time>
      </trkpt>
      <trkpt lat="43.90689" lon="3.96492">
        <ele>147.8</ele>
        <time>2024-04-06T14:03:54.427Z</time>
      </trkpt>
      <trkpt lat="43.90691" lon="3.96486">
        <ele>147.8</ele>
        <time>2024-04-06T14:03:55.951Z</time>
      </trkpt>
      <trkpt lat="43.90693" lon="3.96482">
        <ele>147.5</ele>
        <time>2024-04-06T14:03:56.933Z</time>
      </trkpt>
      <trkpt lat="43.90695" lon="3.96477">
        <ele>147.4</ele>
        <time>2024-04-06T14:03:58.158Z</time>
      </trkpt>
      <trkpt lat="43.90698" lon="3.96472">
        <ele>147.3</ele>
        <time>2024-04-06T14:03:59.564Z</time>
      </trkpt>
      <trkpt lat="43.907" lon="3.96467">
        <ele>147.7</ele>
        <time>2024-04-06T14:04:01.375Z</time>
      </trkpt>
      <trkpt lat="43.90702" lon="3.96464">
        <ele>147.8</ele>
        <time>2024-04-06T14:04:02.424Z</time>
      </trkpt>
      <trkpt lat="43.90704" lon="3.9646">
        <ele>148</ele>
        <time>2024-04-06T14:04:03.770Z</time>
      </trkpt>
      <trkpt lat="43.90707" lon="3.96458">
        <ele>147.6</ele>
        <time>2024-04-06T14:04:04.702Z</time>
      </trkpt>
      <trkpt lat="43.90709" lon="3.96455">
        <ele>147.6</ele>
        <time>2024-04-06T14:04:05.644Z</time>
      </trkpt>
      <trkpt lat="43.90712" lon="3.96452">
        <ele>147.4</ele>
        <time>2024-04-06T14:04:06.679Z</time>
      </trkpt>
      <trkpt lat="43.90715" lon="3.9645">
        <ele>147</ele>
        <time>2024-04-06T14:04:07.611Z</time>
      </trkpt>
      <trkpt lat="43.90718" lon="3.96447">
        <ele>146.7</ele>
        <time>2024-04-06T14:04:08.646Z</time>
      </trkpt>
      <trkpt lat="43.90722" lon="3.96443">
        <ele>146.2</ele>
        <time>2024-04-06T14:04:10.027Z</time>
      </trkpt>
      <trkpt lat="43.90725" lon="3.9644">
        <ele>146.8</ele>
        <time>2024-04-06T14:04:12.084Z</time>
      </trkpt>
      <trkpt lat="43.90728" lon="3.96437">
        <ele>147.3</ele>
        <time>2024-04-06T14:04:13.946Z</time>
      </trkpt>
      <trkpt lat="43.90732" lon="3.96435">
        <ele>147.7</ele>
        <time>2024-04-06T14:04:15.796Z</time>
      </trkpt>
      <trkpt lat="43.90739" lon="3.96435">
        <ele>148.2</ele>
        <time>2024-04-06T14:04:18.615Z</time>
      </trkpt>
      <trkpt lat="43.90742" lon="3.96436">
        <ele>148.5</ele>
        <time>2024-04-06T14:04:19.972Z</time>
      </trkpt>
      <trkpt lat="43.90742" lon="3.96441">
        <ele>149.1</ele>
        <time>2024-04-06T14:04:22.010Z</time>
      </trkpt>
      <trkpt lat="43.90742" lon="3.96443">
        <ele>149.4</ele>
        <time>2024-04-06T14:04:22.967Z</time>
      </trkpt>
      <trkpt lat="43.90741" lon="3.96446">
        <ele>149.5</ele>
        <time>2024-04-06T14:04:23.837Z</time>
      </trkpt>
      <trkpt lat="43.9074" lon="3.96449">
        <ele>149.4</ele>
        <time>2024-04-06T14:04:24.509Z</time>
      </trkpt>
      <trkpt lat="43.9074" lon="3.96451">
        <ele>149.5</ele>
        <time>2024-04-06T14:04:25.085Z</time>
      </trkpt>
      <trkpt lat="43.90739" lon="3.96453">
        <ele>149.3</ele>
        <time>2024-04-06T14:04:25.576Z</time>
      </trkpt>
      <trkpt lat="43.90738" lon="3.96456">
        <ele>149.1</ele>
        <time>2024-04-06T14:04:26.243Z</time>
      </trkpt>
      <trkpt lat="43.90737" lon="3.96458">
        <ele>148.8</ele>
        <time>2024-04-06T14:04:26.734Z</time>
      </trkpt>
      <trkpt lat="43.90735" lon="3.96461">
        <ele>148.1</ele>
        <time>2024-04-06T14:04:27.559Z</time>
      </trkpt>
      <trkpt lat="43.90734" lon="3.96463">
        <ele>147.7</ele>
        <time>2024-04-06T14:04:28.050Z</time>
      </trkpt>
      <trkpt lat="43.90733" lon="3.96466">
        <ele>147.2</ele>
        <time>2024-04-06T14:04:28.717Z</time>
      </trkpt>
      <trkpt lat="43.90733" lon="3.96469">
        <ele>147.1</ele>
        <time>2024-04-06T14:04:29.322Z</time>
      </trkpt>
      <trkpt lat="43.90732" lon="3.96472">
        <ele>146.6</ele>
        <time>2024-04-06T14:04:29.988Z</time>
      </trkpt>
      <trkpt lat="43.90731" lon="3.96474">
        <ele>146.3</ele>
        <time>2024-04-06T14:04:30.480Z</time>
      </trkpt>
      <trkpt lat="43.90731" lon="3.96477">
        <ele>146.6</ele>
        <time>2024-04-06T14:04:31.582Z</time>
      </trkpt>
      <trkpt lat="43.90729" lon="3.96479">
        <ele>145.9</ele>
        <time>2024-04-06T14:04:32.272Z</time>
      </trkpt>
      <trkpt lat="43.90728" lon="3.96482">
        <ele>145.8</ele>
        <time>2024-04-06T14:04:32.944Z</time>
      </trkpt>
      <trkpt lat="43.90727" lon="3.96485">
        <ele>145.8</ele>
        <time>2024-04-06T14:04:33.706Z</time>
      </trkpt>
      <trkpt lat="43.90726" lon="3.96487">
        <ele>145.6</ele>
        <time>2024-04-06T14:04:34.197Z</time>
      </trkpt>
      <trkpt lat="43.90725" lon="3.9649">
        <ele>145.6</ele>
        <time>2024-04-06T14:04:34.959Z</time>
      </trkpt>
      <trkpt lat="43.90725" lon="3.96493">
        <ele>146</ele>
        <time>2024-04-06T14:04:36.271Z</time>
      </trkpt>
      <trkpt lat="43.90725" lon="3.96496">
        <ele>146.4</ele>
        <time>2024-04-06T14:04:37.583Z</time>
      </trkpt>
      <trkpt lat="43.90725" lon="3.96498">
        <ele>146.6</ele>
        <time>2024-04-06T14:04:38.318Z</time>
      </trkpt>
      <trkpt lat="43.90726" lon="3.96503">
        <ele>147.2</ele>
        <time>2024-04-06T14:04:40.385Z</time>
      </trkpt>
      <trkpt lat="43.90727" lon="3.96507">
        <ele>147.5</ele>
        <time>2024-04-06T14:04:41.732Z</time>
      </trkpt>
      <trkpt lat="43.90728" lon="3.96512">
        <ele>147.8</ele>
        <time>2024-04-06T14:04:43.283Z</time>
      </trkpt>
      <trkpt lat="43.90728" lon="3.96516">
        <ele>147.8</ele>
        <time>2024-04-06T14:04:44.205Z</time>
      </trkpt>
      <trkpt lat="43.90728" lon="3.96521">
        <ele>147.7</ele>
        <time>2024-04-06T14:04:45.265Z</time>
      </trkpt>
      <trkpt lat="43.90729" lon="3.96525">
        <ele>148</ele>
        <time>2024-04-06T14:04:46.612Z</time>
      </trkpt>
      <trkpt lat="43.90729" lon="3.96529">
        <ele>147.9</ele>
        <time>2024-04-06T14:04:47.443Z</time>
      </trkpt>
      <trkpt lat="43.90729" lon="3.96534">
        <ele>147.8</ele>
        <time>2024-04-06T14:04:48.503Z</time>
      </trkpt>
      <trkpt lat="43.9073" lon="3.96537">
        <ele>148.2</ele>
        <time>2024-04-06T14:04:49.857Z</time>
      </trkpt>
      <trkpt lat="43.9073" lon="3.96541">
        <ele>148.1</ele>
        <time>2024-04-06T14:04:50.687Z</time>
      </trkpt>
      <trkpt lat="43.9073" lon="3.96545">
        <ele>148.1</ele>
        <time>2024-04-06T14:04:51.609Z</time>
      </trkpt>
      <trkpt lat="43.90731" lon="3.96548">
        <ele>148.6</ele>
        <time>2024-04-06T14:04:53.202Z</time>
      </trkpt>
      <trkpt lat="43.90733" lon="3.96551">
        <ele>149.8</ele>
        <time>2024-04-06T14:04:57.584Z</time>
      </trkpt>
      <trkpt lat="43.90734" lon="3.96554">
        <ele>150.6</ele>
        <time>2024-04-06T14:05:00.259Z</time>
      </trkpt>
      <trkpt lat="43.90735" lon="3.96558">
        <ele>151.2</ele>
        <time>2024-04-06T14:05:02.196Z</time>
      </trkpt>
      <trkpt lat="43.90737" lon="3.96561">
        <ele>152.5</ele>
        <time>2024-04-06T14:05:07.103Z</time>
      </trkpt>
      <trkpt lat="43.90738" lon="3.96564">
        <ele>153.1</ele>
        <time>2024-04-06T14:05:08.990Z</time>
      </trkpt>
      <trkpt lat="43.90739" lon="3.96567">
        <ele>153.8</ele>
        <time>2024-04-06T14:05:11.235Z</time>
      </trkpt>
      <trkpt lat="43.9074" lon="3.9657">
        <ele>154.5</ele>
        <time>2024-04-06T14:05:13.480Z</time>
      </trkpt>
      <trkpt lat="43.90742" lon="3.96572">
        <ele>155.9</ele>
        <time>2024-04-06T14:05:17.621Z</time>
      </trkpt>
      <trkpt lat="43.90742" lon="3.96574">
        <ele>155.9</ele>
        <time>2024-04-06T14:05:18.082Z</time>
      </trkpt>
      <trkpt lat="43.90743" lon="3.96576">
        <ele>156.6</ele>
        <time>2024-04-06T14:05:20.613Z</time>
      </trkpt>
      <trkpt lat="43.90743" lon="3.96577">
        <ele>156.7</ele>
        <time>2024-04-06T14:05:20.980Z</time>
      </trkpt>
      <trkpt lat="43.90744" lon="3.9658">
        <ele>157.4</ele>
        <time>2024-04-06T14:05:23.225Z</time>
      </trkpt>
      <trkpt lat="43.90744" lon="3.96583">
        <ele>157.5</ele>
        <time>2024-04-06T14:05:24.026Z</time>
      </trkpt>
      <trkpt lat="43.90744" lon="3.96587">
        <ele>156.8</ele>
        <time>2024-04-06T14:05:24.833Z</time>
      </trkpt>
      <trkpt lat="43.90745" lon="3.96592">
        <ele>156.6</ele>
        <time>2024-04-06T14:05:25.880Z</time>
      </trkpt>
      <trkpt lat="43.90745" lon="3.96595">
        <ele>156.1</ele>
        <time>2024-04-06T14:05:26.485Z</time>
      </trkpt>
      <trkpt lat="43.90746" lon="3.96598">
        <ele>156.2</ele>
        <time>2024-04-06T14:05:27.355Z</time>
      </trkpt>
      <trkpt lat="43.90747" lon="3.96601">
        <ele>156.3</ele>
        <time>2024-04-06T14:05:28.225Z</time>
      </trkpt>
      <trkpt lat="43.90747" lon="3.96604">
        <ele>155.7</ele>
        <time>2024-04-06T14:05:28.830Z</time>
      </trkpt>
      <trkpt lat="43.90748" lon="3.96607">
        <ele>155.7</ele>
        <time>2024-04-06T14:05:29.592Z</time>
      </trkpt>
      <trkpt lat="43.90748" lon="3.9661">
        <ele>155.1</ele>
        <time>2024-04-06T14:05:30.197Z</time>
      </trkpt>
      <trkpt lat="43.90749" lon="3.96612">
        <ele>155.4</ele>
        <time>2024-04-06T14:05:31.206Z</time>
      </trkpt>
      <trkpt lat="43.90749" lon="3.96615">
        <ele>155.4</ele>
        <time>2024-04-06T14:05:31.898Z</time>
      </trkpt>
      <trkpt lat="43.9075" lon="3.96617">
        <ele>156</ele>
        <time>2024-04-06T14:05:33.918Z</time>
      </trkpt>
      <trkpt lat="43.90751" lon="3.9662">
        <ele>156.6</ele>
        <time>2024-04-06T14:05:35.805Z</time>
      </trkpt>
      <trkpt lat="43.90751" lon="3.96622">
        <ele>156.6</ele>
        <time>2024-04-06T14:05:36.266Z</time>
      </trkpt>
      <trkpt lat="43.90752" lon="3.96627">
        <ele>157.2</ele>
        <time>2024-04-06T14:05:38.333Z</time>
      </trkpt>
      <trkpt lat="43.90753" lon="3.96629">
        <ele>157.7</ele>
        <time>2024-04-06T14:05:39.926Z</time>
      </trkpt>
      <trkpt lat="43.90753" lon="3.96634">
        <ele>157.7</ele>
        <time>2024-04-06T14:05:41.079Z</time>
      </trkpt>
      <trkpt lat="43.90753" lon="3.96637">
        <ele>157.6</ele>
        <time>2024-04-06T14:05:41.684Z</time>
      </trkpt>
      <trkpt lat="43.90753" lon="3.96639">
        <ele>157.6</ele>
        <time>2024-04-06T14:05:42.145Z</time>
      </trkpt>
      <trkpt lat="43.90753" lon="3.96642">
        <ele>157.7</ele>
        <time>2024-04-06T14:05:42.946Z</time>
      </trkpt>
      <trkpt lat="43.90754" lon="3.96647">
        <ele>158.3</ele>
        <time>2024-04-06T14:05:45.013Z</time>
      </trkpt>
      <trkpt lat="43.90754" lon="3.96649">
        <ele>158.4</ele>
        <time>2024-04-06T14:05:45.589Z</time>
      </trkpt>
      <trkpt lat="43.90754" lon="3.96652">
        <ele>158.4</ele>
        <time>2024-04-06T14:05:46.281Z</time>
      </trkpt>
      <trkpt lat="43.90755" lon="3.96655">
        <ele>159</ele>
        <time>2024-04-06T14:05:48.167Z</time>
      </trkpt>
      <trkpt lat="43.90754" lon="3.96658">
        <ele>158.6</ele>
        <time>2024-04-06T14:05:48.834Z</time>
      </trkpt>
      <trkpt lat="43.90754" lon="3.96662">
        <ele>158.6</ele>
        <time>2024-04-06T14:05:49.756Z</time>
      </trkpt>
      <trkpt lat="43.90754" lon="3.96666">
        <ele>158.7</ele>
        <time>2024-04-06T14:05:50.785Z</time>
      </trkpt>
      <trkpt lat="43.90754" lon="3.96671">
        <ele>158.2</ele>
        <time>2024-04-06T14:05:51.793Z</time>
      </trkpt>
      <trkpt lat="43.90755" lon="3.96675">
        <ele>158.2</ele>
        <time>2024-04-06T14:05:52.769Z</time>
      </trkpt>
      <trkpt lat="43.90757" lon="3.96677">
        <ele>158.8</ele>
        <time>2024-04-06T14:05:54.655Z</time>
      </trkpt>
      <trkpt lat="43.90759" lon="3.96676">
        <ele>159.8</ele>
        <time>2024-04-06T14:05:58.226Z</time>
      </trkpt>
      <trkpt lat="43.9076" lon="3.96673">
        <ele>160.6</ele>
        <time>2024-04-06T14:06:00.901Z</time>
      </trkpt>
      <trkpt lat="43.9076" lon="3.96669">
        <ele>161</ele>
        <time>2024-04-06T14:06:02.371Z</time>
      </trkpt>
      <trkpt lat="43.9076" lon="3.96664">
        <ele>161.3</ele>
        <time>2024-04-06T14:06:03.881Z</time>
      </trkpt>
      <trkpt lat="43.9076" lon="3.9666">
        <ele>161.3</ele>
        <time>2024-04-06T14:06:04.803Z</time>
      </trkpt>
      <trkpt lat="43.90759" lon="3.96655">
        <ele>160.9</ele>
        <time>2024-04-06T14:06:05.850Z</time>
      </trkpt>
      <trkpt lat="43.90759" lon="3.96651">
        <ele>160.9</ele>
        <time>2024-04-06T14:06:06.772Z</time>
      </trkpt>
      <trkpt lat="43.9076" lon="3.96647">
        <ele>161.4</ele>
        <time>2024-04-06T14:06:08.480Z</time>
      </trkpt>
      <trkpt lat="43.9076" lon="3.96643">
        <ele>161.4</ele>
        <time>2024-04-06T14:06:09.402Z</time>
      </trkpt>
      <trkpt lat="43.9076" lon="3.96638">
        <ele>161.4</ele>
        <time>2024-04-06T14:06:10.555Z</time>
      </trkpt>
      <trkpt lat="43.9076" lon="3.96634">
        <ele>161.6</ele>
        <time>2024-04-06T14:06:11.707Z</time>
      </trkpt>
      <trkpt lat="43.9076" lon="3.96629">
        <ele>161.8</ele>
        <time>2024-04-06T14:06:13.083Z</time>
      </trkpt>
      <trkpt lat="43.9076" lon="3.96625">
        <ele>161.9</ele>
        <time>2024-04-06T14:06:14.112Z</time>
      </trkpt>
      <trkpt lat="43.9076" lon="3.96622">
        <ele>162.1</ele>
        <time>2024-04-06T14:06:15.047Z</time>
      </trkpt>
      <trkpt lat="43.90759" lon="3.96618">
        <ele>161.6</ele>
        <time>2024-04-06T14:06:15.901Z</time>
      </trkpt>
      <trkpt lat="43.90759" lon="3.96615">
        <ele>161.7</ele>
        <time>2024-04-06T14:06:16.702Z</time>
      </trkpt>
      <trkpt lat="43.90759" lon="3.96611">
        <ele>161.8</ele>
        <time>2024-04-06T14:06:17.730Z</time>
      </trkpt>
      <trkpt lat="43.90759" lon="3.96608">
        <ele>162.2</ele>
        <time>2024-04-06T14:06:19.042Z</time>
      </trkpt>
      <trkpt lat="43.90758" lon="3.96609">
        <ele>161.5</ele>
        <time>2024-04-06T14:06:19.387Z</time>
      </trkpt>
      <trkpt lat="43.90758" lon="3.96602">
        <ele>162.5</ele>
        <time>2024-04-06T14:06:22.610Z</time>
      </trkpt>
      <trkpt lat="43.90758" lon="3.96595">
        <ele>163.5</ele>
        <time>2024-04-06T14:06:26.095Z</time>
      </trkpt>
      <trkpt lat="43.90758" lon="3.96587">
        <ele>164.6</ele>
        <time>2024-04-06T14:06:29.441Z</time>
      </trkpt>
      <trkpt lat="43.90758" lon="3.9658">
        <ele>165</ele>
        <time>2024-04-06T14:06:31.527Z</time>
      </trkpt>
      <trkpt lat="43.90761" lon="3.96577">
        <ele>166</ele>
        <time>2024-04-06T14:06:34.689Z</time>
      </trkpt>
      <trkpt lat="43.90765" lon="3.96584">
        <ele>167.9</ele>
        <time>2024-04-06T14:06:40.788Z</time>
      </trkpt>
      <trkpt lat="43.90765" lon="3.96588">
        <ele>167.6</ele>
        <time>2024-04-06T14:06:41.595Z</time>
      </trkpt>
      <trkpt lat="43.90765" lon="3.96593">
        <ele>167.2</ele>
        <time>2024-04-06T14:06:42.603Z</time>
      </trkpt>
      <trkpt lat="43.90765" lon="3.96596">
        <ele>166.9</ele>
        <time>2024-04-06T14:06:43.208Z</time>
      </trkpt>
      <trkpt lat="43.90765" lon="3.96598">
        <ele>166.8</ele>
        <time>2024-04-06T14:06:43.612Z</time>
      </trkpt>
      <trkpt lat="43.90766" lon="3.96601">
        <ele>167.1</ele>
        <time>2024-04-06T14:06:44.772Z</time>
      </trkpt>
      <trkpt lat="43.90766" lon="3.96603">
        <ele>166.9</ele>
        <time>2024-04-06T14:06:45.175Z</time>
      </trkpt>
      <trkpt lat="43.90767" lon="3.96606">
        <ele>167.3</ele>
        <time>2024-04-06T14:06:46.529Z</time>
      </trkpt>
      <trkpt lat="43.90767" lon="3.96609">
        <ele>167.1</ele>
        <time>2024-04-06T14:06:47.134Z</time>
      </trkpt>
      <trkpt lat="43.90768" lon="3.96611">
        <ele>167.7</ele>
        <time>2024-04-06T14:06:49.155Z</time>
      </trkpt>
      <trkpt lat="43.90769" lon="3.96614">
        <ele>168.1</ele>
        <time>2024-04-06T14:06:50.509Z</time>
      </trkpt>
      <trkpt lat="43.90769" lon="3.96616">
        <ele>168</ele>
        <time>2024-04-06T14:06:50.912Z</time>
      </trkpt>
      <trkpt lat="43.9077" lon="3.96621">
        <ele>168.2</ele>
        <time>2024-04-06T14:06:52.331Z</time>
      </trkpt>
      <trkpt lat="43.9077" lon="3.96623">
        <ele>168</ele>
        <time>2024-04-06T14:06:52.734Z</time>
      </trkpt>
      <trkpt lat="43.90771" lon="3.96626">
        <ele>168.4</ele>
        <time>2024-04-06T14:06:54.088Z</time>
      </trkpt>
      <trkpt lat="43.90772" lon="3.96628">
        <ele>168.8</ele>
        <time>2024-04-06T14:06:55.349Z</time>
      </trkpt>
      <trkpt lat="43.90773" lon="3.96631">
        <ele>169.1</ele>
        <time>2024-04-06T14:06:56.509Z</time>
      </trkpt>
      <trkpt lat="43.90774" lon="3.96635">
        <ele>169.3</ele>
        <time>2024-04-06T14:06:57.713Z</time>
      </trkpt>
      <trkpt lat="43.90775" lon="3.96638">
        <ele>169.6</ele>
        <time>2024-04-06T14:06:58.873Z</time>
      </trkpt>
      <trkpt lat="43.90776" lon="3.9664">
        <ele>170</ele>
        <time>2024-04-06T14:07:00.134Z</time>
      </trkpt>
      <trkpt lat="43.90777" lon="3.96644">
        <ele>170.2</ele>
        <time>2024-04-06T14:07:01.339Z</time>
      </trkpt>
      <trkpt lat="43.90778" lon="3.96648">
        <ele>170.4</ele>
        <time>2024-04-06T14:07:02.543Z</time>
      </trkpt>
      <trkpt lat="43.90779" lon="3.96652">
        <ele>170.5</ele>
        <time>2024-04-06T14:07:03.625Z</time>
      </trkpt>
      <trkpt lat="43.90781" lon="3.96657">
        <ele>170.9</ele>
        <time>2024-04-06T14:07:05.437Z</time>
      </trkpt>
      <trkpt lat="43.90782" lon="3.96659">
        <ele>171.1</ele>
        <time>2024-04-06T14:07:06.255Z</time>
      </trkpt>
      <trkpt lat="43.90782" lon="3.96661">
        <ele>170.9</ele>
        <time>2024-04-06T14:07:06.659Z</time>
      </trkpt>
      <trkpt lat="43.90784" lon="3.96665">
        <ele>171.4</ele>
        <time>2024-04-06T14:07:08.473Z</time>
      </trkpt>
      <trkpt lat="43.90785" lon="3.96667">
        <ele>171.6</ele>
        <time>2024-04-06T14:07:09.291Z</time>
      </trkpt>
      <trkpt lat="43.90786" lon="3.96669">
        <ele>171.6</ele>
        <time>2024-04-06T14:07:09.852Z</time>
      </trkpt>
      <trkpt lat="43.90787" lon="3.96673">
        <ele>171.5</ele>
        <time>2024-04-06T14:07:10.736Z</time>
      </trkpt>
      <trkpt lat="43.90789" lon="3.96677">
        <ele>171.7</ele>
        <time>2024-04-06T14:07:12.083Z</time>
      </trkpt>
      <trkpt lat="43.90791" lon="3.9668">
        <ele>172.1</ele>
        <time>2024-04-06T14:07:13.569Z</time>
      </trkpt>
      <trkpt lat="43.90792" lon="3.96683">
        <ele>172.1</ele>
        <time>2024-04-06T14:07:14.331Z</time>
      </trkpt>
      <trkpt lat="43.90793" lon="3.96686">
        <ele>172.1</ele>
        <time>2024-04-06T14:07:15.093Z</time>
      </trkpt>
      <trkpt lat="43.90794" lon="3.96689">
        <ele>172.1</ele>
        <time>2024-04-06T14:07:15.855Z</time>
      </trkpt>
      <trkpt lat="43.90796" lon="3.96693">
        <ele>172.4</ele>
        <time>2024-04-06T14:07:17.337Z</time>
      </trkpt>
      <trkpt lat="43.90798" lon="3.96697">
        <ele>172.6</ele>
        <time>2024-04-06T14:07:18.683Z</time>
      </trkpt>
      <trkpt lat="43.908" lon="3.967">
        <ele>172.9</ele>
        <time>2024-04-06T14:07:20.000Z</time>
      </trkpt>
      <trkpt lat="43.90802" lon="3.96704">
        <ele>173</ele>
        <time>2024-04-06T14:07:21.227Z</time>
      </trkpt>
      <trkpt lat="43.90804" lon="3.96707">
        <ele>173.2</ele>
        <time>2024-04-06T14:07:22.399Z</time>
      </trkpt>
      <trkpt lat="43.90807" lon="3.9671">
        <ele>173.7</ele>
        <time>2024-04-06T14:07:24.261Z</time>
      </trkpt>
      <trkpt lat="43.9081" lon="3.96712">
        <ele>174.5</ele>
        <time>2024-04-06T14:07:26.776Z</time>
      </trkpt>
      <trkpt lat="43.90812" lon="3.96714">
        <ele>174.9</ele>
        <time>2024-04-06T14:07:28.148Z</time>
      </trkpt>
      <trkpt lat="43.90815" lon="3.96717">
        <ele>175.6</ele>
        <time>2024-04-06T14:07:30.429Z</time>
      </trkpt>
      <trkpt lat="43.90816" lon="3.96719">
        <ele>175.6</ele>
        <time>2024-04-06T14:07:30.991Z</time>
      </trkpt>
      <trkpt lat="43.90817" lon="3.96721">
        <ele>175.7</ele>
        <time>2024-04-06T14:07:31.664Z</time>
      </trkpt>
      <trkpt lat="43.90818" lon="3.96724">
        <ele>175.7</ele>
        <time>2024-04-06T14:07:32.426Z</time>
      </trkpt>
      <trkpt lat="43.90819" lon="3.96728">
        <ele>175.7</ele>
        <time>2024-04-06T14:07:33.402Z</time>
      </trkpt>
      <trkpt lat="43.90821" lon="3.96732">
        <ele>176</ele>
        <time>2024-04-06T14:07:34.884Z</time>
      </trkpt>
      <trkpt lat="43.90822" lon="3.96735">
        <ele>176</ele>
        <time>2024-04-06T14:07:35.646Z</time>
      </trkpt>
      <trkpt lat="43.90824" lon="3.9674">
        <ele>176.2</ele>
        <time>2024-04-06T14:07:37.184Z</time>
      </trkpt>
      <trkpt lat="43.90825" lon="3.96742">
        <ele>176.3</ele>
        <time>2024-04-06T14:07:37.857Z</time>
      </trkpt>
      <trkpt lat="43.90827" lon="3.96745">
        <ele>176.6</ele>
        <time>2024-04-06T14:07:39.173Z</time>
      </trkpt>
      <trkpt lat="43.90829" lon="3.96749">
        <ele>176.7</ele>
        <time>2024-04-06T14:07:40.401Z</time>
      </trkpt>
      <trkpt lat="43.90831" lon="3.96753">
        <ele>176.8</ele>
        <time>2024-04-06T14:07:41.628Z</time>
      </trkpt>
      <trkpt lat="43.90833" lon="3.96757">
        <ele>176.9</ele>
        <time>2024-04-06T14:07:42.855Z</time>
      </trkpt>
      <trkpt lat="43.90835" lon="3.96761">
        <ele>176.9</ele>
        <time>2024-04-06T14:07:43.978Z</time>
      </trkpt>
      <trkpt lat="43.90837" lon="3.96765">
        <ele>176.8</ele>
        <time>2024-04-06T14:07:45.007Z</time>
      </trkpt>
      <trkpt lat="43.90838" lon="3.96767">
        <ele>176.8</ele>
        <time>2024-04-06T14:07:45.568Z</time>
      </trkpt>
      <trkpt lat="43.9084" lon="3.9677">
        <ele>176.9</ele>
        <time>2024-04-06T14:07:46.617Z</time>
      </trkpt>
      <trkpt lat="43.90843" lon="3.96773">
        <ele>177.2</ele>
        <time>2024-04-06T14:07:48.156Z</time>
      </trkpt>
      <trkpt lat="43.90846" lon="3.96774">
        <ele>177.8</ele>
        <time>2024-04-06T14:07:50.098Z</time>
      </trkpt>
      <trkpt lat="43.90848" lon="3.96775">
        <ele>178.1</ele>
        <time>2024-04-06T14:07:51.192Z</time>
      </trkpt>
      <trkpt lat="43.9085" lon="3.96775">
        <ele>178.7</ele>
        <time>2024-04-06T14:07:53.125Z</time>
      </trkpt>
      <trkpt lat="43.90853" lon="3.96776">
        <ele>179.3</ele>
        <time>2024-04-06T14:07:55.068Z</time>
      </trkpt>
      <trkpt lat="43.90854" lon="3.96777">
        <ele>179.3</ele>
        <time>2024-04-06T14:07:55.462Z</time>
      </trkpt>
      <trkpt lat="43.90858" lon="3.96779">
        <ele>180</ele>
        <time>2024-04-06T14:07:57.849Z</time>
      </trkpt>
      <trkpt lat="43.90861" lon="3.96781">
        <ele>180.5</ele>
        <time>2024-04-06T14:07:59.620Z</time>
      </trkpt>
      <trkpt lat="43.90864" lon="3.96783">
        <ele>181</ele>
        <time>2024-04-06T14:08:01.391Z</time>
      </trkpt>
      <trkpt lat="43.90866" lon="3.96786">
        <ele>181</ele>
        <time>2024-04-06T14:08:02.333Z</time>
      </trkpt>
      <trkpt lat="43.90868" lon="3.96788">
        <ele>181.3</ele>
        <time>2024-04-06T14:08:03.515Z</time>
      </trkpt>
      <trkpt lat="43.90869" lon="3.9679">
        <ele>181.2</ele>
        <time>2024-04-06T14:08:04.007Z</time>
      </trkpt>
      <trkpt lat="43.90869" lon="3.96793">
        <ele>180.8</ele>
        <time>2024-04-06T14:08:04.612Z</time>
      </trkpt>
      <trkpt lat="43.9087" lon="3.96795">
        <ele>180.8</ele>
        <time>2024-04-06T14:08:05.173Z</time>
      </trkpt>
      <trkpt lat="43.90872" lon="3.96799">
        <ele>180.7</ele>
        <time>2024-04-06T14:08:06.203Z</time>
      </trkpt>
      <trkpt lat="43.90873" lon="3.96801">
        <ele>180.7</ele>
        <time>2024-04-06T14:08:06.764Z</time>
      </trkpt>
      <trkpt lat="43.90875" lon="3.96804">
        <ele>180.7</ele>
        <time>2024-04-06T14:08:07.706Z</time>
      </trkpt>
      <trkpt lat="43.90877" lon="3.96808">
        <ele>180.6</ele>
        <time>2024-04-06T14:08:08.736Z</time>
      </trkpt>
      <trkpt lat="43.90879" lon="3.96811">
        <ele>180.7</ele>
        <time>2024-04-06T14:08:09.784Z</time>
      </trkpt>
      <trkpt lat="43.90882" lon="3.96815">
        <ele>181</ele>
        <time>2024-04-06T14:08:11.463Z</time>
      </trkpt>
      <trkpt lat="43.90884" lon="3.96818">
        <ele>181.2</ele>
        <time>2024-04-06T14:08:12.635Z</time>
      </trkpt>
      <trkpt lat="43.90887" lon="3.96821">
        <ele>181.7</ele>
        <time>2024-04-06T14:08:14.497Z</time>
      </trkpt>
      <trkpt lat="43.90888" lon="3.96823">
        <ele>181.8</ele>
        <time>2024-04-06T14:08:15.170Z</time>
      </trkpt>
      <trkpt lat="43.9089" lon="3.96827">
        <ele>182</ele>
        <time>2024-04-06T14:08:16.516Z</time>
      </trkpt>
      <trkpt lat="43.90892" lon="3.96831">
        <ele>182</ele>
        <time>2024-04-06T14:08:17.639Z</time>
      </trkpt>
      <trkpt lat="43.90894" lon="3.96832">
        <ele>182.4</ele>
        <time>2024-04-06T14:08:18.945Z</time>
      </trkpt>
      <trkpt lat="43.90896" lon="3.96836">
        <ele>182.4</ele>
        <time>2024-04-06T14:08:20.067Z</time>
      </trkpt>
      <trkpt lat="43.90898" lon="3.9684">
        <ele>182.4</ele>
        <time>2024-04-06T14:08:21.190Z</time>
      </trkpt>
      <trkpt lat="43.909" lon="3.96844">
        <ele>182.4</ele>
        <time>2024-04-06T14:08:22.312Z</time>
      </trkpt>
      <trkpt lat="43.90901" lon="3.96847">
        <ele>182.3</ele>
        <time>2024-04-06T14:08:22.984Z</time>
      </trkpt>
      <trkpt lat="43.90903" lon="3.96851">
        <ele>182.3</ele>
        <time>2024-04-06T14:08:24.106Z</time>
      </trkpt>
      <trkpt lat="43.90905" lon="3.96854">
        <ele>182.5</ele>
        <time>2024-04-06T14:08:25.278Z</time>
      </trkpt>
      <trkpt lat="43.90907" lon="3.96858">
        <ele>182.6</ele>
        <time>2024-04-06T14:08:26.505Z</time>
      </trkpt>
      <trkpt lat="43.90909" lon="3.96862">
        <ele>182.7</ele>
        <time>2024-04-06T14:08:27.733Z</time>
      </trkpt>
      <trkpt lat="43.90911" lon="3.96866">
        <ele>183.1</ele>
        <time>2024-04-06T14:08:29.369Z</time>
      </trkpt>
      <trkpt lat="43.90913" lon="3.9687">
        <ele>183.5</ele>
        <time>2024-04-06T14:08:31.006Z</time>
      </trkpt>
      <trkpt lat="43.90915" lon="3.96874">
        <ele>184</ele>
        <time>2024-04-06T14:08:32.820Z</time>
      </trkpt>
      <trkpt lat="43.90916" lon="3.96878">
        <ele>184.2</ele>
        <time>2024-04-06T14:08:34.025Z</time>
      </trkpt>
      <trkpt lat="43.90918" lon="3.96881">
        <ele>184.4</ele>
        <time>2024-04-06T14:08:35.197Z</time>
      </trkpt>
      <trkpt lat="43.90919" lon="3.96885">
        <ele>184.3</ele>
        <time>2024-04-06T14:08:36.081Z</time>
      </trkpt>
      <trkpt lat="43.90921" lon="3.96889">
        <ele>184.3</ele>
        <time>2024-04-06T14:08:37.203Z</time>
      </trkpt>
      <trkpt lat="43.90922" lon="3.96892">
        <ele>184.5</ele>
        <time>2024-04-06T14:08:38.204Z</time>
      </trkpt>
      <trkpt lat="43.90924" lon="3.96895">
        <ele>184.6</ele>
        <time>2024-04-06T14:08:39.253Z</time>
      </trkpt>
      <trkpt lat="43.90927" lon="3.96898">
        <ele>184.8</ele>
        <time>2024-04-06T14:08:40.658Z</time>
      </trkpt>
      <trkpt lat="43.90929" lon="3.96901">
        <ele>184.9</ele>
        <time>2024-04-06T14:08:41.707Z</time>
      </trkpt>
      <trkpt lat="43.9093" lon="3.96904">
        <ele>185</ele>
        <time>2024-04-06T14:08:42.577Z</time>
      </trkpt>
      <trkpt lat="43.90933" lon="3.96907">
        <ele>185.1</ele>
        <time>2024-04-06T14:08:43.864Z</time>
      </trkpt>
      <trkpt lat="43.90935" lon="3.96909">
        <ele>185.1</ele>
        <time>2024-04-06T14:08:44.653Z</time>
      </trkpt>
      <trkpt lat="43.90937" lon="3.96909">
        <ele>185.1</ele>
        <time>2024-04-06T14:08:45.293Z</time>
      </trkpt>
      <trkpt lat="43.90939" lon="3.96908">
        <ele>185.2</ele>
        <time>2024-04-06T14:08:46.083Z</time>
      </trkpt>
      <trkpt lat="43.90941" lon="3.96908">
        <ele>185.2</ele>
        <time>2024-04-06T14:08:46.722Z</time>
      </trkpt>
      <trkpt lat="43.90944" lon="3.96908">
        <ele>185.3</ele>
        <time>2024-04-06T14:08:47.788Z</time>
      </trkpt>
      <trkpt lat="43.90947" lon="3.96907">
        <ele>185.1</ele>
        <time>2024-04-06T14:08:48.652Z</time>
      </trkpt>
      <trkpt lat="43.90949" lon="3.96906">
        <ele>184.9</ele>
        <time>2024-04-06T14:08:49.247Z</time>
      </trkpt>
      <trkpt lat="43.90953" lon="3.96904">
        <ele>184.6</ele>
        <time>2024-04-06T14:08:50.438Z</time>
      </trkpt>
      <trkpt lat="43.90955" lon="3.96905">
        <ele>184.4</ele>
        <time>2024-04-06T14:08:51.033Z</time>
      </trkpt>
      <trkpt lat="43.90957" lon="3.96904">
        <ele>184.3</ele>
        <time>2024-04-06T14:08:51.628Z</time>
      </trkpt>
      <trkpt lat="43.90959" lon="3.96903">
        <ele>184.2</ele>
        <time>2024-04-06T14:08:52.223Z</time>
      </trkpt>
      <trkpt lat="43.90962" lon="3.96902">
        <ele>184</ele>
        <time>2024-04-06T14:08:53.087Z</time>
      </trkpt>
      <trkpt lat="43.90965" lon="3.96902">
        <ele>183.7</ele>
        <time>2024-04-06T14:08:53.927Z</time>
      </trkpt>
      <trkpt lat="43.9097" lon="3.969">
        <ele>183.6</ele>
        <time>2024-04-06T14:08:55.497Z</time>
      </trkpt>
      <trkpt lat="43.90974" lon="3.96901">
        <ele>183.2</ele>
        <time>2024-04-06T14:08:56.635Z</time>
      </trkpt>
      <trkpt lat="43.90978" lon="3.96902">
        <ele>183</ele>
        <time>2024-04-06T14:08:57.773Z</time>
      </trkpt>
      <trkpt lat="43.90983" lon="3.96903">
        <ele>182.8</ele>
        <time>2024-04-06T14:08:59.208Z</time>
      </trkpt>
      <trkpt lat="43.90988" lon="3.96904">
        <ele>182.5</ele>
        <time>2024-04-06T14:09:00.623Z</time>
      </trkpt>
      <trkpt lat="43.90992" lon="3.96905">
        <ele>182.2</ele>
        <time>2024-04-06T14:09:01.761Z</time>
      </trkpt>
      <trkpt lat="43.90996" lon="3.96905">
        <ele>182</ele>
        <time>2024-04-06T14:09:02.881Z</time>
      </trkpt>
      <trkpt lat="43.90999" lon="3.96906">
        <ele>181.7</ele>
        <time>2024-04-06T14:09:03.744Z</time>
      </trkpt>
      <trkpt lat="43.91001" lon="3.96906">
        <ele>181.8</ele>
        <time>2024-04-06T14:09:04.495Z</time>
      </trkpt>
      <trkpt lat="43.91006" lon="3.96907">
        <ele>182.1</ele>
        <time>2024-04-06T14:09:06.449Z</time>
      </trkpt>
      <trkpt lat="43.91012" lon="3.96909">
        <ele>182.2</ele>
        <time>2024-04-06T14:09:08.635Z</time>
      </trkpt>
      <trkpt lat="43.91017" lon="3.9691">
        <ele>182.5</ele>
        <time>2024-04-06T14:09:10.466Z</time>
      </trkpt>
      <trkpt lat="43.91022" lon="3.96914">
        <ele>182</ele>
        <time>2024-04-06T14:09:12.082Z</time>
      </trkpt>
      <trkpt lat="43.91026" lon="3.96918">
        <ele>181.4</ele>
        <time>2024-04-06T14:09:13.462Z</time>
      </trkpt>
      <trkpt lat="43.91032" lon="3.96923">
        <ele>180.8</ele>
        <time>2024-04-06T14:09:15.422Z</time>
      </trkpt>
      <trkpt lat="43.91035" lon="3.96925">
        <ele>180.8</ele>
        <time>2024-04-06T14:09:16.486Z</time>
      </trkpt>
      <trkpt lat="43.91038" lon="3.96929">
        <ele>180</ele>
        <time>2024-04-06T14:09:17.651Z</time>
      </trkpt>
      <trkpt lat="43.91044" lon="3.96933">
        <ele>179.9</ele>
        <time>2024-04-06T14:09:19.685Z</time>
      </trkpt>
      <trkpt lat="43.9105" lon="3.96935">
        <ele>180.3</ele>
        <time>2024-04-06T14:09:22.116Z</time>
      </trkpt>
      <trkpt lat="43.91057" lon="3.96939">
        <ele>180.3</ele>
        <time>2024-04-06T14:09:24.538Z</time>
      </trkpt>
      <trkpt lat="43.91062" lon="3.96943">
        <ele>180.1</ele>
        <time>2024-04-06T14:09:26.202Z</time>
      </trkpt>
      <trkpt lat="43.91063" lon="3.96944">
        <ele>180</ele>
        <time>2024-04-06T14:09:26.547Z</time>
      </trkpt>
      <trkpt lat="43.91066" lon="3.96948">
        <ele>179.6</ele>
        <time>2024-04-06T14:09:27.711Z</time>
      </trkpt>
      <trkpt lat="43.91069" lon="3.9695">
        <ele>179.8</ele>
        <time>2024-04-06T14:09:29.002Z</time>
      </trkpt>
      <trkpt lat="43.91073" lon="3.96954">
        <ele>179.6</ele>
        <time>2024-04-06T14:09:30.398Z</time>
      </trkpt>
      <trkpt lat="43.91077" lon="3.96957">
        <ele>179.8</ele>
        <time>2024-04-06T14:09:32.070Z</time>
      </trkpt>
      <trkpt lat="43.91082" lon="3.9696">
        <ele>180.2</ele>
        <time>2024-04-06T14:09:34.279Z</time>
      </trkpt>
      <trkpt lat="43.91086" lon="3.96964">
        <ele>179.8</ele>
        <time>2024-04-06T14:09:35.659Z</time>
      </trkpt>
      <trkpt lat="43.9109" lon="3.96967">
        <ele>179.7</ele>
        <time>2024-04-06T14:09:37.020Z</time>
      </trkpt>
      <trkpt lat="43.91095" lon="3.96971">
        <ele>179.5</ele>
        <time>2024-04-06T14:09:38.683Z</time>
      </trkpt>
      <trkpt lat="43.91099" lon="3.96975">
        <ele>179.1</ele>
        <time>2024-04-06T14:09:40.064Z</time>
      </trkpt>
      <trkpt lat="43.91103" lon="3.96979">
        <ele>178.8</ele>
        <time>2024-04-06T14:09:41.444Z</time>
      </trkpt>
      <trkpt lat="43.91107" lon="3.96983">
        <ele>178.5</ele>
        <time>2024-04-06T14:09:42.824Z</time>
      </trkpt>
      <trkpt lat="43.91112" lon="3.96987">
        <ele>178.4</ele>
        <time>2024-04-06T14:09:44.576Z</time>
      </trkpt>
      <trkpt lat="43.91117" lon="3.96991">
        <ele>178</ele>
        <time>2024-04-06T14:09:46.191Z</time>
      </trkpt>
      <trkpt lat="43.91121" lon="3.96995">
        <ele>177.6</ele>
        <time>2024-04-06T14:09:47.572Z</time>
      </trkpt>
      <trkpt lat="43.91125" lon="3.96999">
        <ele>177.2</ele>
        <time>2024-04-06T14:09:48.952Z</time>
      </trkpt>
      <trkpt lat="43.91129" lon="3.97004">
        <ele>176.9</ele>
        <time>2024-04-06T14:09:50.459Z</time>
      </trkpt>
      <trkpt lat="43.91132" lon="3.97009">
        <ele>176.6</ele>
        <time>2024-04-06T14:09:51.772Z</time>
      </trkpt>
      <trkpt lat="43.91135" lon="3.97015">
        <ele>176.4</ele>
        <time>2024-04-06T14:09:53.273Z</time>
      </trkpt>
      <trkpt lat="43.91139" lon="3.97021">
        <ele>176.8</ele>
        <time>2024-04-06T14:09:55.617Z</time>
      </trkpt>
      <trkpt lat="43.91142" lon="3.97027">
        <ele>176.8</ele>
        <time>2024-04-06T14:09:57.301Z</time>
      </trkpt>
      <trkpt lat="43.91145" lon="3.97034">
        <ele>176.5</ele>
        <time>2024-04-06T14:09:58.944Z</time>
      </trkpt>
      <trkpt lat="43.91149" lon="3.9704">
        <ele>176.5</ele>
        <time>2024-04-06T14:10:00.828Z</time>
      </trkpt>
      <trkpt lat="43.91153" lon="3.97046">
        <ele>176.4</ele>
        <time>2024-04-06T14:10:02.617Z</time>
      </trkpt>
      <trkpt lat="43.91158" lon="3.97052">
        <ele>176.3</ele>
        <time>2024-04-06T14:10:04.637Z</time>
      </trkpt>
      <trkpt lat="43.91163" lon="3.97057">
        <ele>176.3</ele>
        <time>2024-04-06T14:10:06.609Z</time>
      </trkpt>
      <trkpt lat="43.91168" lon="3.97061">
        <ele>176.3</ele>
        <time>2024-04-06T14:10:08.455Z</time>
      </trkpt>
      <trkpt lat="43.91174" lon="3.97063">
        <ele>176.6</ele>
        <time>2024-04-06T14:10:10.759Z</time>
      </trkpt>
      <trkpt lat="43.91179" lon="3.97065">
        <ele>176.7</ele>
        <time>2024-04-06T14:10:12.527Z</time>
      </trkpt>
      <trkpt lat="43.91183" lon="3.97066">
        <ele>176.8</ele>
        <time>2024-04-06T14:10:13.931Z</time>
      </trkpt>
      <trkpt lat="43.91188" lon="3.97067">
        <ele>177</ele>
        <time>2024-04-06T14:10:15.763Z</time>
      </trkpt>
      <trkpt lat="43.91192" lon="3.97068">
        <ele>177.1</ele>
        <time>2024-04-06T14:10:17.167Z</time>
      </trkpt>
      <trkpt lat="43.91197" lon="3.97068">
        <ele>177.3</ele>
        <time>2024-04-06T14:10:18.982Z</time>
      </trkpt>
      <trkpt lat="43.91201" lon="3.97067">
        <ele>177.5</ele>
        <time>2024-04-06T14:10:20.503Z</time>
      </trkpt>
      <trkpt lat="43.91206" lon="3.97068">
        <ele>177.3</ele>
        <time>2024-04-06T14:10:21.938Z</time>
      </trkpt>
      <trkpt lat="43.9121" lon="3.97069">
        <ele>177.1</ele>
        <time>2024-04-06T14:10:23.076Z</time>
      </trkpt>
      <trkpt lat="43.91214" lon="3.97069">
        <ele>177.1</ele>
        <time>2024-04-06T14:10:24.356Z</time>
      </trkpt>
      <trkpt lat="43.91217" lon="3.9707">
        <ele>176.9</ele>
        <time>2024-04-06T14:10:25.219Z</time>
      </trkpt>
      <trkpt lat="43.91216" lon="3.97072">
        <ele>176.4</ele>
        <time>2024-04-06T14:10:25.710Z</time>
      </trkpt>
      <trkpt lat="43.91215" lon="3.97075">
        <ele>175.8</ele>
        <time>2024-04-06T14:10:26.377Z</time>
      </trkpt>
      <trkpt lat="43.91217" lon="3.97079">
        <ele>174.9</ele>
        <time>2024-04-06T14:10:27.359Z</time>
      </trkpt>
      <trkpt lat="43.91216" lon="3.97079">
        <ele>174.9</ele>
        <time>2024-04-06T14:10:27.679Z</time>
      </trkpt>
      <trkpt lat="43.91216" lon="3.97081">
        <ele>174.5</ele>
        <time>2024-04-06T14:10:28.083Z</time>
      </trkpt>
      <trkpt lat="43.91216" lon="3.97083">
        <ele>174.1</ele>
        <time>2024-04-06T14:10:28.486Z</time>
      </trkpt>
      <trkpt lat="43.91214" lon="3.97084">
        <ele>173.8</ele>
        <time>2024-04-06T14:10:29.081Z</time>
      </trkpt>
      <trkpt lat="43.91213" lon="3.97088">
        <ele>172.3</ele>
        <time>2024-04-06T14:10:29.935Z</time>
      </trkpt>
      <trkpt lat="43.91212" lon="3.97093">
        <ele>170.6</ele>
        <time>2024-04-06T14:10:30.982Z</time>
      </trkpt>
      <trkpt lat="43.91211" lon="3.97095">
        <ele>169.9</ele>
        <time>2024-04-06T14:10:31.473Z</time>
      </trkpt>
      <trkpt lat="43.91209" lon="3.97097">
        <ele>169.3</ele>
        <time>2024-04-06T14:10:32.163Z</time>
      </trkpt>
      <trkpt lat="43.91208" lon="3.97101">
        <ele>168</ele>
        <time>2024-04-06T14:10:33.017Z</time>
      </trkpt>
      <trkpt lat="43.91208" lon="3.97103">
        <ele>167.3</ele>
        <time>2024-04-06T14:10:33.420Z</time>
      </trkpt>
      <trkpt lat="43.91208" lon="3.97106">
        <ele>166.3</ele>
        <time>2024-04-06T14:10:34.025Z</time>
      </trkpt>
      <trkpt lat="43.91208" lon="3.9711">
        <ele>164.9</ele>
        <time>2024-04-06T14:10:34.832Z</time>
      </trkpt>
      <trkpt lat="43.91207" lon="3.97113">
        <ele>164.1</ele>
        <time>2024-04-06T14:10:35.499Z</time>
      </trkpt>
      <trkpt lat="43.91205" lon="3.97116">
        <ele>163.5</ele>
        <time>2024-04-06T14:10:36.323Z</time>
      </trkpt>
      <trkpt lat="43.91205" lon="3.97119">
        <ele>162.7</ele>
        <time>2024-04-06T14:10:36.928Z</time>
      </trkpt>
      <trkpt lat="43.91206" lon="3.9712">
        <ele>162.3</ele>
        <time>2024-04-06T14:10:37.273Z</time>
      </trkpt>
      <trkpt lat="43.91207" lon="3.9712">
        <ele>162.2</ele>
        <time>2024-04-06T14:10:37.553Z</time>
      </trkpt>
      <trkpt lat="43.91209" lon="3.97121">
        <ele>161.8</ele>
        <time>2024-04-06T14:10:38.149Z</time>
      </trkpt>
      <trkpt lat="43.91211" lon="3.97122">
        <ele>161.3</ele>
        <time>2024-04-06T14:10:38.744Z</time>
      </trkpt>
      <trkpt lat="43.91213" lon="3.97124">
        <ele>160.6</ele>
        <time>2024-04-06T14:10:39.434Z</time>
      </trkpt>
      <trkpt lat="43.91215" lon="3.97126">
        <ele>159.9</ele>
        <time>2024-04-06T14:10:40.124Z</time>
      </trkpt>
      <trkpt lat="43.91215" lon="3.97129">
        <ele>159.1</ele>
        <time>2024-04-06T14:10:40.729Z</time>
      </trkpt>
      <trkpt lat="43.91215" lon="3.97131">
        <ele>158.6</ele>
        <time>2024-04-06T14:10:41.132Z</time>
      </trkpt>
      <trkpt lat="43.91215" lon="3.97136">
        <ele>157.3</ele>
        <time>2024-04-06T14:10:42.141Z</time>
      </trkpt>
      <trkpt lat="43.91215" lon="3.97141">
        <ele>156</ele>
        <time>2024-04-06T14:10:43.149Z</time>
      </trkpt>
      <trkpt lat="43.91214" lon="3.97144">
        <ele>155.4</ele>
        <time>2024-04-06T14:10:43.816Z</time>
      </trkpt>
      <trkpt lat="43.91214" lon="3.97147">
        <ele>154.7</ele>
        <time>2024-04-06T14:10:44.421Z</time>
      </trkpt>
      <trkpt lat="43.91215" lon="3.97152">
        <ele>153.4</ele>
        <time>2024-04-06T14:10:45.468Z</time>
      </trkpt>
      <trkpt lat="43.91215" lon="3.97155">
        <ele>152.7</ele>
        <time>2024-04-06T14:10:46.073Z</time>
      </trkpt>
      <trkpt lat="43.91214" lon="3.97159">
        <ele>151.8</ele>
        <time>2024-04-06T14:10:46.927Z</time>
      </trkpt>
      <trkpt lat="43.91213" lon="3.97163">
        <ele>150.9</ele>
        <time>2024-04-06T14:10:47.781Z</time>
      </trkpt>
      <trkpt lat="43.91213" lon="3.97167">
        <ele>149.9</ele>
        <time>2024-04-06T14:10:48.588Z</time>
      </trkpt>
      <trkpt lat="43.91214" lon="3.97172">
        <ele>149</ele>
        <time>2024-04-06T14:10:49.634Z</time>
      </trkpt>
      <trkpt lat="43.91213" lon="3.97177">
        <ele>148</ele>
        <time>2024-04-06T14:10:50.681Z</time>
      </trkpt>
      <trkpt lat="43.91211" lon="3.97181">
        <ele>147.3</ele>
        <time>2024-04-06T14:10:51.663Z</time>
      </trkpt>
      <trkpt lat="43.91208" lon="3.97185">
        <ele>146.7</ele>
        <time>2024-04-06T14:10:52.828Z</time>
      </trkpt>
      <trkpt lat="43.91205" lon="3.97189">
        <ele>146.2</ele>
        <time>2024-04-06T14:10:53.992Z</time>
      </trkpt>
      <trkpt lat="43.91202" lon="3.97193">
        <ele>145.7</ele>
        <time>2024-04-06T14:10:55.157Z</time>
      </trkpt>
      <trkpt lat="43.91199" lon="3.97196">
        <ele>145.4</ele>
        <time>2024-04-06T14:10:56.192Z</time>
      </trkpt>
      <trkpt lat="43.91196" lon="3.97198">
        <ele>145.4</ele>
        <time>2024-04-06T14:10:57.257Z</time>
      </trkpt>
      <trkpt lat="43.91194" lon="3.972">
        <ele>145.1</ele>
        <time>2024-04-06T14:10:57.947Z</time>
      </trkpt>
      <trkpt lat="43.91194" lon="3.97204">
        <ele>144.5</ele>
        <time>2024-04-06T14:10:58.754Z</time>
      </trkpt>
      <trkpt lat="43.91197" lon="3.97208">
        <ele>143.9</ele>
        <time>2024-04-06T14:10:59.919Z</time>
      </trkpt>
      <trkpt lat="43.91199" lon="3.97208">
        <ele>143.7</ele>
        <time>2024-04-06T14:11:00.479Z</time>
      </trkpt>
      <trkpt lat="43.91201" lon="3.97208">
        <ele>143.6</ele>
        <time>2024-04-06T14:11:01.038Z</time>
      </trkpt>
      <trkpt lat="43.91203" lon="3.97209">
        <ele>143.3</ele>
        <time>2024-04-06T14:11:01.634Z</time>
      </trkpt>
      <trkpt lat="43.91204" lon="3.97212">
        <ele>142.8</ele>
        <time>2024-04-06T14:11:02.300Z</time>
      </trkpt>
      <trkpt lat="43.91203" lon="3.97215">
        <ele>142.4</ele>
        <time>2024-04-06T14:11:02.967Z</time>
      </trkpt>
      <trkpt lat="43.91202" lon="3.97218">
        <ele>142.1</ele>
        <time>2024-04-06T14:11:03.634Z</time>
      </trkpt>
      <trkpt lat="43.91203" lon="3.97221">
        <ele>141.6</ele>
        <time>2024-04-06T14:11:04.301Z</time>
      </trkpt>
      <trkpt lat="43.91204" lon="3.97225">
        <ele>141</ele>
        <time>2024-04-06T14:11:05.155Z</time>
      </trkpt>
      <trkpt lat="43.91203" lon="3.97228">
        <ele>140.8</ele>
        <time>2024-04-06T14:11:05.821Z</time>
      </trkpt>
      <trkpt lat="43.91199" lon="3.97231">
        <ele>140.6</ele>
        <time>2024-04-06T14:11:07.096Z</time>
      </trkpt>
      <trkpt lat="43.91195" lon="3.97231">
        <ele>140.7</ele>
        <time>2024-04-06T14:11:08.480Z</time>
      </trkpt>
      <trkpt lat="43.91192" lon="3.97231">
        <ele>140.4</ele>
        <time>2024-04-06T14:11:09.320Z</time>
      </trkpt>
      <trkpt lat="43.91189" lon="3.97233">
        <ele>139.7</ele>
        <time>2024-04-06T14:11:10.252Z</time>
      </trkpt>
      <trkpt lat="43.91188" lon="3.97237">
        <ele>139.1</ele>
        <time>2024-04-06T14:11:11.106Z</time>
      </trkpt>
      <trkpt lat="43.91187" lon="3.9724">
        <ele>138.6</ele>
        <time>2024-04-06T14:11:11.773Z</time>
      </trkpt>
      <trkpt lat="43.91185" lon="3.9724">
        <ele>138.4</ele>
        <time>2024-04-06T14:11:12.333Z</time>
      </trkpt>
      <trkpt lat="43.91183" lon="3.97241">
        <ele>138.1</ele>
        <time>2024-04-06T14:11:12.928Z</time>
      </trkpt>
      <trkpt lat="43.91184" lon="3.97247">
        <ele>137.6</ele>
        <time>2024-04-06T14:11:14.170Z</time>
      </trkpt>
      <trkpt lat="43.91187" lon="3.9725">
        <ele>137.5</ele>
        <time>2024-04-06T14:11:15.260Z</time>
      </trkpt>
      <trkpt lat="43.91189" lon="3.97252">
        <ele>137.3</ele>
        <time>2024-04-06T14:11:15.950Z</time>
      </trkpt>
      <trkpt lat="43.91192" lon="3.97254">
        <ele>137.1</ele>
        <time>2024-04-06T14:11:16.882Z</time>
      </trkpt>
      <trkpt lat="43.91193" lon="3.97257">
        <ele>136.7</ele>
        <time>2024-04-06T14:11:17.549Z</time>
      </trkpt>
      <trkpt lat="43.91192" lon="3.97262">
        <ele>135.7</ele>
        <time>2024-04-06T14:11:18.595Z</time>
      </trkpt>
      <trkpt lat="43.91189" lon="3.97266">
        <ele>135</ele>
        <time>2024-04-06T14:11:19.760Z</time>
      </trkpt>
      <trkpt lat="43.91187" lon="3.97269">
        <ele>134.4</ele>
        <time>2024-04-06T14:11:20.584Z</time>
      </trkpt>
      <trkpt lat="43.91186" lon="3.97272">
        <ele>133.9</ele>
        <time>2024-04-06T14:11:21.251Z</time>
      </trkpt>
      <trkpt lat="43.91187" lon="3.97275">
        <ele>133.4</ele>
        <time>2024-04-06T14:11:21.918Z</time>
      </trkpt>
      <trkpt lat="43.91187" lon="3.9728">
        <ele>132.6</ele>
        <time>2024-04-06T14:11:22.926Z</time>
      </trkpt>
      <trkpt lat="43.91186" lon="3.97284">
        <ele>131.9</ele>
        <time>2024-04-06T14:11:23.780Z</time>
      </trkpt>
      <trkpt lat="43.91185" lon="3.97289">
        <ele>131</ele>
        <time>2024-04-06T14:11:24.827Z</time>
      </trkpt>
      <trkpt lat="43.91183" lon="3.97293">
        <ele>130.4</ele>
        <time>2024-04-06T14:11:25.809Z</time>
      </trkpt>
      <trkpt lat="43.91182" lon="3.97298">
        <ele>129.6</ele>
        <time>2024-04-06T14:11:26.856Z</time>
      </trkpt>
      <trkpt lat="43.91182" lon="3.97303">
        <ele>128.8</ele>
        <time>2024-04-06T14:11:27.864Z</time>
      </trkpt>
      <trkpt lat="43.91181" lon="3.97309">
        <ele>128</ele>
        <time>2024-04-06T14:11:29.106Z</time>
      </trkpt>
      <trkpt lat="43.91183" lon="3.97316">
        <ele>126.8</ele>
        <time>2024-04-06T14:11:30.625Z</time>
      </trkpt>
      <trkpt lat="43.91184" lon="3.97322">
        <ele>125.8</ele>
        <time>2024-04-06T14:11:31.867Z</time>
      </trkpt>
      <trkpt lat="43.91185" lon="3.97327">
        <ele>124.9</ele>
        <time>2024-04-06T14:11:32.914Z</time>
      </trkpt>
      <trkpt lat="43.91185" lon="3.97333">
        <ele>124.1</ele>
        <time>2024-04-06T14:11:34.124Z</time>
      </trkpt>
      <trkpt lat="43.91185" lon="3.97338">
        <ele>123.9</ele>
        <time>2024-04-06T14:11:35.133Z</time>
      </trkpt>
      <trkpt lat="43.91185" lon="3.97344">
        <ele>123.6</ele>
        <time>2024-04-06T14:11:36.343Z</time>
      </trkpt>
      <trkpt lat="43.91187" lon="3.9735">
        <ele>123.1</ele>
        <time>2024-04-06T14:11:37.676Z</time>
      </trkpt>
      <trkpt lat="43.91186" lon="3.97359">
        <ele>123</ele>
        <time>2024-04-06T14:11:39.680Z</time>
      </trkpt>
      <trkpt lat="43.91185" lon="3.97367">
        <ele>122.5</ele>
        <time>2024-04-06T14:11:41.318Z</time>
      </trkpt>
      <trkpt lat="43.91186" lon="3.97376">
        <ele>121.7</ele>
        <time>2024-04-06T14:11:43.154Z</time>
      </trkpt>
      <trkpt lat="43.91187" lon="3.97384">
        <ele>120.9</ele>
        <time>2024-04-06T14:11:44.792Z</time>
      </trkpt>
      <trkpt lat="43.91186" lon="3.97393">
        <ele>120.2</ele>
        <time>2024-04-06T14:11:46.629Z</time>
      </trkpt>
      <trkpt lat="43.91184" lon="3.97401">
        <ele>119.4</ele>
        <time>2024-04-06T14:11:48.337Z</time>
      </trkpt>
      <trkpt lat="43.91184" lon="3.97409">
        <ele>118.6</ele>
        <time>2024-04-06T14:11:49.950Z</time>
      </trkpt>
      <trkpt lat="43.91184" lon="3.97417">
        <ele>117.7</ele>
        <time>2024-04-06T14:11:51.564Z</time>
      </trkpt>
      <trkpt lat="43.91183" lon="3.97423">
        <ele>117.1</ele>
        <time>2024-04-06T14:11:52.806Z</time>
      </trkpt>
      <trkpt lat="43.91182" lon="3.97428">
        <ele>116.5</ele>
        <time>2024-04-06T14:11:53.853Z</time>
      </trkpt>
      <trkpt lat="43.9118" lon="3.9743">
        <ele>116.3</ele>
        <time>2024-04-06T14:11:54.543Z</time>
      </trkpt>
      <trkpt lat="43.91177" lon="3.97429">
        <ele>116.5</ele>
        <time>2024-04-06T14:11:55.758Z</time>
      </trkpt>
      <trkpt lat="43.91175" lon="3.97428">
        <ele>116.7</ele>
        <time>2024-04-06T14:11:56.683Z</time>
      </trkpt>
      <trkpt lat="43.91172" lon="3.97425">
        <ele>117.3</ele>
        <time>2024-04-06T14:11:58.741Z</time>
      </trkpt>
      <trkpt lat="43.9117" lon="3.97422">
        <ele>117.9</ele>
        <time>2024-04-06T14:12:00.663Z</time>
      </trkpt>
      <trkpt lat="43.91169" lon="3.9742">
        <ele>118.3</ele>
        <time>2024-04-06T14:12:01.924Z</time>
      </trkpt>
      <trkpt lat="43.91165" lon="3.97419">
        <ele>118.1</ele>
        <time>2024-04-06T14:12:03.062Z</time>
      </trkpt>
      <trkpt lat="43.91163" lon="3.97421">
        <ele>117.2</ele>
        <time>2024-04-06T14:12:03.752Z</time>
      </trkpt>
      <trkpt lat="43.91159" lon="3.97421">
        <ele>116.1</ele>
        <time>2024-04-06T14:12:04.872Z</time>
      </trkpt>
      <trkpt lat="43.91157" lon="3.9742">
        <ele>115.6</ele>
        <time>2024-04-06T14:12:05.467Z</time>
      </trkpt>
      <trkpt lat="43.91154" lon="3.9742">
        <ele>114.7</ele>
        <time>2024-04-06T14:12:06.307Z</time>
      </trkpt>
      <trkpt lat="43.91151" lon="3.97416">
        <ele>114</ele>
        <time>2024-04-06T14:12:07.472Z</time>
      </trkpt>
      <trkpt lat="43.9115" lon="3.97417">
        <ele>113.6</ele>
        <time>2024-04-06T14:12:07.817Z</time>
      </trkpt>
      <trkpt lat="43.91149" lon="3.9742">
        <ele>113.3</ele>
        <time>2024-04-06T14:12:08.484Z</time>
      </trkpt>
      <trkpt lat="43.91146" lon="3.97421">
        <ele>112.5</ele>
        <time>2024-04-06T14:12:09.348Z</time>
      </trkpt>
      <trkpt lat="43.91145" lon="3.9742">
        <ele>112.1</ele>
        <time>2024-04-06T14:12:09.693Z</time>
      </trkpt>
      <trkpt lat="43.91144" lon="3.97418">
        <ele>111.7</ele>
        <time>2024-04-06T14:12:10.184Z</time>
      </trkpt>
      <trkpt lat="43.91142" lon="3.97416">
        <ele>111.1</ele>
        <time>2024-04-06T14:12:10.874Z</time>
      </trkpt>
      <trkpt lat="43.9114" lon="3.97414">
        <ele>110.7</ele>
        <time>2024-04-06T14:12:11.564Z</time>
      </trkpt>
      <trkpt lat="43.91138" lon="3.97414">
        <ele>110.6</ele>
        <time>2024-04-06T14:12:12.124Z</time>
      </trkpt>
      <trkpt lat="43.91136" lon="3.97413">
        <ele>111.4</ele>
        <time>2024-04-06T14:12:14.936Z</time>
      </trkpt>
      <trkpt lat="43.91134" lon="3.97412">
        <ele>112</ele>
        <time>2024-04-06T14:12:16.844Z</time>
      </trkpt>
      <trkpt lat="43.91132" lon="3.97411">
        <ele>112.6</ele>
        <time>2024-04-06T14:12:18.753Z</time>
      </trkpt>
      <trkpt lat="43.9113" lon="3.97408">
        <ele>113.3</ele>
        <time>2024-04-06T14:12:20.955Z</time>
      </trkpt>
      <trkpt lat="43.91128" lon="3.97407">
        <ele>113.8</ele>
        <time>2024-04-06T14:12:22.528Z</time>
      </trkpt>
      <trkpt lat="43.91133" lon="3.97412">
        <ele>112.3</ele>
        <time>2024-04-06T14:12:24.253Z</time>
      </trkpt>
      <trkpt lat="43.91134" lon="3.97415">
        <ele>111.7</ele>
        <time>2024-04-06T14:12:24.920Z</time>
      </trkpt>
      <trkpt lat="43.91136" lon="3.97418">
        <ele>111.1</ele>
        <time>2024-04-06T14:12:25.744Z</time>
      </trkpt>
      <trkpt lat="43.91137" lon="3.97422">
        <ele>111.2</ele>
        <time>2024-04-06T14:12:26.826Z</time>
      </trkpt>
      <trkpt lat="43.91139" lon="3.97425">
        <ele>110.9</ele>
        <time>2024-04-06T14:12:27.651Z</time>
      </trkpt>
      <trkpt lat="43.91141" lon="3.97428">
        <ele>111.7</ele>
        <time>2024-04-06T14:12:30.181Z</time>
      </trkpt>
      <trkpt lat="43.91142" lon="3.97431">
        <ele>112.1</ele>
        <time>2024-04-06T14:12:31.535Z</time>
      </trkpt>
      <trkpt lat="43.91143" lon="3.97434">
        <ele>112.5</ele>
        <time>2024-04-06T14:12:32.889Z</time>
      </trkpt>
      <trkpt lat="43.91145" lon="3.97437">
        <ele>112.9</ele>
        <time>2024-04-06T14:12:34.375Z</time>
      </trkpt>
      <trkpt lat="43.91146" lon="3.9744">
        <ele>113.1</ele>
        <time>2024-04-06T14:12:35.376Z</time>
      </trkpt>
      <trkpt lat="43.91151" lon="3.97449">
        <ele>113.3</ele>
        <time>2024-04-06T14:12:38.204Z</time>
      </trkpt>
      <trkpt lat="43.91156" lon="3.97457">
        <ele>112.5</ele>
        <time>2024-04-06T14:12:40.340Z</time>
      </trkpt>
      <trkpt lat="43.9116" lon="3.97466">
        <ele>110.8</ele>
        <time>2024-04-06T14:12:42.473Z</time>
      </trkpt>
      <trkpt lat="43.91165" lon="3.97474">
        <ele>108.4</ele>
        <time>2024-04-06T14:12:44.609Z</time>
      </trkpt>
      <trkpt lat="43.91166" lon="3.97476">
        <ele>108</ele>
        <time>2024-04-06T14:12:45.100Z</time>
      </trkpt>
      <trkpt lat="43.91167" lon="3.97479">
        <ele>107.8</ele>
        <time>2024-04-06T14:12:45.767Z</time>
      </trkpt>
      <trkpt lat="43.91169" lon="3.97483">
        <ele>107.9</ele>
        <time>2024-04-06T14:12:46.994Z</time>
      </trkpt>
      <trkpt lat="43.9117" lon="3.97486">
        <ele>107.9</ele>
        <time>2024-04-06T14:12:47.756Z</time>
      </trkpt>
      <trkpt lat="43.91171" lon="3.97488">
        <ele>108</ele>
        <time>2024-04-06T14:12:48.429Z</time>
      </trkpt>
      <trkpt lat="43.91171" lon="3.97491">
        <ele>107.8</ele>
        <time>2024-04-06T14:12:49.034Z</time>
      </trkpt>
      <trkpt lat="43.91172" lon="3.97495">
        <ele>107.8</ele>
        <time>2024-04-06T14:12:50.010Z</time>
      </trkpt>
      <trkpt lat="43.91172" lon="3.97501">
        <ele>107.7</ele>
        <time>2024-04-06T14:12:51.300Z</time>
      </trkpt>
      <trkpt lat="43.91173" lon="3.97504">
        <ele>108.2</ele>
        <time>2024-04-06T14:12:52.893Z</time>
      </trkpt>
      <trkpt lat="43.91173" lon="3.97506">
        <ele>108.4</ele>
        <time>2024-04-06T14:12:53.628Z</time>
      </trkpt>
      <trkpt lat="43.91175" lon="3.97511">
        <ele>109</ele>
        <time>2024-04-06T14:12:55.783Z</time>
      </trkpt>
      <trkpt lat="43.91176" lon="3.97513">
        <ele>109.2</ele>
        <time>2024-04-06T14:12:56.601Z</time>
      </trkpt>
      <trkpt lat="43.91178" lon="3.97516">
        <ele>109.5</ele>
        <time>2024-04-06T14:12:57.918Z</time>
      </trkpt>
      <trkpt lat="43.91179" lon="3.97518">
        <ele>109.6</ele>
        <time>2024-04-06T14:12:58.591Z</time>
      </trkpt>
      <trkpt lat="43.9118" lon="3.97521">
        <ele>109.7</ele>
        <time>2024-04-06T14:12:59.461Z</time>
      </trkpt>
      <trkpt lat="43.91181" lon="3.97526">
        <ele>109.8</ele>
        <time>2024-04-06T14:13:00.762Z</time>
      </trkpt>
      <trkpt lat="43.91182" lon="3.97529">
        <ele>109.6</ele>
        <time>2024-04-06T14:13:01.428Z</time>
      </trkpt>
      <trkpt lat="43.91183" lon="3.97532">
        <ele>108.8</ele>
        <time>2024-04-06T14:13:02.095Z</time>
      </trkpt>
      <trkpt lat="43.91186" lon="3.97534">
        <ele>107.9</ele>
        <time>2024-04-06T14:13:03.027Z</time>
      </trkpt>
      <trkpt lat="43.91188" lon="3.97536">
        <ele>107.1</ele>
        <time>2024-04-06T14:13:03.717Z</time>
      </trkpt>
      <trkpt lat="43.91189" lon="3.97537">
        <ele>106.7</ele>
        <time>2024-04-06T14:13:04.062Z</time>
      </trkpt>
      <trkpt lat="43.91191" lon="3.97538">
        <ele>106.1</ele>
        <time>2024-04-06T14:13:04.657Z</time>
      </trkpt>
      <trkpt lat="43.91193" lon="3.9754">
        <ele>105.2</ele>
        <time>2024-04-06T14:13:05.347Z</time>
      </trkpt>
      <trkpt lat="43.91195" lon="3.97541">
        <ele>104.8</ele>
        <time>2024-04-06T14:13:05.943Z</time>
      </trkpt>
      <trkpt lat="43.91196" lon="3.97543">
        <ele>104.6</ele>
        <time>2024-04-06T14:13:06.434Z</time>
      </trkpt>
      <trkpt lat="43.91198" lon="3.97545">
        <ele>104.6</ele>
        <time>2024-04-06T14:13:07.222Z</time>
      </trkpt>
      <trkpt lat="43.912" lon="3.97548">
        <ele>104.5</ele>
        <time>2024-04-06T14:13:08.073Z</time>
      </trkpt>
      <trkpt lat="43.91203" lon="3.9755">
        <ele>104.9</ele>
        <time>2024-04-06T14:13:09.660Z</time>
      </trkpt>
      <trkpt lat="43.91205" lon="3.97554">
        <ele>104.7</ele>
        <time>2024-04-06T14:13:10.642Z</time>
      </trkpt>
      <trkpt lat="43.91205" lon="3.97558">
        <ele>104.2</ele>
        <time>2024-04-06T14:13:11.449Z</time>
      </trkpt>
      <trkpt lat="43.91207" lon="3.97562">
        <ele>104.3</ele>
        <time>2024-04-06T14:13:12.676Z</time>
      </trkpt>
      <trkpt lat="43.91207" lon="3.97566">
        <ele>103.7</ele>
        <time>2024-04-06T14:13:13.483Z</time>
      </trkpt>
      <trkpt lat="43.91208" lon="3.97571">
        <ele>103.2</ele>
        <time>2024-04-06T14:13:14.530Z</time>
      </trkpt>
      <trkpt lat="43.91208" lon="3.97575">
        <ele>102.7</ele>
        <time>2024-04-06T14:13:15.336Z</time>
      </trkpt>
      <trkpt lat="43.91209" lon="3.9758">
        <ele>102</ele>
        <time>2024-04-06T14:13:16.383Z</time>
      </trkpt>
      <trkpt lat="43.9121" lon="3.97583">
        <ele>101.5</ele>
        <time>2024-04-06T14:13:17.050Z</time>
      </trkpt>
      <trkpt lat="43.91213" lon="3.97583">
        <ele>101.4</ele>
        <time>2024-04-06T14:13:17.918Z</time>
      </trkpt>
      <trkpt lat="43.91215" lon="3.97584">
        <ele>101.3</ele>
        <time>2024-04-06T14:13:18.513Z</time>
      </trkpt>
      <trkpt lat="43.91216" lon="3.97585">
        <ele>101.2</ele>
        <time>2024-04-06T14:13:18.858Z</time>
      </trkpt>
      <trkpt lat="43.91218" lon="3.97586">
        <ele>101.1</ele>
        <time>2024-04-06T14:13:19.453Z</time>
      </trkpt>
      <trkpt lat="43.91221" lon="3.97594">
        <ele>100.8</ele>
        <time>2024-04-06T14:13:21.272Z</time>
      </trkpt>
      <trkpt lat="43.91223" lon="3.97595">
        <ele>100.6</ele>
        <time>2024-04-06T14:13:21.868Z</time>
      </trkpt>
      <trkpt lat="43.91227" lon="3.97593">
        <ele>101</ele>
        <time>2024-04-06T14:13:23.717Z</time>
      </trkpt>
      <trkpt lat="43.9123" lon="3.97588">
        <ele>101.9</ele>
        <time>2024-04-06T14:13:26.640Z</time>
      </trkpt>
      <trkpt lat="43.91234" lon="3.97588">
        <ele>102.4</ele>
        <time>2024-04-06T14:13:28.581Z</time>
      </trkpt>
      <trkpt lat="43.91238" lon="3.9759">
        <ele>102.5</ele>
        <time>2024-04-06T14:13:30.045Z</time>
      </trkpt>
      <trkpt lat="43.91241" lon="3.97593">
        <ele>102.2</ele>
        <time>2024-04-06T14:13:31.080Z</time>
      </trkpt>
      <trkpt lat="43.91242" lon="3.97598">
        <ele>101</ele>
        <time>2024-04-06T14:13:32.127Z</time>
      </trkpt>
      <trkpt lat="43.91243" lon="3.97602">
        <ele>100</ele>
        <time>2024-04-06T14:13:32.981Z</time>
      </trkpt>
      <trkpt lat="43.91243" lon="3.97607">
        <ele>98.8</ele>
        <time>2024-04-06T14:13:33.990Z</time>
      </trkpt>
      <trkpt lat="43.91244" lon="3.97611">
        <ele>97.7</ele>
        <time>2024-04-06T14:13:34.843Z</time>
      </trkpt>
      <trkpt lat="43.91244" lon="3.97615">
        <ele>97.9</ele>
        <time>2024-04-06T14:13:35.996Z</time>
      </trkpt>
      <trkpt lat="43.91247" lon="3.97616">
        <ele>97.6</ele>
        <time>2024-04-06T14:13:36.860Z</time>
      </trkpt>
      <trkpt lat="43.9125" lon="3.97618">
        <ele>97.2</ele>
        <time>2024-04-06T14:13:37.792Z</time>
      </trkpt>
      <trkpt lat="43.91253" lon="3.9762">
        <ele>97.7</ele>
        <time>2024-04-06T14:13:39.563Z</time>
      </trkpt>
      <trkpt lat="43.91255" lon="3.97622">
        <ele>97.9</ele>
        <time>2024-04-06T14:13:40.588Z</time>
      </trkpt>
      <trkpt lat="43.91257" lon="3.97624">
        <ele>98</ele>
        <time>2024-04-06T14:13:41.485Z</time>
      </trkpt>
      <trkpt lat="43.91258" lon="3.97626">
        <ele>98</ele>
        <time>2024-04-06T14:13:42.046Z</time>
      </trkpt>
      <trkpt lat="43.9126" lon="3.97629">
        <ele>97.9</ele>
        <time>2024-04-06T14:13:42.897Z</time>
      </trkpt>
      <trkpt lat="43.91262" lon="3.97632">
        <ele>97.7</ele>
        <time>2024-04-06T14:13:43.721Z</time>
      </trkpt>
      <trkpt lat="43.91264" lon="3.97634">
        <ele>97.5</ele>
        <time>2024-04-06T14:13:44.411Z</time>
      </trkpt>
      <trkpt lat="43.91266" lon="3.97637">
        <ele>97.1</ele>
        <time>2024-04-06T14:13:45.236Z</time>
      </trkpt>
      <trkpt lat="43.91269" lon="3.9764">
        <ele>96.6</ele>
        <time>2024-04-06T14:13:46.271Z</time>
      </trkpt>
      <trkpt lat="43.91271" lon="3.97644">
        <ele>96.5</ele>
        <time>2024-04-06T14:13:47.300Z</time>
      </trkpt>
      <trkpt lat="43.91275" lon="3.97648">
        <ele>96</ele>
        <time>2024-04-06T14:13:48.681Z</time>
      </trkpt>
      <trkpt lat="43.91278" lon="3.97652">
        <ele>95.5</ele>
        <time>2024-04-06T14:13:49.845Z</time>
      </trkpt>
      <trkpt lat="43.9128" lon="3.97657">
        <ele>95.3</ele>
        <time>2024-04-06T14:13:50.999Z</time>
      </trkpt>
      <trkpt lat="43.91282" lon="3.97662">
        <ele>95.2</ele>
        <time>2024-04-06T14:13:52.223Z</time>
      </trkpt>
      <trkpt lat="43.91284" lon="3.97666">
        <ele>95</ele>
        <time>2024-04-06T14:13:53.206Z</time>
      </trkpt>
      <trkpt lat="43.91287" lon="3.97669">
        <ele>95.3</ele>
        <time>2024-04-06T14:13:54.744Z</time>
      </trkpt>
      <trkpt lat="43.9129" lon="3.97671">
        <ele>95.5</ele>
        <time>2024-04-06T14:13:56.035Z</time>
      </trkpt>
      <trkpt lat="43.91293" lon="3.97671">
        <ele>95.4</ele>
        <time>2024-04-06T14:13:56.903Z</time>
      </trkpt>
      <trkpt lat="43.91296" lon="3.9767">
        <ele>95.2</ele>
        <time>2024-04-06T14:13:57.767Z</time>
      </trkpt>
      <trkpt lat="43.91299" lon="3.97669">
        <ele>95.1</ele>
        <time>2024-04-06T14:13:58.662Z</time>
      </trkpt>
      <trkpt lat="43.91301" lon="3.97668">
        <ele>95</ele>
        <time>2024-04-06T14:13:59.257Z</time>
      </trkpt>
      <trkpt lat="43.91303" lon="3.97667">
        <ele>95</ele>
        <time>2024-04-06T14:13:59.937Z</time>
      </trkpt>
      <trkpt lat="43.91308" lon="3.97666">
        <ele>95.4</ele>
        <time>2024-04-06T14:14:02.026Z</time>
      </trkpt>
      <trkpt lat="43.9131" lon="3.97666">
        <ele>95.7</ele>
        <time>2024-04-06T14:14:03.089Z</time>
      </trkpt>
      <trkpt lat="43.91312" lon="3.97664">
        <ele>96</ele>
        <time>2024-04-06T14:14:04.271Z</time>
      </trkpt>
      <trkpt lat="43.91312" lon="3.97661">
        <ele>96.1</ele>
        <time>2024-04-06T14:14:05.072Z</time>
      </trkpt>
      <trkpt lat="43.91314" lon="3.97659">
        <ele>96.4</ele>
        <time>2024-04-06T14:14:06.254Z</time>
      </trkpt>
      <trkpt lat="43.91316" lon="3.97657">
        <ele>96.7</ele>
        <time>2024-04-06T14:14:07.436Z</time>
      </trkpt>
      <trkpt lat="43.91317" lon="3.97656">
        <ele>96.9</ele>
        <time>2024-04-06T14:14:08.122Z</time>
      </trkpt>
      <trkpt lat="43.9132" lon="3.97657">
        <ele>97.2</ele>
        <time>2024-04-06T14:14:09.479Z</time>
      </trkpt>
      <trkpt lat="43.91322" lon="3.97657">
        <ele>97.5</ele>
        <time>2024-04-06T14:14:10.542Z</time>
      </trkpt>
      <trkpt lat="43.91323" lon="3.97657">
        <ele>97.6</ele>
        <time>2024-04-06T14:14:10.986Z</time>
      </trkpt>
      <trkpt lat="43.91324" lon="3.97656">
        <ele>97.8</ele>
        <time>2024-04-06T14:14:11.672Z</time>
      </trkpt>
      <trkpt lat="43.91325" lon="3.97658">
        <ele>97.9</ele>
        <time>2024-04-06T14:14:12.345Z</time>
      </trkpt>
      <trkpt lat="43.91327" lon="3.97659">
        <ele>98.2</ele>
        <time>2024-04-06T14:14:13.439Z</time>
      </trkpt>
      <trkpt lat="43.91326" lon="3.97661">
        <ele>98</ele>
        <time>2024-04-06T14:14:13.930Z</time>
      </trkpt>
      <trkpt lat="43.91329" lon="3.97666">
        <ele>98.4</ele>
        <time>2024-04-06T14:14:15.909Z</time>
      </trkpt>
      <trkpt lat="43.9133" lon="3.97669">
        <ele>98.5</ele>
        <time>2024-04-06T14:14:16.779Z</time>
      </trkpt>
      <trkpt lat="43.91332" lon="3.97671">
        <ele>98.8</ele>
        <time>2024-04-06T14:14:17.961Z</time>
      </trkpt>
      <trkpt lat="43.91333" lon="3.97673">
        <ele>99</ele>
        <time>2024-04-06T14:14:18.780Z</time>
      </trkpt>
      <trkpt lat="43.91334" lon="3.97675">
        <ele>99.1</ele>
        <time>2024-04-06T14:14:19.453Z</time>
      </trkpt>
      <trkpt lat="43.91335" lon="3.97677">
        <ele>99.3</ele>
        <time>2024-04-06T14:14:20.271Z</time>
      </trkpt>
      <trkpt lat="43.91334" lon="3.9768">
        <ele>99.1</ele>
        <time>2024-04-06T14:14:20.938Z</time>
      </trkpt>
      <trkpt lat="43.91333" lon="3.9768">
        <ele>99</ele>
        <time>2024-04-06T14:14:21.218Z</time>
      </trkpt>
      <trkpt lat="43.9133" lon="3.9769">
        <ele>98.5</ele>
        <time>2024-04-06T14:14:23.403Z</time>
      </trkpt>
      <trkpt lat="43.91327" lon="3.977">
        <ele>96.9</ele>
        <time>2024-04-06T14:14:25.588Z</time>
      </trkpt>
      <trkpt lat="43.91325" lon="3.97706">
        <ele>95.6</ele>
        <time>2024-04-06T14:14:26.921Z</time>
      </trkpt>
      <trkpt lat="43.91324" lon="3.97712">
        <ele>94.5</ele>
        <time>2024-04-06T14:14:28.163Z</time>
      </trkpt>
      <trkpt lat="43.91322" lon="3.97719">
        <ele>93.5</ele>
        <time>2024-04-06T14:14:29.682Z</time>
      </trkpt>
      <trkpt lat="43.91321" lon="3.97724">
        <ele>93.7</ele>
        <time>2024-04-06T14:14:31.100Z</time>
      </trkpt>
      <trkpt lat="43.9132" lon="3.9773">
        <ele>95.3</ele>
        <time>2024-04-06T14:14:36.612Z</time>
      </trkpt>
      <trkpt lat="43.9132" lon="3.97734">
        <ele>96.3</ele>
        <time>2024-04-06T14:14:40.000Z</time>
      </trkpt>
      <trkpt lat="43.9132" lon="3.97738">
        <ele>97.3</ele>
        <time>2024-04-06T14:14:43.387Z</time>
      </trkpt>
      <trkpt lat="43.91321" lon="3.97741">
        <ele>97.8</ele>
        <time>2024-04-06T14:14:44.980Z</time>
      </trkpt>
      <trkpt lat="43.91321" lon="3.97743">
        <ele>98.3</ele>
        <time>2024-04-06T14:14:46.674Z</time>
      </trkpt>
      <trkpt lat="43.91323" lon="3.97746">
        <ele>98.4</ele>
        <time>2024-04-06T14:14:47.722Z</time>
      </trkpt>
      <trkpt lat="43.91324" lon="3.97749">
        <ele>98.8</ele>
        <time>2024-04-06T14:14:49.077Z</time>
      </trkpt>
      <trkpt lat="43.91325" lon="3.97751">
        <ele>98.8</ele>
        <time>2024-04-06T14:14:49.638Z</time>
      </trkpt>
      <trkpt lat="43.91326" lon="3.97753">
        <ele>98.8</ele>
        <time>2024-04-06T14:14:50.199Z</time>
      </trkpt>
      <trkpt lat="43.91327" lon="3.97756">
        <ele>98.9</ele>
        <time>2024-04-06T14:14:51.069Z</time>
      </trkpt>
      <trkpt lat="43.91328" lon="3.97758">
        <ele>98.8</ele>
        <time>2024-04-06T14:14:51.560Z</time>
      </trkpt>
      <trkpt lat="43.91328" lon="3.97761">
        <ele>99.2</ele>
        <time>2024-04-06T14:14:52.872Z</time>
      </trkpt>
      <trkpt lat="43.91329" lon="3.97763">
        <ele>99.2</ele>
        <time>2024-04-06T14:14:53.433Z</time>
      </trkpt>
      <trkpt lat="43.9133" lon="3.97766">
        <ele>99.3</ele>
        <time>2024-04-06T14:14:54.303Z</time>
      </trkpt>
      <trkpt lat="43.91331" lon="3.97769">
        <ele>99.4</ele>
        <time>2024-04-06T14:14:55.173Z</time>
      </trkpt>
      <trkpt lat="43.91332" lon="3.97772">
        <ele>99.6</ele>
        <time>2024-04-06T14:14:56.174Z</time>
      </trkpt>
      <trkpt lat="43.91333" lon="3.97774">
        <ele>99.6</ele>
        <time>2024-04-06T14:14:56.735Z</time>
      </trkpt>
      <trkpt lat="43.91334" lon="3.97777">
        <ele>99.6</ele>
        <time>2024-04-06T14:14:57.497Z</time>
      </trkpt>
      <trkpt lat="43.91335" lon="3.97779">
        <ele>99.5</ele>
        <time>2024-04-06T14:14:57.988Z</time>
      </trkpt>
      <trkpt lat="43.91337" lon="3.97782">
        <ele>99.2</ele>
        <time>2024-04-06T14:14:58.813Z</time>
      </trkpt>
      <trkpt lat="43.91338" lon="3.97784">
        <ele>99.2</ele>
        <time>2024-04-06T14:14:59.374Z</time>
      </trkpt>
      <trkpt lat="43.91339" lon="3.97787">
        <ele>99.3</ele>
        <time>2024-04-06T14:15:00.244Z</time>
      </trkpt>
      <trkpt lat="43.9134" lon="3.97789">
        <ele>99.3</ele>
        <time>2024-04-06T14:15:00.805Z</time>
      </trkpt>
      <trkpt lat="43.91341" lon="3.97791">
        <ele>99.3</ele>
        <time>2024-04-06T14:15:01.366Z</time>
      </trkpt>
      <trkpt lat="43.91343" lon="3.97795">
        <ele>99.4</ele>
        <time>2024-04-06T14:15:02.593Z</time>
      </trkpt>
      <trkpt lat="43.91344" lon="3.97797">
        <ele>99.4</ele>
        <time>2024-04-06T14:15:03.155Z</time>
      </trkpt>
      <trkpt lat="43.91346" lon="3.97801">
        <ele>99.5</ele>
        <time>2024-04-06T14:15:04.382Z</time>
      </trkpt>
      <trkpt lat="43.91348" lon="3.97804">
        <ele>99.4</ele>
        <time>2024-04-06T14:15:05.232Z</time>
      </trkpt>
      <trkpt lat="43.91351" lon="3.97807">
        <ele>99</ele>
        <time>2024-04-06T14:15:06.268Z</time>
      </trkpt>
      <trkpt lat="43.91352" lon="3.9781">
        <ele>99.5</ele>
        <time>2024-04-06T14:15:07.861Z</time>
      </trkpt>
      <trkpt lat="43.91354" lon="3.97814">
        <ele>100</ele>
        <time>2024-04-06T14:15:09.675Z</time>
      </trkpt>
      <trkpt lat="43.91356" lon="3.97818">
        <ele>100.7</ele>
        <time>2024-04-06T14:15:11.927Z</time>
      </trkpt>
      <trkpt lat="43.91358" lon="3.97821">
        <ele>101.2</ele>
        <time>2024-04-06T14:15:13.613Z</time>
      </trkpt>
      <trkpt lat="43.9136" lon="3.97824">
        <ele>101.8</ele>
        <time>2024-04-06T14:15:15.536Z</time>
      </trkpt>
      <trkpt lat="43.91362" lon="3.97828">
        <ele>102.9</ele>
        <time>2024-04-06T14:15:19.125Z</time>
      </trkpt>
      <trkpt lat="43.91365" lon="3.97831">
        <ele>103.4</ele>
        <time>2024-04-06T14:15:20.987Z</time>
      </trkpt>
      <trkpt lat="43.91367" lon="3.97835">
        <ele>104.1</ele>
        <time>2024-04-06T14:15:23.240Z</time>
      </trkpt>
      <trkpt lat="43.91369" lon="3.97838">
        <ele>104.2</ele>
        <time>2024-04-06T14:15:24.288Z</time>
      </trkpt>
      <trkpt lat="43.91371" lon="3.9784">
        <ele>104.1</ele>
        <time>2024-04-06T14:15:24.986Z</time>
      </trkpt>
      <trkpt lat="43.91374" lon="3.97843">
        <ele>104</ele>
        <time>2024-04-06T14:15:26.076Z</time>
      </trkpt>
      <trkpt lat="43.91375" lon="3.97845">
        <ele>104.2</ele>
        <time>2024-04-06T14:15:26.895Z</time>
      </trkpt>
      <trkpt lat="43.91377" lon="3.97847">
        <ele>104.2</ele>
        <time>2024-04-06T14:15:27.683Z</time>
      </trkpt>
      <trkpt lat="43.91378" lon="3.97849">
        <ele>104.3</ele>
        <time>2024-04-06T14:15:28.356Z</time>
      </trkpt>
      <trkpt lat="43.9138" lon="3.97851">
        <ele>104.4</ele>
        <time>2024-04-06T14:15:29.253Z</time>
      </trkpt>
      <trkpt lat="43.91382" lon="3.97853">
        <ele>104.4</ele>
        <time>2024-04-06T14:15:30.042Z</time>
      </trkpt>
      <trkpt lat="43.91384" lon="3.97854">
        <ele>104.3</ele>
        <time>2024-04-06T14:15:30.637Z</time>
      </trkpt>
      <trkpt lat="43.91386" lon="3.97856">
        <ele>104.4</ele>
        <time>2024-04-06T14:15:31.533Z</time>
      </trkpt>
      <trkpt lat="43.91388" lon="3.97858">
        <ele>104.5</ele>
        <time>2024-04-06T14:15:32.430Z</time>
      </trkpt>
      <trkpt lat="43.91391" lon="3.97859">
        <ele>104.4</ele>
        <time>2024-04-06T14:15:33.325Z</time>
      </trkpt>
      <trkpt lat="43.91393" lon="3.97861">
        <ele>104.5</ele>
        <time>2024-04-06T14:15:34.222Z</time>
      </trkpt>
      <trkpt lat="43.91395" lon="3.97862">
        <ele>104.4</ele>
        <time>2024-04-06T14:15:34.817Z</time>
      </trkpt>
      <trkpt lat="43.91397" lon="3.97864">
        <ele>104.5</ele>
        <time>2024-04-06T14:15:35.713Z</time>
      </trkpt>
      <trkpt lat="43.914" lon="3.97866">
        <ele>104.4</ele>
        <time>2024-04-06T14:15:36.686Z</time>
      </trkpt>
      <trkpt lat="43.91402" lon="3.97868">
        <ele>104.4</ele>
        <time>2024-04-06T14:15:37.474Z</time>
      </trkpt>
      <trkpt lat="43.91404" lon="3.9787">
        <ele>104.5</ele>
        <time>2024-04-06T14:15:38.371Z</time>
      </trkpt>
      <trkpt lat="43.91406" lon="3.97873">
        <ele>104.7</ele>
        <time>2024-04-06T14:15:39.543Z</time>
      </trkpt>
      <trkpt lat="43.91409" lon="3.97875">
        <ele>104.7</ele>
        <time>2024-04-06T14:15:40.608Z</time>
      </trkpt>
      <trkpt lat="43.91411" lon="3.97877">
        <ele>104.8</ele>
        <time>2024-04-06T14:15:41.504Z</time>
      </trkpt>
      <trkpt lat="43.91413" lon="3.9788">
        <ele>105</ele>
        <time>2024-04-06T14:15:42.676Z</time>
      </trkpt>
      <trkpt lat="43.91415" lon="3.97882">
        <ele>105.1</ele>
        <time>2024-04-06T14:15:43.573Z</time>
      </trkpt>
      <trkpt lat="43.91417" lon="3.97885">
        <ele>105.4</ele>
        <time>2024-04-06T14:15:44.889Z</time>
      </trkpt>
      <trkpt lat="43.91419" lon="3.97887">
        <ele>105.4</ele>
        <time>2024-04-06T14:15:45.678Z</time>
      </trkpt>
      <trkpt lat="43.91421" lon="3.9789">
        <ele>105.4</ele>
        <time>2024-04-06T14:15:46.620Z</time>
      </trkpt>
      <trkpt lat="43.91423" lon="3.97892">
        <ele>105.2</ele>
        <time>2024-04-06T14:15:47.310Z</time>
      </trkpt>
      <trkpt lat="43.91425" lon="3.97895">
        <ele>105.1</ele>
        <time>2024-04-06T14:15:48.160Z</time>
      </trkpt>
      <trkpt lat="43.91427" lon="3.97898">
        <ele>105</ele>
        <time>2024-04-06T14:15:49.011Z</time>
      </trkpt>
      <trkpt lat="43.91429" lon="3.97901">
        <ele>104.9</ele>
        <time>2024-04-06T14:15:49.861Z</time>
      </trkpt>
      <trkpt lat="43.9143" lon="3.97904">
        <ele>104.9</ele>
        <time>2024-04-06T14:15:50.623Z</time>
      </trkpt>
      <trkpt lat="43.91432" lon="3.97908">
        <ele>104.9</ele>
        <time>2024-04-06T14:15:51.746Z</time>
      </trkpt>
      <trkpt lat="43.91433" lon="3.97912">
        <ele>105</ele>
        <time>2024-04-06T14:15:52.828Z</time>
      </trkpt>
      <trkpt lat="43.91435" lon="3.97915">
        <ele>104.9</ele>
        <time>2024-04-06T14:15:53.678Z</time>
      </trkpt>
      <trkpt lat="43.91436" lon="3.97919">
        <ele>105</ele>
        <time>2024-04-06T14:15:54.760Z</time>
      </trkpt>
      <trkpt lat="43.91438" lon="3.97923">
        <ele>104.9</ele>
        <time>2024-04-06T14:15:55.790Z</time>
      </trkpt>
      <trkpt lat="43.91439" lon="3.97927">
        <ele>105</ele>
        <time>2024-04-06T14:15:56.871Z</time>
      </trkpt>
      <trkpt lat="43.9144" lon="3.97932">
        <ele>105</ele>
        <time>2024-04-06T14:15:58.067Z</time>
      </trkpt>
      <trkpt lat="43.91441" lon="3.97935">
        <ele>105</ele>
        <time>2024-04-06T14:15:58.829Z</time>
      </trkpt>
      <trkpt lat="43.91441" lon="3.9794">
        <ele>105.2</ele>
        <time>2024-04-06T14:16:00.205Z</time>
      </trkpt>
      <trkpt lat="43.91442" lon="3.97943">
        <ele>105.2</ele>
        <time>2024-04-06T14:16:00.967Z</time>
      </trkpt>
      <trkpt lat="43.91443" lon="3.97947">
        <ele>105.2</ele>
        <time>2024-04-06T14:16:01.943Z</time>
      </trkpt>
      <trkpt lat="43.91443" lon="3.97952">
        <ele>105.2</ele>
        <time>2024-04-06T14:16:03.095Z</time>
      </trkpt>
      <trkpt lat="43.91443" lon="3.97957">
        <ele>105.2</ele>
        <time>2024-04-06T14:16:04.248Z</time>
      </trkpt>
      <trkpt lat="43.91444" lon="3.97962">
        <ele>105</ele>
        <time>2024-04-06T14:16:05.295Z</time>
      </trkpt>
      <trkpt lat="43.91444" lon="3.97967">
        <ele>105</ele>
        <time>2024-04-06T14:16:06.447Z</time>
      </trkpt>
      <trkpt lat="43.91444" lon="3.97973">
        <ele>105</ele>
        <time>2024-04-06T14:16:07.830Z</time>
      </trkpt>
      <trkpt lat="43.91444" lon="3.97978">
        <ele>105</ele>
        <time>2024-04-06T14:16:08.983Z</time>
      </trkpt>
      <trkpt lat="43.91444" lon="3.97983">
        <ele>105</ele>
        <time>2024-04-06T14:16:10.135Z</time>
      </trkpt>
      <trkpt lat="43.91445" lon="3.97989">
        <ele>104.9</ele>
        <time>2024-04-06T14:16:11.461Z</time>
      </trkpt>
      <trkpt lat="43.91445" lon="3.97995">
        <ele>104.9</ele>
        <time>2024-04-06T14:16:12.844Z</time>
      </trkpt>
      <trkpt lat="43.91445" lon="3.98">
        <ele>104.9</ele>
        <time>2024-04-06T14:16:13.996Z</time>
      </trkpt>
      <trkpt lat="43.91445" lon="3.98005">
        <ele>104.9</ele>
        <time>2024-04-06T14:16:15.149Z</time>
      </trkpt>
      <trkpt lat="43.91446" lon="3.98011">
        <ele>104.8</ele>
        <time>2024-04-06T14:16:16.474Z</time>
      </trkpt>
      <trkpt lat="43.91446" lon="3.98016">
        <ele>104.8</ele>
        <time>2024-04-06T14:16:17.627Z</time>
      </trkpt>
      <trkpt lat="43.91445" lon="3.98021">
        <ele>104.9</ele>
        <time>2024-04-06T14:16:18.927Z</time>
      </trkpt>
      <trkpt lat="43.91445" lon="3.98025">
        <ele>104.9</ele>
        <time>2024-04-06T14:16:19.849Z</time>
      </trkpt>
      <trkpt lat="43.91445" lon="3.9803">
        <ele>104.8</ele>
        <time>2024-04-06T14:16:20.909Z</time>
      </trkpt>
      <trkpt lat="43.91445" lon="3.98034">
        <ele>104.7</ele>
        <time>2024-04-06T14:16:21.740Z</time>
      </trkpt>
      <trkpt lat="43.91445" lon="3.98039">
        <ele>104.4</ele>
        <time>2024-04-06T14:16:22.748Z</time>
      </trkpt>
      <trkpt lat="43.91444" lon="3.98044">
        <ele>104.4</ele>
        <time>2024-04-06T14:16:23.944Z</time>
      </trkpt>
      <trkpt lat="43.91444" lon="3.98048">
        <ele>104.3</ele>
        <time>2024-04-06T14:16:24.775Z</time>
      </trkpt>
      <trkpt lat="43.91443" lon="3.98053">
        <ele>104.1</ele>
        <time>2024-04-06T14:16:25.821Z</time>
      </trkpt>
      <trkpt lat="43.91442" lon="3.98057">
        <ele>103.8</ele>
        <time>2024-04-06T14:16:26.675Z</time>
      </trkpt>
      <trkpt lat="43.91442" lon="3.98061">
        <ele>103</ele>
        <time>2024-04-06T14:16:27.482Z</time>
      </trkpt>
      <trkpt lat="43.9144" lon="3.98066">
        <ele>102.1</ele>
        <time>2024-04-06T14:16:28.635Z</time>
      </trkpt>
      <trkpt lat="43.91439" lon="3.98072">
        <ele>101.1</ele>
        <time>2024-04-06T14:16:29.877Z</time>
      </trkpt>
      <trkpt lat="43.91438" lon="3.98078">
        <ele>100.1</ele>
        <time>2024-04-06T14:16:31.120Z</time>
      </trkpt>
      <trkpt lat="43.91437" lon="3.98084">
        <ele>99.2</ele>
        <time>2024-04-06T14:16:32.362Z</time>
      </trkpt>
      <trkpt lat="43.91436" lon="3.98091">
        <ele>97.8</ele>
        <time>2024-04-06T14:16:33.801Z</time>
      </trkpt>
      <trkpt lat="43.91435" lon="3.98097">
        <ele>96.8</ele>
        <time>2024-04-06T14:16:35.043Z</time>
      </trkpt>
      <trkpt lat="43.91432" lon="3.98104">
        <ele>96.3</ele>
        <time>2024-04-06T14:16:36.686Z</time>
      </trkpt>
      <trkpt lat="43.91428" lon="3.98109">
        <ele>96.9</ele>
        <time>2024-04-06T14:16:39.175Z</time>
      </trkpt>
      <trkpt lat="43.91424" lon="3.98114">
        <ele>97.5</ele>
        <time>2024-04-06T14:16:41.664Z</time>
      </trkpt>
      <trkpt lat="43.91421" lon="3.98117">
        <ele>98.2</ele>
        <time>2024-04-06T14:16:43.945Z</time>
      </trkpt>
      <trkpt lat="43.91422" lon="3.98117">
        <ele>97.8</ele>
        <time>2024-04-06T14:16:44.225Z</time>
      </trkpt>
      <trkpt lat="43.91427" lon="3.98121">
        <ele>94.6</ele>
        <time>2024-04-06T14:16:45.841Z</time>
      </trkpt>
      <trkpt lat="43.91427" lon="3.98124">
        <ele>93.8</ele>
        <time>2024-04-06T14:16:46.446Z</time>
      </trkpt>
      <trkpt lat="43.91428" lon="3.98127">
        <ele>92.6</ele>
        <time>2024-04-06T14:16:47.113Z</time>
      </trkpt>
      <trkpt lat="43.91428" lon="3.98132">
        <ele>91.4</ele>
        <time>2024-04-06T14:16:48.121Z</time>
      </trkpt>
      <trkpt lat="43.91427" lon="3.98136">
        <ele>91</ele>
        <time>2024-04-06T14:16:48.975Z</time>
      </trkpt>
      <trkpt lat="43.91426" lon="3.98139">
        <ele>90.9</ele>
        <time>2024-04-06T14:16:49.647Z</time>
      </trkpt>
      <trkpt lat="43.91425" lon="3.98143">
        <ele>90.8</ele>
        <time>2024-04-06T14:16:50.531Z</time>
      </trkpt>
      <trkpt lat="43.91423" lon="3.98146">
        <ele>91.5</ele>
        <time>2024-04-06T14:16:52.732Z</time>
      </trkpt>
      <trkpt lat="43.91422" lon="3.9815">
        <ele>91.4</ele>
        <time>2024-04-06T14:16:53.616Z</time>
      </trkpt>
      <trkpt lat="43.91421" lon="3.98154">
        <ele>91.2</ele>
        <time>2024-04-06T14:16:54.470Z</time>
      </trkpt>
      <trkpt lat="43.91419" lon="3.98158">
        <ele>91.5</ele>
        <time>2024-04-06T14:16:55.952Z</time>
      </trkpt>
      <trkpt lat="43.91418" lon="3.98163">
        <ele>91.1</ele>
        <time>2024-04-06T14:16:56.999Z</time>
      </trkpt>
      <trkpt lat="43.91416" lon="3.98167">
        <ele>91</ele>
        <time>2024-04-06T14:16:58.028Z</time>
      </trkpt>
      <trkpt lat="43.91413" lon="3.9817">
        <ele>90.4</ele>
        <time>2024-04-06T14:16:59.064Z</time>
      </trkpt>
      <trkpt lat="43.91412" lon="3.98174">
        <ele>89.5</ele>
        <time>2024-04-06T14:16:59.917Z</time>
      </trkpt>
      <trkpt lat="43.9141" lon="3.98177">
        <ele>89.1</ele>
        <time>2024-04-06T14:17:00.742Z</time>
      </trkpt>
      <trkpt lat="43.91407" lon="3.98185">
        <ele>87.9</ele>
        <time>2024-04-06T14:17:02.561Z</time>
      </trkpt>
      <trkpt lat="43.91406" lon="3.9819">
        <ele>87.2</ele>
        <time>2024-04-06T14:17:03.608Z</time>
      </trkpt>
      <trkpt lat="43.91406" lon="3.98194">
        <ele>86.3</ele>
        <time>2024-04-06T14:17:04.414Z</time>
      </trkpt>
      <trkpt lat="43.91405" lon="3.98199">
        <ele>86.1</ele>
        <time>2024-04-06T14:17:05.461Z</time>
      </trkpt>
      <trkpt lat="43.91404" lon="3.98203">
        <ele>86</ele>
        <time>2024-04-06T14:17:06.345Z</time>
      </trkpt>
      <trkpt lat="43.91404" lon="3.98206">
        <ele>85.7</ele>
        <time>2024-04-06T14:17:06.950Z</time>
      </trkpt>
      <trkpt lat="43.91402" lon="3.98211">
        <ele>86.1</ele>
        <time>2024-04-06T14:17:08.761Z</time>
      </trkpt>
      <trkpt lat="43.91401" lon="3.98215">
        <ele>86.2</ele>
        <time>2024-04-06T14:17:09.843Z</time>
      </trkpt>
      <trkpt lat="43.914" lon="3.98216">
        <ele>86.6</ele>
        <time>2024-04-06T14:17:11.163Z</time>
      </trkpt>
      <trkpt lat="43.91396" lon="3.98217">
        <ele>88.5</ele>
        <time>2024-04-06T14:17:17.991Z</time>
      </trkpt>
      <trkpt lat="43.91394" lon="3.98219">
        <ele>89.4</ele>
        <time>2024-04-06T14:17:21.109Z</time>
      </trkpt>
      <trkpt lat="43.91392" lon="3.9822">
        <ele>90.4</ele>
        <time>2024-04-06T14:17:24.680Z</time>
      </trkpt>
      <trkpt lat="43.9139" lon="3.98222">
        <ele>91.4</ele>
        <time>2024-04-06T14:17:28.324Z</time>
      </trkpt>
      <trkpt lat="43.91387" lon="3.98222">
        <ele>92.1</ele>
        <time>2024-04-06T14:17:30.528Z</time>
      </trkpt>
      <trkpt lat="43.91384" lon="3.9822">
        <ele>92.2</ele>
        <time>2024-04-06T14:17:31.698Z</time>
      </trkpt>
      <trkpt lat="43.91381" lon="3.98218">
        <ele>92.4</ele>
        <time>2024-04-06T14:17:32.988Z</time>
      </trkpt>
      <trkpt lat="43.91378" lon="3.98216">
        <ele>92.5</ele>
        <time>2024-04-06T14:17:34.158Z</time>
      </trkpt>
      <trkpt lat="43.91376" lon="3.98214">
        <ele>92.6</ele>
        <time>2024-04-06T14:17:35.055Z</time>
      </trkpt>
      <trkpt lat="43.91374" lon="3.98211">
        <ele>92.7</ele>
        <time>2024-04-06T14:17:36.103Z</time>
      </trkpt>
      <trkpt lat="43.91373" lon="3.98208">
        <ele>92.8</ele>
        <time>2024-04-06T14:17:36.973Z</time>
      </trkpt>
      <trkpt lat="43.91373" lon="3.98205">
        <ele>92.8</ele>
        <time>2024-04-06T14:17:37.665Z</time>
      </trkpt>
      <trkpt lat="43.91371" lon="3.98202">
        <ele>92.9</ele>
        <time>2024-04-06T14:17:38.713Z</time>
      </trkpt>
      <trkpt lat="43.91368" lon="3.98201">
        <ele>92.9</ele>
        <time>2024-04-06T14:17:39.700Z</time>
      </trkpt>
      <trkpt lat="43.91367" lon="3.98203">
        <ele>92.9</ele>
        <time>2024-04-06T14:17:40.262Z</time>
      </trkpt>
      <trkpt lat="43.91364" lon="3.98206">
        <ele>93</ele>
        <time>2024-04-06T14:17:41.549Z</time>
      </trkpt>
      <trkpt lat="43.91361" lon="3.9821">
        <ele>93</ele>
        <time>2024-04-06T14:17:42.880Z</time>
      </trkpt>
      <trkpt lat="43.91358" lon="3.98213">
        <ele>93</ele>
        <time>2024-04-06T14:17:44.063Z</time>
      </trkpt>
      <trkpt lat="43.91355" lon="3.98215">
        <ele>92.9</ele>
        <time>2024-04-06T14:17:45.036Z</time>
      </trkpt>
      <trkpt lat="43.91351" lon="3.98216">
        <ele>92.8</ele>
        <time>2024-04-06T14:17:46.243Z</time>
      </trkpt>
      <trkpt lat="43.91348" lon="3.98218">
        <ele>92.7</ele>
        <time>2024-04-06T14:17:47.215Z</time>
      </trkpt>
      <trkpt lat="43.91345" lon="3.9822">
        <ele>92.5</ele>
        <time>2024-04-06T14:17:48.147Z</time>
      </trkpt>
      <trkpt lat="43.91342" lon="3.98222">
        <ele>92.3</ele>
        <time>2024-04-06T14:17:49.079Z</time>
      </trkpt>
      <trkpt lat="43.91339" lon="3.98225">
        <ele>92</ele>
        <time>2024-04-06T14:17:50.114Z</time>
      </trkpt>
      <trkpt lat="43.91337" lon="3.98228">
        <ele>91.7</ele>
        <time>2024-04-06T14:17:50.938Z</time>
      </trkpt>
      <trkpt lat="43.91335" lon="3.98231">
        <ele>91.4</ele>
        <time>2024-04-06T14:17:51.763Z</time>
      </trkpt>
      <trkpt lat="43.91335" lon="3.98235">
        <ele>91.1</ele>
        <time>2024-04-06T14:17:52.569Z</time>
      </trkpt>
      <trkpt lat="43.91335" lon="3.98239">
        <ele>90.8</ele>
        <time>2024-04-06T14:17:53.376Z</time>
      </trkpt>
      <trkpt lat="43.91334" lon="3.98243">
        <ele>90.5</ele>
        <time>2024-04-06T14:17:54.230Z</time>
      </trkpt>
      <trkpt lat="43.91334" lon="3.98246">
        <ele>90.3</ele>
        <time>2024-04-06T14:17:54.835Z</time>
      </trkpt>
      <trkpt lat="43.91333" lon="3.98249">
        <ele>90.1</ele>
        <time>2024-04-06T14:17:55.502Z</time>
      </trkpt>
      <trkpt lat="43.9133" lon="3.98248">
        <ele>90.4</ele>
        <time>2024-04-06T14:17:56.859Z</time>
      </trkpt>
      <trkpt lat="43.91328" lon="3.9825">
        <ele>90.4</ele>
        <time>2024-04-06T14:17:57.648Z</time>
      </trkpt>
      <trkpt lat="43.91327" lon="3.98253">
        <ele>90.6</ele>
        <time>2024-04-06T14:17:58.649Z</time>
      </trkpt>
      <trkpt lat="43.91326" lon="3.98255">
        <ele>90.8</ele>
        <time>2024-04-06T14:17:59.467Z</time>
      </trkpt>
      <trkpt lat="43.91327" lon="3.98258">
        <ele>91</ele>
        <time>2024-04-06T14:18:00.468Z</time>
      </trkpt>
      <trkpt lat="43.9133" lon="3.9826">
        <ele>90.9</ele>
        <time>2024-04-06T14:18:01.440Z</time>
      </trkpt>
      <trkpt lat="43.91333" lon="3.98261">
        <ele>90.8</ele>
        <time>2024-04-06T14:18:02.335Z</time>
      </trkpt>
      <trkpt lat="43.91334" lon="3.98263">
        <ele>90.9</ele>
        <time>2024-04-06T14:18:03.008Z</time>
      </trkpt>
      <trkpt lat="43.91337" lon="3.98265">
        <ele>90.8</ele>
        <time>2024-04-06T14:18:03.981Z</time>
      </trkpt>
      <trkpt lat="43.9134" lon="3.98265">
        <ele>90.6</ele>
        <time>2024-04-06T14:18:04.821Z</time>
      </trkpt>
      <trkpt lat="43.91343" lon="3.98265">
        <ele>90.4</ele>
        <time>2024-04-06T14:18:05.661Z</time>
      </trkpt>
      <trkpt lat="43.91345" lon="3.98266">
        <ele>90.2</ele>
        <time>2024-04-06T14:18:06.256Z</time>
      </trkpt>
      <trkpt lat="43.91348" lon="3.98267">
        <ele>90</ele>
        <time>2024-04-06T14:18:07.120Z</time>
      </trkpt>
      <trkpt lat="43.91351" lon="3.98268">
        <ele>89.8</ele>
        <time>2024-04-06T14:18:07.984Z</time>
      </trkpt>
      <trkpt lat="43.91353" lon="3.9827">
        <ele>89.7</ele>
        <time>2024-04-06T14:18:08.682Z</time>
      </trkpt>
      <trkpt lat="43.91354" lon="3.98272">
        <ele>89.7</ele>
        <time>2024-04-06T14:18:09.243Z</time>
      </trkpt>
      <trkpt lat="43.91354" lon="3.98275">
        <ele>89.7</ele>
        <time>2024-04-06T14:18:09.935Z</time>
      </trkpt>
      <trkpt lat="43.91353" lon="3.98276">
        <ele>89.8</ele>
        <time>2024-04-06T14:18:10.447Z</time>
      </trkpt>
      <trkpt lat="43.91351" lon="3.98277">
        <ele>90.1</ele>
        <time>2024-04-06T14:18:11.541Z</time>
      </trkpt>
      <trkpt lat="43.91349" lon="3.9828">
        <ele>90.4</ele>
        <time>2024-04-06T14:18:12.858Z</time>
      </trkpt>
      <trkpt lat="43.9135" lon="3.98283">
        <ele>90.5</ele>
        <time>2024-04-06T14:18:13.728Z</time>
      </trkpt>
      <trkpt lat="43.91353" lon="3.98285">
        <ele>90.3</ele>
        <time>2024-04-06T14:18:14.659Z</time>
      </trkpt>
      <trkpt lat="43.91355" lon="3.98287">
        <ele>90.3</ele>
        <time>2024-04-06T14:18:15.448Z</time>
      </trkpt>
      <trkpt lat="43.91358" lon="3.98289">
        <ele>90.1</ele>
        <time>2024-04-06T14:18:16.380Z</time>
      </trkpt>
      <trkpt lat="43.91361" lon="3.98292">
        <ele>90</ele>
        <time>2024-04-06T14:18:17.470Z</time>
      </trkpt>
      <trkpt lat="43.91363" lon="3.98295">
        <ele>89.8</ele>
        <time>2024-04-06T14:18:18.294Z</time>
      </trkpt>
      <trkpt lat="43.91364" lon="3.98299">
        <ele>89.9</ele>
        <time>2024-04-06T14:18:19.376Z</time>
      </trkpt>
      <trkpt lat="43.91365" lon="3.98304">
        <ele>90</ele>
        <time>2024-04-06T14:18:20.677Z</time>
      </trkpt>
      <trkpt lat="43.91365" lon="3.98308">
        <ele>90.3</ele>
        <time>2024-04-06T14:18:21.975Z</time>
      </trkpt>
      <trkpt lat="43.91366" lon="3.98312">
        <ele>90.3</ele>
        <time>2024-04-06T14:18:22.951Z</time>
      </trkpt>
      <trkpt lat="43.91367" lon="3.98314">
        <ele>90.2</ele>
        <time>2024-04-06T14:18:23.442Z</time>
      </trkpt>
      <trkpt lat="43.9137" lon="3.98315">
        <ele>89.6</ele>
        <time>2024-04-06T14:18:24.306Z</time>
      </trkpt>
      <trkpt lat="43.91372" lon="3.98314">
        <ele>89.2</ele>
        <time>2024-04-06T14:18:24.901Z</time>
      </trkpt>
      <trkpt lat="43.91374" lon="3.98312">
        <ele>88.7</ele>
        <time>2024-04-06T14:18:25.591Z</time>
      </trkpt>
      <trkpt lat="43.91376" lon="3.98311">
        <ele>88.2</ele>
        <time>2024-04-06T14:18:26.186Z</time>
      </trkpt>
      <trkpt lat="43.91379" lon="3.98311">
        <ele>87.6</ele>
        <time>2024-04-06T14:18:27.026Z</time>
      </trkpt>
      <trkpt lat="43.91382" lon="3.98312">
        <ele>87.1</ele>
        <time>2024-04-06T14:18:27.890Z</time>
      </trkpt>
      <trkpt lat="43.91384" lon="3.98313">
        <ele>86.8</ele>
        <time>2024-04-06T14:18:28.485Z</time>
      </trkpt>
      <trkpt lat="43.91386" lon="3.98315">
        <ele>86.6</ele>
        <time>2024-04-06T14:18:29.175Z</time>
      </trkpt>
      <trkpt lat="43.91387" lon="3.98318">
        <ele>86.7</ele>
        <time>2024-04-06T14:18:30.046Z</time>
      </trkpt>
      <trkpt lat="43.91388" lon="3.98323">
        <ele>87</ele>
        <time>2024-04-06T14:18:31.597Z</time>
      </trkpt>
      <trkpt lat="43.91389" lon="3.98323">
        <ele>86.8</ele>
        <time>2024-04-06T14:18:31.877Z</time>
      </trkpt>
      <trkpt lat="43.9139" lon="3.98323">
        <ele>86.4</ele>
        <time>2024-04-06T14:18:32.157Z</time>
      </trkpt>
      <trkpt lat="43.91392" lon="3.98329">
        <ele>86.1</ele>
        <time>2024-04-06T14:18:33.490Z</time>
      </trkpt>
      <trkpt lat="43.91391" lon="3.98323">
        <ele>86</ele>
        <time>2024-04-06T14:18:34.816Z</time>
      </trkpt>
      <trkpt lat="43.91394" lon="3.9833">
        <ele>85.3</ele>
        <time>2024-04-06T14:18:36.458Z</time>
      </trkpt>
      <trkpt lat="43.91397" lon="3.98332">
        <ele>84.1</ele>
        <time>2024-04-06T14:18:37.390Z</time>
      </trkpt>
      <trkpt lat="43.914" lon="3.98334">
        <ele>82.8</ele>
        <time>2024-04-06T14:18:38.322Z</time>
      </trkpt>
      <trkpt lat="43.91402" lon="3.98337">
        <ele>81.9</ele>
        <time>2024-04-06T14:18:39.146Z</time>
      </trkpt>
      <trkpt lat="43.91403" lon="3.98342">
        <ele>81.5</ele>
        <time>2024-04-06T14:18:40.193Z</time>
      </trkpt>
      <trkpt lat="43.91403" lon="3.98345">
        <ele>81.6</ele>
        <time>2024-04-06T14:18:40.994Z</time>
      </trkpt>
      <trkpt lat="43.91403" lon="3.98349">
        <ele>81.7</ele>
        <time>2024-04-06T14:18:42.022Z</time>
      </trkpt>
      <trkpt lat="43.91404" lon="3.98351">
        <ele>81.2</ele>
        <time>2024-04-06T14:18:42.513Z</time>
      </trkpt>
      <trkpt lat="43.91405" lon="3.98354">
        <ele>80.8</ele>
        <time>2024-04-06T14:18:43.180Z</time>
      </trkpt>
      <trkpt lat="43.91405" lon="3.98357">
        <ele>80.8</ele>
        <time>2024-04-06T14:18:43.871Z</time>
      </trkpt>
      <trkpt lat="43.91407" lon="3.98361">
        <ele>79.9</ele>
        <time>2024-04-06T14:18:44.853Z</time>
      </trkpt>
      <trkpt lat="43.9141" lon="3.98363">
        <ele>78.4</ele>
        <time>2024-04-06T14:18:45.785Z</time>
      </trkpt>
      <trkpt lat="43.91411" lon="3.98365">
        <ele>78</ele>
        <time>2024-04-06T14:18:46.276Z</time>
      </trkpt>
      <trkpt lat="43.91413" lon="3.98368">
        <ele>77.1</ele>
        <time>2024-04-06T14:18:47.101Z</time>
      </trkpt>
      <trkpt lat="43.91414" lon="3.98371">
        <ele>76.7</ele>
        <time>2024-04-06T14:18:47.767Z</time>
      </trkpt>
      <trkpt lat="43.91415" lon="3.98375">
        <ele>76.3</ele>
        <time>2024-04-06T14:18:48.621Z</time>
      </trkpt>
      <trkpt lat="43.91416" lon="3.98379">
        <ele>76</ele>
        <time>2024-04-06T14:18:49.475Z</time>
      </trkpt>
      <trkpt lat="43.91418" lon="3.98383">
        <ele>75.8</ele>
        <time>2024-04-06T14:18:50.457Z</time>
      </trkpt>
      <trkpt lat="43.91419" lon="3.98386">
        <ele>76</ele>
        <time>2024-04-06T14:18:51.458Z</time>
      </trkpt>
      <trkpt lat="43.91419" lon="3.9839">
        <ele>76.2</ele>
        <time>2024-04-06T14:18:52.610Z</time>
      </trkpt>
      <trkpt lat="43.91421" lon="3.98395">
        <ele>76.8</ele>
        <time>2024-04-06T14:18:54.766Z</time>
      </trkpt>
      <trkpt lat="43.91421" lon="3.98397">
        <ele>77.1</ele>
        <time>2024-04-06T14:18:55.723Z</time>
      </trkpt>
      <trkpt lat="43.91422" lon="3.98401">
        <ele>77.4</ele>
        <time>2024-04-06T14:18:57.070Z</time>
      </trkpt>
      <trkpt lat="43.91424" lon="3.98404">
        <ele>77.6</ele>
        <time>2024-04-06T14:18:58.242Z</time>
      </trkpt>
      <trkpt lat="43.91425" lon="3.98408">
        <ele>77.8</ele>
        <time>2024-04-06T14:18:59.446Z</time>
      </trkpt>
      <trkpt lat="43.91426" lon="3.98412">
        <ele>78</ele>
        <time>2024-04-06T14:19:00.651Z</time>
      </trkpt>
      <trkpt lat="43.91427" lon="3.98415">
        <ele>78</ele>
        <time>2024-04-06T14:19:01.413Z</time>
      </trkpt>
      <trkpt lat="43.91428" lon="3.98419">
        <ele>78.1</ele>
        <time>2024-04-06T14:19:02.494Z</time>
      </trkpt>
      <trkpt lat="43.91429" lon="3.98423">
        <ele>78</ele>
        <time>2024-04-06T14:19:03.378Z</time>
      </trkpt>
      <trkpt lat="43.91431" lon="3.98426">
        <ele>77.7</ele>
        <time>2024-04-06T14:19:04.203Z</time>
      </trkpt>
      <trkpt lat="43.91432" lon="3.9843">
        <ele>77.7</ele>
        <time>2024-04-06T14:19:05.179Z</time>
      </trkpt>
      <trkpt lat="43.91433" lon="3.98435">
        <ele>77.6</ele>
        <time>2024-04-06T14:19:06.282Z</time>
      </trkpt>
      <trkpt lat="43.91434" lon="3.98439">
        <ele>77.5</ele>
        <time>2024-04-06T14:19:07.166Z</time>
      </trkpt>
      <trkpt lat="43.91433" lon="3.98443">
        <ele>77.8</ele>
        <time>2024-04-06T14:19:08.513Z</time>
      </trkpt>
      <trkpt lat="43.91433" lon="3.98446">
        <ele>77.8</ele>
        <time>2024-04-06T14:19:09.204Z</time>
      </trkpt>
      <trkpt lat="43.91433" lon="3.98449">
        <ele>77.7</ele>
        <time>2024-04-06T14:19:09.809Z</time>
      </trkpt>
      <trkpt lat="43.91433" lon="3.98453">
        <ele>77.6</ele>
        <time>2024-04-06T14:19:10.640Z</time>
      </trkpt>
      <trkpt lat="43.91434" lon="3.98456">
        <ele>77.3</ele>
        <time>2024-04-06T14:19:11.307Z</time>
      </trkpt>
      <trkpt lat="43.91434" lon="3.98459">
        <ele>77.2</ele>
        <time>2024-04-06T14:19:11.912Z</time>
      </trkpt>
      <trkpt lat="43.91435" lon="3.98464">
        <ele>76.9</ele>
        <time>2024-04-06T14:19:12.958Z</time>
      </trkpt>
      <trkpt lat="43.91434" lon="3.98466">
        <ele>77</ele>
        <time>2024-04-06T14:19:13.631Z</time>
      </trkpt>
      <trkpt lat="43.91433" lon="3.98469">
        <ele>77.2</ele>
        <time>2024-04-06T14:19:14.632Z</time>
      </trkpt>
      <trkpt lat="43.91435" lon="3.98473">
        <ele>76.7</ele>
        <time>2024-04-06T14:19:15.614Z</time>
      </trkpt>
      <trkpt lat="43.91437" lon="3.98475">
        <ele>76.4</ele>
        <time>2024-04-06T14:19:16.304Z</time>
      </trkpt>
      <trkpt lat="43.91438" lon="3.98478">
        <ele>76.3</ele>
        <time>2024-04-06T14:19:16.976Z</time>
      </trkpt>
      <trkpt lat="43.91439" lon="3.98481">
        <ele>76.2</ele>
        <time>2024-04-06T14:19:17.648Z</time>
      </trkpt>
      <trkpt lat="43.9144" lon="3.98484">
        <ele>76.1</ele>
        <time>2024-04-06T14:19:18.319Z</time>
      </trkpt>
      <trkpt lat="43.91442" lon="3.98488">
        <ele>75.9</ele>
        <time>2024-04-06T14:19:19.301Z</time>
      </trkpt>
      <trkpt lat="43.91443" lon="3.98492">
        <ele>75.9</ele>
        <time>2024-04-06T14:19:20.277Z</time>
      </trkpt>
      <trkpt lat="43.91444" lon="3.98495">
        <ele>75.9</ele>
        <time>2024-04-06T14:19:21.039Z</time>
      </trkpt>
      <trkpt lat="43.91445" lon="3.98499">
        <ele>75.9</ele>
        <time>2024-04-06T14:19:22.015Z</time>
      </trkpt>
      <trkpt lat="43.91446" lon="3.98501">
        <ele>75.9</ele>
        <time>2024-04-06T14:19:22.576Z</time>
      </trkpt>
      <trkpt lat="43.91448" lon="3.985">
        <ele>75.9</ele>
        <time>2024-04-06T14:19:23.257Z</time>
      </trkpt>
      <trkpt lat="43.91449" lon="3.985">
        <ele>75.8</ele>
        <time>2024-04-06T14:19:23.537Z</time>
      </trkpt>
      <trkpt lat="43.91449" lon="3.98508">
        <ele>75.8</ele>
        <time>2024-04-06T14:19:25.381Z</time>
      </trkpt>
      <trkpt lat="43.9145" lon="3.98511">
        <ele>75.8</ele>
        <time>2024-04-06T14:19:26.143Z</time>
      </trkpt>
      <trkpt lat="43.91451" lon="3.98514">
        <ele>75.8</ele>
        <time>2024-04-06T14:19:26.905Z</time>
      </trkpt>
      <trkpt lat="43.91452" lon="3.98517">
        <ele>75.7</ele>
        <time>2024-04-06T14:19:27.576Z</time>
      </trkpt>
      <trkpt lat="43.91454" lon="3.98515">
        <ele>75.7</ele>
        <time>2024-04-06T14:19:28.365Z</time>
      </trkpt>
      <trkpt lat="43.91455" lon="3.98518">
        <ele>75.6</ele>
        <time>2024-04-06T14:19:29.037Z</time>
      </trkpt>
      <trkpt lat="43.91453" lon="3.98519">
        <ele>75.7</ele>
        <time>2024-04-06T14:19:29.826Z</time>
      </trkpt>
      <trkpt lat="43.91453" lon="3.9852">
        <ele>75.7</ele>
        <time>2024-04-06T14:19:30.057Z</time>
      </trkpt>
      <trkpt lat="43.9145" lon="3.98525">
        <ele>75.8</ele>
        <time>2024-04-06T14:19:31.660Z</time>
      </trkpt>
      <trkpt lat="43.91451" lon="3.9853">
        <ele>75.8</ele>
        <time>2024-04-06T14:19:32.856Z</time>
      </trkpt>
      <trkpt lat="43.91451" lon="3.98532">
        <ele>75.9</ele>
        <time>2024-04-06T14:19:33.432Z</time>
      </trkpt>
      <trkpt lat="43.91452" lon="3.98537">
        <ele>76</ele>
        <time>2024-04-06T14:19:34.733Z</time>
      </trkpt>
      <trkpt lat="43.91453" lon="3.98539">
        <ele>76</ele>
        <time>2024-04-06T14:19:35.294Z</time>
      </trkpt>
      <trkpt lat="43.91454" lon="3.98542">
        <ele>76</ele>
        <time>2024-04-06T14:19:36.056Z</time>
      </trkpt>
      <trkpt lat="43.91455" lon="3.98544">
        <ele>76</ele>
        <time>2024-04-06T14:19:36.617Z</time>
      </trkpt>
      <trkpt lat="43.91455" lon="3.98547">
        <ele>76</ele>
        <time>2024-04-06T14:19:37.309Z</time>
      </trkpt>
      <trkpt lat="43.91454" lon="3.9855">
        <ele>76.2</ele>
        <time>2024-04-06T14:19:38.309Z</time>
      </trkpt>
      <trkpt lat="43.91454" lon="3.98552">
        <ele>76.2</ele>
        <time>2024-04-06T14:19:38.770Z</time>
      </trkpt>
      <trkpt lat="43.91454" lon="3.98555">
        <ele>76.3</ele>
        <time>2024-04-06T14:19:39.571Z</time>
      </trkpt>
      <trkpt lat="43.91454" lon="3.98558">
        <ele>76.3</ele>
        <time>2024-04-06T14:19:40.263Z</time>
      </trkpt>
      <trkpt lat="43.91454" lon="3.98561">
        <ele>76.2</ele>
        <time>2024-04-06T14:19:40.868Z</time>
      </trkpt>
      <trkpt lat="43.91453" lon="3.98564">
        <ele>76.3</ele>
        <time>2024-04-06T14:19:41.738Z</time>
      </trkpt>
      <trkpt lat="43.91453" lon="3.98567">
        <ele>76.3</ele>
        <time>2024-04-06T14:19:42.429Z</time>
      </trkpt>
      <trkpt lat="43.91453" lon="3.98571">
        <ele>76.2</ele>
        <time>2024-04-06T14:19:43.260Z</time>
      </trkpt>
      <trkpt lat="43.91454" lon="3.98576">
        <ele>76.1</ele>
        <time>2024-04-06T14:19:44.363Z</time>
      </trkpt>
      <trkpt lat="43.91455" lon="3.98579">
        <ele>75.9</ele>
        <time>2024-04-06T14:19:45.029Z</time>
      </trkpt>
      <trkpt lat="43.91457" lon="3.98581">
        <ele>75.7</ele>
        <time>2024-04-06T14:19:45.720Z</time>
      </trkpt>
      <trkpt lat="43.9146" lon="3.98581">
        <ele>75.4</ele>
        <time>2024-04-06T14:19:46.560Z</time>
      </trkpt>
      <trkpt lat="43.91464" lon="3.98581">
        <ele>74.9</ele>
        <time>2024-04-06T14:19:47.679Z</time>
      </trkpt>
      <trkpt lat="43.91468" lon="3.98582">
        <ele>74.5</ele>
        <time>2024-04-06T14:19:48.817Z</time>
      </trkpt>
      <trkpt lat="43.91471" lon="3.98584">
        <ele>74.1</ele>
        <time>2024-04-06T14:19:49.749Z</time>
      </trkpt>
      <trkpt lat="43.91474" lon="3.98587">
        <ele>74</ele>
        <time>2024-04-06T14:19:50.839Z</time>
      </trkpt>
      <trkpt lat="43.91477" lon="3.98589">
        <ele>74.1</ele>
        <time>2024-04-06T14:19:52.009Z</time>
      </trkpt>
      <trkpt lat="43.91478" lon="3.9859">
        <ele>74.1</ele>
        <time>2024-04-06T14:19:52.404Z</time>
      </trkpt>
      <trkpt lat="43.9148" lon="3.98591">
        <ele>74.2</ele>
        <time>2024-04-06T14:19:53.193Z</time>
      </trkpt>
      <trkpt lat="43.91483" lon="3.98591">
        <ele>74.2</ele>
        <time>2024-04-06T14:19:54.153Z</time>
      </trkpt>
      <trkpt lat="43.91484" lon="3.98592">
        <ele>74.3</ele>
        <time>2024-04-06T14:19:54.666Z</time>
      </trkpt>
      <trkpt lat="43.91488" lon="3.98592">
        <ele>74.4</ele>
        <time>2024-04-06T14:19:56.050Z</time>
      </trkpt>
      <trkpt lat="43.91491" lon="3.98592">
        <ele>74.4</ele>
        <time>2024-04-06T14:19:57.010Z</time>
      </trkpt>
      <trkpt lat="43.91494" lon="3.98593">
        <ele>74.5</ele>
        <time>2024-04-06T14:19:58.103Z</time>
      </trkpt>
      <trkpt lat="43.91495" lon="3.98597">
        <ele>74.8</ele>
        <time>2024-04-06T14:19:59.450Z</time>
      </trkpt>
      <trkpt lat="43.91495" lon="3.986">
        <ele>75</ele>
        <time>2024-04-06T14:20:00.385Z</time>
      </trkpt>
      <trkpt lat="43.91495" lon="3.98603">
        <ele>75.2</ele>
        <time>2024-04-06T14:20:01.320Z</time>
      </trkpt>
      <trkpt lat="43.91496" lon="3.98606">
        <ele>75.4</ele>
        <time>2024-04-06T14:20:02.321Z</time>
      </trkpt>
      <trkpt lat="43.91496" lon="3.98609">
        <ele>75.6</ele>
        <time>2024-04-06T14:20:03.256Z</time>
      </trkpt>
      <trkpt lat="43.91498" lon="3.98612">
        <ele>75.9</ele>
        <time>2024-04-06T14:20:04.573Z</time>
      </trkpt>
      <trkpt lat="43.91499" lon="3.98614">
        <ele>75.9</ele>
        <time>2024-04-06T14:20:05.134Z</time>
      </trkpt>
      <trkpt lat="43.915" lon="3.98617">
        <ele>76</ele>
        <time>2024-04-06T14:20:06.004Z</time>
      </trkpt>
      <trkpt lat="43.91501" lon="3.9862">
        <ele>76</ele>
        <time>2024-04-06T14:20:06.766Z</time>
      </trkpt>
      <trkpt lat="43.91502" lon="3.98622">
        <ele>75.9</ele>
        <time>2024-04-06T14:20:07.257Z</time>
      </trkpt>
      <trkpt lat="43.91503" lon="3.98625">
        <ele>75.9</ele>
        <time>2024-04-06T14:20:08.019Z</time>
      </trkpt>
      <trkpt lat="43.91505" lon="3.98627">
        <ele>75.8</ele>
        <time>2024-04-06T14:20:08.717Z</time>
      </trkpt>
      <trkpt lat="43.91506" lon="3.98631">
        <ele>75.9</ele>
        <time>2024-04-06T14:20:09.799Z</time>
      </trkpt>
      <trkpt lat="43.91507" lon="3.98634">
        <ele>75.9</ele>
        <time>2024-04-06T14:20:10.561Z</time>
      </trkpt>
      <trkpt lat="43.91508" lon="3.98637">
        <ele>76</ele>
        <time>2024-04-06T14:20:11.431Z</time>
      </trkpt>
      <trkpt lat="43.91509" lon="3.98641">
        <ele>76.1</ele>
        <time>2024-04-06T14:20:12.513Z</time>
      </trkpt>
      <trkpt lat="43.9151" lon="3.98644">
        <ele>76.2</ele>
        <time>2024-04-06T14:20:13.383Z</time>
      </trkpt>
      <trkpt lat="43.9151" lon="3.98648">
        <ele>76.3</ele>
        <time>2024-04-06T14:20:14.411Z</time>
      </trkpt>
      <trkpt lat="43.91511" lon="3.98651">
        <ele>76.4</ele>
        <time>2024-04-06T14:20:15.281Z</time>
      </trkpt>
      <trkpt lat="43.91511" lon="3.98655">
        <ele>76.6</ele>
        <time>2024-04-06T14:20:16.434Z</time>
      </trkpt>
      <trkpt lat="43.91512" lon="3.98658">
        <ele>76.7</ele>
        <time>2024-04-06T14:20:17.304Z</time>
      </trkpt>
      <trkpt lat="43.91512" lon="3.98662">
        <ele>76.8</ele>
        <time>2024-04-06T14:20:18.332Z</time>
      </trkpt>
      <trkpt lat="43.91513" lon="3.98666">
        <ele>77</ele>
        <time>2024-04-06T14:20:19.537Z</time>
      </trkpt>
      <trkpt lat="43.91513" lon="3.9867">
        <ele>77.1</ele>
        <time>2024-04-06T14:20:20.565Z</time>
      </trkpt>
      <trkpt lat="43.91514" lon="3.98674">
        <ele>77.1</ele>
        <time>2024-04-06T14:20:21.541Z</time>
      </trkpt>
      <trkpt lat="43.91515" lon="3.98677">
        <ele>77.2</ele>
        <time>2024-04-06T14:20:22.411Z</time>
      </trkpt>
      <trkpt lat="43.91516" lon="3.9868">
        <ele>77.2</ele>
        <time>2024-04-06T14:20:23.173Z</time>
      </trkpt>
      <trkpt lat="43.91518" lon="3.98683">
        <ele>77.2</ele>
        <time>2024-04-06T14:20:24.115Z</time>
      </trkpt>
      <trkpt lat="43.91519" lon="3.98687">
        <ele>77.2</ele>
        <time>2024-04-06T14:20:25.091Z</time>
      </trkpt>
      <trkpt lat="43.91521" lon="3.9869">
        <ele>77.2</ele>
        <time>2024-04-06T14:20:26.033Z</time>
      </trkpt>
      <trkpt lat="43.91522" lon="3.98694">
        <ele>77.2</ele>
        <time>2024-04-06T14:20:27.009Z</time>
      </trkpt>
      <trkpt lat="43.91523" lon="3.98697">
        <ele>77.2</ele>
        <time>2024-04-06T14:20:27.771Z</time>
      </trkpt>
      <trkpt lat="43.91524" lon="3.98701">
        <ele>77.3</ele>
        <time>2024-04-06T14:20:28.853Z</time>
      </trkpt>
      <trkpt lat="43.91525" lon="3.98704">
        <ele>77.4</ele>
        <time>2024-04-06T14:20:29.723Z</time>
      </trkpt>
      <trkpt lat="43.91526" lon="3.98708">
        <ele>77.5</ele>
        <time>2024-04-06T14:20:30.805Z</time>
      </trkpt>
      <trkpt lat="43.91526" lon="3.98711">
        <ele>77.6</ele>
        <time>2024-04-06T14:20:31.606Z</time>
      </trkpt>
      <trkpt lat="43.91527" lon="3.98715">
        <ele>77.7</ele>
        <time>2024-04-06T14:20:32.688Z</time>
      </trkpt>
      <trkpt lat="43.91528" lon="3.98718">
        <ele>77.8</ele>
        <time>2024-04-06T14:20:33.558Z</time>
      </trkpt>
      <trkpt lat="43.91529" lon="3.98721">
        <ele>77.9</ele>
        <time>2024-04-06T14:20:34.428Z</time>
      </trkpt>
      <trkpt lat="43.91531" lon="3.98724">
        <ele>77.9</ele>
        <time>2024-04-06T14:20:35.370Z</time>
      </trkpt>
      <trkpt lat="43.91532" lon="3.98726">
        <ele>77.9</ele>
        <time>2024-04-06T14:20:35.931Z</time>
      </trkpt>
      <trkpt lat="43.91533" lon="3.98729">
        <ele>77.9</ele>
        <time>2024-04-06T14:20:36.693Z</time>
      </trkpt>
      <trkpt lat="43.91534" lon="3.98731">
        <ele>77.8</ele>
        <time>2024-04-06T14:20:37.184Z</time>
      </trkpt>
      <trkpt lat="43.91536" lon="3.98734">
        <ele>77.8</ele>
        <time>2024-04-06T14:20:38.126Z</time>
      </trkpt>
      <trkpt lat="43.91537" lon="3.98736">
        <ele>77.8</ele>
        <time>2024-04-06T14:20:38.687Z</time>
      </trkpt>
      <trkpt lat="43.91539" lon="3.98739">
        <ele>77.8</ele>
        <time>2024-04-06T14:20:39.629Z</time>
      </trkpt>
      <trkpt lat="43.91541" lon="3.98742">
        <ele>77.9</ele>
        <time>2024-04-06T14:20:40.678Z</time>
      </trkpt>
      <trkpt lat="43.91543" lon="3.98744">
        <ele>77.9</ele>
        <time>2024-04-06T14:20:41.467Z</time>
      </trkpt>
      <trkpt lat="43.91545" lon="3.98747">
        <ele>77.9</ele>
        <time>2024-04-06T14:20:42.409Z</time>
      </trkpt>
      <trkpt lat="43.91547" lon="3.9875">
        <ele>78</ele>
        <time>2024-04-06T14:20:43.457Z</time>
      </trkpt>
      <trkpt lat="43.9155" lon="3.98753">
        <ele>78</ele>
        <time>2024-04-06T14:20:44.640Z</time>
      </trkpt>
      <trkpt lat="43.91553" lon="3.98757">
        <ele>78</ele>
        <time>2024-04-06T14:20:45.971Z</time>
      </trkpt>
      <trkpt lat="43.91555" lon="3.98761">
        <ele>78</ele>
        <time>2024-04-06T14:20:47.093Z</time>
      </trkpt>
      <trkpt lat="43.91557" lon="3.98764">
        <ele>77.9</ele>
        <time>2024-04-06T14:20:47.944Z</time>
      </trkpt>
      <trkpt lat="43.91559" lon="3.98767">
        <ele>77.8</ele>
        <time>2024-04-06T14:20:48.794Z</time>
      </trkpt>
      <trkpt lat="43.91561" lon="3.9877">
        <ele>77.7</ele>
        <time>2024-04-06T14:20:49.645Z</time>
      </trkpt>
      <trkpt lat="43.91563" lon="3.98774">
        <ele>77.7</ele>
        <time>2024-04-06T14:20:50.767Z</time>
      </trkpt>
      <trkpt lat="43.91565" lon="3.98777">
        <ele>77.6</ele>
        <time>2024-04-06T14:20:51.618Z</time>
      </trkpt>
      <trkpt lat="43.91568" lon="3.98781">
        <ele>77.6</ele>
        <time>2024-04-06T14:20:52.949Z</time>
      </trkpt>
      <trkpt lat="43.9157" lon="3.98785">
        <ele>77.5</ele>
        <time>2024-04-06T14:20:53.978Z</time>
      </trkpt>
      <trkpt lat="43.91572" lon="3.98788">
        <ele>77.4</ele>
        <time>2024-04-06T14:20:54.829Z</time>
      </trkpt>
      <trkpt lat="43.91575" lon="3.98792">
        <ele>77.3</ele>
        <time>2024-04-06T14:20:56.066Z</time>
      </trkpt>
      <trkpt lat="43.91578" lon="3.98796">
        <ele>77.2</ele>
        <time>2024-04-06T14:20:57.303Z</time>
      </trkpt>
      <trkpt lat="43.9158" lon="3.98801">
        <ele>77.1</ele>
        <time>2024-04-06T14:20:58.528Z</time>
      </trkpt>
      <trkpt lat="43.91583" lon="3.98805">
        <ele>77</ele>
        <time>2024-04-06T14:20:59.766Z</time>
      </trkpt>
      <trkpt lat="43.91585" lon="3.98809">
        <ele>77</ele>
        <time>2024-04-06T14:21:00.888Z</time>
      </trkpt>
      <trkpt lat="43.91588" lon="3.98813">
        <ele>76.9</ele>
        <time>2024-04-06T14:21:02.125Z</time>
      </trkpt>
      <trkpt lat="43.9159" lon="3.98818">
        <ele>76.9</ele>
        <time>2024-04-06T14:21:03.443Z</time>
      </trkpt>
      <trkpt lat="43.91593" lon="3.98823">
        <ele>77</ele>
        <time>2024-04-06T14:21:05.047Z</time>
      </trkpt>
      <trkpt lat="43.91596" lon="3.98827">
        <ele>77.1</ele>
        <time>2024-04-06T14:21:06.481Z</time>
      </trkpt>
      <trkpt lat="43.916" lon="3.98831">
        <ele>77.2</ele>
        <time>2024-04-06T14:21:08.162Z</time>
      </trkpt>
      <trkpt lat="43.91602" lon="3.98836">
        <ele>77.3</ele>
        <time>2024-04-06T14:21:09.584Z</time>
      </trkpt>
      <trkpt lat="43.91604" lon="3.98842">
        <ele>77.3</ele>
        <time>2024-04-06T14:21:11.108Z</time>
      </trkpt>
      <trkpt lat="43.91606" lon="3.98848">
        <ele>77.2</ele>
        <time>2024-04-06T14:21:12.537Z</time>
      </trkpt>
      <trkpt lat="43.91607" lon="3.98854">
        <ele>77.1</ele>
        <time>2024-04-06T14:21:13.863Z</time>
      </trkpt>
      <trkpt lat="43.91609" lon="3.98859">
        <ele>77.1</ele>
        <time>2024-04-06T14:21:15.181Z</time>
      </trkpt>
      <trkpt lat="43.91611" lon="3.98865">
        <ele>77</ele>
        <time>2024-04-06T14:21:16.611Z</time>
      </trkpt>
      <trkpt lat="43.91612" lon="3.98871">
        <ele>76.9</ele>
        <time>2024-04-06T14:21:17.937Z</time>
      </trkpt>
      <trkpt lat="43.91614" lon="3.98877">
        <ele>76.6</ele>
        <time>2024-04-06T14:21:19.270Z</time>
      </trkpt>
      <trkpt lat="43.91616" lon="3.98883">
        <ele>76.4</ele>
        <time>2024-04-06T14:21:20.613Z</time>
      </trkpt>
      <trkpt lat="43.91617" lon="3.98889">
        <ele>76.4</ele>
        <time>2024-04-06T14:21:22.033Z</time>
      </trkpt>
      <trkpt lat="43.91619" lon="3.98896">
        <ele>76.3</ele>
        <time>2024-04-06T14:21:23.674Z</time>
      </trkpt>
      <trkpt lat="43.91621" lon="3.98902">
        <ele>76.3</ele>
        <time>2024-04-06T14:21:25.198Z</time>
      </trkpt>
      <trkpt lat="43.91623" lon="3.98907">
        <ele>76.3</ele>
        <time>2024-04-06T14:21:26.516Z</time>
      </trkpt>
      <trkpt lat="43.91626" lon="3.98916">
        <ele>76.4</ele>
        <time>2024-04-06T14:21:28.903Z</time>
      </trkpt>
      <trkpt lat="43.91628" lon="3.98924">
        <ele>76.4</ele>
        <time>2024-04-06T14:21:30.855Z</time>
      </trkpt>
      <trkpt lat="43.91628" lon="3.98931">
        <ele>76.4</ele>
        <time>2024-04-06T14:21:32.469Z</time>
      </trkpt>
      <trkpt lat="43.91628" lon="3.98937">
        <ele>76.4</ele>
        <time>2024-04-06T14:21:33.852Z</time>
      </trkpt>
      <trkpt lat="43.91628" lon="3.98944">
        <ele>76.4</ele>
        <time>2024-04-06T14:21:35.465Z</time>
      </trkpt>
      <trkpt lat="43.91628" lon="3.9895">
        <ele>76.3</ele>
        <time>2024-04-06T14:21:36.754Z</time>
      </trkpt>
      <trkpt lat="43.91628" lon="3.98955">
        <ele>76.2</ele>
        <time>2024-04-06T14:21:37.814Z</time>
      </trkpt>
      <trkpt lat="43.91627" lon="3.98961">
        <ele>76.2</ele>
        <time>2024-04-06T14:21:39.233Z</time>
      </trkpt>
      <trkpt lat="43.91624" lon="3.98968">
        <ele>76.1</ele>
        <time>2024-04-06T14:21:41.016Z</time>
      </trkpt>
      <trkpt lat="43.91622" lon="3.98974">
        <ele>76</ele>
        <time>2024-04-06T14:21:42.445Z</time>
      </trkpt>
      <trkpt lat="43.9162" lon="3.9898">
        <ele>75.9</ele>
        <time>2024-04-06T14:21:43.875Z</time>
      </trkpt>
      <trkpt lat="43.91618" lon="3.98987">
        <ele>75.9</ele>
        <time>2024-04-06T14:21:45.611Z</time>
      </trkpt>
      <trkpt lat="43.91615" lon="3.98993">
        <ele>75.9</ele>
        <time>2024-04-06T14:21:47.294Z</time>
      </trkpt>
      <trkpt lat="43.91613" lon="3.98999">
        <ele>75.9</ele>
        <time>2024-04-06T14:21:48.818Z</time>
      </trkpt>
      <trkpt lat="43.9161" lon="3.99005">
        <ele>75.9</ele>
        <time>2024-04-06T14:21:50.502Z</time>
      </trkpt>
      <trkpt lat="43.91607" lon="3.99011">
        <ele>75.8</ele>
        <time>2024-04-06T14:21:52.090Z</time>
      </trkpt>
      <trkpt lat="43.91604" lon="3.99017">
        <ele>75.8</ele>
        <time>2024-04-06T14:21:53.774Z</time>
      </trkpt>
      <trkpt lat="43.91601" lon="3.99023">
        <ele>75.8</ele>
        <time>2024-04-06T14:21:55.457Z</time>
      </trkpt>
      <trkpt lat="43.91597" lon="3.99028">
        <ele>76</ele>
        <time>2024-04-06T14:21:57.394Z</time>
      </trkpt>
      <trkpt lat="43.91594" lon="3.99034">
        <ele>76.2</ele>
        <time>2024-04-06T14:21:59.291Z</time>
      </trkpt>
      <trkpt lat="43.9159" lon="3.99039">
        <ele>76.3</ele>
        <time>2024-04-06T14:22:01.116Z</time>
      </trkpt>
      <trkpt lat="43.91587" lon="3.99044">
        <ele>76.3</ele>
        <time>2024-04-06T14:22:02.616Z</time>
      </trkpt>
      <trkpt lat="43.91584" lon="3.99049">
        <ele>76.2</ele>
        <time>2024-04-06T14:22:04.022Z</time>
      </trkpt>
      <trkpt lat="43.91581" lon="3.99054">
        <ele>76.1</ele>
        <time>2024-04-06T14:22:05.428Z</time>
      </trkpt>
      <trkpt lat="43.91577" lon="3.99059">
        <ele>76</ele>
        <time>2024-04-06T14:22:07.055Z</time>
      </trkpt>
      <trkpt lat="43.91574" lon="3.99064">
        <ele>76</ele>
        <time>2024-04-06T14:22:08.555Z</time>
      </trkpt>
      <trkpt lat="43.91571" lon="3.99069">
        <ele>76</ele>
        <time>2024-04-06T14:22:10.055Z</time>
      </trkpt>
      <trkpt lat="43.91567" lon="3.99073">
        <ele>76</ele>
        <time>2024-04-06T14:22:11.632Z</time>
      </trkpt>
      <trkpt lat="43.91564" lon="3.99077">
        <ele>76</ele>
        <time>2024-04-06T14:22:12.963Z</time>
      </trkpt>
      <trkpt lat="43.9156" lon="3.9908">
        <ele>76</ele>
        <time>2024-04-06T14:22:14.418Z</time>
      </trkpt>
      <trkpt lat="43.91555" lon="3.99081">
        <ele>76</ele>
        <time>2024-04-06T14:22:16.035Z</time>
      </trkpt>
      <trkpt lat="43.9155" lon="3.99082">
        <ele>76</ele>
        <time>2024-04-06T14:22:17.651Z</time>
      </trkpt>
      <trkpt lat="43.91546" lon="3.99082">
        <ele>76</ele>
        <time>2024-04-06T14:22:18.931Z</time>
      </trkpt>
      <trkpt lat="43.91541" lon="3.99082">
        <ele>76</ele>
        <time>2024-04-06T14:22:20.531Z</time>
      </trkpt>
      <trkpt lat="43.91537" lon="3.99084">
        <ele>76</ele>
        <time>2024-04-06T14:22:21.891Z</time>
      </trkpt>
      <trkpt lat="43.91532" lon="3.99086">
        <ele>76</ele>
        <time>2024-04-06T14:22:23.556Z</time>
      </trkpt>
      <trkpt lat="43.91528" lon="3.99089">
        <ele>76</ele>
        <time>2024-04-06T14:22:25.011Z</time>
      </trkpt>
      <trkpt lat="43.91525" lon="3.99093">
        <ele>76.1</ele>
        <time>2024-04-06T14:22:26.446Z</time>
      </trkpt>
      <trkpt lat="43.91521" lon="3.99097">
        <ele>76.2</ele>
        <time>2024-04-06T14:22:28.126Z</time>
      </trkpt>
      <trkpt lat="43.91518" lon="3.991">
        <ele>76.4</ele>
        <time>2024-04-06T14:22:29.531Z</time>
      </trkpt>
      <trkpt lat="43.91514" lon="3.99104">
        <ele>76.5</ele>
        <time>2024-04-06T14:22:31.212Z</time>
      </trkpt>
      <trkpt lat="43.9151" lon="3.99108">
        <ele>76.6</ele>
        <time>2024-04-06T14:22:32.892Z</time>
      </trkpt>
      <trkpt lat="43.91507" lon="3.99112">
        <ele>76.7</ele>
        <time>2024-04-06T14:22:34.327Z</time>
      </trkpt>
      <trkpt lat="43.91503" lon="3.99116">
        <ele>76.5</ele>
        <time>2024-04-06T14:22:35.724Z</time>
      </trkpt>
      <trkpt lat="43.91499" lon="3.9912">
        <ele>76.3</ele>
        <time>2024-04-06T14:22:37.120Z</time>
      </trkpt>
      <trkpt lat="43.91495" lon="3.99124">
        <ele>76.1</ele>
        <time>2024-04-06T14:22:38.517Z</time>
      </trkpt>
      <trkpt lat="43.91491" lon="3.99128">
        <ele>75.9</ele>
        <time>2024-04-06T14:22:39.913Z</time>
      </trkpt>
      <trkpt lat="43.91488" lon="3.99132">
        <ele>75.7</ele>
        <time>2024-04-06T14:22:41.078Z</time>
      </trkpt>
      <trkpt lat="43.91484" lon="3.99135">
        <ele>75.7</ele>
        <time>2024-04-06T14:22:42.532Z</time>
      </trkpt>
      <trkpt lat="43.9148" lon="3.99138">
        <ele>75.7</ele>
        <time>2024-04-06T14:22:43.987Z</time>
      </trkpt>
      <trkpt lat="43.91476" lon="3.99141">
        <ele>75.8</ele>
        <time>2024-04-06T14:22:45.545Z</time>
      </trkpt>
      <trkpt lat="43.91472" lon="3.99145">
        <ele>75.8</ele>
        <time>2024-04-06T14:22:47.123Z</time>
      </trkpt>
      <trkpt lat="43.91467" lon="3.99148">
        <ele>75.7</ele>
        <time>2024-04-06T14:22:48.771Z</time>
      </trkpt>
      <trkpt lat="43.91463" lon="3.99151">
        <ele>75.7</ele>
        <time>2024-04-06T14:22:50.226Z</time>
      </trkpt>
      <trkpt lat="43.91459" lon="3.99155">
        <ele>75.7</ele>
        <time>2024-04-06T14:22:51.803Z</time>
      </trkpt>
      <trkpt lat="43.91455" lon="3.99159">
        <ele>75.7</ele>
        <time>2024-04-06T14:22:53.380Z</time>
      </trkpt>
      <trkpt lat="43.91451" lon="3.99163">
        <ele>75.8</ele>
        <time>2024-04-06T14:22:55.061Z</time>
      </trkpt>
      <trkpt lat="43.91447" lon="3.99167">
        <ele>75.9</ele>
        <time>2024-04-06T14:22:56.741Z</time>
      </trkpt>
      <trkpt lat="43.91443" lon="3.99171">
        <ele>75.8</ele>
        <time>2024-04-06T14:22:58.224Z</time>
      </trkpt>
      <trkpt lat="43.91439" lon="3.99175">
        <ele>75.7</ele>
        <time>2024-04-06T14:22:59.707Z</time>
      </trkpt>
      <trkpt lat="43.91435" lon="3.99179">
        <ele>75.6</ele>
        <time>2024-04-06T14:23:01.190Z</time>
      </trkpt>
      <trkpt lat="43.91431" lon="3.99183">
        <ele>75.4</ele>
        <time>2024-04-06T14:23:02.587Z</time>
      </trkpt>
      <trkpt lat="43.91427" lon="3.99187">
        <ele>75.3</ele>
        <time>2024-04-06T14:23:04.070Z</time>
      </trkpt>
      <trkpt lat="43.91423" lon="3.9919">
        <ele>75.2</ele>
        <time>2024-04-06T14:23:05.431Z</time>
      </trkpt>
      <trkpt lat="43.9142" lon="3.99193">
        <ele>75.1</ele>
        <time>2024-04-06T14:23:06.521Z</time>
      </trkpt>
      <trkpt lat="43.91416" lon="3.99196">
        <ele>75</ele>
        <time>2024-04-06T14:23:07.882Z</time>
      </trkpt>
      <trkpt lat="43.91412" lon="3.99199">
        <ele>75.1</ele>
        <time>2024-04-06T14:23:09.440Z</time>
      </trkpt>
      <trkpt lat="43.91409" lon="3.99201">
        <ele>75.2</ele>
        <time>2024-04-06T14:23:10.610Z</time>
      </trkpt>
      <trkpt lat="43.91405" lon="3.99202">
        <ele>75.3</ele>
        <time>2024-04-06T14:23:12.014Z</time>
      </trkpt>
      <trkpt lat="43.91402" lon="3.99201">
        <ele>75.4</ele>
        <time>2024-04-06T14:23:13.107Z</time>
      </trkpt>
      <trkpt lat="43.91398" lon="3.99198">
        <ele>75.6</ele>
        <time>2024-04-06T14:23:14.779Z</time>
      </trkpt>
      <trkpt lat="43.91396" lon="3.99193">
        <ele>75.8</ele>
        <time>2024-04-06T14:23:16.317Z</time>
      </trkpt>
      <trkpt lat="43.91395" lon="3.99187">
        <ele>75.8</ele>
        <time>2024-04-06T14:23:17.737Z</time>
      </trkpt>
      <trkpt lat="43.91393" lon="3.99181">
        <ele>75.9</ele>
        <time>2024-04-06T14:23:19.364Z</time>
      </trkpt>
      <trkpt lat="43.91391" lon="3.99175">
        <ele>76</ele>
        <time>2024-04-06T14:23:20.991Z</time>
      </trkpt>
      <trkpt lat="43.91389" lon="3.9917">
        <ele>76</ele>
        <time>2024-04-06T14:23:22.309Z</time>
      </trkpt>
      <trkpt lat="43.91387" lon="3.99165">
        <ele>76.1</ele>
        <time>2024-04-06T14:23:23.731Z</time>
      </trkpt>
      <trkpt lat="43.91383" lon="3.99161">
        <ele>76.2</ele>
        <time>2024-04-06T14:23:25.412Z</time>
      </trkpt>
      <trkpt lat="43.9138" lon="3.99159">
        <ele>76.3</ele>
        <time>2024-04-06T14:23:26.582Z</time>
      </trkpt>
      <trkpt lat="43.91376" lon="3.99158">
        <ele>76.3</ele>
        <time>2024-04-06T14:23:27.882Z</time>
      </trkpt>
      <trkpt lat="43.91372" lon="3.99159">
        <ele>76.3</ele>
        <time>2024-04-06T14:23:29.183Z</time>
      </trkpt>
      <trkpt lat="43.91368" lon="3.99162">
        <ele>76.2</ele>
        <time>2024-04-06T14:23:30.543Z</time>
      </trkpt>
      <trkpt lat="43.91365" lon="3.99165">
        <ele>76.1</ele>
        <time>2024-04-06T14:23:31.633Z</time>
      </trkpt>
      <trkpt lat="43.91361" lon="3.99168">
        <ele>76</ele>
        <time>2024-04-06T14:23:32.994Z</time>
      </trkpt>
      <trkpt lat="43.91357" lon="3.99172">
        <ele>76.1</ele>
        <time>2024-04-06T14:23:34.675Z</time>
      </trkpt>
      <trkpt lat="43.91354" lon="3.99176">
        <ele>76.2</ele>
        <time>2024-04-06T14:23:36.109Z</time>
      </trkpt>
      <trkpt lat="43.91349" lon="3.9918">
        <ele>76.2</ele>
        <time>2024-04-06T14:23:37.956Z</time>
      </trkpt>
      <trkpt lat="43.91345" lon="3.99184">
        <ele>76.2</ele>
        <time>2024-04-06T14:23:39.533Z</time>
      </trkpt>
      <trkpt lat="43.91341" lon="3.99187">
        <ele>76.2</ele>
        <time>2024-04-06T14:23:40.988Z</time>
      </trkpt>
      <trkpt lat="43.91337" lon="3.99191">
        <ele>76.1</ele>
        <time>2024-04-06T14:23:42.471Z</time>
      </trkpt>
      <trkpt lat="43.91332" lon="3.99195">
        <ele>76</ele>
        <time>2024-04-06T14:23:44.223Z</time>
      </trkpt>
      <trkpt lat="43.91328" lon="3.99199">
        <ele>76</ele>
        <time>2024-04-06T14:23:45.800Z</time>
      </trkpt>
      <trkpt lat="43.91324" lon="3.99202">
        <ele>76</ele>
        <time>2024-04-06T14:23:47.255Z</time>
      </trkpt>
      <trkpt lat="43.9132" lon="3.99205">
        <ele>76</ele>
        <time>2024-04-06T14:23:48.710Z</time>
      </trkpt>
      <trkpt lat="43.91316" lon="3.99209">
        <ele>76</ele>
        <time>2024-04-06T14:23:50.287Z</time>
      </trkpt>
      <trkpt lat="43.91313" lon="3.99212">
        <ele>76</ele>
        <time>2024-04-06T14:23:51.470Z</time>
      </trkpt>
      <trkpt lat="43.9131" lon="3.99215">
        <ele>76</ele>
        <time>2024-04-06T14:23:52.653Z</time>
      </trkpt>
      <trkpt lat="43.91307" lon="3.99218">
        <ele>76</ele>
        <time>2024-04-06T14:23:53.836Z</time>
      </trkpt>
      <trkpt lat="43.91304" lon="3.99221">
        <ele>76</ele>
        <time>2024-04-06T14:23:55.020Z</time>
      </trkpt>
      <trkpt lat="43.913" lon="3.99224">
        <ele>76</ele>
        <time>2024-04-06T14:23:56.474Z</time>
      </trkpt>
      <trkpt lat="43.91297" lon="3.99227">
        <ele>76</ele>
        <time>2024-04-06T14:23:57.657Z</time>
      </trkpt>
      <trkpt lat="43.91293" lon="3.9923">
        <ele>76</ele>
        <time>2024-04-06T14:23:59.112Z</time>
      </trkpt>
      <trkpt lat="43.91291" lon="3.99232">
        <ele>76</ele>
        <time>2024-04-06T14:23:59.901Z</time>
      </trkpt>
      <trkpt lat="43.91289" lon="3.99234">
        <ele>76</ele>
        <time>2024-04-06T14:24:00.690Z</time>
      </trkpt>
      <trkpt lat="43.91288" lon="3.99236">
        <ele>76</ele>
        <time>2024-04-06T14:24:01.251Z</time>
      </trkpt>
      <trkpt lat="43.91285" lon="3.99239">
        <ele>76</ele>
        <time>2024-04-06T14:24:02.434Z</time>
      </trkpt>
      <trkpt lat="43.91282" lon="3.99241">
        <ele>76</ele>
        <time>2024-04-06T14:24:03.499Z</time>
      </trkpt>
      <trkpt lat="43.9128" lon="3.99244">
        <ele>76</ele>
        <time>2024-04-06T14:24:04.441Z</time>
      </trkpt>
      <trkpt lat="43.91277" lon="3.99246">
        <ele>76</ele>
        <time>2024-04-06T14:24:05.506Z</time>
      </trkpt>
      <trkpt lat="43.91275" lon="3.99249">
        <ele>75.9</ele>
        <time>2024-04-06T14:24:06.356Z</time>
      </trkpt>
      <trkpt lat="43.91273" lon="3.99252">
        <ele>75.8</ele>
        <time>2024-04-06T14:24:07.207Z</time>
      </trkpt>
      <trkpt lat="43.91272" lon="3.99255">
        <ele>75.8</ele>
        <time>2024-04-06T14:24:07.969Z</time>
      </trkpt>
      <trkpt lat="43.9127" lon="3.99258">
        <ele>75.7</ele>
        <time>2024-04-06T14:24:08.819Z</time>
      </trkpt>
      <trkpt lat="43.9127" lon="3.99262">
        <ele>75.7</ele>
        <time>2024-04-06T14:24:09.741Z</time>
      </trkpt>
      <trkpt lat="43.9127" lon="3.99265">
        <ele>75.7</ele>
        <time>2024-04-06T14:24:10.433Z</time>
      </trkpt>
      <trkpt lat="43.9127" lon="3.99269">
        <ele>75.7</ele>
        <time>2024-04-06T14:24:11.355Z</time>
      </trkpt>
      <trkpt lat="43.9127" lon="3.99274">
        <ele>75.7</ele>
        <time>2024-04-06T14:24:12.507Z</time>
      </trkpt>
      <trkpt lat="43.91271" lon="3.99278">
        <ele>75.7</ele>
        <time>2024-04-06T14:24:13.483Z</time>
      </trkpt>
      <trkpt lat="43.91273" lon="3.99283">
        <ele>75.5</ele>
        <time>2024-04-06T14:24:14.637Z</time>
      </trkpt>
      <trkpt lat="43.91274" lon="3.99288">
        <ele>75.2</ele>
        <time>2024-04-06T14:24:15.683Z</time>
      </trkpt>
      <trkpt lat="43.91275" lon="3.99293">
        <ele>74.9</ele>
        <time>2024-04-06T14:24:16.730Z</time>
      </trkpt>
      <trkpt lat="43.91276" lon="3.99299">
        <ele>74.5</ele>
        <time>2024-04-06T14:24:17.972Z</time>
      </trkpt>
      <trkpt lat="43.91277" lon="3.99305">
        <ele>74.1</ele>
        <time>2024-04-06T14:24:19.214Z</time>
      </trkpt>
      <trkpt lat="43.91277" lon="3.99311">
        <ele>73.8</ele>
        <time>2024-04-06T14:24:20.424Z</time>
      </trkpt>
      <trkpt lat="43.91278" lon="3.99318">
        <ele>73.6</ele>
        <time>2024-04-06T14:24:21.888Z</time>
      </trkpt>
      <trkpt lat="43.91279" lon="3.99325">
        <ele>73.4</ele>
        <time>2024-04-06T14:24:23.351Z</time>
      </trkpt>
      <trkpt lat="43.9128" lon="3.99331">
        <ele>73.2</ele>
        <time>2024-04-06T14:24:24.594Z</time>
      </trkpt>
      <trkpt lat="43.91283" lon="3.99338">
        <ele>73.5</ele>
        <time>2024-04-06T14:24:26.802Z</time>
      </trkpt>
      <trkpt lat="43.91285" lon="3.99343">
        <ele>73.9</ele>
        <time>2024-04-06T14:24:28.614Z</time>
      </trkpt>
      <trkpt lat="43.91287" lon="3.99349">
        <ele>74.2</ele>
        <time>2024-04-06T14:24:30.478Z</time>
      </trkpt>
      <trkpt lat="43.91288" lon="3.99354">
        <ele>74.5</ele>
        <time>2024-04-06T14:24:32.029Z</time>
      </trkpt>
      <trkpt lat="43.9129" lon="3.99359">
        <ele>74.8</ele>
        <time>2024-04-06T14:24:33.696Z</time>
      </trkpt>
      <trkpt lat="43.9129" lon="3.99364">
        <ele>75</ele>
        <time>2024-04-06T14:24:35.072Z</time>
      </trkpt>
      <trkpt lat="43.9129" lon="3.99369">
        <ele>75.2</ele>
        <time>2024-04-06T14:24:36.448Z</time>
      </trkpt>
      <trkpt lat="43.9129" lon="3.99374">
        <ele>75.4</ele>
        <time>2024-04-06T14:24:37.823Z</time>
      </trkpt>
      <trkpt lat="43.91289" lon="3.99379">
        <ele>75.6</ele>
        <time>2024-04-06T14:24:39.241Z</time>
      </trkpt>
      <trkpt lat="43.91288" lon="3.99384">
        <ele>75.8</ele>
        <time>2024-04-06T14:24:40.660Z</time>
      </trkpt>
      <trkpt lat="43.91287" lon="3.9939">
        <ele>76</ele>
        <time>2024-04-06T14:24:42.297Z</time>
      </trkpt>
      <trkpt lat="43.91286" lon="3.99395">
        <ele>76.1</ele>
        <time>2024-04-06T14:24:43.598Z</time>
      </trkpt>
      <trkpt lat="43.91284" lon="3.994">
        <ele>76.1</ele>
        <time>2024-04-06T14:24:44.916Z</time>
      </trkpt>
      <trkpt lat="43.91283" lon="3.99405">
        <ele>76.1</ele>
        <time>2024-04-06T14:24:46.112Z</time>
      </trkpt>
      <trkpt lat="43.91283" lon="3.9941">
        <ele>76.1</ele>
        <time>2024-04-06T14:24:47.265Z</time>
      </trkpt>
      <trkpt lat="43.91282" lon="3.99415">
        <ele>76.1</ele>
        <time>2024-04-06T14:24:48.461Z</time>
      </trkpt>
      <trkpt lat="43.91281" lon="3.9942">
        <ele>76.1</ele>
        <time>2024-04-06T14:24:49.657Z</time>
      </trkpt>
      <trkpt lat="43.9128" lon="3.99425">
        <ele>76.1</ele>
        <time>2024-04-06T14:24:50.853Z</time>
      </trkpt>
      <trkpt lat="43.91279" lon="3.9943">
        <ele>76.1</ele>
        <time>2024-04-06T14:24:52.049Z</time>
      </trkpt>
      <trkpt lat="43.91278" lon="3.99435">
        <ele>76</ele>
        <time>2024-04-06T14:24:53.152Z</time>
      </trkpt>
      <trkpt lat="43.91277" lon="3.9944">
        <ele>76</ele>
        <time>2024-04-06T14:24:54.348Z</time>
      </trkpt>
      <trkpt lat="43.91275" lon="3.99445">
        <ele>76</ele>
        <time>2024-04-06T14:24:55.667Z</time>
      </trkpt>
      <trkpt lat="43.91273" lon="3.99449">
        <ele>76.1</ele>
        <time>2024-04-06T14:24:56.894Z</time>
      </trkpt>
      <trkpt lat="43.9127" lon="3.99452">
        <ele>76.2</ele>
        <time>2024-04-06T14:24:58.181Z</time>
      </trkpt>
      <trkpt lat="43.91267" lon="3.99456">
        <ele>76.3</ele>
        <time>2024-04-06T14:24:59.616Z</time>
      </trkpt>
      <trkpt lat="43.91264" lon="3.99459">
        <ele>76.3</ele>
        <time>2024-04-06T14:25:00.799Z</time>
      </trkpt>
      <trkpt lat="43.91261" lon="3.99462">
        <ele>76.3</ele>
        <time>2024-04-06T14:25:01.982Z</time>
      </trkpt>
      <trkpt lat="43.91258" lon="3.99465">
        <ele>76.2</ele>
        <time>2024-04-06T14:25:03.072Z</time>
      </trkpt>
      <trkpt lat="43.91255" lon="3.99467">
        <ele>76.1</ele>
        <time>2024-04-06T14:25:04.045Z</time>
      </trkpt>
      <trkpt lat="43.91252" lon="3.9947">
        <ele>76.1</ele>
        <time>2024-04-06T14:25:05.228Z</time>
      </trkpt>
      <trkpt lat="43.91249" lon="3.99472">
        <ele>76</ele>
        <time>2024-04-06T14:25:06.200Z</time>
      </trkpt>
      <trkpt lat="43.91246" lon="3.99474">
        <ele>76.1</ele>
        <time>2024-04-06T14:25:07.371Z</time>
      </trkpt>
      <trkpt lat="43.91243" lon="3.99477">
        <ele>76.2</ele>
        <time>2024-04-06T14:25:08.658Z</time>
      </trkpt>
      <trkpt lat="43.9124" lon="3.9948">
        <ele>76.3</ele>
        <time>2024-04-06T14:25:09.946Z</time>
      </trkpt>
      <trkpt lat="43.91237" lon="3.99482">
        <ele>76.4</ele>
        <time>2024-04-06T14:25:11.116Z</time>
      </trkpt>
      <trkpt lat="43.91235" lon="3.99485">
        <ele>76.5</ele>
        <time>2024-04-06T14:25:12.164Z</time>
      </trkpt>
      <trkpt lat="43.91232" lon="3.99488">
        <ele>76.6</ele>
        <time>2024-04-06T14:25:13.452Z</time>
      </trkpt>
      <trkpt lat="43.91229" lon="3.9949">
        <ele>76.6</ele>
        <time>2024-04-06T14:25:14.517Z</time>
      </trkpt>
      <trkpt lat="43.91226" lon="3.99493">
        <ele>76.7</ele>
        <time>2024-04-06T14:25:15.804Z</time>
      </trkpt>
      <trkpt lat="43.91223" lon="3.99495">
        <ele>76.8</ele>
        <time>2024-04-06T14:25:16.975Z</time>
      </trkpt>
      <trkpt lat="43.9122" lon="3.99497">
        <ele>76.8</ele>
        <time>2024-04-06T14:25:18.039Z</time>
      </trkpt>
      <trkpt lat="43.91217" lon="3.995">
        <ele>76.8</ele>
        <time>2024-04-06T14:25:19.223Z</time>
      </trkpt>
      <trkpt lat="43.91214" lon="3.99502">
        <ele>76.7</ele>
        <time>2024-04-06T14:25:20.195Z</time>
      </trkpt>
      <trkpt lat="43.91211" lon="3.99504">
        <ele>76.7</ele>
        <time>2024-04-06T14:25:21.260Z</time>
      </trkpt>
      <trkpt lat="43.91208" lon="3.99506">
        <ele>76.6</ele>
        <time>2024-04-06T14:25:22.232Z</time>
      </trkpt>
      <trkpt lat="43.91204" lon="3.99508">
        <ele>76.5</ele>
        <time>2024-04-06T14:25:23.499Z</time>
      </trkpt>
      <trkpt lat="43.91201" lon="3.9951">
        <ele>76.5</ele>
        <time>2024-04-06T14:25:24.564Z</time>
      </trkpt>
      <trkpt lat="43.91198" lon="3.99513">
        <ele>76.5</ele>
        <time>2024-04-06T14:25:25.747Z</time>
      </trkpt>
      <trkpt lat="43.91194" lon="3.99515">
        <ele>76.5</ele>
        <time>2024-04-06T14:25:27.107Z</time>
      </trkpt>
      <trkpt lat="43.91191" lon="3.99518">
        <ele>76.6</ele>
        <time>2024-04-06T14:25:28.395Z</time>
      </trkpt>
      <trkpt lat="43.91187" lon="3.99521">
        <ele>76.8</ele>
        <time>2024-04-06T14:25:30.067Z</time>
      </trkpt>
      <trkpt lat="43.91184" lon="3.99523">
        <ele>76.8</ele>
        <time>2024-04-06T14:25:31.132Z</time>
      </trkpt>
      <trkpt lat="43.9118" lon="3.99524">
        <ele>76.9</ele>
        <time>2024-04-06T14:25:32.536Z</time>
      </trkpt>
      <trkpt lat="43.91177" lon="3.99525">
        <ele>76.9</ele>
        <time>2024-04-06T14:25:33.524Z</time>
      </trkpt>
      <trkpt lat="43.91173" lon="3.99525">
        <ele>76.9</ele>
        <time>2024-04-06T14:25:34.803Z</time>
      </trkpt>
      <trkpt lat="43.91169" lon="3.99525">
        <ele>76.9</ele>
        <time>2024-04-06T14:25:36.083Z</time>
      </trkpt>
      <trkpt lat="43.91165" lon="3.99524">
        <ele>76.9</ele>
        <time>2024-04-06T14:25:37.384Z</time>
      </trkpt>
      <trkpt lat="43.9116" lon="3.99524">
        <ele>76.9</ele>
        <time>2024-04-06T14:25:38.984Z</time>
      </trkpt>
      <trkpt lat="43.91156" lon="3.99524">
        <ele>76.9</ele>
        <time>2024-04-06T14:25:40.264Z</time>
      </trkpt>
      <trkpt lat="43.91151" lon="3.99523">
        <ele>76.8</ele>
        <time>2024-04-06T14:25:41.786Z</time>
      </trkpt>
      <trkpt lat="43.91146" lon="3.99523">
        <ele>76.8</ele>
        <time>2024-04-06T14:25:43.385Z</time>
      </trkpt>
      <trkpt lat="43.91142" lon="3.99523">
        <ele>76.8</ele>
        <time>2024-04-06T14:25:44.665Z</time>
      </trkpt>
      <trkpt lat="43.91137" lon="3.99524">
        <ele>76.9</ele>
        <time>2024-04-06T14:25:46.385Z</time>
      </trkpt>
      <trkpt lat="43.91133" lon="3.99525">
        <ele>76.9</ele>
        <time>2024-04-06T14:25:47.685Z</time>
      </trkpt>
      <trkpt lat="43.91129" lon="3.99527">
        <ele>77</ele>
        <time>2024-04-06T14:25:49.149Z</time>
      </trkpt>
      <trkpt lat="43.91125" lon="3.9953">
        <ele>77</ele>
        <time>2024-04-06T14:25:50.604Z</time>
      </trkpt>
      <trkpt lat="43.91122" lon="3.99532">
        <ele>77</ele>
        <time>2024-04-06T14:25:51.669Z</time>
      </trkpt>
      <trkpt lat="43.91118" lon="3.99535">
        <ele>77</ele>
        <time>2024-04-06T14:25:53.124Z</time>
      </trkpt>
      <trkpt lat="43.91114" lon="3.99537">
        <ele>77</ele>
        <time>2024-04-06T14:25:54.484Z</time>
      </trkpt>
      <trkpt lat="43.9111" lon="3.9954">
        <ele>77</ele>
        <time>2024-04-06T14:25:55.939Z</time>
      </trkpt>
      <trkpt lat="43.91106" lon="3.99543">
        <ele>77</ele>
        <time>2024-04-06T14:25:57.394Z</time>
      </trkpt>
      <trkpt lat="43.91102" lon="3.99546">
        <ele>77</ele>
        <time>2024-04-06T14:25:58.848Z</time>
      </trkpt>
      <trkpt lat="43.91098" lon="3.99549">
        <ele>77</ele>
        <time>2024-04-06T14:26:00.303Z</time>
      </trkpt>
      <trkpt lat="43.91094" lon="3.99551">
        <ele>77</ele>
        <time>2024-04-06T14:26:01.663Z</time>
      </trkpt>
      <trkpt lat="43.9109" lon="3.99555">
        <ele>77</ele>
        <time>2024-04-06T14:26:03.241Z</time>
      </trkpt>
      <trkpt lat="43.91086" lon="3.99558">
        <ele>76.9</ele>
        <time>2024-04-06T14:26:04.602Z</time>
      </trkpt>
      <trkpt lat="43.91082" lon="3.99561">
        <ele>76.8</ele>
        <time>2024-04-06T14:26:05.962Z</time>
      </trkpt>
      <trkpt lat="43.91078" lon="3.99564">
        <ele>76.8</ele>
        <time>2024-04-06T14:26:07.417Z</time>
      </trkpt>
      <trkpt lat="43.91074" lon="3.99568">
        <ele>76.7</ele>
        <time>2024-04-06T14:26:08.900Z</time>
      </trkpt>
      <trkpt lat="43.9107" lon="3.99572">
        <ele>76.7</ele>
        <time>2024-04-06T14:26:10.478Z</time>
      </trkpt>
      <trkpt lat="43.91067" lon="3.99576">
        <ele>76.7</ele>
        <time>2024-04-06T14:26:11.809Z</time>
      </trkpt>
      <trkpt lat="43.91063" lon="3.99579">
        <ele>76.8</ele>
        <time>2024-04-06T14:26:13.367Z</time>
      </trkpt>
      <trkpt lat="43.91059" lon="3.99583">
        <ele>76.9</ele>
        <time>2024-04-06T14:26:15.047Z</time>
      </trkpt>
      <trkpt lat="43.91056" lon="3.99587">
        <ele>77</ele>
        <time>2024-04-06T14:26:16.482Z</time>
      </trkpt>
      <trkpt lat="43.91052" lon="3.9959">
        <ele>77</ele>
        <time>2024-04-06T14:26:17.937Z</time>
      </trkpt>
      <trkpt lat="43.91049" lon="3.99593">
        <ele>77</ele>
        <time>2024-04-06T14:26:19.120Z</time>
      </trkpt>
      <trkpt lat="43.91046" lon="3.99597">
        <ele>77</ele>
        <time>2024-04-06T14:26:20.451Z</time>
      </trkpt>
      <trkpt lat="43.91042" lon="3.996">
        <ele>77</ele>
        <time>2024-04-06T14:26:21.906Z</time>
      </trkpt>
      <trkpt lat="43.91038" lon="3.99603">
        <ele>77</ele>
        <time>2024-04-06T14:26:23.361Z</time>
      </trkpt>
      <trkpt lat="43.91035" lon="3.99605">
        <ele>77</ele>
        <time>2024-04-06T14:26:24.426Z</time>
      </trkpt>
      <trkpt lat="43.91032" lon="3.99609">
        <ele>77</ele>
        <time>2024-04-06T14:26:25.757Z</time>
      </trkpt>
      <trkpt lat="43.91029" lon="3.99612">
        <ele>77</ele>
        <time>2024-04-06T14:26:26.940Z</time>
      </trkpt>
      <trkpt lat="43.91025" lon="3.99614">
        <ele>76.9</ele>
        <time>2024-04-06T14:26:28.206Z</time>
      </trkpt>
      <trkpt lat="43.91022" lon="3.99617">
        <ele>76.8</ele>
        <time>2024-04-06T14:26:29.296Z</time>
      </trkpt>
      <trkpt lat="43.91019" lon="3.9962">
        <ele>76.7</ele>
        <time>2024-04-06T14:26:30.387Z</time>
      </trkpt>
      <trkpt lat="43.91017" lon="3.99623">
        <ele>76.6</ele>
        <time>2024-04-06T14:26:31.237Z</time>
      </trkpt>
      <trkpt lat="43.91014" lon="3.99625">
        <ele>76.5</ele>
        <time>2024-04-06T14:26:32.210Z</time>
      </trkpt>
      <trkpt lat="43.91011" lon="3.99628">
        <ele>76.4</ele>
        <time>2024-04-06T14:26:33.300Z</time>
      </trkpt>
      <trkpt lat="43.91008" lon="3.9963">
        <ele>76.3</ele>
        <time>2024-04-06T14:26:34.272Z</time>
      </trkpt>
      <trkpt lat="43.91006" lon="3.99633">
        <ele>76.2</ele>
        <time>2024-04-06T14:26:35.123Z</time>
      </trkpt>
      <trkpt lat="43.91003" lon="3.99636">
        <ele>76.1</ele>
        <time>2024-04-06T14:26:36.213Z</time>
      </trkpt>
      <trkpt lat="43.91001" lon="3.99639">
        <ele>76</ele>
        <time>2024-04-06T14:26:37.063Z</time>
      </trkpt>
      <trkpt lat="43.90999" lon="3.99643">
        <ele>76</ele>
        <time>2024-04-06T14:26:38.186Z</time>
      </trkpt>
      <trkpt lat="43.90997" lon="3.99647">
        <ele>76.1</ele>
        <time>2024-04-06T14:26:39.413Z</time>
      </trkpt>
      <trkpt lat="43.90994" lon="3.99649">
        <ele>76.2</ele>
        <time>2024-04-06T14:26:40.583Z</time>
      </trkpt>
      <trkpt lat="43.90991" lon="3.99652">
        <ele>76.3</ele>
        <time>2024-04-06T14:26:41.871Z</time>
      </trkpt>
      <trkpt lat="43.90988" lon="3.99655">
        <ele>76.4</ele>
        <time>2024-04-06T14:26:43.158Z</time>
      </trkpt>
      <trkpt lat="43.90986" lon="3.99657">
        <ele>76.5</ele>
        <time>2024-04-06T14:26:44.055Z</time>
      </trkpt>
      <trkpt lat="43.90984" lon="3.9966">
        <ele>76.6</ele>
        <time>2024-04-06T14:26:45.103Z</time>
      </trkpt>
      <trkpt lat="43.90981" lon="3.99662">
        <ele>76.7</ele>
        <time>2024-04-06T14:26:46.273Z</time>
      </trkpt>
      <trkpt lat="43.90979" lon="3.99664">
        <ele>76.8</ele>
        <time>2024-04-06T14:26:47.170Z</time>
      </trkpt>
      <trkpt lat="43.90978" lon="3.99665">
        <ele>76.8</ele>
        <time>2024-04-06T14:26:47.564Z</time>
      </trkpt>
      <trkpt lat="43.90976" lon="3.99667">
        <ele>76.9</ele>
        <time>2024-04-06T14:26:48.461Z</time>
      </trkpt>
      <trkpt lat="43.90973" lon="3.99668">
        <ele>76.9</ele>
        <time>2024-04-06T14:26:49.448Z</time>
      </trkpt>
      <trkpt lat="43.9097" lon="3.99669">
        <ele>77</ele>
        <time>2024-04-06T14:26:50.541Z</time>
      </trkpt>
      <trkpt lat="43.90968" lon="3.99669">
        <ele>77.1</ele>
        <time>2024-04-06T14:26:51.291Z</time>
      </trkpt>
      <trkpt lat="43.90967" lon="3.99672">
        <ele>77</ele>
        <time>2024-04-06T14:26:51.963Z</time>
      </trkpt>
      <trkpt lat="43.90966" lon="3.99677">
        <ele>76.9</ele>
        <time>2024-04-06T14:26:53.066Z</time>
      </trkpt>
      <trkpt lat="43.90966" lon="3.99682">
        <ele>76.7</ele>
        <time>2024-04-06T14:26:54.074Z</time>
      </trkpt>
      <trkpt lat="43.90966" lon="3.99687">
        <ele>76.5</ele>
        <time>2024-04-06T14:26:55.083Z</time>
      </trkpt>
      <trkpt lat="43.90965" lon="3.99692">
        <ele>76.3</ele>
        <time>2024-04-06T14:26:56.130Z</time>
      </trkpt>
      <trkpt lat="43.90963" lon="3.99695">
        <ele>76.3</ele>
        <time>2024-04-06T14:26:57.072Z</time>
      </trkpt>
      <trkpt lat="43.90962" lon="3.99697">
        <ele>76.3</ele>
        <time>2024-04-06T14:26:57.633Z</time>
      </trkpt>
      <trkpt lat="43.90959" lon="3.99699">
        <ele>76.3</ele>
        <time>2024-04-06T14:26:58.698Z</time>
      </trkpt>
      <trkpt lat="43.90957" lon="3.99701">
        <ele>76.3</ele>
        <time>2024-04-06T14:26:59.487Z</time>
      </trkpt>
      <trkpt lat="43.90954" lon="3.99703">
        <ele>76.3</ele>
        <time>2024-04-06T14:27:00.552Z</time>
      </trkpt>
      <trkpt lat="43.9095" lon="3.99704">
        <ele>76.5</ele>
        <time>2024-04-06T14:27:02.072Z</time>
      </trkpt>
      <trkpt lat="43.90947" lon="3.99706">
        <ele>76.5</ele>
        <time>2024-04-06T14:27:03.137Z</time>
      </trkpt>
      <trkpt lat="43.90943" lon="3.99706">
        <ele>76.6</ele>
        <time>2024-04-06T14:27:04.521Z</time>
      </trkpt>
      <trkpt lat="43.9094" lon="3.99705">
        <ele>76.7</ele>
        <time>2024-04-06T14:27:05.614Z</time>
      </trkpt>
      <trkpt lat="43.90937" lon="3.99702">
        <ele>76.8</ele>
        <time>2024-04-06T14:27:06.901Z</time>
      </trkpt>
      <trkpt lat="43.90935" lon="3.99698">
        <ele>76.9</ele>
        <time>2024-04-06T14:27:08.129Z</time>
      </trkpt>
      <trkpt lat="43.90933" lon="3.99694">
        <ele>77</ele>
        <time>2024-04-06T14:27:09.356Z</time>
      </trkpt>
      <trkpt lat="43.90932" lon="3.9969">
        <ele>77.2</ele>
        <time>2024-04-06T14:27:10.561Z</time>
      </trkpt>
      <trkpt lat="43.90931" lon="3.99687">
        <ele>77.3</ele>
        <time>2024-04-06T14:27:11.431Z</time>
      </trkpt>
      <trkpt lat="43.9093" lon="3.99684">
        <ele>77.4</ele>
        <time>2024-04-06T14:27:12.301Z</time>
      </trkpt>
      <trkpt lat="43.90929" lon="3.99682">
        <ele>77.4</ele>
        <time>2024-04-06T14:27:12.862Z</time>
      </trkpt>
      <trkpt lat="43.90927" lon="3.99682">
        <ele>77.4</ele>
        <time>2024-04-06T14:27:13.502Z</time>
      </trkpt>
      <trkpt lat="43.90924" lon="3.99682">
        <ele>77.4</ele>
        <time>2024-04-06T14:27:14.462Z</time>
      </trkpt>
      <trkpt lat="43.90921" lon="3.99683">
        <ele>77.4</ele>
        <time>2024-04-06T14:27:15.449Z</time>
      </trkpt>
      <trkpt lat="43.90923" lon="3.99679">
        <ele>77.6</ele>
        <time>2024-04-06T14:27:16.795Z</time>
      </trkpt>
      <trkpt lat="43.90925" lon="3.99682">
        <ele>77.4</ele>
        <time>2024-04-06T14:27:17.620Z</time>
      </trkpt>
      <trkpt lat="43.90923" lon="3.99684">
        <ele>77.4</ele>
        <time>2024-04-06T14:27:18.409Z</time>
      </trkpt>
      <trkpt lat="43.9092" lon="3.99686">
        <ele>77.3</ele>
        <time>2024-04-06T14:27:19.381Z</time>
      </trkpt>
      <trkpt lat="43.90917" lon="3.99688">
        <ele>77.2</ele>
        <time>2024-04-06T14:27:20.353Z</time>
      </trkpt>
      <trkpt lat="43.90914" lon="3.9969">
        <ele>77.2</ele>
        <time>2024-04-06T14:27:21.418Z</time>
      </trkpt>
      <trkpt lat="43.9091" lon="3.99693">
        <ele>77.1</ele>
        <time>2024-04-06T14:27:22.779Z</time>
      </trkpt>
      <trkpt lat="43.90907" lon="3.99695">
        <ele>77</ele>
        <time>2024-04-06T14:27:23.752Z</time>
      </trkpt>
      <trkpt lat="43.90904" lon="3.99697">
        <ele>77</ele>
        <time>2024-04-06T14:27:24.817Z</time>
      </trkpt>
      <trkpt lat="43.90901" lon="3.99698">
        <ele>77</ele>
        <time>2024-04-06T14:27:25.804Z</time>
      </trkpt>
      <trkpt lat="43.90899" lon="3.99701">
        <ele>77</ele>
        <time>2024-04-06T14:27:26.746Z</time>
      </trkpt>
      <trkpt lat="43.90895" lon="3.99706">
        <ele>77</ele>
        <time>2024-04-06T14:27:28.468Z</time>
      </trkpt>
      <trkpt lat="43.9089" lon="3.9971">
        <ele>77</ele>
        <time>2024-04-06T14:27:30.315Z</time>
      </trkpt>
      <trkpt lat="43.90884" lon="3.99713">
        <ele>76.9</ele>
        <time>2024-04-06T14:27:32.260Z</time>
      </trkpt>
      <trkpt lat="43.90878" lon="3.99715">
        <ele>76.7</ele>
        <time>2024-04-06T14:27:34.051Z</time>
      </trkpt>
      <trkpt lat="43.90873" lon="3.99718">
        <ele>76.5</ele>
        <time>2024-04-06T14:27:35.611Z</time>
      </trkpt>
      <trkpt lat="43.90867" lon="3.9972">
        <ele>76.3</ele>
        <time>2024-04-06T14:27:37.402Z</time>
      </trkpt>
      <trkpt lat="43.90861" lon="3.99721">
        <ele>76</ele>
        <time>2024-04-06T14:27:39.094Z</time>
      </trkpt>
      <trkpt lat="43.90855" lon="3.9972">
        <ele>76.1</ele>
        <time>2024-04-06T14:27:41.130Z</time>
      </trkpt>
      <trkpt lat="43.90849" lon="3.99719">
        <ele>76.1</ele>
        <time>2024-04-06T14:27:43.063Z</time>
      </trkpt>
      <trkpt lat="43.90844" lon="3.99719">
        <ele>76</ele>
        <time>2024-04-06T14:27:44.663Z</time>
      </trkpt>
      <trkpt lat="43.90839" lon="3.99718">
        <ele>76</ele>
        <time>2024-04-06T14:27:46.185Z</time>
      </trkpt>
      <trkpt lat="43.90833" lon="3.99718">
        <ele>76</ele>
        <time>2024-04-06T14:27:48.010Z</time>
      </trkpt>
      <trkpt lat="43.90826" lon="3.99717">
        <ele>75.5</ele>
        <time>2024-04-06T14:27:49.980Z</time>
      </trkpt>
      <trkpt lat="43.90822" lon="3.99717">
        <ele>75.3</ele>
        <time>2024-04-06T14:27:51.100Z</time>
      </trkpt>
      <trkpt lat="43.90817" lon="3.9972">
        <ele>74.9</ele>
        <time>2024-04-06T14:27:52.625Z</time>
      </trkpt>
      <trkpt lat="43.90813" lon="3.99722">
        <ele>74.5</ele>
        <time>2024-04-06T14:27:53.815Z</time>
      </trkpt>
      <trkpt lat="43.90808" lon="3.99726">
        <ele>74.2</ele>
        <time>2024-04-06T14:27:55.431Z</time>
      </trkpt>
      <trkpt lat="43.90803" lon="3.99729">
        <ele>73.8</ele>
        <time>2024-04-06T14:27:56.956Z</time>
      </trkpt>
      <trkpt lat="43.90799" lon="3.99733">
        <ele>73.6</ele>
        <time>2024-04-06T14:27:58.353Z</time>
      </trkpt>
      <trkpt lat="43.90794" lon="3.99737">
        <ele>73.4</ele>
        <time>2024-04-06T14:28:00.016Z</time>
      </trkpt>
      <trkpt lat="43.90789" lon="3.9974">
        <ele>73.4</ele>
        <time>2024-04-06T14:28:01.759Z</time>
      </trkpt>
      <trkpt lat="43.90785" lon="3.99742">
        <ele>73.4</ele>
        <time>2024-04-06T14:28:03.119Z</time>
      </trkpt>
      <trkpt lat="43.90781" lon="3.99744">
        <ele>73.4</ele>
        <time>2024-04-06T14:28:04.480Z</time>
      </trkpt>
      <trkpt lat="43.90777" lon="3.99746">
        <ele>73.4</ele>
        <time>2024-04-06T14:28:05.840Z</time>
      </trkpt>
      <trkpt lat="43.90773" lon="3.99751">
        <ele>73.1</ele>
        <time>2024-04-06T14:28:07.347Z</time>
      </trkpt>
      <trkpt lat="43.90771" lon="3.99756">
        <ele>72.6</ele>
        <time>2024-04-06T14:28:08.501Z</time>
      </trkpt>
      <trkpt lat="43.90768" lon="3.99762">
        <ele>72</ele>
        <time>2024-04-06T14:28:09.974Z</time>
      </trkpt>
      <trkpt lat="43.90765" lon="3.99769">
        <ele>71.3</ele>
        <time>2024-04-06T14:28:11.617Z</time>
      </trkpt>
      <trkpt lat="43.90763" lon="3.99775">
        <ele>70.9</ele>
        <time>2024-04-06T14:28:12.951Z</time>
      </trkpt>
      <trkpt lat="43.90761" lon="3.99782">
        <ele>70.8</ele>
        <time>2024-04-06T14:28:14.592Z</time>
      </trkpt>
      <trkpt lat="43.90759" lon="3.99788">
        <ele>70.8</ele>
        <time>2024-04-06T14:28:16.116Z</time>
      </trkpt>
      <trkpt lat="43.90757" lon="3.99795">
        <ele>70.9</ele>
        <time>2024-04-06T14:28:17.954Z</time>
      </trkpt>
      <trkpt lat="43.90755" lon="3.99801">
        <ele>71.1</ele>
        <time>2024-04-06T14:28:19.695Z</time>
      </trkpt>
      <trkpt lat="43.90753" lon="3.99808">
        <ele>71.3</ele>
        <time>2024-04-06T14:28:21.644Z</time>
      </trkpt>
      <trkpt lat="43.90751" lon="3.99814">
        <ele>71.4</ele>
        <time>2024-04-06T14:28:23.272Z</time>
      </trkpt>
      <trkpt lat="43.90748" lon="3.9982">
        <ele>71.3</ele>
        <time>2024-04-06T14:28:24.861Z</time>
      </trkpt>
      <trkpt lat="43.90746" lon="3.99826">
        <ele>71.2</ele>
        <time>2024-04-06T14:28:26.290Z</time>
      </trkpt>
      <trkpt lat="43.90744" lon="3.99831">
        <ele>71.1</ele>
        <time>2024-04-06T14:28:27.515Z</time>
      </trkpt>
      <trkpt lat="43.90742" lon="3.99837">
        <ele>70.9</ele>
        <time>2024-04-06T14:28:28.859Z</time>
      </trkpt>
      <trkpt lat="43.9074" lon="3.99842">
        <ele>70.7</ele>
        <time>2024-04-06T14:28:30.013Z</time>
      </trkpt>
      <trkpt lat="43.90738" lon="3.99847">
        <ele>70.5</ele>
        <time>2024-04-06T14:28:31.166Z</time>
      </trkpt>
      <trkpt lat="43.90735" lon="3.99851">
        <ele>70.2</ele>
        <time>2024-04-06T14:28:32.331Z</time>
      </trkpt>
      <trkpt lat="43.90733" lon="3.99857">
        <ele>70.1</ele>
        <time>2024-04-06T14:28:33.761Z</time>
      </trkpt>
      <trkpt lat="43.90731" lon="3.99862">
        <ele>70</ele>
        <time>2024-04-06T14:28:34.985Z</time>
      </trkpt>
      <trkpt lat="43.90729" lon="3.99867">
        <ele>70.1</ele>
        <time>2024-04-06T14:28:36.408Z</time>
      </trkpt>
      <trkpt lat="43.90727" lon="3.99871">
        <ele>70.1</ele>
        <time>2024-04-06T14:28:37.530Z</time>
      </trkpt>
      <trkpt lat="43.90726" lon="3.99876">
        <ele>70.3</ele>
        <time>2024-04-06T14:28:38.948Z</time>
      </trkpt>
      <trkpt lat="43.90725" lon="3.99881">
        <ele>70.6</ele>
        <time>2024-04-06T14:28:40.500Z</time>
      </trkpt>
      <trkpt lat="43.90723" lon="3.99886">
        <ele>70.8</ele>
        <time>2024-04-06T14:28:42.038Z</time>
      </trkpt>
      <trkpt lat="43.90721" lon="3.99891">
        <ele>71</ele>
        <time>2024-04-06T14:28:43.576Z</time>
      </trkpt>
      <trkpt lat="43.9072" lon="3.99895">
        <ele>70.9</ele>
        <time>2024-04-06T14:28:44.460Z</time>
      </trkpt>
      <trkpt lat="43.90719" lon="3.999">
        <ele>70.8</ele>
        <time>2024-04-06T14:28:45.563Z</time>
      </trkpt>
      <trkpt lat="43.90717" lon="3.99903">
        <ele>70.7</ele>
        <time>2024-04-06T14:28:46.413Z</time>
      </trkpt>
      <trkpt lat="43.90716" lon="3.99905">
        <ele>70.6</ele>
        <time>2024-04-06T14:28:46.904Z</time>
      </trkpt>
      <trkpt lat="43.90715" lon="3.99909">
        <ele>70.6</ele>
        <time>2024-04-06T14:28:47.880Z</time>
      </trkpt>
      <trkpt lat="43.90721" lon="3.99912">
        <ele>70.9</ele>
        <time>2024-04-06T14:28:50.249Z</time>
      </trkpt>
      <trkpt lat="43.90723" lon="3.99912">
        <ele>71</ele>
        <time>2024-04-06T14:28:50.999Z</time>
      </trkpt>
      <trkpt lat="43.90725" lon="3.99912">
        <ele>71.1</ele>
        <time>2024-04-06T14:28:51.749Z</time>
      </trkpt>
      <trkpt lat="43.90726" lon="3.99912">
        <ele>71.1</ele>
        <time>2024-04-06T14:28:52.069Z</time>
      </trkpt>
      <trkpt lat="43.90727" lon="3.99911">
        <ele>71.2</ele>
        <time>2024-04-06T14:28:52.582Z</time>
      </trkpt>
    </trkseg>
  </trk>
</gpx>